<?xml version='1.0' encoding='UTF-8'?><gpx version="1.1" creator="JPX - https://github.com/jenetics/jpx" xmlns="http://www.topografix.com/GPX/1/1"><trk><trkseg><trkpt lat="43.98562618590154" lon="12.676667332857749"><ele>4.0</ele><time>2026-04-25T06:58:44Z</time></trkpt><trkpt lat="43.98557714642121" lon="12.676523005362279"><ele>4.0</ele><time>2026-04-25T07:05:16.999Z</time></trkpt><trkpt lat="43.98566965088285" lon="12.67656418038242"><ele>4.0</ele><time>2026-04-25T07:06:42.999Z</time></trkpt><trkpt lat="43.985737820249625" lon="12.676620265226823"><ele>4.0</ele><time>2026-04-25T07:06:44.999Z</time></trkpt><trkpt lat="43.98582638541094" lon="12.676709665836617"><ele>4.0</ele><time>2026-04-25T07:06:46.999Z</time></trkpt><trkpt lat="43.98583000536115" lon="12.676812665549056"><ele>3.9999999999999996</ele><time>2026-04-25T07:06:47.999Z</time></trkpt><trkpt lat="43.98589826067463" lon="12.676892034722849"><ele>4.0</ele><time>2026-04-25T07:06:49.999Z</time></trkpt><trkpt lat="43.985950978589386" lon="12.676951205179012"><ele>4.0</ele><time>2026-04-25T07:06:51.999Z</time></trkpt><trkpt lat="43.98601351656412" lon="12.676993592517112"><ele>4.0</ele><time>2026-04-25T07:06:54.999Z</time></trkpt><trkpt lat="43.98594527875119" lon="12.677131049544705"><ele>3.9999999999999996</ele><time>2026-04-25T07:06:56.999Z</time></trkpt><trkpt lat="43.98587595114569" lon="12.677216476905814"><ele>4.0</ele><time>2026-04-25T07:06:57.999Z</time></trkpt><trkpt lat="43.98581166309946" lon="12.677315158346506"><ele>3.8571428571428568</ele><time>2026-04-25T07:06:58.999Z</time></trkpt><trkpt lat="43.98576005701722" lon="12.677402709691776"><ele>3.714285714285714</ele><time>2026-04-25T07:06:59.999Z</time></trkpt><trkpt lat="43.985719309611184" lon="12.677495864303447"><ele>3.571428571428571</ele><time>2026-04-25T07:07:00.999Z</time></trkpt><trkpt lat="43.985664417914016" lon="12.677561655637705"><ele>3.4285714285714284</ele><time>2026-04-25T07:07:01.999Z</time></trkpt><trkpt lat="43.98562921146462" lon="12.677648059804278"><ele>3.2857142857142856</ele><time>2026-04-25T07:07:02.999Z</time></trkpt><trkpt lat="43.98558197974067" lon="12.677711677571924"><ele>3.1428571428571423</ele><time>2026-04-25T07:07:03.999Z</time></trkpt><trkpt lat="43.985536159576874" lon="12.677783788050615"><ele>3.0</ele><time>2026-04-25T07:07:04.999Z</time></trkpt><trkpt lat="43.98548814225561" lon="12.677853218659227"><ele>3.0</ele><time>2026-04-25T07:07:05.999Z</time></trkpt><trkpt lat="43.985411921071396" lon="12.67794632405818"><ele>3.0</ele><time>2026-04-25T07:07:07.999Z</time></trkpt><trkpt lat="43.985351712514365" lon="12.678031821339989"><ele>3.0</ele><time>2026-04-25T07:07:09.999Z</time></trkpt><trkpt lat="43.98529047957004" lon="12.678092618674507"><ele>3.0</ele><time>2026-04-25T07:07:10.999Z</time></trkpt><trkpt lat="43.98519694638747" lon="12.678112031041486"><ele>3.0</ele><time>2026-04-25T07:07:12.999Z</time></trkpt><trkpt lat="43.98513035682231" lon="12.677980627484212"><ele>3.0</ele><time>2026-04-25T07:07:13.999Z</time></trkpt><trkpt lat="43.98506673072123" lon="12.677934180448851"><ele>3.0</ele><time>2026-04-25T07:07:14.999Z</time></trkpt><trkpt lat="43.985013567033576" lon="12.677874521338005"><ele>3.0</ele><time>2026-04-25T07:07:15.999Z</time></trkpt><trkpt lat="43.98500017007184" lon="12.677768912567192"><ele>3.0</ele><time>2026-04-25T07:07:16.999Z</time></trkpt><trkpt lat="43.98493644528493" lon="12.677679266660668"><ele>3.0</ele><time>2026-04-25T07:07:18.999Z</time></trkpt><trkpt lat="43.98486283458092" lon="12.677612532543193"><ele>3.0</ele><time>2026-04-25T07:07:21.999Z</time></trkpt><trkpt lat="43.98475722868734" lon="12.677571248671585"><ele>3.0</ele><time>2026-04-25T07:07:44.999Z</time></trkpt><trkpt lat="43.98461861384975" lon="12.677686899602104"><ele>3.0</ele><time>2026-04-25T07:07:46.999Z</time></trkpt><trkpt lat="43.98455548941578" lon="12.677782749328928"><ele>3.0</ele><time>2026-04-25T07:07:47.999Z</time></trkpt><trkpt lat="43.984489770409574" lon="12.677900125323038"><ele>3.0</ele><time>2026-04-25T07:07:48.999Z</time></trkpt><trkpt lat="43.98442285578214" lon="12.678028528522349"><ele>3.0</ele><time>2026-04-25T07:07:49.999Z</time></trkpt><trkpt lat="43.98434708529987" lon="12.678157925479205"><ele>3.0</ele><time>2026-04-25T07:07:50.999Z</time></trkpt><trkpt lat="43.98427124193192" lon="12.678281284074988"><ele>3.0</ele><time>2026-04-25T07:07:51.999Z</time></trkpt><trkpt lat="43.98419375698917" lon="12.678412981018006"><ele>3.0</ele><time>2026-04-25T07:07:52.999Z</time></trkpt><trkpt lat="43.98411143852432" lon="12.678551098080368"><ele>3.0</ele><time>2026-04-25T07:07:54Z</time></trkpt><trkpt lat="43.98402389384316" lon="12.678696260557995"><ele>3.0</ele><time>2026-04-25T07:07:55Z</time></trkpt><trkpt lat="43.983932336115316" lon="12.678846409314424"><ele>3.0</ele><time>2026-04-25T07:07:56Z</time></trkpt><trkpt lat="43.98383873396955" lon="12.679003330360269"><ele>3.0</ele><time>2026-04-25T07:07:57Z</time></trkpt><trkpt lat="43.98374926189522" lon="12.679155041301373"><ele>3.0</ele><time>2026-04-25T07:07:58Z</time></trkpt><trkpt lat="43.983658119493676" lon="12.679304351023092"><ele>3.0</ele><time>2026-04-25T07:07:59Z</time></trkpt><trkpt lat="43.98356502512239" lon="12.67945648858988"><ele>3.0</ele><time>2026-04-25T07:08:00Z</time></trkpt><trkpt lat="43.983472100248065" lon="12.679607816376476"><ele>3.0</ele><time>2026-04-25T07:08:01Z</time></trkpt><trkpt lat="43.98337716512736" lon="12.67976139374805"><ele>3.0</ele><time>2026-04-25T07:08:02Z</time></trkpt><trkpt lat="43.98327932693047" lon="12.679914856319344"><ele>3.0</ele><time>2026-04-25T07:08:03Z</time></trkpt><trkpt lat="43.98317897852919" lon="12.680067330382087"><ele>3.0</ele><time>2026-04-25T07:08:04Z</time></trkpt><trkpt lat="43.983086159677896" lon="12.680211341568675"><ele>3.0</ele><time>2026-04-25T07:08:05Z</time></trkpt><trkpt lat="43.98298860302399" lon="12.680356647420217"><ele>2.25</ele><time>2026-04-25T07:08:06Z</time></trkpt><trkpt lat="43.98288996120496" lon="12.680500821248499"><ele>1.5</ele><time>2026-04-25T07:08:07Z</time></trkpt><trkpt lat="43.98279285335622" lon="12.680644630373362"><ele>0.75</ele><time>2026-04-25T07:08:08Z</time></trkpt><trkpt lat="43.98269491619309" lon="12.680791334257274"><ele>0.0</ele><time>2026-04-25T07:08:09Z</time></trkpt><trkpt lat="43.98259869021898" lon="12.680935766011686"><ele>0.5</ele><time>2026-04-25T07:08:10Z</time></trkpt><trkpt lat="43.9825098417805" lon="12.681069571651705"><ele>1.0</ele><time>2026-04-25T07:08:11Z</time></trkpt><trkpt lat="43.98241954344501" lon="12.68120059153207"><ele>1.5</ele><time>2026-04-25T07:08:12Z</time></trkpt><trkpt lat="43.982327105488096" lon="12.681331968251301"><ele>2.0</ele><time>2026-04-25T07:08:13Z</time></trkpt><trkpt lat="43.98223525532638" lon="12.681467207990508"><ele>2.0</ele><time>2026-04-25T07:08:14Z</time></trkpt><trkpt lat="43.982145536540536" lon="12.681604410404908"><ele>2.0</ele><time>2026-04-25T07:08:15Z</time></trkpt><trkpt lat="43.98205161457034" lon="12.68174351600741"><ele>2.0</ele><time>2026-04-25T07:08:16Z</time></trkpt><trkpt lat="43.98195635593593" lon="12.681883940390424"><ele>2.0</ele><time>2026-04-25T07:08:17Z</time></trkpt><trkpt lat="43.98186017057028" lon="12.682025100111153"><ele>2.0</ele><time>2026-04-25T07:08:18Z</time></trkpt><trkpt lat="43.98176230453468" lon="12.682167950076249"><ele>2.0</ele><time>2026-04-25T07:08:19Z</time></trkpt><trkpt lat="43.98166292451429" lon="12.682312843271834"><ele>2.0</ele><time>2026-04-25T07:08:20Z</time></trkpt><trkpt lat="43.98156345082904" lon="12.682463336551178"><ele>2.0</ele><time>2026-04-25T07:08:21Z</time></trkpt><trkpt lat="43.981465693975196" lon="12.682613159739244"><ele>2.5</ele><time>2026-04-25T07:08:22Z</time></trkpt><trkpt lat="43.98136725999901" lon="12.682763752805991"><ele>3.0</ele><time>2026-04-25T07:08:23Z</time></trkpt><trkpt lat="43.98126921120939" lon="12.68291164621759"><ele>3.5</ele><time>2026-04-25T07:08:24Z</time></trkpt><trkpt lat="43.98117350315728" lon="12.683062706716973"><ele>4.0</ele><time>2026-04-25T07:08:25Z</time></trkpt><trkpt lat="43.981076092158574" lon="12.683215423842343"><ele>4.0</ele><time>2026-04-25T07:08:26Z</time></trkpt><trkpt lat="43.98097581788919" lon="12.68337076078421"><ele>4.0</ele><time>2026-04-25T07:08:27Z</time></trkpt><trkpt lat="43.98087251444983" lon="12.683534331962283"><ele>4.0</ele><time>2026-04-25T07:08:28Z</time></trkpt><trkpt lat="43.980763958917606" lon="12.683698958341905"><ele>4.666666666666666</ele><time>2026-04-25T07:08:29Z</time></trkpt><trkpt lat="43.980650875035025" lon="12.683860121518371"><ele>5.333333333333333</ele><time>2026-04-25T07:08:30Z</time></trkpt><trkpt lat="43.9805344585321" lon="12.68401637869958"><ele>6.0</ele><time>2026-04-25T07:08:31Z</time></trkpt><trkpt lat="43.98041851232835" lon="12.68416740713475"><ele>6.0</ele><time>2026-04-25T07:08:32Z</time></trkpt><trkpt lat="43.98030961814866" lon="12.684316923062735"><ele>6.0</ele><time>2026-04-25T07:08:33Z</time></trkpt><trkpt lat="43.9802056318193" lon="12.684462489565174"><ele>6.0</ele><time>2026-04-25T07:08:34Z</time></trkpt><trkpt lat="43.98010504651698" lon="12.684607094224054"><ele>6.0</ele><time>2026-04-25T07:08:35Z</time></trkpt><trkpt lat="43.98000910463147" lon="12.684748844634974"><ele>6.0</ele><time>2026-04-25T07:08:36Z</time></trkpt><trkpt lat="43.97991335730336" lon="12.684889376568634"><ele>6.0</ele><time>2026-04-25T07:08:37Z</time></trkpt><trkpt lat="43.97981781367139" lon="12.685031229577554"><ele>6.0</ele><time>2026-04-25T07:08:38Z</time></trkpt><trkpt lat="43.97971598248153" lon="12.685171285466728"><ele>6.0</ele><time>2026-04-25T07:08:39Z</time></trkpt><trkpt lat="43.97961887540551" lon="12.68531486521013"><ele>6.0</ele><time>2026-04-25T07:08:40Z</time></trkpt><trkpt lat="43.97952328020934" lon="12.685457214035408"><ele>6.0</ele><time>2026-04-25T07:08:41Z</time></trkpt><trkpt lat="43.979430240827604" lon="12.685600151392912"><ele>6.0</ele><time>2026-04-25T07:08:41.999Z</time></trkpt><trkpt lat="43.97934411176865" lon="12.685734524580685"><ele>6.0</ele><time>2026-04-25T07:08:42.999Z</time></trkpt><trkpt lat="43.97926476602559" lon="12.685865420761957"><ele>6.0</ele><time>2026-04-25T07:08:43.999Z</time></trkpt><trkpt lat="43.979201414171506" lon="12.685987603948046"><ele>6.0</ele><time>2026-04-25T07:08:44.999Z</time></trkpt><trkpt lat="43.97914135142417" lon="12.686095863225503"><ele>6.0</ele><time>2026-04-25T07:08:45.999Z</time></trkpt><trkpt lat="43.9790817561358" lon="12.686182879034352"><ele>6.0</ele><time>2026-04-25T07:08:46.999Z</time></trkpt><trkpt lat="43.97900417411008" lon="12.686252155704516"><ele>6.0</ele><time>2026-04-25T07:08:47.999Z</time></trkpt><trkpt lat="43.978927585274924" lon="12.686324348477921"><ele>5.75</ele><time>2026-04-25T07:08:48.999Z</time></trkpt><trkpt lat="43.978860871894696" lon="12.686445369359342"><ele>5.5</ele><time>2026-04-25T07:08:49.999Z</time></trkpt><trkpt lat="43.978802263073746" lon="12.686586572844819"><ele>5.25</ele><time>2026-04-25T07:08:50.999Z</time></trkpt><trkpt lat="43.97872407832557" lon="12.686723948138152"><ele>5.0</ele><time>2026-04-25T07:08:51.999Z</time></trkpt><trkpt lat="43.97863662123763" lon="12.686864425725151"><ele>4.75</ele><time>2026-04-25T07:08:52.999Z</time></trkpt><trkpt lat="43.9785431432905" lon="12.68701447540569"><ele>4.5</ele><time>2026-04-25T07:08:53.999Z</time></trkpt><trkpt lat="43.97844552709258" lon="12.68717577866923"><ele>4.25</ele><time>2026-04-25T07:08:54.999Z</time></trkpt><trkpt lat="43.97835513595122" lon="12.687330517473002"><ele>4.0</ele><time>2026-04-25T07:08:55.999Z</time></trkpt><trkpt lat="43.97826970599813" lon="12.687486917013354"><ele>4.0</ele><time>2026-04-25T07:08:56.999Z</time></trkpt><trkpt lat="43.9781848827351" lon="12.687645116365928"><ele>4.0</ele><time>2026-04-25T07:08:57.999Z</time></trkpt><trkpt lat="43.97810097602943" lon="12.687805044373716"><ele>4.0</ele><time>2026-04-25T07:08:58.999Z</time></trkpt><trkpt lat="43.977938847067556" lon="12.688134225122894"><ele>3.75</ele><time>2026-04-25T07:09:00.999Z</time></trkpt><trkpt lat="43.977857405861826" lon="12.688298893313794"><ele>3.5</ele><time>2026-04-25T07:09:01.999Z</time></trkpt><trkpt lat="43.977774415008845" lon="12.688461142715537"><ele>3.25</ele><time>2026-04-25T07:09:02.999Z</time></trkpt><trkpt lat="43.97768943777112" lon="12.688622102930962"><ele>3.0</ele><time>2026-04-25T07:09:03.999Z</time></trkpt><trkpt lat="43.97760733092461" lon="12.688784165876692"><ele>3.0</ele><time>2026-04-25T07:09:04.999Z</time></trkpt><trkpt lat="43.97752495535753" lon="12.688947150972803"><ele>3.0</ele><time>2026-04-25T07:09:05.999Z</time></trkpt><trkpt lat="43.97744369718991" lon="12.689110233096944"><ele>3.0</ele><time>2026-04-25T07:09:06.999Z</time></trkpt><trkpt lat="43.97736107169242" lon="12.68927193550832"><ele>3.0</ele><time>2026-04-25T07:09:07.999Z</time></trkpt><trkpt lat="43.977278018830404" lon="12.689432575663906"><ele>3.25</ele><time>2026-04-25T07:09:08.999Z</time></trkpt><trkpt lat="43.977197802238734" lon="12.689592494297218"><ele>3.5</ele><time>2026-04-25T07:09:09.999Z</time></trkpt><trkpt lat="43.97711781581447" lon="12.689753613392606"><ele>3.75</ele><time>2026-04-25T07:09:10.999Z</time></trkpt><trkpt lat="43.97703682941851" lon="12.689915015884168"><ele>4.0</ele><time>2026-04-25T07:09:11.999Z</time></trkpt><trkpt lat="43.976956374146944" lon="12.690078773946302"><ele>4.0</ele><time>2026-04-25T07:09:12.999Z</time></trkpt><trkpt lat="43.97687410332366" lon="12.690237793981892"><ele>4.0</ele><time>2026-04-25T07:09:13.999Z</time></trkpt><trkpt lat="43.97679494548234" lon="12.690392346662112"><ele>4.0</ele><time>2026-04-25T07:09:14.999Z</time></trkpt><trkpt lat="43.97671853238213" lon="12.690545047367934"><ele>4.0</ele><time>2026-04-25T07:09:15.999Z</time></trkpt><trkpt lat="43.97664494954317" lon="12.690696396114825"><ele>4.25</ele><time>2026-04-25T07:09:16.999Z</time></trkpt><trkpt lat="43.97657172230266" lon="12.690843722627184"><ele>4.5</ele><time>2026-04-25T07:09:17.999Z</time></trkpt><trkpt lat="43.976499212148866" lon="12.690988064991137"><ele>4.75</ele><time>2026-04-25T07:09:18.999Z</time></trkpt><trkpt lat="43.97642545523346" lon="12.691129893066057"><ele>5.0</ele><time>2026-04-25T07:09:19.999Z</time></trkpt><trkpt lat="43.97634937527093" lon="12.69127309005421"><ele>5.0</ele><time>2026-04-25T07:09:20.999Z</time></trkpt><trkpt lat="43.97627888067997" lon="12.691418691827929"><ele>5.0</ele><time>2026-04-25T07:09:21.999Z</time></trkpt><trkpt lat="43.976206315432016" lon="12.691561646075353"><ele>5.0</ele><time>2026-04-25T07:09:22.999Z</time></trkpt><trkpt lat="43.97613315107785" lon="12.691705895170497"><ele>5.0</ele><time>2026-04-25T07:09:23.999Z</time></trkpt><trkpt lat="43.97605953058017" lon="12.691848696897956"><ele>4.75</ele><time>2026-04-25T07:09:24.999Z</time></trkpt><trkpt lat="43.97598719694769" lon="12.691992758070825"><ele>4.5</ele><time>2026-04-25T07:09:25.999Z</time></trkpt><trkpt lat="43.975915681350024" lon="12.69213303569618"><ele>4.25</ele><time>2026-04-25T07:09:26.999Z</time></trkpt><trkpt lat="43.97584848127717" lon="12.692272532214282"><ele>4.0</ele><time>2026-04-25T07:09:27.999Z</time></trkpt><trkpt lat="43.97578378373127" lon="12.692398939416927"><ele>4.0</ele><time>2026-04-25T07:09:28.999Z</time></trkpt><trkpt lat="43.975722567079174" lon="12.692520021543427"><ele>4.0</ele><time>2026-04-25T07:09:29.999Z</time></trkpt><trkpt lat="43.97566310758024" lon="12.692634732453627"><ele>4.0</ele><time>2026-04-25T07:09:30.999Z</time></trkpt><trkpt lat="43.97560720197173" lon="12.692746061736024"><ele>4.0</ele><time>2026-04-25T07:09:31.999Z</time></trkpt><trkpt lat="43.97554968831973" lon="12.69285543312429"><ele>4.0</ele><time>2026-04-25T07:09:32.999Z</time></trkpt><trkpt lat="43.97549269632515" lon="12.692962758530165"><ele>3.6666666666666665</ele><time>2026-04-25T07:09:33.999Z</time></trkpt><trkpt lat="43.97543701751527" lon="12.693068615431319"><ele>3.333333333333333</ele><time>2026-04-25T07:09:34.999Z</time></trkpt><trkpt lat="43.975382046378115" lon="12.693173451891578"><ele>3.0</ele><time>2026-04-25T07:09:35.999Z</time></trkpt><trkpt lat="43.975329338146786" lon="12.693274016514666"><ele>2.6666666666666665</ele><time>2026-04-25T07:09:36.999Z</time></trkpt><trkpt lat="43.97527990903941" lon="12.693367100185672"><ele>2.333333333333333</ele><time>2026-04-25T07:09:37.999Z</time></trkpt><trkpt lat="43.975234003905605" lon="12.693456667802128"><ele>2.0</ele><time>2026-04-25T07:09:38.999Z</time></trkpt><trkpt lat="43.97518873053672" lon="12.693540279015581"><ele>2.1666666666666665</ele><time>2026-04-25T07:09:39.999Z</time></trkpt><trkpt lat="43.97514724457089" lon="12.693619860682865"><ele>2.333333333333333</ele><time>2026-04-25T07:09:40.999Z</time></trkpt><trkpt lat="43.97511006210438" lon="12.6936949817595"><ele>2.5</ele><time>2026-04-25T07:09:41.999Z</time></trkpt><trkpt lat="43.97503837788868" lon="12.69383670832598"><ele>2.6666666666666665</ele><time>2026-04-25T07:09:43.999Z</time></trkpt><trkpt lat="43.97497710016817" lon="12.693954962265847"><ele>2.8333333333333335</ele><time>2026-04-25T07:09:45.999Z</time></trkpt><trkpt lat="43.97492834795303" lon="12.694026279325623"><ele>3.0</ele><time>2026-04-25T07:09:47.999Z</time></trkpt><trkpt lat="43.97487625311212" lon="12.69410878465394"><ele>3.0</ele><time>2026-04-25T07:10:01Z</time></trkpt><trkpt lat="43.97482426257387" lon="12.694206170348384"><ele>3.0</ele><time>2026-04-25T07:10:03Z</time></trkpt><trkpt lat="43.97477601529368" lon="12.694300108913826"><ele>3.0</ele><time>2026-04-25T07:10:05Z</time></trkpt><trkpt lat="43.974708745931984" lon="12.694446391870766"><ele>3.0</ele><time>2026-04-25T07:10:07Z</time></trkpt><trkpt lat="43.97466785590706" lon="12.694526929158625"><ele>3.0</ele><time>2026-04-25T07:10:08Z</time></trkpt><trkpt lat="43.97462478459116" lon="12.694610081924102"><ele>3.0</ele><time>2026-04-25T07:10:09Z</time></trkpt><trkpt lat="43.97458108048976" lon="12.694697124554953"><ele>3.0</ele><time>2026-04-25T07:10:10Z</time></trkpt><trkpt lat="43.974532279545365" lon="12.694792964175596"><ele>3.0</ele><time>2026-04-25T07:10:11Z</time></trkpt><trkpt lat="43.974479539055125" lon="12.694900227536312"><ele>3.0</ele><time>2026-04-25T07:10:12Z</time></trkpt><trkpt lat="43.974417892844855" lon="12.695014867979737"><ele>3.0</ele><time>2026-04-25T07:10:13Z</time></trkpt><trkpt lat="43.97435992546289" lon="12.695122128240401"><ele>3.0</ele><time>2026-04-25T07:10:14Z</time></trkpt><trkpt lat="43.97430797546643" lon="12.695221217251204"><ele>3.0</ele><time>2026-04-25T07:10:15Z</time></trkpt><trkpt lat="43.97425408153736" lon="12.6953237335108"><ele>3.0</ele><time>2026-04-25T07:10:16Z</time></trkpt><trkpt lat="43.97419715909147" lon="12.695428276040012"><ele>3.0</ele><time>2026-04-25T07:10:17Z</time></trkpt><trkpt lat="43.97414013914479" lon="12.69553878394787"><ele>3.0</ele><time>2026-04-25T07:10:18Z</time></trkpt><trkpt lat="43.97407954215038" lon="12.695651711181762"><ele>3.0</ele><time>2026-04-25T07:10:19Z</time></trkpt><trkpt lat="43.97401696266323" lon="12.695772026330836"><ele>3.0</ele><time>2026-04-25T07:10:20Z</time></trkpt><trkpt lat="43.97395091963158" lon="12.69590027426146"><ele>3.0</ele><time>2026-04-25T07:10:21Z</time></trkpt><trkpt lat="43.97388079927069" lon="12.696033041577738"><ele>3.0</ele><time>2026-04-25T07:10:22Z</time></trkpt><trkpt lat="43.97380729138739" lon="12.696171517164604"><ele>3.0</ele><time>2026-04-25T07:10:23Z</time></trkpt><trkpt lat="43.973733581942916" lon="12.696318000397483"><ele>3.25</ele><time>2026-04-25T07:10:24Z</time></trkpt><trkpt lat="43.97365758822742" lon="12.696468932358869"><ele>3.5</ele><time>2026-04-25T07:10:25Z</time></trkpt><trkpt lat="43.97358224885444" lon="12.696622480752696"><ele>3.75</ele><time>2026-04-25T07:10:26Z</time></trkpt><trkpt lat="43.97351032455498" lon="12.696771204927378"><ele>4.0</ele><time>2026-04-25T07:10:27Z</time></trkpt><trkpt lat="43.97343591139871" lon="12.696929735566458"><ele>4.25</ele><time>2026-04-25T07:10:28Z</time></trkpt><trkpt lat="43.97335720586461" lon="12.697093802242652"><ele>4.5</ele><time>2026-04-25T07:10:29Z</time></trkpt><trkpt lat="43.97327247577466" lon="12.697264836287474"><ele>4.75</ele><time>2026-04-25T07:10:30Z</time></trkpt><trkpt lat="43.973183204887796" lon="12.697442655310326"><ele>5.0</ele><time>2026-04-25T07:10:31Z</time></trkpt><trkpt lat="43.97309788443503" lon="12.697632238247376"><ele>3.666666666666667</ele><time>2026-04-25T07:10:32Z</time></trkpt><trkpt lat="43.97300276251113" lon="12.697824355738334"><ele>2.3333333333333335</ele><time>2026-04-25T07:10:33Z</time></trkpt><trkpt lat="43.97290650525584" lon="12.698027840486496"><ele>1.0</ele><time>2026-04-25T07:10:34Z</time></trkpt><trkpt lat="43.97280335324867" lon="12.69823289565371"><ele>1.0</ele><time>2026-04-25T07:10:35Z</time></trkpt><trkpt lat="43.97269924965214" lon="12.69844147862307"><ele>1.0</ele><time>2026-04-25T07:10:36Z</time></trkpt><trkpt lat="43.97259424943711" lon="12.69865865420979"><ele>1.0</ele><time>2026-04-25T07:10:37Z</time></trkpt><trkpt lat="43.97249868168884" lon="12.698865469192194"><ele>0.6666666666666666</ele><time>2026-04-25T07:10:38Z</time></trkpt><trkpt lat="43.97240110514852" lon="12.699074393934563"><ele>0.3333333333333333</ele><time>2026-04-25T07:10:39Z</time></trkpt><trkpt lat="43.972303502022314" lon="12.699283949813731"><ele>0.0</ele><time>2026-04-25T07:10:40Z</time></trkpt><trkpt lat="43.97220042396416" lon="12.69951396802057"><ele>0.0</ele><time>2026-04-25T07:10:41Z</time></trkpt><trkpt lat="43.97208405222996" lon="12.699752383155289"><ele>0.0</ele><time>2026-04-25T07:10:42Z</time></trkpt><trkpt lat="43.97196565970318" lon="12.699995668200563"><ele>0.0</ele><time>2026-04-25T07:10:43Z</time></trkpt><trkpt lat="43.971848025018886" lon="12.700238883836679"><ele>0.0</ele><time>2026-04-25T07:10:44Z</time></trkpt><trkpt lat="43.97172414654082" lon="12.700475599013854"><ele>0.0</ele><time>2026-04-25T07:10:45Z</time></trkpt><trkpt lat="43.97160175989119" lon="12.700697126061277"><ele>0.0</ele><time>2026-04-25T07:10:46Z</time></trkpt><trkpt lat="43.971497717726685" lon="12.700908074036187"><ele>-0.25</ele><time>2026-04-25T07:10:46.999Z</time></trkpt><trkpt lat="43.97140783272831" lon="12.701098968118014"><ele>-0.5</ele><time>2026-04-25T07:10:47.999Z</time></trkpt><trkpt lat="43.971327339129324" lon="12.701271605179828"><ele>-0.75</ele><time>2026-04-25T07:10:48.999Z</time></trkpt><trkpt lat="43.97125641259072" lon="12.701423931070003"><ele>-1.0</ele><time>2026-04-25T07:10:49.999Z</time></trkpt><trkpt lat="43.97120030410673" lon="12.701545030704947"><ele>-0.9999999999999999</ele><time>2026-04-25T07:10:50.999Z</time></trkpt><trkpt lat="43.97114828885448" lon="12.70163332271845"><ele>-1.0</ele><time>2026-04-25T07:10:51.999Z</time></trkpt><trkpt lat="43.97108944304297" lon="12.70169906431574"><ele>-1.0</ele><time>2026-04-25T07:10:52.999Z</time></trkpt><trkpt lat="43.97102109021262" lon="12.701742424365845"><ele>-1.0</ele><time>2026-04-25T07:10:53.999Z</time></trkpt><trkpt lat="43.97094552814503" lon="12.701785541359586"><ele>-0.9999999999999999</ele><time>2026-04-25T07:10:54.999Z</time></trkpt><trkpt lat="43.97088423470591" lon="12.701852600384157"><ele>-1.0</ele><time>2026-04-25T07:10:55.999Z</time></trkpt><trkpt lat="43.970857871212736" lon="12.701945454958096"><ele>-0.6000000000000001</ele><time>2026-04-25T07:10:56.999Z</time></trkpt><trkpt lat="43.97085254914309" lon="12.702069541928248"><ele>-0.20000000000000007</ele><time>2026-04-25T07:10:57.999Z</time></trkpt><trkpt lat="43.97085637519449" lon="12.702209499551039"><ele>0.20000000000000007</ele><time>2026-04-25T07:10:58.999Z</time></trkpt><trkpt lat="43.97083676407402" lon="12.702359955357897"><ele>0.6000000000000001</ele><time>2026-04-25T07:10:59.999Z</time></trkpt><trkpt lat="43.970788927881195" lon="12.702510986412335"><ele>1.0</ele><time>2026-04-25T07:11:00.999Z</time></trkpt><trkpt lat="43.97073051602761" lon="12.702657304341061"><ele>1.25</ele><time>2026-04-25T07:11:01.999Z</time></trkpt><trkpt lat="43.97067244095686" lon="12.702793035606806"><ele>1.5</ele><time>2026-04-25T07:11:02.999Z</time></trkpt><trkpt lat="43.97061100760101" lon="12.702933612901335"><ele>1.75</ele><time>2026-04-25T07:11:03.999Z</time></trkpt><trkpt lat="43.97054982741293" lon="12.70307424418428"><ele>2.0</ele><time>2026-04-25T07:11:04.999Z</time></trkpt><trkpt lat="43.97048635534321" lon="12.703219230400485"><ele>2.0</ele><time>2026-04-25T07:11:05.999Z</time></trkpt><trkpt lat="43.97042234775261" lon="12.703365609383173"><ele>2.0</ele><time>2026-04-25T07:11:06.999Z</time></trkpt><trkpt lat="43.970360452379126" lon="12.703515866642666"><ele>2.0</ele><time>2026-04-25T07:11:07.999Z</time></trkpt><trkpt lat="43.970302103035316" lon="12.703662527481598"><ele>2.0</ele><time>2026-04-25T07:11:08.999Z</time></trkpt><trkpt lat="43.97024649703606" lon="12.703801658961725"><ele>2.0</ele><time>2026-04-25T07:11:09.999Z</time></trkpt><trkpt lat="43.97019220315221" lon="12.703938572022036"><ele>2.0</ele><time>2026-04-25T07:11:10.999Z</time></trkpt><trkpt lat="43.97013701935622" lon="12.704075199481398"><ele>2.0</ele><time>2026-04-25T07:11:11.999Z</time></trkpt><trkpt lat="43.97008007262501" lon="12.704212812794621"><ele>2.0</ele><time>2026-04-25T07:11:12.999Z</time></trkpt><trkpt lat="43.97002044943099" lon="12.704349023835972"><ele>2.25</ele><time>2026-04-25T07:11:13.999Z</time></trkpt><trkpt lat="43.96996146396654" lon="12.704487272317932"><ele>2.5</ele><time>2026-04-25T07:11:14.999Z</time></trkpt><trkpt lat="43.96990370538249" lon="12.70462833498737"><ele>2.75</ele><time>2026-04-25T07:11:15.999Z</time></trkpt><trkpt lat="43.969848143915" lon="12.704769278775082"><ele>3.0</ele><time>2026-04-25T07:11:16.999Z</time></trkpt><trkpt lat="43.9697940829566" lon="12.704910869982626"><ele>3.0</ele><time>2026-04-25T07:11:17.999Z</time></trkpt><trkpt lat="43.96973918125137" lon="12.705053525491993"><ele>3.0</ele><time>2026-04-25T07:11:18.999Z</time></trkpt><trkpt lat="43.96968512239502" lon="12.705197528798854"><ele>3.0</ele><time>2026-04-25T07:11:19.999Z</time></trkpt><trkpt lat="43.96963002901179" lon="12.705343185958922"><ele>3.0</ele><time>2026-04-25T07:11:20.999Z</time></trkpt><trkpt lat="43.9695726918997" lon="12.705488339331511"><ele>3.0</ele><time>2026-04-25T07:11:21.999Z</time></trkpt><trkpt lat="43.969513405974276" lon="12.705637407458621"><ele>3.0</ele><time>2026-04-25T07:11:22.999Z</time></trkpt><trkpt lat="43.969451695291724" lon="12.70579560711847"><ele>3.0</ele><time>2026-04-25T07:11:23.999Z</time></trkpt><trkpt lat="43.96938577321825" lon="12.705955742736652"><ele>3.0</ele><time>2026-04-25T07:11:24.999Z</time></trkpt><trkpt lat="43.96931621264982" lon="12.70611742617652"><ele>3.0</ele><time>2026-04-25T07:11:25.999Z</time></trkpt><trkpt lat="43.96924341925971" lon="12.706282269950472"><ele>3.0</ele><time>2026-04-25T07:11:26.999Z</time></trkpt><trkpt lat="43.96916587393639" lon="12.706449266553088"><ele>3.0</ele><time>2026-04-25T07:11:27.999Z</time></trkpt><trkpt lat="43.96908228035196" lon="12.706618239815413"><ele>3.0</ele><time>2026-04-25T07:11:28.999Z</time></trkpt><trkpt lat="43.96899751258317" lon="12.706790686514013"><ele>2.6666666666666665</ele><time>2026-04-25T07:11:29.999Z</time></trkpt><trkpt lat="43.96891119869699" lon="12.706964203233063"><ele>2.333333333333333</ele><time>2026-04-25T07:11:30.999Z</time></trkpt><trkpt lat="43.968821719241525" lon="12.70713821386379"><ele>2.0</ele><time>2026-04-25T07:11:31.999Z</time></trkpt><trkpt lat="43.96872641285376" lon="12.70731092879184"><ele>2.0</ele><time>2026-04-25T07:11:32.999Z</time></trkpt><trkpt lat="43.96862704873655" lon="12.707480451031387"><ele>2.0</ele><time>2026-04-25T07:11:33.999Z</time></trkpt><trkpt lat="43.968524434302914" lon="12.707649350015053"><ele>2.0</ele><time>2026-04-25T07:11:34.999Z</time></trkpt><trkpt lat="43.96841860571901" lon="12.707818322899215"><ele>2.333333333333333</ele><time>2026-04-25T07:11:35.999Z</time></trkpt><trkpt lat="43.968313080924986" lon="12.707989438713419"><ele>2.6666666666666665</ele><time>2026-04-25T07:11:36.999Z</time></trkpt><trkpt lat="43.968204361750686" lon="12.708158924021848"><ele>3.0</ele><time>2026-04-25T07:11:37.999Z</time></trkpt><trkpt lat="43.96808842302958" lon="12.708326490654729"><ele>3.0</ele><time>2026-04-25T07:11:38.999Z</time></trkpt><trkpt lat="43.96796968157327" lon="12.708490088457127"><ele>3.0</ele><time>2026-04-25T07:11:39.999Z</time></trkpt><trkpt lat="43.967849594457505" lon="12.708644340569743"><ele>3.0</ele><time>2026-04-25T07:11:40.999Z</time></trkpt><trkpt lat="43.96772751819314" lon="12.708796004899575"><ele>3.333333333333333</ele><time>2026-04-25T07:11:41.999Z</time></trkpt><trkpt lat="43.967603579268435" lon="12.708942828592168"><ele>3.6666666666666665</ele><time>2026-04-25T07:11:42.999Z</time></trkpt><trkpt lat="43.9674772103424" lon="12.709086916387003"><ele>4.0</ele><time>2026-04-25T07:11:43.999Z</time></trkpt><trkpt lat="43.9673495406372" lon="12.709228541532635"><ele>4.0</ele><time>2026-04-25T07:11:44.999Z</time></trkpt><trkpt lat="43.967219669867866" lon="12.709369975945966"><ele>4.0</ele><time>2026-04-25T07:11:45.999Z</time></trkpt><trkpt lat="43.96708534237778" lon="12.709508764207794"><ele>4.0</ele><time>2026-04-25T07:11:46.999Z</time></trkpt><trkpt lat="43.96694857510482" lon="12.709642842473905"><ele>3.6666666666666665</ele><time>2026-04-25T07:11:47.999Z</time></trkpt><trkpt lat="43.966808791871465" lon="12.709772496640118"><ele>3.333333333333333</ele><time>2026-04-25T07:11:48.999Z</time></trkpt><trkpt lat="43.966665281714036" lon="12.709899023072635"><ele>3.0</ele><time>2026-04-25T07:11:49.999Z</time></trkpt><trkpt lat="43.96651977451148" lon="12.710024729431185"><ele>4.666666666666666</ele><time>2026-04-25T07:11:50.999Z</time></trkpt><trkpt lat="43.96637539110348" lon="12.710146001380352"><ele>6.333333333333333</ele><time>2026-04-25T07:11:51.999Z</time></trkpt><trkpt lat="43.96623024356866" lon="12.710264034285416"><ele>8.0</ele><time>2026-04-25T07:11:52.999Z</time></trkpt><trkpt lat="43.96608040419355" lon="12.710385691194483"><ele>8.0</ele><time>2026-04-25T07:11:53.999Z</time></trkpt><trkpt lat="43.96592305837418" lon="12.7105130475486"><ele>8.0</ele><time>2026-04-25T07:11:54.999Z</time></trkpt><trkpt lat="43.96575801420947" lon="12.71064073772073"><ele>8.0</ele><time>2026-04-25T07:11:55.999Z</time></trkpt><trkpt lat="43.9655842782395" lon="12.71077223049559"><ele>7.666666666666666</ele><time>2026-04-25T07:11:56.999Z</time></trkpt><trkpt lat="43.96540435260687" lon="12.710904861878253"><ele>7.333333333333334</ele><time>2026-04-25T07:11:57.999Z</time></trkpt><trkpt lat="43.965216470430036" lon="12.711035716389643"><ele>7.0</ele><time>2026-04-25T07:11:58.999Z</time></trkpt><trkpt lat="43.965022972581885" lon="12.71116374275882"><ele>7.0</ele><time>2026-04-25T07:11:59.999Z</time></trkpt><trkpt lat="43.96483471186253" lon="12.711285568690856"><ele>7.0</ele><time>2026-04-25T07:12:00.998Z</time></trkpt><trkpt lat="43.96464835375567" lon="12.711407411975289"><ele>7.0</ele><time>2026-04-25T07:12:01.998Z</time></trkpt><trkpt lat="43.96446208570968" lon="12.711529034356339"><ele>7.0</ele><time>2026-04-25T07:12:02.998Z</time></trkpt><trkpt lat="43.96427590336402" lon="12.711652836883172"><ele>7.0</ele><time>2026-04-25T07:12:03.998Z</time></trkpt><trkpt lat="43.964087422307124" lon="12.711777582976953"><ele>7.0</ele><time>2026-04-25T07:12:04.998Z</time></trkpt><trkpt lat="43.96389766224497" lon="12.711903396261228"><ele>6.666666666666667</ele><time>2026-04-25T07:12:06Z</time></trkpt><trkpt lat="43.96370750997828" lon="12.712031101830997"><ele>6.333333333333334</ele><time>2026-04-25T07:12:07Z</time></trkpt><trkpt lat="43.96351740431553" lon="12.712159058188975"><ele>6.0</ele><time>2026-04-25T07:12:08Z</time></trkpt><trkpt lat="43.96333098576495" lon="12.712286196383515"><ele>7.666666666666666</ele><time>2026-04-25T07:12:09Z</time></trkpt><trkpt lat="43.963141096917454" lon="12.712414789673645"><ele>9.333333333333332</ele><time>2026-04-25T07:12:10Z</time></trkpt><trkpt lat="43.96295235297916" lon="12.712542620000265"><ele>11.0</ele><time>2026-04-25T07:12:11Z</time></trkpt><trkpt lat="43.96276173500752" lon="12.712669246833507"><ele>11.333333333333332</ele><time>2026-04-25T07:12:12Z</time></trkpt><trkpt lat="43.96257017490273" lon="12.712797744365027"><ele>11.666666666666666</ele><time>2026-04-25T07:12:13Z</time></trkpt><trkpt lat="43.96238055237733" lon="12.712928364965379"><ele>12.0</ele><time>2026-04-25T07:12:14Z</time></trkpt><trkpt lat="43.96219862478504" lon="12.713049087978622"><ele>12.666666666666668</ele><time>2026-04-25T07:12:15Z</time></trkpt><trkpt lat="43.96201931887759" lon="12.713164336473241"><ele>13.333333333333334</ele><time>2026-04-25T07:12:16Z</time></trkpt><trkpt lat="43.961841007256645" lon="12.713286202894098"><ele>14.0</ele><time>2026-04-25T07:12:17Z</time></trkpt><trkpt lat="43.96166297724924" lon="12.713413678884764"><ele>14.333333333333334</ele><time>2026-04-25T07:12:18Z</time></trkpt><trkpt lat="43.96148296212057" lon="12.713547017520707"><ele>14.666666666666668</ele><time>2026-04-25T07:12:19Z</time></trkpt><trkpt lat="43.96130338254594" lon="12.71368805741452"><ele>15.0</ele><time>2026-04-25T07:12:20Z</time></trkpt><trkpt lat="43.96112600004927" lon="12.713837337994823"><ele>15.333333333333332</ele><time>2026-04-25T07:12:21Z</time></trkpt><trkpt lat="43.96094870127811" lon="12.713995337127523"><ele>15.666666666666666</ele><time>2026-04-25T07:12:22Z</time></trkpt><trkpt lat="43.96077645035081" lon="12.71416551275983"><ele>16.0</ele><time>2026-04-25T07:12:23Z</time></trkpt><trkpt lat="43.96060825461318" lon="12.714343070361052"><ele>16.666666666666664</ele><time>2026-04-25T07:12:24Z</time></trkpt><trkpt lat="43.96044430460084" lon="12.71452632384804"><ele>17.333333333333332</ele><time>2026-04-25T07:12:25Z</time></trkpt><trkpt lat="43.960285763108295" lon="12.714719331468256"><ele>18.0</ele><time>2026-04-25T07:12:26Z</time></trkpt><trkpt lat="43.96013216165116" lon="12.71492047517712"><ele>19.0</ele><time>2026-04-25T07:12:27Z</time></trkpt><trkpt lat="43.95998378089337" lon="12.715129906692264"><ele>20.0</ele><time>2026-04-25T07:12:28Z</time></trkpt><trkpt lat="43.959838871151376" lon="12.715347519271068"><ele>21.0</ele><time>2026-04-25T07:12:29Z</time></trkpt><trkpt lat="43.959702024885665" lon="12.715580132617193"><ele>21.0</ele><time>2026-04-25T07:12:30Z</time></trkpt><trkpt lat="43.95957109343399" lon="12.71582223598127"><ele>21.0</ele><time>2026-04-25T07:12:31Z</time></trkpt><trkpt lat="43.959445928347044" lon="12.716071952095367"><ele>21.0</ele><time>2026-04-25T07:12:32Z</time></trkpt><trkpt lat="43.95932969503338" lon="12.716332163693309"><ele>21.0</ele><time>2026-04-25T07:12:33Z</time></trkpt><trkpt lat="43.95922288269129" lon="12.716597915418927"><ele>21.0</ele><time>2026-04-25T07:12:34Z</time></trkpt><trkpt lat="43.95912234779184" lon="12.716872262433112"><ele>21.0</ele><time>2026-04-25T07:12:35Z</time></trkpt><trkpt lat="43.959030914816545" lon="12.717151851336393"><ele>20.0</ele><time>2026-04-25T07:12:36Z</time></trkpt><trkpt lat="43.95894073703042" lon="12.717436295303795"><ele>19.0</ele><time>2026-04-25T07:12:37Z</time></trkpt><trkpt lat="43.958861514853446" lon="12.717725545703003"><ele>18.0</ele><time>2026-04-25T07:12:38Z</time></trkpt><trkpt lat="43.95878980958038" lon="12.718018057197622"><ele>17.0</ele><time>2026-04-25T07:12:39Z</time></trkpt><trkpt lat="43.95872710856275" lon="12.718312042201111"><ele>16.0</ele><time>2026-04-25T07:12:40Z</time></trkpt><trkpt lat="43.95867195539449" lon="12.718588473432447"><ele>15.0</ele><time>2026-04-25T07:12:41Z</time></trkpt><trkpt lat="43.9586232654671" lon="12.718837144035636"><ele>14.333333333333332</ele><time>2026-04-25T07:12:42Z</time></trkpt><trkpt lat="43.95858195103919" lon="12.719076758103117"><ele>13.666666666666666</ele><time>2026-04-25T07:12:43Z</time></trkpt><trkpt lat="43.95854461129532" lon="12.719298108715066"><ele>13.0</ele><time>2026-04-25T07:12:44Z</time></trkpt><trkpt lat="43.958511452247485" lon="12.719499959402883"><ele>13.0</ele><time>2026-04-25T07:12:45Z</time></trkpt><trkpt lat="43.958485178447695" lon="12.719667937876658"><ele>13.0</ele><time>2026-04-25T07:12:46Z</time></trkpt><trkpt lat="43.958454355075986" lon="12.719805694841721"><ele>13.0</ele><time>2026-04-25T07:12:47Z</time></trkpt><trkpt lat="43.9584108370504" lon="12.71992651220578"><ele>13.0</ele><time>2026-04-25T07:12:48Z</time></trkpt><trkpt lat="43.95834810983071" lon="12.720037620362653"><ele>13.0</ele><time>2026-04-25T07:12:49Z</time></trkpt><trkpt lat="43.95834031237068" lon="12.720152179231"><ele>14.0</ele><time>2026-04-25T07:12:50Z</time></trkpt><trkpt lat="43.95832377906243" lon="12.720260300293543"><ele>15.0</ele><time>2026-04-25T07:12:51Z</time></trkpt><trkpt lat="43.958306777240644" lon="12.720371485246776"><ele>16.0</ele><time>2026-04-25T07:12:52Z</time></trkpt><trkpt lat="43.95825997582275" lon="12.720461953553981"><ele>17.0</ele><time>2026-04-25T07:12:53Z</time></trkpt><trkpt lat="43.95830075976716" lon="12.720584311815026"><ele>18.0</ele><time>2026-04-25T07:12:54Z</time></trkpt><trkpt lat="43.95829700424533" lon="12.720748062412511"><ele>18.0</ele><time>2026-04-25T07:12:54.999Z</time></trkpt><trkpt lat="43.95827017900297" lon="12.720949795958566"><ele>18.0</ele><time>2026-04-25T07:12:55.999Z</time></trkpt><trkpt lat="43.958237082657085" lon="12.721171433750573"><ele>18.0</ele><time>2026-04-25T07:12:56.999Z</time></trkpt><trkpt lat="43.958199093136955" lon="12.721395485743109"><ele>17.666666666666668</ele><time>2026-04-25T07:12:57.999Z</time></trkpt><trkpt lat="43.958161796131975" lon="12.721620200495742"><ele>17.333333333333336</ele><time>2026-04-25T07:12:58.999Z</time></trkpt><trkpt lat="43.95812225584338" lon="12.721855422921669"><ele>17.0</ele><time>2026-04-25T07:12:59.999Z</time></trkpt><trkpt lat="43.95807834467595" lon="12.72209736644474"><ele>15.666666666666668</ele><time>2026-04-25T07:13:00.999Z</time></trkpt><trkpt lat="43.95802996235118" lon="12.722344532991412"><ele>14.333333333333332</ele><time>2026-04-25T07:13:01.999Z</time></trkpt><trkpt lat="43.9579785032213" lon="12.722596271754817"><ele>13.0</ele><time>2026-04-25T07:13:02.999Z</time></trkpt><trkpt lat="43.95792599501219" lon="12.722844596666853"><ele>12.333333333333332</ele><time>2026-04-25T07:13:03.999Z</time></trkpt><trkpt lat="43.95787209966767" lon="12.723096588337205"><ele>11.666666666666666</ele><time>2026-04-25T07:13:04.999Z</time></trkpt><trkpt lat="43.95781196924526" lon="12.723352944933795"><ele>11.0</ele><time>2026-04-25T07:13:05.999Z</time></trkpt><trkpt lat="43.95774919009388" lon="12.723614041491638"><ele>11.333333333333332</ele><time>2026-04-25T07:13:06.999Z</time></trkpt><trkpt lat="43.95768130996373" lon="12.723878512573535"><ele>11.666666666666666</ele><time>2026-04-25T07:13:07.999Z</time></trkpt><trkpt lat="43.957608747647626" lon="12.724142796360262"><ele>12.0</ele><time>2026-04-25T07:13:08.999Z</time></trkpt><trkpt lat="43.95753080747524" lon="12.72441052145514"><ele>12.0</ele><time>2026-04-25T07:13:09.999Z</time></trkpt><trkpt lat="43.9574478771982" lon="12.72467817221505"><ele>12.0</ele><time>2026-04-25T07:13:10.999Z</time></trkpt><trkpt lat="43.957357701471444" lon="12.724946206049792"><ele>12.0</ele><time>2026-04-25T07:13:11.999Z</time></trkpt><trkpt lat="43.957261498527615" lon="12.72521263668259"><ele>11.666666666666666</ele><time>2026-04-25T07:13:12.999Z</time></trkpt><trkpt lat="43.95716193758239" lon="12.72547239325274"><ele>11.333333333333332</ele><time>2026-04-25T07:13:13.999Z</time></trkpt><trkpt lat="43.95706238162839" lon="12.72572236652371"><ele>11.0</ele><time>2026-04-25T07:13:14.999Z</time></trkpt><trkpt lat="43.95695350156613" lon="12.72597199098056"><ele>12.0</ele><time>2026-04-25T07:13:15.999Z</time></trkpt><trkpt lat="43.95684102700531" lon="12.726218780780037"><ele>13.0</ele><time>2026-04-25T07:13:16.999Z</time></trkpt><trkpt lat="43.95672413701873" lon="12.726463344230327"><ele>14.0</ele><time>2026-04-25T07:13:17.999Z</time></trkpt><trkpt lat="43.956601863052846" lon="12.726699083024526"><ele>14.0</ele><time>2026-04-25T07:13:18.999Z</time></trkpt><trkpt lat="43.95647662086069" lon="12.726927528047518"><ele>14.0</ele><time>2026-04-25T07:13:19.999Z</time></trkpt><trkpt lat="43.95635078569051" lon="12.727144353731386"><ele>14.0</ele><time>2026-04-25T07:13:20.999Z</time></trkpt><trkpt lat="43.95622072365819" lon="12.727352367654266"><ele>14.0</ele><time>2026-04-25T07:13:21.999Z</time></trkpt><trkpt lat="43.95609225665519" lon="12.727552691911255"><ele>14.0</ele><time>2026-04-25T07:13:22.999Z</time></trkpt><trkpt lat="43.95596413888785" lon="12.727746219823002"><ele>14.0</ele><time>2026-04-25T07:13:23.999Z</time></trkpt><trkpt lat="43.955833751391275" lon="12.727934259543995"><ele>15.0</ele><time>2026-04-25T07:13:24.999Z</time></trkpt><trkpt lat="43.95570609667242" lon="12.72810655585077"><ele>16.0</ele><time>2026-04-25T07:13:25.999Z</time></trkpt><trkpt lat="43.95557515864147" lon="12.728280095159688"><ele>17.0</ele><time>2026-04-25T07:13:26.999Z</time></trkpt><trkpt lat="43.95546392391168" lon="12.728429464246883"><ele>17.0</ele><time>2026-04-25T07:13:27.999Z</time></trkpt><trkpt lat="43.95535974991533" lon="12.728565020384163"><ele>17.0</ele><time>2026-04-25T07:13:28.999Z</time></trkpt><trkpt lat="43.95526478298028" lon="12.728684309096542"><ele>17.0</ele><time>2026-04-25T07:13:29.999Z</time></trkpt><trkpt lat="43.95517692067109" lon="12.72878094120266"><ele>17.0</ele><time>2026-04-25T07:13:30.999Z</time></trkpt><trkpt lat="43.955090714335164" lon="12.728856489652873"><ele>16.8</ele><time>2026-04-25T07:13:31.999Z</time></trkpt><trkpt lat="43.95500775200911" lon="12.728895658966547"><ele>16.6</ele><time>2026-04-25T07:13:32.999Z</time></trkpt><trkpt lat="43.9549219037319" lon="12.728884295671609"><ele>16.400000000000002</ele><time>2026-04-25T07:13:33.999Z</time></trkpt><trkpt lat="43.95483556937081" lon="12.728906760328877"><ele>16.2</ele><time>2026-04-25T07:13:34.999Z</time></trkpt><trkpt lat="43.95475835145848" lon="12.7289812881508"><ele>16.0</ele><time>2026-04-25T07:13:35.999Z</time></trkpt><trkpt lat="43.95470288961422" lon="12.729094409779524"><ele>16.0</ele><time>2026-04-25T07:13:36.999Z</time></trkpt><trkpt lat="43.9546696951962" lon="12.729230206046518"><ele>16.0</ele><time>2026-04-25T07:13:37.999Z</time></trkpt><trkpt lat="43.95463887128311" lon="12.729374326828728"><ele>16.0</ele><time>2026-04-25T07:13:38.999Z</time></trkpt><trkpt lat="43.95457194017011" lon="12.729500194817934"><ele>16.0</ele><time>2026-04-25T07:13:39.999Z</time></trkpt><trkpt lat="43.95447280246206" lon="12.729605473380163"><ele>16.0</ele><time>2026-04-25T07:13:40.999Z</time></trkpt><trkpt lat="43.95436237845623" lon="12.72971028555757"><ele>16.333333333333332</ele><time>2026-04-25T07:13:41.999Z</time></trkpt><trkpt lat="43.95424971119438" lon="12.729838989123872"><ele>16.666666666666668</ele><time>2026-04-25T07:13:42.999Z</time></trkpt><trkpt lat="43.954126835907196" lon="12.729974971027465"><ele>17.0</ele><time>2026-04-25T07:13:43.999Z</time></trkpt><trkpt lat="43.95399677254866" lon="12.730113809359242"><ele>16.666666666666668</ele><time>2026-04-25T07:13:44.999Z</time></trkpt><trkpt lat="43.9538675517833" lon="12.730256112272901"><ele>16.333333333333332</ele><time>2026-04-25T07:13:45.999Z</time></trkpt><trkpt lat="43.95373283390813" lon="12.730410587871955"><ele>16.0</ele><time>2026-04-25T07:13:46.999Z</time></trkpt><trkpt lat="43.95359000695445" lon="12.730569108168254"><ele>16.0</ele><time>2026-04-25T07:13:47.999Z</time></trkpt><trkpt lat="43.95344844400295" lon="12.730725579067247"><ele>16.0</ele><time>2026-04-25T07:13:48.999Z</time></trkpt><trkpt lat="43.95331174967981" lon="12.730880437181877"><ele>16.0</ele><time>2026-04-25T07:13:49.999Z</time></trkpt><trkpt lat="43.953173693830514" lon="12.731040617163673"><ele>16.0</ele><time>2026-04-25T07:13:50.999Z</time></trkpt><trkpt lat="43.95303462517604" lon="12.73120089936841"><ele>16.0</ele><time>2026-04-25T07:13:51.999Z</time></trkpt><trkpt lat="43.952894796335464" lon="12.731365399232942"><ele>16.0</ele><time>2026-04-25T07:13:52.999Z</time></trkpt><trkpt lat="43.952755335235985" lon="12.731533621200185"><ele>16.0</ele><time>2026-04-25T07:13:53.999Z</time></trkpt><trkpt lat="43.952615190535404" lon="12.731701525539085"><ele>16.0</ele><time>2026-04-25T07:13:54.999Z</time></trkpt><trkpt lat="43.95247663334437" lon="12.731874720571389"><ele>16.0</ele><time>2026-04-25T07:13:55.999Z</time></trkpt><trkpt lat="43.95234177186775" lon="12.73205708705247"><ele>14.666666666666666</ele><time>2026-04-25T07:13:56.999Z</time></trkpt><trkpt lat="43.95220619002929" lon="12.732243268736422"><ele>13.333333333333332</ele><time>2026-04-25T07:13:57.999Z</time></trkpt><trkpt lat="43.95207388631749" lon="12.732437321147472"><ele>12.0</ele><time>2026-04-25T07:13:58.999Z</time></trkpt><trkpt lat="43.95194285927562" lon="12.732638830237173"><ele>12.666666666666668</ele><time>2026-04-25T07:13:59.999Z</time></trkpt><trkpt lat="43.95181404531335" lon="12.732852069745181"><ele>13.333333333333334</ele><time>2026-04-25T07:14:00.999Z</time></trkpt><trkpt lat="43.95168642300625" lon="12.733076528904117"><ele>14.0</ele><time>2026-04-25T07:14:01.999Z</time></trkpt><trkpt lat="43.95156400366712" lon="12.73331349447126"><ele>14.0</ele><time>2026-04-25T07:14:02.999Z</time></trkpt><trkpt lat="43.95144714700907" lon="12.733565057227622"><ele>14.0</ele><time>2026-04-25T07:14:03.999Z</time></trkpt><trkpt lat="43.95134276666188" lon="12.733834420985692"><ele>14.0</ele><time>2026-04-25T07:14:04.999Z</time></trkpt><trkpt lat="43.95125576586115" lon="12.734119486472057"><ele>13.333333333333334</ele><time>2026-04-25T07:14:05.999Z</time></trkpt><trkpt lat="43.95118608320241" lon="12.734397875496105"><ele>12.666666666666668</ele><time>2026-04-25T07:14:06.999Z</time></trkpt><trkpt lat="43.9511267605184" lon="12.734671468579252"><ele>12.0</ele><time>2026-04-25T07:14:07.999Z</time></trkpt><trkpt lat="43.95107680120576" lon="12.734947459472874"><ele>12.0</ele><time>2026-04-25T07:14:08.998Z</time></trkpt><trkpt lat="43.951032948143165" lon="12.735231259147374"><ele>12.0</ele><time>2026-04-25T07:14:09.998Z</time></trkpt><trkpt lat="43.95099509217189" lon="12.735518528874582"><ele>12.0</ele><time>2026-04-25T07:14:10.998Z</time></trkpt><trkpt lat="43.95096191165384" lon="12.735807832393208"><ele>12.333333333333332</ele><time>2026-04-25T07:14:12Z</time></trkpt><trkpt lat="43.950938609920335" lon="12.73609904627864"><ele>12.666666666666666</ele><time>2026-04-25T07:14:13Z</time></trkpt><trkpt lat="43.9509227191757" lon="12.736390385497081"><ele>13.0</ele><time>2026-04-25T07:14:14Z</time></trkpt><trkpt lat="43.95091612125496" lon="12.736682428133328"><ele>13.333333333333332</ele><time>2026-04-25T07:14:15Z</time></trkpt><trkpt lat="43.95092003305534" lon="12.736974940304313"><ele>13.666666666666668</ele><time>2026-04-25T07:14:16Z</time></trkpt><trkpt lat="43.95092823334883" lon="12.737267453002145"><ele>14.0</ele><time>2026-04-25T07:14:17Z</time></trkpt><trkpt lat="43.95094480363311" lon="12.737558230920952"><ele>14.0</ele><time>2026-04-25T07:14:18Z</time></trkpt><trkpt lat="43.950966323719086" lon="12.737851128145063"><ele>14.0</ele><time>2026-04-25T07:14:19Z</time></trkpt><trkpt lat="43.950995736128625" lon="12.738140325512049"><ele>14.0</ele><time>2026-04-25T07:14:20Z</time></trkpt><trkpt lat="43.951032455048384" lon="12.738429245338043"><ele>14.333333333333334</ele><time>2026-04-25T07:14:21Z</time></trkpt><trkpt lat="43.95107492957174" lon="12.738714348420405"><ele>14.666666666666668</ele><time>2026-04-25T07:14:22Z</time></trkpt><trkpt lat="43.95112374865264" lon="12.738990647708114"><ele>15.0</ele><time>2026-04-25T07:14:23Z</time></trkpt><trkpt lat="43.951176693707446" lon="12.739261776519333"><ele>14.666666666666668</ele><time>2026-04-25T07:14:24Z</time></trkpt><trkpt lat="43.95123438720613" lon="12.739526864067475"><ele>14.333333333333334</ele><time>2026-04-25T07:14:25Z</time></trkpt><trkpt lat="43.951294276977734" lon="12.739786987253634"><ele>14.0</ele><time>2026-04-25T07:14:26Z</time></trkpt><trkpt lat="43.95135836866771" lon="12.740041656364653"><ele>14.0</ele><time>2026-04-25T07:14:27Z</time></trkpt><trkpt lat="43.95142634878885" lon="12.74029395390972"><ele>14.0</ele><time>2026-04-25T07:14:28Z</time></trkpt><trkpt lat="43.951495629816954" lon="12.740542528267998"><ele>14.0</ele><time>2026-04-25T07:14:29Z</time></trkpt><trkpt lat="43.951565917819735" lon="12.74079052770246"><ele>14.0</ele><time>2026-04-25T07:14:30Z</time></trkpt><trkpt lat="43.951638438067974" lon="12.741034307475823"><ele>14.0</ele><time>2026-04-25T07:14:31Z</time></trkpt><trkpt lat="43.95171039769026" lon="12.741276085143388"><ele>14.0</ele><time>2026-04-25T07:14:32Z</time></trkpt><trkpt lat="43.951787005823675" lon="12.7415204062557"><ele>14.0</ele><time>2026-04-25T07:14:33Z</time></trkpt><trkpt lat="43.95186045605363" lon="12.741764716056505"><ele>14.0</ele><time>2026-04-25T07:14:34Z</time></trkpt><trkpt lat="43.95193429129392" lon="12.742009749117123"><ele>14.0</ele><time>2026-04-25T07:14:35Z</time></trkpt><trkpt lat="43.95200806243623" lon="12.742261410752933"><ele>14.0</ele><time>2026-04-25T07:14:36Z</time></trkpt><trkpt lat="43.95208623530913" lon="12.742520858799251"><ele>14.0</ele><time>2026-04-25T07:14:37Z</time></trkpt><trkpt lat="43.95216508214289" lon="12.742787466262229"><ele>14.0</ele><time>2026-04-25T07:14:38Z</time></trkpt><trkpt lat="43.9522433432494" lon="12.743056997918643"><ele>13.333333333333334</ele><time>2026-04-25T07:14:39Z</time></trkpt><trkpt lat="43.95232324748824" lon="12.743329221132576"><ele>12.666666666666668</ele><time>2026-04-25T07:14:40Z</time></trkpt><trkpt lat="43.952403705159746" lon="12.743603645183937"><ele>12.0</ele><time>2026-04-25T07:14:41Z</time></trkpt><trkpt lat="43.95248564843535" lon="12.743880777083708"><ele>12.0</ele><time>2026-04-25T07:14:42Z</time></trkpt><trkpt lat="43.95256790305847" lon="12.744160222910628"><ele>12.0</ele><time>2026-04-25T07:14:43Z</time></trkpt><trkpt lat="43.95264195007598" lon="12.744430072122118"><ele>12.0</ele><time>2026-04-25T07:14:44Z</time></trkpt><trkpt lat="43.95271034458289" lon="12.744685798979168"><ele>12.666666666666668</ele><time>2026-04-25T07:14:45Z</time></trkpt><trkpt lat="43.95277288252791" lon="12.744929217796985"><ele>13.333333333333334</ele><time>2026-04-25T07:14:46Z</time></trkpt><trkpt lat="43.95282813775009" lon="12.745163485304777"><ele>14.0</ele><time>2026-04-25T07:14:47Z</time></trkpt><trkpt lat="43.95287906633129" lon="12.745397332227295"><ele>14.0</ele><time>2026-04-25T07:14:48Z</time></trkpt><trkpt lat="43.95292579166718" lon="12.745633471260904"><ele>14.0</ele><time>2026-04-25T07:14:49Z</time></trkpt><trkpt lat="43.952970850494495" lon="12.745868743954036"><ele>14.0</ele><time>2026-04-25T07:14:50Z</time></trkpt><trkpt lat="43.95301094391601" lon="12.746103613273728"><ele>13.666666666666668</ele><time>2026-04-25T07:14:51Z</time></trkpt><trkpt lat="43.95304923939482" lon="12.74633971940914"><ele>13.333333333333332</ele><time>2026-04-25T07:14:52Z</time></trkpt><trkpt lat="43.953082414048886" lon="12.74657791381017"><ele>13.0</ele><time>2026-04-25T07:14:53Z</time></trkpt><trkpt lat="43.95310895304565" lon="12.74681149335766"><ele>12.333333333333332</ele><time>2026-04-25T07:14:54Z</time></trkpt><trkpt lat="43.95313173990703" lon="12.747051333185452"><ele>11.666666666666666</ele><time>2026-04-25T07:14:55Z</time></trkpt><trkpt lat="43.95315430330732" lon="12.747296339984354"><ele>11.0</ele><time>2026-04-25T07:14:56Z</time></trkpt><trkpt lat="43.95317269388703" lon="12.7475434402122"><ele>10.666666666666666</ele><time>2026-04-25T07:14:57Z</time></trkpt><trkpt lat="43.95318471503454" lon="12.747793111080929"><ele>10.333333333333334</ele><time>2026-04-25T07:14:58Z</time></trkpt><trkpt lat="43.95319475754274" lon="12.748046108385742"><ele>10.0</ele><time>2026-04-25T07:14:58.999Z</time></trkpt><trkpt lat="43.95320307842287" lon="12.748299481111696"><ele>9.666666666666668</ele><time>2026-04-25T07:14:59.999Z</time></trkpt><trkpt lat="43.953206850991364" lon="12.748556998554841"><ele>9.333333333333334</ele><time>2026-04-25T07:15:00.999Z</time></trkpt><trkpt lat="43.953207277092446" lon="12.748803380492927"><ele>9.0</ele><time>2026-04-25T07:15:01.999Z</time></trkpt><trkpt lat="43.953205014046745" lon="12.749050353786085"><ele>9.0</ele><time>2026-04-25T07:15:02.999Z</time></trkpt><trkpt lat="43.95320391532925" lon="12.749301856184477"><ele>9.0</ele><time>2026-04-25T07:15:03.999Z</time></trkpt><trkpt lat="43.953206144125204" lon="12.749570705335922"><ele>9.0</ele><time>2026-04-25T07:15:04.999Z</time></trkpt><trkpt lat="43.95320714321082" lon="12.749856923767773"><ele>9.333333333333334</ele><time>2026-04-25T07:15:05.999Z</time></trkpt><trkpt lat="43.953205000583026" lon="12.750161006231556"><ele>9.666666666666668</ele><time>2026-04-25T07:15:06.999Z</time></trkpt><trkpt lat="43.95320178589249" lon="12.750468375663457"><ele>10.0</ele><time>2026-04-25T07:15:07.999Z</time></trkpt><trkpt lat="43.95319627964323" lon="12.750775219134201"><ele>10.666666666666668</ele><time>2026-04-25T07:15:08.999Z</time></trkpt><trkpt lat="43.95319202650523" lon="12.751069447871807"><ele>11.333333333333334</ele><time>2026-04-25T07:15:09.999Z</time></trkpt><trkpt lat="43.953189746405" lon="12.75136478058847"><ele>12.0</ele><time>2026-04-25T07:15:10.999Z</time></trkpt><trkpt lat="43.95318498134096" lon="12.751657803907582"><ele>12.333333333333332</ele><time>2026-04-25T07:15:11.999Z</time></trkpt><trkpt lat="43.95318049882084" lon="12.751949257504084"><ele>12.666666666666666</ele><time>2026-04-25T07:15:12.999Z</time></trkpt><trkpt lat="43.95317893087275" lon="12.752236437049541"><ele>13.0</ele><time>2026-04-25T07:15:13.999Z</time></trkpt><trkpt lat="43.95318854241894" lon="12.752516739718569"><ele>13.0</ele><time>2026-04-25T07:15:14.999Z</time></trkpt><trkpt lat="43.95318931760274" lon="12.75281813426859"><ele>13.0</ele><time>2026-04-25T07:15:15.999Z</time></trkpt><trkpt lat="43.95319563114994" lon="12.753123156183428"><ele>13.0</ele><time>2026-04-25T07:15:16.999Z</time></trkpt><trkpt lat="43.953205094884446" lon="12.753427268334047"><ele>12.0</ele><time>2026-04-25T07:15:17.999Z</time></trkpt><trkpt lat="43.95321425825785" lon="12.753731706174795"><ele>11.0</ele><time>2026-04-25T07:15:18.999Z</time></trkpt><trkpt lat="43.95322663385851" lon="12.754036931481783"><ele>10.0</ele><time>2026-04-25T07:15:19.999Z</time></trkpt><trkpt lat="43.95324176566572" lon="12.754343253021396"><ele>9.666666666666668</ele><time>2026-04-25T07:15:20.999Z</time></trkpt><trkpt lat="43.95326062959892" lon="12.754650658629716"><ele>9.333333333333334</ele><time>2026-04-25T07:15:21.999Z</time></trkpt><trkpt lat="43.9532830216388" lon="12.754957887139241"><ele>9.0</ele><time>2026-04-25T07:15:22.999Z</time></trkpt><trkpt lat="43.95330711940676" lon="12.755263408306984"><ele>9.0</ele><time>2026-04-25T07:15:23.999Z</time></trkpt><trkpt lat="43.95333368811577" lon="12.75556765358133"><ele>9.0</ele><time>2026-04-25T07:15:24.999Z</time></trkpt><trkpt lat="43.95335829315922" lon="12.755865570120607"><ele>9.0</ele><time>2026-04-25T07:15:25.999Z</time></trkpt><trkpt lat="43.95338425549634" lon="12.756170928015704"><ele>9.0</ele><time>2026-04-25T07:15:26.999Z</time></trkpt><trkpt lat="43.953412599628955" lon="12.756479070585469"><ele>9.0</ele><time>2026-04-25T07:15:27.999Z</time></trkpt><trkpt lat="43.95344855357043" lon="12.75678674268682"><ele>9.0</ele><time>2026-04-25T07:15:28.999Z</time></trkpt><trkpt lat="43.95349399716906" lon="12.757091564182794"><ele>9.0</ele><time>2026-04-25T07:15:29.999Z</time></trkpt><trkpt lat="43.95353871812259" lon="12.757400740715378"><ele>9.0</ele><time>2026-04-25T07:15:30.999Z</time></trkpt><trkpt lat="43.95357995238876" lon="12.757711153345625"><ele>9.5</ele><time>2026-04-25T07:15:31.999Z</time></trkpt><trkpt lat="43.95361878806563" lon="12.758021603549528"><ele>10.0</ele><time>2026-04-25T07:15:32.999Z</time></trkpt><trkpt lat="43.95365879238148" lon="12.758332428119406"><ele>9.5</ele><time>2026-04-25T07:15:33.999Z</time></trkpt><trkpt lat="43.953699742711635" lon="12.758640683971658"><ele>9.0</ele><time>2026-04-25T07:15:34.999Z</time></trkpt><trkpt lat="43.95373898053974" lon="12.758949499393566"><ele>9.0</ele><time>2026-04-25T07:15:35.999Z</time></trkpt><trkpt lat="43.953781293518624" lon="12.759258049183721"><ele>9.0</ele><time>2026-04-25T07:15:36.999Z</time></trkpt><trkpt lat="43.95382396823272" lon="12.759569217263474"><ele>9.0</ele><time>2026-04-25T07:15:37.999Z</time></trkpt><trkpt lat="43.953872228422625" lon="12.759879647719055"><ele>9.0</ele><time>2026-04-25T07:15:38.999Z</time></trkpt><trkpt lat="43.953929789003254" lon="12.76018629424856"><ele>9.5</ele><time>2026-04-25T07:15:39.999Z</time></trkpt><trkpt lat="43.95399812329773" lon="12.760491466741412"><ele>10.0</ele><time>2026-04-25T07:15:40.999Z</time></trkpt><trkpt lat="43.9540829331597" lon="12.760789697555694"><ele>10.5</ele><time>2026-04-25T07:15:41.999Z</time></trkpt><trkpt lat="43.95418937194612" lon="12.761076480859192"><ele>11.0</ele><time>2026-04-25T07:15:42.999Z</time></trkpt><trkpt lat="43.95431557185299" lon="12.76134787839545"><ele>10.0</ele><time>2026-04-25T07:15:43.999Z</time></trkpt><trkpt lat="43.95445738533425" lon="12.761600182312671"><ele>9.0</ele><time>2026-04-25T07:15:44.999Z</time></trkpt><trkpt lat="43.95461460851991" lon="12.761825489420708"><ele>9.666666666666666</ele><time>2026-04-25T07:15:45.999Z</time></trkpt><trkpt lat="43.95477821433884" lon="12.762037088046846"><ele>10.333333333333332</ele><time>2026-04-25T07:15:46.999Z</time></trkpt><trkpt lat="43.9549572697571" lon="12.76222424622983"><ele>11.0</ele><time>2026-04-25T07:15:47.999Z</time></trkpt><trkpt lat="43.95513708830743" lon="12.762410876574508"><ele>11.0</ele><time>2026-04-25T07:15:48.999Z</time></trkpt><trkpt lat="43.95531727837102" lon="12.762593951723934"><ele>11.0</ele><time>2026-04-25T07:15:49.999Z</time></trkpt><trkpt lat="43.95549868229163" lon="12.762777119714112"><ele>11.0</ele><time>2026-04-25T07:15:50.999Z</time></trkpt><trkpt lat="43.95567923364131" lon="12.762959909374311"><ele>11.0</ele><time>2026-04-25T07:15:51.999Z</time></trkpt><trkpt lat="43.95585981171218" lon="12.763147105357243"><ele>11.0</ele><time>2026-04-25T07:15:52.999Z</time></trkpt><trkpt lat="43.95602806316777" lon="12.763340233885817"><ele>11.0</ele><time>2026-04-25T07:15:53.999Z</time></trkpt><trkpt lat="43.95617318912183" lon="12.763537460566502"><ele>12.666666666666666</ele><time>2026-04-25T07:15:54.999Z</time></trkpt><trkpt lat="43.9562967201765" lon="12.763737284928862"><ele>14.333333333333332</ele><time>2026-04-25T07:15:55.999Z</time></trkpt><trkpt lat="43.95640110544827" lon="12.76394401615248"><ele>16.0</ele><time>2026-04-25T07:15:56.999Z</time></trkpt><trkpt lat="43.956487374345514" lon="12.764169566689455"><ele>15.0</ele><time>2026-04-25T07:15:57.999Z</time></trkpt><trkpt lat="43.95655497756103" lon="12.764405953882846"><ele>14.0</ele><time>2026-04-25T07:15:58.999Z</time></trkpt><trkpt lat="43.95660178494738" lon="12.764640535219623"><ele>13.0</ele><time>2026-04-25T07:15:59.999Z</time></trkpt><trkpt lat="43.95663340402322" lon="12.764860492764738"><ele>13.0</ele><time>2026-04-25T07:16:00.999Z</time></trkpt><trkpt lat="43.95664791182512" lon="12.765066179622492"><ele>13.0</ele><time>2026-04-25T07:16:01.999Z</time></trkpt><trkpt lat="43.956628027389286" lon="12.76525128138414"><ele>13.0</ele><time>2026-04-25T07:16:02.999Z</time></trkpt><trkpt lat="43.95661233379953" lon="12.765423463847293"><ele>13.0</ele><time>2026-04-25T07:16:03.999Z</time></trkpt><trkpt lat="43.956591544813456" lon="12.765579827193092"><ele>13.2</ele><time>2026-04-25T07:16:04.999Z</time></trkpt><trkpt lat="43.956581378434244" lon="12.7657256549237"><ele>13.4</ele><time>2026-04-25T07:16:05.999Z</time></trkpt><trkpt lat="43.95655159661546" lon="12.765840922480631"><ele>13.599999999999998</ele><time>2026-04-25T07:16:06.999Z</time></trkpt><trkpt lat="43.95652095672517" lon="12.76592439721082"><ele>13.799999999999999</ele><time>2026-04-25T07:16:07.999Z</time></trkpt><trkpt lat="43.95662004428414" lon="12.766085630435432"><ele>14.0</ele><time>2026-04-25T07:16:09.999Z</time></trkpt><trkpt lat="43.95668490088941" lon="12.76611667907394"><ele>14.799999999999999</ele><time>2026-04-25T07:16:10.999Z</time></trkpt><trkpt lat="43.95675708563707" lon="12.766139120074097"><ele>15.599999999999998</ele><time>2026-04-25T07:16:11.999Z</time></trkpt><trkpt lat="43.95685189228662" lon="12.766126011629469"><ele>16.4</ele><time>2026-04-25T07:16:12.998Z</time></trkpt><trkpt lat="43.956963302447974" lon="12.766070225892118"><ele>17.2</ele><time>2026-04-25T07:16:13.998Z</time></trkpt><trkpt lat="43.957088076644304" lon="12.766010422027655"><ele>18.0</ele><time>2026-04-25T07:16:14.998Z</time></trkpt><trkpt lat="43.957213736319225" lon="12.765954736887865"><ele>18.0</ele><time>2026-04-25T07:16:15.998Z</time></trkpt><trkpt lat="43.95734468132611" lon="12.765892573395657"><ele>18.0</ele><time>2026-04-25T07:16:16.998Z</time></trkpt><trkpt lat="43.95748275530842" lon="12.76582986605831"><ele>18.0</ele><time>2026-04-25T07:16:18Z</time></trkpt><trkpt lat="43.95762571454187" lon="12.76577204156876"><ele>18.0</ele><time>2026-04-25T07:16:19Z</time></trkpt><trkpt lat="43.95777394914074" lon="12.765711446705618"><ele>20.333333333333336</ele><time>2026-04-25T07:16:20Z</time></trkpt><trkpt lat="43.957928239786945" lon="12.765640065381945"><ele>22.666666666666668</ele><time>2026-04-25T07:16:21Z</time></trkpt><trkpt lat="43.95808257264162" lon="12.765571589771847"><ele>25.0</ele><time>2026-04-25T07:16:22Z</time></trkpt><trkpt lat="43.95822558574311" lon="12.765506417892661"><ele>27.666666666666668</ele><time>2026-04-25T07:16:23Z</time></trkpt><trkpt lat="43.95837130397164" lon="12.765438988249555"><ele>30.333333333333336</ele><time>2026-04-25T07:16:24Z</time></trkpt><trkpt lat="43.958521899288016" lon="12.765377587061087"><ele>33.0</ele><time>2026-04-25T07:16:25Z</time></trkpt><trkpt lat="43.95867475055871" lon="12.765317216295252"><ele>33.0</ele><time>2026-04-25T07:16:26Z</time></trkpt><trkpt lat="43.95883164042543" lon="12.765251486824761"><ele>33.0</ele><time>2026-04-25T07:16:27Z</time></trkpt><trkpt lat="43.95899195768321" lon="12.765179774497"><ele>33.0</ele><time>2026-04-25T07:16:28Z</time></trkpt><trkpt lat="43.959152072574234" lon="12.765105773664702"><ele>34.666666666666664</ele><time>2026-04-25T07:16:29Z</time></trkpt><trkpt lat="43.959315239743404" lon="12.765032554336457"><ele>36.33333333333333</ele><time>2026-04-25T07:16:30Z</time></trkpt><trkpt lat="43.959482538896076" lon="12.764958934692356"><ele>38.0</ele><time>2026-04-25T07:16:31Z</time></trkpt><trkpt lat="43.95965134665977" lon="12.764885879485677"><ele>38.0</ele><time>2026-04-25T07:16:32Z</time></trkpt><trkpt lat="43.95982127058639" lon="12.764811443550647"><ele>38.0</ele><time>2026-04-25T07:16:33Z</time></trkpt><trkpt lat="43.95999232495448" lon="12.764736290939647"><ele>38.0</ele><time>2026-04-25T07:16:34Z</time></trkpt><trkpt lat="43.96016360504283" lon="12.764661201408863"><ele>39.33333333333333</ele><time>2026-04-25T07:16:35Z</time></trkpt><trkpt lat="43.96032141747312" lon="12.764579671319618"><ele>40.666666666666664</ele><time>2026-04-25T07:16:36Z</time></trkpt><trkpt lat="43.96046415922749" lon="12.76446814964654"><ele>42.0</ele><time>2026-04-25T07:16:37Z</time></trkpt><trkpt lat="43.960598183586896" lon="12.764339261785915"><ele>42.0</ele><time>2026-04-25T07:16:38Z</time></trkpt><trkpt lat="43.96072575598789" lon="12.764194519148223"><ele>42.0</ele><time>2026-04-25T07:16:39Z</time></trkpt><trkpt lat="43.9608495327838" lon="12.764032755470355"><ele>42.0</ele><time>2026-04-25T07:16:40Z</time></trkpt><trkpt lat="43.96096674800496" lon="12.763856903574736"><ele>45.66666666666667</ele><time>2026-04-25T07:16:41Z</time></trkpt><trkpt lat="43.96108312193276" lon="12.763672249573736"><ele>49.333333333333336</ele><time>2026-04-25T07:16:42Z</time></trkpt><trkpt lat="43.961199708203054" lon="12.763488989312195"><ele>53.0</ele><time>2026-04-25T07:16:43Z</time></trkpt><trkpt lat="43.96132242874442" lon="12.763301118630828"><ele>53.0</ele><time>2026-04-25T07:16:44Z</time></trkpt><trkpt lat="43.96143976645923" lon="12.763108012627752"><ele>53.0</ele><time>2026-04-25T07:16:45Z</time></trkpt><trkpt lat="43.96156100628955" lon="12.76292026372968"><ele>53.0</ele><time>2026-04-25T07:16:46Z</time></trkpt><trkpt lat="43.961682991574214" lon="12.762727947211674"><ele>57.333333333333336</ele><time>2026-04-25T07:16:47Z</time></trkpt><trkpt lat="43.961802994805495" lon="12.762535605336877"><ele>61.66666666666667</ele><time>2026-04-25T07:16:48Z</time></trkpt><trkpt lat="43.96192135448402" lon="12.762342791111976"><ele>66.0</ele><time>2026-04-25T07:16:49Z</time></trkpt><trkpt lat="43.96204237207824" lon="12.76215104266294"><ele>66.0</ele><time>2026-04-25T07:16:50Z</time></trkpt><trkpt lat="43.962164691486976" lon="12.76195894891219"><ele>66.0</ele><time>2026-04-25T07:16:51Z</time></trkpt><trkpt lat="43.962283624786345" lon="12.761771531732531"><ele>66.0</ele><time>2026-04-25T07:16:52Z</time></trkpt><trkpt lat="43.96240224155381" lon="12.761587512250802"><ele>68.33333333333333</ele><time>2026-04-25T07:16:53Z</time></trkpt><trkpt lat="43.962520906097765" lon="12.761406110378896"><ele>70.66666666666666</ele><time>2026-04-25T07:16:54Z</time></trkpt><trkpt lat="43.96263040909637" lon="12.761235059307825"><ele>73.0</ele><time>2026-04-25T07:16:55Z</time></trkpt><trkpt lat="43.96272366169321" lon="12.761091369639647"><ele>71.2</ele><time>2026-04-25T07:16:56Z</time></trkpt><trkpt lat="43.9628071827295" lon="12.76095839089646"><ele>69.4</ele><time>2026-04-25T07:16:57Z</time></trkpt><trkpt lat="43.962887906262665" lon="12.760849585375746"><ele>67.60000000000001</ele><time>2026-04-25T07:16:58Z</time></trkpt><trkpt lat="43.96297331850549" lon="12.760771266367797"><ele>65.8</ele><time>2026-04-25T07:16:59Z</time></trkpt><trkpt lat="43.96306889397005" lon="12.760739683172668"><ele>64.0</ele><time>2026-04-25T07:17:00Z</time></trkpt><trkpt lat="43.963164656438714" lon="12.760762128464819"><ele>64.0</ele><time>2026-04-25T07:17:01Z</time></trkpt><trkpt lat="43.96324997479292" lon="12.760829257408943"><ele>64.0</ele><time>2026-04-25T07:17:02Z</time></trkpt><trkpt lat="43.96331184492007" lon="12.760931046817163"><ele>64.0</ele><time>2026-04-25T07:17:03Z</time></trkpt><trkpt lat="43.96333877313077" lon="12.761066603728588"><ele>64.0</ele><time>2026-04-25T07:17:04Z</time></trkpt><trkpt lat="43.96332983770796" lon="12.761205236125901"><ele>64.0</ele><time>2026-04-25T07:17:04.999Z</time></trkpt><trkpt lat="43.96329710084893" lon="12.761335908796715"><ele>65.8</ele><time>2026-04-25T07:17:05.999Z</time></trkpt><trkpt lat="43.96324960267629" lon="12.761456502176937"><ele>67.60000000000001</ele><time>2026-04-25T07:17:06.999Z</time></trkpt><trkpt lat="43.96320476562184" lon="12.761554297262078"><ele>69.4</ele><time>2026-04-25T07:17:07.999Z</time></trkpt><trkpt lat="43.96316039057539" lon="12.76166088153658"><ele>71.2</ele><time>2026-04-25T07:17:08.999Z</time></trkpt><trkpt lat="43.96308991996702" lon="12.761777745704295"><ele>73.0</ele><time>2026-04-25T07:17:09.999Z</time></trkpt><trkpt lat="43.96303140045324" lon="12.761909084312597"><ele>73.5</ele><time>2026-04-25T07:17:10.999Z</time></trkpt><trkpt lat="43.962980215560435" lon="12.762037074677506"><ele>74.0</ele><time>2026-04-25T07:17:11.999Z</time></trkpt><trkpt lat="43.96294954938931" lon="12.76216599001392"><ele>74.5</ele><time>2026-04-25T07:17:12.999Z</time></trkpt><trkpt lat="43.96291887250235" lon="12.762272180096707"><ele>75.0</ele><time>2026-04-25T07:17:13.999Z</time></trkpt><trkpt lat="43.96289715736697" lon="12.762361674436889"><ele>75.5</ele><time>2026-04-25T07:17:14.999Z</time></trkpt><trkpt lat="43.962879036777416" lon="12.762461575112095"><ele>76.0</ele><time>2026-04-25T07:17:15.999Z</time></trkpt><trkpt lat="43.962870393252416" lon="12.762578869070833"><ele>75.75</ele><time>2026-04-25T07:17:16.999Z</time></trkpt><trkpt lat="43.96285609547002" lon="12.7627183631686"><ele>75.5</ele><time>2026-04-25T07:17:17.999Z</time></trkpt><trkpt lat="43.962865066200955" lon="12.762885353464444"><ele>75.25</ele><time>2026-04-25T07:17:18.999Z</time></trkpt><trkpt lat="43.96288563485844" lon="12.763069679024305"><ele>75.0</ele><time>2026-04-25T07:17:19.999Z</time></trkpt><trkpt lat="43.962923160212014" lon="12.763260029769443"><ele>75.0</ele><time>2026-04-25T07:17:20.999Z</time></trkpt><trkpt lat="43.96293368710572" lon="12.763454070088306"><ele>75.0</ele><time>2026-04-25T07:17:21.999Z</time></trkpt><trkpt lat="43.96295544845267" lon="12.763651015498883"><ele>75.0</ele><time>2026-04-25T07:17:22.999Z</time></trkpt><trkpt lat="43.962979088878356" lon="12.763847651789192"><ele>75.0</ele><time>2026-04-25T07:17:23.999Z</time></trkpt><trkpt lat="43.963004823762695" lon="12.764050641386538"><ele>74.33333333333333</ele><time>2026-04-25T07:17:24.999Z</time></trkpt><trkpt lat="43.963025812563046" lon="12.764257461243467"><ele>73.66666666666666</ele><time>2026-04-25T07:17:25.999Z</time></trkpt><trkpt lat="43.96304627301019" lon="12.764466859749128"><ele>73.0</ele><time>2026-04-25T07:17:26.999Z</time></trkpt><trkpt lat="43.96306665239269" lon="12.764678955257558"><ele>74.25</ele><time>2026-04-25T07:17:27.999Z</time></trkpt><trkpt lat="43.963085737732555" lon="12.764874230095202"><ele>75.5</ele><time>2026-04-25T07:17:28.999Z</time></trkpt><trkpt lat="43.963109733913164" lon="12.76505914518807"><ele>76.75</ele><time>2026-04-25T07:17:29.999Z</time></trkpt><trkpt lat="43.96313253060528" lon="12.765244138081085"><ele>78.0</ele><time>2026-04-25T07:17:30.999Z</time></trkpt><trkpt lat="43.96315833195571" lon="12.765425888936235"><ele>80.25</ele><time>2026-04-25T07:17:31.999Z</time></trkpt><trkpt lat="43.96317746244055" lon="12.765605660476627"><ele>82.5</ele><time>2026-04-25T07:17:32.999Z</time></trkpt><trkpt lat="43.96319941519764" lon="12.765779276320742"><ele>84.75</ele><time>2026-04-25T07:17:33.999Z</time></trkpt><trkpt lat="43.96323272215113" lon="12.765949711789432"><ele>87.0</ele><time>2026-04-25T07:17:34.999Z</time></trkpt><trkpt lat="43.9632849323851" lon="12.7661159499499"><ele>89.5</ele><time>2026-04-25T07:17:35.999Z</time></trkpt><trkpt lat="43.96333910413225" lon="12.766280413472042"><ele>92.0</ele><time>2026-04-25T07:17:36.999Z</time></trkpt><trkpt lat="43.9633889484231" lon="12.766444379841813"><ele>94.5</ele><time>2026-04-25T07:17:37.999Z</time></trkpt><trkpt lat="43.96342349269318" lon="12.76661035761019"><ele>97.0</ele><time>2026-04-25T07:17:38.999Z</time></trkpt><trkpt lat="43.963426545708856" lon="12.766781058360312"><ele>91.25</ele><time>2026-04-25T07:17:39.999Z</time></trkpt><trkpt lat="43.96339113872209" lon="12.766967062088543"><ele>85.5</ele><time>2026-04-25T07:17:40.999Z</time></trkpt><trkpt lat="43.96338175408971" lon="12.767168266748266"><ele>79.75</ele><time>2026-04-25T07:17:41.999Z</time></trkpt><trkpt lat="43.96337723390952" lon="12.767381899559727"><ele>74.0</ele><time>2026-04-25T07:17:42.999Z</time></trkpt><trkpt lat="43.96341635356252" lon="12.767603767828149"><ele>75.25</ele><time>2026-04-25T07:17:43.999Z</time></trkpt><trkpt lat="43.963457397244746" lon="12.767825643726148"><ele>76.5</ele><time>2026-04-25T07:17:44.999Z</time></trkpt><trkpt lat="43.96351483806139" lon="12.768013800408324"><ele>77.75</ele><time>2026-04-25T07:17:45.999Z</time></trkpt><trkpt lat="43.96354232719759" lon="12.76819812193917"><ele>79.0</ele><time>2026-04-25T07:17:46.999Z</time></trkpt><trkpt lat="43.96354824106731" lon="12.768370390949991"><ele>79.75</ele><time>2026-04-25T07:17:47.999Z</time></trkpt><trkpt lat="43.963515486871145" lon="12.768548065420148"><ele>80.5</ele><time>2026-04-25T07:17:48.999Z</time></trkpt><trkpt lat="43.963460520967914" lon="12.768723834244827"><ele>81.25</ele><time>2026-04-25T07:17:49.999Z</time></trkpt><trkpt lat="43.96341475311203" lon="12.768911110586835"><ele>82.0</ele><time>2026-04-25T07:17:50.999Z</time></trkpt><trkpt lat="43.96340688732262" lon="12.769117365325783"><ele>82.0</ele><time>2026-04-25T07:17:51.999Z</time></trkpt><trkpt lat="43.96342670551689" lon="12.769331896128257"><ele>82.0</ele><time>2026-04-25T07:17:52.999Z</time></trkpt><trkpt lat="43.9634491288299" lon="12.769537320432253"><ele>82.0</ele><time>2026-04-25T07:17:53.999Z</time></trkpt><trkpt lat="43.96346020433153" lon="12.769725052147786"><ele>82.0</ele><time>2026-04-25T07:17:54.999Z</time></trkpt><trkpt lat="43.96344393561078" lon="12.769904830123204"><ele>82.5</ele><time>2026-04-25T07:17:55.999Z</time></trkpt><trkpt lat="43.96341181983464" lon="12.770074505165415"><ele>83.0</ele><time>2026-04-25T07:17:56.999Z</time></trkpt><trkpt lat="43.96338185618502" lon="12.770231709629831"><ele>83.5</ele><time>2026-04-25T07:17:57.999Z</time></trkpt><trkpt lat="43.96335507324176" lon="12.770379814759094"><ele>84.0</ele><time>2026-04-25T07:17:58.999Z</time></trkpt><trkpt lat="43.96333773556026" lon="12.770523721986093"><ele>87.80000000000001</ele><time>2026-04-25T07:17:59.999Z</time></trkpt><trkpt lat="43.96332887768297" lon="12.770663572699595"><ele>91.60000000000001</ele><time>2026-04-25T07:18:00.999Z</time></trkpt><trkpt lat="43.963328912192964" lon="12.770805390408169"><ele>95.4</ele><time>2026-04-25T07:18:01.999Z</time></trkpt><trkpt lat="43.96334138535128" lon="12.770945467897132"><ele>99.2</ele><time>2026-04-25T07:18:02.999Z</time></trkpt><trkpt lat="43.96335596233394" lon="12.771081491606216"><ele>103.0</ele><time>2026-04-25T07:18:03.999Z</time></trkpt><trkpt lat="43.96336761892091" lon="12.771204429309735"><ele>103.00000000000001</ele><time>2026-04-25T07:18:04.999Z</time></trkpt><trkpt lat="43.963379004042324" lon="12.771311566878826"><ele>103.0</ele><time>2026-04-25T07:18:05.999Z</time></trkpt><trkpt lat="43.96338840733743" lon="12.771409623320443"><ele>103.0</ele><time>2026-04-25T07:18:06.999Z</time></trkpt><trkpt lat="43.96340566498871" lon="12.771570423175065"><ele>103.0</ele><time>2026-04-25T07:18:08.999Z</time></trkpt><trkpt lat="43.963418831219215" lon="12.771709063643558"><ele>103.00000000000001</ele><time>2026-04-25T07:18:10.999Z</time></trkpt><trkpt lat="43.96342755538995" lon="12.77181347335057"><ele>103.0</ele><time>2026-04-25T07:18:12.999Z</time></trkpt><trkpt lat="43.96345019052608" lon="12.771931551836554"><ele>106.4</ele><time>2026-04-25T07:18:14.999Z</time></trkpt><trkpt lat="43.96345114611995" lon="12.77205421273465"><ele>109.80000000000001</ele><time>2026-04-25T07:18:16.999Z</time></trkpt><trkpt lat="43.96345769695554" lon="12.772158025109771"><ele>113.2</ele><time>2026-04-25T07:18:19.998Z</time></trkpt><trkpt lat="43.963627985195494" lon="12.772193341333907"><ele>116.6</ele><time>2026-04-25T07:18:20.998Z</time></trkpt><trkpt lat="43.96368737572122" lon="12.772244482447256"><ele>120.0</ele><time>2026-04-25T07:18:22.998Z</time></trkpt><trkpt lat="43.96372524681556" lon="12.772315060799803"><ele>120.0</ele><time>2026-04-25T07:18:25Z</time></trkpt><trkpt lat="43.963764539119666" lon="12.772405327931525"><ele>120.0</ele><time>2026-04-25T07:18:27Z</time></trkpt><trkpt lat="43.96384276234063" lon="12.772463189811685"><ele>120.0</ele><time>2026-04-25T07:18:29Z</time></trkpt><trkpt lat="43.963949706953734" lon="12.772478169787613"><ele>120.0</ele><time>2026-04-25T07:18:31Z</time></trkpt><trkpt lat="43.964063447818965" lon="12.772506446310121"><ele>120.0</ele><time>2026-04-25T07:18:33Z</time></trkpt><trkpt lat="43.964125885621314" lon="12.772532518879522"><ele>120.0</ele><time>2026-04-25T07:18:34Z</time></trkpt><trkpt lat="43.96419038709706" lon="12.772560319502881"><ele>120.0</ele><time>2026-04-25T07:18:35Z</time></trkpt><trkpt lat="43.96427331380053" lon="12.772652626665268"><ele>120.0</ele><time>2026-04-25T07:18:37Z</time></trkpt><trkpt lat="43.96429776682962" lon="12.77276215380772"><ele>120.0</ele><time>2026-04-25T07:18:39Z</time></trkpt><trkpt lat="43.96429252314711" lon="12.772905337921173"><ele>120.0</ele><time>2026-04-25T07:18:41Z</time></trkpt><trkpt lat="43.964261546703725" lon="12.77305148091494"><ele>116.16666666666667</ele><time>2026-04-25T07:18:43Z</time></trkpt><trkpt lat="43.96425780779747" lon="12.773193367503168"><ele>112.33333333333334</ele><time>2026-04-25T07:18:45Z</time></trkpt><trkpt lat="43.964295942906375" lon="12.77326365337391"><ele>108.5</ele><time>2026-04-25T07:18:46Z</time></trkpt><trkpt lat="43.96433055561238" lon="12.773343313247638"><ele>104.66666666666667</ele><time>2026-04-25T07:18:47Z</time></trkpt><trkpt lat="43.9643291645057" lon="12.773442370613939"><ele>100.83333333333334</ele><time>2026-04-25T07:18:48Z</time></trkpt><trkpt lat="43.96431894838512" lon="12.773533404745073"><ele>97.0</ele><time>2026-04-25T07:18:49Z</time></trkpt><trkpt lat="43.96429272065266" lon="12.773701919556295"><ele>94.0</ele><time>2026-04-25T07:18:51Z</time></trkpt><trkpt lat="43.96424232389932" lon="12.773860499176951"><ele>91.0</ele><time>2026-04-25T07:18:53Z</time></trkpt><trkpt lat="43.964180692171716" lon="12.774009687711837"><ele>88.0</ele><time>2026-04-25T07:18:55Z</time></trkpt><trkpt lat="43.964104004380374" lon="12.774147664384635"><ele>85.0</ele><time>2026-04-25T07:18:57Z</time></trkpt><trkpt lat="43.964059909031164" lon="12.774213532174606"><ele>82.0</ele><time>2026-04-25T07:18:58Z</time></trkpt><trkpt lat="43.96401347315909" lon="12.77427615378338"><ele>84.57142857142857</ele><time>2026-04-25T07:18:59Z</time></trkpt><trkpt lat="43.963957927451624" lon="12.774332549664937"><ele>87.14285714285714</ele><time>2026-04-25T07:19:00Z</time></trkpt><trkpt lat="43.963901382600866" lon="12.774382773014556"><ele>89.71428571428572</ele><time>2026-04-25T07:19:01Z</time></trkpt><trkpt lat="43.96384574334419" lon="12.774430679566148"><ele>92.28571428571428</ele><time>2026-04-25T07:19:02Z</time></trkpt><trkpt lat="43.96377908315614" lon="12.774465473797942"><ele>94.85714285714286</ele><time>2026-04-25T07:19:03Z</time></trkpt><trkpt lat="43.963707237657495" lon="12.774477399518796"><ele>97.42857142857143</ele><time>2026-04-25T07:19:04Z</time></trkpt><trkpt lat="43.963629038765475" lon="12.7744660416582"><ele>100.0</ele><time>2026-04-25T07:19:05Z</time></trkpt><trkpt lat="43.963550113287965" lon="12.774440690852215"><ele>100.00000000000001</ele><time>2026-04-25T07:19:06Z</time></trkpt><trkpt lat="43.96347392983469" lon="12.774394106929439"><ele>100.0</ele><time>2026-04-25T07:19:07Z</time></trkpt><trkpt lat="43.96341386696333" lon="12.774310226369183"><ele>100.0</ele><time>2026-04-25T07:19:08Z</time></trkpt><trkpt lat="43.96335064195996" lon="12.774236782746302"><ele>100.0</ele><time>2026-04-25T07:19:09Z</time></trkpt><trkpt lat="43.96328369070486" lon="12.774178366451812"><ele>100.00000000000001</ele><time>2026-04-25T07:19:10Z</time></trkpt><trkpt lat="43.96322234969905" lon="12.774104755691447"><ele>100.0</ele><time>2026-04-25T07:19:11Z</time></trkpt><trkpt lat="43.96315984857462" lon="12.77403206765191"><ele>103.00000000000001</ele><time>2026-04-25T07:19:12Z</time></trkpt><trkpt lat="43.963096751091854" lon="12.773956736931309"><ele>106.0</ele><time>2026-04-25T07:19:13Z</time></trkpt><trkpt lat="43.96303287578334" lon="12.77387791635848"><ele>109.0</ele><time>2026-04-25T07:19:14Z</time></trkpt><trkpt lat="43.96297116100719" lon="12.773810862773038"><ele>112.0</ele><time>2026-04-25T07:19:15Z</time></trkpt><trkpt lat="43.962901936102384" lon="12.773750283104677"><ele>115.00000000000001</ele><time>2026-04-25T07:19:16.999Z</time></trkpt><trkpt lat="43.962873125419655" lon="12.773890219672696"><ele>118.0</ele><time>2026-04-25T07:19:20.999Z</time></trkpt><trkpt lat="43.96292241292129" lon="12.773971335173664"><ele>118.00000000000001</ele><time>2026-04-25T07:19:22.999Z</time></trkpt><trkpt lat="43.963003071833235" lon="12.774058774342931"><ele>118.0</ele><time>2026-04-25T07:19:24.999Z</time></trkpt><trkpt lat="43.96310022884739" lon="12.774159157564132"><ele>118.0</ele><time>2026-04-25T07:19:26.999Z</time></trkpt><trkpt lat="43.96315507946417" lon="12.774206958905337"><ele>118.0</ele><time>2026-04-25T07:19:27.999Z</time></trkpt><trkpt lat="43.9632097309851" lon="12.774262954287051"><ele>118.00000000000001</ele><time>2026-04-25T07:19:28.999Z</time></trkpt><trkpt lat="43.96326109754299" lon="12.774338351313332"><ele>118.0</ele><time>2026-04-25T07:19:29.999Z</time></trkpt><trkpt lat="43.963309814093265" lon="12.774412236522647"><ele>115.33333333333334</ele><time>2026-04-25T07:19:30.999Z</time></trkpt><trkpt lat="43.96335464153302" lon="12.774482861203873"><ele>112.66666666666667</ele><time>2026-04-25T07:19:31.999Z</time></trkpt><trkpt lat="43.96339651209629" lon="12.774554382596119"><ele>110.0</ele><time>2026-04-25T07:19:32.999Z</time></trkpt><trkpt lat="43.963476483154615" lon="12.774692416119128"><ele>107.33333333333334</ele><time>2026-04-25T07:19:34.999Z</time></trkpt><trkpt lat="43.963528137699505" lon="12.774753293105526"><ele>104.66666666666667</ele><time>2026-04-25T07:19:35.999Z</time></trkpt><trkpt lat="43.96357518648094" lon="12.774826080470632"><ele>102.0</ele><time>2026-04-25T07:19:36.999Z</time></trkpt><trkpt lat="43.96361954481649" lon="12.774895379990827"><ele>101.66666666666667</ele><time>2026-04-25T07:19:37.999Z</time></trkpt><trkpt lat="43.963661098737994" lon="12.774961466623314"><ele>101.33333333333334</ele><time>2026-04-25T07:19:38.999Z</time></trkpt><trkpt lat="43.963705201819685" lon="12.775031844655189"><ele>101.0</ele><time>2026-04-25T07:19:39.999Z</time></trkpt><trkpt lat="43.96374903971004" lon="12.775100042152904"><ele>100.66666666666667</ele><time>2026-04-25T07:19:40.999Z</time></trkpt><trkpt lat="43.9638089623842" lon="12.775224395770266"><ele>100.33333333333334</ele><time>2026-04-25T07:19:42.999Z</time></trkpt><trkpt lat="43.963828783547015" lon="12.775327421206814"><ele>100.0</ele><time>2026-04-25T07:19:45.999Z</time></trkpt><trkpt lat="43.96388251191697" lon="12.775486221861083"><ele>97.5</ele><time>2026-04-25T07:19:47.999Z</time></trkpt><trkpt lat="43.96392507357439" lon="12.775618077822262"><ele>95.0</ele><time>2026-04-25T07:19:48.999Z</time></trkpt><trkpt lat="43.96395978063088" lon="12.775759300472245"><ele>92.5</ele><time>2026-04-25T07:19:49.999Z</time></trkpt><trkpt lat="43.963980902474766" lon="12.77592927173557"><ele>90.0</ele><time>2026-04-25T07:19:50.999Z</time></trkpt><trkpt lat="43.96398673895667" lon="12.776117761152378"><ele>88.75</ele><time>2026-04-25T07:19:51.999Z</time></trkpt><trkpt lat="43.96398450272058" lon="12.776292183140635"><ele>87.5</ele><time>2026-04-25T07:19:52.999Z</time></trkpt><trkpt lat="43.96397683616226" lon="12.776466369588995"><ele>86.25</ele><time>2026-04-25T07:19:53.999Z</time></trkpt><trkpt lat="43.96396862593679" lon="12.776642743295117"><ele>85.0</ele><time>2026-04-25T07:19:54.999Z</time></trkpt><trkpt lat="43.963962278697814" lon="12.77681516266201"><ele>83.8</ele><time>2026-04-25T07:19:55.999Z</time></trkpt><trkpt lat="43.96395918740567" lon="12.776977057318227"><ele>82.6</ele><time>2026-04-25T07:19:56.999Z</time></trkpt><trkpt lat="43.963950300179235" lon="12.777126990379903"><ele>81.4</ele><time>2026-04-25T07:19:57.999Z</time></trkpt><trkpt lat="43.96393452004181" lon="12.777260784755562"><ele>80.2</ele><time>2026-04-25T07:19:58.999Z</time></trkpt><trkpt lat="43.963913333209646" lon="12.777378481602403"><ele>79.0</ele><time>2026-04-25T07:19:59.999Z</time></trkpt><trkpt lat="43.96387878951845" lon="12.777487661399563"><ele>79.0</ele><time>2026-04-25T07:20:00.999Z</time></trkpt><trkpt lat="43.96383561221942" lon="12.777590268933315"><ele>79.0</ele><time>2026-04-25T07:20:01.999Z</time></trkpt><trkpt lat="43.963784432659025" lon="12.777691348788505"><ele>79.0</ele><time>2026-04-25T07:20:02.999Z</time></trkpt><trkpt lat="43.963732420003964" lon="12.77777497556989"><ele>79.0</ele><time>2026-04-25T07:20:03.999Z</time></trkpt><trkpt lat="43.96367883914472" lon="12.77784137449921"><ele>79.0</ele><time>2026-04-25T07:20:04.999Z</time></trkpt><trkpt lat="43.96362373402326" lon="12.777912634844629"><ele>79.0</ele><time>2026-04-25T07:20:05.999Z</time></trkpt><trkpt lat="43.96355875617021" lon="12.777979125371163"><ele>79.16666666666666</ele><time>2026-04-25T07:20:06.999Z</time></trkpt><trkpt lat="43.9634919997825" lon="12.778035765863066"><ele>79.33333333333333</ele><time>2026-04-25T07:20:07.999Z</time></trkpt><trkpt lat="43.96342759313067" lon="12.778089343422744"><ele>79.5</ele><time>2026-04-25T07:20:08.999Z</time></trkpt><trkpt lat="43.96335323557706" lon="12.778140122834541"><ele>79.66666666666667</ele><time>2026-04-25T07:20:09.999Z</time></trkpt><trkpt lat="43.96327299087726" lon="12.778185577129847"><ele>79.83333333333334</ele><time>2026-04-25T07:20:10.999Z</time></trkpt><trkpt lat="43.96318683651518" lon="12.77822833453195"><ele>80.0</ele><time>2026-04-25T07:20:11.999Z</time></trkpt><trkpt lat="43.963098000257474" lon="12.77826654841424"><ele>83.33333333333334</ele><time>2026-04-25T07:20:12.999Z</time></trkpt><trkpt lat="43.963017708243825" lon="12.77828543234213"><ele>86.66666666666667</ele><time>2026-04-25T07:20:13.999Z</time></trkpt><trkpt lat="43.96294265366949" lon="12.77829510934493"><ele>90.0</ele><time>2026-04-25T07:20:14.999Z</time></trkpt><trkpt lat="43.96286633827175" lon="12.778282417849073"><ele>93.33333333333334</ele><time>2026-04-25T07:20:15.999Z</time></trkpt><trkpt lat="43.96278909361282" lon="12.778264870172569"><ele>96.66666666666667</ele><time>2026-04-25T07:20:16.999Z</time></trkpt><trkpt lat="43.96270653742664" lon="12.778247731610136"><ele>100.0</ele><time>2026-04-25T07:20:17.999Z</time></trkpt><trkpt lat="43.96262362704852" lon="12.778231123603565"><ele>100.00000000000001</ele><time>2026-04-25T07:20:18.999Z</time></trkpt><trkpt lat="43.96254303608931" lon="12.778222258415274"><ele>100.0</ele><time>2026-04-25T07:20:19.999Z</time></trkpt><trkpt lat="43.96245574035946" lon="12.778229454819122"><ele>100.0</ele><time>2026-04-25T07:20:20.999Z</time></trkpt><trkpt lat="43.962378628154795" lon="12.778268953492622"><ele>100.0</ele><time>2026-04-25T07:20:21.999Z</time></trkpt><trkpt lat="43.96231439951781" lon="12.7783370196691"><ele>100.00000000000001</ele><time>2026-04-25T07:20:22.999Z</time></trkpt><trkpt lat="43.96227103155659" lon="12.778423157645358"><ele>100.0</ele><time>2026-04-25T07:20:23.999Z</time></trkpt><trkpt lat="43.96225636932705" lon="12.778531219008748"><ele>101.00000000000001</ele><time>2026-04-25T07:20:24.999Z</time></trkpt><trkpt lat="43.96226562075581" lon="12.778643504273477"><ele>102.0</ele><time>2026-04-25T07:20:25.999Z</time></trkpt><trkpt lat="43.96228425888965" lon="12.778749885738646"><ele>103.0</ele><time>2026-04-25T07:20:26.999Z</time></trkpt><trkpt lat="43.96230671128458" lon="12.778844594498052"><ele>104.0</ele><time>2026-04-25T07:20:27.999Z</time></trkpt><trkpt lat="43.96233171103283" lon="12.778939122035052"><ele>105.00000000000001</ele><time>2026-04-25T07:20:28.999Z</time></trkpt><trkpt lat="43.96235592600077" lon="12.779041096954959"><ele>106.0</ele><time>2026-04-25T07:20:30Z</time></trkpt><trkpt lat="43.96237916846437" lon="12.779145566101151"><ele>106.00000000000001</ele><time>2026-04-25T07:20:31Z</time></trkpt><trkpt lat="43.96240190311165" lon="12.779252784675968"><ele>106.0</ele><time>2026-04-25T07:20:32Z</time></trkpt><trkpt lat="43.962423575147284" lon="12.779359996193001"><ele>106.0</ele><time>2026-04-25T07:20:33Z</time></trkpt><trkpt lat="43.96243720602209" lon="12.779469339057275"><ele>106.0</ele><time>2026-04-25T07:20:34Z</time></trkpt><trkpt lat="43.962442971581936" lon="12.779579759211254"><ele>106.00000000000001</ele><time>2026-04-25T07:20:35Z</time></trkpt><trkpt lat="43.96244543701658" lon="12.779692252866148"><ele>106.0</ele><time>2026-04-25T07:20:36Z</time></trkpt><trkpt lat="43.962443747974675" lon="12.779805947642616"><ele>106.66666666666667</ele><time>2026-04-25T07:20:37Z</time></trkpt><trkpt lat="43.962436139406236" lon="12.779917727948177"><ele>107.33333333333334</ele><time>2026-04-25T07:20:38Z</time></trkpt><trkpt lat="43.96242069332123" lon="12.780031932702617"><ele>108.0</ele><time>2026-04-25T07:20:39Z</time></trkpt><trkpt lat="43.96239869966942" lon="12.780142601728508"><ele>108.66666666666666</ele><time>2026-04-25T07:20:40Z</time></trkpt><trkpt lat="43.9623695138343" lon="12.780253992895732"><ele>109.33333333333333</ele><time>2026-04-25T07:20:41Z</time></trkpt><trkpt lat="43.9623394253425" lon="12.780364396789873"><ele>110.0</ele><time>2026-04-25T07:20:42Z</time></trkpt><trkpt lat="43.96230696795493" lon="12.780473596590321"><ele>111.33333333333333</ele><time>2026-04-25T07:20:43Z</time></trkpt><trkpt lat="43.96227121532598" lon="12.7805807575982"><ele>112.66666666666666</ele><time>2026-04-25T07:20:44Z</time></trkpt><trkpt lat="43.962223230220275" lon="12.780678350078558"><ele>114.0</ele><time>2026-04-25T07:20:45Z</time></trkpt><trkpt lat="43.962177003866366" lon="12.780778311794835"><ele>115.33333333333334</ele><time>2026-04-25T07:20:46Z</time></trkpt><trkpt lat="43.96213256103013" lon="12.780865384388786"><ele>116.66666666666667</ele><time>2026-04-25T07:20:47Z</time></trkpt><trkpt lat="43.962090957037525" lon="12.780960392507259"><ele>118.0</ele><time>2026-04-25T07:20:48Z</time></trkpt><trkpt lat="43.96205729634252" lon="12.781066113008615"><ele>118.16666666666667</ele><time>2026-04-25T07:20:49Z</time></trkpt><trkpt lat="43.962022123738315" lon="12.781174630775048"><ele>118.33333333333334</ele><time>2026-04-25T07:20:50Z</time></trkpt><trkpt lat="43.96198628606118" lon="12.781286989091742"><ele>118.5</ele><time>2026-04-25T07:20:51Z</time></trkpt><trkpt lat="43.961949048378116" lon="12.781392190334456"><ele>118.66666666666666</ele><time>2026-04-25T07:20:52Z</time></trkpt><trkpt lat="43.961916833953794" lon="12.78149729618087"><ele>118.83333333333333</ele><time>2026-04-25T07:20:53Z</time></trkpt><trkpt lat="43.96188783259847" lon="12.78160523217113"><ele>119.0</ele><time>2026-04-25T07:20:54Z</time></trkpt><trkpt lat="43.96185996844257" lon="12.781711879182124"><ele>118.99999999999999</ele><time>2026-04-25T07:20:55Z</time></trkpt><trkpt lat="43.96183168402052" lon="12.78182204468748"><ele>119.0</ele><time>2026-04-25T07:20:56Z</time></trkpt><trkpt lat="43.96180028157248" lon="12.78192868167139"><ele>119.0</ele><time>2026-04-25T07:20:57Z</time></trkpt><trkpt lat="43.96176942217501" lon="12.782036706777589"><ele>119.0</ele><time>2026-04-25T07:20:58Z</time></trkpt><trkpt lat="43.96172783910566" lon="12.782144140405713"><ele>118.99999999999999</ele><time>2026-04-25T07:20:59Z</time></trkpt><trkpt lat="43.961684322788386" lon="12.78225885363393"><ele>119.0</ele><time>2026-04-25T07:21:00Z</time></trkpt><trkpt lat="43.961634464810324" lon="12.782375202654535"><ele>119.16666666666666</ele><time>2026-04-25T07:21:01Z</time></trkpt><trkpt lat="43.96157975511345" lon="12.782484857279277"><ele>119.33333333333333</ele><time>2026-04-25T07:21:02Z</time></trkpt><trkpt lat="43.96152446289788" lon="12.782589372205186"><ele>119.5</ele><time>2026-04-25T07:21:03Z</time></trkpt><trkpt lat="43.961455266862906" lon="12.782678430730018"><ele>119.66666666666666</ele><time>2026-04-25T07:21:04Z</time></trkpt><trkpt lat="43.961418890319614" lon="12.78277486122167"><ele>119.83333333333333</ele><time>2026-04-25T07:21:05Z</time></trkpt><trkpt lat="43.96136195525726" lon="12.782848165647193"><ele>120.0</ele><time>2026-04-25T07:21:06Z</time></trkpt><trkpt lat="43.961311934057505" lon="12.782930649793546"><ele>119.16666666666667</ele><time>2026-04-25T07:21:07Z</time></trkpt><trkpt lat="43.9612639538023" lon="12.783007556374098"><ele>118.33333333333334</ele><time>2026-04-25T07:21:08Z</time></trkpt><trkpt lat="43.9612131043494" lon="12.783076405712523"><ele>117.5</ele><time>2026-04-25T07:21:09Z</time></trkpt><trkpt lat="43.96115669174315" lon="12.78314588350805"><ele>116.66666666666667</ele><time>2026-04-25T07:21:10Z</time></trkpt><trkpt lat="43.96109198035449" lon="12.783206641369445"><ele>115.83333333333334</ele><time>2026-04-25T07:21:11Z</time></trkpt><trkpt lat="43.961016915215374" lon="12.783264791032215"><ele>115.0</ele><time>2026-04-25T07:21:12Z</time></trkpt><trkpt lat="43.960934982333384" lon="12.783318970458629"><ele>115.83333333333334</ele><time>2026-04-25T07:21:13Z</time></trkpt><trkpt lat="43.960851763663456" lon="12.783366180407885"><ele>116.66666666666667</ele><time>2026-04-25T07:21:14Z</time></trkpt><trkpt lat="43.96077203439946" lon="12.783401998633538"><ele>117.5</ele><time>2026-04-25T07:21:15Z</time></trkpt><trkpt lat="43.96068961644794" lon="12.783423317998613"><ele>118.33333333333334</ele><time>2026-04-25T07:21:16Z</time></trkpt><trkpt lat="43.960599148765134" lon="12.783429446400024"><ele>119.16666666666667</ele><time>2026-04-25T07:21:17Z</time></trkpt><trkpt lat="43.9605011846788" lon="12.783423031149155"><ele>120.0</ele><time>2026-04-25T07:21:18Z</time></trkpt><trkpt lat="43.96038936458949" lon="12.78340650246474"><ele>120.0</ele><time>2026-04-25T07:21:18.999Z</time></trkpt><trkpt lat="43.96026240947812" lon="12.783375499174833"><ele>120.0</ele><time>2026-04-25T07:21:19.999Z</time></trkpt><trkpt lat="43.96012558169519" lon="12.783341454495924"><ele>120.0</ele><time>2026-04-25T07:21:20.999Z</time></trkpt><trkpt lat="43.9599578137337" lon="12.783295969873695"><ele>120.0</ele><time>2026-04-25T07:21:21.999Z</time></trkpt><trkpt lat="43.95978797338533" lon="12.783252179925455"><ele>117.33333333333334</ele><time>2026-04-25T07:21:22.999Z</time></trkpt><trkpt lat="43.95962505493869" lon="12.78319839557285"><ele>114.66666666666667</ele><time>2026-04-25T07:21:23.999Z</time></trkpt><trkpt lat="43.959471688058215" lon="12.783162654912967"><ele>112.0</ele><time>2026-04-25T07:21:24.999Z</time></trkpt><trkpt lat="43.95933659538642" lon="12.78313560596265"><ele>112.0</ele><time>2026-04-25T07:21:25.999Z</time></trkpt><trkpt lat="43.95922465681407" lon="12.783120204644806"><ele>111.99999999999999</ele><time>2026-04-25T07:21:26.999Z</time></trkpt><trkpt lat="43.95912791548976" lon="12.78310722590994"><ele>111.99999999999999</ele><time>2026-04-25T07:21:27.999Z</time></trkpt><trkpt lat="43.95904857262865" lon="12.783164920104129"><ele>112.0</ele><time>2026-04-25T07:21:28.999Z</time></trkpt><trkpt lat="43.95899907542344" lon="12.783260650419455"><ele>112.0</ele><time>2026-04-25T07:21:29.999Z</time></trkpt><trkpt lat="43.958982337478886" lon="12.783390463348809"><ele>110.25</ele><time>2026-04-25T07:21:30.999Z</time></trkpt><trkpt lat="43.95901359782156" lon="12.783511746583693"><ele>108.5</ele><time>2026-04-25T07:21:31.999Z</time></trkpt><trkpt lat="43.95909401475283" lon="12.783607990402869"><ele>106.75</ele><time>2026-04-25T07:21:32.999Z</time></trkpt><trkpt lat="43.95920860448765" lon="12.783665887163341"><ele>105.0</ele><time>2026-04-25T07:21:33.999Z</time></trkpt><trkpt lat="43.95934363976918" lon="12.783708655486247"><ele>102.0</ele><time>2026-04-25T07:21:34.999Z</time></trkpt><trkpt lat="43.95948993625247" lon="12.783751641463477"><ele>99.0</ele><time>2026-04-25T07:21:35.999Z</time></trkpt><trkpt lat="43.95963921530443" lon="12.783802112434424"><ele>96.0</ele><time>2026-04-25T07:21:36.999Z</time></trkpt><trkpt lat="43.959794321656474" lon="12.783866009286275"><ele>96.0</ele><time>2026-04-25T07:21:37.999Z</time></trkpt><trkpt lat="43.95995968600416" lon="12.78393289202569"><ele>96.0</ele><time>2026-04-25T07:21:38.999Z</time></trkpt><trkpt lat="43.96012489998252" lon="12.783986300818233"><ele>96.0</ele><time>2026-04-25T07:21:39.999Z</time></trkpt><trkpt lat="43.96027202241635" lon="12.784020725474983"><ele>96.8</ele><time>2026-04-25T07:21:40.999Z</time></trkpt><trkpt lat="43.96040278943901" lon="12.784072228796388"><ele>97.6</ele><time>2026-04-25T07:21:41.999Z</time></trkpt><trkpt lat="43.96051067991638" lon="12.784098568256644"><ele>98.4</ele><time>2026-04-25T07:21:42.999Z</time></trkpt><trkpt lat="43.960600327843196" lon="12.784123293511135"><ele>99.2</ele><time>2026-04-25T07:21:43.999Z</time></trkpt><trkpt lat="43.96067961899159" lon="12.784150327476167"><ele>100.0</ele><time>2026-04-25T07:21:44.999Z</time></trkpt><trkpt lat="43.96073206053395" lon="12.784220892262818"><ele>100.0</ele><time>2026-04-25T07:21:45.999Z</time></trkpt><trkpt lat="43.96071434049649" lon="12.784340171189406"><ele>100.0</ele><time>2026-04-25T07:21:46.999Z</time></trkpt><trkpt lat="43.96067565905089" lon="12.784417458409976"><ele>100.0</ele><time>2026-04-25T07:21:47.999Z</time></trkpt><trkpt lat="43.96061771836168" lon="12.784472173132459"><ele>100.0</ele><time>2026-04-25T07:21:48.999Z</time></trkpt><trkpt lat="43.96049736000112" lon="12.784435447863194"><ele>100.0</ele><time>2026-04-25T07:21:49.999Z</time></trkpt><trkpt lat="43.960376829076964" lon="12.784388304771237"><ele>100.0</ele><time>2026-04-25T07:21:50.999Z</time></trkpt><trkpt lat="43.96023470552612" lon="12.78435416746775"><ele>100.0</ele><time>2026-04-25T07:21:51.999Z</time></trkpt><trkpt lat="43.9600767151778" lon="12.784314347483045"><ele>100.0</ele><time>2026-04-25T07:21:52.999Z</time></trkpt><trkpt lat="43.95991229862304" lon="12.784272667067746"><ele>98.66666666666667</ele><time>2026-04-25T07:21:53.999Z</time></trkpt><trkpt lat="43.95973788876901" lon="12.784231536428107"><ele>97.33333333333334</ele><time>2026-04-25T07:21:54.999Z</time></trkpt><trkpt lat="43.9595680720237" lon="12.784214362814149"><ele>96.0</ele><time>2026-04-25T07:21:55.999Z</time></trkpt><trkpt lat="43.95941340874029" lon="12.784183186062773"><ele>96.0</ele><time>2026-04-25T07:21:56.999Z</time></trkpt><trkpt lat="43.95926078437396" lon="12.784194050634385"><ele>96.0</ele><time>2026-04-25T07:21:57.999Z</time></trkpt><trkpt lat="43.959103949968" lon="12.784257628173544"><ele>96.0</ele><time>2026-04-25T07:21:58.999Z</time></trkpt><trkpt lat="43.958954083393834" lon="12.784349480899065"><ele>87.33333333333333</ele><time>2026-04-25T07:21:59.999Z</time></trkpt><trkpt lat="43.95881273726318" lon="12.78443530656408"><ele>78.66666666666666</ele><time>2026-04-25T07:22:00.999Z</time></trkpt><trkpt lat="43.9586678000278" lon="12.784523421566117"><ele>70.0</ele><time>2026-04-25T07:22:01.999Z</time></trkpt><trkpt lat="43.95854264374" lon="12.784601779327664"><ele>70.0</ele><time>2026-04-25T07:22:02.999Z</time></trkpt><trkpt lat="43.95843428132062" lon="12.78468512139373"><ele>70.0</ele><time>2026-04-25T07:22:03.999Z</time></trkpt><trkpt lat="43.95835708150313" lon="12.784821753293572"><ele>70.0</ele><time>2026-04-25T07:22:04.999Z</time></trkpt><trkpt lat="43.95831085375598" lon="12.784992364024662"><ele>70.0</ele><time>2026-04-25T07:22:05.999Z</time></trkpt><trkpt lat="43.95827358456281" lon="12.785169609410463"><ele>70.66666666666666</ele><time>2026-04-25T07:22:06.999Z</time></trkpt><trkpt lat="43.9582209673895" lon="12.785364476911226"><ele>71.33333333333333</ele><time>2026-04-25T07:22:07.999Z</time></trkpt><trkpt lat="43.9581719326614" lon="12.785562945871776"><ele>72.0</ele><time>2026-04-25T07:22:08.999Z</time></trkpt><trkpt lat="43.958103912619734" lon="12.785760038035734"><ele>72.0</ele><time>2026-04-25T07:22:09.999Z</time></trkpt><trkpt lat="43.958018220091084" lon="12.785937968412359"><ele>72.0</ele><time>2026-04-25T07:22:10.999Z</time></trkpt><trkpt lat="43.95790999361154" lon="12.786097935673238"><ele>72.0</ele><time>2026-04-25T07:22:11.999Z</time></trkpt><trkpt lat="43.95781039519649" lon="12.786275589331881"><ele>66.66666666666667</ele><time>2026-04-25T07:22:12.999Z</time></trkpt><trkpt lat="43.957736066499095" lon="12.786474133965905"><ele>61.333333333333336</ele><time>2026-04-25T07:22:13.999Z</time></trkpt><trkpt lat="43.95769568548753" lon="12.786693521416604"><ele>56.0</ele><time>2026-04-25T07:22:14.999Z</time></trkpt><trkpt lat="43.95765692314336" lon="12.786912511323694"><ele>54.0</ele><time>2026-04-25T07:22:15.999Z</time></trkpt><trkpt lat="43.957578801783264" lon="12.787082229140234"><ele>52.0</ele><time>2026-04-25T07:22:16.999Z</time></trkpt><trkpt lat="43.95748404170218" lon="12.787215440034844"><ele>50.0</ele><time>2026-04-25T07:22:17.999Z</time></trkpt><trkpt lat="43.957378492666535" lon="12.78735533418781"><ele>48.0</ele><time>2026-04-25T07:22:18.999Z</time></trkpt><trkpt lat="43.957271734967854" lon="12.787518801015038"><ele>50.66666666666667</ele><time>2026-04-25T07:22:19.999Z</time></trkpt><trkpt lat="43.95714469750933" lon="12.787665826467979"><ele>53.333333333333336</ele><time>2026-04-25T07:22:20.999Z</time></trkpt><trkpt lat="43.9570237972431" lon="12.787827810302014"><ele>56.0</ele><time>2026-04-25T07:22:21.999Z</time></trkpt><trkpt lat="43.95689147786079" lon="12.787995805397115"><ele>56.0</ele><time>2026-04-25T07:22:22.999Z</time></trkpt><trkpt lat="43.95676175251151" lon="12.788155012855196"><ele>56.0</ele><time>2026-04-25T07:22:23.999Z</time></trkpt><trkpt lat="43.956641521614316" lon="12.788294412588963"><ele>56.0</ele><time>2026-04-25T07:22:24.999Z</time></trkpt><trkpt lat="43.95651542280462" lon="12.788422010341803"><ele>55.66666666666667</ele><time>2026-04-25T07:22:25.999Z</time></trkpt><trkpt lat="43.95638184255262" lon="12.78854143914092"><ele>55.33333333333333</ele><time>2026-04-25T07:22:26.999Z</time></trkpt><trkpt lat="43.9562447769731" lon="12.788656192787041"><ele>55.0</ele><time>2026-04-25T07:22:27.999Z</time></trkpt><trkpt lat="43.956102754843506" lon="12.788770294258699"><ele>55.0</ele><time>2026-04-25T07:22:28.999Z</time></trkpt><trkpt lat="43.9559543430496" lon="12.788879683608721"><ele>55.0</ele><time>2026-04-25T07:22:29.999Z</time></trkpt><trkpt lat="43.95581379202292" lon="12.789009275571583"><ele>55.0</ele><time>2026-04-25T07:22:30.999Z</time></trkpt><trkpt lat="43.955671834450825" lon="12.789128105000083"><ele>55.666666666666664</ele><time>2026-04-25T07:22:31.999Z</time></trkpt><trkpt lat="43.9555324943148" lon="12.789255243714859"><ele>56.33333333333333</ele><time>2026-04-25T07:22:32.999Z</time></trkpt><trkpt lat="43.955385260570566" lon="12.789375077730517"><ele>57.0</ele><time>2026-04-25T07:22:33.998Z</time></trkpt><trkpt lat="43.95524898327269" lon="12.789493270116104"><ele>57.0</ele><time>2026-04-25T07:22:34.998Z</time></trkpt><trkpt lat="43.95511953734807" lon="12.789590356308207"><ele>57.0</ele><time>2026-04-25T07:22:36Z</time></trkpt><trkpt lat="43.95500716477883" lon="12.789698496206794"><ele>57.0</ele><time>2026-04-25T07:22:37Z</time></trkpt><trkpt lat="43.954904383903404" lon="12.789811351921871"><ele>57.0</ele><time>2026-04-25T07:22:38Z</time></trkpt><trkpt lat="43.954819465224126" lon="12.789959346624945"><ele>58.33333333333333</ele><time>2026-04-25T07:22:39Z</time></trkpt><trkpt lat="43.954744766683426" lon="12.790136866261312"><ele>59.666666666666664</ele><time>2026-04-25T07:22:40Z</time></trkpt><trkpt lat="43.954684900414534" lon="12.790331865803171"><ele>61.0</ele><time>2026-04-25T07:22:41Z</time></trkpt><trkpt lat="43.95462689097922" lon="12.790533303817154"><ele>61.0</ele><time>2026-04-25T07:22:42Z</time></trkpt><trkpt lat="43.95455817035165" lon="12.790736340136506"><ele>61.0</ele><time>2026-04-25T07:22:43Z</time></trkpt><trkpt lat="43.9544633479964" lon="12.79093210696318"><ele>61.0</ele><time>2026-04-25T07:22:44Z</time></trkpt><trkpt lat="43.95436418271811" lon="12.791101006583597"><ele>61.5</ele><time>2026-04-25T07:22:45Z</time></trkpt><trkpt lat="43.95427900825335" lon="12.791249701339494"><ele>62.0</ele><time>2026-04-25T07:22:46Z</time></trkpt><trkpt lat="43.954237121233916" lon="12.791384323987286"><ele>62.5</ele><time>2026-04-25T07:22:47Z</time></trkpt><trkpt lat="43.95423098966123" lon="12.791540963409565"><ele>63.0</ele><time>2026-04-25T07:22:48Z</time></trkpt><trkpt lat="43.95424186314153" lon="12.791710568967158"><ele>64.5</ele><time>2026-04-25T07:22:49Z</time></trkpt><trkpt lat="43.95426721251257" lon="12.791902144282801"><ele>66.0</ele><time>2026-04-25T07:22:50Z</time></trkpt><trkpt lat="43.95428463798006" lon="12.792102484464491"><ele>67.5</ele><time>2026-04-25T07:22:51Z</time></trkpt><trkpt lat="43.95430020725949" lon="12.79230663115591"><ele>69.0</ele><time>2026-04-25T07:22:52Z</time></trkpt><trkpt lat="43.95431360473349" lon="12.792494226120656"><ele>69.0</ele><time>2026-04-25T07:22:53Z</time></trkpt><trkpt lat="43.95433151684066" lon="12.792656281565224"><ele>69.0</ele><time>2026-04-25T07:22:54Z</time></trkpt><trkpt lat="43.95439042955818" lon="12.792788427302899"><ele>69.0</ele><time>2026-04-25T07:22:55Z</time></trkpt><trkpt lat="43.95448089088988" lon="12.792880497388063"><ele>69.0</ele><time>2026-04-25T07:22:56Z</time></trkpt><trkpt lat="43.95458338044693" lon="12.792905434060204"><ele>69.0</ele><time>2026-04-25T07:22:57Z</time></trkpt><trkpt lat="43.95469066313614" lon="12.792858615788438"><ele>69.0</ele><time>2026-04-25T07:22:58Z</time></trkpt><trkpt lat="43.95480826150341" lon="12.792864399538285"><ele>69.0</ele><time>2026-04-25T07:22:59Z</time></trkpt><trkpt lat="43.95490646022578" lon="12.792638421762813"><ele>69.0</ele><time>2026-04-25T07:23:00Z</time></trkpt><trkpt lat="43.9550256983601" lon="12.79252310243903"><ele>71.25</ele><time>2026-04-25T07:23:01Z</time></trkpt><trkpt lat="43.955168198956805" lon="12.792431201482604"><ele>73.5</ele><time>2026-04-25T07:23:02Z</time></trkpt><trkpt lat="43.95530335725246" lon="12.792372246320703"><ele>75.75</ele><time>2026-04-25T07:23:03Z</time></trkpt><trkpt lat="43.95543928565147" lon="12.7923976418743"><ele>78.0</ele><time>2026-04-25T07:23:04Z</time></trkpt><trkpt lat="43.95557697161549" lon="12.79244334463894"><ele>78.0</ele><time>2026-04-25T07:23:05Z</time></trkpt><trkpt lat="43.95573246844415" lon="12.792492770411316"><ele>78.0</ele><time>2026-04-25T07:23:06Z</time></trkpt><trkpt lat="43.955886780702656" lon="12.79252926013946"><ele>78.0</ele><time>2026-04-25T07:23:07Z</time></trkpt><trkpt lat="43.95603948169823" lon="12.792576310283268"><ele>80.0</ele><time>2026-04-25T07:23:08Z</time></trkpt><trkpt lat="43.95617916039694" lon="12.792593089455028"><ele>82.0</ele><time>2026-04-25T07:23:09Z</time></trkpt><trkpt lat="43.95630202380267" lon="12.792555605558558"><ele>84.0</ele><time>2026-04-25T07:23:10Z</time></trkpt><trkpt lat="43.95641776320895" lon="12.792432147517534"><ele>86.0</ele><time>2026-04-25T07:23:11Z</time></trkpt><trkpt lat="43.9565060432323" lon="12.79224845091438"><ele>86.0</ele><time>2026-04-25T07:23:12Z</time></trkpt><trkpt lat="43.95662906267593" lon="12.792112048639233"><ele>86.0</ele><time>2026-04-25T07:23:13Z</time></trkpt><trkpt lat="43.956759394535105" lon="12.791992679617884"><ele>86.0</ele><time>2026-04-25T07:23:14Z</time></trkpt><trkpt lat="43.95689004413979" lon="12.791889179495545"><ele>86.0</ele><time>2026-04-25T07:23:15Z</time></trkpt><trkpt lat="43.957032822124454" lon="12.791856165021422"><ele>86.0</ele><time>2026-04-25T07:23:16Z</time></trkpt><trkpt lat="43.957191770358754" lon="12.791829217408525"><ele>86.0</ele><time>2026-04-25T07:23:17Z</time></trkpt><trkpt lat="43.95735206135575" lon="12.791773638274842"><ele>86.0</ele><time>2026-04-25T07:23:18Z</time></trkpt><trkpt lat="43.957512279144645" lon="12.79174583342326"><ele>86.0</ele><time>2026-04-25T07:23:19Z</time></trkpt><trkpt lat="43.95766754464202" lon="12.791696219927665"><ele>86.0</ele><time>2026-04-25T07:23:20Z</time></trkpt><trkpt lat="43.95786100985629" lon="12.791654891896128"><ele>87.66666666666667</ele><time>2026-04-25T07:23:21Z</time></trkpt><trkpt lat="43.95802876083261" lon="12.791604446901857"><ele>89.33333333333333</ele><time>2026-04-25T07:23:22Z</time></trkpt><trkpt lat="43.95820570902212" lon="12.791551236168148"><ele>91.0</ele><time>2026-04-25T07:23:22.999Z</time></trkpt><trkpt lat="43.958374530331845" lon="12.791491927588906"><ele>91.0</ele><time>2026-04-25T07:23:23.999Z</time></trkpt><trkpt lat="43.95853540989467" lon="12.791418668633895"><ele>91.0</ele><time>2026-04-25T07:23:24.999Z</time></trkpt><trkpt lat="43.958668458560446" lon="12.791332739361593"><ele>91.0</ele><time>2026-04-25T07:23:25.999Z</time></trkpt><trkpt lat="43.95880244962528" lon="12.791286962182214"><ele>91.0</ele><time>2026-04-25T07:23:26.999Z</time></trkpt><trkpt lat="43.958911278754414" lon="12.791240190221906"><ele>91.0</ele><time>2026-04-25T07:23:27.999Z</time></trkpt><trkpt lat="43.95901232837501" lon="12.791226893155587"><ele>91.0</ele><time>2026-04-25T07:23:28.999Z</time></trkpt><trkpt lat="43.95909165416027" lon="12.791261555321313"><ele>91.0</ele><time>2026-04-25T07:23:29.999Z</time></trkpt><trkpt lat="43.959146044398615" lon="12.791376140783571"><ele>91.0</ele><time>2026-04-25T07:23:30.999Z</time></trkpt><trkpt lat="43.95917022292467" lon="12.791518713658556"><ele>91.0</ele><time>2026-04-25T07:23:31.999Z</time></trkpt><trkpt lat="43.95918121876045" lon="12.791695753194508"><ele>91.0</ele><time>2026-04-25T07:23:32.999Z</time></trkpt><trkpt lat="43.959173095362296" lon="12.791896197205693"><ele>91.0</ele><time>2026-04-25T07:23:33.999Z</time></trkpt><trkpt lat="43.95917891299327" lon="12.792111938727812"><ele>91.0</ele><time>2026-04-25T07:23:34.999Z</time></trkpt><trkpt lat="43.9591854954761" lon="12.792331450154313"><ele>93.5</ele><time>2026-04-25T07:23:35.999Z</time></trkpt><trkpt lat="43.95919206937605" lon="12.792528308364597"><ele>96.0</ele><time>2026-04-25T07:23:36.999Z</time></trkpt><trkpt lat="43.959209188301514" lon="12.79269754486393"><ele>98.5</ele><time>2026-04-25T07:23:37.999Z</time></trkpt><trkpt lat="43.95925679392595" lon="12.792831308343724"><ele>101.0</ele><time>2026-04-25T07:23:38.999Z</time></trkpt><trkpt lat="43.95934293892828" lon="12.792963119872553"><ele>101.0</ele><time>2026-04-25T07:23:39.999Z</time></trkpt><trkpt lat="43.95945519715081" lon="12.793086294277051"><ele>101.0</ele><time>2026-04-25T07:23:40.999Z</time></trkpt><trkpt lat="43.95955472161494" lon="12.79323432071721"><ele>101.0</ele><time>2026-04-25T07:23:41.999Z</time></trkpt><trkpt lat="43.9596591497821" lon="12.793377869448747"><ele>101.0</ele><time>2026-04-25T07:23:42.999Z</time></trkpt><trkpt lat="43.959765059603505" lon="12.793525738253047"><ele>104.25</ele><time>2026-04-25T07:23:43.999Z</time></trkpt><trkpt lat="43.95987011987972" lon="12.793669659479532"><ele>107.5</ele><time>2026-04-25T07:23:44.999Z</time></trkpt><trkpt lat="43.95996973588548" lon="12.793805875468367"><ele>110.75</ele><time>2026-04-25T07:23:45.999Z</time></trkpt><trkpt lat="43.96006640825311" lon="12.793938065821312"><ele>114.0</ele><time>2026-04-25T07:23:46.999Z</time></trkpt><trkpt lat="43.960154912773824" lon="12.79405935432767"><ele>114.0</ele><time>2026-04-25T07:23:47.999Z</time></trkpt><trkpt lat="43.9602382021415" lon="12.794175101214114"><ele>114.0</ele><time>2026-04-25T07:23:48.999Z</time></trkpt><trkpt lat="43.96032557730733" lon="12.794267289556672"><ele>114.0</ele><time>2026-04-25T07:23:49.999Z</time></trkpt><trkpt lat="43.96038736089703" lon="12.794403206483887"><ele>114.0</ele><time>2026-04-25T07:23:50.999Z</time></trkpt><trkpt lat="43.96046773350237" lon="12.794524473919942"><ele>115.80000000000001</ele><time>2026-04-25T07:23:51.999Z</time></trkpt><trkpt lat="43.96056265418781" lon="12.794616111982295"><ele>117.60000000000001</ele><time>2026-04-25T07:23:52.999Z</time></trkpt><trkpt lat="43.960662486572616" lon="12.794648484812221"><ele>119.4</ele><time>2026-04-25T07:23:53.999Z</time></trkpt><trkpt lat="43.96076415744021" lon="12.79462580067258"><ele>121.2</ele><time>2026-04-25T07:23:54.999Z</time></trkpt><trkpt lat="43.96086585868537" lon="12.794553128638885"><ele>123.0</ele><time>2026-04-25T07:23:55.999Z</time></trkpt><trkpt lat="43.960950245239964" lon="12.79442115391074"><ele>122.60000000000001</ele><time>2026-04-25T07:23:56.999Z</time></trkpt><trkpt lat="43.9610533699541" lon="12.794289973328475"><ele>122.20000000000002</ele><time>2026-04-25T07:23:57.999Z</time></trkpt><trkpt lat="43.961140552942304" lon="12.794181582495739"><ele>121.8</ele><time>2026-04-25T07:23:58.999Z</time></trkpt><trkpt lat="43.96121193318547" lon="12.794117064996424"><ele>121.4</ele><time>2026-04-25T07:23:59.999Z</time></trkpt><trkpt lat="43.96128472457868" lon="12.794108338629547"><ele>121.0</ele><time>2026-04-25T07:24:00.999Z</time></trkpt><trkpt lat="43.96135949974222" lon="12.794185765269999"><ele>121.0</ele><time>2026-04-25T07:24:01.999Z</time></trkpt><trkpt lat="43.9614010870749" lon="12.794310366153692"><ele>121.0</ele><time>2026-04-25T07:24:02.999Z</time></trkpt><trkpt lat="43.96138813682169" lon="12.794452713596009"><ele>121.0</ele><time>2026-04-25T07:24:03.999Z</time></trkpt><trkpt lat="43.96132820531435" lon="12.794580384763865"><ele>121.0</ele><time>2026-04-25T07:24:04.999Z</time></trkpt><trkpt lat="43.96122508798613" lon="12.794663052363065"><ele>121.0</ele><time>2026-04-25T07:24:05.999Z</time></trkpt><trkpt lat="43.96113728124623" lon="12.794794265429267"><ele>121.5</ele><time>2026-04-25T07:24:06.999Z</time></trkpt><trkpt lat="43.961029600296044" lon="12.794909296732744"><ele>122.0</ele><time>2026-04-25T07:24:07.999Z</time></trkpt><trkpt lat="43.96092280385665" lon="12.795030907767961"><ele>122.5</ele><time>2026-04-25T07:24:08.999Z</time></trkpt><trkpt lat="43.960826688551066" lon="12.795128436481257"><ele>123.0</ele><time>2026-04-25T07:24:09.999Z</time></trkpt><trkpt lat="43.96070063471536" lon="12.795155162805896"><ele>123.0</ele><time>2026-04-25T07:24:10.999Z</time></trkpt><trkpt lat="43.96056794873663" lon="12.795130707292966"><ele>123.0</ele><time>2026-04-25T07:24:11.999Z</time></trkpt><trkpt lat="43.96042312303968" lon="12.795096959798247"><ele>123.0</ele><time>2026-04-25T07:24:12.999Z</time></trkpt><trkpt lat="43.960278204466306" lon="12.795067595234281"><ele>123.0</ele><time>2026-04-25T07:24:13.999Z</time></trkpt><trkpt lat="43.960171649239484" lon="12.795033379232486"><ele>123.0</ele><time>2026-04-25T07:24:14.999Z</time></trkpt><trkpt lat="43.96008094909969" lon="12.795043436834654"><ele>123.00000000000001</ele><time>2026-04-25T07:24:15.999Z</time></trkpt><trkpt lat="43.960006789631194" lon="12.795096153990222"><ele>123.00000000000001</ele><time>2026-04-25T07:24:16.999Z</time></trkpt><trkpt lat="43.959961554403286" lon="12.795195658948861"><ele>123.0</ele><time>2026-04-25T07:24:17.999Z</time></trkpt><trkpt lat="43.95997039610248" lon="12.795327953830492"><ele>123.0</ele><time>2026-04-25T07:24:18.999Z</time></trkpt><trkpt lat="43.960039408238046" lon="12.795444328817753"><ele>126.0</ele><time>2026-04-25T07:24:19.999Z</time></trkpt><trkpt lat="43.96016677463112" lon="12.79553161159688"><ele>129.0</ele><time>2026-04-25T07:24:20.999Z</time></trkpt><trkpt lat="43.96029332751126" lon="12.795631968373165"><ele>132.0</ele><time>2026-04-25T07:24:21.999Z</time></trkpt><trkpt lat="43.9604204419509" lon="12.795730565847913"><ele>135.0</ele><time>2026-04-25T07:24:22.999Z</time></trkpt><trkpt lat="43.96054756044637" lon="12.795829166539741"><ele>135.0</ele><time>2026-04-25T07:24:23.999Z</time></trkpt><trkpt lat="43.96067597649568" lon="12.795907538461178"><ele>135.0</ele><time>2026-04-25T07:24:24.999Z</time></trkpt><trkpt lat="43.960809163978425" lon="12.795968590033675"><ele>135.0</ele><time>2026-04-25T07:24:25.999Z</time></trkpt><trkpt lat="43.96096073944161" lon="12.795985676840484"><ele>135.0</ele><time>2026-04-25T07:24:26.999Z</time></trkpt><trkpt lat="43.96110453761627" lon="12.796017922586552"><ele>138.0</ele><time>2026-04-25T07:24:27.999Z</time></trkpt><trkpt lat="43.96122660209818" lon="12.796040957886914"><ele>141.0</ele><time>2026-04-25T07:24:28.999Z</time></trkpt><trkpt lat="43.96133594807805" lon="12.796047114929292"><ele>144.0</ele><time>2026-04-25T07:24:29.999Z</time></trkpt><trkpt lat="43.96141870776063" lon="12.79611122678945"><ele>147.0</ele><time>2026-04-25T07:24:30.999Z</time></trkpt><trkpt lat="43.96145412024927" lon="12.796210627299107"><ele>150.0</ele><time>2026-04-25T07:24:31.999Z</time></trkpt><trkpt lat="43.961447063876015" lon="12.796312667490245"><ele>150.0</ele><time>2026-04-25T07:24:32.999Z</time></trkpt><trkpt lat="43.96139354647534" lon="12.796410270675953"><ele>150.0</ele><time>2026-04-25T07:24:33.999Z</time></trkpt><trkpt lat="43.96130691696014" lon="12.796459214783296"><ele>150.0</ele><time>2026-04-25T07:24:34.999Z</time></trkpt><trkpt lat="43.96120826526702" lon="12.796403654236572"><ele>150.0</ele><time>2026-04-25T07:24:35.999Z</time></trkpt><trkpt lat="43.961075463780766" lon="12.796359089186558"><ele>150.0</ele><time>2026-04-25T07:24:36.999Z</time></trkpt><trkpt lat="43.96092474760935" lon="12.796307855133431"><ele>150.66666666666666</ele><time>2026-04-25T07:24:37.999Z</time></trkpt><trkpt lat="43.96078928808879" lon="12.796270283039606"><ele>151.33333333333331</ele><time>2026-04-25T07:24:38.998Z</time></trkpt><trkpt lat="43.960641356800245" lon="12.79621807676964"><ele>152.0</ele><time>2026-04-25T07:24:39.998Z</time></trkpt><trkpt lat="43.9604826516671" lon="12.796176302013315"><ele>152.0</ele><time>2026-04-25T07:24:40.998Z</time></trkpt><trkpt lat="43.96032549244158" lon="12.796098166117119"><ele>152.0</ele><time>2026-04-25T07:24:42Z</time></trkpt><trkpt lat="43.96017566151798" lon="12.796001839366792"><ele>152.0</ele><time>2026-04-25T07:24:43Z</time></trkpt><trkpt lat="43.960051832043284" lon="12.795898012503615"><ele>150.75</ele><time>2026-04-25T07:24:44Z</time></trkpt><trkpt lat="43.959951959729864" lon="12.79579520652344"><ele>149.5</ele><time>2026-04-25T07:24:45Z</time></trkpt><trkpt lat="43.95986061610259" lon="12.7956874011152"><ele>148.25</ele><time>2026-04-25T07:24:46Z</time></trkpt><trkpt lat="43.95977213421605" lon="12.79558194211523"><ele>147.0</ele><time>2026-04-25T07:24:47Z</time></trkpt><trkpt lat="43.95969260673739" lon="12.795507287666585"><ele>147.0</ele><time>2026-04-25T07:24:48Z</time></trkpt><trkpt lat="43.95959072640659" lon="12.795490199682439"><ele>147.0</ele><time>2026-04-25T07:24:49Z</time></trkpt><trkpt lat="43.95948657687265" lon="12.795519638388091"><ele>147.0</ele><time>2026-04-25T07:24:50Z</time></trkpt><trkpt lat="43.95938269019685" lon="12.795566207875066"><ele>147.0</ele><time>2026-04-25T07:24:51Z</time></trkpt><trkpt lat="43.95927663700312" lon="12.795616655759899"><ele>147.0</ele><time>2026-04-25T07:24:52Z</time></trkpt><trkpt lat="43.95916931127946" lon="12.7956456706951"><ele>148.79999999999998</ele><time>2026-04-25T07:24:53Z</time></trkpt><trkpt lat="43.959064950536515" lon="12.79563114106381"><ele>150.6</ele><time>2026-04-25T07:24:54Z</time></trkpt><trkpt lat="43.95898810891967" lon="12.795565149411111"><ele>152.39999999999998</ele><time>2026-04-25T07:24:55Z</time></trkpt><trkpt lat="43.9589210323921" lon="12.795484627019231"><ele>154.2</ele><time>2026-04-25T07:24:56Z</time></trkpt><trkpt lat="43.95885322517327" lon="12.795401754612513"><ele>156.0</ele><time>2026-04-25T07:24:57Z</time></trkpt><trkpt lat="43.9587881148901" lon="12.79531573120433"><ele>156.0</ele><time>2026-04-25T07:24:58Z</time></trkpt><trkpt lat="43.95871937136429" lon="12.795237650345252"><ele>156.0</ele><time>2026-04-25T07:24:59Z</time></trkpt><trkpt lat="43.958640809456014" lon="12.795181174564053"><ele>156.0</ele><time>2026-04-25T07:25:00Z</time></trkpt><trkpt lat="43.95856687680579" lon="12.795148954239949"><ele>156.0</ele><time>2026-04-25T07:25:01Z</time></trkpt><trkpt lat="43.95849152912895" lon="12.795142953029632"><ele>156.0</ele><time>2026-04-25T07:25:02Z</time></trkpt><trkpt lat="43.95841464159041" lon="12.795161183202199"><ele>156.0</ele><time>2026-04-25T07:25:03Z</time></trkpt><trkpt lat="43.9583366556512" lon="12.795201860177734"><ele>156.2</ele><time>2026-04-25T07:25:04Z</time></trkpt><trkpt lat="43.95825958596399" lon="12.795259380779042"><ele>156.39999999999998</ele><time>2026-04-25T07:25:05Z</time></trkpt><trkpt lat="43.95819166797823" lon="12.79534640904972"><ele>156.6</ele><time>2026-04-25T07:25:06Z</time></trkpt><trkpt lat="43.9581387220072" lon="12.795454696301082"><ele>156.79999999999998</ele><time>2026-04-25T07:25:07Z</time></trkpt><trkpt lat="43.95810798257188" lon="12.795578535077096"><ele>157.0</ele><time>2026-04-25T07:25:08Z</time></trkpt><trkpt lat="43.95810791843329" lon="12.795715722239045"><ele>157.0</ele><time>2026-04-25T07:25:09Z</time></trkpt><trkpt lat="43.958138726554786" lon="12.795862722053695"><ele>157.0</ele><time>2026-04-25T07:25:10Z</time></trkpt><trkpt lat="43.95819821620776" lon="12.796001596738899"><ele>157.0</ele><time>2026-04-25T07:25:11Z</time></trkpt><trkpt lat="43.95827378960098" lon="12.796130098945232"><ele>157.0</ele><time>2026-04-25T07:25:12Z</time></trkpt><trkpt lat="43.958355110307174" lon="12.796253386427402"><ele>159.75</ele><time>2026-04-25T07:25:13Z</time></trkpt><trkpt lat="43.95843204055557" lon="12.796382686822708"><ele>162.5</ele><time>2026-04-25T07:25:14Z</time></trkpt><trkpt lat="43.95850496307229" lon="12.796515587161993"><ele>165.25</ele><time>2026-04-25T07:25:15Z</time></trkpt><trkpt lat="43.95857494660146" lon="12.796648048376943"><ele>168.0</ele><time>2026-04-25T07:25:16Z</time></trkpt><trkpt lat="43.95864806049998" lon="12.79677920212242"><ele>169.75</ele><time>2026-04-25T07:25:17Z</time></trkpt><trkpt lat="43.95872037209029" lon="12.796913163480232"><ele>171.5</ele><time>2026-04-25T07:25:18Z</time></trkpt><trkpt lat="43.95877634355148" lon="12.797061978556329"><ele>173.25</ele><time>2026-04-25T07:25:19Z</time></trkpt><trkpt lat="43.958804832932884" lon="12.797232989365307"><ele>175.0</ele><time>2026-04-25T07:25:20Z</time></trkpt><trkpt lat="43.958813636459894" lon="12.797407328988902"><ele>175.0</ele><time>2026-04-25T07:25:21Z</time></trkpt><trkpt lat="43.95880407143896" lon="12.797572596429879"><ele>175.0</ele><time>2026-04-25T07:25:22Z</time></trkpt><trkpt lat="43.958786323731715" lon="12.797721888967889"><ele>175.0</ele><time>2026-04-25T07:25:23Z</time></trkpt><trkpt lat="43.95876615330249" lon="12.797868670474026"><ele>175.0</ele><time>2026-04-25T07:25:24Z</time></trkpt><trkpt lat="43.95874304329431" lon="12.79800746861285"><ele>175.0</ele><time>2026-04-25T07:25:25Z</time></trkpt><trkpt lat="43.9587250996796" lon="12.798139611325917"><ele>175.2</ele><time>2026-04-25T07:25:26Z</time></trkpt><trkpt lat="43.9587335689137" lon="12.798264039487291"><ele>175.4</ele><time>2026-04-25T07:25:27Z</time></trkpt><trkpt lat="43.958773689125834" lon="12.79837750863828"><ele>175.60000000000002</ele><time>2026-04-25T07:25:27.999Z</time></trkpt><trkpt lat="43.95883774977746" lon="12.798478256945895"><ele>175.8</ele><time>2026-04-25T07:25:28.999Z</time></trkpt><trkpt lat="43.958915701969" lon="12.798567667274105"><ele>176.0</ele><time>2026-04-25T07:25:29.999Z</time></trkpt><trkpt lat="43.95900019718915" lon="12.798655639410832"><ele>176.60000000000002</ele><time>2026-04-25T07:25:30.999Z</time></trkpt><trkpt lat="43.95908813946983" lon="12.798746798221062"><ele>177.2</ele><time>2026-04-25T07:25:31.999Z</time></trkpt><trkpt lat="43.95917622311517" lon="12.79883363181305"><ele>177.8</ele><time>2026-04-25T07:25:32.999Z</time></trkpt><trkpt lat="43.95926941422202" lon="12.798904523048687"><ele>178.39999999999998</ele><time>2026-04-25T07:25:33.999Z</time></trkpt><trkpt lat="43.959362164370894" lon="12.79895924764829"><ele>179.0</ele><time>2026-04-25T07:25:34.999Z</time></trkpt><trkpt lat="43.95944106777431" lon="12.79901764904351"><ele>179.0</ele><time>2026-04-25T07:25:35.999Z</time></trkpt><trkpt lat="43.95952869065508" lon="12.79905604802496"><ele>179.0</ele><time>2026-04-25T07:25:36.999Z</time></trkpt><trkpt lat="43.95961497515583" lon="12.79908626210058"><ele>179.0</ele><time>2026-04-25T07:25:37.999Z</time></trkpt><trkpt lat="43.95970322689892" lon="12.7991176173625"><ele>179.0</ele><time>2026-04-25T07:25:38.999Z</time></trkpt><trkpt lat="43.95979631538226" lon="12.799142973936293"><ele>179.0</ele><time>2026-04-25T07:25:39.999Z</time></trkpt><trkpt lat="43.95988256234461" lon="12.799185146681486"><ele>179.0</ele><time>2026-04-25T07:25:40.999Z</time></trkpt><trkpt lat="43.959967468161445" lon="12.79924805404757"><ele>179.0</ele><time>2026-04-25T07:25:41.999Z</time></trkpt><trkpt lat="43.9600480754383" lon="12.799333437587135"><ele>179.0</ele><time>2026-04-25T07:25:42.999Z</time></trkpt><trkpt lat="43.960119862029686" lon="12.799444170855544"><ele>179.0</ele><time>2026-04-25T07:25:43.999Z</time></trkpt><trkpt lat="43.96018472734585" lon="12.79957429371018"><ele>179.0</ele><time>2026-04-25T07:25:44.999Z</time></trkpt><trkpt lat="43.96024783368863" lon="12.799715741522752"><ele>177.0</ele><time>2026-04-25T07:25:45.999Z</time></trkpt><trkpt lat="43.96030152560169" lon="12.7998551126633"><ele>175.0</ele><time>2026-04-25T07:25:46.999Z</time></trkpt><trkpt lat="43.960353281557545" lon="12.799989135694874"><ele>173.0</ele><time>2026-04-25T07:25:47.999Z</time></trkpt><trkpt lat="43.96039746250977" lon="12.800115639934978"><ele>171.0</ele><time>2026-04-25T07:25:48.999Z</time></trkpt><trkpt lat="43.960426976367465" lon="12.800242959001784"><ele>169.0</ele><time>2026-04-25T07:25:49.999Z</time></trkpt><trkpt lat="43.960439983857164" lon="12.800369336875965"><ele>164.39999999999998</ele><time>2026-04-25T07:25:50.999Z</time></trkpt><trkpt lat="43.96043367336725" lon="12.800497581229465"><ele>159.79999999999998</ele><time>2026-04-25T07:25:51.999Z</time></trkpt><trkpt lat="43.960403208257766" lon="12.800625162054816"><ele>155.2</ele><time>2026-04-25T07:25:52.999Z</time></trkpt><trkpt lat="43.96036051999276" lon="12.800764318762491"><ele>150.6</ele><time>2026-04-25T07:25:53.999Z</time></trkpt><trkpt lat="43.96031028389945" lon="12.800919086064322"><ele>146.0</ele><time>2026-04-25T07:25:54.999Z</time></trkpt><trkpt lat="43.960252369935645" lon="12.801087573855215"><ele>150.0</ele><time>2026-04-25T07:25:55.999Z</time></trkpt><trkpt lat="43.96018598182106" lon="12.801265587859058"><ele>154.0</ele><time>2026-04-25T07:25:56.999Z</time></trkpt><trkpt lat="43.96011772738982" lon="12.801432609502148"><ele>158.0</ele><time>2026-04-25T07:25:57.999Z</time></trkpt><trkpt lat="43.96004124764242" lon="12.801587205171462"><ele>162.0</ele><time>2026-04-25T07:25:58.999Z</time></trkpt><trkpt lat="43.95996822776395" lon="12.801749689090538"><ele>159.25</ele><time>2026-04-25T07:25:59.999Z</time></trkpt><trkpt lat="43.95989663146924" lon="12.80191290519815"><ele>156.5</ele><time>2026-04-25T07:26:00.999Z</time></trkpt><trkpt lat="43.95982426786946" lon="12.802076976698975"><ele>153.75</ele><time>2026-04-25T07:26:01.999Z</time></trkpt><trkpt lat="43.95975183213685" lon="12.802239490956223"><ele>151.0</ele><time>2026-04-25T07:26:02.999Z</time></trkpt><trkpt lat="43.95968129361246" lon="12.802401579525192"><ele>151.0</ele><time>2026-04-25T07:26:03.999Z</time></trkpt><trkpt lat="43.95960705617859" lon="12.802563233848137"><ele>151.0</ele><time>2026-04-25T07:26:04.999Z</time></trkpt><trkpt lat="43.959524873888796" lon="12.802716605553169"><ele>151.0</ele><time>2026-04-25T07:26:05.999Z</time></trkpt><trkpt lat="43.95943649265342" lon="12.802864170074507"><ele>151.0</ele><time>2026-04-25T07:26:06.999Z</time></trkpt><trkpt lat="43.95934360498346" lon="12.803001560809669"><ele>150.25</ele><time>2026-04-25T07:26:07.999Z</time></trkpt><trkpt lat="43.95924510682578" lon="12.803132052986397"><ele>149.5</ele><time>2026-04-25T07:26:08.999Z</time></trkpt><trkpt lat="43.95914957707745" lon="12.803264884552735"><ele>148.75</ele><time>2026-04-25T07:26:09.999Z</time></trkpt><trkpt lat="43.95906440752348" lon="12.803411652127386"><ele>148.0</ele><time>2026-04-25T07:26:10.999Z</time></trkpt><trkpt lat="43.9589856758676" lon="12.80356841106861"><ele>148.0</ele><time>2026-04-25T07:26:11.999Z</time></trkpt><trkpt lat="43.95891355610835" lon="12.803725729163583"><ele>148.0</ele><time>2026-04-25T07:26:12.999Z</time></trkpt><trkpt lat="43.95885807195436" lon="12.80387989139162"><ele>148.0</ele><time>2026-04-25T07:26:13.999Z</time></trkpt><trkpt lat="43.95881878653317" lon="12.80403397503452"><ele>148.0</ele><time>2026-04-25T07:26:14.999Z</time></trkpt><trkpt lat="43.958790793289" lon="12.804193001265027"><ele>144.0</ele><time>2026-04-25T07:26:15.999Z</time></trkpt><trkpt lat="43.95877277740036" lon="12.804352991677197"><ele>140.0</ele><time>2026-04-25T07:26:16.999Z</time></trkpt><trkpt lat="43.95875216221049" lon="12.804512201467745"><ele>136.0</ele><time>2026-04-25T07:26:17.999Z</time></trkpt><trkpt lat="43.958724589400646" lon="12.804672599162865"><ele>132.0</ele><time>2026-04-25T07:26:18.999Z</time></trkpt><trkpt lat="43.95868451958577" lon="12.80482702491505"><ele>132.0</ele><time>2026-04-25T07:26:19.999Z</time></trkpt><trkpt lat="43.958635515951215" lon="12.804955704657711"><ele>132.0</ele><time>2026-04-25T07:26:20.999Z</time></trkpt><trkpt lat="43.958581463285675" lon="12.805058229448507"><ele>132.0</ele><time>2026-04-25T07:26:21.999Z</time></trkpt><trkpt lat="43.95851618826283" lon="12.805142545399105"><ele>132.0</ele><time>2026-04-25T07:26:22.999Z</time></trkpt><trkpt lat="43.95844181131226" lon="12.805200400330428"><ele>132.0</ele><time>2026-04-25T07:26:23.999Z</time></trkpt><trkpt lat="43.95836045656356" lon="12.805228360043714"><ele>139.2</ele><time>2026-04-25T07:26:24.999Z</time></trkpt><trkpt lat="43.95827864454529" lon="12.805193150840244"><ele>146.39999999999998</ele><time>2026-04-25T07:26:25.999Z</time></trkpt><trkpt lat="43.95821208577279" lon="12.805100311759043"><ele>153.60000000000002</ele><time>2026-04-25T07:26:26.999Z</time></trkpt><trkpt lat="43.958141069547764" lon="12.804992865942106"><ele>160.8</ele><time>2026-04-25T07:26:27.999Z</time></trkpt><trkpt lat="43.958044424952384" lon="12.804899162915415"><ele>168.0</ele><time>2026-04-25T07:26:28.999Z</time></trkpt><trkpt lat="43.957934027230934" lon="12.804808253339207"><ele>168.0</ele><time>2026-04-25T07:26:29.999Z</time></trkpt><trkpt lat="43.95781392779182" lon="12.804717825331096"><ele>168.0</ele><time>2026-04-25T07:26:30.999Z</time></trkpt><trkpt lat="43.95768439930166" lon="12.804636115643298"><ele>168.0</ele><time>2026-04-25T07:26:31.999Z</time></trkpt><trkpt lat="43.95755048498249" lon="12.804559432785366"><ele>168.0</ele><time>2026-04-25T07:26:32.999Z</time></trkpt><trkpt lat="43.9574105797128" lon="12.804499572303333"><ele>170.25</ele><time>2026-04-25T07:26:33.999Z</time></trkpt><trkpt lat="43.95726426760944" lon="12.804453006723461"><ele>172.5</ele><time>2026-04-25T07:26:34.999Z</time></trkpt><trkpt lat="43.95712531207681" lon="12.804404803299617"><ele>174.75</ele><time>2026-04-25T07:26:35.999Z</time></trkpt><trkpt lat="43.957002737255316" lon="12.804338681074299"><ele>177.0</ele><time>2026-04-25T07:26:36.999Z</time></trkpt><trkpt lat="43.956901343097634" lon="12.80426895137235"><ele>175.33333333333334</ele><time>2026-04-25T07:26:37.999Z</time></trkpt><trkpt lat="43.95681619113435" lon="12.80421636442502"><ele>173.66666666666666</ele><time>2026-04-25T07:26:38.999Z</time></trkpt><trkpt lat="43.95673743589569" lon="12.804187524184483"><ele>172.0</ele><time>2026-04-25T07:26:39.999Z</time></trkpt><trkpt lat="43.95665633368015" lon="12.804205977301386"><ele>170.33333333333331</ele><time>2026-04-25T07:26:40.999Z</time></trkpt><trkpt lat="43.95658946420731" lon="12.804272883148506"><ele>168.66666666666666</ele><time>2026-04-25T07:26:41.999Z</time></trkpt><trkpt lat="43.956542152262394" lon="12.804379521788398"><ele>167.0</ele><time>2026-04-25T07:26:42.999Z</time></trkpt><trkpt lat="43.9565261623016" lon="12.804507501226881"><ele>167.0</ele><time>2026-04-25T07:26:43.999Z</time></trkpt><trkpt lat="43.956528916008125" lon="12.804671961596508"><ele>167.0</ele><time>2026-04-25T07:26:44.998Z</time></trkpt><trkpt lat="43.95651310039888" lon="12.804873398701911"><ele>167.0</ele><time>2026-04-25T07:26:45.998Z</time></trkpt><trkpt lat="43.95650856070361" lon="12.805069024154506"><ele>167.0</ele><time>2026-04-25T07:26:46.998Z</time></trkpt><trkpt lat="43.95649389064784" lon="12.805264794347645"><ele>168.0</ele><time>2026-04-25T07:26:48Z</time></trkpt><trkpt lat="43.95649010976783" lon="12.805437574545683"><ele>169.0</ele><time>2026-04-25T07:26:49Z</time></trkpt><trkpt lat="43.95647024982044" lon="12.80557522856308"><ele>170.0</ele><time>2026-04-25T07:26:50Z</time></trkpt><trkpt lat="43.95642194935193" lon="12.805690326608753"><ele>171.0</ele><time>2026-04-25T07:26:51Z</time></trkpt><trkpt lat="43.95633829899363" lon="12.805771125954347"><ele>172.0</ele><time>2026-04-25T07:26:52Z</time></trkpt><trkpt lat="43.95623475875662" lon="12.805845958539962"><ele>172.0</ele><time>2026-04-25T07:26:53Z</time></trkpt><trkpt lat="43.956117935536305" lon="12.805924503163405"><ele>172.0</ele><time>2026-04-25T07:26:54Z</time></trkpt><trkpt lat="43.95599057256994" lon="12.80597760106997"><ele>172.0</ele><time>2026-04-25T07:26:55Z</time></trkpt><trkpt lat="43.95587329932671" lon="12.805980035085742"><ele>172.0</ele><time>2026-04-25T07:26:56Z</time></trkpt><trkpt lat="43.95575586204628" lon="12.805958981646286"><ele>169.5</ele><time>2026-04-25T07:26:57Z</time></trkpt><trkpt lat="43.955634379859916" lon="12.805915889562343"><ele>167.0</ele><time>2026-04-25T07:26:58Z</time></trkpt><trkpt lat="43.95550333978522" lon="12.805851185928836"><ele>164.5</ele><time>2026-04-25T07:26:59Z</time></trkpt><trkpt lat="43.955372918138416" lon="12.805775971324989"><ele>162.0</ele><time>2026-04-25T07:27:00Z</time></trkpt><trkpt lat="43.9552379654776" lon="12.805691997126663"><ele>162.0</ele><time>2026-04-25T07:27:01Z</time></trkpt><trkpt lat="43.95511448830263" lon="12.805598407715316"><ele>162.0</ele><time>2026-04-25T07:27:02Z</time></trkpt><trkpt lat="43.955000993815055" lon="12.805468999946708"><ele>162.0</ele><time>2026-04-25T07:27:03Z</time></trkpt><trkpt lat="43.954894768713544" lon="12.805310905759658"><ele>162.0</ele><time>2026-04-25T07:27:04Z</time></trkpt><trkpt lat="43.9547920638353" lon="12.805138951340824"><ele>158.75</ele><time>2026-04-25T07:27:05Z</time></trkpt><trkpt lat="43.954704841573246" lon="12.804963040287971"><ele>155.5</ele><time>2026-04-25T07:27:06Z</time></trkpt><trkpt lat="43.95460714809859" lon="12.804818160179039"><ele>152.25</ele><time>2026-04-25T07:27:07Z</time></trkpt><trkpt lat="43.95453207363286" lon="12.804683113250412"><ele>149.0</ele><time>2026-04-25T07:27:08Z</time></trkpt><trkpt lat="43.954458824327034" lon="12.804568695121032"><ele>149.0</ele><time>2026-04-25T07:27:09Z</time></trkpt><trkpt lat="43.95437965413223" lon="12.804486067229709"><ele>149.0</ele><time>2026-04-25T07:27:10Z</time></trkpt><trkpt lat="43.954293081134225" lon="12.804436259807588"><ele>149.0</ele><time>2026-04-25T07:27:11Z</time></trkpt><trkpt lat="43.9542008756116" lon="12.804428401319056"><ele>149.0</ele><time>2026-04-25T07:27:12Z</time></trkpt><trkpt lat="43.954089480122654" lon="12.804451662676847"><ele>149.0</ele><time>2026-04-25T07:27:13Z</time></trkpt><trkpt lat="43.95396824202838" lon="12.804493441055385"><ele>150.8</ele><time>2026-04-25T07:27:14Z</time></trkpt><trkpt lat="43.953845814887494" lon="12.804534195165612"><ele>152.60000000000002</ele><time>2026-04-25T07:27:15Z</time></trkpt><trkpt lat="43.95374187907185" lon="12.80457791513001"><ele>154.4</ele><time>2026-04-25T07:27:16Z</time></trkpt><trkpt lat="43.95365804952258" lon="12.80463648720444"><ele>156.20000000000002</ele><time>2026-04-25T07:27:17Z</time></trkpt><trkpt lat="43.953605473450224" lon="12.804726557577775"><ele>158.0</ele><time>2026-04-25T07:27:18Z</time></trkpt><trkpt lat="43.95358866379929" lon="12.804843096261076"><ele>158.0</ele><time>2026-04-25T07:27:19Z</time></trkpt><trkpt lat="43.95360093978661" lon="12.80498237199847"><ele>158.0</ele><time>2026-04-25T07:27:20Z</time></trkpt><trkpt lat="43.95361809817263" lon="12.805131536555288"><ele>158.0</ele><time>2026-04-25T07:27:21Z</time></trkpt><trkpt lat="43.95361519515185" lon="12.805300738632626"><ele>158.0</ele><time>2026-04-25T07:27:22Z</time></trkpt><trkpt lat="43.95361886272346" lon="12.80548100604101"><ele>160.0</ele><time>2026-04-25T07:27:23Z</time></trkpt><trkpt lat="43.95363098267705" lon="12.805672842650301"><ele>162.0</ele><time>2026-04-25T07:27:24Z</time></trkpt><trkpt lat="43.95364555056448" lon="12.805870741899383"><ele>164.0</ele><time>2026-04-25T07:27:25Z</time></trkpt><trkpt lat="43.95366329202464" lon="12.806061833191398"><ele>166.0</ele><time>2026-04-25T07:27:26Z</time></trkpt><trkpt lat="43.95368134736675" lon="12.806247893731426"><ele>167.0</ele><time>2026-04-25T07:27:27Z</time></trkpt><trkpt lat="43.953694553870235" lon="12.806440863617732"><ele>168.0</ele><time>2026-04-25T07:27:28Z</time></trkpt><trkpt lat="43.953688809935706" lon="12.806633765618871"><ele>169.0</ele><time>2026-04-25T07:27:29Z</time></trkpt><trkpt lat="43.95366790381447" lon="12.806828257483044"><ele>170.0</ele><time>2026-04-25T07:27:30Z</time></trkpt><trkpt lat="43.95363675354171" lon="12.807023313047482"><ele>170.5</ele><time>2026-04-25T07:27:31Z</time></trkpt><trkpt lat="43.95360291275118" lon="12.80721222740869"><ele>171.0</ele><time>2026-04-25T07:27:32Z</time></trkpt><trkpt lat="43.9535749163654" lon="12.807397564553236"><ele>171.5</ele><time>2026-04-25T07:27:33Z</time></trkpt><trkpt lat="43.95356731298165" lon="12.807570167314541"><ele>172.0</ele><time>2026-04-25T07:27:34Z</time></trkpt><trkpt lat="43.95359044285546" lon="12.807716648865975"><ele>170.39999999999998</ele><time>2026-04-25T07:27:35Z</time></trkpt><trkpt lat="43.95364192812287" lon="12.80783038216251"><ele>168.79999999999998</ele><time>2026-04-25T07:27:36Z</time></trkpt><trkpt lat="43.95371929925491" lon="12.807903190042078"><ele>167.2</ele><time>2026-04-25T07:27:37Z</time></trkpt><trkpt lat="43.953822333873504" lon="12.8079480227528"><ele>165.6</ele><time>2026-04-25T07:27:37.999Z</time></trkpt><trkpt lat="43.953939036792434" lon="12.807989640223724"><ele>164.0</ele><time>2026-04-25T07:27:38.999Z</time></trkpt><trkpt lat="43.95406332461629" lon="12.808057404535335"><ele>164.0</ele><time>2026-04-25T07:27:39.999Z</time></trkpt><trkpt lat="43.95419237303647" lon="12.808140406073006"><ele>164.0</ele><time>2026-04-25T07:27:40.999Z</time></trkpt><trkpt lat="43.95432124486937" lon="12.808240469176424"><ele>164.0</ele><time>2026-04-25T07:27:41.999Z</time></trkpt><trkpt lat="43.95442961795845" lon="12.808331795654064"><ele>164.0</ele><time>2026-04-25T07:27:42.999Z</time></trkpt><trkpt lat="43.95451894101754" lon="12.808439695440866"><ele>167.25</ele><time>2026-04-25T07:27:43.999Z</time></trkpt><trkpt lat="43.95459490485168" lon="12.808572490688281"><ele>170.5</ele><time>2026-04-25T07:27:44.999Z</time></trkpt><trkpt lat="43.95465327526161" lon="12.808724626828488"><ele>173.75</ele><time>2026-04-25T07:27:45.999Z</time></trkpt><trkpt lat="43.95469769845272" lon="12.808891881305016"><ele>177.0</ele><time>2026-04-25T07:27:46.999Z</time></trkpt><trkpt lat="43.95475467750114" lon="12.809061693168328"><ele>177.0</ele><time>2026-04-25T07:27:47.999Z</time></trkpt><trkpt lat="43.954847999069884" lon="12.809223222828091"><ele>177.0</ele><time>2026-04-25T07:27:48.999Z</time></trkpt><trkpt lat="43.954964880671255" lon="12.809382733412253"><ele>177.0</ele><time>2026-04-25T07:27:49.999Z</time></trkpt><trkpt lat="43.95506148779089" lon="12.80953805424284"><ele>180.75</ele><time>2026-04-25T07:27:50.999Z</time></trkpt><trkpt lat="43.955120989103705" lon="12.809672973879843"><ele>184.5</ele><time>2026-04-25T07:27:51.999Z</time></trkpt><trkpt lat="43.955151195279" lon="12.80982927378607"><ele>188.25</ele><time>2026-04-25T07:27:52.999Z</time></trkpt><trkpt lat="43.95513362757214" lon="12.809984855513312"><ele>192.0</ele><time>2026-04-25T07:27:53.999Z</time></trkpt><trkpt lat="43.95507800728368" lon="12.810122531367401"><ele>190.0</ele><time>2026-04-25T07:27:54.999Z</time></trkpt><trkpt lat="43.95500789058719" lon="12.810254096058383"><ele>188.0</ele><time>2026-04-25T07:27:55.999Z</time></trkpt><trkpt lat="43.954912579869635" lon="12.810370040027497"><ele>186.0</ele><time>2026-04-25T07:27:56.999Z</time></trkpt><trkpt lat="43.95478697592205" lon="12.810450847909845"><ele>184.0</ele><time>2026-04-25T07:27:57.999Z</time></trkpt><trkpt lat="43.95464922133274" lon="12.810523566630899"><ele>184.0</ele><time>2026-04-25T07:27:58.999Z</time></trkpt><trkpt lat="43.95452036747621" lon="12.81059360217408"><ele>184.0</ele><time>2026-04-25T07:27:59.999Z</time></trkpt><trkpt lat="43.95440551225025" lon="12.81065802025466"><ele>184.0</ele><time>2026-04-25T07:28:00.999Z</time></trkpt><trkpt lat="43.9543088155417" lon="12.8107506127361"><ele>184.0</ele><time>2026-04-25T07:28:01.999Z</time></trkpt><trkpt lat="43.95425226405948" lon="12.810893942062895"><ele>184.5</ele><time>2026-04-25T07:28:02.999Z</time></trkpt><trkpt lat="43.95423345549959" lon="12.811058148686083"><ele>185.0</ele><time>2026-04-25T07:28:03.999Z</time></trkpt><trkpt lat="43.95424930444431" lon="12.811244638838973"><ele>185.5</ele><time>2026-04-25T07:28:04.999Z</time></trkpt><trkpt lat="43.954285816322425" lon="12.811429596477659"><ele>186.0</ele><time>2026-04-25T07:28:05.999Z</time></trkpt><trkpt lat="43.95427051330772" lon="12.811607870188546"><ele>186.0</ele><time>2026-04-25T07:28:06.999Z</time></trkpt><trkpt lat="43.95423854359909" lon="12.811756216089769"><ele>186.0</ele><time>2026-04-25T07:28:07.999Z</time></trkpt><trkpt lat="43.95415402742937" lon="12.8118672871516"><ele>186.0</ele><time>2026-04-25T07:28:08.999Z</time></trkpt><trkpt lat="43.95404739470306" lon="12.811951814059169"><ele>186.0</ele><time>2026-04-25T07:28:09.999Z</time></trkpt><trkpt lat="43.95391204588611" lon="12.81199127359437"><ele>185.5</ele><time>2026-04-25T07:28:10.999Z</time></trkpt><trkpt lat="43.953773064647145" lon="12.812025205674745"><ele>185.0</ele><time>2026-04-25T07:28:11.999Z</time></trkpt><trkpt lat="43.953647342529244" lon="12.812050516719133"><ele>184.5</ele><time>2026-04-25T07:28:12.999Z</time></trkpt><trkpt lat="43.953553125914794" lon="12.812056261436508"><ele>184.0</ele><time>2026-04-25T07:28:13.999Z</time></trkpt><trkpt lat="43.953462718031616" lon="12.811996955921908"><ele>184.0</ele><time>2026-04-25T07:28:14.999Z</time></trkpt><trkpt lat="43.95338172358088" lon="12.811896378073248"><ele>184.0</ele><time>2026-04-25T07:28:15.999Z</time></trkpt><trkpt lat="43.953276575287994" lon="12.811820655687706"><ele>184.0</ele><time>2026-04-25T07:28:16.999Z</time></trkpt><trkpt lat="43.95314373820846" lon="12.811816528169613"><ele>184.0</ele><time>2026-04-25T07:28:17.999Z</time></trkpt><trkpt lat="43.953015734274516" lon="12.811861276651038"><ele>181.25</ele><time>2026-04-25T07:28:18.999Z</time></trkpt><trkpt lat="43.952897188002346" lon="12.811953099603581"><ele>178.5</ele><time>2026-04-25T07:28:19.999Z</time></trkpt><trkpt lat="43.952798411716884" lon="12.812081493765792"><ele>175.75</ele><time>2026-04-25T07:28:20.999Z</time></trkpt><trkpt lat="43.95272904529473" lon="12.812240759913792"><ele>173.0</ele><time>2026-04-25T07:28:21.999Z</time></trkpt><trkpt lat="43.952682072100934" lon="12.812409241274649"><ele>173.0</ele><time>2026-04-25T07:28:22.999Z</time></trkpt><trkpt lat="43.95264256906156" lon="12.812572532160097"><ele>173.0</ele><time>2026-04-25T07:28:23.999Z</time></trkpt><trkpt lat="43.95259532781117" lon="12.81275652857272"><ele>173.0</ele><time>2026-04-25T07:28:24.999Z</time></trkpt><trkpt lat="43.95254620322675" lon="12.812952765577704"><ele>173.0</ele><time>2026-04-25T07:28:25.999Z</time></trkpt><trkpt lat="43.95250264032211" lon="12.81314357705143"><ele>172.5</ele><time>2026-04-25T07:28:26.999Z</time></trkpt><trkpt lat="43.95248184898689" lon="12.81332191018967"><ele>172.0</ele><time>2026-04-25T07:28:27.999Z</time></trkpt><trkpt lat="43.95249257760187" lon="12.813492456655394"><ele>171.5</ele><time>2026-04-25T07:28:28.999Z</time></trkpt><trkpt lat="43.95254251210956" lon="12.813668260654554"><ele>171.0</ele><time>2026-04-25T07:28:29.999Z</time></trkpt><trkpt lat="43.95262894970896" lon="12.813842512457635"><ele>171.0</ele><time>2026-04-25T07:28:30.999Z</time></trkpt><trkpt lat="43.95272589949845" lon="12.81402336083555"><ele>171.0</ele><time>2026-04-25T07:28:31.999Z</time></trkpt><trkpt lat="43.95281975005485" lon="12.814199099579705"><ele>171.0</ele><time>2026-04-25T07:28:32.999Z</time></trkpt><trkpt lat="43.95290482589134" lon="12.814388879695993"><ele>166.66666666666666</ele><time>2026-04-25T07:28:33.999Z</time></trkpt><trkpt lat="43.95297591093279" lon="12.814605554540274"><ele>162.33333333333331</ele><time>2026-04-25T07:28:34.999Z</time></trkpt><trkpt lat="43.95303230903336" lon="12.814831232924451"><ele>158.0</ele><time>2026-04-25T07:28:35.999Z</time></trkpt><trkpt lat="43.95308464138242" lon="12.815037802082188"><ele>156.75</ele><time>2026-04-25T07:28:36.999Z</time></trkpt><trkpt lat="43.95313804227852" lon="12.815226046515"><ele>155.5</ele><time>2026-04-25T07:28:37.999Z</time></trkpt><trkpt lat="43.95320703620104" lon="12.81538760889967"><ele>154.25</ele><time>2026-04-25T07:28:38.999Z</time></trkpt><trkpt lat="43.953299499618446" lon="12.815510209569265"><ele>153.0</ele><time>2026-04-25T07:28:39.999Z</time></trkpt><trkpt lat="43.95341112423973" lon="12.815597042580553"><ele>153.0</ele><time>2026-04-25T07:28:40.999Z</time></trkpt><trkpt lat="43.95350632817749" lon="12.815684504968079"><ele>153.0</ele><time>2026-04-25T07:28:41.999Z</time></trkpt><trkpt lat="43.95359738354221" lon="12.815762401967959"><ele>153.0</ele><time>2026-04-25T07:28:42.999Z</time></trkpt><trkpt lat="43.95368812677465" lon="12.815841421691486"><ele>153.0</ele><time>2026-04-25T07:28:43.999Z</time></trkpt><trkpt lat="43.95377093457598" lon="12.815934244713077"><ele>153.0</ele><time>2026-04-25T07:28:44.999Z</time></trkpt><trkpt lat="43.95384045834392" lon="12.8160587414646"><ele>150.6</ele><time>2026-04-25T07:28:45.999Z</time></trkpt><trkpt lat="43.95388781230435" lon="12.816209921651597"><ele>148.20000000000002</ele><time>2026-04-25T07:28:46.999Z</time></trkpt><trkpt lat="43.953930906149694" lon="12.816342624653506"><ele>145.8</ele><time>2026-04-25T07:28:47.999Z</time></trkpt><trkpt lat="43.95394972697294" lon="12.816471711487809"><ele>143.4</ele><time>2026-04-25T07:28:48.999Z</time></trkpt><trkpt lat="43.95397712462049" lon="12.816637917579772"><ele>141.0</ele><time>2026-04-25T07:28:49.999Z</time></trkpt><trkpt lat="43.95400974742401" lon="12.8168172658523"><ele>138.75</ele><time>2026-04-25T07:28:50.999Z</time></trkpt><trkpt lat="43.95404285304174" lon="12.817004608738284"><ele>136.5</ele><time>2026-04-25T07:28:51.999Z</time></trkpt><trkpt lat="43.95407014311167" lon="12.81718518399313"><ele>134.25</ele><time>2026-04-25T07:28:52.999Z</time></trkpt><trkpt lat="43.95407569732062" lon="12.817355338113849"><ele>132.0</ele><time>2026-04-25T07:28:54Z</time></trkpt><trkpt lat="43.95405271177949" lon="12.817535820481073"><ele>128.5</ele><time>2026-04-25T07:28:55Z</time></trkpt><trkpt lat="43.95401555977027" lon="12.817722542280839"><ele>125.0</ele><time>2026-04-25T07:28:56Z</time></trkpt><trkpt lat="43.953971548879956" lon="12.817904784303723"><ele>121.5</ele><time>2026-04-25T07:28:57Z</time></trkpt><trkpt lat="43.95390673694417" lon="12.81805089750919"><ele>118.0</ele><time>2026-04-25T07:28:58Z</time></trkpt><trkpt lat="43.95387002925441" lon="12.818197703447712"><ele>118.0</ele><time>2026-04-25T07:28:59Z</time></trkpt><trkpt lat="43.95379306914708" lon="12.818302342450643"><ele>118.0</ele><time>2026-04-25T07:29:00Z</time></trkpt><trkpt lat="43.95369989529725" lon="12.818396443158958"><ele>118.0</ele><time>2026-04-25T07:29:01Z</time></trkpt><trkpt lat="43.95359400389685" lon="12.81850866864815"><ele>118.0</ele><time>2026-04-25T07:29:02Z</time></trkpt><trkpt lat="43.95347230300483" lon="12.818604892513022"><ele>121.75</ele><time>2026-04-25T07:29:03Z</time></trkpt><trkpt lat="43.95334586856861" lon="12.818706039233506"><ele>125.5</ele><time>2026-04-25T07:29:04Z</time></trkpt><trkpt lat="43.95321790320927" lon="12.818813841468776"><ele>129.25</ele><time>2026-04-25T07:29:05Z</time></trkpt><trkpt lat="43.953098116833374" lon="12.81890448145049"><ele>133.0</ele><time>2026-04-25T07:29:06Z</time></trkpt><trkpt lat="43.952972327566634" lon="12.818951262478645"><ele>133.0</ele><time>2026-04-25T07:29:07Z</time></trkpt><trkpt lat="43.95283728152612" lon="12.818945108455308"><ele>133.0</ele><time>2026-04-25T07:29:08Z</time></trkpt><trkpt lat="43.95270205388323" lon="12.818908570825512"><ele>133.0</ele><time>2026-04-25T07:29:09Z</time></trkpt><trkpt lat="43.95257373418415" lon="12.818839935804986"><ele>133.0</ele><time>2026-04-25T07:29:10Z</time></trkpt><trkpt lat="43.9524578620625" lon="12.818728529015095"><ele>134.75</ele><time>2026-04-25T07:29:11Z</time></trkpt><trkpt lat="43.95235589235088" lon="12.818591896627655"><ele>136.5</ele><time>2026-04-25T07:29:12Z</time></trkpt><trkpt lat="43.95225513619874" lon="12.81844554218935"><ele>138.25</ele><time>2026-04-25T07:29:13Z</time></trkpt><trkpt lat="43.9521560473634" lon="12.818306306941462"><ele>140.0</ele><time>2026-04-25T07:29:14Z</time></trkpt><trkpt lat="43.95207830750393" lon="12.818202444286504"><ele>140.0</ele><time>2026-04-25T07:29:15Z</time></trkpt><trkpt lat="43.95200377393479" lon="12.8181437080783"><ele>140.0</ele><time>2026-04-25T07:29:16Z</time></trkpt><trkpt lat="43.95191966273241" lon="12.818148973598321"><ele>140.0</ele><time>2026-04-25T07:29:17Z</time></trkpt><trkpt lat="43.95185100402884" lon="12.81822365341811"><ele>140.0</ele><time>2026-04-25T07:29:18Z</time></trkpt><trkpt lat="43.951812331215166" lon="12.818351678285124"><ele>140.0</ele><time>2026-04-25T07:29:19Z</time></trkpt><trkpt lat="43.95180051269968" lon="12.818520430380362"><ele>143.75</ele><time>2026-04-25T07:29:20Z</time></trkpt><trkpt lat="43.95180844422408" lon="12.818701104633512"><ele>147.5</ele><time>2026-04-25T07:29:21Z</time></trkpt><trkpt lat="43.95184960420824" lon="12.818877105129257"><ele>151.25</ele><time>2026-04-25T07:29:22Z</time></trkpt><trkpt lat="43.95190851465686" lon="12.819049026581313"><ele>155.0</ele><time>2026-04-25T07:29:23Z</time></trkpt><trkpt lat="43.95197076590522" lon="12.819228476684954"><ele>155.2</ele><time>2026-04-25T07:29:24Z</time></trkpt><trkpt lat="43.95202654880648" lon="12.819404580560468"><ele>155.4</ele><time>2026-04-25T07:29:25Z</time></trkpt><trkpt lat="43.952067171545224" lon="12.819554052623621"><ele>155.6</ele><time>2026-04-25T07:29:26Z</time></trkpt><trkpt lat="43.95209976948798" lon="12.819681654602897"><ele>155.8</ele><time>2026-04-25T07:29:27Z</time></trkpt><trkpt lat="43.952111800490876" lon="12.819805454533274"><ele>156.0</ele><time>2026-04-25T07:29:28Z</time></trkpt><trkpt lat="43.952086088344444" lon="12.819931955660376"><ele>156.0</ele><time>2026-04-25T07:29:29Z</time></trkpt><trkpt lat="43.952029161116386" lon="12.820044744828552"><ele>156.0</ele><time>2026-04-25T07:29:30Z</time></trkpt><trkpt lat="43.95195438267457" lon="12.820140565742332"><ele>156.0</ele><time>2026-04-25T07:29:31Z</time></trkpt><trkpt lat="43.95186563954414" lon="12.820212713054092"><ele>156.0</ele><time>2026-04-25T07:29:32Z</time></trkpt><trkpt lat="43.9517725731114" lon="12.820276708134221"><ele>156.0</ele><time>2026-04-25T07:29:33Z</time></trkpt><trkpt lat="43.951679470042976" lon="12.820341129729087"><ele>158.6</ele><time>2026-04-25T07:29:34Z</time></trkpt><trkpt lat="43.951590872328296" lon="12.82042134781619"><ele>161.2</ele><time>2026-04-25T07:29:35Z</time></trkpt><trkpt lat="43.95150330562706" lon="12.820515742022778"><ele>163.79999999999998</ele><time>2026-04-25T07:29:36Z</time></trkpt><trkpt lat="43.951415116546535" lon="12.820613370190122"><ele>166.39999999999998</ele><time>2026-04-25T07:29:36.999Z</time></trkpt><trkpt lat="43.95132721148878" lon="12.820713181312222"><ele>169.0</ele><time>2026-04-25T07:29:37.999Z</time></trkpt><trkpt lat="43.95124928967714" lon="12.82081225404719"><ele>169.0</ele><time>2026-04-25T07:29:38.999Z</time></trkpt><trkpt lat="43.95118144527457" lon="12.820918035889793"><ele>169.0</ele><time>2026-04-25T07:29:39.999Z</time></trkpt><trkpt lat="43.9511286355216" lon="12.821031569124079"><ele>169.0</ele><time>2026-04-25T07:29:40.999Z</time></trkpt><trkpt lat="43.95107970565378" lon="12.821146005848714"><ele>169.0</ele><time>2026-04-25T07:29:41.999Z</time></trkpt><trkpt lat="43.951050622074355" lon="12.821253717016072"><ele>169.0</ele><time>2026-04-25T07:29:42.999Z</time></trkpt><trkpt lat="43.95102720856285" lon="12.821361119664912"><ele>168.83333333333334</ele><time>2026-04-25T07:29:43.999Z</time></trkpt><trkpt lat="43.951011928708546" lon="12.821462610089819"><ele>168.66666666666669</ele><time>2026-04-25T07:29:44.999Z</time></trkpt><trkpt lat="43.950991947284905" lon="12.821556586201712"><ele>168.5</ele><time>2026-04-25T07:29:45.999Z</time></trkpt><trkpt lat="43.9509733411957" lon="12.821716375046362"><ele>168.33333333333334</ele><time>2026-04-25T07:29:47.999Z</time></trkpt><trkpt lat="43.95098751544691" lon="12.821838810281463"><ele>168.16666666666666</ele><time>2026-04-25T07:29:49.999Z</time></trkpt><trkpt lat="43.95100026151949" lon="12.821942945088306"><ele>168.0</ele><time>2026-04-25T07:29:51.999Z</time></trkpt><trkpt lat="43.950999421660256" lon="12.822042547040809"><ele>167.2</ele><time>2026-04-25T07:29:53.999Z</time></trkpt><trkpt lat="43.950935642116974" lon="12.822143240401674"><ele>166.4</ele><time>2026-04-25T07:29:55.999Z</time></trkpt><trkpt lat="43.95084914957024" lon="12.822240611955216"><ele>165.6</ele><time>2026-04-25T07:29:57.999Z</time></trkpt><trkpt lat="43.95075393187119" lon="12.822346586637016"><ele>164.79999999999998</ele><time>2026-04-25T07:29:59.999Z</time></trkpt><trkpt lat="43.95067007381708" lon="12.822443068721562"><ele>164.0</ele><time>2026-04-25T07:30:01.999Z</time></trkpt><trkpt lat="43.95057194363591" lon="12.822469983038014"><ele>164.0</ele><time>2026-04-25T07:30:03.999Z</time></trkpt><trkpt lat="43.95045157865315" lon="12.82242242884019"><ele>164.0</ele><time>2026-04-25T07:30:05.999Z</time></trkpt><trkpt lat="43.95037473354182" lon="12.822405559820364"><ele>164.0</ele><time>2026-04-25T07:30:06.999Z</time></trkpt><trkpt lat="43.950292341213746" lon="12.82238631474362"><ele>164.0</ele><time>2026-04-25T07:30:07.999Z</time></trkpt><trkpt lat="43.950205749352754" lon="12.822363454557705"><ele>164.0</ele><time>2026-04-25T07:30:08.999Z</time></trkpt><trkpt lat="43.95011343175972" lon="12.822332197904721"><ele>165.0</ele><time>2026-04-25T07:30:09.999Z</time></trkpt><trkpt lat="43.95001825134209" lon="12.822303523474444"><ele>166.0</ele><time>2026-04-25T07:30:10.999Z</time></trkpt><trkpt lat="43.94992153378799" lon="12.822281234749147"><ele>167.0</ele><time>2026-04-25T07:30:11.999Z</time></trkpt><trkpt lat="43.949820171593096" lon="12.822257304647646"><ele>168.0</ele><time>2026-04-25T07:30:12.999Z</time></trkpt><trkpt lat="43.94972725906186" lon="12.822234547663307"><ele>169.0</ele><time>2026-04-25T07:30:13.999Z</time></trkpt><trkpt lat="43.94964400663231" lon="12.822195133087776"><ele>169.0</ele><time>2026-04-25T07:30:14.999Z</time></trkpt><trkpt lat="43.94955611384386" lon="12.822167961634204"><ele>169.0</ele><time>2026-04-25T07:30:15.999Z</time></trkpt><trkpt lat="43.949466352316264" lon="12.822143568552011"><ele>169.0</ele><time>2026-04-25T07:30:16.999Z</time></trkpt><trkpt lat="43.94937220197953" lon="12.822120627459913"><ele>169.0</ele><time>2026-04-25T07:30:17.999Z</time></trkpt><trkpt lat="43.94928946274918" lon="12.822097573193336"><ele>169.0</ele><time>2026-04-25T07:30:18.999Z</time></trkpt><trkpt lat="43.94921809414281" lon="12.82209352292567"><ele>169.0</ele><time>2026-04-25T07:30:19.999Z</time></trkpt><trkpt lat="43.94913691620588" lon="12.822138822340492"><ele>169.39999999999998</ele><time>2026-04-25T07:30:20.999Z</time></trkpt><trkpt lat="43.94907284133738" lon="12.822205102103554"><ele>169.8</ele><time>2026-04-25T07:30:21.999Z</time></trkpt><trkpt lat="43.94903152806115" lon="12.82231295977442"><ele>170.2</ele><time>2026-04-25T07:30:22.999Z</time></trkpt><trkpt lat="43.9489705918961" lon="12.822449009770246"><ele>170.60000000000002</ele><time>2026-04-25T07:30:23.999Z</time></trkpt><trkpt lat="43.94891707618076" lon="12.822591120839112"><ele>171.0</ele><time>2026-04-25T07:30:24.999Z</time></trkpt><trkpt lat="43.94887709047892" lon="12.822723742199486"><ele>171.0</ele><time>2026-04-25T07:30:25.999Z</time></trkpt><trkpt lat="43.94885019252997" lon="12.822851043410694"><ele>171.0</ele><time>2026-04-25T07:30:26.999Z</time></trkpt><trkpt lat="43.94883374552174" lon="12.82298339627829"><ele>171.0</ele><time>2026-04-25T07:30:27.999Z</time></trkpt><trkpt lat="43.948813015151245" lon="12.823115985839165"><ele>171.0</ele><time>2026-04-25T07:30:28.999Z</time></trkpt><trkpt lat="43.948789006831596" lon="12.823248404746039"><ele>171.0</ele><time>2026-04-25T07:30:29.999Z</time></trkpt><trkpt lat="43.94876251818803" lon="12.823378200737455"><ele>169.60000000000002</ele><time>2026-04-25T07:30:30.999Z</time></trkpt><trkpt lat="43.94872729817804" lon="12.823501108855275"><ele>168.2</ele><time>2026-04-25T07:30:31.999Z</time></trkpt><trkpt lat="43.94869003987102" lon="12.823617980891987"><ele>166.8</ele><time>2026-04-25T07:30:32.999Z</time></trkpt><trkpt lat="43.94863511413721" lon="12.823723048764638"><ele>165.39999999999998</ele><time>2026-04-25T07:30:33.999Z</time></trkpt><trkpt lat="43.948550719781586" lon="12.823800522391325"><ele>164.0</ele><time>2026-04-25T07:30:34.999Z</time></trkpt><trkpt lat="43.94844674215934" lon="12.823849343142202"><ele>167.0</ele><time>2026-04-25T07:30:35.999Z</time></trkpt><trkpt lat="43.94833475890818" lon="12.823881610417844"><ele>170.0</ele><time>2026-04-25T07:30:36.999Z</time></trkpt><trkpt lat="43.948221068104345" lon="12.82389143798538"><ele>173.0</ele><time>2026-04-25T07:30:37.999Z</time></trkpt><trkpt lat="43.948101721970225" lon="12.823861997987054"><ele>176.0</ele><time>2026-04-25T07:30:38.999Z</time></trkpt><trkpt lat="43.94798126441318" lon="12.823841573571565"><ele>176.0</ele><time>2026-04-25T07:30:39.999Z</time></trkpt><trkpt lat="43.94785445417671" lon="12.823821089818136"><ele>176.0</ele><time>2026-04-25T07:30:40.999Z</time></trkpt><trkpt lat="43.94772614348201" lon="12.823799336314508"><ele>176.0</ele><time>2026-04-25T07:30:41.999Z</time></trkpt><trkpt lat="43.94759548611558" lon="12.823765807712077"><ele>176.0</ele><time>2026-04-25T07:30:42.999Z</time></trkpt><trkpt lat="43.947475353119025" lon="12.823736112705515"><ele>175.60000000000002</ele><time>2026-04-25T07:30:43.999Z</time></trkpt><trkpt lat="43.94737323382908" lon="12.82370573967332"><ele>175.2</ele><time>2026-04-25T07:30:44.999Z</time></trkpt><trkpt lat="43.94728024314552" lon="12.823680984396944"><ele>174.8</ele><time>2026-04-25T07:30:45.999Z</time></trkpt><trkpt lat="43.94718420303512" lon="12.823663735387441"><ele>174.39999999999998</ele><time>2026-04-25T07:30:46.999Z</time></trkpt><trkpt lat="43.94709315846987" lon="12.823668851913013"><ele>174.0</ele><time>2026-04-25T07:30:47.999Z</time></trkpt><trkpt lat="43.947003217121946" lon="12.823689114160507"><ele>174.0</ele><time>2026-04-25T07:30:48.999Z</time></trkpt><trkpt lat="43.946909738316755" lon="12.823718316696619"><ele>174.0</ele><time>2026-04-25T07:30:49.999Z</time></trkpt><trkpt lat="43.9468069573355" lon="12.8237351213018"><ele>174.0</ele><time>2026-04-25T07:30:50.999Z</time></trkpt><trkpt lat="43.9467038841589" lon="12.823736685894577"><ele>174.0</ele><time>2026-04-25T07:30:51.999Z</time></trkpt><trkpt lat="43.94659973763912" lon="12.823731641777396"><ele>174.0</ele><time>2026-04-25T07:30:52.999Z</time></trkpt><trkpt lat="43.94649089098154" lon="12.823710003249236"><ele>172.39999999999998</ele><time>2026-04-25T07:30:53.998Z</time></trkpt><trkpt lat="43.94638171613252" lon="12.823680827012648"><ele>170.8</ele><time>2026-04-25T07:30:54.998Z</time></trkpt><trkpt lat="43.946276000293835" lon="12.823644146862504"><ele>169.2</ele><time>2026-04-25T07:30:55.998Z</time></trkpt><trkpt lat="43.946172012385624" lon="12.823605406888415"><ele>167.60000000000002</ele><time>2026-04-25T07:30:56.998Z</time></trkpt><trkpt lat="43.94606997636804" lon="12.82357004263189"><ele>166.0</ele><time>2026-04-25T07:30:57.998Z</time></trkpt><trkpt lat="43.945964865554366" lon="12.823546442298392"><ele>163.0</ele><time>2026-04-25T07:30:58.998Z</time></trkpt><trkpt lat="43.94586069904725" lon="12.823530034255713"><ele>160.0</ele><time>2026-04-25T07:31:00Z</time></trkpt><trkpt lat="43.945756459016934" lon="12.823526338153286"><ele>157.0</ele><time>2026-04-25T07:31:01Z</time></trkpt><trkpt lat="43.94564590002837" lon="12.823532798471275"><ele>154.0</ele><time>2026-04-25T07:31:02Z</time></trkpt><trkpt lat="43.94553193760302" lon="12.823560090519983"><ele>151.0</ele><time>2026-04-25T07:31:03Z</time></trkpt><trkpt lat="43.94541954892289" lon="12.823605581413055"><ele>151.0</ele><time>2026-04-25T07:31:04Z</time></trkpt><trkpt lat="43.94530567766462" lon="12.823659166190549"><ele>151.0</ele><time>2026-04-25T07:31:05Z</time></trkpt><trkpt lat="43.945191930306294" lon="12.823710735729819"><ele>151.0</ele><time>2026-04-25T07:31:06Z</time></trkpt><trkpt lat="43.94507932844008" lon="12.823753963516996"><ele>151.0</ele><time>2026-04-25T07:31:07Z</time></trkpt><trkpt lat="43.944974821294785" lon="12.82378917834192"><ele>148.4</ele><time>2026-04-25T07:31:08Z</time></trkpt><trkpt lat="43.94487211814851" lon="12.823810430273806"><ele>145.8</ele><time>2026-04-25T07:31:09Z</time></trkpt><trkpt lat="43.94476856862936" lon="12.823793470869392"><ele>143.20000000000002</ele><time>2026-04-25T07:31:10Z</time></trkpt><trkpt lat="43.94467627214845" lon="12.823705815720182"><ele>140.6</ele><time>2026-04-25T07:31:11Z</time></trkpt><trkpt lat="43.94457044515595" lon="12.823626736715227"><ele>138.0</ele><time>2026-04-25T07:31:12Z</time></trkpt><trkpt lat="43.94445264789279" lon="12.823572652237031"><ele>138.0</ele><time>2026-04-25T07:31:13Z</time></trkpt><trkpt lat="43.94433387745302" lon="12.823505919186026"><ele>138.0</ele><time>2026-04-25T07:31:14Z</time></trkpt><trkpt lat="43.94420811779963" lon="12.823439386276144"><ele>138.0</ele><time>2026-04-25T07:31:15Z</time></trkpt><trkpt lat="43.94408374470753" lon="12.82337008375359"><ele>138.0</ele><time>2026-04-25T07:31:16Z</time></trkpt><trkpt lat="43.94396298563438" lon="12.82329831121211"><ele>137.4</ele><time>2026-04-25T07:31:17Z</time></trkpt><trkpt lat="43.943854672629705" lon="12.823226691457243"><ele>136.8</ele><time>2026-04-25T07:31:18Z</time></trkpt><trkpt lat="43.94375649051536" lon="12.8231627162342"><ele>136.2</ele><time>2026-04-25T07:31:19Z</time></trkpt><trkpt lat="43.943658437759034" lon="12.82310094918883"><ele>135.6</ele><time>2026-04-25T07:31:20Z</time></trkpt><trkpt lat="43.94357274718174" lon="12.823043925337918"><ele>135.0</ele><time>2026-04-25T07:31:21Z</time></trkpt><trkpt lat="43.94348553171118" lon="12.822997341241603"><ele>135.0</ele><time>2026-04-25T07:31:22Z</time></trkpt><trkpt lat="43.943395102487884" lon="12.822965506440106"><ele>135.0</ele><time>2026-04-25T07:31:23Z</time></trkpt><trkpt lat="43.94331045017854" lon="12.822960657828439"><ele>135.0</ele><time>2026-04-25T07:31:24Z</time></trkpt><trkpt lat="43.943236707915325" lon="12.82298608971107"><ele>135.0</ele><time>2026-04-25T07:31:25Z</time></trkpt><trkpt lat="43.94318483763222" lon="12.823052134788393"><ele>135.0</ele><time>2026-04-25T07:31:26Z</time></trkpt><trkpt lat="43.94316654256099" lon="12.823145123620193"><ele>135.0</ele><time>2026-04-25T07:31:27Z</time></trkpt><trkpt lat="43.94316933073986" lon="12.823254228228953"><ele>133.4</ele><time>2026-04-25T07:31:28Z</time></trkpt><trkpt lat="43.94319572347624" lon="12.823366316972647"><ele>131.8</ele><time>2026-04-25T07:31:29Z</time></trkpt><trkpt lat="43.94326134131916" lon="12.8234701945232"><ele>130.2</ele><time>2026-04-25T07:31:30Z</time></trkpt><trkpt lat="43.943319764234" lon="12.823590113991315"><ele>128.6</ele><time>2026-04-25T07:31:31Z</time></trkpt><trkpt lat="43.943382230082854" lon="12.823721994771597"><ele>127.0</ele><time>2026-04-25T07:31:32Z</time></trkpt><trkpt lat="43.94344961880272" lon="12.82385217006635"><ele>127.0</ele><time>2026-04-25T07:31:33Z</time></trkpt><trkpt lat="43.943513884383954" lon="12.823979549454553"><ele>126.99999999999999</ele><time>2026-04-25T07:31:34Z</time></trkpt><trkpt lat="43.94356885802279" lon="12.824105063712006"><ele>126.99999999999999</ele><time>2026-04-25T07:31:35Z</time></trkpt><trkpt lat="43.943620048835975" lon="12.824224580163296"><ele>127.0</ele><time>2026-04-25T07:31:36Z</time></trkpt><trkpt lat="43.943666161770054" lon="12.82434021700749"><ele>127.0</ele><time>2026-04-25T07:31:37Z</time></trkpt><trkpt lat="43.94371409470781" lon="12.824429558920823"><ele>125.50000000000001</ele><time>2026-04-25T07:31:38Z</time></trkpt><trkpt lat="43.94372275331248" lon="12.824552835083473"><ele>124.0</ele><time>2026-04-25T07:31:39Z</time></trkpt><trkpt lat="43.943671693330096" lon="12.824638787024352"><ele>122.5</ele><time>2026-04-25T07:31:40Z</time></trkpt><trkpt lat="43.94361377368739" lon="12.82469116571626"><ele>121.0</ele><time>2026-04-25T07:31:41Z</time></trkpt><trkpt lat="43.943538370424605" lon="12.824704522989963"><ele>119.50000000000001</ele><time>2026-04-25T07:31:42Z</time></trkpt><trkpt lat="43.94345198821332" lon="12.824675803674122"><ele>118.0</ele><time>2026-04-25T07:31:43Z</time></trkpt><trkpt lat="43.943366081488634" lon="12.82461238248099"><ele>117.5</ele><time>2026-04-25T07:31:44Z</time></trkpt><trkpt lat="43.94328659266886" lon="12.824509710937797"><ele>117.0</ele><time>2026-04-25T07:31:45Z</time></trkpt><trkpt lat="43.94321159378241" lon="12.824389033465431"><ele>116.5</ele><time>2026-04-25T07:31:46Z</time></trkpt><trkpt lat="43.94313839353698" lon="12.824266888555206"><ele>116.0</ele><time>2026-04-25T07:31:46.999Z</time></trkpt><trkpt lat="43.943087215436265" lon="12.824113952790947"><ele>116.0</ele><time>2026-04-25T07:31:47.999Z</time></trkpt><trkpt lat="43.94302084217839" lon="12.82396871889728"><ele>116.0</ele><time>2026-04-25T07:31:48.999Z</time></trkpt><trkpt lat="43.942968116288995" lon="12.82381427060282"><ele>116.0</ele><time>2026-04-25T07:31:49.999Z</time></trkpt><trkpt lat="43.94291565115755" lon="12.823647522272683"><ele>116.0</ele><time>2026-04-25T07:31:50.999Z</time></trkpt><trkpt lat="43.942897037298756" lon="12.823463423659666"><ele>117.75</ele><time>2026-04-25T07:31:51.999Z</time></trkpt><trkpt lat="43.942892003055384" lon="12.823275963050387"><ele>119.5</ele><time>2026-04-25T07:31:52.999Z</time></trkpt><trkpt lat="43.942900851950704" lon="12.823096222054001"><ele>121.25</ele><time>2026-04-25T07:31:53.999Z</time></trkpt><trkpt lat="43.942921885078825" lon="12.822923854260448"><ele>123.0</ele><time>2026-04-25T07:31:54.999Z</time></trkpt><trkpt lat="43.942952679904785" lon="12.822765351816821"><ele>123.0</ele><time>2026-04-25T07:31:55.999Z</time></trkpt><trkpt lat="43.942992804219806" lon="12.822621389765244"><ele>123.00000000000001</ele><time>2026-04-25T07:31:56.999Z</time></trkpt><trkpt lat="43.943038860793" lon="12.822492489074172"><ele>123.00000000000001</ele><time>2026-04-25T07:31:57.999Z</time></trkpt><trkpt lat="43.94310387459994" lon="12.822393758487612"><ele>123.0</ele><time>2026-04-25T07:31:58.999Z</time></trkpt><trkpt lat="43.94313787862801" lon="12.822291242531305"><ele>123.0</ele><time>2026-04-25T07:31:59.999Z</time></trkpt><trkpt lat="43.94318931954112" lon="12.822229382157772"><ele>123.0</ele><time>2026-04-25T07:32:00.999Z</time></trkpt><trkpt lat="43.943236241817765" lon="12.82214745175639"><ele>123.00000000000001</ele><time>2026-04-25T07:32:02.999Z</time></trkpt><trkpt lat="43.943078706580536" lon="12.82201315250519"><ele>123.00000000000001</ele><time>2026-04-25T07:32:04.999Z</time></trkpt><trkpt lat="43.94300690932161" lon="12.82201144090251"><ele>123.0</ele><time>2026-04-25T07:32:05.999Z</time></trkpt><trkpt lat="43.94292739290168" lon="12.821998222289826"><ele>123.0</ele><time>2026-04-25T07:32:06.999Z</time></trkpt><trkpt lat="43.94283540676849" lon="12.822076349606947"><ele>123.0</ele><time>2026-04-25T07:32:07.999Z</time></trkpt><trkpt lat="43.94274054431503" lon="12.822146717306872"><ele>123.00000000000001</ele><time>2026-04-25T07:32:08.999Z</time></trkpt><trkpt lat="43.94264027993023" lon="12.822229403679064"><ele>123.00000000000001</ele><time>2026-04-25T07:32:09.999Z</time></trkpt><trkpt lat="43.942545732278525" lon="12.822310000879975"><ele>123.0</ele><time>2026-04-25T07:32:10.999Z</time></trkpt><trkpt lat="43.94246282231905" lon="12.822374311880502"><ele>123.0</ele><time>2026-04-25T07:32:11.999Z</time></trkpt><trkpt lat="43.94237517438" lon="12.822427707430355"><ele>123.4</ele><time>2026-04-25T07:32:12.999Z</time></trkpt><trkpt lat="43.94228647800865" lon="12.822466619103215"><ele>123.80000000000001</ele><time>2026-04-25T07:32:13.999Z</time></trkpt><trkpt lat="43.94219580975743" lon="12.822498845614733"><ele>124.2</ele><time>2026-04-25T07:32:14.999Z</time></trkpt><trkpt lat="43.94210327415344" lon="12.822502756781493"><ele>124.6</ele><time>2026-04-25T07:32:15.999Z</time></trkpt><trkpt lat="43.94200979995587" lon="12.822474885142823"><ele>125.0</ele><time>2026-04-25T07:32:16.999Z</time></trkpt><trkpt lat="43.94193076331303" lon="12.82240174857989"><ele>125.0</ele><time>2026-04-25T07:32:17.999Z</time></trkpt><trkpt lat="43.94185995824658" lon="12.822326292183948"><ele>125.0</ele><time>2026-04-25T07:32:18.999Z</time></trkpt><trkpt lat="43.94179791142255" lon="12.822233447760837"><ele>125.0</ele><time>2026-04-25T07:32:19.999Z</time></trkpt><trkpt lat="43.94178883154373" lon="12.822096988739258"><ele>125.0</ele><time>2026-04-25T07:32:20.999Z</time></trkpt><trkpt lat="43.94177918067609" lon="12.821959116941189"><ele>125.0</ele><time>2026-04-25T07:32:21.999Z</time></trkpt><trkpt lat="43.94177700610938" lon="12.82180954812686"><ele>123.25</ele><time>2026-04-25T07:32:22.999Z</time></trkpt><trkpt lat="43.94176632008064" lon="12.82165601341057"><ele>121.5</ele><time>2026-04-25T07:32:23.999Z</time></trkpt><trkpt lat="43.94178371960471" lon="12.821500763536001"><ele>119.75</ele><time>2026-04-25T07:32:24.999Z</time></trkpt><trkpt lat="43.941812204656856" lon="12.821347401344426"><ele>118.0</ele><time>2026-04-25T07:32:25.999Z</time></trkpt><trkpt lat="43.94183010594727" lon="12.82119361881293"><ele>118.0</ele><time>2026-04-25T07:32:26.999Z</time></trkpt><trkpt lat="43.941851417888806" lon="12.821048184598402"><ele>118.0</ele><time>2026-04-25T07:32:27.999Z</time></trkpt><trkpt lat="43.94185838378727" lon="12.82087991769857"><ele>118.0</ele><time>2026-04-25T07:32:28.999Z</time></trkpt><trkpt lat="43.94186513733662" lon="12.82071467542791"><ele>118.0</ele><time>2026-04-25T07:32:29.999Z</time></trkpt><trkpt lat="43.94186948501587" lon="12.820544572314672"><ele>118.5</ele><time>2026-04-25T07:32:30.999Z</time></trkpt><trkpt lat="43.9418664710233" lon="12.820370234817833"><ele>119.0</ele><time>2026-04-25T07:32:31.999Z</time></trkpt><trkpt lat="43.941858230577644" lon="12.82020426578979"><ele>119.5</ele><time>2026-04-25T07:32:32.999Z</time></trkpt><trkpt lat="43.94184848677717" lon="12.820043938441952"><ele>120.0</ele><time>2026-04-25T07:32:33.999Z</time></trkpt><trkpt lat="43.94187815428852" lon="12.81988336706762"><ele>120.75</ele><time>2026-04-25T07:32:34.999Z</time></trkpt><trkpt lat="43.94190586136726" lon="12.819719557042626"><ele>121.5</ele><time>2026-04-25T07:32:35.999Z</time></trkpt><trkpt lat="43.94194275468015" lon="12.819562431168672"><ele>122.25</ele><time>2026-04-25T07:32:36.999Z</time></trkpt><trkpt lat="43.94196835736763" lon="12.819405678077132"><ele>123.0</ele><time>2026-04-25T07:32:37.999Z</time></trkpt><trkpt lat="43.94198418691918" lon="12.81925498126388"><ele>124.60000000000001</ele><time>2026-04-25T07:32:38.999Z</time></trkpt><trkpt lat="43.94197934276613" lon="12.819121685905573"><ele>126.20000000000002</ele><time>2026-04-25T07:32:39.999Z</time></trkpt><trkpt lat="43.94194164224331" lon="12.818998572985853"><ele>127.8</ele><time>2026-04-25T07:32:40.999Z</time></trkpt><trkpt lat="43.94186913560147" lon="12.818878069866214"><ele>129.4</ele><time>2026-04-25T07:32:41.999Z</time></trkpt><trkpt lat="43.941790992631795" lon="12.818738560315879"><ele>131.0</ele><time>2026-04-25T07:32:42.999Z</time></trkpt><trkpt lat="43.94171847969299" lon="12.818620121556435"><ele>135.8</ele><time>2026-04-25T07:32:43.999Z</time></trkpt><trkpt lat="43.9416546067591" lon="12.818513409712681"><ele>140.6</ele><time>2026-04-25T07:32:44.999Z</time></trkpt><trkpt lat="43.94159862309801" lon="12.818417163152084"><ele>145.4</ele><time>2026-04-25T07:32:45.999Z</time></trkpt><trkpt lat="43.941541283803694" lon="12.818321992670752"><ele>150.2</ele><time>2026-04-25T07:32:46.999Z</time></trkpt><trkpt lat="43.94149711874643" lon="12.818197750545863"><ele>155.0</ele><time>2026-04-25T07:32:47.999Z</time></trkpt><trkpt lat="43.941445169019424" lon="12.81806346585822"><ele>155.75</ele><time>2026-04-25T07:32:48.999Z</time></trkpt><trkpt lat="43.941413213239464" lon="12.81791310556514"><ele>156.5</ele><time>2026-04-25T07:32:49.999Z</time></trkpt><trkpt lat="43.941378670439065" lon="12.817758677755844"><ele>157.25</ele><time>2026-04-25T07:32:50.999Z</time></trkpt><trkpt lat="43.94134728392079" lon="12.817596864415242"><ele>158.0</ele><time>2026-04-25T07:32:51.999Z</time></trkpt><trkpt lat="43.94131013765057" lon="12.817429156649673"><ele>156.20000000000002</ele><time>2026-04-25T07:32:52.999Z</time></trkpt><trkpt lat="43.94127043637422" lon="12.817288302671201"><ele>154.4</ele><time>2026-04-25T07:32:53.999Z</time></trkpt><trkpt lat="43.94121901947446" lon="12.81716334805087"><ele>152.60000000000002</ele><time>2026-04-25T07:32:54.999Z</time></trkpt><trkpt lat="43.941169407483514" lon="12.817054404629559"><ele>150.8</ele><time>2026-04-25T07:32:55.999Z</time></trkpt><trkpt lat="43.941117990263315" lon="12.816946870848609"><ele>149.0</ele><time>2026-04-25T07:32:56.999Z</time></trkpt><trkpt lat="43.94105336772638" lon="12.816850856295105"><ele>150.5</ele><time>2026-04-25T07:32:57.999Z</time></trkpt><trkpt lat="43.94100782041452" lon="12.816748470533394"><ele>152.0</ele><time>2026-04-25T07:32:58.999Z</time></trkpt><trkpt lat="43.94095166622819" lon="12.816649078054045"><ele>153.5</ele><time>2026-04-25T07:32:59.999Z</time></trkpt><trkpt lat="43.940897850309064" lon="12.816554170262027"><ele>155.0</ele><time>2026-04-25T07:33:00.999Z</time></trkpt><trkpt lat="43.94084185783263" lon="12.816469933509348"><ele>156.5</ele><time>2026-04-25T07:33:01.999Z</time></trkpt><trkpt lat="43.94077854657101" lon="12.816381158295604"><ele>158.0</ele><time>2026-04-25T07:33:02.999Z</time></trkpt><trkpt lat="43.94073286402598" lon="12.81629508066369"><ele>158.0</ele><time>2026-04-25T07:33:03.999Z</time></trkpt><trkpt lat="43.94067733038655" lon="12.816208858750807"><ele>158.0</ele><time>2026-04-25T07:33:04.998Z</time></trkpt><trkpt lat="43.94061294089379" lon="12.816140171329366"><ele>158.0</ele><time>2026-04-25T07:33:06Z</time></trkpt><trkpt lat="43.94055840937942" lon="12.816042491967854"><ele>158.0</ele><time>2026-04-25T07:33:07Z</time></trkpt><trkpt lat="43.94052351873925" lon="12.815931585857234"><ele>158.0</ele><time>2026-04-25T07:33:08Z</time></trkpt><trkpt lat="43.94048762358962" lon="12.815839155617526"><ele>158.0</ele><time>2026-04-25T07:33:09Z</time></trkpt><trkpt lat="43.94044741904521" lon="12.815739929190272"><ele>156.33333333333331</ele><time>2026-04-25T07:33:10Z</time></trkpt><trkpt lat="43.94041135360181" lon="12.815640272653978"><ele>154.66666666666666</ele><time>2026-04-25T07:33:11Z</time></trkpt><trkpt lat="43.940368933593255" lon="12.815547783037438"><ele>153.0</ele><time>2026-04-25T07:33:12Z</time></trkpt><trkpt lat="43.940314694885664" lon="12.815468586341147"><ele>151.33333333333334</ele><time>2026-04-25T07:33:13Z</time></trkpt><trkpt lat="43.940262093067" lon="12.815380967233054"><ele>149.66666666666669</ele><time>2026-04-25T07:33:14Z</time></trkpt><trkpt lat="43.940206270030096" lon="12.815286311197658"><ele>148.0</ele><time>2026-04-25T07:33:15Z</time></trkpt><trkpt lat="43.94014449291796" lon="12.81520329829748"><ele>148.20000000000002</ele><time>2026-04-25T07:33:16Z</time></trkpt><trkpt lat="43.940071186909755" lon="12.815111693495869"><ele>148.4</ele><time>2026-04-25T07:33:17Z</time></trkpt><trkpt lat="43.939995988555154" lon="12.815016892050016"><ele>148.60000000000002</ele><time>2026-04-25T07:33:18Z</time></trkpt><trkpt lat="43.93992131905994" lon="12.814919187034452"><ele>148.8</ele><time>2026-04-25T07:33:19Z</time></trkpt><trkpt lat="43.9398501942411" lon="12.814823672715503"><ele>149.0</ele><time>2026-04-25T07:33:20Z</time></trkpt><trkpt lat="43.9397788493512" lon="12.81472471077174"><ele>149.0</ele><time>2026-04-25T07:33:21Z</time></trkpt><trkpt lat="43.939707213911205" lon="12.81463301602919"><ele>149.0</ele><time>2026-04-25T07:33:22Z</time></trkpt><trkpt lat="43.939635642089804" lon="12.814540668510867"><ele>149.0</ele><time>2026-04-25T07:33:23Z</time></trkpt><trkpt lat="43.939563749503094" lon="12.814459312515227"><ele>149.0</ele><time>2026-04-25T07:33:24Z</time></trkpt><trkpt lat="43.93950030165148" lon="12.814387882303489"><ele>149.0</ele><time>2026-04-25T07:33:25Z</time></trkpt><trkpt lat="43.939435230045625" lon="12.81434166485081"><ele>149.0</ele><time>2026-04-25T07:33:26Z</time></trkpt><trkpt lat="43.93937813504005" lon="12.814276773662959"><ele>148.5</ele><time>2026-04-25T07:33:27Z</time></trkpt><trkpt lat="43.939318888920425" lon="12.814245484767282"><ele>148.0</ele><time>2026-04-25T07:33:28Z</time></trkpt><trkpt lat="43.939250654859514" lon="12.814245491702945"><ele>147.5</ele><time>2026-04-25T07:33:29Z</time></trkpt><trkpt lat="43.9391867311347" lon="12.814242984777533"><ele>147.0</ele><time>2026-04-25T07:33:30Z</time></trkpt><trkpt lat="43.93910669133253" lon="12.814239845816578"><ele>146.5</ele><time>2026-04-25T07:33:31Z</time></trkpt><trkpt lat="43.939014165063185" lon="12.814329059044045"><ele>146.0</ele><time>2026-04-25T07:33:32Z</time></trkpt><trkpt lat="43.93890722015036" lon="12.814332872831024"><ele>144.6</ele><time>2026-04-25T07:33:33Z</time></trkpt><trkpt lat="43.93879873175433" lon="12.814356541745543"><ele>143.2</ele><time>2026-04-25T07:33:34Z</time></trkpt><trkpt lat="43.9386927641322" lon="12.814379040477927"><ele>141.8</ele><time>2026-04-25T07:33:35Z</time></trkpt><trkpt lat="43.938591641084024" lon="12.81441462673421"><ele>140.4</ele><time>2026-04-25T07:33:36Z</time></trkpt><trkpt lat="43.9384854522716" lon="12.814416011711053"><ele>139.0</ele><time>2026-04-25T07:33:37Z</time></trkpt><trkpt lat="43.938376429946" lon="12.814417671517269"><ele>137.4</ele><time>2026-04-25T07:33:38Z</time></trkpt><trkpt lat="43.93826684080678" lon="12.814418759793544"><ele>135.8</ele><time>2026-04-25T07:33:39Z</time></trkpt><trkpt lat="43.938159721547116" lon="12.814418422262236"><ele>134.2</ele><time>2026-04-25T07:33:40Z</time></trkpt><trkpt lat="43.938045180582236" lon="12.81442602236775"><ele>132.6</ele><time>2026-04-25T07:33:41Z</time></trkpt><trkpt lat="43.93792966435713" lon="12.814436960488301"><ele>131.0</ele><time>2026-04-25T07:33:42Z</time></trkpt><trkpt lat="43.93781630583447" lon="12.814453168264311"><ele>131.0</ele><time>2026-04-25T07:33:43Z</time></trkpt><trkpt lat="43.93769559725117" lon="12.814458776416526"><ele>131.0</ele><time>2026-04-25T07:33:44Z</time></trkpt><trkpt lat="43.93758046213763" lon="12.814469186488113"><ele>131.0</ele><time>2026-04-25T07:33:45Z</time></trkpt><trkpt lat="43.937465905372505" lon="12.814484483028032"><ele>131.0</ele><time>2026-04-25T07:33:46Z</time></trkpt><trkpt lat="43.93734215162677" lon="12.814492603450933"><ele>131.4</ele><time>2026-04-25T07:33:47Z</time></trkpt><trkpt lat="43.93723293145867" lon="12.814503439236345"><ele>131.8</ele><time>2026-04-25T07:33:48Z</time></trkpt><trkpt lat="43.937127607414915" lon="12.814527732558192"><ele>132.20000000000002</ele><time>2026-04-25T07:33:49Z</time></trkpt><trkpt lat="43.93702371270087" lon="12.814538042561935"><ele>132.6</ele><time>2026-04-25T07:33:50Z</time></trkpt><trkpt lat="43.93692117085593" lon="12.814545918780533"><ele>133.0</ele><time>2026-04-25T07:33:51Z</time></trkpt><trkpt lat="43.93680156720675" lon="12.814545317401512"><ele>135.0</ele><time>2026-04-25T07:33:52Z</time></trkpt><trkpt lat="43.936682516466725" lon="12.814548442450773"><ele>137.0</ele><time>2026-04-25T07:33:53Z</time></trkpt><trkpt lat="43.93656301122817" lon="12.81455494139244"><ele>139.0</ele><time>2026-04-25T07:33:54Z</time></trkpt><trkpt lat="43.93644309289348" lon="12.814576878949282"><ele>141.0</ele><time>2026-04-25T07:33:55Z</time></trkpt><trkpt lat="43.9363261485294" lon="12.814613444429625"><ele>141.0</ele><time>2026-04-25T07:33:56Z</time></trkpt><trkpt lat="43.93620557219249" lon="12.814651303509825"><ele>141.0</ele><time>2026-04-25T07:33:57Z</time></trkpt><trkpt lat="43.93608738760149" lon="12.814690031535722"><ele>141.0</ele><time>2026-04-25T07:33:58Z</time></trkpt><trkpt lat="43.93597001452086" lon="12.81473672157758"><ele>141.0</ele><time>2026-04-25T07:33:59Z</time></trkpt><trkpt lat="43.93585456435112" lon="12.814790780724753"><ele>142.75</ele><time>2026-04-25T07:34:00Z</time></trkpt><trkpt lat="43.93574741746" lon="12.814868731256153"><ele>144.5</ele><time>2026-04-25T07:34:01Z</time></trkpt><trkpt lat="43.935649740640876" lon="12.814952950044459"><ele>146.25</ele><time>2026-04-25T07:34:02Z</time></trkpt><trkpt lat="43.93556220283585" lon="12.815041765301654"><ele>148.0</ele><time>2026-04-25T07:34:02.999Z</time></trkpt><trkpt lat="43.93546734553289" lon="12.81512936829192"><ele>145.25</ele><time>2026-04-25T07:34:03.999Z</time></trkpt><trkpt lat="43.935384019592675" lon="12.815238426355922"><ele>142.5</ele><time>2026-04-25T07:34:04.999Z</time></trkpt><trkpt lat="43.935305608954614" lon="12.815350417304847"><ele>139.75</ele><time>2026-04-25T07:34:05.999Z</time></trkpt><trkpt lat="43.935227713600916" lon="12.815469195000805"><ele>137.0</ele><time>2026-04-25T07:34:06.999Z</time></trkpt><trkpt lat="43.935144494739745" lon="12.815569099383655"><ele>140.0</ele><time>2026-04-25T07:34:07.999Z</time></trkpt><trkpt lat="43.935045625980216" lon="12.815651838655343"><ele>143.0</ele><time>2026-04-25T07:34:08.999Z</time></trkpt><trkpt lat="43.93494475184207" lon="12.81572158154401"><ele>146.0</ele><time>2026-04-25T07:34:09.999Z</time></trkpt><trkpt lat="43.93483747956739" lon="12.815777824658252"><ele>149.0</ele><time>2026-04-25T07:34:10.999Z</time></trkpt><trkpt lat="43.93473038333855" lon="12.815804004299647"><ele>149.0</ele><time>2026-04-25T07:34:11.999Z</time></trkpt><trkpt lat="43.93462688448989" lon="12.81583634297721"><ele>149.0</ele><time>2026-04-25T07:34:12.999Z</time></trkpt><trkpt lat="43.93451244913691" lon="12.815845314041301"><ele>149.0</ele><time>2026-04-25T07:34:13.999Z</time></trkpt><trkpt lat="43.93441190967441" lon="12.815857653043576"><ele>149.0</ele><time>2026-04-25T07:34:14.999Z</time></trkpt><trkpt lat="43.9343321281988" lon="12.815812600163241"><ele>149.0</ele><time>2026-04-25T07:34:15.999Z</time></trkpt><trkpt lat="43.9342566689451" lon="12.815804198756531"><ele>148.83333333333331</ele><time>2026-04-25T07:34:16.999Z</time></trkpt><trkpt lat="43.93414915211187" lon="12.815763239856052"><ele>148.66666666666666</ele><time>2026-04-25T07:34:18.999Z</time></trkpt><trkpt lat="43.93408651543538" lon="12.81577643579859"><ele>148.5</ele><time>2026-04-25T07:34:19.999Z</time></trkpt><trkpt lat="43.93401680740056" lon="12.815803727315235"><ele>148.33333333333334</ele><time>2026-04-25T07:34:20.999Z</time></trkpt><trkpt lat="43.93395520561487" lon="12.81585994982167"><ele>148.16666666666669</ele><time>2026-04-25T07:34:21.999Z</time></trkpt><trkpt lat="43.93390248948787" lon="12.815950665139395"><ele>148.0</ele><time>2026-04-25T07:34:22.999Z</time></trkpt><trkpt lat="43.933854465113605" lon="12.816061210588165"><ele>148.0</ele><time>2026-04-25T07:34:23.999Z</time></trkpt><trkpt lat="43.93380397932775" lon="12.816183357375253"><ele>148.0</ele><time>2026-04-25T07:34:24.999Z</time></trkpt><trkpt lat="43.93375459971296" lon="12.816297383115995"><ele>148.0</ele><time>2026-04-25T07:34:25.999Z</time></trkpt><trkpt lat="43.93371062628746" lon="12.816419273306428"><ele>148.0</ele><time>2026-04-25T07:34:26.999Z</time></trkpt><trkpt lat="43.93366599238142" lon="12.816547679184191"><ele>148.0</ele><time>2026-04-25T07:34:27.999Z</time></trkpt><trkpt lat="43.93362482272998" lon="12.816686569548654"><ele>145.25</ele><time>2026-04-25T07:34:28.999Z</time></trkpt><trkpt lat="43.93358226996747" lon="12.81682867061548"><ele>142.5</ele><time>2026-04-25T07:34:29.999Z</time></trkpt><trkpt lat="43.93352308636595" lon="12.816965560044553"><ele>139.75</ele><time>2026-04-25T07:34:30.999Z</time></trkpt><trkpt lat="43.93348124517269" lon="12.817118987461946"><ele>137.0</ele><time>2026-04-25T07:34:31.999Z</time></trkpt><trkpt lat="43.93343394388273" lon="12.817250199922164"><ele>139.33333333333331</ele><time>2026-04-25T07:34:32.999Z</time></trkpt><trkpt lat="43.93338750415722" lon="12.817361571746089"><ele>141.66666666666666</ele><time>2026-04-25T07:34:33.999Z</time></trkpt><trkpt lat="43.933336014811225" lon="12.817458900911468"><ele>144.0</ele><time>2026-04-25T07:34:34.999Z</time></trkpt><trkpt lat="43.93327813456584" lon="12.817532230605202"><ele>146.33333333333334</ele><time>2026-04-25T07:34:35.999Z</time></trkpt><trkpt lat="43.93321401771675" lon="12.817579133324347"><ele>148.66666666666669</ele><time>2026-04-25T07:34:36.999Z</time></trkpt><trkpt lat="43.933135724733404" lon="12.817612261136475"><ele>151.0</ele><time>2026-04-25T07:34:37.999Z</time></trkpt><trkpt lat="43.93305413320909" lon="12.817658072197691"><ele>151.25</ele><time>2026-04-25T07:34:38.999Z</time></trkpt><trkpt lat="43.932967940138695" lon="12.817739828239862"><ele>151.5</ele><time>2026-04-25T07:34:39.999Z</time></trkpt><trkpt lat="43.93288536034735" lon="12.817848032111517"><ele>151.75</ele><time>2026-04-25T07:34:40.999Z</time></trkpt><trkpt lat="43.932797916528" lon="12.81796281875854"><ele>152.0</ele><time>2026-04-25T07:34:41.999Z</time></trkpt><trkpt lat="43.93270797235255" lon="12.818084925398335"><ele>152.0</ele><time>2026-04-25T07:34:42.999Z</time></trkpt><trkpt lat="43.93261151218584" lon="12.818199763539981"><ele>152.0</ele><time>2026-04-25T07:34:43.999Z</time></trkpt><trkpt lat="43.932520215174335" lon="12.818302505875769"><ele>152.0</ele><time>2026-04-25T07:34:44.999Z</time></trkpt><trkpt lat="43.93243809746015" lon="12.818419068840099"><ele>152.0</ele><time>2026-04-25T07:34:45.999Z</time></trkpt><trkpt lat="43.932367682742715" lon="12.81854003610111"><ele>153.0</ele><time>2026-04-25T07:34:46.999Z</time></trkpt><trkpt lat="43.93227886082434" lon="12.818654494232314"><ele>154.0</ele><time>2026-04-25T07:34:47.999Z</time></trkpt><trkpt lat="43.932197862450394" lon="12.818784988246273"><ele>155.0</ele><time>2026-04-25T07:34:48.999Z</time></trkpt><trkpt lat="43.93212072246539" lon="12.81891847325168"><ele>156.0</ele><time>2026-04-25T07:34:49.999Z</time></trkpt><trkpt lat="43.93203448331366" lon="12.819041111862655"><ele>156.0</ele><time>2026-04-25T07:34:50.999Z</time></trkpt><trkpt lat="43.93195250547693" lon="12.819171518439894"><ele>156.0</ele><time>2026-04-25T07:34:51.999Z</time></trkpt><trkpt lat="43.93187861013154" lon="12.819289477947112"><ele>156.0</ele><time>2026-04-25T07:34:52.999Z</time></trkpt><trkpt lat="43.931805523864995" lon="12.819389971356323"><ele>156.0</ele><time>2026-04-25T07:34:53.999Z</time></trkpt><trkpt lat="43.93172652728093" lon="12.819490711759233"><ele>156.0</ele><time>2026-04-25T07:34:54.999Z</time></trkpt><trkpt lat="43.9316370502844" lon="12.81959354138641"><ele>152.75</ele><time>2026-04-25T07:34:55.999Z</time></trkpt><trkpt lat="43.93153758399681" lon="12.819695457199323"><ele>149.5</ele><time>2026-04-25T07:34:56.999Z</time></trkpt><trkpt lat="43.93143028799486" lon="12.819792259752514"><ele>146.25</ele><time>2026-04-25T07:34:57.999Z</time></trkpt><trkpt lat="43.93131781718987" lon="12.819881902118938"><ele>143.0</ele><time>2026-04-25T07:34:58.999Z</time></trkpt><trkpt lat="43.93119791567668" lon="12.819969703386848"><ele>143.0</ele><time>2026-04-25T07:34:59.999Z</time></trkpt><trkpt lat="43.93108593998759" lon="12.820057650791327"><ele>143.0</ele><time>2026-04-25T07:35:00.999Z</time></trkpt><trkpt lat="43.93097884523074" lon="12.820120792741353"><ele>143.0</ele><time>2026-04-25T07:35:01.999Z</time></trkpt><trkpt lat="43.93087267897775" lon="12.820149202563307"><ele>143.0</ele><time>2026-04-25T07:35:02.999Z</time></trkpt><trkpt lat="43.93076131412442" lon="12.8201505464295"><ele>140.0</ele><time>2026-04-25T07:35:03.999Z</time></trkpt><trkpt lat="43.93064778979789" lon="12.820140373186494"><ele>137.0</ele><time>2026-04-25T07:35:04.999Z</time></trkpt><trkpt lat="43.93051900561357" lon="12.820122461333968"><ele>134.0</ele><time>2026-04-25T07:35:05.999Z</time></trkpt><trkpt lat="43.930377073157516" lon="12.820092603789735"><ele>131.0</ele><time>2026-04-25T07:35:06.999Z</time></trkpt><trkpt lat="43.9302549242046" lon="12.820078196354265"><ele>131.0</ele><time>2026-04-25T07:35:07.999Z</time></trkpt><trkpt lat="43.93013008150975" lon="12.82005553400753"><ele>131.0</ele><time>2026-04-25T07:35:08.999Z</time></trkpt><trkpt lat="43.93001710480003" lon="12.820037388080967"><ele>131.0</ele><time>2026-04-25T07:35:09.999Z</time></trkpt><trkpt lat="43.92990971704041" lon="12.820025255075118"><ele>131.0</ele><time>2026-04-25T07:35:10.999Z</time></trkpt><trkpt lat="43.929801570477856" lon="12.820009829392129"><ele>129.6</ele><time>2026-04-25T07:35:12Z</time></trkpt><trkpt lat="43.929699368056596" lon="12.819996652556513"><ele>128.2</ele><time>2026-04-25T07:35:13Z</time></trkpt><trkpt lat="43.92959701165303" lon="12.819982968179703"><ele>126.80000000000001</ele><time>2026-04-25T07:35:14Z</time></trkpt><trkpt lat="43.92949765435138" lon="12.819953534920803"><ele>125.4</ele><time>2026-04-25T07:35:15Z</time></trkpt><trkpt lat="43.92940408537917" lon="12.819900875073724"><ele>124.0</ele><time>2026-04-25T07:35:16Z</time></trkpt><trkpt lat="43.929303789407506" lon="12.81983706012095"><ele>121.25</ele><time>2026-04-25T07:35:17Z</time></trkpt><trkpt lat="43.929200983638886" lon="12.819765207929064"><ele>118.5</ele><time>2026-04-25T07:35:18Z</time></trkpt><trkpt lat="43.929096758883595" lon="12.819682466779941"><ele>115.75</ele><time>2026-04-25T07:35:19Z</time></trkpt><trkpt lat="43.92899230351577" lon="12.81959023917549"><ele>113.0</ele><time>2026-04-25T07:35:20Z</time></trkpt><trkpt lat="43.928891473645606" lon="12.81949451246763"><ele>113.0</ele><time>2026-04-25T07:35:21Z</time></trkpt><trkpt lat="43.92879148777695" lon="12.819399323873531"><ele>113.0</ele><time>2026-04-25T07:35:22Z</time></trkpt><trkpt lat="43.928684964609175" lon="12.819304525798804"><ele>113.0</ele><time>2026-04-25T07:35:23Z</time></trkpt><trkpt lat="43.92858187517778" lon="12.819198269088025"><ele>113.0</ele><time>2026-04-25T07:35:24Z</time></trkpt><trkpt lat="43.92847294611138" lon="12.81909925399439"><ele>111.5</ele><time>2026-04-25T07:35:25Z</time></trkpt><trkpt lat="43.92836529044728" lon="12.819004947375696"><ele>110.0</ele><time>2026-04-25T07:35:26Z</time></trkpt><trkpt lat="43.928257696244714" lon="12.818909187110904"><ele>108.5</ele><time>2026-04-25T07:35:27Z</time></trkpt><trkpt lat="43.92815256461808" lon="12.818813151588202"><ele>107.0</ele><time>2026-04-25T07:35:28Z</time></trkpt><trkpt lat="43.928049284352724" lon="12.81871225065122"><ele>107.0</ele><time>2026-04-25T07:35:29Z</time></trkpt><trkpt lat="43.92794678438161" lon="12.818606673595609"><ele>107.0</ele><time>2026-04-25T07:35:30Z</time></trkpt><trkpt lat="43.92784691349879" lon="12.818503931844033"><ele>107.0</ele><time>2026-04-25T07:35:31Z</time></trkpt><trkpt lat="43.92774864714029" lon="12.818406762209358"><ele>107.0</ele><time>2026-04-25T07:35:32Z</time></trkpt><trkpt lat="43.92765316010505" lon="12.818306229320102"><ele>106.75</ele><time>2026-04-25T07:35:33Z</time></trkpt><trkpt lat="43.927558595117134" lon="12.818208613164106"><ele>106.5</ele><time>2026-04-25T07:35:34Z</time></trkpt><trkpt lat="43.9274640175426" lon="12.81810567021753"><ele>106.25</ele><time>2026-04-25T07:35:35Z</time></trkpt><trkpt lat="43.927374056876516" lon="12.81798653554859"><ele>106.0</ele><time>2026-04-25T07:35:36Z</time></trkpt><trkpt lat="43.92728613227344" lon="12.817862185868611"><ele>106.0</ele><time>2026-04-25T07:35:37Z</time></trkpt><trkpt lat="43.92720464546061" lon="12.817727039155184"><ele>106.0</ele><time>2026-04-25T07:35:38Z</time></trkpt><trkpt lat="43.92712607282287" lon="12.817581185655575"><ele>106.0</ele><time>2026-04-25T07:35:39Z</time></trkpt><trkpt lat="43.92705006615664" lon="12.817435100943538"><ele>106.0</ele><time>2026-04-25T07:35:40Z</time></trkpt><trkpt lat="43.926984530273124" lon="12.81727721638508"><ele>105.5</ele><time>2026-04-25T07:35:41Z</time></trkpt><trkpt lat="43.926897330358365" lon="12.817142135218464"><ele>105.0</ele><time>2026-04-25T07:35:42Z</time></trkpt><trkpt lat="43.92680425402302" lon="12.81701167481964"><ele>104.5</ele><time>2026-04-25T07:35:43Z</time></trkpt><trkpt lat="43.9267037490671" lon="12.81689106515467"><ele>104.0</ele><time>2026-04-25T07:35:44Z</time></trkpt><trkpt lat="43.92659691248227" lon="12.816776207298204"><ele>102.5</ele><time>2026-04-25T07:35:45Z</time></trkpt><trkpt lat="43.92648598059878" lon="12.816664804762958"><ele>101.0</ele><time>2026-04-25T07:35:46Z</time></trkpt><trkpt lat="43.92637728548682" lon="12.81655791868599"><ele>99.5</ele><time>2026-04-25T07:35:47Z</time></trkpt><trkpt lat="43.926269421306955" lon="12.816456985811067"><ele>98.0</ele><time>2026-04-25T07:35:48Z</time></trkpt><trkpt lat="43.92616598956915" lon="12.816358395830894"><ele>98.0</ele><time>2026-04-25T07:35:49Z</time></trkpt><trkpt lat="43.92606734998712" lon="12.816263441488546"><ele>98.0</ele><time>2026-04-25T07:35:50Z</time></trkpt><trkpt lat="43.925976664110195" lon="12.816179266575045"><ele>98.0</ele><time>2026-04-25T07:35:51Z</time></trkpt><trkpt lat="43.925902928045346" lon="12.816110763661966"><ele>98.0</ele><time>2026-04-25T07:35:52Z</time></trkpt><trkpt lat="43.925841815943194" lon="12.816056855257479"><ele>98.0</ele><time>2026-04-25T07:35:53Z</time></trkpt><trkpt lat="43.92578807735372" lon="12.816007593162848"><ele>96.60000000000001</ele><time>2026-04-25T07:35:54Z</time></trkpt><trkpt lat="43.925720695849186" lon="12.815985595692931"><ele>95.2</ele><time>2026-04-25T07:35:55Z</time></trkpt><trkpt lat="43.9256590210457" lon="12.815865849542531"><ele>93.8</ele><time>2026-04-25T07:35:56Z</time></trkpt><trkpt lat="43.92556971737815" lon="12.815774364887169"><ele>92.4</ele><time>2026-04-25T07:35:57Z</time></trkpt><trkpt lat="43.92548060271446" lon="12.815681593066987"><ele>91.0</ele><time>2026-04-25T07:35:58Z</time></trkpt><trkpt lat="43.9253953225367" lon="12.815577301040033"><ele>91.0</ele><time>2026-04-25T07:35:59Z</time></trkpt><trkpt lat="43.92529765883892" lon="12.81546925864019"><ele>91.0</ele><time>2026-04-25T07:36:00Z</time></trkpt><trkpt lat="43.92520476788684" lon="12.815337098522706"><ele>91.0</ele><time>2026-04-25T07:36:01Z</time></trkpt><trkpt lat="43.925103399237294" lon="12.815204902145531"><ele>91.0</ele><time>2026-04-25T07:36:01.999Z</time></trkpt><trkpt lat="43.92500702291299" lon="12.815073985474807"><ele>91.25</ele><time>2026-04-25T07:36:02.999Z</time></trkpt><trkpt lat="43.924917880717686" lon="12.814947090156206"><ele>91.5</ele><time>2026-04-25T07:36:03.999Z</time></trkpt><trkpt lat="43.92482795128262" lon="12.814818843791757"><ele>91.75</ele><time>2026-04-25T07:36:04.999Z</time></trkpt><trkpt lat="43.92474043748969" lon="12.814689734988576"><ele>92.0</ele><time>2026-04-25T07:36:05.999Z</time></trkpt><trkpt lat="43.924655581285904" lon="12.814558844617084"><ele>92.0</ele><time>2026-04-25T07:36:06.999Z</time></trkpt><trkpt lat="43.924573064417345" lon="12.814425888746747"><ele>92.0</ele><time>2026-04-25T07:36:07.999Z</time></trkpt><trkpt lat="43.924491528070824" lon="12.814287704298481"><ele>92.0</ele><time>2026-04-25T07:36:08.999Z</time></trkpt><trkpt lat="43.924414349958155" lon="12.81413935970468"><ele>92.0</ele><time>2026-04-25T07:36:09.999Z</time></trkpt><trkpt lat="43.92433993279817" lon="12.813981202453752"><ele>92.25</ele><time>2026-04-25T07:36:10.999Z</time></trkpt><trkpt lat="43.92426698121119" lon="12.813810135307701"><ele>92.5</ele><time>2026-04-25T07:36:11.999Z</time></trkpt><trkpt lat="43.92419398502569" lon="12.813632219454695"><ele>92.75</ele><time>2026-04-25T07:36:12.999Z</time></trkpt><trkpt lat="43.92411790205208" lon="12.813444746035836"><ele>93.0</ele><time>2026-04-25T07:36:13.999Z</time></trkpt><trkpt lat="43.92404530453224" lon="12.813253322793255"><ele>92.33333333333333</ele><time>2026-04-25T07:36:14.999Z</time></trkpt><trkpt lat="43.92396866111614" lon="12.813062827947334"><ele>91.66666666666666</ele><time>2026-04-25T07:36:15.999Z</time></trkpt><trkpt lat="43.92388955222155" lon="12.81286831752641"><ele>91.0</ele><time>2026-04-25T07:36:16.999Z</time></trkpt><trkpt lat="43.92380896006008" lon="12.812668147030712"><ele>89.66666666666666</ele><time>2026-04-25T07:36:17.999Z</time></trkpt><trkpt lat="43.92372673764232" lon="12.812466233296941"><ele>88.33333333333333</ele><time>2026-04-25T07:36:18.999Z</time></trkpt><trkpt lat="43.92364774692594" lon="12.812260202034933"><ele>87.0</ele><time>2026-04-25T07:36:19.999Z</time></trkpt><trkpt lat="43.923568554068574" lon="12.81204911977584"><ele>87.0</ele><time>2026-04-25T07:36:20.999Z</time></trkpt><trkpt lat="43.92349003517091" lon="12.811834220262602"><ele>87.0</ele><time>2026-04-25T07:36:21.999Z</time></trkpt><trkpt lat="43.92340997466166" lon="12.81162588992464"><ele>87.0</ele><time>2026-04-25T07:36:22.999Z</time></trkpt><trkpt lat="43.923331090999" lon="12.811423357694286"><ele>84.66666666666667</ele><time>2026-04-25T07:36:23.999Z</time></trkpt><trkpt lat="43.923248716893156" lon="12.811226129669894"><ele>82.33333333333334</ele><time>2026-04-25T07:36:24.999Z</time></trkpt><trkpt lat="43.923156581530556" lon="12.81104021650383"><ele>80.0</ele><time>2026-04-25T07:36:25.999Z</time></trkpt><trkpt lat="43.923055981077084" lon="12.810867752440782"><ele>79.0</ele><time>2026-04-25T07:36:26.999Z</time></trkpt><trkpt lat="43.92294663983683" lon="12.810709683180884"><ele>78.0</ele><time>2026-04-25T07:36:27.999Z</time></trkpt><trkpt lat="43.922829766392795" lon="12.810563363704143"><ele>77.0</ele><time>2026-04-25T07:36:28.999Z</time></trkpt><trkpt lat="43.92270620492278" lon="12.81042862078192"><ele>77.0</ele><time>2026-04-25T07:36:29.999Z</time></trkpt><trkpt lat="43.92257653643735" lon="12.810315983504452"><ele>77.0</ele><time>2026-04-25T07:36:30.999Z</time></trkpt><trkpt lat="43.922437283096656" lon="12.810226136418693"><ele>77.0</ele><time>2026-04-25T07:36:31.999Z</time></trkpt><trkpt lat="43.92229529064588" lon="12.810145420577891"><ele>79.66666666666667</ele><time>2026-04-25T07:36:32.999Z</time></trkpt><trkpt lat="43.92214916207313" lon="12.81007435311374"><ele>82.33333333333333</ele><time>2026-04-25T07:36:33.999Z</time></trkpt><trkpt lat="43.92200214522652" lon="12.810009387400019"><ele>85.0</ele><time>2026-04-25T07:36:34.999Z</time></trkpt><trkpt lat="43.921853371267275" lon="12.809943999857424"><ele>85.66666666666666</ele><time>2026-04-25T07:36:35.999Z</time></trkpt><trkpt lat="43.9217044403259" lon="12.809877282908095"><ele>86.33333333333333</ele><time>2026-04-25T07:36:36.999Z</time></trkpt><trkpt lat="43.92155434992051" lon="12.809811117758365"><ele>87.0</ele><time>2026-04-25T07:36:37.999Z</time></trkpt><trkpt lat="43.921405308545644" lon="12.809744056154429"><ele>87.0</ele><time>2026-04-25T07:36:38.999Z</time></trkpt><trkpt lat="43.92125612600346" lon="12.809680842288213"><ele>87.0</ele><time>2026-04-25T07:36:39.999Z</time></trkpt><trkpt lat="43.92110463530782" lon="12.809621650532616"><ele>87.0</ele><time>2026-04-25T07:36:40.999Z</time></trkpt><trkpt lat="43.92094862700533" lon="12.809567102966653"><ele>87.66666666666667</ele><time>2026-04-25T07:36:41.999Z</time></trkpt><trkpt lat="43.920788708434664" lon="12.809517186623575"><ele>88.33333333333334</ele><time>2026-04-25T07:36:42.999Z</time></trkpt><trkpt lat="43.92062454262358" lon="12.809461068934265"><ele>89.0</ele><time>2026-04-25T07:36:43.999Z</time></trkpt><trkpt lat="43.920460706077066" lon="12.809414410487785"><ele>89.0</ele><time>2026-04-25T07:36:44.999Z</time></trkpt><trkpt lat="43.920295768413155" lon="12.809374388024807"><ele>89.0</ele><time>2026-04-25T07:36:45.999Z</time></trkpt><trkpt lat="43.92014543872516" lon="12.809321969637786"><ele>89.0</ele><time>2026-04-25T07:36:46.999Z</time></trkpt><trkpt lat="43.920006995148235" lon="12.809231101944892"><ele>89.33333333333334</ele><time>2026-04-25T07:36:47.999Z</time></trkpt><trkpt lat="43.9198792597674" lon="12.809114991777616"><ele>89.66666666666667</ele><time>2026-04-25T07:36:48.999Z</time></trkpt><trkpt lat="43.91975473183484" lon="12.808988104969353"><ele>90.0</ele><time>2026-04-25T07:36:49.999Z</time></trkpt><trkpt lat="43.919632538182725" lon="12.808856950289824"><ele>90.0</ele><time>2026-04-25T07:36:50.999Z</time></trkpt><trkpt lat="43.919511863225324" lon="12.808733057287059"><ele>90.0</ele><time>2026-04-25T07:36:51.999Z</time></trkpt><trkpt lat="43.9193942484886" lon="12.808607214261823"><ele>90.0</ele><time>2026-04-25T07:36:52.999Z</time></trkpt><trkpt lat="43.9192783787197" lon="12.808481002989963"><ele>90.0</ele><time>2026-04-25T07:36:53.999Z</time></trkpt><trkpt lat="43.91916161854203" lon="12.808355804646489"><ele>91.0</ele><time>2026-04-25T07:36:54.999Z</time></trkpt><trkpt lat="43.91904280413717" lon="12.808224014398446"><ele>92.0</ele><time>2026-04-25T07:36:55.999Z</time></trkpt><trkpt lat="43.91892689352086" lon="12.808079050467452"><ele>93.0</ele><time>2026-04-25T07:36:56.999Z</time></trkpt><trkpt lat="43.91881702539654" lon="12.807921622889234"><ele>93.0</ele><time>2026-04-25T07:36:57.999Z</time></trkpt><trkpt lat="43.918709981297894" lon="12.807744085438951"><ele>93.0</ele><time>2026-04-25T07:36:58.999Z</time></trkpt><trkpt lat="43.91860180752554" lon="12.807556924766322"><ele>93.0</ele><time>2026-04-25T07:36:59.999Z</time></trkpt><trkpt lat="43.91848799129603" lon="12.807371233585755"><ele>93.0</ele><time>2026-04-25T07:37:00.999Z</time></trkpt><trkpt lat="43.91837178148693" lon="12.807181774166985"><ele>93.0</ele><time>2026-04-25T07:37:01.999Z</time></trkpt><trkpt lat="43.91825567045049" lon="12.806987510399788"><ele>93.0</ele><time>2026-04-25T07:37:02.999Z</time></trkpt><trkpt lat="43.918145512515345" lon="12.806779028681044"><ele>93.0</ele><time>2026-04-25T07:37:03.999Z</time></trkpt><trkpt lat="43.91801690498896" lon="12.806586523434074"><ele>93.0</ele><time>2026-04-25T07:37:04.999Z</time></trkpt><trkpt lat="43.917882320097306" lon="12.806405540071175"><ele>93.0</ele><time>2026-04-25T07:37:05.999Z</time></trkpt><trkpt lat="43.91774219433563" lon="12.806236657976882"><ele>93.0</ele><time>2026-04-25T07:37:06.999Z</time></trkpt><trkpt lat="43.91759523513753" lon="12.806073115735044"><ele>93.0</ele><time>2026-04-25T07:37:07.999Z</time></trkpt><trkpt lat="43.91745099804754" lon="12.805917553775224"><ele>93.0</ele><time>2026-04-25T07:37:08.999Z</time></trkpt><trkpt lat="43.91731790655766" lon="12.805774012583328"><ele>96.66666666666666</ele><time>2026-04-25T07:37:09.999Z</time></trkpt><trkpt lat="43.91718958195553" lon="12.80562994197683"><ele>100.33333333333333</ele><time>2026-04-25T07:37:10.999Z</time></trkpt><trkpt lat="43.917064714915256" lon="12.805489640209782"><ele>104.0</ele><time>2026-04-25T07:37:11.999Z</time></trkpt><trkpt lat="43.916941379083354" lon="12.805351059021497"><ele>104.0</ele><time>2026-04-25T07:37:12.999Z</time></trkpt><trkpt lat="43.916818780656804" lon="12.805213306384893"><ele>104.0</ele><time>2026-04-25T07:37:13.999Z</time></trkpt><trkpt lat="43.91669705929704" lon="12.805079001107325"><ele>104.0</ele><time>2026-04-25T07:37:14.999Z</time></trkpt><trkpt lat="43.91657288919182" lon="12.804942359054744"><ele>105.33333333333333</ele><time>2026-04-25T07:37:15.999Z</time></trkpt><trkpt lat="43.91644779345652" lon="12.804807496562134"><ele>106.66666666666666</ele><time>2026-04-25T07:37:16.999Z</time></trkpt><trkpt lat="43.9163163361274" lon="12.804682937916906"><ele>108.0</ele><time>2026-04-25T07:37:18Z</time></trkpt><trkpt lat="43.91618499945603" lon="12.80455948820666"><ele>108.0</ele><time>2026-04-25T07:37:19Z</time></trkpt><trkpt lat="43.91606418041011" lon="12.804423477340352"><ele>108.0</ele><time>2026-04-25T07:37:20Z</time></trkpt><trkpt lat="43.9159662799089" lon="12.804264124581113"><ele>108.0</ele><time>2026-04-25T07:37:21Z</time></trkpt><trkpt lat="43.91588082103504" lon="12.804096021021941"><ele>109.25</ele><time>2026-04-25T07:37:22Z</time></trkpt><trkpt lat="43.91580900347515" lon="12.803938091140987"><ele>110.5</ele><time>2026-04-25T07:37:23Z</time></trkpt><trkpt lat="43.91574874617786" lon="12.803795163676195"><ele>111.75</ele><time>2026-04-25T07:37:24Z</time></trkpt><trkpt lat="43.91570178567953" lon="12.80365400568832"><ele>113.0</ele><time>2026-04-25T07:37:25Z</time></trkpt><trkpt lat="43.915664777351495" lon="12.80351486789795"><ele>114.2</ele><time>2026-04-25T07:37:26Z</time></trkpt><trkpt lat="43.91563540929552" lon="12.803384758706509"><ele>115.4</ele><time>2026-04-25T07:37:27Z</time></trkpt><trkpt lat="43.91561322771623" lon="12.803253448786052"><ele>116.60000000000001</ele><time>2026-04-25T07:37:28Z</time></trkpt><trkpt lat="43.91559852433591" lon="12.803122155305358"><ele>117.80000000000001</ele><time>2026-04-25T07:37:29Z</time></trkpt><trkpt lat="43.91558618341588" lon="12.802992487768279"><ele>119.0</ele><time>2026-04-25T07:37:30Z</time></trkpt><trkpt lat="43.91557640100468" lon="12.802864814191823"><ele>118.99999999999999</ele><time>2026-04-25T07:37:31Z</time></trkpt><trkpt lat="43.91557043254498" lon="12.802739147179135"><ele>119.0</ele><time>2026-04-25T07:37:32Z</time></trkpt><trkpt lat="43.91557845321095" lon="12.802620169459754"><ele>119.0</ele><time>2026-04-25T07:37:33Z</time></trkpt><trkpt lat="43.91559423465146" lon="12.80249817739372"><ele>119.0</ele><time>2026-04-25T07:37:34Z</time></trkpt><trkpt lat="43.915615106590536" lon="12.80237193801656"><ele>118.99999999999999</ele><time>2026-04-25T07:37:35Z</time></trkpt><trkpt lat="43.915637315006265" lon="12.802259201520657"><ele>119.0</ele><time>2026-04-25T07:37:36Z</time></trkpt><trkpt lat="43.915656440456395" lon="12.802168038554338"><ele>119.0</ele><time>2026-04-25T07:37:37Z</time></trkpt><trkpt lat="43.91556598137584" lon="12.802230350166589"><ele>119.0</ele><time>2026-04-25T07:37:44Z</time></trkpt><trkpt lat="43.91557143393676" lon="12.802331803377418"><ele>119.0</ele><time>2026-04-25T07:37:46Z</time></trkpt><trkpt lat="43.915578715187436" lon="12.802445821631837"><ele>119.0</ele><time>2026-04-25T07:37:48Z</time></trkpt><trkpt lat="43.91554029793469" lon="12.802615250639915"><ele>119.0</ele><time>2026-04-25T07:37:50Z</time></trkpt><trkpt lat="43.91552834350031" lon="12.802711286340564"><ele>118.99999999999999</ele><time>2026-04-25T07:37:51Z</time></trkpt><trkpt lat="43.915500099244284" lon="12.802859059933276"><ele>119.0</ele><time>2026-04-25T07:37:53Z</time></trkpt><trkpt lat="43.91545967616287" lon="12.802944145219902"><ele>119.0</ele><time>2026-04-25T07:37:56Z</time></trkpt><trkpt lat="43.915373580581075" lon="12.80288104102707"><ele>119.0</ele><time>2026-04-25T07:41:03.999Z</time></trkpt><trkpt lat="43.91531108496052" lon="12.802867697798261"><ele>118.99999999999999</ele><time>2026-04-25T07:41:19.999Z</time></trkpt><trkpt lat="43.91538302316317" lon="12.8028943094641"><ele>119.0</ele><time>2026-04-25T07:43:07.999Z</time></trkpt><trkpt lat="43.91543674224609" lon="12.80294492481219"><ele>118.99999999999999</ele><time>2026-04-25T07:43:39.999Z</time></trkpt><trkpt lat="43.91543798655453" lon="12.803038178912892"><ele>119.0</ele><time>2026-04-25T07:45:19.999Z</time></trkpt><trkpt lat="43.91542886569341" lon="12.803165210519907"><ele>119.0</ele><time>2026-04-25T07:49:06.999Z</time></trkpt><trkpt lat="43.91540489917319" lon="12.803297064634437"><ele>119.0</ele><time>2026-04-25T07:49:07.999Z</time></trkpt><trkpt lat="43.91538470775745" lon="12.803405333925072"><ele>118.99999999999999</ele><time>2026-04-25T07:49:08.999Z</time></trkpt><trkpt lat="43.91536521603261" lon="12.803538033796894"><ele>119.0</ele><time>2026-04-25T07:49:10.999Z</time></trkpt><trkpt lat="43.91533578746639" lon="12.803637331753563"><ele>117.99999999999999</ele><time>2026-04-25T07:49:12.999Z</time></trkpt><trkpt lat="43.91529745267251" lon="12.803752965309638"><ele>117.0</ele><time>2026-04-25T07:49:14.999Z</time></trkpt><trkpt lat="43.915258613085975" lon="12.80389937205929"><ele>116.0</ele><time>2026-04-25T07:49:16.999Z</time></trkpt><trkpt lat="43.91522846868982" lon="12.803976383348553"><ele>115.0</ele><time>2026-04-25T07:49:17.999Z</time></trkpt><trkpt lat="43.91518919497268" lon="12.80405544555824"><ele>113.99999999999999</ele><time>2026-04-25T07:49:18.999Z</time></trkpt><trkpt lat="43.91514729404652" lon="12.804123260553737"><ele>113.0</ele><time>2026-04-25T07:49:19.999Z</time></trkpt><trkpt lat="43.91505893510071" lon="12.8042382144335"><ele>111.33333333333333</ele><time>2026-04-25T07:49:21.999Z</time></trkpt><trkpt lat="43.914962149311286" lon="12.804347099303858"><ele>109.66666666666666</ele><time>2026-04-25T07:49:23.999Z</time></trkpt><trkpt lat="43.914907856866485" lon="12.804393332293033"><ele>108.0</ele><time>2026-04-25T07:49:24.999Z</time></trkpt><trkpt lat="43.91485231667492" lon="12.804441868048166"><ele>106.33333333333334</ele><time>2026-04-25T07:49:25.999Z</time></trkpt><trkpt lat="43.914791027549256" lon="12.804484238146774"><ele>104.66666666666667</ele><time>2026-04-25T07:49:26.999Z</time></trkpt><trkpt lat="43.91472490956735" lon="12.804527269753967"><ele>103.0</ele><time>2026-04-25T07:49:27.999Z</time></trkpt><trkpt lat="43.91466240724788" lon="12.804565874624856"><ele>103.00000000000001</ele><time>2026-04-25T07:49:28.999Z</time></trkpt><trkpt lat="43.914595232520135" lon="12.804605690063198"><ele>103.0</ele><time>2026-04-25T07:49:29.999Z</time></trkpt><trkpt lat="43.91451933440312" lon="12.80464416436947"><ele>103.0</ele><time>2026-04-25T07:49:30.999Z</time></trkpt><trkpt lat="43.91443507320267" lon="12.804663327468331"><ele>103.0</ele><time>2026-04-25T07:49:31.999Z</time></trkpt><trkpt lat="43.914350427759246" lon="12.80469901912336"><ele>103.00000000000001</ele><time>2026-04-25T07:49:32.999Z</time></trkpt><trkpt lat="43.91426712272519" lon="12.804744949040085"><ele>103.0</ele><time>2026-04-25T07:49:33.999Z</time></trkpt><trkpt lat="43.91417979339453" lon="12.804777939408186"><ele>104.0</ele><time>2026-04-25T07:49:34.999Z</time></trkpt><trkpt lat="43.91408892077146" lon="12.804806924782206"><ele>105.0</ele><time>2026-04-25T07:49:35.999Z</time></trkpt><trkpt lat="43.91399415872264" lon="12.8048359212521"><ele>106.00000000000001</ele><time>2026-04-25T07:49:36.999Z</time></trkpt><trkpt lat="43.913903032383836" lon="12.804869343638353"><ele>107.0</ele><time>2026-04-25T07:49:37.999Z</time></trkpt><trkpt lat="43.91381198187366" lon="12.804899998893442"><ele>108.0</ele><time>2026-04-25T07:49:38.999Z</time></trkpt><trkpt lat="43.91371968851354" lon="12.804928523665312"><ele>108.0</ele><time>2026-04-25T07:49:39.999Z</time></trkpt><trkpt lat="43.9136454107613" lon="12.80495339669047"><ele>108.00000000000001</ele><time>2026-04-25T07:49:40.999Z</time></trkpt><trkpt lat="43.91352129827326" lon="12.804989255621559"><ele>108.00000000000001</ele><time>2026-04-25T07:49:42.999Z</time></trkpt><trkpt lat="43.913446421360284" lon="12.805011993199866"><ele>108.0</ele><time>2026-04-25T07:49:43.999Z</time></trkpt><trkpt lat="43.913365110753745" lon="12.805035331735258"><ele>108.0</ele><time>2026-04-25T07:49:44.999Z</time></trkpt><trkpt lat="43.91328054617706" lon="12.805073877640494"><ele>108.0</ele><time>2026-04-25T07:49:45.999Z</time></trkpt><trkpt lat="43.91318797504694" lon="12.805107670125162"><ele>108.00000000000001</ele><time>2026-04-25T07:49:46.999Z</time></trkpt><trkpt lat="43.913094670210455" lon="12.805144922238407"><ele>108.00000000000001</ele><time>2026-04-25T07:49:47.999Z</time></trkpt><trkpt lat="43.91300304363228" lon="12.805194416926449"><ele>108.0</ele><time>2026-04-25T07:49:48.999Z</time></trkpt><trkpt lat="43.912917011998466" lon="12.805251374451359"><ele>108.0</ele><time>2026-04-25T07:49:49.999Z</time></trkpt><trkpt lat="43.912838507016566" lon="12.805308496330639"><ele>107.66666666666667</ele><time>2026-04-25T07:49:50.999Z</time></trkpt><trkpt lat="43.91276331140151" lon="12.805369424502793"><ele>107.33333333333334</ele><time>2026-04-25T07:49:51.999Z</time></trkpt><trkpt lat="43.91268946533208" lon="12.805425280012239"><ele>107.0</ele><time>2026-04-25T07:49:52.999Z</time></trkpt><trkpt lat="43.91260875924592" lon="12.805482238534534"><ele>106.66666666666667</ele><time>2026-04-25T07:49:54Z</time></trkpt><trkpt lat="43.91252843273097" lon="12.805543186822568"><ele>106.33333333333334</ele><time>2026-04-25T07:49:55Z</time></trkpt><trkpt lat="43.912447553398735" lon="12.805608970037555"><ele>106.0</ele><time>2026-04-25T07:49:56Z</time></trkpt><trkpt lat="43.91237835300764" lon="12.805677389255557"><ele>106.00000000000001</ele><time>2026-04-25T07:49:57Z</time></trkpt><trkpt lat="43.912306992000566" lon="12.805755549162127"><ele>106.0</ele><time>2026-04-25T07:49:58Z</time></trkpt><trkpt lat="43.91224129010104" lon="12.805835512551942"><ele>106.0</ele><time>2026-04-25T07:49:59Z</time></trkpt><trkpt lat="43.91217988689983" lon="12.805924211227715"><ele>106.0</ele><time>2026-04-25T07:50:00Z</time></trkpt><trkpt lat="43.91211594460276" lon="12.806013575095688"><ele>106.00000000000001</ele><time>2026-04-25T07:50:01Z</time></trkpt><trkpt lat="43.91205827877468" lon="12.806100408786424"><ele>106.0</ele><time>2026-04-25T07:50:02Z</time></trkpt><trkpt lat="43.912003276221" lon="12.80619055382023"><ele>104.50000000000001</ele><time>2026-04-25T07:50:03Z</time></trkpt><trkpt lat="43.91196129137208" lon="12.806269292582938"><ele>103.0</ele><time>2026-04-25T07:50:04Z</time></trkpt><trkpt lat="43.91190389707661" lon="12.80635864591915"><ele>101.5</ele><time>2026-04-25T07:50:06Z</time></trkpt><trkpt lat="43.91184654005895" lon="12.806418089344907"><ele>100.0</ele><time>2026-04-25T07:50:09Z</time></trkpt><trkpt lat="43.911945165386406" lon="12.806322923082366"><ele>98.50000000000001</ele><time>2026-04-25T07:50:21Z</time></trkpt><trkpt lat="43.911990146838946" lon="12.80623935933518"><ele>97.0</ele><time>2026-04-25T07:50:22Z</time></trkpt><trkpt lat="43.912037688361266" lon="12.806159715341007"><ele>97.00000000000001</ele><time>2026-04-25T07:50:23Z</time></trkpt><trkpt lat="43.91207909245127" lon="12.806086295742759"><ele>97.0</ele><time>2026-04-25T07:50:24Z</time></trkpt><trkpt lat="43.91212792867347" lon="12.806006562260173"><ele>97.0</ele><time>2026-04-25T07:50:25Z</time></trkpt><trkpt lat="43.91218272806536" lon="12.805925983588647"><ele>97.0</ele><time>2026-04-25T07:50:26Z</time></trkpt><trkpt lat="43.91224761773544" lon="12.80584394444533"><ele>97.00000000000001</ele><time>2026-04-25T07:50:27Z</time></trkpt><trkpt lat="43.912320512897445" lon="12.805770125898256"><ele>97.0</ele><time>2026-04-25T07:50:28Z</time></trkpt><trkpt lat="43.912386681106746" lon="12.805694177378681"><ele>97.16666666666667</ele><time>2026-04-25T07:50:29Z</time></trkpt><trkpt lat="43.91245731139432" lon="12.805619582953454"><ele>97.33333333333334</ele><time>2026-04-25T07:50:30Z</time></trkpt><trkpt lat="43.91253333794143" lon="12.80554602441415"><ele>97.5</ele><time>2026-04-25T07:50:31Z</time></trkpt><trkpt lat="43.912613582429096" lon="12.805485256238281"><ele>97.66666666666666</ele><time>2026-04-25T07:50:32Z</time></trkpt><trkpt lat="43.912690497998575" lon="12.805427837707448"><ele>97.83333333333333</ele><time>2026-04-25T07:50:33Z</time></trkpt><trkpt lat="43.91276437335411" lon="12.805372893098719"><ele>98.0</ele><time>2026-04-25T07:50:34Z</time></trkpt><trkpt lat="43.91283479679637" lon="12.805318527763712"><ele>97.99999999999999</ele><time>2026-04-25T07:50:35Z</time></trkpt><trkpt lat="43.9129041903184" lon="12.805264829713284"><ele>98.0</ele><time>2026-04-25T07:50:36Z</time></trkpt><trkpt lat="43.912977782711" lon="12.805213532984999"><ele>98.0</ele><time>2026-04-25T07:50:37Z</time></trkpt><trkpt lat="43.91305775673424" lon="12.805167997747064"><ele>98.0</ele><time>2026-04-25T07:50:38Z</time></trkpt><trkpt lat="43.913142473809586" lon="12.80512410424759"><ele>97.99999999999999</ele><time>2026-04-25T07:50:39Z</time></trkpt><trkpt lat="43.9132310340682" lon="12.80508845600911"><ele>98.0</ele><time>2026-04-25T07:50:40Z</time></trkpt><trkpt lat="43.91332110813002" lon="12.805053758267178"><ele>99.66666666666666</ele><time>2026-04-25T07:50:41Z</time></trkpt><trkpt lat="43.91341345443636" lon="12.80503034003727"><ele>101.33333333333333</ele><time>2026-04-25T07:50:42Z</time></trkpt><trkpt lat="43.91350574755889" lon="12.805003427327998"><ele>103.0</ele><time>2026-04-25T07:50:43Z</time></trkpt><trkpt lat="43.91358566334137" lon="12.804979531474215"><ele>104.66666666666666</ele><time>2026-04-25T07:50:44Z</time></trkpt><trkpt lat="43.913658428500355" lon="12.804958280595297"><ele>106.33333333333333</ele><time>2026-04-25T07:50:45Z</time></trkpt><trkpt lat="43.9137295851478" lon="12.804935250105382"><ele>108.0</ele><time>2026-04-25T07:50:46Z</time></trkpt><trkpt lat="43.91380746904826" lon="12.804910393057321"><ele>108.0</ele><time>2026-04-25T07:50:47Z</time></trkpt><trkpt lat="43.91388770067332" lon="12.804884874849293"><ele>108.00000000000001</ele><time>2026-04-25T07:50:48Z</time></trkpt><trkpt lat="43.91397514941954" lon="12.804849306706377"><ele>108.00000000000001</ele><time>2026-04-25T07:50:49Z</time></trkpt><trkpt lat="43.9140660049373" lon="12.804815879409192"><ele>108.0</ele><time>2026-04-25T07:50:50Z</time></trkpt><trkpt lat="43.914158310777495" lon="12.804788071168277"><ele>108.0</ele><time>2026-04-25T07:50:51Z</time></trkpt><trkpt lat="43.91425558494069" lon="12.804756953431976"><ele>107.0</ele><time>2026-04-25T07:50:52Z</time></trkpt><trkpt lat="43.914356686606304" lon="12.804744436824713"><ele>106.00000000000001</ele><time>2026-04-25T07:50:53Z</time></trkpt><trkpt lat="43.91445323141163" lon="12.80470379635529"><ele>105.0</ele><time>2026-04-25T07:50:54Z</time></trkpt><trkpt lat="43.91454882864225" lon="12.804659690286345"><ele>104.0</ele><time>2026-04-25T07:50:55Z</time></trkpt><trkpt lat="43.91464720579762" lon="12.804606099140567"><ele>103.0</ele><time>2026-04-25T07:50:56Z</time></trkpt><trkpt lat="43.914741670497364" lon="12.80454781592667"><ele>103.0</ele><time>2026-04-25T07:50:57Z</time></trkpt><trkpt lat="43.91483487655703" lon="12.804484597417838"><ele>103.0</ele><time>2026-04-25T07:50:58Z</time></trkpt><trkpt lat="43.91492840769915" lon="12.804418622780029"><ele>103.0</ele><time>2026-04-25T07:50:59Z</time></trkpt><trkpt lat="43.91501641127284" lon="12.804338097013785"><ele>103.0</ele><time>2026-04-25T07:51:00Z</time></trkpt><trkpt lat="43.91508610762953" lon="12.804226864531062"><ele>103.0</ele><time>2026-04-25T07:51:01Z</time></trkpt><trkpt lat="43.915162168199416" lon="12.804125715682364"><ele>105.0</ele><time>2026-04-25T07:51:02Z</time></trkpt><trkpt lat="43.91522691997231" lon="12.80400864970411"><ele>107.0</ele><time>2026-04-25T07:51:03Z</time></trkpt><trkpt lat="43.915272284047674" lon="12.80388806660229"><ele>109.00000000000001</ele><time>2026-04-25T07:51:04Z</time></trkpt><trkpt lat="43.9153112650403" lon="12.803769436847135"><ele>111.0</ele><time>2026-04-25T07:51:05Z</time></trkpt><trkpt lat="43.91534468631181" lon="12.803655481114772"><ele>113.0</ele><time>2026-04-25T07:51:06Z</time></trkpt><trkpt lat="43.9153748682786" lon="12.803532433767202"><ele>114.2</ele><time>2026-04-25T07:51:07Z</time></trkpt><trkpt lat="43.91540528206518" lon="12.803401254981972"><ele>115.4</ele><time>2026-04-25T07:51:08Z</time></trkpt><trkpt lat="43.91543321349336" lon="12.803272192861286"><ele>116.60000000000001</ele><time>2026-04-25T07:51:09Z</time></trkpt><trkpt lat="43.915456557256235" lon="12.803172715911463"><ele>117.80000000000001</ele><time>2026-04-25T07:51:10Z</time></trkpt><trkpt lat="43.91549994004492" lon="12.803037359802094"><ele>119.0</ele><time>2026-04-25T07:51:12Z</time></trkpt><trkpt lat="43.915522370034914" lon="12.802941693455306"><ele>119.0</ele><time>2026-04-25T07:51:14Z</time></trkpt><trkpt lat="43.91555786753993" lon="12.80286279112247"><ele>119.0</ele><time>2026-04-25T07:51:15Z</time></trkpt><trkpt lat="43.915591005227775" lon="12.802760867457787"><ele>119.0</ele><time>2026-04-25T07:51:16Z</time></trkpt><trkpt lat="43.91556797665542" lon="12.802611189531834"><ele>119.0</ele><time>2026-04-25T07:51:17Z</time></trkpt><trkpt lat="43.915584403486264" lon="12.802485574903422"><ele>119.0</ele><time>2026-04-25T07:51:18Z</time></trkpt><trkpt lat="43.915608358389576" lon="12.802341352630231"><ele>119.25</ele><time>2026-04-25T07:51:19Z</time></trkpt><trkpt lat="43.91564097286609" lon="12.802185049319263"><ele>119.5</ele><time>2026-04-25T07:51:20Z</time></trkpt><trkpt lat="43.91567958275763" lon="12.802025623826534"><ele>119.75</ele><time>2026-04-25T07:51:21Z</time></trkpt><trkpt lat="43.91571668302684" lon="12.8018809589227"><ele>120.0</ele><time>2026-04-25T07:51:22Z</time></trkpt><trkpt lat="43.91574798771598" lon="12.801747232018279"><ele>120.0</ele><time>2026-04-25T07:51:23Z</time></trkpt><trkpt lat="43.91575628777692" lon="12.801600225339195"><ele>120.0</ele><time>2026-04-25T07:51:24Z</time></trkpt><trkpt lat="43.91574236059269" lon="12.801452675799906"><ele>120.0</ele><time>2026-04-25T07:51:25Z</time></trkpt><trkpt lat="43.915716581780956" lon="12.801310007219145"><ele>120.0</ele><time>2026-04-25T07:51:26Z</time></trkpt><trkpt lat="43.915710454285" lon="12.801152066661603"><ele>120.0</ele><time>2026-04-25T07:51:27Z</time></trkpt><trkpt lat="43.915687676045586" lon="12.80099575712478"><ele>119.8</ele><time>2026-04-25T07:51:28Z</time></trkpt><trkpt lat="43.915646913944286" lon="12.800848188973776"><ele>119.6</ele><time>2026-04-25T07:51:29Z</time></trkpt><trkpt lat="43.91562256988234" lon="12.80070832905523"><ele>119.4</ele><time>2026-04-25T07:51:30Z</time></trkpt><trkpt lat="43.91558395611292" lon="12.800567774356491"><ele>119.2</ele><time>2026-04-25T07:51:31Z</time></trkpt><trkpt lat="43.91553600698565" lon="12.800426445749984"><ele>119.0</ele><time>2026-04-25T07:51:32Z</time></trkpt><trkpt lat="43.915482609749056" lon="12.80028504141166"><ele>118.0</ele><time>2026-04-25T07:51:33Z</time></trkpt><trkpt lat="43.91542086564595" lon="12.800144962351112"><ele>117.0</ele><time>2026-04-25T07:51:34Z</time></trkpt><trkpt lat="43.915356165541944" lon="12.800004799499108"><ele>116.0</ele><time>2026-04-25T07:51:35Z</time></trkpt><trkpt lat="43.915292282036376" lon="12.799865832369981"><ele>115.0</ele><time>2026-04-25T07:51:36Z</time></trkpt><trkpt lat="43.91522777273203" lon="12.799734408474022"><ele>115.0</ele><time>2026-04-25T07:51:37Z</time></trkpt><trkpt lat="43.91517059280764" lon="12.799605829061013"><ele>115.0</ele><time>2026-04-25T07:51:38Z</time></trkpt><trkpt lat="43.91511170993558" lon="12.79948311191589"><ele>115.0</ele><time>2026-04-25T07:51:39Z</time></trkpt><trkpt lat="43.91505068859985" lon="12.799362880562065"><ele>115.0</ele><time>2026-04-25T07:51:40Z</time></trkpt><trkpt lat="43.91498684325104" lon="12.799240990405957"><ele>115.0</ele><time>2026-04-25T07:51:41Z</time></trkpt><trkpt lat="43.914922051987666" lon="12.79911533819582"><ele>115.5</ele><time>2026-04-25T07:51:42Z</time></trkpt><trkpt lat="43.914856565584735" lon="12.798982095662398"><ele>116.0</ele><time>2026-04-25T07:51:43Z</time></trkpt><trkpt lat="43.91479918946629" lon="12.798836402465529"><ele>116.5</ele><time>2026-04-25T07:51:44Z</time></trkpt><trkpt lat="43.91474712580248" lon="12.798685249612767"><ele>117.0</ele><time>2026-04-25T07:51:45Z</time></trkpt><trkpt lat="43.914696992381685" lon="12.79852592411756"><ele>117.0</ele><time>2026-04-25T07:51:46Z</time></trkpt><trkpt lat="43.91464277967262" lon="12.798366628431515"><ele>117.0</ele><time>2026-04-25T07:51:47Z</time></trkpt><trkpt lat="43.914590208287855" lon="12.79820123632091"><ele>117.0</ele><time>2026-04-25T07:51:48Z</time></trkpt><trkpt lat="43.91453501999445" lon="12.798031876390862"><ele>117.0</ele><time>2026-04-25T07:51:49Z</time></trkpt><trkpt lat="43.914474311642216" lon="12.797862783592302"><ele>117.0</ele><time>2026-04-25T07:51:50Z</time></trkpt><trkpt lat="43.9144098182413" lon="12.797696113134986"><ele>117.0</ele><time>2026-04-25T07:51:51Z</time></trkpt><trkpt lat="43.91434040962835" lon="12.79752402529993"><ele>117.0</ele><time>2026-04-25T07:51:52Z</time></trkpt><trkpt lat="43.91426798989059" lon="12.797351776817342"><ele>117.0</ele><time>2026-04-25T07:51:53Z</time></trkpt><trkpt lat="43.91419089817759" lon="12.79718026492056"><ele>117.25</ele><time>2026-04-25T07:51:54Z</time></trkpt><trkpt lat="43.91411366322155" lon="12.797002421178316"><ele>117.5</ele><time>2026-04-25T07:51:55Z</time></trkpt><trkpt lat="43.914043204195956" lon="12.7968216086452"><ele>117.75</ele><time>2026-04-25T07:51:56Z</time></trkpt><trkpt lat="43.91396915225701" lon="12.796639644242761"><ele>118.0</ele><time>2026-04-25T07:51:57Z</time></trkpt><trkpt lat="43.91389643297234" lon="12.796455735109385"><ele>118.0</ele><time>2026-04-25T07:51:58Z</time></trkpt><trkpt lat="43.91382535427659" lon="12.796264950861199"><ele>118.0</ele><time>2026-04-25T07:51:59Z</time></trkpt><trkpt lat="43.91375508853359" lon="12.796073394672693"><ele>118.0</ele><time>2026-04-25T07:52:00.001Z</time></trkpt><trkpt lat="43.91369051584462" lon="12.795885504711784"><ele>117.75</ele><time>2026-04-25T07:52:01.001Z</time></trkpt><trkpt lat="43.91362722668361" lon="12.79570435073151"><ele>117.5</ele><time>2026-04-25T07:52:02.001Z</time></trkpt><trkpt lat="43.913564639929085" lon="12.795522509184204"><ele>117.25</ele><time>2026-04-25T07:52:03.001Z</time></trkpt><trkpt lat="43.91350943536648" lon="12.795340001626606"><ele>117.0</ele><time>2026-04-25T07:52:04.001Z</time></trkpt><trkpt lat="43.91346775977173" lon="12.795162703648696"><ele>117.0</ele><time>2026-04-25T07:52:05.001Z</time></trkpt><trkpt lat="43.91343963632556" lon="12.79499470562434"><ele>117.0</ele><time>2026-04-25T07:52:06.001Z</time></trkpt><trkpt lat="43.91341937988017" lon="12.79483041685752"><ele>117.0</ele><time>2026-04-25T07:52:07.001Z</time></trkpt><trkpt lat="43.91339678551455" lon="12.794658710929427"><ele>117.0</ele><time>2026-04-25T07:52:08.001Z</time></trkpt><trkpt lat="43.91337905098014" lon="12.794481231311257"><ele>118.75</ele><time>2026-04-25T07:52:09.001Z</time></trkpt><trkpt lat="43.91336082715594" lon="12.794296752462465"><ele>120.5</ele><time>2026-04-25T07:52:10.001Z</time></trkpt><trkpt lat="43.91335236223609" lon="12.794107427256161"><ele>122.25</ele><time>2026-04-25T07:52:11Z</time></trkpt><trkpt lat="43.91333724765749" lon="12.793914056542103"><ele>124.0</ele><time>2026-04-25T07:52:12Z</time></trkpt><trkpt lat="43.91332481040301" lon="12.79371480604571"><ele>124.0</ele><time>2026-04-25T07:52:13Z</time></trkpt><trkpt lat="43.91331213738202" lon="12.79351320538873"><ele>124.0</ele><time>2026-04-25T07:52:14Z</time></trkpt><trkpt lat="43.913300628155646" lon="12.793305958931533"><ele>124.0</ele><time>2026-04-25T07:52:15Z</time></trkpt><trkpt lat="43.91329035613276" lon="12.79309907148166"><ele>124.0</ele><time>2026-04-25T07:52:16Z</time></trkpt><trkpt lat="43.913280131335426" lon="12.792898344068172"><ele>123.25</ele><time>2026-04-25T07:52:17Z</time></trkpt><trkpt lat="43.91326939683495" lon="12.79270137318011"><ele>122.5</ele><time>2026-04-25T07:52:18Z</time></trkpt><trkpt lat="43.9132602830889" lon="12.79250335315721"><ele>121.75</ele><time>2026-04-25T07:52:19Z</time></trkpt><trkpt lat="43.91325076883382" lon="12.79230727688094"><ele>121.0</ele><time>2026-04-25T07:52:20Z</time></trkpt><trkpt lat="43.913243469100856" lon="12.792110839391153"><ele>120.0</ele><time>2026-04-25T07:52:21Z</time></trkpt><trkpt lat="43.91323728505656" lon="12.791913910027066"><ele>119.0</ele><time>2026-04-25T07:52:22Z</time></trkpt><trkpt lat="43.9132331726197" lon="12.791716098349594"><ele>118.0</ele><time>2026-04-25T07:52:23Z</time></trkpt><trkpt lat="43.913227374179975" lon="12.79152220417489"><ele>117.0</ele><time>2026-04-25T07:52:24Z</time></trkpt><trkpt lat="43.91322322067198" lon="12.791326564404725"><ele>116.25</ele><time>2026-04-25T07:52:25Z</time></trkpt><trkpt lat="43.91321345384334" lon="12.791118326290356"><ele>115.5</ele><time>2026-04-25T07:52:26Z</time></trkpt><trkpt lat="43.9132130140104" lon="12.790925271398327"><ele>114.75</ele><time>2026-04-25T07:52:27Z</time></trkpt><trkpt lat="43.91321235362918" lon="12.790727137709892"><ele>114.0</ele><time>2026-04-25T07:52:28Z</time></trkpt><trkpt lat="43.913206917395826" lon="12.790528654298026"><ele>113.75</ele><time>2026-04-25T07:52:29Z</time></trkpt><trkpt lat="43.91320953934631" lon="12.790336966309775"><ele>113.5</ele><time>2026-04-25T07:52:30Z</time></trkpt><trkpt lat="43.913217840630296" lon="12.790152294788886"><ele>113.25</ele><time>2026-04-25T07:52:31Z</time></trkpt><trkpt lat="43.9132632497891" lon="12.789979792537451"><ele>113.0</ele><time>2026-04-25T07:52:32Z</time></trkpt><trkpt lat="43.91331405069691" lon="12.789809354607998"><ele>112.25</ele><time>2026-04-25T07:52:33Z</time></trkpt><trkpt lat="43.91336703811967" lon="12.789636808813492"><ele>111.5</ele><time>2026-04-25T07:52:34Z</time></trkpt><trkpt lat="43.91342420060936" lon="12.789453268711123"><ele>110.75</ele><time>2026-04-25T07:52:35Z</time></trkpt><trkpt lat="43.913483894295084" lon="12.789266702543987"><ele>110.0</ele><time>2026-04-25T07:52:36Z</time></trkpt><trkpt lat="43.913543992769384" lon="12.789073339925041"><ele>108.66666666666666</ele><time>2026-04-25T07:52:37Z</time></trkpt><trkpt lat="43.913603933397255" lon="12.788876638225348"><ele>107.33333333333334</ele><time>2026-04-25T07:52:38Z</time></trkpt><trkpt lat="43.91366634422895" lon="12.788677998478107"><ele>106.0</ele><time>2026-04-25T07:52:39Z</time></trkpt><trkpt lat="43.913730362617244" lon="12.788476843735724"><ele>106.0</ele><time>2026-04-25T07:52:40Z</time></trkpt><trkpt lat="43.913786435280066" lon="12.78826486096537"><ele>106.0</ele><time>2026-04-25T07:52:41Z</time></trkpt><trkpt lat="43.91382805931078" lon="12.788041936903596"><ele>106.0</ele><time>2026-04-25T07:52:42Z</time></trkpt><trkpt lat="43.9138662160807" lon="12.787816991979586"><ele>108.66666666666667</ele><time>2026-04-25T07:52:43Z</time></trkpt><trkpt lat="43.91390510273334" lon="12.787587744233926"><ele>111.33333333333334</ele><time>2026-04-25T07:52:44Z</time></trkpt><trkpt lat="43.913957413173364" lon="12.787353462021361"><ele>114.0</ele><time>2026-04-25T07:52:45Z</time></trkpt><trkpt lat="43.91402161695279" lon="12.787110480136343"><ele>114.0</ele><time>2026-04-25T07:52:46Z</time></trkpt><trkpt lat="43.914093283855294" lon="12.786863906642063"><ele>114.0</ele><time>2026-04-25T07:52:47Z</time></trkpt><trkpt lat="43.914168913103936" lon="12.786615273117452"><ele>114.0</ele><time>2026-04-25T07:52:48Z</time></trkpt><trkpt lat="43.91424642143866" lon="12.7863653483977"><ele>112.33333333333334</ele><time>2026-04-25T07:52:49Z</time></trkpt><trkpt lat="43.91432346036517" lon="12.786119222382585"><ele>110.66666666666667</ele><time>2026-04-25T07:52:50Z</time></trkpt><trkpt lat="43.91439246991322" lon="12.785884971235708"><ele>109.0</ele><time>2026-04-25T07:52:51Z</time></trkpt><trkpt lat="43.9144375988524" lon="12.785652800237616"><ele>112.5</ele><time>2026-04-25T07:52:52Z</time></trkpt><trkpt lat="43.91449025038665" lon="12.785444338378875"><ele>116.0</ele><time>2026-04-25T07:52:53Z</time></trkpt><trkpt lat="43.91454909468741" lon="12.785253856451444"><ele>119.5</ele><time>2026-04-25T07:52:54Z</time></trkpt><trkpt lat="43.91457726094374" lon="12.785077063298715"><ele>123.0</ele><time>2026-04-25T07:52:55Z</time></trkpt><trkpt lat="43.91458992824137" lon="12.784911608468697"><ele>123.25</ele><time>2026-04-25T07:52:56Z</time></trkpt><trkpt lat="43.91457661334801" lon="12.784742647673795"><ele>123.5</ele><time>2026-04-25T07:52:57Z</time></trkpt><trkpt lat="43.91452194920602" lon="12.784580771521687"><ele>123.75</ele><time>2026-04-25T07:52:58Z</time></trkpt><trkpt lat="43.91446240683733" lon="12.784419628658311"><ele>124.0</ele><time>2026-04-25T07:52:59Z</time></trkpt><trkpt lat="43.914391210609054" lon="12.784254056945361"><ele>124.0</ele><time>2026-04-25T07:53:00Z</time></trkpt><trkpt lat="43.914314917424" lon="12.784089211562032"><ele>124.0</ele><time>2026-04-25T07:53:01Z</time></trkpt><trkpt lat="43.91423755715408" lon="12.783926737967654"><ele>124.0</ele><time>2026-04-25T07:53:02Z</time></trkpt><trkpt lat="43.914155183591575" lon="12.783770805359413"><ele>124.0</ele><time>2026-04-25T07:53:03Z</time></trkpt><trkpt lat="43.914059204191936" lon="12.783623087726767"><ele>126.75</ele><time>2026-04-25T07:53:04Z</time></trkpt><trkpt lat="43.91395537079538" lon="12.783481279634026"><ele>129.5</ele><time>2026-04-25T07:53:05Z</time></trkpt><trkpt lat="43.913848321732466" lon="12.783339116831076"><ele>132.25</ele><time>2026-04-25T07:53:06Z</time></trkpt><trkpt lat="43.91373447478182" lon="12.783201849895974"><ele>135.0</ele><time>2026-04-25T07:53:07Z</time></trkpt><trkpt lat="43.9136167643204" lon="12.783072900169122"><ele>135.0</ele><time>2026-04-25T07:53:08Z</time></trkpt><trkpt lat="43.913499018601115" lon="12.782941196377612"><ele>135.0</ele><time>2026-04-25T07:53:09Z</time></trkpt><trkpt lat="43.91337292807071" lon="12.782818296236776"><ele>135.0</ele><time>2026-04-25T07:53:10Z</time></trkpt><trkpt lat="43.91326220536883" lon="12.78267212526936"><ele>137.66666666666666</ele><time>2026-04-25T07:53:11Z</time></trkpt><trkpt lat="43.91314183398015" lon="12.782537087705572"><ele>140.33333333333331</ele><time>2026-04-25T07:53:12Z</time></trkpt><trkpt lat="43.913022233280564" lon="12.78240411502389"><ele>143.0</ele><time>2026-04-25T07:53:13Z</time></trkpt><trkpt lat="43.91290266748688" lon="12.78227325967493"><ele>143.0</ele><time>2026-04-25T07:53:14Z</time></trkpt><trkpt lat="43.91278306972134" lon="12.78214236934516"><ele>143.0</ele><time>2026-04-25T07:53:15Z</time></trkpt><trkpt lat="43.912653857761526" lon="12.782028551664089"><ele>143.0</ele><time>2026-04-25T07:53:16Z</time></trkpt><trkpt lat="43.91253778503623" lon="12.781902716326467"><ele>145.0</ele><time>2026-04-25T07:53:17Z</time></trkpt><trkpt lat="43.912431290090105" lon="12.781760127171257"><ele>147.0</ele><time>2026-04-25T07:53:18Z</time></trkpt><trkpt lat="43.91231675087084" lon="12.781639528101739"><ele>149.0</ele><time>2026-04-25T07:53:19Z</time></trkpt><trkpt lat="43.9122043224471" lon="12.78151727946898"><ele>151.0</ele><time>2026-04-25T07:53:20Z</time></trkpt><trkpt lat="43.91209583831358" lon="12.781393489536951"><ele>151.0</ele><time>2026-04-25T07:53:21Z</time></trkpt><trkpt lat="43.91199483575694" lon="12.781259993166122"><ele>151.0</ele><time>2026-04-25T07:53:22Z</time></trkpt><trkpt lat="43.91190036269805" lon="12.78111887497627"><ele>151.0</ele><time>2026-04-25T07:53:23Z</time></trkpt><trkpt lat="43.91180053012079" lon="12.78098429697726"><ele>151.0</ele><time>2026-04-25T07:53:24Z</time></trkpt><trkpt lat="43.91171868173457" lon="12.780829631882291"><ele>153.0</ele><time>2026-04-25T07:53:25Z</time></trkpt><trkpt lat="43.91164246744366" lon="12.780667762657457"><ele>155.0</ele><time>2026-04-25T07:53:26Z</time></trkpt><trkpt lat="43.9115722826219" lon="12.780500430348743"><ele>157.0</ele><time>2026-04-25T07:53:27Z</time></trkpt><trkpt lat="43.911506514148094" lon="12.780333650117685"><ele>159.0</ele><time>2026-04-25T07:53:28Z</time></trkpt><trkpt lat="43.91144858995035" lon="12.780161985339287"><ele>159.25</ele><time>2026-04-25T07:53:29Z</time></trkpt><trkpt lat="43.91139491457661" lon="12.779991599866053"><ele>159.5</ele><time>2026-04-25T07:53:30Z</time></trkpt><trkpt lat="43.911347073921625" lon="12.779822407516965"><ele>159.75</ele><time>2026-04-25T07:53:31Z</time></trkpt><trkpt lat="43.91130479543051" lon="12.779651039899994"><ele>160.0</ele><time>2026-04-25T07:53:32Z</time></trkpt><trkpt lat="43.911262065620306" lon="12.779477030896103"><ele>160.5</ele><time>2026-04-25T07:53:33Z</time></trkpt><trkpt lat="43.91123194768667" lon="12.77929775084261"><ele>161.0</ele><time>2026-04-25T07:53:34Z</time></trkpt><trkpt lat="43.911214044844776" lon="12.779114494234971"><ele>161.5</ele><time>2026-04-25T07:53:35Z</time></trkpt><trkpt lat="43.91120430466797" lon="12.778927446162195"><ele>162.0</ele><time>2026-04-25T07:53:36Z</time></trkpt><trkpt lat="43.91119357628309" lon="12.77874009125281"><ele>162.0</ele><time>2026-04-25T07:53:37Z</time></trkpt><trkpt lat="43.911183068699266" lon="12.778552141393682"><ele>162.0</ele><time>2026-04-25T07:53:38Z</time></trkpt><trkpt lat="43.91117605041747" lon="12.778366120073848"><ele>162.0</ele><time>2026-04-25T07:53:39Z</time></trkpt><trkpt lat="43.91117052867156" lon="12.7781766604174"><ele>162.0</ele><time>2026-04-25T07:53:40Z</time></trkpt><trkpt lat="43.91117043084429" lon="12.777988117958733"><ele>163.25</ele><time>2026-04-25T07:53:41Z</time></trkpt><trkpt lat="43.911164923321124" lon="12.777804483239748"><ele>164.5</ele><time>2026-04-25T07:53:42Z</time></trkpt><trkpt lat="43.91116630943785" lon="12.777621323817293"><ele>165.75</ele><time>2026-04-25T07:53:43Z</time></trkpt><trkpt lat="43.91116149358903" lon="12.777439981206731"><ele>167.0</ele><time>2026-04-25T07:53:44Z</time></trkpt><trkpt lat="43.91116113123457" lon="12.77725978731448"><ele>169.75</ele><time>2026-04-25T07:53:45Z</time></trkpt><trkpt lat="43.91116997581381" lon="12.777079833621626"><ele>172.5</ele><time>2026-04-25T07:53:46Z</time></trkpt><trkpt lat="43.91119398291221" lon="12.776894943051003"><ele>175.25</ele><time>2026-04-25T07:53:47Z</time></trkpt><trkpt lat="43.911230078330696" lon="12.776709979360728"><ele>178.0</ele><time>2026-04-25T07:53:48Z</time></trkpt><trkpt lat="43.91127601054519" lon="12.776519278743143"><ele>181.33333333333334</ele><time>2026-04-25T07:53:49Z</time></trkpt><trkpt lat="43.911326129232485" lon="12.776322962265505"><ele>184.66666666666666</ele><time>2026-04-25T07:53:50Z</time></trkpt><trkpt lat="43.91138088001787" lon="12.77612033638493"><ele>188.0</ele><time>2026-04-25T07:53:51Z</time></trkpt><trkpt lat="43.911450238907214" lon="12.775918423510426"><ele>191.66666666666666</ele><time>2026-04-25T07:53:52Z</time></trkpt><trkpt lat="43.911495964967656" lon="12.775700019091012"><ele>195.33333333333331</ele><time>2026-04-25T07:53:53Z</time></trkpt><trkpt lat="43.911553836908375" lon="12.775500306541648"><ele>199.0</ele><time>2026-04-25T07:53:54Z</time></trkpt><trkpt lat="43.91160330541986" lon="12.775321620670704"><ele>200.25</ele><time>2026-04-25T07:53:55Z</time></trkpt><trkpt lat="43.91165567569788" lon="12.775154149278002"><ele>201.5</ele><time>2026-04-25T07:53:56Z</time></trkpt><trkpt lat="43.91165768177638" lon="12.77497775047561"><ele>202.75</ele><time>2026-04-25T07:53:57Z</time></trkpt><trkpt lat="43.91163701110319" lon="12.774797026037433"><ele>204.0</ele><time>2026-04-25T07:53:58Z</time></trkpt><trkpt lat="43.911602911056924" lon="12.774606762820781"><ele>204.0</ele><time>2026-04-25T07:53:59Z</time></trkpt><trkpt lat="43.911555227731526" lon="12.774414916231393"><ele>204.0</ele><time>2026-04-25T07:54:00Z</time></trkpt><trkpt lat="43.911507579784505" lon="12.774213636842484"><ele>204.0</ele><time>2026-04-25T07:54:01Z</time></trkpt><trkpt lat="43.91146095773734" lon="12.774009751496633"><ele>204.0</ele><time>2026-04-25T07:54:02Z</time></trkpt><trkpt lat="43.91143500155133" lon="12.77379837219558"><ele>204.0</ele><time>2026-04-25T07:54:03Z</time></trkpt><trkpt lat="43.911375581470054" lon="12.773595312268952"><ele>204.0</ele><time>2026-04-25T07:54:04Z</time></trkpt><trkpt lat="43.91133032156059" lon="12.773392492267357"><ele>203.0</ele><time>2026-04-25T07:54:05Z</time></trkpt><trkpt lat="43.91127350806506" lon="12.773199926288303"><ele>202.0</ele><time>2026-04-25T07:54:06Z</time></trkpt><trkpt lat="43.91120621645307" lon="12.773016290963357"><ele>201.0</ele><time>2026-04-25T07:54:07Z</time></trkpt><trkpt lat="43.9111307392834" lon="12.77284792360102"><ele>200.0</ele><time>2026-04-25T07:54:08Z</time></trkpt><trkpt lat="43.91106370267435" lon="12.772680738258343"><ele>199.8</ele><time>2026-04-25T07:54:09Z</time></trkpt><trkpt lat="43.91097898111831" lon="12.772580032126152"><ele>199.6</ele><time>2026-04-25T07:54:10Z</time></trkpt><trkpt lat="43.9109235062398" lon="12.772488861457324"><ele>199.39999999999998</ele><time>2026-04-25T07:54:11Z</time></trkpt><trkpt lat="43.91088371804971" lon="12.772414224440148"><ele>199.2</ele><time>2026-04-25T07:54:12Z</time></trkpt><trkpt lat="43.910843570325405" lon="12.77233899416234"><ele>199.0</ele><time>2026-04-25T07:54:14Z</time></trkpt><trkpt lat="43.910721889771835" lon="12.772324110563767"><ele>204.0</ele><time>2026-04-25T07:54:21Z</time></trkpt><trkpt lat="43.91063668455084" lon="12.772401323220551"><ele>209.0</ele><time>2026-04-25T07:54:22Z</time></trkpt><trkpt lat="43.9105586694662" lon="12.7724507075354"><ele>213.99999999999997</ele><time>2026-04-25T07:54:23Z</time></trkpt><trkpt lat="43.910474193378356" lon="12.772492921096884"><ele>219.0</ele><time>2026-04-25T07:54:24Z</time></trkpt><trkpt lat="43.91037862847332" lon="12.772535929715334"><ele>224.0</ele><time>2026-04-25T07:54:25Z</time></trkpt><trkpt lat="43.91028035792535" lon="12.772571423212547"><ele>224.0</ele><time>2026-04-25T07:54:26Z</time></trkpt><trkpt lat="43.910174380248506" lon="12.772603932568398"><ele>223.99999999999997</ele><time>2026-04-25T07:54:27Z</time></trkpt><trkpt lat="43.91007776388272" lon="12.772629822364719"><ele>223.99999999999997</ele><time>2026-04-25T07:54:28Z</time></trkpt><trkpt lat="43.90999488182085" lon="12.772647876210895"><ele>224.0</ele><time>2026-04-25T07:54:29Z</time></trkpt><trkpt lat="43.909911607578216" lon="12.772665258254971"><ele>224.0</ele><time>2026-04-25T07:54:30Z</time></trkpt><trkpt lat="43.909817376620495" lon="12.772675715433095"><ele>225.39999999999998</ele><time>2026-04-25T07:54:31Z</time></trkpt><trkpt lat="43.90971985914738" lon="12.772673558290146"><ele>226.79999999999998</ele><time>2026-04-25T07:54:32Z</time></trkpt><trkpt lat="43.90961990333808" lon="12.772667310923861"><ele>228.20000000000002</ele><time>2026-04-25T07:54:33Z</time></trkpt><trkpt lat="43.909515984747244" lon="12.772658914447783"><ele>229.60000000000002</ele><time>2026-04-25T07:54:34Z</time></trkpt><trkpt lat="43.90941281085823" lon="12.772645762943885"><ele>231.0</ele><time>2026-04-25T07:54:35Z</time></trkpt><trkpt lat="43.90930911580589" lon="12.772636831600995"><ele>232.0</ele><time>2026-04-25T07:54:36Z</time></trkpt><trkpt lat="43.909205533767874" lon="12.772619299461084"><ele>233.00000000000003</ele><time>2026-04-25T07:54:37Z</time></trkpt><trkpt lat="43.90910195871789" lon="12.77259903388867"><ele>234.00000000000003</ele><time>2026-04-25T07:54:38Z</time></trkpt><trkpt lat="43.90899766442033" lon="12.772581987015315"><ele>235.0</ele><time>2026-04-25T07:54:39Z</time></trkpt><trkpt lat="43.908891138735484" lon="12.77256374050837"><ele>236.0</ele><time>2026-04-25T07:54:40Z</time></trkpt><trkpt lat="43.908779088341056" lon="12.77253496633695"><ele>236.0</ele><time>2026-04-25T07:54:41Z</time></trkpt><trkpt lat="43.90866742845361" lon="12.772505281448346"><ele>236.0</ele><time>2026-04-25T07:54:42Z</time></trkpt><trkpt lat="43.908557106716145" lon="12.772470181940438"><ele>236.0</ele><time>2026-04-25T07:54:43Z</time></trkpt><trkpt lat="43.90843790739619" lon="12.772433493610006"><ele>236.0</ele><time>2026-04-25T07:54:44Z</time></trkpt><trkpt lat="43.908309382338885" lon="12.772400804413023"><ele>237.25</ele><time>2026-04-25T07:54:45Z</time></trkpt><trkpt lat="43.90817677268546" lon="12.772366873419557"><ele>238.5</ele><time>2026-04-25T07:54:46Z</time></trkpt><trkpt lat="43.90804751642016" lon="12.772331486238151"><ele>239.75</ele><time>2026-04-25T07:54:47Z</time></trkpt><trkpt lat="43.907920695283536" lon="12.772295589186735"><ele>241.0</ele><time>2026-04-25T07:54:48Z</time></trkpt><trkpt lat="43.907793025723386" lon="12.772257681576374"><ele>241.0</ele><time>2026-04-25T07:54:49Z</time></trkpt><trkpt lat="43.9076619551229" lon="12.772204831259442"><ele>241.0</ele><time>2026-04-25T07:54:50Z</time></trkpt><trkpt lat="43.907526445590015" lon="12.772159931584625"><ele>241.0</ele><time>2026-04-25T07:54:51Z</time></trkpt><trkpt lat="43.90739199417097" lon="12.772122165568167"><ele>241.0</ele><time>2026-04-25T07:54:52Z</time></trkpt><trkpt lat="43.907258721433614" lon="12.772079002712726"><ele>241.5</ele><time>2026-04-25T07:54:53Z</time></trkpt><trkpt lat="43.90711670650199" lon="12.772036271637749"><ele>242.0</ele><time>2026-04-25T07:54:54Z</time></trkpt><trkpt lat="43.90697392528697" lon="12.77198894335923"><ele>242.5</ele><time>2026-04-25T07:54:55Z</time></trkpt><trkpt lat="43.90682730445295" lon="12.771943761366009"><ele>243.0</ele><time>2026-04-25T07:54:56Z</time></trkpt><trkpt lat="43.906677026991126" lon="12.771896990497495"><ele>236.66666666666669</ele><time>2026-04-25T07:54:57Z</time></trkpt><trkpt lat="43.90652781622491" lon="12.771853647966193"><ele>230.33333333333334</ele><time>2026-04-25T07:54:58Z</time></trkpt><trkpt lat="43.90637830694532" lon="12.771813808593363"><ele>224.0</ele><time>2026-04-25T07:54:59Z</time></trkpt><trkpt lat="43.90622629347397" lon="12.771776846975028"><ele>224.0</ele><time>2026-04-25T07:55:00Z</time></trkpt><trkpt lat="43.90607030170529" lon="12.771735898660967"><ele>224.0</ele><time>2026-04-25T07:55:01Z</time></trkpt><trkpt lat="43.905912997502874" lon="12.771690149826894"><ele>224.0</ele><time>2026-04-25T07:55:02Z</time></trkpt><trkpt lat="43.90576053621864" lon="12.771627716890752"><ele>225.0</ele><time>2026-04-25T07:55:03Z</time></trkpt><trkpt lat="43.90561758437364" lon="12.77154308566852"><ele>226.0</ele><time>2026-04-25T07:55:04Z</time></trkpt><trkpt lat="43.90546843814944" lon="12.771452290626797"><ele>227.0</ele><time>2026-04-25T07:55:05Z</time></trkpt><trkpt lat="43.905312842399205" lon="12.77135676181279"><ele>227.0</ele><time>2026-04-25T07:55:06Z</time></trkpt><trkpt lat="43.90515662323885" lon="12.771264204422419"><ele>227.0</ele><time>2026-04-25T07:55:07Z</time></trkpt><trkpt lat="43.90499985639938" lon="12.7711713225433"><ele>227.0</ele><time>2026-04-25T07:55:08Z</time></trkpt><trkpt lat="43.90484409346919" lon="12.771082618858841"><ele>222.66666666666669</ele><time>2026-04-25T07:55:09Z</time></trkpt><trkpt lat="43.90468447629368" lon="12.771001990404931"><ele>218.33333333333331</ele><time>2026-04-25T07:55:10Z</time></trkpt><trkpt lat="43.90452329716125" lon="12.770927180281772"><ele>214.0</ele><time>2026-04-25T07:55:11Z</time></trkpt><trkpt lat="43.904358790462865" lon="12.770856204782154"><ele>212.66666666666666</ele><time>2026-04-25T07:55:12Z</time></trkpt><trkpt lat="43.9041872611978" lon="12.770805417488372"><ele>211.33333333333331</ele><time>2026-04-25T07:55:13Z</time></trkpt><trkpt lat="43.90401941652549" lon="12.770734576083507"><ele>210.0</ele><time>2026-04-25T07:55:14Z</time></trkpt><trkpt lat="43.90385203936753" lon="12.770641687054754"><ele>210.0</ele><time>2026-04-25T07:55:15Z</time></trkpt><trkpt lat="43.90367792321488" lon="12.770568767083862"><ele>210.0</ele><time>2026-04-25T07:55:16Z</time></trkpt><trkpt lat="43.90349551157805" lon="12.770516115160405"><ele>210.0</ele><time>2026-04-25T07:55:17Z</time></trkpt><trkpt lat="43.90331558466504" lon="12.770437652587002"><ele>208.66666666666669</ele><time>2026-04-25T07:55:18Z</time></trkpt><trkpt lat="43.90313573549608" lon="12.770361023353441"><ele>207.33333333333334</ele><time>2026-04-25T07:55:19Z</time></trkpt><trkpt lat="43.90295498694698" lon="12.770285494370736"><ele>206.0</ele><time>2026-04-25T07:55:20Z</time></trkpt><trkpt lat="43.90277605416144" lon="12.77020987754751"><ele>204.0</ele><time>2026-04-25T07:55:21Z</time></trkpt><trkpt lat="43.902599718437145" lon="12.770135249488316"><ele>202.0</ele><time>2026-04-25T07:55:22Z</time></trkpt><trkpt lat="43.902424404934955" lon="12.77005675003139"><ele>200.0</ele><time>2026-04-25T07:55:23Z</time></trkpt><trkpt lat="43.90225308529204" lon="12.769980663444697"><ele>200.0</ele><time>2026-04-25T07:55:24Z</time></trkpt><trkpt lat="43.90208516166324" lon="12.769903019971112"><ele>200.0</ele><time>2026-04-25T07:55:25Z</time></trkpt><trkpt lat="43.90191426067739" lon="12.769829719262002"><ele>200.0</ele><time>2026-04-25T07:55:26Z</time></trkpt><trkpt lat="43.901742396318966" lon="12.769768185930289"><ele>200.0</ele><time>2026-04-25T07:55:27Z</time></trkpt><trkpt lat="43.90156908989582" lon="12.76973511582348"><ele>200.0</ele><time>2026-04-25T07:55:28Z</time></trkpt><trkpt lat="43.90139480640171" lon="12.769716674778882"><ele>200.0</ele><time>2026-04-25T07:55:29Z</time></trkpt><trkpt lat="43.901223707673076" lon="12.769698707975579"><ele>200.0</ele><time>2026-04-25T07:55:30Z</time></trkpt><trkpt lat="43.90105222291533" lon="12.769682847259876"><ele>200.0</ele><time>2026-04-25T07:55:31Z</time></trkpt><trkpt lat="43.90088086819089" lon="12.76966058956867"><ele>200.0</ele><time>2026-04-25T07:55:32Z</time></trkpt><trkpt lat="43.9007095848829" lon="12.769636505738081"><ele>199.66666666666669</ele><time>2026-04-25T07:55:33Z</time></trkpt><trkpt lat="43.900541507968235" lon="12.769613729979667"><ele>199.33333333333331</ele><time>2026-04-25T07:55:34Z</time></trkpt><trkpt lat="43.90037421928714" lon="12.769588164464706"><ele>199.0</ele><time>2026-04-25T07:55:35Z</time></trkpt><trkpt lat="43.90021036758846" lon="12.769568534390038"><ele>197.66666666666666</ele><time>2026-04-25T07:55:36Z</time></trkpt><trkpt lat="43.900051693726375" lon="12.769552806703894"><ele>196.33333333333331</ele><time>2026-04-25T07:55:37Z</time></trkpt><trkpt lat="43.89989675760817" lon="12.769524758554555"><ele>195.0</ele><time>2026-04-25T07:55:38Z</time></trkpt><trkpt lat="43.8997420005321" lon="12.76947707991551"><ele>195.0</ele><time>2026-04-25T07:55:39Z</time></trkpt><trkpt lat="43.89958897806435" lon="12.769405832651747"><ele>195.0</ele><time>2026-04-25T07:55:40Z</time></trkpt><trkpt lat="43.89943606829761" lon="12.769317810107006"><ele>195.0</ele><time>2026-04-25T07:55:41Z</time></trkpt><trkpt lat="43.899282125533695" lon="12.76921751406997"><ele>196.0</ele><time>2026-04-25T07:55:42Z</time></trkpt><trkpt lat="43.899130178414325" lon="12.769108307998634"><ele>197.0</ele><time>2026-04-25T07:55:43Z</time></trkpt><trkpt lat="43.8989795605331" lon="12.768987419374534"><ele>198.0</ele><time>2026-04-25T07:55:44Z</time></trkpt><trkpt lat="43.89884247256512" lon="12.768828743043564"><ele>198.0</ele><time>2026-04-25T07:55:45Z</time></trkpt><trkpt lat="43.89870227262481" lon="12.768673116784836"><ele>198.0</ele><time>2026-04-25T07:55:46Z</time></trkpt><trkpt lat="43.89855338340364" lon="12.768531086860337"><ele>198.0</ele><time>2026-04-25T07:55:47Z</time></trkpt><trkpt lat="43.8984173692669" lon="12.768371430128814"><ele>198.0</ele><time>2026-04-25T07:55:48Z</time></trkpt><trkpt lat="43.89828028655563" lon="12.76822637371158"><ele>198.0</ele><time>2026-04-25T07:55:49Z</time></trkpt><trkpt lat="43.8981404016636" lon="12.76809754360448"><ele>198.0</ele><time>2026-04-25T07:55:50Z</time></trkpt><trkpt lat="43.897987935935674" lon="12.767992674769399"><ele>198.0</ele><time>2026-04-25T07:55:51Z</time></trkpt><trkpt lat="43.89783151585636" lon="12.767898279233277"><ele>198.0</ele><time>2026-04-25T07:55:52Z</time></trkpt><trkpt lat="43.89767417618786" lon="12.767806897989498"><ele>198.0</ele><time>2026-04-25T07:55:53Z</time></trkpt><trkpt lat="43.897523070655616" lon="12.767703505724805"><ele>199.66666666666669</ele><time>2026-04-25T07:55:54Z</time></trkpt><trkpt lat="43.89736074857629" lon="12.767606617665772"><ele>201.33333333333334</ele><time>2026-04-25T07:55:55Z</time></trkpt><trkpt lat="43.897200775422036" lon="12.767519618848178"><ele>203.0</ele><time>2026-04-25T07:55:56Z</time></trkpt><trkpt lat="43.897035844876676" lon="12.767451251576295"><ele>203.0</ele><time>2026-04-25T07:55:57Z</time></trkpt><trkpt lat="43.89687193103018" lon="12.767380273223663"><ele>203.0</ele><time>2026-04-25T07:55:58Z</time></trkpt><trkpt lat="43.89672279613791" lon="12.7673089832979"><ele>203.0</ele><time>2026-04-25T07:55:58.999Z</time></trkpt><trkpt lat="43.89658048181219" lon="12.76724136320579"><ele>200.5</ele><time>2026-04-25T07:55:59.999Z</time></trkpt><trkpt lat="43.89643808232362" lon="12.767188790966117"><ele>198.0</ele><time>2026-04-25T07:56:00.999Z</time></trkpt><trkpt lat="43.89630359805677" lon="12.767141574543484"><ele>195.5</ele><time>2026-04-25T07:56:01.999Z</time></trkpt><trkpt lat="43.89617830245424" lon="12.76708976513163"><ele>193.0</ele><time>2026-04-25T07:56:02.999Z</time></trkpt><trkpt lat="43.896052240079236" lon="12.76702772410028"><ele>193.0</ele><time>2026-04-25T07:56:03.999Z</time></trkpt><trkpt lat="43.895932253570464" lon="12.76696657489124"><ele>193.0</ele><time>2026-04-25T07:56:04.999Z</time></trkpt><trkpt lat="43.895811747788635" lon="12.766906401287635"><ele>193.0</ele><time>2026-04-25T07:56:05.999Z</time></trkpt><trkpt lat="43.89569519565592" lon="12.766851713573125"><ele>193.0</ele><time>2026-04-25T07:56:06.999Z</time></trkpt><trkpt lat="43.895584486898116" lon="12.766795710282766"><ele>193.83333333333331</ele><time>2026-04-25T07:56:07.999Z</time></trkpt><trkpt lat="43.895488839295865" lon="12.766749607288595"><ele>194.66666666666666</ele><time>2026-04-25T07:56:08.999Z</time></trkpt><trkpt lat="43.89539898145981" lon="12.766708162695277"><ele>195.5</ele><time>2026-04-25T07:56:09.999Z</time></trkpt><trkpt lat="43.89531103843621" lon="12.76666584322218"><ele>196.33333333333331</ele><time>2026-04-25T07:56:10.999Z</time></trkpt><trkpt lat="43.89523940235794" lon="12.766615970465248"><ele>197.16666666666666</ele><time>2026-04-25T07:56:12Z</time></trkpt><trkpt lat="43.89518121292789" lon="12.766562223511405"><ele>198.0</ele><time>2026-04-25T07:56:13Z</time></trkpt><trkpt lat="43.8951291914219" lon="12.76650308973104"><ele>195.5</ele><time>2026-04-25T07:56:14Z</time></trkpt><trkpt lat="43.895054899442854" lon="12.766433639275613"><ele>193.0</ele><time>2026-04-25T07:56:16Z</time></trkpt><trkpt lat="43.894982444709555" lon="12.766359413993417"><ele>190.5</ele><time>2026-04-25T07:56:18Z</time></trkpt><trkpt lat="43.89484490822587" lon="12.766491773119602"><ele>188.0</ele><time>2026-04-25T07:56:19Z</time></trkpt><trkpt lat="43.89474874704525" lon="12.766567093881369"><ele>188.0</ele><time>2026-04-25T07:56:20Z</time></trkpt><trkpt lat="43.89463631891786" lon="12.766635787968879"><ele>188.0</ele><time>2026-04-25T07:56:21Z</time></trkpt><trkpt lat="43.8944981442002" lon="12.766695346945548"><ele>188.0</ele><time>2026-04-25T07:56:22Z</time></trkpt><trkpt lat="43.89435343342453" lon="12.766756937778082"><ele>188.0</ele><time>2026-04-25T07:56:23Z</time></trkpt><trkpt lat="43.89421288907807" lon="12.766817198684736"><ele>186.0</ele><time>2026-04-25T07:56:24Z</time></trkpt><trkpt lat="43.894062833869114" lon="12.766879142709067"><ele>184.0</ele><time>2026-04-25T07:56:25Z</time></trkpt><trkpt lat="43.89390735382667" lon="12.76694201540384"><ele>182.0</ele><time>2026-04-25T07:56:26Z</time></trkpt><trkpt lat="43.89375222273538" lon="12.767001342374213"><ele>182.0</ele><time>2026-04-25T07:56:27Z</time></trkpt><trkpt lat="43.89360470657491" lon="12.767054188615413"><ele>182.0</ele><time>2026-04-25T07:56:28Z</time></trkpt><trkpt lat="43.89346731196631" lon="12.767101936906675"><ele>182.0</ele><time>2026-04-25T07:56:29Z</time></trkpt><trkpt lat="43.89333791647834" lon="12.767142029613103"><ele>182.0</ele><time>2026-04-25T07:56:30Z</time></trkpt><trkpt lat="43.893206961282814" lon="12.767157635837748"><ele>182.0</ele><time>2026-04-25T07:56:31Z</time></trkpt><trkpt lat="43.89307854004109" lon="12.767142189820984"><ele>182.0</ele><time>2026-04-25T07:56:32Z</time></trkpt><trkpt lat="43.89295329629551" lon="12.767096629303593"><ele>182.0</ele><time>2026-04-25T07:56:33Z</time></trkpt><trkpt lat="43.89283045431252" lon="12.767032290990395"><ele>182.0</ele><time>2026-04-25T07:56:34Z</time></trkpt><trkpt lat="43.89270778565663" lon="12.766955434487617"><ele>182.25</ele><time>2026-04-25T07:56:35Z</time></trkpt><trkpt lat="43.89258466182855" lon="12.76687225902502"><ele>182.5</ele><time>2026-04-25T07:56:36Z</time></trkpt><trkpt lat="43.89245932725112" lon="12.766786517756104"><ele>182.75</ele><time>2026-04-25T07:56:37Z</time></trkpt><trkpt lat="43.89233119589019" lon="12.766697934739206"><ele>183.0</ele><time>2026-04-25T07:56:38Z</time></trkpt><trkpt lat="43.892198322465866" lon="12.766603713287537"><ele>183.0</ele><time>2026-04-25T07:56:39Z</time></trkpt><trkpt lat="43.89206275215993" lon="12.766505172434364"><ele>183.0</ele><time>2026-04-25T07:56:40Z</time></trkpt><trkpt lat="43.89193180705133" lon="12.766412368204792"><ele>183.0</ele><time>2026-04-25T07:56:41Z</time></trkpt><trkpt lat="43.8918011957681" lon="12.766314361848984"><ele>183.0</ele><time>2026-04-25T07:56:42Z</time></trkpt><trkpt lat="43.89166752816373" lon="12.766217731594024"><ele>183.33333333333334</ele><time>2026-04-25T07:56:43Z</time></trkpt><trkpt lat="43.89152670306712" lon="12.76611790995179"><ele>183.66666666666669</ele><time>2026-04-25T07:56:44Z</time></trkpt><trkpt lat="43.891379886721744" lon="12.766019252680634"><ele>184.0</ele><time>2026-04-25T07:56:45Z</time></trkpt><trkpt lat="43.89122984018355" lon="12.765925679366543"><ele>180.66666666666669</ele><time>2026-04-25T07:56:46Z</time></trkpt><trkpt lat="43.89107082835208" lon="12.765848145133548"><ele>177.33333333333334</ele><time>2026-04-25T07:56:47Z</time></trkpt><trkpt lat="43.89090514475207" lon="12.765794852601468"><ele>174.0</ele><time>2026-04-25T07:56:48Z</time></trkpt><trkpt lat="43.890734394017095" lon="12.765752090098198"><ele>174.0</ele><time>2026-04-25T07:56:49Z</time></trkpt><trkpt lat="43.89055870877614" lon="12.765713327693812"><ele>174.0</ele><time>2026-04-25T07:56:50Z</time></trkpt><trkpt lat="43.89037899431146" lon="12.765666532720873"><ele>174.0</ele><time>2026-04-25T07:56:51Z</time></trkpt><trkpt lat="43.89019779251816" lon="12.76561088758488"><ele>175.0</ele><time>2026-04-25T07:56:52Z</time></trkpt><trkpt lat="43.89002340739192" lon="12.765546635472196"><ele>176.0</ele><time>2026-04-25T07:56:53Z</time></trkpt><trkpt lat="43.88985406076162" lon="12.765466479893279"><ele>177.0</ele><time>2026-04-25T07:56:54Z</time></trkpt><trkpt lat="43.8896866779225" lon="12.765367794309748"><ele>177.0</ele><time>2026-04-25T07:56:55Z</time></trkpt><trkpt lat="43.88952425184322" lon="12.765254269306748"><ele>177.0</ele><time>2026-04-25T07:56:56Z</time></trkpt><trkpt lat="43.889366709214144" lon="12.76512695050811"><ele>177.0</ele><time>2026-04-25T07:56:57Z</time></trkpt><trkpt lat="43.88920654769322" lon="12.765001117107273"><ele>174.33333333333334</ele><time>2026-04-25T07:56:58Z</time></trkpt><trkpt lat="43.88904161860682" lon="12.764883504314804"><ele>171.66666666666669</ele><time>2026-04-25T07:56:59Z</time></trkpt><trkpt lat="43.88887538836045" lon="12.764771643163288"><ele>169.0</ele><time>2026-04-25T07:57:00Z</time></trkpt><trkpt lat="43.888707776582784" lon="12.76466310161543"><ele>169.0</ele><time>2026-04-25T07:57:01Z</time></trkpt><trkpt lat="43.88854288012955" lon="12.764553175073482"><ele>169.0</ele><time>2026-04-25T07:57:02Z</time></trkpt><trkpt lat="43.888387429147635" lon="12.764446790087712"><ele>169.0</ele><time>2026-04-25T07:57:03Z</time></trkpt><trkpt lat="43.888237643140776" lon="12.764339373563404"><ele>166.66666666666669</ele><time>2026-04-25T07:57:04Z</time></trkpt><trkpt lat="43.88809619444505" lon="12.76422816040274"><ele>164.33333333333334</ele><time>2026-04-25T07:57:05Z</time></trkpt><trkpt lat="43.88795605628065" lon="12.76410413986662"><ele>162.0</ele><time>2026-04-25T07:57:06Z</time></trkpt><trkpt lat="43.887819571239106" lon="12.763961023233064"><ele>162.0</ele><time>2026-04-25T07:57:07Z</time></trkpt><trkpt lat="43.88770122648416" lon="12.763784393605686"><ele>162.0</ele><time>2026-04-25T07:57:08Z</time></trkpt><trkpt lat="43.88757545008913" lon="12.763605627183315"><ele>162.0</ele><time>2026-04-25T07:57:09Z</time></trkpt><trkpt lat="43.88744326068157" lon="12.763416109051882"><ele>160.0</ele><time>2026-04-25T07:57:10Z</time></trkpt><trkpt lat="43.88730924525713" lon="12.76322397273241"><ele>158.0</ele><time>2026-04-25T07:57:11Z</time></trkpt><trkpt lat="43.88717220262372" lon="12.763027806664384"><ele>156.0</ele><time>2026-04-25T07:57:12Z</time></trkpt><trkpt lat="43.88703433661932" lon="12.76283075329614"><ele>155.66666666666666</ele><time>2026-04-25T07:57:13Z</time></trkpt><trkpt lat="43.886893885003296" lon="12.762632490612566"><ele>155.33333333333331</ele><time>2026-04-25T07:57:14Z</time></trkpt><trkpt lat="43.88674852403357" lon="12.762436465621553"><ele>155.0</ele><time>2026-04-25T07:57:15Z</time></trkpt><trkpt lat="43.88659635567277" lon="12.76224797166558"><ele>155.0</ele><time>2026-04-25T07:57:16Z</time></trkpt><trkpt lat="43.886424230624854" lon="12.762091720637468"><ele>155.0</ele><time>2026-04-25T07:57:17Z</time></trkpt><trkpt lat="43.886260947687525" lon="12.761932010464918"><ele>155.0</ele><time>2026-04-25T07:57:18Z</time></trkpt><trkpt lat="43.88611323664982" lon="12.761763970614556"><ele>155.33333333333331</ele><time>2026-04-25T07:57:19Z</time></trkpt><trkpt lat="43.885967340935856" lon="12.7616238598422"><ele>155.66666666666666</ele><time>2026-04-25T07:57:20Z</time></trkpt><trkpt lat="43.88582400316127" lon="12.761486112073879"><ele>156.0</ele><time>2026-04-25T07:57:21Z</time></trkpt><trkpt lat="43.88567009325635" lon="12.761360791965311"><ele>156.0</ele><time>2026-04-25T07:57:22Z</time></trkpt><trkpt lat="43.88554454904024" lon="12.761183656855877"><ele>156.0</ele><time>2026-04-25T07:57:23Z</time></trkpt><trkpt lat="43.885414814408016" lon="12.761012356301638"><ele>156.0</ele><time>2026-04-25T07:57:24Z</time></trkpt><trkpt lat="43.88527428483165" lon="12.76085081311287"><ele>156.0</ele><time>2026-04-25T07:57:25Z</time></trkpt><trkpt lat="43.88514696170926" lon="12.760670036139157"><ele>156.0</ele><time>2026-04-25T07:57:26Z</time></trkpt><trkpt lat="43.885019917039294" lon="12.760489083820987"><ele>156.0</ele><time>2026-04-25T07:57:27Z</time></trkpt><trkpt lat="43.88488893992375" lon="12.76030728201968"><ele>155.0</ele><time>2026-04-25T07:57:28Z</time></trkpt><trkpt lat="43.8847714699412" lon="12.760108260971762"><ele>154.0</ele><time>2026-04-25T07:57:29Z</time></trkpt><trkpt lat="43.88462901797396" lon="12.759939430181364"><ele>153.0</ele><time>2026-04-25T07:57:30Z</time></trkpt><trkpt lat="43.884500042859074" lon="12.75974976003919"><ele>153.0</ele><time>2026-04-25T07:57:31Z</time></trkpt><trkpt lat="43.88436940458618" lon="12.7595602550273"><ele>153.0</ele><time>2026-04-25T07:57:32Z</time></trkpt><trkpt lat="43.88423786219389" lon="12.759376744140063"><ele>153.0</ele><time>2026-04-25T07:57:33Z</time></trkpt><trkpt lat="43.884105929422454" lon="12.759187466242619"><ele>151.66666666666666</ele><time>2026-04-25T07:57:34Z</time></trkpt><trkpt lat="43.883971865452686" lon="12.758999042660234"><ele>150.33333333333331</ele><time>2026-04-25T07:57:35Z</time></trkpt><trkpt lat="43.883836833289294" lon="12.758811014198706"><ele>149.0</ele><time>2026-04-25T07:57:36Z</time></trkpt><trkpt lat="43.8837016354618" lon="12.758622410369693"><ele>148.0</ele><time>2026-04-25T07:57:37Z</time></trkpt><trkpt lat="43.883567357099764" lon="12.758436614451373"><ele>147.0</ele><time>2026-04-25T07:57:38Z</time></trkpt><trkpt lat="43.883436564520856" lon="12.758254994962881"><ele>146.0</ele><time>2026-04-25T07:57:39Z</time></trkpt><trkpt lat="43.88331250140834" lon="12.75808240027965"><ele>146.0</ele><time>2026-04-25T07:57:40Z</time></trkpt><trkpt lat="43.883187775331095" lon="12.757908596368877"><ele>146.0</ele><time>2026-04-25T07:57:41Z</time></trkpt><trkpt lat="43.88306239348125" lon="12.757733164741074"><ele>146.0</ele><time>2026-04-25T07:57:42Z</time></trkpt><trkpt lat="43.882939152129886" lon="12.757558673979666"><ele>144.66666666666666</ele><time>2026-04-25T07:57:43Z</time></trkpt><trkpt lat="43.882822119600284" lon="12.757390865291388"><ele>143.33333333333334</ele><time>2026-04-25T07:57:44Z</time></trkpt><trkpt lat="43.882713821441214" lon="12.757232535135785"><ele>142.0</ele><time>2026-04-25T07:57:44.999Z</time></trkpt><trkpt lat="43.88261070262246" lon="12.757064555529459"><ele>143.0</ele><time>2026-04-25T07:57:45.999Z</time></trkpt><trkpt lat="43.882512706383345" lon="12.75688776346024"><ele>144.0</ele><time>2026-04-25T07:57:46.999Z</time></trkpt><trkpt lat="43.882418883152255" lon="12.756702449945479"><ele>145.0</ele><time>2026-04-25T07:57:47.999Z</time></trkpt><trkpt lat="43.88233309386686" lon="12.756507841364408"><ele>145.33333333333334</ele><time>2026-04-25T07:57:48.999Z</time></trkpt><trkpt lat="43.88224996385645" lon="12.75630643960806"><ele>145.66666666666666</ele><time>2026-04-25T07:57:49.999Z</time></trkpt><trkpt lat="43.88216803533424" lon="12.756100082338941"><ele>146.0</ele><time>2026-04-25T07:57:50.999Z</time></trkpt><trkpt lat="43.88210076017376" lon="12.755878820119364"><ele>144.33333333333331</ele><time>2026-04-25T07:57:51.999Z</time></trkpt><trkpt lat="43.88202072239101" lon="12.755669373459972"><ele>142.66666666666666</ele><time>2026-04-25T07:57:52.999Z</time></trkpt><trkpt lat="43.88192496731771" lon="12.755464735149102"><ele>141.0</ele><time>2026-04-25T07:57:53.999Z</time></trkpt><trkpt lat="43.881844046671574" lon="12.7552437380279"><ele>143.66666666666666</ele><time>2026-04-25T07:57:54.999Z</time></trkpt><trkpt lat="43.88176308885961" lon="12.755017466830678"><ele>146.33333333333331</ele><time>2026-04-25T07:57:55.999Z</time></trkpt><trkpt lat="43.88168729831389" lon="12.754795583711694"><ele>149.0</ele><time>2026-04-25T07:57:56.999Z</time></trkpt><trkpt lat="43.88161347821145" lon="12.754580797137628"><ele>149.0</ele><time>2026-04-25T07:57:57.999Z</time></trkpt><trkpt lat="43.88154609909344" lon="12.754376789217561"><ele>149.0</ele><time>2026-04-25T07:57:58.999Z</time></trkpt><trkpt lat="43.88150086631911" lon="12.754167985485998"><ele>149.0</ele><time>2026-04-25T07:57:59.999Z</time></trkpt><trkpt lat="43.88143787778527" lon="12.753966392308783"><ele>148.0</ele><time>2026-04-25T07:58:00.999Z</time></trkpt><trkpt lat="43.881399656930284" lon="12.753749115423705"><ele>147.0</ele><time>2026-04-25T07:58:01.999Z</time></trkpt><trkpt lat="43.881363471938464" lon="12.753529640606734"><ele>146.0</ele><time>2026-04-25T07:58:02.999Z</time></trkpt><trkpt lat="43.88132290756306" lon="12.753304027919896"><ele>145.66666666666666</ele><time>2026-04-25T07:58:03.999Z</time></trkpt><trkpt lat="43.88127404903461" lon="12.753079841358874"><ele>145.33333333333334</ele><time>2026-04-25T07:58:04.999Z</time></trkpt><trkpt lat="43.88120735718443" lon="12.75285928767823"><ele>145.0</ele><time>2026-04-25T07:58:05.999Z</time></trkpt><trkpt lat="43.88112722110207" lon="12.752644143897799"><ele>144.66666666666669</ele><time>2026-04-25T07:58:06.999Z</time></trkpt><trkpt lat="43.88104732156205" lon="12.752424642969185"><ele>144.33333333333334</ele><time>2026-04-25T07:58:07.999Z</time></trkpt><trkpt lat="43.88096264626576" lon="12.75220366574583"><ele>144.0</ele><time>2026-04-25T07:58:08.999Z</time></trkpt><trkpt lat="43.88087224403662" lon="12.751983686172158"><ele>145.33333333333334</ele><time>2026-04-25T07:58:09.999Z</time></trkpt><trkpt lat="43.88077191585403" lon="12.751768187561263"><ele>146.66666666666669</ele><time>2026-04-25T07:58:10.999Z</time></trkpt><trkpt lat="43.88065860317865" lon="12.751566146609619"><ele>148.0</ele><time>2026-04-25T07:58:11.999Z</time></trkpt><trkpt lat="43.8805390979596" lon="12.751371203569835"><ele>148.0</ele><time>2026-04-25T07:58:12.999Z</time></trkpt><trkpt lat="43.88042531199185" lon="12.751172102947232"><ele>148.0</ele><time>2026-04-25T07:58:13.999Z</time></trkpt><trkpt lat="43.880324530852654" lon="12.75096343844516"><ele>148.0</ele><time>2026-04-25T07:58:14.999Z</time></trkpt><trkpt lat="43.880224662985306" lon="12.75074668403118"><ele>148.0</ele><time>2026-04-25T07:58:15.999Z</time></trkpt><trkpt lat="43.88012639745796" lon="12.750520483369975"><ele>148.0</ele><time>2026-04-25T07:58:16.999Z</time></trkpt><trkpt lat="43.88003015288929" lon="12.750286110073965"><ele>148.0</ele><time>2026-04-25T07:58:18Z</time></trkpt><trkpt lat="43.87993229830756" lon="12.75004658256315"><ele>146.66666666666669</ele><time>2026-04-25T07:58:19Z</time></trkpt><trkpt lat="43.8798307286457" lon="12.749810594991615"><ele>145.33333333333334</ele><time>2026-04-25T07:58:20Z</time></trkpt><trkpt lat="43.87972843674987" lon="12.749577429442772"><ele>144.0</ele><time>2026-04-25T07:58:21Z</time></trkpt><trkpt lat="43.87963110312672" lon="12.749350886361455"><ele>143.66666666666666</ele><time>2026-04-25T07:58:22Z</time></trkpt><trkpt lat="43.87953450463992" lon="12.749129549557237"><ele>143.33333333333331</ele><time>2026-04-25T07:58:23Z</time></trkpt><trkpt lat="43.87942996215583" lon="12.748915652269755"><ele>143.0</ele><time>2026-04-25T07:58:24Z</time></trkpt><trkpt lat="43.87931841281682" lon="12.748711010501362"><ele>144.33333333333331</ele><time>2026-04-25T07:58:25Z</time></trkpt><trkpt lat="43.8792000537383" lon="12.748514835486692"><ele>145.66666666666666</ele><time>2026-04-25T07:58:26Z</time></trkpt><trkpt lat="43.87907796507488" lon="12.748324759142733"><ele>147.0</ele><time>2026-04-25T07:58:27Z</time></trkpt><trkpt lat="43.878967161443164" lon="12.748138282043874"><ele>147.0</ele><time>2026-04-25T07:58:28Z</time></trkpt><trkpt lat="43.878871597442966" lon="12.747961664230381"><ele>147.0</ele><time>2026-04-25T07:58:29Z</time></trkpt><trkpt lat="43.87878358877759" lon="12.747780036849587"><ele>147.0</ele><time>2026-04-25T07:58:30Z</time></trkpt><trkpt lat="43.878708837394754" lon="12.747575475098664"><ele>146.33333333333334</ele><time>2026-04-25T07:58:31Z</time></trkpt><trkpt lat="43.878638388107035" lon="12.747352042310863"><ele>145.66666666666669</ele><time>2026-04-25T07:58:32Z</time></trkpt><trkpt lat="43.87856788429355" lon="12.747114097729991"><ele>145.0</ele><time>2026-04-25T07:58:33Z</time></trkpt><trkpt lat="43.87849137655836" lon="12.7468688882361"><ele>145.0</ele><time>2026-04-25T07:58:34Z</time></trkpt><trkpt lat="43.87841238225429" lon="12.746617786153823"><ele>145.0</ele><time>2026-04-25T07:58:35Z</time></trkpt><trkpt lat="43.87833306210082" lon="12.746364876180879"><ele>145.0</ele><time>2026-04-25T07:58:36Z</time></trkpt><trkpt lat="43.87825366989687" lon="12.746116409905834"><ele>145.0</ele><time>2026-04-25T07:58:37Z</time></trkpt><trkpt lat="43.878178667912884" lon="12.745878077779476"><ele>145.0</ele><time>2026-04-25T07:58:38Z</time></trkpt><trkpt lat="43.87810363704763" lon="12.745644989363555"><ele>145.0</ele><time>2026-04-25T07:58:39Z</time></trkpt><trkpt lat="43.87802799548058" lon="12.74542858238708"><ele>145.0</ele><time>2026-04-25T07:58:40Z</time></trkpt><trkpt lat="43.87794186328583" lon="12.745233867702611"><ele>145.0</ele><time>2026-04-25T07:58:41Z</time></trkpt><trkpt lat="43.877826770932856" lon="12.745043107447719"><ele>145.0</ele><time>2026-04-25T07:58:42Z</time></trkpt><trkpt lat="43.87769272908378" lon="12.744861414994482"><ele>148.0</ele><time>2026-04-25T07:58:43Z</time></trkpt><trkpt lat="43.87755177113262" lon="12.744682732316903"><ele>151.0</ele><time>2026-04-25T07:58:44Z</time></trkpt><trkpt lat="43.87740891664737" lon="12.744498016251125"><ele>154.0</ele><time>2026-04-25T07:58:45Z</time></trkpt><trkpt lat="43.87726864019453" lon="12.744313881985219"><ele>154.0</ele><time>2026-04-25T07:58:46Z</time></trkpt><trkpt lat="43.87713254476034" lon="12.744137929171426"><ele>154.0</ele><time>2026-04-25T07:58:47Z</time></trkpt><trkpt lat="43.87699454897929" lon="12.743969397298258"><ele>154.0</ele><time>2026-04-25T07:58:48Z</time></trkpt><trkpt lat="43.87686521767861" lon="12.743810847416844"><ele>157.33333333333334</ele><time>2026-04-25T07:58:49Z</time></trkpt><trkpt lat="43.87673874090319" lon="12.74365706694798"><ele>160.66666666666666</ele><time>2026-04-25T07:58:50Z</time></trkpt><trkpt lat="43.876608623250625" lon="12.743503888274002"><ele>164.0</ele><time>2026-04-25T07:58:51Z</time></trkpt><trkpt lat="43.876476629291446" lon="12.743348815134347"><ele>164.0</ele><time>2026-04-25T07:58:52Z</time></trkpt><trkpt lat="43.87634368758078" lon="12.74318696295997"><ele>164.0</ele><time>2026-04-25T07:58:53Z</time></trkpt><trkpt lat="43.87621161954882" lon="12.743013220238517"><ele>164.0</ele><time>2026-04-25T07:58:54Z</time></trkpt><trkpt lat="43.87607867296562" lon="12.742829631130022"><ele>163.33333333333331</ele><time>2026-04-25T07:58:55Z</time></trkpt><trkpt lat="43.87594136493674" lon="12.742648654727779"><ele>162.66666666666666</ele><time>2026-04-25T07:58:56Z</time></trkpt><trkpt lat="43.87580462056474" lon="12.742466129816204"><ele>162.0</ele><time>2026-04-25T07:58:57Z</time></trkpt><trkpt lat="43.87566651569543" lon="12.742280609931113"><ele>163.66666666666666</ele><time>2026-04-25T07:58:58Z</time></trkpt><trkpt lat="43.87553610012357" lon="12.742092337765003"><ele>165.33333333333331</ele><time>2026-04-25T07:58:59Z</time></trkpt><trkpt lat="43.875412117257895" lon="12.741919399760878"><ele>167.0</ele><time>2026-04-25T07:59:00Z</time></trkpt><trkpt lat="43.875294746374365" lon="12.74174797878796"><ele>168.66666666666666</ele><time>2026-04-25T07:59:01Z</time></trkpt><trkpt lat="43.87518714594986" lon="12.741580733561195"><ele>170.33333333333334</ele><time>2026-04-25T07:59:02Z</time></trkpt><trkpt lat="43.87509130424945" lon="12.741402155236102"><ele>172.0</ele><time>2026-04-25T07:59:03Z</time></trkpt><trkpt lat="43.875000439848" lon="12.741221840180554"><ele>169.0</ele><time>2026-04-25T07:59:04Z</time></trkpt><trkpt lat="43.87490167571334" lon="12.741052634736647"><ele>166.0</ele><time>2026-04-25T07:59:05Z</time></trkpt><trkpt lat="43.87478956208759" lon="12.74091445238549"><ele>163.0</ele><time>2026-04-25T07:59:06Z</time></trkpt><trkpt lat="43.87465069674751" lon="12.740820129494715"><ele>163.0</ele><time>2026-04-25T07:59:07Z</time></trkpt><trkpt lat="43.87449325696169" lon="12.740759756444572"><ele>163.0</ele><time>2026-04-25T07:59:08Z</time></trkpt><trkpt lat="43.87432623046231" lon="12.740719633167569"><ele>163.0</ele><time>2026-04-25T07:59:09Z</time></trkpt><trkpt lat="43.87415558209559" lon="12.740675550619928"><ele>159.33333333333334</ele><time>2026-04-25T07:59:10Z</time></trkpt><trkpt lat="43.873980817500005" lon="12.740621706830623"><ele>155.66666666666666</ele><time>2026-04-25T07:59:11Z</time></trkpt><trkpt lat="43.87380287963214" lon="12.740560852832099"><ele>152.0</ele><time>2026-04-25T07:59:12Z</time></trkpt><trkpt lat="43.87362066148996" lon="12.740494583153334"><ele>149.33333333333331</ele><time>2026-04-25T07:59:13Z</time></trkpt><trkpt lat="43.873434369086546" lon="12.740424087638056"><ele>146.66666666666666</ele><time>2026-04-25T07:59:14Z</time></trkpt><trkpt lat="43.8732488876107" lon="12.740353941850538"><ele>144.0</ele><time>2026-04-25T07:59:15Z</time></trkpt><trkpt lat="43.8730632858895" lon="12.74027583340747"><ele>147.66666666666666</ele><time>2026-04-25T07:59:16Z</time></trkpt><trkpt lat="43.872892553439854" lon="12.740186335923006"><ele>151.33333333333331</ele><time>2026-04-25T07:59:17Z</time></trkpt><trkpt lat="43.87275359256735" lon="12.740080617555817"><ele>155.0</ele><time>2026-04-25T07:59:18Z</time></trkpt><trkpt lat="43.87262444371959" lon="12.73995193977155"><ele>154.0</ele><time>2026-04-25T07:59:19Z</time></trkpt><trkpt lat="43.8725147143558" lon="12.739815318910587"><ele>153.0</ele><time>2026-04-25T07:59:20Z</time></trkpt><trkpt lat="43.87242738329727" lon="12.739677673096477"><ele>152.0</ele><time>2026-04-25T07:59:21Z</time></trkpt><trkpt lat="43.87235642078211" lon="12.73953068305499"><ele>151.0</ele><time>2026-04-25T07:59:22Z</time></trkpt><trkpt lat="43.87229978545249" lon="12.739365170595928"><ele>151.0</ele><time>2026-04-25T07:59:23Z</time></trkpt><trkpt lat="43.872266818109296" lon="12.739167622380975"><ele>151.0</ele><time>2026-04-25T07:59:24Z</time></trkpt><trkpt lat="43.87221186486867" lon="12.738972046472533"><ele>151.0</ele><time>2026-04-25T07:59:25Z</time></trkpt><trkpt lat="43.87217576667124" lon="12.73876041595981"><ele>150.0</ele><time>2026-04-25T07:59:26Z</time></trkpt><trkpt lat="43.87213434563792" lon="12.738547062207568"><ele>149.0</ele><time>2026-04-25T07:59:27Z</time></trkpt><trkpt lat="43.872084263743645" lon="12.738334803079578"><ele>148.0</ele><time>2026-04-25T07:59:28Z</time></trkpt><trkpt lat="43.87201268631058" lon="12.738132066331415"><ele>148.0</ele><time>2026-04-25T07:59:29Z</time></trkpt><trkpt lat="43.871912844801486" lon="12.737946300564877"><ele>148.0</ele><time>2026-04-25T07:59:30Z</time></trkpt><trkpt lat="43.87179095844115" lon="12.737775488561313"><ele>148.0</ele><time>2026-04-25T07:59:31Z</time></trkpt><trkpt lat="43.871647785006715" lon="12.737623308241606"><ele>147.0</ele><time>2026-04-25T07:59:32Z</time></trkpt><trkpt lat="43.87149086900851" lon="12.737486919481418"><ele>146.0</ele><time>2026-04-25T07:59:33Z</time></trkpt><trkpt lat="43.871328966130335" lon="12.737351584962704"><ele>145.0</ele><time>2026-04-25T07:59:34Z</time></trkpt><trkpt lat="43.87116697290646" lon="12.737211787273548"><ele>145.0</ele><time>2026-04-25T07:59:35Z</time></trkpt><trkpt lat="43.871005188886265" lon="12.73708350440782"><ele>145.0</ele><time>2026-04-25T07:59:36Z</time></trkpt><trkpt lat="43.87084743662292" lon="12.736981525051563"><ele>145.0</ele><time>2026-04-25T07:59:37Z</time></trkpt><trkpt lat="43.8706981897807" lon="12.736898202030643"><ele>143.33333333333334</ele><time>2026-04-25T07:59:38Z</time></trkpt><trkpt lat="43.870547835059824" lon="12.73681847766425"><ele>141.66666666666666</ele><time>2026-04-25T07:59:39Z</time></trkpt><trkpt lat="43.87039596125393" lon="12.736735776341042"><ele>140.0</ele><time>2026-04-25T07:59:40Z</time></trkpt><trkpt lat="43.87024304250156" lon="12.73664736230839"><ele>139.0</ele><time>2026-04-25T07:59:41Z</time></trkpt><trkpt lat="43.870091919950625" lon="12.73655144529683"><ele>138.0</ele><time>2026-04-25T07:59:42Z</time></trkpt><trkpt lat="43.86994335876287" lon="12.736442768147088"><ele>137.0</ele><time>2026-04-25T07:59:43Z</time></trkpt><trkpt lat="43.86979599051485" lon="12.736326380343213"><ele>137.0</ele><time>2026-04-25T07:59:44Z</time></trkpt><trkpt lat="43.869651840202586" lon="12.736203032519025"><ele>137.0</ele><time>2026-04-25T07:59:45Z</time></trkpt><trkpt lat="43.869509775254016" lon="12.736075199150212"><ele>137.0</ele><time>2026-04-25T07:59:45.999Z</time></trkpt><trkpt lat="43.86937009686243" lon="12.735942451478605"><ele>138.0</ele><time>2026-04-25T07:59:46.999Z</time></trkpt><trkpt lat="43.869230496786216" lon="12.735812511400566"><ele>139.0</ele><time>2026-04-25T07:59:47.999Z</time></trkpt><trkpt lat="43.869086582807434" lon="12.735690848453107"><ele>140.0</ele><time>2026-04-25T07:59:48.999Z</time></trkpt><trkpt lat="43.86894303024626" lon="12.735573293828748"><ele>140.0</ele><time>2026-04-25T07:59:49.999Z</time></trkpt><trkpt lat="43.86879899973455" lon="12.735460174581675"><ele>140.0</ele><time>2026-04-25T07:59:50.999Z</time></trkpt><trkpt lat="43.868657893196186" lon="12.73535269391237"><ele>140.0</ele><time>2026-04-25T07:59:51.999Z</time></trkpt><trkpt lat="43.868549651513256" lon="12.735264553641201"><ele>139.4</ele><time>2026-04-25T07:59:52.999Z</time></trkpt><trkpt lat="43.868460749430255" lon="12.735173018720232"><ele>138.8</ele><time>2026-04-25T07:59:53.999Z</time></trkpt><trkpt lat="43.86840345718419" lon="12.735062812292853"><ele>138.2</ele><time>2026-04-25T07:59:54.999Z</time></trkpt><trkpt lat="43.86837522083202" lon="12.73492077799286"><ele>137.6</ele><time>2026-04-25T07:59:55.999Z</time></trkpt><trkpt lat="43.86841098804862" lon="12.734777225547354"><ele>137.0</ele><time>2026-04-25T07:59:56.999Z</time></trkpt><trkpt lat="43.86846879533138" lon="12.734638369273583"><ele>137.0</ele><time>2026-04-25T07:59:57.999Z</time></trkpt><trkpt lat="43.868541206204235" lon="12.734478260034486"><ele>137.0</ele><time>2026-04-25T07:59:58.999Z</time></trkpt><trkpt lat="43.868621480205114" lon="12.734299470628686"><ele>137.0</ele><time>2026-04-25T07:59:59.999Z</time></trkpt><trkpt lat="43.86870269091741" lon="12.734122413934204"><ele>137.0</ele><time>2026-04-25T08:00:00.999Z</time></trkpt><trkpt lat="43.86877284847471" lon="12.733940758414207"><ele>134.33333333333331</ele><time>2026-04-25T08:00:01.999Z</time></trkpt><trkpt lat="43.86888071558168" lon="12.733798789151745"><ele>131.66666666666666</ele><time>2026-04-25T08:00:02.999Z</time></trkpt><trkpt lat="43.86898586477667" lon="12.733646112004802"><ele>129.0</ele><time>2026-04-25T08:00:03.999Z</time></trkpt><trkpt lat="43.86909672408647" lon="12.733491652131693"><ele>128.0</ele><time>2026-04-25T08:00:04.999Z</time></trkpt><trkpt lat="43.86919654925645" lon="12.733324241901796"><ele>127.0</ele><time>2026-04-25T08:00:05.999Z</time></trkpt><trkpt lat="43.869299066450985" lon="12.733180963095787"><ele>126.0</ele><time>2026-04-25T08:00:06.999Z</time></trkpt><trkpt lat="43.86939651721505" lon="12.73307459534996"><ele>125.0</ele><time>2026-04-25T08:00:07.999Z</time></trkpt><trkpt lat="43.86945785455073" lon="12.732931628964947"><ele>123.25</ele><time>2026-04-25T08:00:08.999Z</time></trkpt><trkpt lat="43.869501092235915" lon="12.732772917850175"><ele>121.5</ele><time>2026-04-25T08:00:09.999Z</time></trkpt><trkpt lat="43.86950950542945" lon="12.732589939678265"><ele>119.75</ele><time>2026-04-25T08:00:10.999Z</time></trkpt><trkpt lat="43.86949351155377" lon="12.732404587773136"><ele>118.0</ele><time>2026-04-25T08:00:11.999Z</time></trkpt><trkpt lat="43.86947268234058" lon="12.732218250933748"><ele>118.0</ele><time>2026-04-25T08:00:12.999Z</time></trkpt><trkpt lat="43.86944595792842" lon="12.732051943102425"><ele>118.0</ele><time>2026-04-25T08:00:13.999Z</time></trkpt><trkpt lat="43.8694031847774" lon="12.73188620094777"><ele>118.0</ele><time>2026-04-25T08:00:14.999Z</time></trkpt><trkpt lat="43.86933966495576" lon="12.731726731814053"><ele>118.0</ele><time>2026-04-25T08:00:15.999Z</time></trkpt><trkpt lat="43.86925829751337" lon="12.73157189882105"><ele>118.66666666666667</ele><time>2026-04-25T08:00:16.999Z</time></trkpt><trkpt lat="43.86916539580723" lon="12.731418332269353"><ele>119.33333333333334</ele><time>2026-04-25T08:00:17.999Z</time></trkpt><trkpt lat="43.8690644812811" lon="12.731254959355635"><ele>120.0</ele><time>2026-04-25T08:00:18.999Z</time></trkpt><trkpt lat="43.868951069517294" lon="12.73108385952748"><ele>120.0</ele><time>2026-04-25T08:00:19.999Z</time></trkpt><trkpt lat="43.86882624207963" lon="12.730906157766821"><ele>120.0</ele><time>2026-04-25T08:00:20.999Z</time></trkpt><trkpt lat="43.868680631487294" lon="12.730738635961409"><ele>120.0</ele><time>2026-04-25T08:00:21.999Z</time></trkpt><trkpt lat="43.868520884266836" lon="12.730589114144351"><ele>118.0</ele><time>2026-04-25T08:00:22.999Z</time></trkpt><trkpt lat="43.8683615215106" lon="12.730460610907304"><ele>116.0</ele><time>2026-04-25T08:00:24Z</time></trkpt><trkpt lat="43.86818953273444" lon="12.730343035681521"><ele>114.0</ele><time>2026-04-25T08:00:25Z</time></trkpt><trkpt lat="43.86800834744864" lon="12.730235049708089"><ele>114.33333333333334</ele><time>2026-04-25T08:00:26Z</time></trkpt><trkpt lat="43.867818934994624" lon="12.730135760394916"><ele>114.66666666666667</ele><time>2026-04-25T08:00:27Z</time></trkpt><trkpt lat="43.867621397015405" lon="12.730041832038125"><ele>115.0</ele><time>2026-04-25T08:00:28Z</time></trkpt><trkpt lat="43.86742010395293" lon="12.729945996257895"><ele>114.33333333333334</ele><time>2026-04-25T08:00:29Z</time></trkpt><trkpt lat="43.867216558216974" lon="12.729847872351202"><ele>113.66666666666666</ele><time>2026-04-25T08:00:30Z</time></trkpt><trkpt lat="43.867012904125104" lon="12.729745960206584"><ele>113.0</ele><time>2026-04-25T08:00:31Z</time></trkpt><trkpt lat="43.86680849945613" lon="12.729644123148658"><ele>112.66666666666666</ele><time>2026-04-25T08:00:32Z</time></trkpt><trkpt lat="43.86661080931586" lon="12.729539467586607"><ele>112.33333333333334</ele><time>2026-04-25T08:00:33Z</time></trkpt><trkpt lat="43.86641271627975" lon="12.729426309094476"><ele>112.0</ele><time>2026-04-25T08:00:34Z</time></trkpt><trkpt lat="43.86621595501969" lon="12.729302561766044"><ele>112.0</ele><time>2026-04-25T08:00:35Z</time></trkpt><trkpt lat="43.86602062157527" lon="12.72917359392699"><ele>112.0</ele><time>2026-04-25T08:00:36Z</time></trkpt><trkpt lat="43.86582637774031" lon="12.729046219847646"><ele>112.0</ele><time>2026-04-25T08:00:37Z</time></trkpt><trkpt lat="43.86563300096785" lon="12.728925752858904"><ele>111.66666666666667</ele><time>2026-04-25T08:00:38Z</time></trkpt><trkpt lat="43.86544046562189" lon="12.72880604640656"><ele>111.33333333333334</ele><time>2026-04-25T08:00:39Z</time></trkpt><trkpt lat="43.865249118390615" lon="12.72868616727114"><ele>111.0</ele><time>2026-04-25T08:00:40Z</time></trkpt><trkpt lat="43.86505886943146" lon="12.728565954939713"><ele>111.33333333333334</ele><time>2026-04-25T08:00:41Z</time></trkpt><trkpt lat="43.86486995723046" lon="12.728448621492703"><ele>111.66666666666667</ele><time>2026-04-25T08:00:42Z</time></trkpt><trkpt lat="43.86468848451892" lon="12.728337492887677"><ele>112.0</ele><time>2026-04-25T08:00:43Z</time></trkpt><trkpt lat="43.864520159339634" lon="12.728235546031042"><ele>112.0</ele><time>2026-04-25T08:00:44Z</time></trkpt><trkpt lat="43.864368334802315" lon="12.728138964202467"><ele>112.0</ele><time>2026-04-25T08:00:45Z</time></trkpt><trkpt lat="43.86423020026689" lon="12.728036691089914"><ele>112.0</ele><time>2026-04-25T08:00:46Z</time></trkpt><trkpt lat="43.86409341345663" lon="12.727916372855528"><ele>112.0</ele><time>2026-04-25T08:00:47Z</time></trkpt><trkpt lat="43.863960363313026" lon="12.727777945015852"><ele>112.0</ele><time>2026-04-25T08:00:48Z</time></trkpt><trkpt lat="43.863831360475075" lon="12.727613195520012"><ele>112.0</ele><time>2026-04-25T08:00:49Z</time></trkpt><trkpt lat="43.863704645998894" lon="12.727441001412894"><ele>112.0</ele><time>2026-04-25T08:00:50Z</time></trkpt><trkpt lat="43.863573082387035" lon="12.727261799689684"><ele>112.0</ele><time>2026-04-25T08:00:51Z</time></trkpt><trkpt lat="43.86344011154741" lon="12.727085695180998"><ele>112.0</ele><time>2026-04-25T08:00:52Z</time></trkpt><trkpt lat="43.86330420900326" lon="12.726901427825647"><ele>112.0</ele><time>2026-04-25T08:00:53Z</time></trkpt><trkpt lat="43.86316627724682" lon="12.726715347956919"><ele>112.0</ele><time>2026-04-25T08:00:54Z</time></trkpt><trkpt lat="43.8630237900138" lon="12.726523653928602"><ele>112.0</ele><time>2026-04-25T08:00:55Z</time></trkpt><trkpt lat="43.86287924787831" lon="12.72632829638499"><ele>112.0</ele><time>2026-04-25T08:00:56Z</time></trkpt><trkpt lat="43.86273235937952" lon="12.72613325377813"><ele>112.0</ele><time>2026-04-25T08:00:57Z</time></trkpt><trkpt lat="43.86258521780554" lon="12.725937578670605"><ele>112.0</ele><time>2026-04-25T08:00:58Z</time></trkpt><trkpt lat="43.86244288214289" lon="12.725743853027225"><ele>111.33333333333334</ele><time>2026-04-25T08:00:59Z</time></trkpt><trkpt lat="43.86230555740248" lon="12.725544805217805"><ele>110.66666666666666</ele><time>2026-04-25T08:01:00Z</time></trkpt><trkpt lat="43.86219584966853" lon="12.725313401991018"><ele>110.0</ele><time>2026-04-25T08:01:01Z</time></trkpt><trkpt lat="43.86207750168437" lon="12.725087474998858"><ele>110.0</ele><time>2026-04-25T08:01:02Z</time></trkpt><trkpt lat="43.86196235688635" lon="12.724859036492088"><ele>110.0</ele><time>2026-04-25T08:01:03Z</time></trkpt><trkpt lat="43.86184812862357" lon="12.72463018595008"><ele>110.0</ele><time>2026-04-25T08:01:04Z</time></trkpt><trkpt lat="43.86173497025274" lon="12.724407152824508"><ele>111.66666666666666</ele><time>2026-04-25T08:01:05Z</time></trkpt><trkpt lat="43.86162755479147" lon="12.72418859306619"><ele>113.33333333333334</ele><time>2026-04-25T08:01:06Z</time></trkpt><trkpt lat="43.86152795652056" lon="12.723961960951655"><ele>115.0</ele><time>2026-04-25T08:01:07Z</time></trkpt><trkpt lat="43.86144403056327" lon="12.723738378849802"><ele>114.33333333333334</ele><time>2026-04-25T08:01:08Z</time></trkpt><trkpt lat="43.86138643947457" lon="12.723490157694464"><ele>113.66666666666666</ele><time>2026-04-25T08:01:09Z</time></trkpt><trkpt lat="43.861356928286156" lon="12.723234640564408"><ele>113.0</ele><time>2026-04-25T08:01:10Z</time></trkpt><trkpt lat="43.86134053283635" lon="12.722968518996378"><ele>112.66666666666666</ele><time>2026-04-25T08:01:11Z</time></trkpt><trkpt lat="43.86132502767094" lon="12.722702251943224"><ele>112.33333333333334</ele><time>2026-04-25T08:01:12Z</time></trkpt><trkpt lat="43.86130397648304" lon="12.722433574621732"><ele>112.0</ele><time>2026-04-25T08:01:13Z</time></trkpt><trkpt lat="43.861282325329114" lon="12.722165176851938"><ele>112.0</ele><time>2026-04-25T08:01:14Z</time></trkpt><trkpt lat="43.86126540637974" lon="12.721918334470038"><ele>112.0</ele><time>2026-04-25T08:01:15Z</time></trkpt><trkpt lat="43.86125751453607" lon="12.721687731026252"><ele>112.0</ele><time>2026-04-25T08:01:16Z</time></trkpt><trkpt lat="43.86126181879512" lon="12.721457697901739"><ele>112.75</ele><time>2026-04-25T08:01:17Z</time></trkpt><trkpt lat="43.86127832627704" lon="12.721249011340593"><ele>113.5</ele><time>2026-04-25T08:01:18Z</time></trkpt><trkpt lat="43.86129512524661" lon="12.72105703834148"><ele>114.25</ele><time>2026-04-25T08:01:19Z</time></trkpt><trkpt lat="43.86131120142801" lon="12.720876204181463"><ele>115.0</ele><time>2026-04-25T08:01:20Z</time></trkpt><trkpt lat="43.861322641257374" lon="12.720700747136195"><ele>116.0</ele><time>2026-04-25T08:01:21Z</time></trkpt><trkpt lat="43.86132494990563" lon="12.720511436834633"><ele>117.0</ele><time>2026-04-25T08:01:22Z</time></trkpt><trkpt lat="43.86129693573676" lon="12.720316963173872"><ele>118.0</ele><time>2026-04-25T08:01:23Z</time></trkpt><trkpt lat="43.861271812471784" lon="12.720114591147635"><ele>119.0</ele><time>2026-04-25T08:01:24Z</time></trkpt><trkpt lat="43.861234736836685" lon="12.719910394336393"><ele>119.66666666666666</ele><time>2026-04-25T08:01:25Z</time></trkpt><trkpt lat="43.861189074347294" lon="12.719703241949011"><ele>120.33333333333334</ele><time>2026-04-25T08:01:26Z</time></trkpt><trkpt lat="43.86114141991597" lon="12.719489288483985"><ele>121.0</ele><time>2026-04-25T08:01:27Z</time></trkpt><trkpt lat="43.86109446060327" lon="12.719271528758002"><ele>119.66666666666667</ele><time>2026-04-25T08:01:28Z</time></trkpt><trkpt lat="43.86104744373658" lon="12.719053959330722"><ele>118.33333333333334</ele><time>2026-04-25T08:01:29Z</time></trkpt><trkpt lat="43.86100117484185" lon="12.718843984016429"><ele>117.0</ele><time>2026-04-25T08:01:30Z</time></trkpt><trkpt lat="43.86095407039354" lon="12.718640217832634"><ele>116.33333333333334</ele><time>2026-04-25T08:01:31Z</time></trkpt><trkpt lat="43.860908222933105" lon="12.718434546904263"><ele>115.66666666666667</ele><time>2026-04-25T08:01:32Z</time></trkpt><trkpt lat="43.86086680619003" lon="12.718232764502366"><ele>115.0</ele><time>2026-04-25T08:01:33Z</time></trkpt><trkpt lat="43.86082621711682" lon="12.718030320806077"><ele>115.0</ele><time>2026-04-25T08:01:34Z</time></trkpt><trkpt lat="43.860782803415475" lon="12.717833817065348"><ele>115.0</ele><time>2026-04-25T08:01:35Z</time></trkpt><trkpt lat="43.86073955779814" lon="12.717638482108104"><ele>115.0</ele><time>2026-04-25T08:01:36Z</time></trkpt><trkpt lat="43.860697348878915" lon="12.71744578707144"><ele>115.0</ele><time>2026-04-25T08:01:37Z</time></trkpt><trkpt lat="43.86065566103801" lon="12.717255257459161"><ele>115.25</ele><time>2026-04-25T08:01:38Z</time></trkpt><trkpt lat="43.860614093997846" lon="12.717068105537708"><ele>115.5</ele><time>2026-04-25T08:01:39Z</time></trkpt><trkpt lat="43.86057273793536" lon="12.716878001808729"><ele>115.75</ele><time>2026-04-25T08:01:40Z</time></trkpt><trkpt lat="43.86052856856452" lon="12.71668924282245"><ele>116.0</ele><time>2026-04-25T08:01:41Z</time></trkpt><trkpt lat="43.86048405785973" lon="12.716497763213898"><ele>116.25</ele><time>2026-04-25T08:01:42Z</time></trkpt><trkpt lat="43.86044434208067" lon="12.71630200120763"><ele>116.5</ele><time>2026-04-25T08:01:43Z</time></trkpt><trkpt lat="43.86040264280739" lon="12.71610608948061"><ele>116.75</ele><time>2026-04-25T08:01:44Z</time></trkpt><trkpt lat="43.86036371133988" lon="12.715907387375387"><ele>117.0</ele><time>2026-04-25T08:01:45Z</time></trkpt><trkpt lat="43.86033198663664" lon="12.715706908550704"><ele>116.5</ele><time>2026-04-25T08:01:46Z</time></trkpt><trkpt lat="43.860309691361394" lon="12.715508168578033"><ele>116.0</ele><time>2026-04-25T08:01:47Z</time></trkpt><trkpt lat="43.86029913933533" lon="12.715308086983715"><ele>115.5</ele><time>2026-04-25T08:01:48Z</time></trkpt><trkpt lat="43.86029739350641" lon="12.715109994249365"><ele>115.0</ele><time>2026-04-25T08:01:49Z</time></trkpt><trkpt lat="43.86029887638908" lon="12.714911661571076"><ele>114.5</ele><time>2026-04-25T08:01:50Z</time></trkpt><trkpt lat="43.860295205994326" lon="12.714711088710162"><ele>114.0</ele><time>2026-04-25T08:01:50.999Z</time></trkpt><trkpt lat="43.860287246552076" lon="12.714509376258068"><ele>113.5</ele><time>2026-04-25T08:01:51.999Z</time></trkpt><trkpt lat="43.86027865836447" lon="12.714309512321853"><ele>113.0</ele><time>2026-04-25T08:01:52.999Z</time></trkpt><trkpt lat="43.86027232584649" lon="12.714105692081763"><ele>113.0</ele><time>2026-04-25T08:01:53.999Z</time></trkpt><trkpt lat="43.86027420608913" lon="12.713898841483152"><ele>113.0</ele><time>2026-04-25T08:01:54.999Z</time></trkpt><trkpt lat="43.860302093065116" lon="12.713688946292333"><ele>113.0</ele><time>2026-04-25T08:01:55.999Z</time></trkpt><trkpt lat="43.86031433810737" lon="12.71347373245851"><ele>114.0</ele><time>2026-04-25T08:01:56.999Z</time></trkpt><trkpt lat="43.86031086363745" lon="12.713258170395209"><ele>115.0</ele><time>2026-04-25T08:01:57.999Z</time></trkpt><trkpt lat="43.86032200556114" lon="12.713051009434265"><ele>116.0</ele><time>2026-04-25T08:01:58.999Z</time></trkpt><trkpt lat="43.86032748096625" lon="12.71284723802824"><ele>117.0</ele><time>2026-04-25T08:01:59.999Z</time></trkpt><trkpt lat="43.860322484179086" lon="12.712645668245912"><ele>118.0</ele><time>2026-04-25T08:02:00.999Z</time></trkpt><trkpt lat="43.86030779604362" lon="12.712448902349875"><ele>119.0</ele><time>2026-04-25T08:02:01.999Z</time></trkpt><trkpt lat="43.86028424215744" lon="12.712255974693647"><ele>120.0</ele><time>2026-04-25T08:02:02.999Z</time></trkpt><trkpt lat="43.86025054797722" lon="12.712066979676798"><ele>120.25</ele><time>2026-04-25T08:02:03.999Z</time></trkpt><trkpt lat="43.8602071766043" lon="12.71188316752101"><ele>120.5</ele><time>2026-04-25T08:02:04.999Z</time></trkpt><trkpt lat="43.860153787691864" lon="12.71170365378958"><ele>120.75</ele><time>2026-04-25T08:02:05.999Z</time></trkpt><trkpt lat="43.86010081139487" lon="12.711521190774697"><ele>121.0</ele><time>2026-04-25T08:02:06.999Z</time></trkpt><trkpt lat="43.86004128094446" lon="12.71133913469777"><ele>121.0</ele><time>2026-04-25T08:02:07.999Z</time></trkpt><trkpt lat="43.85998211180648" lon="12.711157900779689"><ele>121.0</ele><time>2026-04-25T08:02:08.999Z</time></trkpt><trkpt lat="43.859921206783206" lon="12.71098190681761"><ele>121.0</ele><time>2026-04-25T08:02:09.999Z</time></trkpt><trkpt lat="43.85985926916981" lon="12.71080924036905"><ele>121.0</ele><time>2026-04-25T08:02:10.999Z</time></trkpt><trkpt lat="43.859797041190426" lon="12.710642294602572"><ele>121.0</ele><time>2026-04-25T08:02:11.999Z</time></trkpt><trkpt lat="43.85974061470972" lon="12.710478821829273"><ele>121.0</ele><time>2026-04-25T08:02:12.999Z</time></trkpt><trkpt lat="43.85968884883576" lon="12.710321139346467"><ele>121.0</ele><time>2026-04-25T08:02:13.999Z</time></trkpt><trkpt lat="43.85963910123511" lon="12.710172232558353"><ele>121.0</ele><time>2026-04-25T08:02:14.999Z</time></trkpt><trkpt lat="43.85958960445062" lon="12.710023049266793"><ele>121.0</ele><time>2026-04-25T08:02:15.999Z</time></trkpt><trkpt lat="43.859544424959815" lon="12.709873084566977"><ele>121.0</ele><time>2026-04-25T08:02:16.999Z</time></trkpt><trkpt lat="43.859502851843075" lon="12.709721308590698"><ele>121.0</ele><time>2026-04-25T08:02:17.999Z</time></trkpt><trkpt lat="43.85946869673236" lon="12.709563516453343"><ele>121.0</ele><time>2026-04-25T08:02:18.999Z</time></trkpt><trkpt lat="43.85944199675324" lon="12.709400856312783"><ele>120.8</ele><time>2026-04-25T08:02:19.999Z</time></trkpt><trkpt lat="43.859425694199764" lon="12.709239843169588"><ele>120.6</ele><time>2026-04-25T08:02:20.999Z</time></trkpt><trkpt lat="43.85941473158892" lon="12.709091487771216"><ele>120.4</ele><time>2026-04-25T08:02:21.999Z</time></trkpt><trkpt lat="43.859405115658035" lon="12.70896126198352"><ele>120.2</ele><time>2026-04-25T08:02:22.999Z</time></trkpt><trkpt lat="43.85939525166907" lon="12.708843988562558"><ele>120.0</ele><time>2026-04-25T08:02:23.999Z</time></trkpt><trkpt lat="43.85939159128306" lon="12.708739388800756"><ele>120.0</ele><time>2026-04-25T08:02:24.999Z</time></trkpt><trkpt lat="43.85940546893018" lon="12.708649948730868"><ele>120.0</ele><time>2026-04-25T08:02:25.999Z</time></trkpt><trkpt lat="43.85936197690606" lon="12.708492770446021"><ele>120.0</ele><time>2026-04-25T08:02:27.999Z</time></trkpt><trkpt lat="43.8592915024255" lon="12.708428163118182"><ele>120.0</ele><time>2026-04-25T08:02:28.999Z</time></trkpt><trkpt lat="43.85922616652461" lon="12.708329908928565"><ele>120.0</ele><time>2026-04-25T08:02:30Z</time></trkpt><trkpt lat="43.85917195991493" lon="12.708202951276766"><ele>122.5</ele><time>2026-04-25T08:02:31Z</time></trkpt><trkpt lat="43.85911824156221" lon="12.708061197648629"><ele>125.0</ele><time>2026-04-25T08:02:32Z</time></trkpt><trkpt lat="43.85906343508122" lon="12.707907477178775"><ele>127.5</ele><time>2026-04-25T08:02:33Z</time></trkpt><trkpt lat="43.859016037618424" lon="12.70777111642094"><ele>130.0</ele><time>2026-04-25T08:02:34Z</time></trkpt><trkpt lat="43.85896915585576" lon="12.707635905767967"><ele>130.5</ele><time>2026-04-25T08:02:35Z</time></trkpt><trkpt lat="43.858931113385815" lon="12.707489482477294"><ele>131.0</ele><time>2026-04-25T08:02:36Z</time></trkpt><trkpt lat="43.858899166275386" lon="12.70733289700175"><ele>131.5</ele><time>2026-04-25T08:02:37Z</time></trkpt><trkpt lat="43.85886889791488" lon="12.7071696543492"><ele>132.0</ele><time>2026-04-25T08:02:38Z</time></trkpt><trkpt lat="43.858856462758425" lon="12.70700071215463"><ele>132.5</ele><time>2026-04-25T08:02:39Z</time></trkpt><trkpt lat="43.85885459614215" lon="12.706823128456655"><ele>133.0</ele><time>2026-04-25T08:02:40Z</time></trkpt><trkpt lat="43.85885503390954" lon="12.7066423928943"><ele>133.5</ele><time>2026-04-25T08:02:41Z</time></trkpt><trkpt lat="43.858854762716994" lon="12.706464091797447"><ele>134.0</ele><time>2026-04-25T08:02:42Z</time></trkpt><trkpt lat="43.858856093240476" lon="12.70628180670733"><ele>134.0</ele><time>2026-04-25T08:02:43Z</time></trkpt><trkpt lat="43.85885608466133" lon="12.70609746904057"><ele>134.0</ele><time>2026-04-25T08:02:44Z</time></trkpt><trkpt lat="43.85885869874649" lon="12.705913092952516"><ele>134.0</ele><time>2026-04-25T08:02:45Z</time></trkpt><trkpt lat="43.85886611810368" lon="12.705724186284405"><ele>134.0</ele><time>2026-04-25T08:02:46Z</time></trkpt><trkpt lat="43.858882094954225" lon="12.70554335599751"><ele>134.5</ele><time>2026-04-25T08:02:47Z</time></trkpt><trkpt lat="43.85889991432297" lon="12.70537308290855"><ele>135.0</ele><time>2026-04-25T08:02:48Z</time></trkpt><trkpt lat="43.85892038706506" lon="12.705212240992044"><ele>135.5</ele><time>2026-04-25T08:02:49Z</time></trkpt><trkpt lat="43.85893646798001" lon="12.705060857174006"><ele>136.0</ele><time>2026-04-25T08:02:50Z</time></trkpt><trkpt lat="43.85895349741638" lon="12.704913745802456"><ele>136.8</ele><time>2026-04-25T08:02:51Z</time></trkpt><trkpt lat="43.85897868318583" lon="12.704772990465425"><ele>137.6</ele><time>2026-04-25T08:02:52Z</time></trkpt><trkpt lat="43.85901524866246" lon="12.704638048829047"><ele>138.4</ele><time>2026-04-25T08:02:53Z</time></trkpt><trkpt lat="43.85906435905749" lon="12.704509290346017"><ele>139.2</ele><time>2026-04-25T08:02:54Z</time></trkpt><trkpt lat="43.85914779806105" lon="12.704410585200556"><ele>140.0</ele><time>2026-04-25T08:02:55Z</time></trkpt><trkpt lat="43.8592192075196" lon="12.70428378108091"><ele>140.2</ele><time>2026-04-25T08:02:56Z</time></trkpt><trkpt lat="43.859304062796134" lon="12.704177535084124"><ele>140.4</ele><time>2026-04-25T08:02:57Z</time></trkpt><trkpt lat="43.85938332271866" lon="12.704075796264584"><ele>140.6</ele><time>2026-04-25T08:02:58Z</time></trkpt><trkpt lat="43.85945655503055" lon="12.704012723946962"><ele>140.8</ele><time>2026-04-25T08:02:59Z</time></trkpt><trkpt lat="43.85953019967404" lon="12.703887725813763"><ele>141.0</ele><time>2026-04-25T08:03:01Z</time></trkpt><trkpt lat="43.85958804113447" lon="12.703816244405736"><ele>141.0</ele><time>2026-04-25T08:03:02Z</time></trkpt><trkpt lat="43.85965849024084" lon="12.703744498865206"><ele>141.0</ele><time>2026-04-25T08:03:03Z</time></trkpt><trkpt lat="43.85973317874573" lon="12.703668127712946"><ele>141.0</ele><time>2026-04-25T08:03:04Z</time></trkpt><trkpt lat="43.85983528186545" lon="12.70363559429538"><ele>141.0</ele><time>2026-04-25T08:03:05Z</time></trkpt><trkpt lat="43.859924868168044" lon="12.703560239042803"><ele>141.0</ele><time>2026-04-25T08:03:06Z</time></trkpt><trkpt lat="43.860020894018184" lon="12.70347922930827"><ele>141.0</ele><time>2026-04-25T08:03:07Z</time></trkpt><trkpt lat="43.86012126349213" lon="12.703389844727768"><ele>141.0</ele><time>2026-04-25T08:03:08Z</time></trkpt><trkpt lat="43.86022089974877" lon="12.703297949235747"><ele>141.0</ele><time>2026-04-25T08:03:09Z</time></trkpt><trkpt lat="43.860315525862205" lon="12.703210593570343"><ele>141.0</ele><time>2026-04-25T08:03:10Z</time></trkpt><trkpt lat="43.860405693443795" lon="12.703127214076453"><ele>141.0</ele><time>2026-04-25T08:03:11Z</time></trkpt><trkpt lat="43.86048784268492" lon="12.703051249375331"><ele>141.0</ele><time>2026-04-25T08:03:12Z</time></trkpt><trkpt lat="43.86056133219632" lon="12.702992614673853"><ele>141.0</ele><time>2026-04-25T08:03:13Z</time></trkpt><trkpt lat="43.86062834696777" lon="12.702936172732217"><ele>141.0</ele><time>2026-04-25T08:03:14Z</time></trkpt><trkpt lat="43.860702419466236" lon="12.702935610295194"><ele>141.0</ele><time>2026-04-25T08:03:15Z</time></trkpt><trkpt lat="43.860766219288344" lon="12.70299885927254"><ele>141.0</ele><time>2026-04-25T08:03:16Z</time></trkpt><trkpt lat="43.860834068787305" lon="12.703048138410981"><ele>141.0</ele><time>2026-04-25T08:03:17Z</time></trkpt><trkpt lat="43.86091232251641" lon="12.703097622511905"><ele>141.0</ele><time>2026-04-25T08:03:18Z</time></trkpt><trkpt lat="43.860999103154484" lon="12.703147059504802"><ele>141.0</ele><time>2026-04-25T08:03:19Z</time></trkpt><trkpt lat="43.86109056368441" lon="12.703199162442159"><ele>141.0</ele><time>2026-04-25T08:03:20Z</time></trkpt><trkpt lat="43.8611889642815" lon="12.703257333226203"><ele>141.0</ele><time>2026-04-25T08:03:21Z</time></trkpt><trkpt lat="43.86129079507961" lon="12.703320255201122"><ele>140.2</ele><time>2026-04-25T08:03:22Z</time></trkpt><trkpt lat="43.8613964121996" lon="12.70338549488868"><ele>139.39999999999998</ele><time>2026-04-25T08:03:23Z</time></trkpt><trkpt lat="43.86150793945291" lon="12.703433351139802"><ele>138.6</ele><time>2026-04-25T08:03:24Z</time></trkpt><trkpt lat="43.86160042329424" lon="12.703491703083277"><ele>137.79999999999998</ele><time>2026-04-25T08:03:25Z</time></trkpt><trkpt lat="43.861682969742894" lon="12.703544467929964"><ele>137.0</ele><time>2026-04-25T08:03:26Z</time></trkpt><trkpt lat="43.86175067117052" lon="12.703587564988162"><ele>136.2</ele><time>2026-04-25T08:03:27Z</time></trkpt><trkpt lat="43.861848858496366" lon="12.703635236503754"><ele>135.39999999999998</ele><time>2026-04-25T08:03:29Z</time></trkpt><trkpt lat="43.861922150738835" lon="12.703448626807063"><ele>134.60000000000002</ele><time>2026-04-25T08:03:31Z</time></trkpt><trkpt lat="43.86192437303077" lon="12.703334481457672"><ele>133.8</ele><time>2026-04-25T08:03:32Z</time></trkpt><trkpt lat="43.861913494487496" lon="12.703209066933983"><ele>133.0</ele><time>2026-04-25T08:03:33Z</time></trkpt><trkpt lat="43.86189106925367" lon="12.703076899378788"><ele>132.6</ele><time>2026-04-25T08:03:34Z</time></trkpt><trkpt lat="43.86184993880948" lon="12.702933523317778"><ele>132.20000000000002</ele><time>2026-04-25T08:03:35Z</time></trkpt><trkpt lat="43.86180456898525" lon="12.702796920580782"><ele>131.8</ele><time>2026-04-25T08:03:36Z</time></trkpt><trkpt lat="43.86175771755864" lon="12.702657128148866"><ele>131.4</ele><time>2026-04-25T08:03:37Z</time></trkpt><trkpt lat="43.86170720193638" lon="12.702511381627444"><ele>131.0</ele><time>2026-04-25T08:03:38Z</time></trkpt><trkpt lat="43.86164903006566" lon="12.702363033280903"><ele>131.0</ele><time>2026-04-25T08:03:39Z</time></trkpt><trkpt lat="43.8615852336945" lon="12.702210502819698"><ele>131.0</ele><time>2026-04-25T08:03:40Z</time></trkpt><trkpt lat="43.861525051723284" lon="12.70204787339739"><ele>131.0</ele><time>2026-04-25T08:03:41Z</time></trkpt><trkpt lat="43.8614692574811" lon="12.70187232425903"><ele>131.0</ele><time>2026-04-25T08:03:42Z</time></trkpt><trkpt lat="43.8614289454392" lon="12.701690044077042"><ele>128.5</ele><time>2026-04-25T08:03:43Z</time></trkpt><trkpt lat="43.86140081130986" lon="12.70149662680242"><ele>126.0</ele><time>2026-04-25T08:03:44Z</time></trkpt><trkpt lat="43.8613792558341" lon="12.701299190182821"><ele>123.5</ele><time>2026-04-25T08:03:45Z</time></trkpt><trkpt lat="43.861353958461194" lon="12.701091293757813"><ele>121.0</ele><time>2026-04-25T08:03:46Z</time></trkpt><trkpt lat="43.861313857468886" lon="12.700880187186808"><ele>118.0</ele><time>2026-04-25T08:03:47Z</time></trkpt><trkpt lat="43.86125942437977" lon="12.700669032135924"><ele>115.0</ele><time>2026-04-25T08:03:48Z</time></trkpt><trkpt lat="43.86119697678748" lon="12.70046108231408"><ele>112.0</ele><time>2026-04-25T08:03:49Z</time></trkpt><trkpt lat="43.86112940541771" lon="12.700260500638004"><ele>110.33333333333334</ele><time>2026-04-25T08:03:50Z</time></trkpt><trkpt lat="43.86105864570303" lon="12.70006175243459"><ele>108.66666666666666</ele><time>2026-04-25T08:03:51Z</time></trkpt><trkpt lat="43.860979288178235" lon="12.699870905629458"><ele>107.0</ele><time>2026-04-25T08:03:52Z</time></trkpt><trkpt lat="43.860899279852724" lon="12.699683616105762"><ele>108.25</ele><time>2026-04-25T08:03:53Z</time></trkpt><trkpt lat="43.860820347225584" lon="12.699503226756486"><ele>109.5</ele><time>2026-04-25T08:03:54Z</time></trkpt><trkpt lat="43.8607569541531" lon="12.699346002108868"><ele>110.75</ele><time>2026-04-25T08:03:55Z</time></trkpt><trkpt lat="43.86070748730474" lon="12.699212301042477"><ele>112.0</ele><time>2026-04-25T08:03:56Z</time></trkpt><trkpt lat="43.860666755201756" lon="12.699096626971581"><ele>112.0</ele><time>2026-04-25T08:03:57Z</time></trkpt><trkpt lat="43.86063497959708" lon="12.698984732444293"><ele>111.99999999999999</ele><time>2026-04-25T08:03:58Z</time></trkpt><trkpt lat="43.86061831353994" lon="12.698867541888642"><ele>111.99999999999999</ele><time>2026-04-25T08:03:59Z</time></trkpt><trkpt lat="43.860616940841155" lon="12.698730609291069"><ele>112.0</ele><time>2026-04-25T08:04:00Z</time></trkpt><trkpt lat="43.86065259301218" lon="12.698592380584142"><ele>112.0</ele><time>2026-04-25T08:04:01Z</time></trkpt><trkpt lat="43.86071287566912" lon="12.698464791883397"><ele>111.75</ele><time>2026-04-25T08:04:02Z</time></trkpt><trkpt lat="43.86079675233196" lon="12.698347094312116"><ele>111.5</ele><time>2026-04-25T08:04:03Z</time></trkpt><trkpt lat="43.860906348789605" lon="12.698254296776119"><ele>111.25</ele><time>2026-04-25T08:04:04Z</time></trkpt><trkpt lat="43.86100324687446" lon="12.698127225294666"><ele>111.0</ele><time>2026-04-25T08:04:05Z</time></trkpt><trkpt lat="43.86111441558046" lon="12.698017919262629"><ele>111.5</ele><time>2026-04-25T08:04:06Z</time></trkpt><trkpt lat="43.86123135586435" lon="12.697919396476207"><ele>112.0</ele><time>2026-04-25T08:04:07Z</time></trkpt><trkpt lat="43.86135680490342" lon="12.697835565241299"><ele>112.5</ele><time>2026-04-25T08:04:08Z</time></trkpt><trkpt lat="43.86149211491001" lon="12.697765655447677"><ele>113.0</ele><time>2026-04-25T08:04:08.999Z</time></trkpt><trkpt lat="43.86163320847147" lon="12.697705394196086"><ele>115.25</ele><time>2026-04-25T08:04:09.999Z</time></trkpt><trkpt lat="43.86178164122954" lon="12.697650903437326"><ele>117.5</ele><time>2026-04-25T08:04:10.999Z</time></trkpt><trkpt lat="43.861922378294864" lon="12.697596585378994"><ele>119.75</ele><time>2026-04-25T08:04:11.999Z</time></trkpt><trkpt lat="43.86206574624402" lon="12.697539522857705"><ele>122.0</ele><time>2026-04-25T08:04:12.999Z</time></trkpt><trkpt lat="43.86221130899346" lon="12.697479211931396"><ele>122.0</ele><time>2026-04-25T08:04:13.999Z</time></trkpt><trkpt lat="43.862358230050106" lon="12.697421066186225"><ele>122.0</ele><time>2026-04-25T08:04:14.999Z</time></trkpt><trkpt lat="43.86250586077964" lon="12.697363582009926"><ele>122.0</ele><time>2026-04-25T08:04:15.999Z</time></trkpt><trkpt lat="43.86265622605722" lon="12.697308306876966"><ele>122.75</ele><time>2026-04-25T08:04:16.999Z</time></trkpt><trkpt lat="43.862798241038185" lon="12.69725427040934"><ele>123.5</ele><time>2026-04-25T08:04:17.999Z</time></trkpt><trkpt lat="43.86293553384071" lon="12.697202153414587"><ele>124.25</ele><time>2026-04-25T08:04:18.999Z</time></trkpt><trkpt lat="43.86307499074673" lon="12.697152332192056"><ele>125.0</ele><time>2026-04-25T08:04:19.999Z</time></trkpt><trkpt lat="43.86321498706991" lon="12.697099159654998"><ele>125.0</ele><time>2026-04-25T08:04:20.999Z</time></trkpt><trkpt lat="43.86335417183383" lon="12.697053667381988"><ele>125.0</ele><time>2026-04-25T08:04:21.999Z</time></trkpt><trkpt lat="43.863496941905645" lon="12.697031795439631"><ele>125.0</ele><time>2026-04-25T08:04:22.999Z</time></trkpt><trkpt lat="43.863613990010144" lon="12.696963773467614"><ele>125.0</ele><time>2026-04-25T08:04:23.999Z</time></trkpt><trkpt lat="43.86371644262647" lon="12.696906158901191"><ele>128.25</ele><time>2026-04-25T08:04:24.999Z</time></trkpt><trkpt lat="43.86380754968079" lon="12.696827347860387"><ele>131.5</ele><time>2026-04-25T08:04:25.999Z</time></trkpt><trkpt lat="43.86388490988362" lon="12.696716117681955"><ele>134.75</ele><time>2026-04-25T08:04:26.999Z</time></trkpt><trkpt lat="43.863954699768314" lon="12.69659121767543"><ele>138.0</ele><time>2026-04-25T08:04:27.999Z</time></trkpt><trkpt lat="43.864024386238334" lon="12.69645932687871"><ele>138.0</ele><time>2026-04-25T08:04:28.999Z</time></trkpt><trkpt lat="43.86409488738976" lon="12.69632305951434"><ele>138.0</ele><time>2026-04-25T08:04:29.999Z</time></trkpt><trkpt lat="43.86416594522404" lon="12.696182605450076"><ele>138.0</ele><time>2026-04-25T08:04:30.999Z</time></trkpt><trkpt lat="43.86424081785547" lon="12.69604389339075"><ele>138.0</ele><time>2026-04-25T08:04:31.999Z</time></trkpt><trkpt lat="43.86431366187073" lon="12.695907935951668"><ele>140.5</ele><time>2026-04-25T08:04:32.999Z</time></trkpt><trkpt lat="43.864382624177786" lon="12.695770093033367"><ele>143.0</ele><time>2026-04-25T08:04:33.999Z</time></trkpt><trkpt lat="43.8644654529655" lon="12.695646664061048"><ele>145.5</ele><time>2026-04-25T08:04:34.999Z</time></trkpt><trkpt lat="43.86453956398015" lon="12.695513955046497"><ele>148.0</ele><time>2026-04-25T08:04:36Z</time></trkpt><trkpt lat="43.864644399088434" lon="12.695423935861845"><ele>148.0</ele><time>2026-04-25T08:04:37Z</time></trkpt><trkpt lat="43.86475699712941" lon="12.695368729386649"><ele>148.0</ele><time>2026-04-25T08:04:38Z</time></trkpt><trkpt lat="43.86487743904256" lon="12.695339489712188"><ele>148.0</ele><time>2026-04-25T08:04:39Z</time></trkpt><trkpt lat="43.865004064735025" lon="12.69531411979719"><ele>148.0</ele><time>2026-04-25T08:04:40Z</time></trkpt><trkpt lat="43.86512723330948" lon="12.695286891954192"><ele>149.16666666666669</ele><time>2026-04-25T08:04:41Z</time></trkpt><trkpt lat="43.86523614884045" lon="12.695257184070607"><ele>150.33333333333334</ele><time>2026-04-25T08:04:42Z</time></trkpt><trkpt lat="43.865328523857265" lon="12.695243253471688"><ele>151.5</ele><time>2026-04-25T08:04:43Z</time></trkpt><trkpt lat="43.865404662698246" lon="12.695192458096965"><ele>152.66666666666666</ele><time>2026-04-25T08:04:44Z</time></trkpt><trkpt lat="43.86546509462013" lon="12.695133229556042"><ele>153.83333333333331</ele><time>2026-04-25T08:04:45Z</time></trkpt><trkpt lat="43.86550866625984" lon="12.695044730146005"><ele>155.0</ele><time>2026-04-25T08:04:46Z</time></trkpt><trkpt lat="43.86552949020874" lon="12.694919172923342"><ele>156.5</ele><time>2026-04-25T08:04:47Z</time></trkpt><trkpt lat="43.86553278001883" lon="12.694775370653169"><ele>158.0</ele><time>2026-04-25T08:04:48Z</time></trkpt><trkpt lat="43.86551554642752" lon="12.694619767265651"><ele>159.5</ele><time>2026-04-25T08:04:49Z</time></trkpt><trkpt lat="43.86546751038793" lon="12.69446673747413"><ele>161.0</ele><time>2026-04-25T08:04:50Z</time></trkpt><trkpt lat="43.86538959449827" lon="12.694326863329454"><ele>162.5</ele><time>2026-04-25T08:04:51Z</time></trkpt><trkpt lat="43.865298895198386" lon="12.694203414294702"><ele>164.0</ele><time>2026-04-25T08:04:52Z</time></trkpt><trkpt lat="43.86521313607936" lon="12.69410046431533"><ele>165.5</ele><time>2026-04-25T08:04:53Z</time></trkpt><trkpt lat="43.865146949575895" lon="12.693978386557335"><ele>167.0</ele><time>2026-04-25T08:04:54Z</time></trkpt><trkpt lat="43.865104804915745" lon="12.693837580464834"><ele>167.0</ele><time>2026-04-25T08:04:55Z</time></trkpt><trkpt lat="43.86509910645474" lon="12.693685300502743"><ele>167.0</ele><time>2026-04-25T08:04:56Z</time></trkpt><trkpt lat="43.86511929269166" lon="12.693527952193635"><ele>167.0</ele><time>2026-04-25T08:04:57Z</time></trkpt><trkpt lat="43.86513875485235" lon="12.693370874109082"><ele>167.0</ele><time>2026-04-25T08:04:58Z</time></trkpt><trkpt lat="43.865132180856435" lon="12.693213563897142"><ele>168.25</ele><time>2026-04-25T08:04:59Z</time></trkpt><trkpt lat="43.86508169347112" lon="12.693066843254444"><ele>169.5</ele><time>2026-04-25T08:05:00Z</time></trkpt><trkpt lat="43.86499636435834" lon="12.692943936679084"><ele>170.75</ele><time>2026-04-25T08:05:01Z</time></trkpt><trkpt lat="43.86489098691156" lon="12.692851490577187"><ele>172.0</ele><time>2026-04-25T08:05:02Z</time></trkpt><trkpt lat="43.86477296078361" lon="12.692787709063927"><ele>171.5</ele><time>2026-04-25T08:05:03Z</time></trkpt><trkpt lat="43.864654121546344" lon="12.69272192162012"><ele>171.0</ele><time>2026-04-25T08:05:04Z</time></trkpt><trkpt lat="43.864526214513546" lon="12.69266904433502"><ele>170.5</ele><time>2026-04-25T08:05:05Z</time></trkpt><trkpt lat="43.864377240983764" lon="12.692641084492738"><ele>170.0</ele><time>2026-04-25T08:05:06Z</time></trkpt><trkpt lat="43.86424393321671" lon="12.692594208406037"><ele>172.25</ele><time>2026-04-25T08:05:07Z</time></trkpt><trkpt lat="43.864122327125784" lon="12.692555253981709"><ele>174.5</ele><time>2026-04-25T08:05:08Z</time></trkpt><trkpt lat="43.86399681998723" lon="12.692511745883206"><ele>176.75</ele><time>2026-04-25T08:05:09Z</time></trkpt><trkpt lat="43.86387324160109" lon="12.692450343239303"><ele>179.0</ele><time>2026-04-25T08:05:10Z</time></trkpt><trkpt lat="43.863751625216544" lon="12.692380682959534"><ele>179.0</ele><time>2026-04-25T08:05:11Z</time></trkpt><trkpt lat="43.86362930453614" lon="12.692309365242748"><ele>179.0</ele><time>2026-04-25T08:05:12Z</time></trkpt><trkpt lat="43.86350796234376" lon="12.692258009471932"><ele>179.0</ele><time>2026-04-25T08:05:13Z</time></trkpt><trkpt lat="43.8633884543924" lon="12.69225205414256"><ele>179.0</ele><time>2026-04-25T08:05:14Z</time></trkpt><trkpt lat="43.863270950490524" lon="12.69230343542245"><ele>181.5</ele><time>2026-04-25T08:05:15Z</time></trkpt><trkpt lat="43.86315926576287" lon="12.69239237209099"><ele>184.0</ele><time>2026-04-25T08:05:16Z</time></trkpt><trkpt lat="43.863046927946144" lon="12.692493759258166"><ele>186.5</ele><time>2026-04-25T08:05:17Z</time></trkpt><trkpt lat="43.86292405382012" lon="12.692582431522116"><ele>189.0</ele><time>2026-04-25T08:05:18Z</time></trkpt><trkpt lat="43.86278875246236" lon="12.692644287331262"><ele>189.0</ele><time>2026-04-25T08:05:19Z</time></trkpt><trkpt lat="43.86264154199286" lon="12.692682084934516"><ele>189.0</ele><time>2026-04-25T08:05:20Z</time></trkpt><trkpt lat="43.86248987152153" lon="12.692721822615852"><ele>189.0</ele><time>2026-04-25T08:05:21Z</time></trkpt><trkpt lat="43.86233219372503" lon="12.692763952875499"><ele>190.0</ele><time>2026-04-25T08:05:22Z</time></trkpt><trkpt lat="43.86218228054704" lon="12.692762389265372"><ele>191.0</ele><time>2026-04-25T08:05:23Z</time></trkpt><trkpt lat="43.86205098121668" lon="12.692724763028474"><ele>192.0</ele><time>2026-04-25T08:05:24Z</time></trkpt><trkpt lat="43.86193933064062" lon="12.692647997826091"><ele>193.0</ele><time>2026-04-25T08:05:25Z</time></trkpt><trkpt lat="43.861854671823764" lon="12.692529904966948"><ele>193.0</ele><time>2026-04-25T08:05:26Z</time></trkpt><trkpt lat="43.86179917991055" lon="12.692376650029466"><ele>193.0</ele><time>2026-04-25T08:05:27Z</time></trkpt><trkpt lat="43.861760790927164" lon="12.692204447526255"><ele>193.0</ele><time>2026-04-25T08:05:28Z</time></trkpt><trkpt lat="43.86172796973747" lon="12.692023363856448"><ele>193.0</ele><time>2026-04-25T08:05:29Z</time></trkpt><trkpt lat="43.86169972853589" lon="12.69183957266579"><ele>194.25</ele><time>2026-04-25T08:05:30Z</time></trkpt><trkpt lat="43.86167369070777" lon="12.691654018084156"><ele>195.5</ele><time>2026-04-25T08:05:31Z</time></trkpt><trkpt lat="43.86163534654656" lon="12.69148661156359"><ele>196.75</ele><time>2026-04-25T08:05:32Z</time></trkpt><trkpt lat="43.86157766728083" lon="12.69135979636049"><ele>198.0</ele><time>2026-04-25T08:05:33Z</time></trkpt><trkpt lat="43.8614917288128" lon="12.691262129205764"><ele>198.0</ele><time>2026-04-25T08:05:34Z</time></trkpt><trkpt lat="43.86138060165268" lon="12.691199603443579"><ele>198.0</ele><time>2026-04-25T08:05:35Z</time></trkpt><trkpt lat="43.861250909532835" lon="12.691182568532206"><ele>198.0</ele><time>2026-04-25T08:05:36Z</time></trkpt><trkpt lat="43.861107773571604" lon="12.691206692239648"><ele>198.0</ele><time>2026-04-25T08:05:37Z</time></trkpt><trkpt lat="43.860953196345136" lon="12.69122742051804"><ele>199.0</ele><time>2026-04-25T08:05:38Z</time></trkpt><trkpt lat="43.86078841670538" lon="12.69124389473109"><ele>200.0</ele><time>2026-04-25T08:05:39Z</time></trkpt><trkpt lat="43.86061610177364" lon="12.691259951943218"><ele>201.0</ele><time>2026-04-25T08:05:40Z</time></trkpt><trkpt lat="43.86043634684069" lon="12.691275045301813"><ele>201.0</ele><time>2026-04-25T08:05:41Z</time></trkpt><trkpt lat="43.860252796093114" lon="12.69129031439953"><ele>201.0</ele><time>2026-04-25T08:05:42Z</time></trkpt><trkpt lat="43.86006397212696" lon="12.691299039603237"><ele>201.0</ele><time>2026-04-25T08:05:43Z</time></trkpt><trkpt lat="43.859876419863724" lon="12.691294398350045"><ele>205.33333333333331</ele><time>2026-04-25T08:05:44Z</time></trkpt><trkpt lat="43.85970931955112" lon="12.691290015935623"><ele>209.66666666666666</ele><time>2026-04-25T08:05:45Z</time></trkpt><trkpt lat="43.8595536763619" lon="12.691280590820389"><ele>214.0</ele><time>2026-04-25T08:05:46Z</time></trkpt><trkpt lat="43.85939735090709" lon="12.69127396624059"><ele>216.66666666666666</ele><time>2026-04-25T08:05:47Z</time></trkpt><trkpt lat="43.85924134995361" lon="12.691265882465045"><ele>219.33333333333331</ele><time>2026-04-25T08:05:48Z</time></trkpt><trkpt lat="43.859083180222676" lon="12.691256519107725"><ele>222.0</ele><time>2026-04-25T08:05:49Z</time></trkpt><trkpt lat="43.85892347457342" lon="12.691248725678344"><ele>222.0</ele><time>2026-04-25T08:05:50Z</time></trkpt><trkpt lat="43.85877050301405" lon="12.69125162192668"><ele>222.0</ele><time>2026-04-25T08:05:51Z</time></trkpt><trkpt lat="43.85862665315622" lon="12.691296817286155"><ele>222.0</ele><time>2026-04-25T08:05:52Z</time></trkpt><trkpt lat="43.85848374942788" lon="12.69139101664094"><ele>224.5</ele><time>2026-04-25T08:05:53Z</time></trkpt><trkpt lat="43.85834635976782" lon="12.691519728749846"><ele>227.0</ele><time>2026-04-25T08:05:54Z</time></trkpt><trkpt lat="43.85821288516195" lon="12.691624456970878"><ele>229.5</ele><time>2026-04-25T08:05:55Z</time></trkpt><trkpt lat="43.858104889604654" lon="12.691719703665886"><ele>232.0</ele><time>2026-04-25T08:05:56Z</time></trkpt><trkpt lat="43.85799528696091" lon="12.691745862704245"><ele>232.0</ele><time>2026-04-25T08:05:57Z</time></trkpt><trkpt lat="43.85789406924457" lon="12.691723726254386"><ele>232.0</ele><time>2026-04-25T08:05:58Z</time></trkpt><trkpt lat="43.85779059475283" lon="12.69165393724278"><ele>232.0</ele><time>2026-04-25T08:05:59Z</time></trkpt><trkpt lat="43.85768526913681" lon="12.691544145455493"><ele>232.0</ele><time>2026-04-25T08:06:00Z</time></trkpt><trkpt lat="43.85759443772554" lon="12.691397952995436"><ele>233.0</ele><time>2026-04-25T08:06:01Z</time></trkpt><trkpt lat="43.85752914699269" lon="12.691239821621311"><ele>234.0</ele><time>2026-04-25T08:06:02Z</time></trkpt><trkpt lat="43.8574751201727" lon="12.691067750454721"><ele>235.0</ele><time>2026-04-25T08:06:03Z</time></trkpt><trkpt lat="43.857435679452784" lon="12.6909038388001"><ele>236.0</ele><time>2026-04-25T08:06:04Z</time></trkpt><trkpt lat="43.857410147879826" lon="12.690741210406324"><ele>239.25</ele><time>2026-04-25T08:06:05Z</time></trkpt><trkpt lat="43.857402746072054" lon="12.690571494512549"><ele>242.5</ele><time>2026-04-25T08:06:06Z</time></trkpt><trkpt lat="43.85742583760213" lon="12.690408011665719"><ele>245.75</ele><time>2026-04-25T08:06:06.999Z</time></trkpt><trkpt lat="43.857468033396266" lon="12.690255175580752"><ele>249.0</ele><time>2026-04-25T08:06:07.999Z</time></trkpt><trkpt lat="43.857550685647205" lon="12.690116495716435"><ele>254.0</ele><time>2026-04-25T08:06:08.999Z</time></trkpt><trkpt lat="43.857629187015704" lon="12.689944931233764"><ele>259.0</ele><time>2026-04-25T08:06:09.999Z</time></trkpt><trkpt lat="43.857727342893284" lon="12.689776513310616"><ele>264.0</ele><time>2026-04-25T08:06:10.999Z</time></trkpt><trkpt lat="43.85780064109102" lon="12.689610961479593"><ele>269.0</ele><time>2026-04-25T08:06:11.999Z</time></trkpt><trkpt lat="43.857861641899056" lon="12.689449738341924"><ele>271.0</ele><time>2026-04-25T08:06:12.999Z</time></trkpt><trkpt lat="43.85792077163132" lon="12.689292280406264"><ele>273.0</ele><time>2026-04-25T08:06:13.999Z</time></trkpt><trkpt lat="43.857978415094635" lon="12.689142724037637"><ele>275.0</ele><time>2026-04-25T08:06:14.999Z</time></trkpt><trkpt lat="43.85802842746291" lon="12.688993018957579"><ele>277.0</ele><time>2026-04-25T08:06:15.999Z</time></trkpt><trkpt lat="43.8580761893643" lon="12.688855217591291"><ele>277.0</ele><time>2026-04-25T08:06:16.999Z</time></trkpt><trkpt lat="43.85812022702153" lon="12.688725035958845"><ele>277.0</ele><time>2026-04-25T08:06:17.999Z</time></trkpt><trkpt lat="43.8581637345146" lon="12.688609450136935"><ele>277.0</ele><time>2026-04-25T08:06:18.999Z</time></trkpt><trkpt lat="43.85820516712799" lon="12.688495340653587"><ele>277.0</ele><time>2026-04-25T08:06:19.999Z</time></trkpt><trkpt lat="43.85825086565558" lon="12.688381745692013"><ele>277.0</ele><time>2026-04-25T08:06:20.999Z</time></trkpt><trkpt lat="43.85829920274853" lon="12.688257626357887"><ele>276.6</ele><time>2026-04-25T08:06:21.999Z</time></trkpt><trkpt lat="43.85834768949989" lon="12.688129363496003"><ele>276.2</ele><time>2026-04-25T08:06:22.999Z</time></trkpt><trkpt lat="43.85839559814714" lon="12.688003255663673"><ele>275.8</ele><time>2026-04-25T08:06:23.999Z</time></trkpt><trkpt lat="43.85844307558561" lon="12.6878759628362"><ele>275.4</ele><time>2026-04-25T08:06:24.999Z</time></trkpt><trkpt lat="43.85848526431484" lon="12.687751026416676"><ele>275.0</ele><time>2026-04-25T08:06:25.999Z</time></trkpt><trkpt lat="43.85851898252558" lon="12.687649857265013"><ele>276.8</ele><time>2026-04-25T08:06:26.999Z</time></trkpt><trkpt lat="43.85854817953097" lon="12.687560712180607"><ele>278.6</ele><time>2026-04-25T08:06:27.999Z</time></trkpt><trkpt lat="43.85858358214297" lon="12.687463616820072"><ele>280.4</ele><time>2026-04-25T08:06:29.999Z</time></trkpt><trkpt lat="43.85869822640725" lon="12.687548360633288"><ele>282.2</ele><time>2026-04-25T08:06:33.999Z</time></trkpt><trkpt lat="43.858743160237445" lon="12.687610676980107"><ele>284.0</ele><time>2026-04-25T08:06:34.999Z</time></trkpt><trkpt lat="43.858775996969555" lon="12.68777306599525"><ele>285.33333333333337</ele><time>2026-04-25T08:06:36.999Z</time></trkpt><trkpt lat="43.85877970623737" lon="12.687906619595681"><ele>286.6666666666667</ele><time>2026-04-25T08:06:38.999Z</time></trkpt><trkpt lat="43.858761014823024" lon="12.688035777191546"><ele>288.0</ele><time>2026-04-25T08:06:40.999Z</time></trkpt><trkpt lat="43.858718492599024" lon="12.688174678990391"><ele>289.3333333333333</ele><time>2026-04-25T08:06:43Z</time></trkpt><trkpt lat="43.85869251912779" lon="12.688267868644441"><ele>290.66666666666663</ele><time>2026-04-25T08:06:45Z</time></trkpt><trkpt lat="43.858663991936986" lon="12.6883520992511"><ele>292.0</ele><time>2026-04-25T08:06:47Z</time></trkpt><trkpt lat="43.85864456421094" lon="12.688461831444522"><ele>292.0</ele><time>2026-04-25T08:06:49Z</time></trkpt><trkpt lat="43.85862793994171" lon="12.68858486495827"><ele>292.0</ele><time>2026-04-25T08:06:51Z</time></trkpt><trkpt lat="43.85859647004959" lon="12.688691114344028"><ele>292.0</ele><time>2026-04-25T08:06:53Z</time></trkpt><trkpt lat="43.85855915367921" lon="12.688771798917035"><ele>292.0</ele><time>2026-04-25T08:06:56Z</time></trkpt><trkpt lat="43.858528660091245" lon="12.68887931006449"><ele>292.0</ele><time>2026-04-25T08:07:00Z</time></trkpt><trkpt lat="43.85855107045053" lon="12.688966941791104"><ele>292.0</ele><time>2026-04-25T08:07:02Z</time></trkpt><trkpt lat="43.85853200794725" lon="12.68908137969848"><ele>290.85714285714283</ele><time>2026-04-25T08:07:05Z</time></trkpt><trkpt lat="43.85852554810717" lon="12.68919862263757"><ele>289.7142857142857</ele><time>2026-04-25T08:07:08Z</time></trkpt><trkpt lat="43.85852553941865" lon="12.689289255655721"><ele>288.57142857142856</ele><time>2026-04-25T08:07:10Z</time></trkpt><trkpt lat="43.85848942526782" lon="12.68938804388384"><ele>287.42857142857144</ele><time>2026-04-25T08:07:12Z</time></trkpt><trkpt lat="43.85848814495962" lon="12.689482622135575"><ele>286.2857142857143</ele><time>2026-04-25T08:07:14Z</time></trkpt><trkpt lat="43.85848299474097" lon="12.689585091668869"><ele>285.1428571428571</ele><time>2026-04-25T08:07:17Z</time></trkpt><trkpt lat="43.858447254227684" lon="12.689657324048227"><ele>284.0</ele><time>2026-04-25T08:07:20Z</time></trkpt><trkpt lat="43.85838261892056" lon="12.689704555189449"><ele>282.59999999999997</ele><time>2026-04-25T08:07:22Z</time></trkpt><trkpt lat="43.85829377199215" lon="12.689690383057194"><ele>281.2</ele><time>2026-04-25T08:07:24Z</time></trkpt><trkpt lat="43.858192165046894" lon="12.689697587915695"><ele>279.79999999999995</ele><time>2026-04-25T08:07:26Z</time></trkpt><trkpt lat="43.85811217389463" lon="12.689619927596365"><ele>278.4</ele><time>2026-04-25T08:07:28Z</time></trkpt><trkpt lat="43.858098562159256" lon="12.689484675909238"><ele>277.0</ele><time>2026-04-25T08:07:30Z</time></trkpt><trkpt lat="43.85809814429356" lon="12.68934289246722"><ele>277.0</ele><time>2026-04-25T08:07:32Z</time></trkpt><trkpt lat="43.85809773029893" lon="12.689202422415507"><ele>277.0</ele><time>2026-04-25T08:07:34Z</time></trkpt><trkpt lat="43.85808358236315" lon="12.689076155259812"><ele>277.0</ele><time>2026-04-25T08:07:36Z</time></trkpt><trkpt lat="43.8580779497765" lon="12.688974057988037"><ele>277.0</ele><time>2026-04-25T08:07:38Z</time></trkpt><trkpt lat="43.85809813535489" lon="12.688859492610641"><ele>277.0</ele><time>2026-04-25T08:07:46Z</time></trkpt><trkpt lat="43.858136704434365" lon="12.688689460320411"><ele>276.6</ele><time>2026-04-25T08:07:48Z</time></trkpt><trkpt lat="43.858176760491176" lon="12.688584885618704"><ele>276.2</ele><time>2026-04-25T08:07:49Z</time></trkpt><trkpt lat="43.8582172062584" lon="12.688481067267594"><ele>275.8</ele><time>2026-04-25T08:07:50Z</time></trkpt><trkpt lat="43.85826353094149" lon="12.68836482713024"><ele>275.4</ele><time>2026-04-25T08:07:51Z</time></trkpt><trkpt lat="43.858311235479015" lon="12.688236928973524"><ele>275.0</ele><time>2026-04-25T08:07:52Z</time></trkpt><trkpt lat="43.85836015350828" lon="12.688104408575022"><ele>275.0</ele><time>2026-04-25T08:07:53Z</time></trkpt><trkpt lat="43.85841015087092" lon="12.68797046174724"><ele>275.0</ele><time>2026-04-25T08:07:54Z</time></trkpt><trkpt lat="43.85845856264887" lon="12.687840674364795"><ele>275.0</ele><time>2026-04-25T08:07:55Z</time></trkpt><trkpt lat="43.85850457420493" lon="12.687711548166938"><ele>275.0</ele><time>2026-04-25T08:07:56Z</time></trkpt><trkpt lat="43.8585455426786" lon="12.687574773118074"><ele>275.0</ele><time>2026-04-25T08:07:57Z</time></trkpt><trkpt lat="43.85857386139506" lon="12.687427133010933"><ele>275.0</ele><time>2026-04-25T08:07:58Z</time></trkpt><trkpt lat="43.858579452378926" lon="12.687277654178471"><ele>275.0</ele><time>2026-04-25T08:07:59Z</time></trkpt><trkpt lat="43.85857234510386" lon="12.687128202157218"><ele>275.0</ele><time>2026-04-25T08:08:00Z</time></trkpt><trkpt lat="43.85856231831656" lon="12.686976447282989"><ele>275.0</ele><time>2026-04-25T08:08:01Z</time></trkpt><trkpt lat="43.858555339037466" lon="12.68681649019054"><ele>275.0</ele><time>2026-04-25T08:08:01.999Z</time></trkpt><trkpt lat="43.858550691993905" lon="12.686663443539754"><ele>275.0</ele><time>2026-04-25T08:08:02.999Z</time></trkpt><trkpt lat="43.85855332640679" lon="12.686517179169726"><ele>275.0</ele><time>2026-04-25T08:08:03.999Z</time></trkpt><trkpt lat="43.85856113655104" lon="12.686374499881643"><ele>275.0</ele><time>2026-04-25T08:08:04.999Z</time></trkpt><trkpt lat="43.85857667319418" lon="12.686230363662867"><ele>275.0</ele><time>2026-04-25T08:08:05.999Z</time></trkpt><trkpt lat="43.858602027517705" lon="12.686088963791274"><ele>275.0</ele><time>2026-04-25T08:08:06.999Z</time></trkpt><trkpt lat="43.858628438635336" lon="12.6859460333771"><ele>275.6</ele><time>2026-04-25T08:08:07.999Z</time></trkpt><trkpt lat="43.85865575887898" lon="12.68580315951943"><ele>276.2</ele><time>2026-04-25T08:08:08.999Z</time></trkpt><trkpt lat="43.858683521621025" lon="12.685657172197239"><ele>276.8</ele><time>2026-04-25T08:08:09.999Z</time></trkpt><trkpt lat="43.858712074083016" lon="12.685511696625696"><ele>277.4</ele><time>2026-04-25T08:08:10.999Z</time></trkpt><trkpt lat="43.85873759001374" lon="12.68536676569632"><ele>278.0</ele><time>2026-04-25T08:08:11.999Z</time></trkpt><trkpt lat="43.85877962516274" lon="12.685226082180613"><ele>279.6</ele><time>2026-04-25T08:08:12.999Z</time></trkpt><trkpt lat="43.858800735574924" lon="12.685084560972559"><ele>281.20000000000005</ele><time>2026-04-25T08:08:13.999Z</time></trkpt><trkpt lat="43.858822414667145" lon="12.684939371102361"><ele>282.8</ele><time>2026-04-25T08:08:14.999Z</time></trkpt><trkpt lat="43.85883050352802" lon="12.684786262966137"><ele>284.40000000000003</ele><time>2026-04-25T08:08:15.999Z</time></trkpt><trkpt lat="43.85885537130129" lon="12.684628197674558"><ele>286.0</ele><time>2026-04-25T08:08:16.999Z</time></trkpt><trkpt lat="43.858888153288554" lon="12.684471455629916"><ele>287.5</ele><time>2026-04-25T08:08:17.999Z</time></trkpt><trkpt lat="43.85891173382004" lon="12.68430967499709"><ele>289.0</ele><time>2026-04-25T08:08:18.999Z</time></trkpt><trkpt lat="43.85892675791099" lon="12.684137881151084"><ele>290.5</ele><time>2026-04-25T08:08:19.999Z</time></trkpt><trkpt lat="43.85894603005722" lon="12.683957616527762"><ele>292.0</ele><time>2026-04-25T08:08:20.999Z</time></trkpt><trkpt lat="43.85892413997319" lon="12.683771149506708"><ele>292.0</ele><time>2026-04-25T08:08:21.999Z</time></trkpt><trkpt lat="43.8588642350024" lon="12.683577332641608"><ele>292.0</ele><time>2026-04-25T08:08:22.999Z</time></trkpt><trkpt lat="43.85878585094094" lon="12.683396953108726"><ele>292.0</ele><time>2026-04-25T08:08:23.999Z</time></trkpt><trkpt lat="43.858718067661734" lon="12.683221048307228"><ele>292.0</ele><time>2026-04-25T08:08:24.999Z</time></trkpt><trkpt lat="43.858683824980425" lon="12.68301176697812"><ele>292.0</ele><time>2026-04-25T08:08:25.999Z</time></trkpt><trkpt lat="43.858663366914236" lon="12.682779373375928"><ele>292.0</ele><time>2026-04-25T08:08:26.999Z</time></trkpt><trkpt lat="43.85861888444993" lon="12.68253517955193"><ele>292.0</ele><time>2026-04-25T08:08:27.999Z</time></trkpt><trkpt lat="43.858542318548544" lon="12.682292526912018"><ele>293.0</ele><time>2026-04-25T08:08:28.999Z</time></trkpt><trkpt lat="43.85847479071935" lon="12.682040095145066"><ele>294.0</ele><time>2026-04-25T08:08:29.999Z</time></trkpt><trkpt lat="43.85839944108825" lon="12.68180424906625"><ele>295.0</ele><time>2026-04-25T08:08:30.999Z</time></trkpt><trkpt lat="43.85831631120847" lon="12.68156044615533"><ele>303.3333333333333</ele><time>2026-04-25T08:08:31.999Z</time></trkpt><trkpt lat="43.85824731025739" lon="12.681297982687235"><ele>311.6666666666667</ele><time>2026-04-25T08:08:32.999Z</time></trkpt><trkpt lat="43.858163984654816" lon="12.681051913782293"><ele>320.0</ele><time>2026-04-25T08:08:33.999Z</time></trkpt><trkpt lat="43.8580886875629" lon="12.680832386926935"><ele>320.0</ele><time>2026-04-25T08:08:34.999Z</time></trkpt><trkpt lat="43.85799326247764" lon="12.680622624142817"><ele>320.0</ele><time>2026-04-25T08:08:35.999Z</time></trkpt><trkpt lat="43.8579132557335" lon="12.68040862755771"><ele>320.0</ele><time>2026-04-25T08:08:36.999Z</time></trkpt><trkpt lat="43.857834035949104" lon="12.680204186328591"><ele>321.33333333333337</ele><time>2026-04-25T08:08:37.999Z</time></trkpt><trkpt lat="43.857776387747336" lon="12.679995441079788"><ele>322.6666666666667</ele><time>2026-04-25T08:08:38.999Z</time></trkpt><trkpt lat="43.85770456914928" lon="12.679800181839477"><ele>324.0</ele><time>2026-04-25T08:08:39.999Z</time></trkpt><trkpt lat="43.85762438378351" lon="12.679629823995562"><ele>326.0</ele><time>2026-04-25T08:08:40.999Z</time></trkpt><trkpt lat="43.85758488682975" lon="12.679466199883397"><ele>328.0</ele><time>2026-04-25T08:08:41.999Z</time></trkpt><trkpt lat="43.85758035547115" lon="12.67929613179836"><ele>330.0</ele><time>2026-04-25T08:08:42.999Z</time></trkpt><trkpt lat="43.85760677968653" lon="12.679112300171356"><ele>332.0</ele><time>2026-04-25T08:08:43.999Z</time></trkpt><trkpt lat="43.8576457605116" lon="12.678910305383058"><ele>332.0</ele><time>2026-04-25T08:08:44.999Z</time></trkpt><trkpt lat="43.857693755702826" lon="12.678708040307408"><ele>332.0</ele><time>2026-04-25T08:08:45.999Z</time></trkpt><trkpt lat="43.85775113076133" lon="12.67852150813734"><ele>332.0</ele><time>2026-04-25T08:08:46.999Z</time></trkpt><trkpt lat="43.85781244207021" lon="12.678356237396484"><ele>332.0</ele><time>2026-04-25T08:08:48Z</time></trkpt><trkpt lat="43.85787148119091" lon="12.67821147266081"><ele>334.0</ele><time>2026-04-25T08:08:49Z</time></trkpt><trkpt lat="43.857932554474836" lon="12.678076936782885"><ele>336.0</ele><time>2026-04-25T08:08:50Z</time></trkpt><trkpt lat="43.85799109699527" lon="12.677946117566584"><ele>338.0</ele><time>2026-04-25T08:08:51Z</time></trkpt><trkpt lat="43.85805199893463" lon="12.677818779951366"><ele>340.0</ele><time>2026-04-25T08:08:52Z</time></trkpt><trkpt lat="43.858128041716306" lon="12.67770932632961"><ele>342.0</ele><time>2026-04-25T08:08:53Z</time></trkpt><trkpt lat="43.8582227156676" lon="12.677628992605708"><ele>343.8</ele><time>2026-04-25T08:08:54Z</time></trkpt><trkpt lat="43.858326854504924" lon="12.677562464878763"><ele>345.6</ele><time>2026-04-25T08:08:55Z</time></trkpt><trkpt lat="43.858416901671184" lon="12.677481752724145"><ele>347.40000000000003</ele><time>2026-04-25T08:08:56Z</time></trkpt><trkpt lat="43.8584770793876" lon="12.677374672885632"><ele>349.20000000000005</ele><time>2026-04-25T08:08:57Z</time></trkpt><trkpt lat="43.85851279718985" lon="12.677231464637874"><ele>351.0</ele><time>2026-04-25T08:08:58Z</time></trkpt><trkpt lat="43.8585275660563" lon="12.67705347640253"><ele>354.5</ele><time>2026-04-25T08:08:59Z</time></trkpt><trkpt lat="43.858533150428876" lon="12.676864599779739"><ele>358.0</ele><time>2026-04-25T08:09:00Z</time></trkpt><trkpt lat="43.858546086117805" lon="12.676666381706559"><ele>361.5</ele><time>2026-04-25T08:09:01Z</time></trkpt><trkpt lat="43.85856033824519" lon="12.676465401600327"><ele>365.0</ele><time>2026-04-25T08:09:02Z</time></trkpt><trkpt lat="43.858572192728424" lon="12.676275783398312"><ele>367.5</ele><time>2026-04-25T08:09:03Z</time></trkpt><trkpt lat="43.858586090298814" lon="12.67609637729444"><ele>370.0</ele><time>2026-04-25T08:09:04Z</time></trkpt><trkpt lat="43.85860536372041" lon="12.675919287478422"><ele>372.5</ele><time>2026-04-25T08:09:05Z</time></trkpt><trkpt lat="43.858622611144995" lon="12.675738281216383"><ele>375.0</ele><time>2026-04-25T08:09:06Z</time></trkpt><trkpt lat="43.858641294575364" lon="12.675565809007022"><ele>375.0</ele><time>2026-04-25T08:09:07Z</time></trkpt><trkpt lat="43.85865546574796" lon="12.675390034387094"><ele>375.0</ele><time>2026-04-25T08:09:08Z</time></trkpt><trkpt lat="43.858668808903346" lon="12.675217038790752"><ele>375.0</ele><time>2026-04-25T08:09:09Z</time></trkpt><trkpt lat="43.858678272047825" lon="12.675043559656086"><ele>375.0</ele><time>2026-04-25T08:09:10Z</time></trkpt><trkpt lat="43.858690905036994" lon="12.674877664454929"><ele>375.75</ele><time>2026-04-25T08:09:11Z</time></trkpt><trkpt lat="43.858697187425825" lon="12.67471633916214"><ele>376.5</ele><time>2026-04-25T08:09:12Z</time></trkpt><trkpt lat="43.85870543035672" lon="12.67455226976019"><ele>377.25</ele><time>2026-04-25T08:09:13Z</time></trkpt><trkpt lat="43.85871079432074" lon="12.674388382900284"><ele>378.0</ele><time>2026-04-25T08:09:14Z</time></trkpt><trkpt lat="43.858716303043416" lon="12.674225325679625"><ele>378.0</ele><time>2026-04-25T08:09:15Z</time></trkpt><trkpt lat="43.858726006940834" lon="12.674061579966287"><ele>378.0</ele><time>2026-04-25T08:09:16Z</time></trkpt><trkpt lat="43.85873729159774" lon="12.673900323316337"><ele>378.0</ele><time>2026-04-25T08:09:17Z</time></trkpt><trkpt lat="43.85875369722208" lon="12.673742667323499"><ele>378.0</ele><time>2026-04-25T08:09:18Z</time></trkpt><trkpt lat="43.85876513636326" lon="12.673583621193591"><ele>378.0</ele><time>2026-04-25T08:09:19Z</time></trkpt><trkpt lat="43.858784136248715" lon="12.673419572522993"><ele>378.0</ele><time>2026-04-25T08:09:20Z</time></trkpt><trkpt lat="43.85880094208023" lon="12.673257334444111"><ele>378.0</ele><time>2026-04-25T08:09:21Z</time></trkpt><trkpt lat="43.85881120005077" lon="12.673097501943857"><ele>378.0</ele><time>2026-04-25T08:09:22Z</time></trkpt><trkpt lat="43.85881215688145" lon="12.672949890462347"><ele>378.0</ele><time>2026-04-25T08:09:23Z</time></trkpt><trkpt lat="43.85879013588766" lon="12.672818702332393"><ele>378.0</ele><time>2026-04-25T08:09:24Z</time></trkpt><trkpt lat="43.85874056629242" lon="12.672720260390275"><ele>378.0</ele><time>2026-04-25T08:09:25Z</time></trkpt><trkpt lat="43.85866707715942" lon="12.672649285243345"><ele>378.0</ele><time>2026-04-25T08:09:26Z</time></trkpt><trkpt lat="43.858568550418994" lon="12.672602230693471"><ele>378.0</ele><time>2026-04-25T08:09:27Z</time></trkpt><trkpt lat="43.85845919582799" lon="12.672562997779664"><ele>378.25</ele><time>2026-04-25T08:09:28Z</time></trkpt><trkpt lat="43.85834576906125" lon="12.672511896069732"><ele>378.5</ele><time>2026-04-25T08:09:29Z</time></trkpt><trkpt lat="43.858227654406825" lon="12.672457348690275"><ele>378.75</ele><time>2026-04-25T08:09:30Z</time></trkpt><trkpt lat="43.85810463666498" lon="12.672400576330048"><ele>379.0</ele><time>2026-04-25T08:09:31Z</time></trkpt><trkpt lat="43.857983907177896" lon="12.67234430167942"><ele>379.0</ele><time>2026-04-25T08:09:32Z</time></trkpt><trkpt lat="43.85787861886743" lon="12.672289268502364"><ele>379.0</ele><time>2026-04-25T08:09:33Z</time></trkpt><trkpt lat="43.857785049373895" lon="12.672237623280525"><ele>379.0</ele><time>2026-04-25T08:09:34Z</time></trkpt><trkpt lat="43.85770127002212" lon="12.672197783021044"><ele>379.0</ele><time>2026-04-25T08:09:35Z</time></trkpt><trkpt lat="43.857619909506106" lon="12.672159631421444"><ele>379.0</ele><time>2026-04-25T08:09:36Z</time></trkpt><trkpt lat="43.8575482073778" lon="12.672119460564188"><ele>379.16666666666663</ele><time>2026-04-25T08:09:37Z</time></trkpt><trkpt lat="43.85745805458268" lon="12.672038487960137"><ele>379.3333333333333</ele><time>2026-04-25T08:09:39Z</time></trkpt><trkpt lat="43.85737366815824" lon="12.67196038030677"><ele>379.5</ele><time>2026-04-25T08:09:42Z</time></trkpt><trkpt lat="43.857308010863306" lon="12.671967981648434"><ele>379.6666666666667</ele><time>2026-04-25T08:09:43Z</time></trkpt><trkpt lat="43.857232250643364" lon="12.67197350424012"><ele>379.83333333333337</ele><time>2026-04-25T08:09:44Z</time></trkpt><trkpt lat="43.85716117374872" lon="12.671950271611491"><ele>380.0</ele><time>2026-04-25T08:09:45Z</time></trkpt><trkpt lat="43.857097626909294" lon="12.671922653418552"><ele>380.42857142857144</ele><time>2026-04-25T08:09:46Z</time></trkpt><trkpt lat="43.857034050781756" lon="12.671885968232461"><ele>380.8571428571429</ele><time>2026-04-25T08:09:47Z</time></trkpt><trkpt lat="43.85696643898334" lon="12.671854473146047"><ele>381.2857142857143</ele><time>2026-04-25T08:09:48Z</time></trkpt><trkpt lat="43.85689493504687" lon="12.671819577015738"><ele>381.7142857142857</ele><time>2026-04-25T08:09:49Z</time></trkpt><trkpt lat="43.85682326956342" lon="12.671785416361217"><ele>382.1428571428571</ele><time>2026-04-25T08:09:50Z</time></trkpt><trkpt lat="43.856746375723674" lon="12.671752755669973"><ele>382.57142857142856</ele><time>2026-04-25T08:09:51Z</time></trkpt><trkpt lat="43.85667215371945" lon="12.671722979779918"><ele>383.0</ele><time>2026-04-25T08:09:52Z</time></trkpt><trkpt lat="43.85659900670342" lon="12.67169144400421"><ele>383.6666666666667</ele><time>2026-04-25T08:09:53Z</time></trkpt><trkpt lat="43.856519614736534" lon="12.671695849325992"><ele>384.33333333333337</ele><time>2026-04-25T08:09:54Z</time></trkpt><trkpt lat="43.856438852746514" lon="12.67171179187392"><ele>385.0</ele><time>2026-04-25T08:09:55Z</time></trkpt><trkpt lat="43.856359004479394" lon="12.671734788620292"><ele>385.6666666666667</ele><time>2026-04-25T08:09:56Z</time></trkpt><trkpt lat="43.856287736646046" lon="12.671761936804629"><ele>386.3333333333333</ele><time>2026-04-25T08:09:57Z</time></trkpt><trkpt lat="43.8561962857123" lon="12.671795048458609"><ele>387.0</ele><time>2026-04-25T08:09:59Z</time></trkpt><trkpt lat="43.85611045709509" lon="12.671825782270826"><ele>387.0</ele><time>2026-04-25T08:10:01.999Z</time></trkpt><trkpt lat="43.85603728115879" lon="12.671812490578581"><ele>387.0</ele><time>2026-04-25T08:10:03.999Z</time></trkpt><trkpt lat="43.85596021991056" lon="12.671892917285835"><ele>387.0</ele><time>2026-04-25T08:10:05.999Z</time></trkpt><trkpt lat="43.85589227965168" lon="12.671824268907912"><ele>387.0</ele><time>2026-04-25T08:10:07.999Z</time></trkpt><trkpt lat="43.85582378174324" lon="12.671706107495599"><ele>387.0</ele><time>2026-04-25T08:10:09.999Z</time></trkpt><trkpt lat="43.855768304671855" lon="12.671582437582556"><ele>388.0</ele><time>2026-04-25T08:10:11.999Z</time></trkpt><trkpt lat="43.85574530363109" lon="12.671493641695903"><ele>389.0</ele><time>2026-04-25T08:10:13.999Z</time></trkpt><trkpt lat="43.85572573796752" lon="12.671401979565816"><ele>390.0</ele><time>2026-04-25T08:10:16.999Z</time></trkpt><trkpt lat="43.85574984546233" lon="12.671493384860966"><ele>391.0</ele><time>2026-04-25T08:10:36.999Z</time></trkpt><trkpt lat="43.855781437000665" lon="12.671597323993623"><ele>392.0</ele><time>2026-04-25T08:10:39.999Z</time></trkpt><trkpt lat="43.85582934101692" lon="12.671678796772524"><ele>393.0</ele><time>2026-04-25T08:10:42.999Z</time></trkpt><trkpt lat="43.855875122901104" lon="12.671752685579307"><ele>394.0</ele><time>2026-04-25T08:10:45.999Z</time></trkpt><trkpt lat="43.85592166321414" lon="12.67186729774209"><ele>392.6</ele><time>2026-04-25T08:10:48.999Z</time></trkpt><trkpt lat="43.85598752637476" lon="12.671904724301392"><ele>391.2</ele><time>2026-04-25T08:10:50.999Z</time></trkpt><trkpt lat="43.85604464152353" lon="12.67195396672094"><ele>389.8</ele><time>2026-04-25T08:10:54Z</time></trkpt><trkpt lat="43.85616095381113" lon="12.671828303196657"><ele>388.40000000000003</ele><time>2026-04-25T08:10:55Z</time></trkpt><trkpt lat="43.85624737073661" lon="12.671777522640278"><ele>387.0</ele><time>2026-04-25T08:10:57Z</time></trkpt><trkpt lat="43.856342426319266" lon="12.671745721161608"><ele>387.0</ele><time>2026-04-25T08:10:59Z</time></trkpt><trkpt lat="43.85643789270842" lon="12.671717246802437"><ele>387.0</ele><time>2026-04-25T08:11:01Z</time></trkpt><trkpt lat="43.85653178727442" lon="12.671701732651488"><ele>387.0</ele><time>2026-04-25T08:11:03Z</time></trkpt><trkpt lat="43.85662815783473" lon="12.671718252699176"><ele>387.0</ele><time>2026-04-25T08:11:05Z</time></trkpt><trkpt lat="43.85673455798308" lon="12.67175718425455"><ele>387.0</ele><time>2026-04-25T08:11:07Z</time></trkpt><trkpt lat="43.85679571496137" lon="12.67178412550227"><ele>386.3333333333333</ele><time>2026-04-25T08:11:08Z</time></trkpt><trkpt lat="43.85685861690365" lon="12.671811044596872"><ele>385.6666666666667</ele><time>2026-04-25T08:11:09Z</time></trkpt><trkpt lat="43.85692223376889" lon="12.671839000602574"><ele>385.0</ele><time>2026-04-25T08:11:10Z</time></trkpt><trkpt lat="43.856984786795806" lon="12.67186943844984"><ele>384.33333333333337</ele><time>2026-04-25T08:11:11Z</time></trkpt><trkpt lat="43.857047423518566" lon="12.671896193412815"><ele>383.6666666666667</ele><time>2026-04-25T08:11:12Z</time></trkpt><trkpt lat="43.85716170412964" lon="12.671945905776733"><ele>383.0</ele><time>2026-04-25T08:11:14Z</time></trkpt><trkpt lat="43.85727438393788" lon="12.672001515052534"><ele>383.0</ele><time>2026-04-25T08:11:16Z</time></trkpt><trkpt lat="43.85738656101749" lon="12.672024479859369"><ele>383.0</ele><time>2026-04-25T08:11:18Z</time></trkpt><trkpt lat="43.85747142497603" lon="12.671912273519865"><ele>383.0</ele><time>2026-04-25T08:11:20Z</time></trkpt><trkpt lat="43.85750195446039" lon="12.671809663500007"><ele>383.0</ele><time>2026-04-25T08:11:21Z</time></trkpt><trkpt lat="43.857551540878355" lon="12.671703281667007"><ele>383.0</ele><time>2026-04-25T08:11:22Z</time></trkpt><trkpt lat="43.85761003065881" lon="12.671628021760785"><ele>383.1666666666667</ele><time>2026-04-25T08:11:23Z</time></trkpt><trkpt lat="43.85766295658793" lon="12.671553824101695"><ele>383.33333333333337</ele><time>2026-04-25T08:11:24Z</time></trkpt><trkpt lat="43.8577335929633" lon="12.671493263880253"><ele>383.5</ele><time>2026-04-25T08:11:25Z</time></trkpt><trkpt lat="43.85778680260108" lon="12.671403158201404"><ele>383.6666666666667</ele><time>2026-04-25T08:11:26Z</time></trkpt><trkpt lat="43.857838041494176" lon="12.671298993611977"><ele>383.8333333333333</ele><time>2026-04-25T08:11:27Z</time></trkpt><trkpt lat="43.857879345539544" lon="12.671180153164451"><ele>384.0</ele><time>2026-04-25T08:11:28Z</time></trkpt><trkpt lat="43.85789559433708" lon="12.671044558957234"><ele>383.3333333333333</ele><time>2026-04-25T08:11:29Z</time></trkpt><trkpt lat="43.85788362406579" lon="12.670917896014478"><ele>382.6666666666667</ele><time>2026-04-25T08:11:30Z</time></trkpt><trkpt lat="43.85788241043659" lon="12.670799063144802"><ele>382.0</ele><time>2026-04-25T08:11:31Z</time></trkpt><trkpt lat="43.85788563068023" lon="12.670676943964128"><ele>381.33333333333337</ele><time>2026-04-25T08:11:32Z</time></trkpt><trkpt lat="43.857882020056714" lon="12.670556489879626"><ele>380.6666666666667</ele><time>2026-04-25T08:11:33Z</time></trkpt><trkpt lat="43.85790136195271" lon="12.67043823630301"><ele>380.0</ele><time>2026-04-25T08:11:34Z</time></trkpt><trkpt lat="43.85791358769887" lon="12.670317828643096"><ele>379.2</ele><time>2026-04-25T08:11:35Z</time></trkpt><trkpt lat="43.85792371168689" lon="12.670195284094131"><ele>378.4</ele><time>2026-04-25T08:11:36Z</time></trkpt><trkpt lat="43.85797247606551" lon="12.670086379292444"><ele>377.6</ele><time>2026-04-25T08:11:37Z</time></trkpt><trkpt lat="43.858035720627186" lon="12.669983574771932"><ele>376.8</ele><time>2026-04-25T08:11:38Z</time></trkpt><trkpt lat="43.85812655045122" lon="12.66989469277097"><ele>376.0</ele><time>2026-04-25T08:11:39Z</time></trkpt><trkpt lat="43.85823485994389" lon="12.669828731548337"><ele>376.0</ele><time>2026-04-25T08:11:40Z</time></trkpt><trkpt lat="43.85833990348311" lon="12.669773768834274"><ele>376.0</ele><time>2026-04-25T08:11:41Z</time></trkpt><trkpt lat="43.85843596047764" lon="12.669722081978357"><ele>376.0</ele><time>2026-04-25T08:11:42Z</time></trkpt><trkpt lat="43.85852654904422" lon="12.669665804565593"><ele>376.0</ele><time>2026-04-25T08:11:43Z</time></trkpt><trkpt lat="43.85861286685048" lon="12.669607092147581"><ele>376.0</ele><time>2026-04-25T08:11:44Z</time></trkpt><trkpt lat="43.85868959061157" lon="12.669541169092675"><ele>372.16666666666663</ele><time>2026-04-25T08:11:45Z</time></trkpt><trkpt lat="43.85875726429609" lon="12.669464878038088"><ele>368.3333333333333</ele><time>2026-04-25T08:11:46Z</time></trkpt><trkpt lat="43.858806056218015" lon="12.669362013642422"><ele>364.5</ele><time>2026-04-25T08:11:47Z</time></trkpt><trkpt lat="43.85882598312338" lon="12.669244303475436"><ele>360.6666666666667</ele><time>2026-04-25T08:11:48Z</time></trkpt><trkpt lat="43.8588254663923" lon="12.669116418810924"><ele>356.83333333333337</ele><time>2026-04-25T08:11:49Z</time></trkpt><trkpt lat="43.85880698441017" lon="12.66898959659436"><ele>353.0</ele><time>2026-04-25T08:11:50Z</time></trkpt><trkpt lat="43.858774816354035" lon="12.668862214804003"><ele>353.0</ele><time>2026-04-25T08:11:51Z</time></trkpt><trkpt lat="43.85873288112744" lon="12.668737065560315"><ele>353.0</ele><time>2026-04-25T08:11:52Z</time></trkpt><trkpt lat="43.85868224574857" lon="12.668617095846653"><ele>353.0</ele><time>2026-04-25T08:11:53Z</time></trkpt><trkpt lat="43.85862890861855" lon="12.668493490889052"><ele>353.0</ele><time>2026-04-25T08:11:54Z</time></trkpt><trkpt lat="43.858567858870586" lon="12.668376698321618"><ele>353.0</ele><time>2026-04-25T08:11:55Z</time></trkpt><trkpt lat="43.85850673637382" lon="12.668268540557879"><ele>357.4</ele><time>2026-04-25T08:11:56Z</time></trkpt><trkpt lat="43.85845071143474" lon="12.668162596126992"><ele>361.79999999999995</ele><time>2026-04-25T08:11:57Z</time></trkpt><trkpt lat="43.85840311472517" lon="12.668055086631611"><ele>366.2</ele><time>2026-04-25T08:11:58Z</time></trkpt><trkpt lat="43.85837472840958" lon="12.667942186619435"><ele>370.6</ele><time>2026-04-25T08:11:59Z</time></trkpt><trkpt lat="43.85839328360997" lon="12.667815746034094"><ele>375.0</ele><time>2026-04-25T08:12:00Z</time></trkpt><trkpt lat="43.858416057018616" lon="12.667686868654151"><ele>367.25</ele><time>2026-04-25T08:12:01Z</time></trkpt><trkpt lat="43.85845743577981" lon="12.667548823279482"><ele>359.5</ele><time>2026-04-25T08:12:02Z</time></trkpt><trkpt lat="43.85851100934743" lon="12.66740638819043"><ele>351.75</ele><time>2026-04-25T08:12:03Z</time></trkpt><trkpt lat="43.85856772557459" lon="12.66725728935103"><ele>344.0</ele><time>2026-04-25T08:12:04Z</time></trkpt><trkpt lat="43.858622409097066" lon="12.667108436240685"><ele>344.0</ele><time>2026-04-25T08:12:05Z</time></trkpt><trkpt lat="43.85867848868403" lon="12.666961398830793"><ele>344.0</ele><time>2026-04-25T08:12:06Z</time></trkpt><trkpt lat="43.858731957758714" lon="12.666805837919524"><ele>344.0</ele><time>2026-04-25T08:12:07Z</time></trkpt><trkpt lat="43.858799526437814" lon="12.666670577825927"><ele>344.0</ele><time>2026-04-25T08:12:08Z</time></trkpt><trkpt lat="43.8588691679011" lon="12.666549203900434"><ele>343.79999999999995</ele><time>2026-04-25T08:12:09Z</time></trkpt><trkpt lat="43.85893542734595" lon="12.666436487029898"><ele>343.59999999999997</ele><time>2026-04-25T08:12:09.999Z</time></trkpt><trkpt lat="43.859012280599636" lon="12.666351132334096"><ele>343.4</ele><time>2026-04-25T08:12:10.999Z</time></trkpt><trkpt lat="43.859107371323056" lon="12.666297783657903"><ele>343.2</ele><time>2026-04-25T08:12:11.999Z</time></trkpt><trkpt lat="43.859201295976874" lon="12.666259001237714"><ele>343.0</ele><time>2026-04-25T08:12:12.999Z</time></trkpt><trkpt lat="43.859311466969565" lon="12.66623106828634"><ele>343.0</ele><time>2026-04-25T08:12:13.999Z</time></trkpt><trkpt lat="43.85943127800291" lon="12.666217442229314"><ele>343.0</ele><time>2026-04-25T08:12:14.999Z</time></trkpt><trkpt lat="43.859553631550106" lon="12.6662180255451"><ele>343.0</ele><time>2026-04-25T08:12:15.999Z</time></trkpt><trkpt lat="43.85967868847864" lon="12.666236400690428"><ele>343.0</ele><time>2026-04-25T08:12:16.999Z</time></trkpt><trkpt lat="43.859799557652096" lon="12.666260657343036"><ele>343.0</ele><time>2026-04-25T08:12:17.999Z</time></trkpt><trkpt lat="43.859923181310045" lon="12.666295549425373"><ele>343.0</ele><time>2026-04-25T08:12:18.999Z</time></trkpt><trkpt lat="43.860051816297315" lon="12.666326446230068"><ele>343.0</ele><time>2026-04-25T08:12:19.999Z</time></trkpt><trkpt lat="43.86018547278755" lon="12.666357170787688"><ele>343.0</ele><time>2026-04-25T08:12:20.999Z</time></trkpt><trkpt lat="43.860319725853735" lon="12.666378714547747"><ele>341.75</ele><time>2026-04-25T08:12:21.999Z</time></trkpt><trkpt lat="43.860449692460776" lon="12.666393369421908"><ele>340.5</ele><time>2026-04-25T08:12:22.999Z</time></trkpt><trkpt lat="43.86058020052488" lon="12.666403788247035"><ele>339.25</ele><time>2026-04-25T08:12:23.999Z</time></trkpt><trkpt lat="43.86071070747464" lon="12.666409843530692"><ele>338.0</ele><time>2026-04-25T08:12:24.999Z</time></trkpt><trkpt lat="43.860843363310664" lon="12.666415056767791"><ele>337.0</ele><time>2026-04-25T08:12:25.999Z</time></trkpt><trkpt lat="43.8609773912728" lon="12.666420410644207"><ele>336.0</ele><time>2026-04-25T08:12:26.999Z</time></trkpt><trkpt lat="43.86110830420958" lon="12.66643157721731"><ele>335.0</ele><time>2026-04-25T08:12:27.999Z</time></trkpt><trkpt lat="43.86124125638602" lon="12.666449634656514"><ele>334.0</ele><time>2026-04-25T08:12:28.999Z</time></trkpt><trkpt lat="43.86137741485974" lon="12.666476529913774"><ele>334.0</ele><time>2026-04-25T08:12:29.999Z</time></trkpt><trkpt lat="43.86151897929623" lon="12.666509651373975"><ele>334.0</ele><time>2026-04-25T08:12:30.999Z</time></trkpt><trkpt lat="43.86166290976752" lon="12.666550215259262"><ele>334.0</ele><time>2026-04-25T08:12:31.999Z</time></trkpt><trkpt lat="43.86180397673572" lon="12.666590216298738"><ele>334.0</ele><time>2026-04-25T08:12:32.999Z</time></trkpt><trkpt lat="43.86194398545141" lon="12.666623755067276"><ele>333.75</ele><time>2026-04-25T08:12:33.999Z</time></trkpt><trkpt lat="43.8620844585724" lon="12.666657127948934"><ele>333.5</ele><time>2026-04-25T08:12:34.999Z</time></trkpt><trkpt lat="43.86222704498604" lon="12.666690773389327"><ele>333.25</ele><time>2026-04-25T08:12:35.999Z</time></trkpt><trkpt lat="43.86237062919056" lon="12.666749561122701"><ele>333.0</ele><time>2026-04-25T08:12:36.999Z</time></trkpt><trkpt lat="43.86251682085014" lon="12.666778434766455"><ele>332.75</ele><time>2026-04-25T08:12:37.999Z</time></trkpt><trkpt lat="43.8626685001896" lon="12.666798330308392"><ele>332.5</ele><time>2026-04-25T08:12:38.999Z</time></trkpt><trkpt lat="43.86281548854204" lon="12.666815509895368"><ele>332.25</ele><time>2026-04-25T08:12:39.999Z</time></trkpt><trkpt lat="43.8629631965891" lon="12.666830537257585"><ele>332.0</ele><time>2026-04-25T08:12:40.999Z</time></trkpt><trkpt lat="43.8631116753982" lon="12.666843022391221"><ele>332.0</ele><time>2026-04-25T08:12:41.999Z</time></trkpt><trkpt lat="43.863258867782264" lon="12.666850154192321"><ele>332.0</ele><time>2026-04-25T08:12:42.999Z</time></trkpt><trkpt lat="43.86339894975219" lon="12.666860183882624"><ele>332.0</ele><time>2026-04-25T08:12:43.999Z</time></trkpt><trkpt lat="43.86353286963668" lon="12.66687780878987"><ele>332.0</ele><time>2026-04-25T08:12:44.999Z</time></trkpt><trkpt lat="43.863656063121574" lon="12.666904261151466"><ele>330.25</ele><time>2026-04-25T08:12:45.999Z</time></trkpt><trkpt lat="43.86377857647944" lon="12.66693136289531"><ele>328.5</ele><time>2026-04-25T08:12:46.999Z</time></trkpt><trkpt lat="43.86389676142747" lon="12.66695918502995"><ele>326.75</ele><time>2026-04-25T08:12:47.999Z</time></trkpt><trkpt lat="43.8640289099131" lon="12.6669705487012"><ele>325.0</ele><time>2026-04-25T08:12:48.999Z</time></trkpt><trkpt lat="43.86417007467627" lon="12.66695049161344"><ele>322.3333333333333</ele><time>2026-04-25T08:12:49.999Z</time></trkpt><trkpt lat="43.86431712043859" lon="12.666909410227937"><ele>319.6666666666667</ele><time>2026-04-25T08:12:50.999Z</time></trkpt><trkpt lat="43.86446444611062" lon="12.666858233385685"><ele>317.0</ele><time>2026-04-25T08:12:51.999Z</time></trkpt><trkpt lat="43.8646122647776" lon="12.66681153628829"><ele>317.0</ele><time>2026-04-25T08:12:52.999Z</time></trkpt><trkpt lat="43.86474757704423" lon="12.666768338964326"><ele>317.0</ele><time>2026-04-25T08:12:53.999Z</time></trkpt><trkpt lat="43.86487264885933" lon="12.66672818813337"><ele>317.0</ele><time>2026-04-25T08:12:54.999Z</time></trkpt><trkpt lat="43.86498629673518" lon="12.666693446512454"><ele>317.0</ele><time>2026-04-25T08:12:55.999Z</time></trkpt><trkpt lat="43.865088806073324" lon="12.666666439831554"><ele>314.8</ele><time>2026-04-25T08:12:56.999Z</time></trkpt><trkpt lat="43.865166197340045" lon="12.66664383161607"><ele>312.6</ele><time>2026-04-25T08:12:57.999Z</time></trkpt><trkpt lat="43.86528063105901" lon="12.666607638838641"><ele>310.40000000000003</ele><time>2026-04-25T08:13:00Z</time></trkpt><trkpt lat="43.86535788465477" lon="12.666585633579514"><ele>308.2</ele><time>2026-04-25T08:13:02Z</time></trkpt><trkpt lat="43.865442227429774" lon="12.666544599848853"><ele>306.0</ele><time>2026-04-25T08:13:08Z</time></trkpt><trkpt lat="43.86555973168972" lon="12.666512728918734"><ele>306.0</ele><time>2026-04-25T08:13:10Z</time></trkpt><trkpt lat="43.86566988140585" lon="12.666483283985901"><ele>306.0</ele><time>2026-04-25T08:13:12Z</time></trkpt><trkpt lat="43.865800269384216" lon="12.666435652083068"><ele>306.0</ele><time>2026-04-25T08:13:14Z</time></trkpt><trkpt lat="43.86587787323555" lon="12.666410124104909"><ele>306.0</ele><time>2026-04-25T08:13:15Z</time></trkpt><trkpt lat="43.86595526969112" lon="12.666379160562407"><ele>306.0</ele><time>2026-04-25T08:13:16Z</time></trkpt><trkpt lat="43.866036699819325" lon="12.66634381775823"><ele>304.40000000000003</ele><time>2026-04-25T08:13:17Z</time></trkpt><trkpt lat="43.86611910597323" lon="12.666303429518969"><ele>302.8</ele><time>2026-04-25T08:13:18Z</time></trkpt><trkpt lat="43.86620286249115" lon="12.66626744527062"><ele>301.20000000000005</ele><time>2026-04-25T08:13:19Z</time></trkpt><trkpt lat="43.86628661472024" lon="12.666223778054176"><ele>299.6</ele><time>2026-04-25T08:13:20Z</time></trkpt><trkpt lat="43.86637199154335" lon="12.66617723512802"><ele>298.0</ele><time>2026-04-25T08:13:21Z</time></trkpt><trkpt lat="43.86646084368407" lon="12.666125077878089"><ele>299.8333333333333</ele><time>2026-04-25T08:13:22Z</time></trkpt><trkpt lat="43.866550485542554" lon="12.666070675591417"><ele>301.66666666666663</ele><time>2026-04-25T08:13:23Z</time></trkpt><trkpt lat="43.86663958962155" lon="12.666016964574734"><ele>303.5</ele><time>2026-04-25T08:13:24Z</time></trkpt><trkpt lat="43.866720945499125" lon="12.665966925938474"><ele>305.3333333333333</ele><time>2026-04-25T08:13:25Z</time></trkpt><trkpt lat="43.86679688308571" lon="12.665923679658654"><ele>307.1666666666667</ele><time>2026-04-25T08:13:26Z</time></trkpt><trkpt lat="43.866871291653965" lon="12.665884582862189"><ele>309.0</ele><time>2026-04-25T08:13:27Z</time></trkpt><trkpt lat="43.8669484770499" lon="12.665842775608715"><ele>310.4</ele><time>2026-04-25T08:13:28Z</time></trkpt><trkpt lat="43.86703740147088" lon="12.665802793544925"><ele>311.79999999999995</ele><time>2026-04-25T08:13:29Z</time></trkpt><trkpt lat="43.86713210715333" lon="12.665760821113288"><ele>313.20000000000005</ele><time>2026-04-25T08:13:30Z</time></trkpt><trkpt lat="43.867230994676646" lon="12.665710777589156"><ele>314.6</ele><time>2026-04-25T08:13:31Z</time></trkpt><trkpt lat="43.86732812658155" lon="12.665664709688192"><ele>316.0</ele><time>2026-04-25T08:13:32Z</time></trkpt><trkpt lat="43.86742107393665" lon="12.665608354862133"><ele>316.0</ele><time>2026-04-25T08:13:33Z</time></trkpt><trkpt lat="43.867506249435586" lon="12.665550624611447"><ele>316.0</ele><time>2026-04-25T08:13:34Z</time></trkpt><trkpt lat="43.867582329964264" lon="12.665479122837246"><ele>316.0</ele><time>2026-04-25T08:13:35Z</time></trkpt><trkpt lat="43.86764827816988" lon="12.66539425832041"><ele>316.0</ele><time>2026-04-25T08:13:36Z</time></trkpt><trkpt lat="43.8677001146705" lon="12.665291719013728"><ele>316.0</ele><time>2026-04-25T08:13:37Z</time></trkpt><trkpt lat="43.86774203808761" lon="12.66518498593214"><ele>317.42857142857144</ele><time>2026-04-25T08:13:38Z</time></trkpt><trkpt lat="43.867771701909994" lon="12.665080703157173"><ele>318.8571428571429</ele><time>2026-04-25T08:13:39Z</time></trkpt><trkpt lat="43.86780142854521" lon="12.66498285562944"><ele>320.28571428571433</ele><time>2026-04-25T08:13:40Z</time></trkpt><trkpt lat="43.86782728890136" lon="12.66489839571187"><ele>321.7142857142857</ele><time>2026-04-25T08:13:41Z</time></trkpt><trkpt lat="43.86786026033836" lon="12.664814377305024"><ele>323.1428571428571</ele><time>2026-04-25T08:13:42Z</time></trkpt><trkpt lat="43.86790234402216" lon="12.664734222234735"><ele>324.5714285714286</ele><time>2026-04-25T08:13:43Z</time></trkpt><trkpt lat="43.86795788913022" lon="12.664673408748774"><ele>326.0</ele><time>2026-04-25T08:13:44Z</time></trkpt><trkpt lat="43.868026956959696" lon="12.664627359111154"><ele>326.0</ele><time>2026-04-25T08:13:45Z</time></trkpt><trkpt lat="43.8681099996257" lon="12.664607247558724"><ele>326.0</ele><time>2026-04-25T08:13:46Z</time></trkpt><trkpt lat="43.86820544910987" lon="12.66461832899013"><ele>326.0</ele><time>2026-04-25T08:13:47Z</time></trkpt><trkpt lat="43.868284099849" lon="12.664692444981341"><ele>326.0</ele><time>2026-04-25T08:13:48Z</time></trkpt><trkpt lat="43.86836686976807" lon="12.664745675493064"><ele>326.0</ele><time>2026-04-25T08:13:49Z</time></trkpt><trkpt lat="43.86843908723409" lon="12.664815397948004"><ele>324.8</ele><time>2026-04-25T08:13:50Z</time></trkpt><trkpt lat="43.86851307656858" lon="12.66489633346117"><ele>323.6</ele><time>2026-04-25T08:13:51Z</time></trkpt><trkpt lat="43.86858745410747" lon="12.664973593871945"><ele>322.4</ele><time>2026-04-25T08:13:52Z</time></trkpt><trkpt lat="43.868662954189716" lon="12.665051449753623"><ele>321.2</ele><time>2026-04-25T08:13:53Z</time></trkpt><trkpt lat="43.86873878192649" lon="12.665132144124101"><ele>320.0</ele><time>2026-04-25T08:13:54Z</time></trkpt><trkpt lat="43.86881627639005" lon="12.665211473328847"><ele>323.0</ele><time>2026-04-25T08:13:55Z</time></trkpt><trkpt lat="43.86888545749121" lon="12.665280552879116"><ele>326.0</ele><time>2026-04-25T08:13:56Z</time></trkpt><trkpt lat="43.86895300839405" lon="12.665349028691148"><ele>329.0</ele><time>2026-04-25T08:13:57Z</time></trkpt><trkpt lat="43.86901803901868" lon="12.665420519888057"><ele>332.0</ele><time>2026-04-25T08:13:58Z</time></trkpt><trkpt lat="43.8690777502564" lon="12.665482633984414"><ele>335.0</ele><time>2026-04-25T08:13:59Z</time></trkpt><trkpt lat="43.869132886495514" lon="12.665535103554"><ele>338.0</ele><time>2026-04-25T08:14:00Z</time></trkpt><trkpt lat="43.86921104582018" lon="12.665616234244405"><ele>338.0</ele><time>2026-04-25T08:14:02Z</time></trkpt><trkpt lat="43.869271583652655" lon="12.665680236468582"><ele>338.0</ele><time>2026-04-25T08:14:04Z</time></trkpt><trkpt lat="43.86933195844197" lon="12.665732972042447"><ele>338.0</ele><time>2026-04-25T08:14:06Z</time></trkpt><trkpt lat="43.86939459598803" lon="12.665816062868348"><ele>338.0</ele><time>2026-04-25T08:14:08Z</time></trkpt><trkpt lat="43.86945248084015" lon="12.66587264310528"><ele>338.0</ele><time>2026-04-25T08:14:10Z</time></trkpt><trkpt lat="43.8695263424103" lon="12.665955022039709"><ele>338.0</ele><time>2026-04-25T08:14:12Z</time></trkpt><trkpt lat="43.86958193014106" lon="12.666042647276864"><ele>339.1666666666667</ele><time>2026-04-25T08:14:14Z</time></trkpt><trkpt lat="43.869632166988545" lon="12.66613564627004"><ele>340.33333333333337</ele><time>2026-04-25T08:14:16Z</time></trkpt><trkpt lat="43.86967194722171" lon="12.666220266734623"><ele>341.5</ele><time>2026-04-25T08:14:18Z</time></trkpt><trkpt lat="43.86971031682331" lon="12.666311311839246"><ele>342.6666666666667</ele><time>2026-04-25T08:14:21Z</time></trkpt><trkpt lat="43.869745152349694" lon="12.666406366514716"><ele>343.8333333333333</ele><time>2026-04-25T08:14:23Z</time></trkpt><trkpt lat="43.86977750063691" lon="12.666504592761967"><ele>345.0</ele><time>2026-04-25T08:14:25Z</time></trkpt><trkpt lat="43.869821934895874" lon="12.66663996574879"><ele>345.0</ele><time>2026-04-25T08:14:27Z</time></trkpt><trkpt lat="43.86984279147359" lon="12.666729701939044"><ele>345.0</ele><time>2026-04-25T08:14:28Z</time></trkpt><trkpt lat="43.86988551791125" lon="12.66683553753503"><ele>345.0</ele><time>2026-04-25T08:14:28.999Z</time></trkpt><trkpt lat="43.869919548240006" lon="12.666957633316501"><ele>345.0</ele><time>2026-04-25T08:14:29.999Z</time></trkpt><trkpt lat="43.8699681929868" lon="12.66707342995227"><ele>345.0</ele><time>2026-04-25T08:14:30.999Z</time></trkpt><trkpt lat="43.87002471162061" lon="12.667206303742278"><ele>344.0</ele><time>2026-04-25T08:14:31.999Z</time></trkpt><trkpt lat="43.87007810793618" lon="12.667330722070147"><ele>343.0</ele><time>2026-04-25T08:14:32.999Z</time></trkpt><trkpt lat="43.870142441156545" lon="12.667446920523755"><ele>342.0</ele><time>2026-04-25T08:14:33.999Z</time></trkpt><trkpt lat="43.87018712594889" lon="12.667582432513777"><ele>341.0</ele><time>2026-04-25T08:14:34.999Z</time></trkpt><trkpt lat="43.87022559733443" lon="12.667727975531612"><ele>340.0</ele><time>2026-04-25T08:14:35.999Z</time></trkpt><trkpt lat="43.87026228091701" lon="12.667878656920504"><ele>342.6</ele><time>2026-04-25T08:14:36.999Z</time></trkpt><trkpt lat="43.870295965658066" lon="12.668026384617736"><ele>345.2</ele><time>2026-04-25T08:14:37.999Z</time></trkpt><trkpt lat="43.87032322435733" lon="12.668172368122285"><ele>347.79999999999995</ele><time>2026-04-25T08:14:38.999Z</time></trkpt><trkpt lat="43.87034446041871" lon="12.668319059155895"><ele>350.4</ele><time>2026-04-25T08:14:39.999Z</time></trkpt><trkpt lat="43.870361578378294" lon="12.66845427721479"><ele>353.0</ele><time>2026-04-25T08:14:40.999Z</time></trkpt><trkpt lat="43.870373159760874" lon="12.668586091041076"><ele>350.0</ele><time>2026-04-25T08:14:41.999Z</time></trkpt><trkpt lat="43.87037967668273" lon="12.668720519152728"><ele>347.0</ele><time>2026-04-25T08:14:42.999Z</time></trkpt><trkpt lat="43.870388947021816" lon="12.668850262837575"><ele>344.0</ele><time>2026-04-25T08:14:43.999Z</time></trkpt><trkpt lat="43.87040580424926" lon="12.668977667297288"><ele>341.0</ele><time>2026-04-25T08:14:44.999Z</time></trkpt><trkpt lat="43.87042631655036" lon="12.6690971647088"><ele>338.0</ele><time>2026-04-25T08:14:45.999Z</time></trkpt><trkpt lat="43.87046283791547" lon="12.6691959024757"><ele>338.0</ele><time>2026-04-25T08:14:46.999Z</time></trkpt><trkpt lat="43.87051169723363" lon="12.669274062033974"><ele>338.0</ele><time>2026-04-25T08:14:47.999Z</time></trkpt><trkpt lat="43.87058104352913" lon="12.669321044438858"><ele>338.0</ele><time>2026-04-25T08:14:48.999Z</time></trkpt><trkpt lat="43.87066881989447" lon="12.669331449174999"><ele>338.0</ele><time>2026-04-25T08:14:49.999Z</time></trkpt><trkpt lat="43.870761279072475" lon="12.669301532041127"><ele>338.0</ele><time>2026-04-25T08:14:50.999Z</time></trkpt><trkpt lat="43.870849075731286" lon="12.669247978688466"><ele>338.0</ele><time>2026-04-25T08:14:51.999Z</time></trkpt><trkpt lat="43.87093799628539" lon="12.669171596429672"><ele>337.2</ele><time>2026-04-25T08:14:52.999Z</time></trkpt><trkpt lat="43.87102269248541" lon="12.669081765274333"><ele>336.4</ele><time>2026-04-25T08:14:53.999Z</time></trkpt><trkpt lat="43.871102802758564" lon="12.669010086106326"><ele>335.59999999999997</ele><time>2026-04-25T08:14:54.999Z</time></trkpt><trkpt lat="43.871188468128864" lon="12.668971139554534"><ele>334.79999999999995</ele><time>2026-04-25T08:14:55.999Z</time></trkpt><trkpt lat="43.8712606669403" lon="12.668909767318455"><ele>334.0</ele><time>2026-04-25T08:14:56.999Z</time></trkpt><trkpt lat="43.871344895153335" lon="12.66889448256469"><ele>334.0</ele><time>2026-04-25T08:14:57.999Z</time></trkpt><trkpt lat="43.871421922085446" lon="12.668890848538481"><ele>334.0</ele><time>2026-04-25T08:14:58.999Z</time></trkpt><trkpt lat="43.87149686086436" lon="12.66891479027118"><ele>334.0</ele><time>2026-04-25T08:14:59.999Z</time></trkpt><trkpt lat="43.87156958376068" lon="12.66890720719136"><ele>334.0</ele><time>2026-04-25T08:15:00.999Z</time></trkpt><trkpt lat="43.87164849842101" lon="12.668915834216573"><ele>334.0</ele><time>2026-04-25T08:15:01.999Z</time></trkpt><trkpt lat="43.87172827999627" lon="12.668924455879894"><ele>334.0</ele><time>2026-04-25T08:15:02.999Z</time></trkpt><trkpt lat="43.87180746721071" lon="12.668936712322475"><ele>336.0</ele><time>2026-04-25T08:15:03.999Z</time></trkpt><trkpt lat="43.8718792403091" lon="12.668952967903287"><ele>338.0</ele><time>2026-04-25T08:15:04.999Z</time></trkpt><trkpt lat="43.8719503619352" lon="12.668967859382098"><ele>340.0</ele><time>2026-04-25T08:15:06Z</time></trkpt><trkpt lat="43.87201664221723" lon="12.668987051641603"><ele>342.0</ele><time>2026-04-25T08:15:07Z</time></trkpt><trkpt lat="43.87208078897186" lon="12.669005297467036"><ele>344.0</ele><time>2026-04-25T08:15:08Z</time></trkpt><trkpt lat="43.872191722367745" lon="12.669064936576163"><ele>346.0</ele><time>2026-04-25T08:15:10Z</time></trkpt><trkpt lat="43.8722436957074" lon="12.669118323251942"><ele>346.0</ele><time>2026-04-25T08:15:11Z</time></trkpt><trkpt lat="43.87229778476176" lon="12.669182816519736"><ele>346.0</ele><time>2026-04-25T08:15:12Z</time></trkpt><trkpt lat="43.87234562434748" lon="12.66931157048231"><ele>346.0</ele><time>2026-04-25T08:15:14Z</time></trkpt><trkpt lat="43.87238381696181" lon="12.669417852537368"><ele>346.0</ele><time>2026-04-25T08:15:16Z</time></trkpt><trkpt lat="43.87241626414339" lon="12.669520868625597"><ele>346.0</ele><time>2026-04-25T08:15:18Z</time></trkpt><trkpt lat="43.872453152239075" lon="12.669617706994384"><ele>346.0</ele><time>2026-04-25T08:15:19Z</time></trkpt><trkpt lat="43.872520163067264" lon="12.669734644139922"><ele>343.0</ele><time>2026-04-25T08:15:20Z</time></trkpt><trkpt lat="43.87262848194911" lon="12.669817679077445"><ele>340.0</ele><time>2026-04-25T08:15:21Z</time></trkpt><trkpt lat="43.87273911571215" lon="12.669905774408408"><ele>337.0</ele><time>2026-04-25T08:15:22Z</time></trkpt><trkpt lat="43.872841981803774" lon="12.669990180509386"><ele>334.0</ele><time>2026-04-25T08:15:23Z</time></trkpt><trkpt lat="43.87294174625622" lon="12.670021138772617"><ele>334.0</ele><time>2026-04-25T08:15:24Z</time></trkpt><trkpt lat="43.873020753474364" lon="12.67004279903035"><ele>334.0</ele><time>2026-04-25T08:15:25Z</time></trkpt><trkpt lat="43.87313484587904" lon="12.670052915067263"><ele>334.0</ele><time>2026-04-25T08:15:27Z</time></trkpt><trkpt lat="43.8732380187516" lon="12.670032001868769"><ele>334.0</ele><time>2026-04-25T08:15:29Z</time></trkpt><trkpt lat="43.87331926524003" lon="12.669967438381654"><ele>334.0</ele><time>2026-04-25T08:15:31Z</time></trkpt><trkpt lat="43.87337539432999" lon="12.66987756682062"><ele>332.6</ele><time>2026-04-25T08:15:33Z</time></trkpt><trkpt lat="43.87345685467561" lon="12.669779724640577"><ele>331.2</ele><time>2026-04-25T08:15:35Z</time></trkpt><trkpt lat="43.87351459445269" lon="12.669695025601953"><ele>329.8</ele><time>2026-04-25T08:15:36Z</time></trkpt><trkpt lat="43.87357770145746" lon="12.669598182546606"><ele>328.40000000000003</ele><time>2026-04-25T08:15:37Z</time></trkpt><trkpt lat="43.87364549829618" lon="12.669494142721089"><ele>327.0</ele><time>2026-04-25T08:15:38Z</time></trkpt><trkpt lat="43.87372200281714" lon="12.669377536200727"><ele>327.0</ele><time>2026-04-25T08:15:39Z</time></trkpt><trkpt lat="43.87378794855721" lon="12.669244093319675"><ele>327.0</ele><time>2026-04-25T08:15:40Z</time></trkpt><trkpt lat="43.87386631204345" lon="12.669128743564773"><ele>327.0</ele><time>2026-04-25T08:15:41Z</time></trkpt><trkpt lat="43.87395460366005" lon="12.669033793265452"><ele>327.0</ele><time>2026-04-25T08:15:42Z</time></trkpt><trkpt lat="43.874025435276316" lon="12.6689306291737"><ele>327.0</ele><time>2026-04-25T08:15:43Z</time></trkpt><trkpt lat="43.874074773541494" lon="12.668857798195784"><ele>327.0</ele><time>2026-04-25T08:15:44Z</time></trkpt><trkpt lat="43.874154738321266" lon="12.668739757628947"><ele>327.0</ele><time>2026-04-25T08:15:46Z</time></trkpt><trkpt lat="43.87419961409176" lon="12.668644596586764"><ele>327.0</ele><time>2026-04-25T08:15:48Z</time></trkpt><trkpt lat="43.87425304942908" lon="12.668563524188508"><ele>327.0</ele><time>2026-04-25T08:15:50Z</time></trkpt><trkpt lat="43.87432746241731" lon="12.668476435764015"><ele>327.0</ele><time>2026-04-25T08:15:52Z</time></trkpt><trkpt lat="43.87438953814292" lon="12.668359630316681"><ele>325.20000000000005</ele><time>2026-04-25T08:15:54Z</time></trkpt><trkpt lat="43.87438730577191" lon="12.66826940718331"><ele>323.40000000000003</ele><time>2026-04-25T08:15:55Z</time></trkpt><trkpt lat="43.87437965850818" lon="12.6681531754096"><ele>321.6</ele><time>2026-04-25T08:15:56Z</time></trkpt><trkpt lat="43.87439767508489" lon="12.66802080407325"><ele>319.8</ele><time>2026-04-25T08:15:57Z</time></trkpt><trkpt lat="43.8744218551016" lon="12.667865514486527"><ele>318.0</ele><time>2026-04-25T08:15:58Z</time></trkpt><trkpt lat="43.87443491386625" lon="12.667703708071139"><ele>316.5</ele><time>2026-04-25T08:15:59Z</time></trkpt><trkpt lat="43.874437277348" lon="12.667535297015739"><ele>315.0</ele><time>2026-04-25T08:16:00Z</time></trkpt><trkpt lat="43.8744408230599" lon="12.667356054389128"><ele>313.5</ele><time>2026-04-25T08:16:01Z</time></trkpt><trkpt lat="43.874439115464085" lon="12.667165015576275"><ele>312.0</ele><time>2026-04-25T08:16:02Z</time></trkpt><trkpt lat="43.87443844472353" lon="12.666965448764929"><ele>310.5</ele><time>2026-04-25T08:16:03Z</time></trkpt><trkpt lat="43.87443914567928" lon="12.666764152448764"><ele>309.0</ele><time>2026-04-25T08:16:04Z</time></trkpt><trkpt lat="43.87444011689766" lon="12.666557832450565"><ele>307.5</ele><time>2026-04-25T08:16:05Z</time></trkpt><trkpt lat="43.87443956790822" lon="12.666355206613519"><ele>306.0</ele><time>2026-04-25T08:16:06Z</time></trkpt><trkpt lat="43.874444087930144" lon="12.666161183371743"><ele>304.25</ele><time>2026-04-25T08:16:07Z</time></trkpt><trkpt lat="43.874449489474365" lon="12.665972474650715"><ele>302.5</ele><time>2026-04-25T08:16:08Z</time></trkpt><trkpt lat="43.87445414562305" lon="12.665788236776823"><ele>300.75</ele><time>2026-04-25T08:16:09Z</time></trkpt><trkpt lat="43.874460796661104" lon="12.665611831896923"><ele>299.0</ele><time>2026-04-25T08:16:10Z</time></trkpt><trkpt lat="43.87446561900553" lon="12.665442991293995"><ele>299.0</ele><time>2026-04-25T08:16:11Z</time></trkpt><trkpt lat="43.874466843316625" lon="12.665282995134403"><ele>299.0</ele><time>2026-04-25T08:16:12Z</time></trkpt><trkpt lat="43.874479154722806" lon="12.665126912100996"><ele>299.0</ele><time>2026-04-25T08:16:13Z</time></trkpt><trkpt lat="43.87445805549677" lon="12.664978006502782"><ele>299.0</ele><time>2026-04-25T08:16:14Z</time></trkpt><trkpt lat="43.87444103352706" lon="12.664833066596879"><ele>299.0</ele><time>2026-04-25T08:16:15Z</time></trkpt><trkpt lat="43.874414615532544" lon="12.664688494031028"><ele>298.0</ele><time>2026-04-25T08:16:16Z</time></trkpt><trkpt lat="43.87439238401083" lon="12.66453375729726"><ele>297.0</ele><time>2026-04-25T08:16:17Z</time></trkpt><trkpt lat="43.87436346623882" lon="12.664377391517323"><ele>296.0</ele><time>2026-04-25T08:16:18Z</time></trkpt><trkpt lat="43.874331174258515" lon="12.664214368475388"><ele>295.0</ele><time>2026-04-25T08:16:19Z</time></trkpt><trkpt lat="43.87429729868912" lon="12.664052388734506"><ele>295.2</ele><time>2026-04-25T08:16:20Z</time></trkpt><trkpt lat="43.87426113151643" lon="12.663900638319538"><ele>295.4</ele><time>2026-04-25T08:16:21Z</time></trkpt><trkpt lat="43.87422455846543" lon="12.663750978681339"><ele>295.6</ele><time>2026-04-25T08:16:22Z</time></trkpt><trkpt lat="43.87419945544353" lon="12.663610942583647"><ele>295.8</ele><time>2026-04-25T08:16:23Z</time></trkpt><trkpt lat="43.874182657951906" lon="12.663487795474985"><ele>296.0</ele><time>2026-04-25T08:16:24Z</time></trkpt><trkpt lat="43.87417635266502" lon="12.663378206867076"><ele>296.0</ele><time>2026-04-25T08:16:25Z</time></trkpt><trkpt lat="43.87417593376738" lon="12.663280112566255"><ele>296.0</ele><time>2026-04-25T08:16:26Z</time></trkpt><trkpt lat="43.874192608353226" lon="12.663159748162652"><ele>296.0</ele><time>2026-04-25T08:16:27Z</time></trkpt><trkpt lat="43.87423189301043" lon="12.663034491531121"><ele>296.0</ele><time>2026-04-25T08:16:28Z</time></trkpt><trkpt lat="43.87429058804572" lon="12.662909118379476"><ele>296.0</ele><time>2026-04-25T08:16:29Z</time></trkpt><trkpt lat="43.8743667232495" lon="12.662787915228888"><ele>295.5</ele><time>2026-04-25T08:16:30Z</time></trkpt><trkpt lat="43.8744525452553" lon="12.662656898492518"><ele>295.0</ele><time>2026-04-25T08:16:31Z</time></trkpt><trkpt lat="43.874548628530526" lon="12.662518340494538"><ele>294.5</ele><time>2026-04-25T08:16:32Z</time></trkpt><trkpt lat="43.874677356465135" lon="12.662420790749358"><ele>294.0</ele><time>2026-04-25T08:16:33Z</time></trkpt><trkpt lat="43.87480667918275" lon="12.662333549347867"><ele>294.0</ele><time>2026-04-25T08:16:34Z</time></trkpt><trkpt lat="43.874933705785296" lon="12.662271959389113"><ele>294.0</ele><time>2026-04-25T08:16:35Z</time></trkpt><trkpt lat="43.875050872716194" lon="12.66219103015303"><ele>294.0</ele><time>2026-04-25T08:16:36Z</time></trkpt><trkpt lat="43.875169699311456" lon="12.662111240705814"><ele>294.0</ele><time>2026-04-25T08:16:37Z</time></trkpt><trkpt lat="43.87528373190432" lon="12.662002779081558"><ele>292.5</ele><time>2026-04-25T08:16:38Z</time></trkpt><trkpt lat="43.87540728602314" lon="12.661895670838033"><ele>291.0</ele><time>2026-04-25T08:16:39Z</time></trkpt><trkpt lat="43.875526257491195" lon="12.661769500101661"><ele>289.5</ele><time>2026-04-25T08:16:40Z</time></trkpt><trkpt lat="43.875644992003735" lon="12.661644749395878"><ele>288.0</ele><time>2026-04-25T08:16:41Z</time></trkpt><trkpt lat="43.87575344691664" lon="12.661530799134548"><ele>288.0</ele><time>2026-04-25T08:16:42Z</time></trkpt><trkpt lat="43.87585625445091" lon="12.66142332090604"><ele>288.0</ele><time>2026-04-25T08:16:42.999Z</time></trkpt><trkpt lat="43.875940493674214" lon="12.661291213928077"><ele>288.0</ele><time>2026-04-25T08:16:43.999Z</time></trkpt><trkpt lat="43.87603024961202" lon="12.661159412733044"><ele>288.0</ele><time>2026-04-25T08:16:44.999Z</time></trkpt><trkpt lat="43.87610703993944" lon="12.661001182098968"><ele>285.3333333333333</ele><time>2026-04-25T08:16:45.999Z</time></trkpt><trkpt lat="43.87619438521063" lon="12.660840287990922"><ele>282.66666666666663</ele><time>2026-04-25T08:16:46.999Z</time></trkpt><trkpt lat="43.87627438085108" lon="12.66067015877898"><ele>280.0</ele><time>2026-04-25T08:16:47.999Z</time></trkpt><trkpt lat="43.87635706230039" lon="12.660481982673788"><ele>280.0</ele><time>2026-04-25T08:16:48.999Z</time></trkpt><trkpt lat="43.87645344902423" lon="12.660303977046311"><ele>280.0</ele><time>2026-04-25T08:16:49.999Z</time></trkpt><trkpt lat="43.87654278645337" lon="12.66014013284967"><ele>280.0</ele><time>2026-04-25T08:16:50.999Z</time></trkpt><trkpt lat="43.87661394361262" lon="12.659980339829236"><ele>280.0</ele><time>2026-04-25T08:16:51.999Z</time></trkpt><trkpt lat="43.87666497287607" lon="12.659806227400802"><ele>282.25</ele><time>2026-04-25T08:16:52.999Z</time></trkpt><trkpt lat="43.87668327197092" lon="12.659612028836072"><ele>284.5</ele><time>2026-04-25T08:16:53.999Z</time></trkpt><trkpt lat="43.87667819770096" lon="12.659431826025132"><ele>286.75</ele><time>2026-04-25T08:16:54.999Z</time></trkpt><trkpt lat="43.876688242364516" lon="12.65927143650098"><ele>289.0</ele><time>2026-04-25T08:16:55.999Z</time></trkpt><trkpt lat="43.876677450677015" lon="12.65910917095116"><ele>289.5</ele><time>2026-04-25T08:16:56.999Z</time></trkpt><trkpt lat="43.87667472162196" lon="12.658940820876525"><ele>290.0</ele><time>2026-04-25T08:16:57.999Z</time></trkpt><trkpt lat="43.876673776727365" lon="12.658761170498838"><ele>290.5</ele><time>2026-04-25T08:16:58.999Z</time></trkpt><trkpt lat="43.8767202576686" lon="12.658580690460806"><ele>291.0</ele><time>2026-04-25T08:16:59.999Z</time></trkpt><trkpt lat="43.87675946687877" lon="12.65838306769854"><ele>291.75</ele><time>2026-04-25T08:17:00.999Z</time></trkpt><trkpt lat="43.876823683736724" lon="12.658199825222333"><ele>292.5</ele><time>2026-04-25T08:17:01.999Z</time></trkpt><trkpt lat="43.876905934035584" lon="12.658042463949164"><ele>293.25</ele><time>2026-04-25T08:17:02.999Z</time></trkpt><trkpt lat="43.876967487813594" lon="12.657890917005663"><ele>294.0</ele><time>2026-04-25T08:17:03.999Z</time></trkpt><trkpt lat="43.87705541365537" lon="12.65779887010092"><ele>294.0</ele><time>2026-04-25T08:17:04.999Z</time></trkpt><trkpt lat="43.87715898073086" lon="12.657757272412546"><ele>294.0</ele><time>2026-04-25T08:17:05.999Z</time></trkpt><trkpt lat="43.87726884516405" lon="12.657750592522572"><ele>294.0</ele><time>2026-04-25T08:17:06.999Z</time></trkpt><trkpt lat="43.87738627094188" lon="12.65777468032054"><ele>294.0</ele><time>2026-04-25T08:17:07.999Z</time></trkpt><trkpt lat="43.87751415124489" lon="12.657801398535097"><ele>291.3333333333333</ele><time>2026-04-25T08:17:08.999Z</time></trkpt><trkpt lat="43.8776544825041" lon="12.657826316948851"><ele>288.66666666666663</ele><time>2026-04-25T08:17:09.999Z</time></trkpt><trkpt lat="43.87780469957576" lon="12.657851704104434"><ele>286.0</ele><time>2026-04-25T08:17:10.999Z</time></trkpt><trkpt lat="43.877960824607165" lon="12.657892213147681"><ele>286.0</ele><time>2026-04-25T08:17:12Z</time></trkpt><trkpt lat="43.87811797375075" lon="12.657923390194462"><ele>286.0</ele><time>2026-04-25T08:17:13Z</time></trkpt><trkpt lat="43.87826841087153" lon="12.657950847985893"><ele>286.0</ele><time>2026-04-25T08:17:14Z</time></trkpt><trkpt lat="43.87842081003926" lon="12.658000929012731"><ele>284.75</ele><time>2026-04-25T08:17:15Z</time></trkpt><trkpt lat="43.87856816450921" lon="12.6580500774402"><ele>283.5</ele><time>2026-04-25T08:17:16Z</time></trkpt><trkpt lat="43.87871504672585" lon="12.658091210096094"><ele>282.25</ele><time>2026-04-25T08:17:17Z</time></trkpt><trkpt lat="43.87886086801595" lon="12.658119369779524"><ele>281.0</ele><time>2026-04-25T08:17:18Z</time></trkpt><trkpt lat="43.879009596454296" lon="12.658134875770171"><ele>281.0</ele><time>2026-04-25T08:17:19Z</time></trkpt><trkpt lat="43.879160708747584" lon="12.658133491419985"><ele>281.0</ele><time>2026-04-25T08:17:20Z</time></trkpt><trkpt lat="43.87930595764849" lon="12.658120365722032"><ele>281.0</ele><time>2026-04-25T08:17:21Z</time></trkpt><trkpt lat="43.87943933487161" lon="12.658095872859375"><ele>281.0</ele><time>2026-04-25T08:17:22Z</time></trkpt><trkpt lat="43.87956824459729" lon="12.658038187279269"><ele>280.6666666666667</ele><time>2026-04-25T08:17:23Z</time></trkpt><trkpt lat="43.879689926648766" lon="12.657931597274139"><ele>280.3333333333333</ele><time>2026-04-25T08:17:24Z</time></trkpt><trkpt lat="43.879803060318906" lon="12.657780500945073"><ele>280.0</ele><time>2026-04-25T08:17:25Z</time></trkpt><trkpt lat="43.8799320192373" lon="12.657633712233945"><ele>280.0</ele><time>2026-04-25T08:17:26Z</time></trkpt><trkpt lat="43.88005971927727" lon="12.657469879152249"><ele>280.0</ele><time>2026-04-25T08:17:27Z</time></trkpt><trkpt lat="43.88017936645103" lon="12.657320255676268"><ele>280.0</ele><time>2026-04-25T08:17:28Z</time></trkpt><trkpt lat="43.88029693419511" lon="12.657183696518334"><ele>279.3333333333333</ele><time>2026-04-25T08:17:29Z</time></trkpt><trkpt lat="43.88041905814957" lon="12.657052199222184"><ele>278.6666666666667</ele><time>2026-04-25T08:17:30Z</time></trkpt><trkpt lat="43.88054542225386" lon="12.656920068060808"><ele>278.0</ele><time>2026-04-25T08:17:31Z</time></trkpt><trkpt lat="43.88067119538114" lon="12.6567920090125"><ele>278.0</ele><time>2026-04-25T08:17:32Z</time></trkpt><trkpt lat="43.88079587810286" lon="12.656670755306127"><ele>278.0</ele><time>2026-04-25T08:17:33Z</time></trkpt><trkpt lat="43.88090995031436" lon="12.656536140312056"><ele>278.0</ele><time>2026-04-25T08:17:34Z</time></trkpt><trkpt lat="43.881033349162486" lon="12.656425675900012"><ele>278.0</ele><time>2026-04-25T08:17:35Z</time></trkpt><trkpt lat="43.88115268406462" lon="12.65631360937332"><ele>278.25</ele><time>2026-04-25T08:17:36Z</time></trkpt><trkpt lat="43.881258959627566" lon="12.65620342366679"><ele>278.5</ele><time>2026-04-25T08:17:37Z</time></trkpt><trkpt lat="43.88134554510895" lon="12.656099971269118"><ele>278.75</ele><time>2026-04-25T08:17:38Z</time></trkpt><trkpt lat="43.88140688710829" lon="12.65598094826046"><ele>279.0</ele><time>2026-04-25T08:17:39Z</time></trkpt><trkpt lat="43.881437128014184" lon="12.655850531958903"><ele>279.0</ele><time>2026-04-25T08:17:40Z</time></trkpt><trkpt lat="43.88143944466478" lon="12.655724117081048"><ele>279.0</ele><time>2026-04-25T08:17:41Z</time></trkpt><trkpt lat="43.8814057371127" lon="12.655613403561595"><ele>279.0</ele><time>2026-04-25T08:17:42Z</time></trkpt><trkpt lat="43.88134623116547" lon="12.65550887448809"><ele>279.0</ele><time>2026-04-25T08:17:43Z</time></trkpt><trkpt lat="43.88131303978368" lon="12.65539715140514"><ele>279.0</ele><time>2026-04-25T08:17:44Z</time></trkpt><trkpt lat="43.88133031969824" lon="12.655273095922261"><ele>277.59999999999997</ele><time>2026-04-25T08:17:45Z</time></trkpt><trkpt lat="43.88140165377817" lon="12.655192798647898"><ele>276.2</ele><time>2026-04-25T08:17:46Z</time></trkpt><trkpt lat="43.881485623239044" lon="12.655116573653435"><ele>274.79999999999995</ele><time>2026-04-25T08:17:47Z</time></trkpt><trkpt lat="43.88158714820082" lon="12.65503053232371"><ele>273.4</ele><time>2026-04-25T08:17:48Z</time></trkpt><trkpt lat="43.88170175799647" lon="12.65494662612142"><ele>272.0</ele><time>2026-04-25T08:17:49Z</time></trkpt><trkpt lat="43.88182484755249" lon="12.654870462983984"><ele>271.5</ele><time>2026-04-25T08:17:50Z</time></trkpt><trkpt lat="43.88194118543539" lon="12.654817687890496"><ele>271.0</ele><time>2026-04-25T08:17:51Z</time></trkpt><trkpt lat="43.882053720113284" lon="12.654802510974351"><ele>270.5</ele><time>2026-04-25T08:17:52Z</time></trkpt><trkpt lat="43.88216442816945" lon="12.654831158919196"><ele>270.0</ele><time>2026-04-25T08:17:53Z</time></trkpt><trkpt lat="43.88226823422375" lon="12.654875914159248"><ele>270.0</ele><time>2026-04-25T08:17:54Z</time></trkpt><trkpt lat="43.88237393722092" lon="12.654894686035881"><ele>270.0</ele><time>2026-04-25T08:17:55Z</time></trkpt><trkpt lat="43.88247489141637" lon="12.654912033524173"><ele>270.0</ele><time>2026-04-25T08:17:56Z</time></trkpt><trkpt lat="43.882572478124835" lon="12.654896409585595"><ele>270.0</ele><time>2026-04-25T08:17:57Z</time></trkpt><trkpt lat="43.88266138911171" lon="12.654847039718033"><ele>270.0</ele><time>2026-04-25T08:17:58Z</time></trkpt><trkpt lat="43.882736687871564" lon="12.654752679308075"><ele>267.0</ele><time>2026-04-25T08:17:59Z</time></trkpt><trkpt lat="43.88279417092728" lon="12.654626926500853"><ele>264.0</ele><time>2026-04-25T08:18:00Z</time></trkpt><trkpt lat="43.88284446893752" lon="12.65448900284724"><ele>261.0</ele><time>2026-04-25T08:18:01Z</time></trkpt><trkpt lat="43.8828944736474" lon="12.65433708728709"><ele>258.0</ele><time>2026-04-25T08:18:02Z</time></trkpt><trkpt lat="43.88294229090174" lon="12.654170776559669"><ele>257.5</ele><time>2026-04-25T08:18:03Z</time></trkpt><trkpt lat="43.882991664329246" lon="12.654001099086143"><ele>257.0</ele><time>2026-04-25T08:18:04Z</time></trkpt><trkpt lat="43.8830429293252" lon="12.653839337759802"><ele>256.5</ele><time>2026-04-25T08:18:05Z</time></trkpt><trkpt lat="43.88308336456023" lon="12.653693327378198"><ele>256.0</ele><time>2026-04-25T08:18:06Z</time></trkpt><trkpt lat="43.88311492565211" lon="12.65355654040768"><ele>256.8</ele><time>2026-04-25T08:18:07Z</time></trkpt><trkpt lat="43.883114499620554" lon="12.653419571929527"><ele>257.6</ele><time>2026-04-25T08:18:08Z</time></trkpt><trkpt lat="43.88308545546989" lon="12.653283708207132"><ele>258.4</ele><time>2026-04-25T08:18:09Z</time></trkpt><trkpt lat="43.88302902144561" lon="12.653152100597977"><ele>259.2</ele><time>2026-04-25T08:18:10Z</time></trkpt><trkpt lat="43.88295970901649" lon="12.653022041222972"><ele>260.0</ele><time>2026-04-25T08:18:11Z</time></trkpt><trkpt lat="43.88288464859585" lon="12.652890054306688"><ele>259.75</ele><time>2026-04-25T08:18:12Z</time></trkpt><trkpt lat="43.88280398689098" lon="12.652752523259887"><ele>259.5</ele><time>2026-04-25T08:18:13Z</time></trkpt><trkpt lat="43.882728540203395" lon="12.652616289440129"><ele>259.25</ele><time>2026-04-25T08:18:14Z</time></trkpt><trkpt lat="43.882654537710685" lon="12.652481028997226"><ele>259.0</ele><time>2026-04-25T08:18:15Z</time></trkpt><trkpt lat="43.88258070012534" lon="12.652346676936643"><ele>259.0</ele><time>2026-04-25T08:18:16Z</time></trkpt><trkpt lat="43.882504898423925" lon="12.652207916521606"><ele>259.0</ele><time>2026-04-25T08:18:17Z</time></trkpt><trkpt lat="43.88242788945465" lon="12.652065220037944"><ele>259.0</ele><time>2026-04-25T08:18:18Z</time></trkpt><trkpt lat="43.882349098435434" lon="12.651919645467537"><ele>259.0</ele><time>2026-04-25T08:18:19Z</time></trkpt><trkpt lat="43.882267038573914" lon="12.651774580209224"><ele>260.25</ele><time>2026-04-25T08:18:20Z</time></trkpt><trkpt lat="43.882185082193004" lon="12.651625289063185"><ele>261.5</ele><time>2026-04-25T08:18:21Z</time></trkpt><trkpt lat="43.882100538267736" lon="12.651470948945253"><ele>262.75</ele><time>2026-04-25T08:18:22Z</time></trkpt><trkpt lat="43.88201856331025" lon="12.651312111652901"><ele>264.0</ele><time>2026-04-25T08:18:23Z</time></trkpt><trkpt lat="43.8819415267445" lon="12.65115664097149"><ele>263.8</ele><time>2026-04-25T08:18:24Z</time></trkpt><trkpt lat="43.881876302920524" lon="12.65100797348957"><ele>263.59999999999997</ele><time>2026-04-25T08:18:25Z</time></trkpt><trkpt lat="43.88181486286169" lon="12.650858762764331"><ele>263.4</ele><time>2026-04-25T08:18:26Z</time></trkpt><trkpt lat="43.88177698254727" lon="12.65073887186016"><ele>263.2</ele><time>2026-04-25T08:18:27Z</time></trkpt><trkpt lat="43.881763542345546" lon="12.650634857746564"><ele>263.0</ele><time>2026-04-25T08:18:28Z</time></trkpt><trkpt lat="43.881780582457075" lon="12.650524805740798"><ele>263.0</ele><time>2026-04-25T08:18:29Z</time></trkpt><trkpt lat="43.881833930891254" lon="12.650438812178757"><ele>263.0</ele><time>2026-04-25T08:18:30Z</time></trkpt><trkpt lat="43.88191693743505" lon="12.65038476655559"><ele>263.0</ele><time>2026-04-25T08:18:31Z</time></trkpt><trkpt lat="43.88202164422113" lon="12.650340994737922"><ele>263.0</ele><time>2026-04-25T08:18:32Z</time></trkpt><trkpt lat="43.882143724181276" lon="12.650295894277706"><ele>263.0</ele><time>2026-04-25T08:18:33Z</time></trkpt><trkpt lat="43.882259249934386" lon="12.650198023821574"><ele>260.75</ele><time>2026-04-25T08:18:34Z</time></trkpt><trkpt lat="43.88234856750357" lon="12.650042053016762"><ele>258.5</ele><time>2026-04-25T08:18:35Z</time></trkpt><trkpt lat="43.88242015770721" lon="12.649872256666269"><ele>256.25</ele><time>2026-04-25T08:18:36Z</time></trkpt><trkpt lat="43.88247532965912" lon="12.649683378551057"><ele>254.0</ele><time>2026-04-25T08:18:37Z</time></trkpt><trkpt lat="43.88251560806267" lon="12.649497741527629"><ele>252.2</ele><time>2026-04-25T08:18:38Z</time></trkpt><trkpt lat="43.882545508663696" lon="12.649333806438069"><ele>250.39999999999998</ele><time>2026-04-25T08:18:39Z</time></trkpt><trkpt lat="43.88257011137308" lon="12.649193193346955"><ele>248.6</ele><time>2026-04-25T08:18:40Z</time></trkpt><trkpt lat="43.88259266875277" lon="12.64906376101913"><ele>246.8</ele><time>2026-04-25T08:18:41Z</time></trkpt><trkpt lat="43.88261959042556" lon="12.648939561147976"><ele>245.0</ele><time>2026-04-25T08:18:42Z</time></trkpt><trkpt lat="43.88266238885799" lon="12.648828014258434"><ele>245.0</ele><time>2026-04-25T08:18:43Z</time></trkpt><trkpt lat="43.88272501979925" lon="12.648723872882178"><ele>245.0</ele><time>2026-04-25T08:18:44Z</time></trkpt><trkpt lat="43.882821176624894" lon="12.64866740054662"><ele>245.0</ele><time>2026-04-25T08:18:45Z</time></trkpt><trkpt lat="43.88292239402653" lon="12.648626536879293"><ele>245.0</ele><time>2026-04-25T08:18:45.999Z</time></trkpt><trkpt lat="43.88303280875391" lon="12.648658597285404"><ele>245.0</ele><time>2026-04-25T08:18:46.999Z</time></trkpt><trkpt lat="43.883135174119346" lon="12.648727465901073"><ele>245.0</ele><time>2026-04-25T08:18:47.999Z</time></trkpt><trkpt lat="43.88322714012192" lon="12.648817645466512"><ele>245.0</ele><time>2026-04-25T08:18:48.999Z</time></trkpt><trkpt lat="43.88331716563544" lon="12.648918363902725"><ele>245.0</ele><time>2026-04-25T08:18:49.999Z</time></trkpt><trkpt lat="43.883405875602655" lon="12.64902321091806"><ele>245.0</ele><time>2026-04-25T08:18:50.999Z</time></trkpt><trkpt lat="43.883497005428396" lon="12.649127190508478"><ele>241.0</ele><time>2026-04-25T08:18:51.999Z</time></trkpt><trkpt lat="43.88359167513984" lon="12.649227597741692"><ele>237.0</ele><time>2026-04-25T08:18:52.999Z</time></trkpt><trkpt lat="43.88368608683261" lon="12.649329441928943"><ele>233.0</ele><time>2026-04-25T08:18:53.999Z</time></trkpt><trkpt lat="43.88376960973141" lon="12.649436911326443"><ele>229.0</ele><time>2026-04-25T08:18:54.999Z</time></trkpt><trkpt lat="43.88383797965392" lon="12.64956574844782"><ele>229.0</ele><time>2026-04-25T08:18:55.999Z</time></trkpt><trkpt lat="43.88389513881297" lon="12.649714472084947"><ele>229.0</ele><time>2026-04-25T08:18:56.999Z</time></trkpt><trkpt lat="43.88394559162791" lon="12.649876420688642"><ele>229.0</ele><time>2026-04-25T08:18:57.999Z</time></trkpt><trkpt lat="43.88398666343268" lon="12.650045296804556"><ele>229.0</ele><time>2026-04-25T08:18:58.999Z</time></trkpt><trkpt lat="43.8840238974773" lon="12.650218146071774"><ele>230.0</ele><time>2026-04-25T08:18:59.999Z</time></trkpt><trkpt lat="43.88405898595969" lon="12.650393821181078"><ele>231.0</ele><time>2026-04-25T08:19:00.999Z</time></trkpt><trkpt lat="43.88409579133039" lon="12.65055829367426"><ele>232.0</ele><time>2026-04-25T08:19:01.999Z</time></trkpt><trkpt lat="43.8841447768645" lon="12.650704747252899"><ele>233.0</ele><time>2026-04-25T08:19:02.999Z</time></trkpt><trkpt lat="43.88422105644219" lon="12.650831614833413"><ele>231.5</ele><time>2026-04-25T08:19:03.999Z</time></trkpt><trkpt lat="43.88432449945728" lon="12.650934221036703"><ele>230.0</ele><time>2026-04-25T08:19:04.999Z</time></trkpt><trkpt lat="43.88444794755965" lon="12.651020829971376"><ele>228.5</ele><time>2026-04-25T08:19:05.999Z</time></trkpt><trkpt lat="43.88457195382582" lon="12.651125078147524"><ele>227.0</ele><time>2026-04-25T08:19:06.999Z</time></trkpt><trkpt lat="43.884686193258105" lon="12.651247026516932"><ele>227.0</ele><time>2026-04-25T08:19:07.999Z</time></trkpt><trkpt lat="43.88479248672263" lon="12.651365157176627"><ele>227.0</ele><time>2026-04-25T08:19:08.999Z</time></trkpt><trkpt lat="43.884893593785876" lon="12.651475533242193"><ele>227.0</ele><time>2026-04-25T08:19:09.999Z</time></trkpt><trkpt lat="43.88498676746048" lon="12.651586054618608"><ele>227.0</ele><time>2026-04-25T08:19:10.999Z</time></trkpt><trkpt lat="43.88507644041685" lon="12.651688643805574"><ele>225.0</ele><time>2026-04-25T08:19:11.999Z</time></trkpt><trkpt lat="43.88516473563561" lon="12.651787229193642"><ele>223.0</ele><time>2026-04-25T08:19:12.999Z</time></trkpt><trkpt lat="43.8852430030027" lon="12.651879145454878"><ele>221.0</ele><time>2026-04-25T08:19:13.999Z</time></trkpt><trkpt lat="43.88531432020804" lon="12.651963788981284"><ele>219.0</ele><time>2026-04-25T08:19:14.999Z</time></trkpt><trkpt lat="43.885385280349226" lon="12.652027977149409"><ele>217.0</ele><time>2026-04-25T08:19:15.999Z</time></trkpt><trkpt lat="43.885453687880435" lon="12.652038524632214"><ele>216.99999999999997</ele><time>2026-04-25T08:19:16.999Z</time></trkpt><trkpt lat="43.88551696619606" lon="12.651989320184766"><ele>217.0</ele><time>2026-04-25T08:19:18Z</time></trkpt><trkpt lat="43.88555189033859" lon="12.651895378343704"><ele>217.0</ele><time>2026-04-25T08:19:19Z</time></trkpt><trkpt lat="43.885535283584254" lon="12.65178324570452"><ele>217.0</ele><time>2026-04-25T08:19:20Z</time></trkpt><trkpt lat="43.8854715963301" lon="12.65168328818022"><ele>216.99999999999997</ele><time>2026-04-25T08:19:21Z</time></trkpt><trkpt lat="43.88539175849692" lon="12.651591077389211"><ele>217.0</ele><time>2026-04-25T08:19:22Z</time></trkpt><trkpt lat="43.88531010698976" lon="12.65148983203281"><ele>217.39999999999998</ele><time>2026-04-25T08:19:23Z</time></trkpt><trkpt lat="43.88524182890545" lon="12.65138521323641"><ele>217.79999999999998</ele><time>2026-04-25T08:19:24Z</time></trkpt><trkpt lat="43.88517942420221" lon="12.65127612921984"><ele>218.2</ele><time>2026-04-25T08:19:25Z</time></trkpt><trkpt lat="43.885121622886246" lon="12.651159807220342"><ele>218.6</ele><time>2026-04-25T08:19:26Z</time></trkpt><trkpt lat="43.88507388724344" lon="12.651031672646116"><ele>219.0</ele><time>2026-04-25T08:19:27Z</time></trkpt><trkpt lat="43.88502888072283" lon="12.650896295717981"><ele>219.0</ele><time>2026-04-25T08:19:28Z</time></trkpt><trkpt lat="43.88499633211452" lon="12.650766665043797"><ele>219.0</ele><time>2026-04-25T08:19:29Z</time></trkpt><trkpt lat="43.88497691460455" lon="12.650648884430932"><ele>219.0</ele><time>2026-04-25T08:19:30Z</time></trkpt><trkpt lat="43.88498192163551" lon="12.650536415313313"><ele>219.0</ele><time>2026-04-25T08:19:31Z</time></trkpt><trkpt lat="43.885027916476595" lon="12.650444617464387"><ele>219.0</ele><time>2026-04-25T08:19:32Z</time></trkpt><trkpt lat="43.88509905211808" lon="12.650388693274458"><ele>219.0</ele><time>2026-04-25T08:19:33Z</time></trkpt><trkpt lat="43.8851795240403" lon="12.650376720980326"><ele>216.0</ele><time>2026-04-25T08:19:34Z</time></trkpt><trkpt lat="43.88525870783105" lon="12.6504252518131"><ele>212.99999999999997</ele><time>2026-04-25T08:19:35Z</time></trkpt><trkpt lat="43.885323520453724" lon="12.65052146090314"><ele>210.0</ele><time>2026-04-25T08:19:36Z</time></trkpt><trkpt lat="43.885368989742695" lon="12.650650527984318"><ele>207.0</ele><time>2026-04-25T08:19:37Z</time></trkpt><trkpt lat="43.88539694220175" lon="12.650784857084776"><ele>204.0</ele><time>2026-04-25T08:19:38Z</time></trkpt><trkpt lat="43.8854143171317" lon="12.650916589403527"><ele>204.0</ele><time>2026-04-25T08:19:39Z</time></trkpt><trkpt lat="43.88544367355583" lon="12.65104503011144"><ele>204.0</ele><time>2026-04-25T08:19:40Z</time></trkpt><trkpt lat="43.88551225205218" lon="12.651161032698786"><ele>204.0</ele><time>2026-04-25T08:19:41Z</time></trkpt><trkpt lat="43.885604656087516" lon="12.651257779803872"><ele>204.0</ele><time>2026-04-25T08:19:42Z</time></trkpt><trkpt lat="43.88571053070975" lon="12.651328636336066"><ele>204.0</ele><time>2026-04-25T08:19:43Z</time></trkpt><trkpt lat="43.885821243558695" lon="12.651386116702835"><ele>203.39999999999998</ele><time>2026-04-25T08:19:44Z</time></trkpt><trkpt lat="43.88592763415212" lon="12.651426258325065"><ele>202.8</ele><time>2026-04-25T08:19:45Z</time></trkpt><trkpt lat="43.886029954440154" lon="12.651477892571027"><ele>202.2</ele><time>2026-04-25T08:19:46Z</time></trkpt><trkpt lat="43.88613386270323" lon="12.651526890980204"><ele>201.60000000000002</ele><time>2026-04-25T08:19:47Z</time></trkpt><trkpt lat="43.886251418562495" lon="12.651559124251072"><ele>201.0</ele><time>2026-04-25T08:19:48Z</time></trkpt><trkpt lat="43.886363631070154" lon="12.651588505463069"><ele>201.0</ele><time>2026-04-25T08:19:49Z</time></trkpt><trkpt lat="43.88648878038015" lon="12.651618430419344"><ele>201.0</ele><time>2026-04-25T08:19:50Z</time></trkpt><trkpt lat="43.8866181046695" lon="12.651645975503861"><ele>201.0</ele><time>2026-04-25T08:19:51Z</time></trkpt><trkpt lat="43.88675026021596" lon="12.651675813495352"><ele>201.0</ele><time>2026-04-25T08:19:52Z</time></trkpt><trkpt lat="43.88688040278495" lon="12.651719240650056"><ele>200.0</ele><time>2026-04-25T08:19:53Z</time></trkpt><trkpt lat="43.88699856680574" lon="12.651772662678683"><ele>199.0</ele><time>2026-04-25T08:19:54Z</time></trkpt><trkpt lat="43.88711181890466" lon="12.65184497343258"><ele>198.0</ele><time>2026-04-25T08:19:55Z</time></trkpt><trkpt lat="43.88721357666967" lon="12.651950000014589"><ele>197.0</ele><time>2026-04-25T08:19:56Z</time></trkpt><trkpt lat="43.88730108691968" lon="12.652071333760844"><ele>196.0</ele><time>2026-04-25T08:19:57Z</time></trkpt><trkpt lat="43.887377638354906" lon="12.652185115147624"><ele>195.0</ele><time>2026-04-25T08:19:58Z</time></trkpt><trkpt lat="43.88745703794205" lon="12.652276092302781"><ele>194.0</ele><time>2026-04-25T08:19:59Z</time></trkpt><trkpt lat="43.88754809853041" lon="12.65234792077276"><ele>193.0</ele><time>2026-04-25T08:20:00Z</time></trkpt><trkpt lat="43.88764998602607" lon="12.652397515376537"><ele>192.0</ele><time>2026-04-25T08:20:01Z</time></trkpt><trkpt lat="43.88775740467309" lon="12.652429392978005"><ele>191.2</ele><time>2026-04-25T08:20:02Z</time></trkpt><trkpt lat="43.88787676759172" lon="12.652448269111767"><ele>190.39999999999998</ele><time>2026-04-25T08:20:03Z</time></trkpt><trkpt lat="43.8879841695357" lon="12.652448509798793"><ele>189.60000000000002</ele><time>2026-04-25T08:20:04Z</time></trkpt><trkpt lat="43.888085720380545" lon="12.652416694143605"><ele>188.8</ele><time>2026-04-25T08:20:05Z</time></trkpt><trkpt lat="43.88817615822773" lon="12.652344298947863"><ele>188.0</ele><time>2026-04-25T08:20:06Z</time></trkpt><trkpt lat="43.888277648805406" lon="12.652280128923792"><ele>188.0</ele><time>2026-04-25T08:20:07Z</time></trkpt><trkpt lat="43.88837227052894" lon="12.652226982316678"><ele>188.0</ele><time>2026-04-25T08:20:08Z</time></trkpt><trkpt lat="43.888470870098445" lon="12.65222861599933"><ele>188.0</ele><time>2026-04-25T08:20:09Z</time></trkpt><trkpt lat="43.88857991804133" lon="12.652247170736466"><ele>188.0</ele><time>2026-04-25T08:20:10Z</time></trkpt><trkpt lat="43.8886830790775" lon="12.652304053871333"><ele>188.0</ele><time>2026-04-25T08:20:11Z</time></trkpt><trkpt lat="43.88879071274409" lon="12.6523568442985"><ele>186.5</ele><time>2026-04-25T08:20:12Z</time></trkpt><trkpt lat="43.88889964381699" lon="12.65240001525998"><ele>185.0</ele><time>2026-04-25T08:20:13Z</time></trkpt><trkpt lat="43.88901139016954" lon="12.652417407185471"><ele>183.5</ele><time>2026-04-25T08:20:14Z</time></trkpt><trkpt lat="43.88913030740192" lon="12.652400910094817"><ele>182.0</ele><time>2026-04-25T08:20:15Z</time></trkpt><trkpt lat="43.889257954558396" lon="12.65237336927471"><ele>181.66666666666666</ele><time>2026-04-25T08:20:16Z</time></trkpt><trkpt lat="43.889377274445444" lon="12.652259907481438"><ele>181.33333333333334</ele><time>2026-04-25T08:20:17Z</time></trkpt><trkpt lat="43.88951179707709" lon="12.652160833669779"><ele>181.0</ele><time>2026-04-25T08:20:18Z</time></trkpt><trkpt lat="43.88964742825233" lon="12.652031985323747"><ele>179.33333333333334</ele><time>2026-04-25T08:20:19Z</time></trkpt><trkpt lat="43.8897765827687" lon="12.651874705694416"><ele>177.66666666666666</ele><time>2026-04-25T08:20:20Z</time></trkpt><trkpt lat="43.889920128951914" lon="12.65175608589907"><ele>176.0</ele><time>2026-04-25T08:20:21Z</time></trkpt><trkpt lat="43.89006828561388" lon="12.651659663001425"><ele>174.33333333333331</ele><time>2026-04-25T08:20:22Z</time></trkpt><trkpt lat="43.890211122078846" lon="12.651582835971046"><ele>172.66666666666666</ele><time>2026-04-25T08:20:23Z</time></trkpt><trkpt lat="43.89035293906896" lon="12.651533765694154"><ele>171.0</ele><time>2026-04-25T08:20:24Z</time></trkpt><trkpt lat="43.89050407549417" lon="12.651520890833547"><ele>171.0</ele><time>2026-04-25T08:20:25Z</time></trkpt><trkpt lat="43.890650408176356" lon="12.651554876803969"><ele>171.0</ele><time>2026-04-25T08:20:26Z</time></trkpt><trkpt lat="43.89076020394325" lon="12.651603712484924"><ele>171.0</ele><time>2026-04-25T08:20:27Z</time></trkpt><trkpt lat="43.89084387779685" lon="12.651654564107279"><ele>171.0</ele><time>2026-04-25T08:20:28Z</time></trkpt><trkpt lat="43.89091013355061" lon="12.651748265302473"><ele>171.0</ele><time>2026-04-25T08:20:29Z</time></trkpt><trkpt lat="43.89093023609703" lon="12.651883899367942"><ele>171.0</ele><time>2026-04-25T08:20:30Z</time></trkpt><trkpt lat="43.890912780773576" lon="12.652061516239726"><ele>171.0</ele><time>2026-04-25T08:20:31Z</time></trkpt><trkpt lat="43.89086093650794" lon="12.652267851497506"><ele>171.0</ele><time>2026-04-25T08:20:32Z</time></trkpt><trkpt lat="43.890795479409704" lon="12.652499449262908"><ele>171.0</ele><time>2026-04-25T08:20:33Z</time></trkpt><trkpt lat="43.89073795258745" lon="12.652701795807248"><ele>171.0</ele><time>2026-04-25T08:20:34Z</time></trkpt><trkpt lat="43.89069087352843" lon="12.652879751057261"><ele>171.0</ele><time>2026-04-25T08:20:35Z</time></trkpt><trkpt lat="43.890627052839704" lon="12.653022577012367"><ele>171.0</ele><time>2026-04-25T08:20:36Z</time></trkpt><trkpt lat="43.890540615866456" lon="12.653133149820194"><ele>170.0</ele><time>2026-04-25T08:20:37Z</time></trkpt><trkpt lat="43.8904481325318" lon="12.653221645723388"><ele>169.0</ele><time>2026-04-25T08:20:38Z</time></trkpt><trkpt lat="43.89035630956192" lon="12.653277461571836"><ele>168.0</ele><time>2026-04-25T08:20:39Z</time></trkpt><trkpt lat="43.89026721324989" lon="12.653306886467274"><ele>167.0</ele><time>2026-04-25T08:20:40Z</time></trkpt><trkpt lat="43.890195930333604" lon="12.653357729032619"><ele>166.0</ele><time>2026-04-25T08:20:41Z</time></trkpt><trkpt lat="43.89015145833691" lon="12.653446450148742"><ele>166.0</ele><time>2026-04-25T08:20:42Z</time></trkpt><trkpt lat="43.89015014487195" lon="12.653560367378619"><ele>166.0</ele><time>2026-04-25T08:20:43Z</time></trkpt><trkpt lat="43.890201267421375" lon="12.65366186610517"><ele>166.0</ele><time>2026-04-25T08:20:44Z</time></trkpt><trkpt lat="43.89027820470398" lon="12.65373380326782"><ele>166.0</ele><time>2026-04-25T08:20:45Z</time></trkpt><trkpt lat="43.89037114877697" lon="12.653781343758068"><ele>166.0</ele><time>2026-04-25T08:20:46Z</time></trkpt><trkpt lat="43.89048004296478" lon="12.653809640220468"><ele>164.20000000000002</ele><time>2026-04-25T08:20:47Z</time></trkpt><trkpt lat="43.890587514316344" lon="12.653823247963434"><ele>162.4</ele><time>2026-04-25T08:20:48Z</time></trkpt><trkpt lat="43.890694495950754" lon="12.65383196207218"><ele>160.6</ele><time>2026-04-25T08:20:49Z</time></trkpt><trkpt lat="43.89079994818014" lon="12.653828199734516"><ele>158.8</ele><time>2026-04-25T08:20:50Z</time></trkpt><trkpt lat="43.890902690654656" lon="12.653794857152665"><ele>157.0</ele><time>2026-04-25T08:20:51Z</time></trkpt><trkpt lat="43.890996316727616" lon="12.653733422159567"><ele>156.0</ele><time>2026-04-25T08:20:52Z</time></trkpt><trkpt lat="43.891077152280054" lon="12.653640247473113"><ele>155.0</ele><time>2026-04-25T08:20:53Z</time></trkpt><trkpt lat="43.89114905400675" lon="12.65353004937763"><ele>154.0</ele><time>2026-04-25T08:20:54Z</time></trkpt><trkpt lat="43.89120214597174" lon="12.653393954348678"><ele>153.0</ele><time>2026-04-25T08:20:55Z</time></trkpt><trkpt lat="43.891258616678506" lon="12.65325234198248"><ele>152.0</ele><time>2026-04-25T08:20:56Z</time></trkpt><trkpt lat="43.89132646660402" lon="12.653114368649392"><ele>152.0</ele><time>2026-04-25T08:20:57Z</time></trkpt><trkpt lat="43.89141379689243" lon="12.65297668157678"><ele>152.0</ele><time>2026-04-25T08:20:58Z</time></trkpt><trkpt lat="43.89154999013691" lon="12.652907556121972"><ele>152.0</ele><time>2026-04-25T08:20:59Z</time></trkpt><trkpt lat="43.891684139960105" lon="12.652832772614186"><ele>152.0</ele><time>2026-04-25T08:21:00Z</time></trkpt><trkpt lat="43.891814614996676" lon="12.652768244595823"><ele>151.25</ele><time>2026-04-25T08:21:01Z</time></trkpt><trkpt lat="43.89194356813042" lon="12.652684393800126"><ele>150.5</ele><time>2026-04-25T08:21:02Z</time></trkpt><trkpt lat="43.892074849553396" lon="12.652635809032132"><ele>149.75</ele><time>2026-04-25T08:21:03Z</time></trkpt><trkpt lat="43.8922106907554" lon="12.652614646682999"><ele>149.0</ele><time>2026-04-25T08:21:04Z</time></trkpt><trkpt lat="43.892353371186715" lon="12.652609148888637"><ele>149.0</ele><time>2026-04-25T08:21:05Z</time></trkpt><trkpt lat="43.89249799206428" lon="12.652651166441432"><ele>149.0</ele><time>2026-04-25T08:21:06Z</time></trkpt><trkpt lat="43.892649919986255" lon="12.652667322700616"><ele>149.0</ele><time>2026-04-25T08:21:07Z</time></trkpt><trkpt lat="43.89280165145999" lon="12.65271025762585"><ele>147.0</ele><time>2026-04-25T08:21:07.999Z</time></trkpt><trkpt lat="43.892956749356024" lon="12.652747554269098"><ele>145.0</ele><time>2026-04-25T08:21:08.999Z</time></trkpt><trkpt lat="43.89310295974" lon="12.652784332734843"><ele>143.0</ele><time>2026-04-25T08:21:09.999Z</time></trkpt><trkpt lat="43.89324500705943" lon="12.652824731522836"><ele>141.0</ele><time>2026-04-25T08:21:10.999Z</time></trkpt><trkpt lat="43.893384638246346" lon="12.65286397607894"><ele>139.0</ele><time>2026-04-25T08:21:11.999Z</time></trkpt><trkpt lat="43.89351863213998" lon="12.652901465911409"><ele>137.0</ele><time>2026-04-25T08:21:12.999Z</time></trkpt><trkpt lat="43.89365219852001" lon="12.65294184126173"><ele>135.0</ele><time>2026-04-25T08:21:13.999Z</time></trkpt><trkpt lat="43.89378678115557" lon="12.652990958029692"><ele>133.75</ele><time>2026-04-25T08:21:14.999Z</time></trkpt><trkpt lat="43.893919107362365" lon="12.653058303109253"><ele>132.5</ele><time>2026-04-25T08:21:15.999Z</time></trkpt><trkpt lat="43.89404676149064" lon="12.653144498408674"><ele>131.25</ele><time>2026-04-25T08:21:16.999Z</time></trkpt><trkpt lat="43.89416973684882" lon="12.653231641513141"><ele>130.0</ele><time>2026-04-25T08:21:17.999Z</time></trkpt><trkpt lat="43.89428987859673" lon="12.653308465730598"><ele>128.6</ele><time>2026-04-25T08:21:18.999Z</time></trkpt><trkpt lat="43.89440610305143" lon="12.653358671261211"><ele>127.2</ele><time>2026-04-25T08:21:19.999Z</time></trkpt><trkpt lat="43.894511639927316" lon="12.653372252753739"><ele>125.80000000000001</ele><time>2026-04-25T08:21:20.999Z</time></trkpt><trkpt lat="43.89461855791466" lon="12.653341892785186"><ele>124.4</ele><time>2026-04-25T08:21:21.999Z</time></trkpt><trkpt lat="43.894714847647336" lon="12.653261160528608"><ele>123.0</ele><time>2026-04-25T08:21:22.999Z</time></trkpt><trkpt lat="43.894790128896354" lon="12.65313477443477"><ele>123.0</ele><time>2026-04-25T08:21:24Z</time></trkpt><trkpt lat="43.89484870488871" lon="12.6529782762571"><ele>123.0</ele><time>2026-04-25T08:21:25Z</time></trkpt><trkpt lat="43.894881253547275" lon="12.652818132487225"><ele>123.0</ele><time>2026-04-25T08:21:26Z</time></trkpt><trkpt lat="43.89489274616965" lon="12.65265956393943"><ele>123.0</ele><time>2026-04-25T08:21:27Z</time></trkpt><trkpt lat="43.89491296454239" lon="12.65250510547"><ele>122.83333333333333</ele><time>2026-04-25T08:21:28Z</time></trkpt><trkpt lat="43.894906530456375" lon="12.652367269580033"><ele>122.66666666666666</ele><time>2026-04-25T08:21:29Z</time></trkpt><trkpt lat="43.894949250482505" lon="12.652268005105771"><ele>122.5</ele><time>2026-04-25T08:21:30Z</time></trkpt><trkpt lat="43.89501376660278" lon="12.652222391651204"><ele>122.33333333333333</ele><time>2026-04-25T08:21:31Z</time></trkpt><trkpt lat="43.895093175595086" lon="12.65224062655863"><ele>122.16666666666666</ele><time>2026-04-25T08:21:32Z</time></trkpt><trkpt lat="43.89517182138945" lon="12.652326227546373"><ele>122.0</ele><time>2026-04-25T08:21:33Z</time></trkpt><trkpt lat="43.89523660533831" lon="12.652457032015057"><ele>119.25</ele><time>2026-04-25T08:21:34Z</time></trkpt><trkpt lat="43.895308795188136" lon="12.652606088169971"><ele>116.5</ele><time>2026-04-25T08:21:35Z</time></trkpt><trkpt lat="43.89538871350948" lon="12.652756223942324"><ele>113.75</ele><time>2026-04-25T08:21:36Z</time></trkpt><trkpt lat="43.89546756353236" lon="12.65290241663978"><ele>111.0</ele><time>2026-04-25T08:21:37Z</time></trkpt><trkpt lat="43.89554722828705" lon="12.65305508853563"><ele>111.0</ele><time>2026-04-25T08:21:38Z</time></trkpt><trkpt lat="43.89562106692067" lon="12.653211670264673"><ele>111.0</ele><time>2026-04-25T08:21:39Z</time></trkpt><trkpt lat="43.89566881492522" lon="12.653386712959772"><ele>111.0</ele><time>2026-04-25T08:21:40Z</time></trkpt><trkpt lat="43.89567629744638" lon="12.653572768692243"><ele>111.0</ele><time>2026-04-25T08:21:41Z</time></trkpt><trkpt lat="43.895652232259394" lon="12.653752830294053"><ele>110.25</ele><time>2026-04-25T08:21:42Z</time></trkpt><trkpt lat="43.89560432473534" lon="12.653923634369523"><ele>109.5</ele><time>2026-04-25T08:21:43Z</time></trkpt><trkpt lat="43.89553735281586" lon="12.65407167813236"><ele>108.75</ele><time>2026-04-25T08:21:44Z</time></trkpt><trkpt lat="43.895456815834926" lon="12.654183965535946"><ele>108.0</ele><time>2026-04-25T08:21:45Z</time></trkpt><trkpt lat="43.895356667443366" lon="12.65426155607867"><ele>108.0</ele><time>2026-04-25T08:21:46Z</time></trkpt><trkpt lat="43.8952514858687" lon="12.654319921670714"><ele>108.00000000000001</ele><time>2026-04-25T08:21:47Z</time></trkpt><trkpt lat="43.89516134900389" lon="12.65438984797959"><ele>108.00000000000001</ele><time>2026-04-25T08:21:48Z</time></trkpt><trkpt lat="43.8951109742145" lon="12.654493995061754"><ele>108.0</ele><time>2026-04-25T08:21:49Z</time></trkpt><trkpt lat="43.89509925599476" lon="12.654617980374834"><ele>108.0</ele><time>2026-04-25T08:21:50Z</time></trkpt><trkpt lat="43.89513428510935" lon="12.65475220542447"><ele>106.75</ele><time>2026-04-25T08:21:51Z</time></trkpt><trkpt lat="43.89522655733369" lon="12.654880663585786"><ele>105.5</ele><time>2026-04-25T08:21:52Z</time></trkpt><trkpt lat="43.8953507979273" lon="12.654993486222045"><ele>104.25</ele><time>2026-04-25T08:21:53Z</time></trkpt><trkpt lat="43.89548165537978" lon="12.655073938726936"><ele>103.0</ele><time>2026-04-25T08:21:54Z</time></trkpt><trkpt lat="43.895619525991975" lon="12.655121214797267"><ele>103.0</ele><time>2026-04-25T08:21:55Z</time></trkpt><trkpt lat="43.89575567280356" lon="12.655122605946163"><ele>103.0</ele><time>2026-04-25T08:21:56Z</time></trkpt><trkpt lat="43.895893939643194" lon="12.655090324289091"><ele>103.0</ele><time>2026-04-25T08:21:57Z</time></trkpt><trkpt lat="43.8960391947398" lon="12.655049274628182"><ele>103.0</ele><time>2026-04-25T08:21:58Z</time></trkpt><trkpt lat="43.896173085526634" lon="12.655011559676463"><ele>101.25</ele><time>2026-04-25T08:21:59Z</time></trkpt><trkpt lat="43.8962970106253" lon="12.654962519447327"><ele>99.5</ele><time>2026-04-25T08:22:00Z</time></trkpt><trkpt lat="43.89641801811085" lon="12.654923269163033"><ele>97.75</ele><time>2026-04-25T08:22:01Z</time></trkpt><trkpt lat="43.89652836522596" lon="12.654857159571966"><ele>96.0</ele><time>2026-04-25T08:22:02Z</time></trkpt><trkpt lat="43.8966227351537" lon="12.654807943953301"><ele>96.0</ele><time>2026-04-25T08:22:03Z</time></trkpt><trkpt lat="43.896710381719835" lon="12.654776957876825"><ele>96.0</ele><time>2026-04-25T08:22:04Z</time></trkpt><trkpt lat="43.8967893210147" lon="12.654838351647676"><ele>96.0</ele><time>2026-04-25T08:22:05Z</time></trkpt><trkpt lat="43.896832625372426" lon="12.654948625555136"><ele>96.0</ele><time>2026-04-25T08:22:06Z</time></trkpt><trkpt lat="43.896833270191394" lon="12.655080351836926"><ele>96.0</ele><time>2026-04-25T08:22:07Z</time></trkpt><trkpt lat="43.89680070730245" lon="12.655231318846722"><ele>94.25</ele><time>2026-04-25T08:22:08Z</time></trkpt><trkpt lat="43.89673475947564" lon="12.655382699121704"><ele>92.5</ele><time>2026-04-25T08:22:09Z</time></trkpt><trkpt lat="43.89665594291012" lon="12.655526287190844"><ele>90.75</ele><time>2026-04-25T08:22:10Z</time></trkpt><trkpt lat="43.89658029103791" lon="12.655659141891894"><ele>89.0</ele><time>2026-04-25T08:22:11Z</time></trkpt><trkpt lat="43.89649931403409" lon="12.655800472388712"><ele>89.0</ele><time>2026-04-25T08:22:12Z</time></trkpt><trkpt lat="43.896424477243315" lon="12.655935173426368"><ele>89.0</ele><time>2026-04-25T08:22:13Z</time></trkpt><trkpt lat="43.896367418749" lon="12.656045602409957"><ele>89.0</ele><time>2026-04-25T08:22:14Z</time></trkpt><trkpt lat="43.89632146665886" lon="12.656146561353944"><ele>89.0</ele><time>2026-04-25T08:22:15Z</time></trkpt><trkpt lat="43.89630592054044" lon="12.656249666778852"><ele>89.0</ele><time>2026-04-25T08:22:16Z</time></trkpt><trkpt lat="43.89633567554776" lon="12.656345240063098"><ele>87.6</ele><time>2026-04-25T08:22:17Z</time></trkpt><trkpt lat="43.89638578645956" lon="12.656420904109229"><ele>86.2</ele><time>2026-04-25T08:22:18Z</time></trkpt><trkpt lat="43.89649102496203" lon="12.656393547623805"><ele>84.8</ele><time>2026-04-25T08:22:19Z</time></trkpt><trkpt lat="43.89658805770323" lon="12.65634249487329"><ele>83.39999999999999</ele><time>2026-04-25T08:22:20Z</time></trkpt><trkpt lat="43.89669325581574" lon="12.656256509310666"><ele>82.0</ele><time>2026-04-25T08:22:21Z</time></trkpt><trkpt lat="43.89680455734334" lon="12.656177577456083"><ele>81.25</ele><time>2026-04-25T08:22:22Z</time></trkpt><trkpt lat="43.8969085726466" lon="12.656066401388625"><ele>80.5</ele><time>2026-04-25T08:22:23Z</time></trkpt><trkpt lat="43.89703310137043" lon="12.655970579656676"><ele>79.75</ele><time>2026-04-25T08:22:24Z</time></trkpt><trkpt lat="43.897157999916914" lon="12.655880383032695"><ele>79.0</ele><time>2026-04-25T08:22:25Z</time></trkpt><trkpt lat="43.89727959235814" lon="12.655787098332732"><ele>79.0</ele><time>2026-04-25T08:22:26Z</time></trkpt><trkpt lat="43.89740136104458" lon="12.65569065609382"><ele>79.0</ele><time>2026-04-25T08:22:27Z</time></trkpt><trkpt lat="43.89750738470234" lon="12.655553758044498"><ele>79.0</ele><time>2026-04-25T08:22:28Z</time></trkpt><trkpt lat="43.89760476677143" lon="12.65540175025111"><ele>79.0</ele><time>2026-04-25T08:22:29Z</time></trkpt><trkpt lat="43.897693043071406" lon="12.655247130609348"><ele>78.0</ele><time>2026-04-25T08:22:30Z</time></trkpt><trkpt lat="43.897798897678676" lon="12.655120715132279"><ele>77.0</ele><time>2026-04-25T08:22:31Z</time></trkpt><trkpt lat="43.89790451001518" lon="12.655005337841708"><ele>76.0</ele><time>2026-04-25T08:22:32Z</time></trkpt><trkpt lat="43.89803073473569" lon="12.654901151487183"><ele>75.0</ele><time>2026-04-25T08:22:33Z</time></trkpt><trkpt lat="43.898174306719916" lon="12.654803202255865"><ele>75.0</ele><time>2026-04-25T08:22:34Z</time></trkpt><trkpt lat="43.89832452462386" lon="12.654703290427575"><ele>75.0</ele><time>2026-04-25T08:22:35Z</time></trkpt><trkpt lat="43.89846907473465" lon="12.654582661872416"><ele>75.0</ele><time>2026-04-25T08:22:36Z</time></trkpt><trkpt lat="43.898611950796415" lon="12.654493665388433"><ele>74.75</ele><time>2026-04-25T08:22:37Z</time></trkpt><trkpt lat="43.89874772913712" lon="12.65439705245795"><ele>74.5</ele><time>2026-04-25T08:22:38Z</time></trkpt><trkpt lat="43.89887761356061" lon="12.654292367027475"><ele>74.25</ele><time>2026-04-25T08:22:39Z</time></trkpt><trkpt lat="43.89899397005608" lon="12.65417004349032"><ele>74.0</ele><time>2026-04-25T08:22:40Z</time></trkpt><trkpt lat="43.89908729020731" lon="12.654024872430467"><ele>74.0</ele><time>2026-04-25T08:22:41Z</time></trkpt><trkpt lat="43.89915230347201" lon="12.653859279425598"><ele>74.0</ele><time>2026-04-25T08:22:42Z</time></trkpt><trkpt lat="43.89919695581931" lon="12.653689116963594"><ele>74.0</ele><time>2026-04-25T08:22:43Z</time></trkpt><trkpt lat="43.89923916325911" lon="12.653539119677776"><ele>74.0</ele><time>2026-04-25T08:22:44Z</time></trkpt><trkpt lat="43.89931152241765" lon="12.653427791410554"><ele>75.75</ele><time>2026-04-25T08:22:45Z</time></trkpt><trkpt lat="43.899432667932565" lon="12.653363713381648"><ele>77.5</ele><time>2026-04-25T08:22:46Z</time></trkpt><trkpt lat="43.8995744061624" lon="12.65331668949895"><ele>79.25</ele><time>2026-04-25T08:22:47Z</time></trkpt><trkpt lat="43.89973570913291" lon="12.65327382249657"><ele>81.0</ele><time>2026-04-25T08:22:48Z</time></trkpt><trkpt lat="43.899910635282545" lon="12.653231152256863"><ele>81.0</ele><time>2026-04-25T08:22:49Z</time></trkpt><trkpt lat="43.90007680043628" lon="12.65320937579428"><ele>81.0</ele><time>2026-04-25T08:22:50Z</time></trkpt><trkpt lat="43.900229355788206" lon="12.653200534029086"><ele>81.0</ele><time>2026-04-25T08:22:51Z</time></trkpt><trkpt lat="43.9003793424924" lon="12.653212604115486"><ele>82.0</ele><time>2026-04-25T08:22:52Z</time></trkpt><trkpt lat="43.900522591170606" lon="12.65324432357162"><ele>83.0</ele><time>2026-04-25T08:22:53Z</time></trkpt><trkpt lat="43.900662211290395" lon="12.653281186972734"><ele>84.0</ele><time>2026-04-25T08:22:54Z</time></trkpt><trkpt lat="43.90080120750324" lon="12.653316550401088"><ele>85.0</ele><time>2026-04-25T08:22:55Z</time></trkpt><trkpt lat="43.90093718304003" lon="12.65332986581837"><ele>85.75</ele><time>2026-04-25T08:22:56Z</time></trkpt><trkpt lat="43.901060449454825" lon="12.653302966756497"><ele>86.5</ele><time>2026-04-25T08:22:57Z</time></trkpt><trkpt lat="43.901172274913066" lon="12.653218732281232"><ele>87.25</ele><time>2026-04-25T08:22:58Z</time></trkpt><trkpt lat="43.90125932324319" lon="12.653085752402964"><ele>88.0</ele><time>2026-04-25T08:22:59Z</time></trkpt><trkpt lat="43.901317122117845" lon="12.65291142081561"><ele>90.0</ele><time>2026-04-25T08:23:00Z</time></trkpt><trkpt lat="43.9013874730199" lon="12.652730687538485"><ele>92.0</ele><time>2026-04-25T08:23:01Z</time></trkpt><trkpt lat="43.90146315924161" lon="12.652569212012018"><ele>94.0</ele><time>2026-04-25T08:23:02Z</time></trkpt><trkpt lat="43.90155315054797" lon="12.652427846123425"><ele>96.0</ele><time>2026-04-25T08:23:03Z</time></trkpt><trkpt lat="43.90170866321083" lon="12.652385783107434"><ele>94.66666666666667</ele><time>2026-04-25T08:23:04Z</time></trkpt><trkpt lat="43.90187733040763" lon="12.652322897191569"><ele>93.33333333333334</ele><time>2026-04-25T08:23:05Z</time></trkpt><trkpt lat="43.90203524916895" lon="12.652243441805991"><ele>92.0</ele><time>2026-04-25T08:23:06Z</time></trkpt><trkpt lat="43.902191955419276" lon="12.652183401609408"><ele>92.0</ele><time>2026-04-25T08:23:07Z</time></trkpt><trkpt lat="43.9023447618" lon="12.652087692085212"><ele>92.0</ele><time>2026-04-25T08:23:08Z</time></trkpt><trkpt lat="43.90250899511323" lon="12.65198860872497"><ele>92.0</ele><time>2026-04-25T08:23:09Z</time></trkpt><trkpt lat="43.90266480999245" lon="12.651858480330604"><ele>92.33333333333334</ele><time>2026-04-25T08:23:10Z</time></trkpt><trkpt lat="43.902813773578536" lon="12.651711661474803"><ele>92.66666666666667</ele><time>2026-04-25T08:23:11Z</time></trkpt><trkpt lat="43.902937383463374" lon="12.65155529251402"><ele>93.0</ele><time>2026-04-25T08:23:12Z</time></trkpt><trkpt lat="43.903012130052645" lon="12.651357943575437"><ele>93.0</ele><time>2026-04-25T08:23:13Z</time></trkpt><trkpt lat="43.90307548614159" lon="12.651146847074017"><ele>93.0</ele><time>2026-04-25T08:23:14Z</time></trkpt><trkpt lat="43.90312934878554" lon="12.65091776970415"><ele>93.0</ele><time>2026-04-25T08:23:14.999Z</time></trkpt><trkpt lat="43.90321300828719" lon="12.650696844122294"><ele>93.0</ele><time>2026-04-25T08:23:15.999Z</time></trkpt><trkpt lat="43.90329308696442" lon="12.650496906826275"><ele>93.0</ele><time>2026-04-25T08:23:16.999Z</time></trkpt><trkpt lat="43.903391241407334" lon="12.650335655386563"><ele>93.0</ele><time>2026-04-25T08:23:17.999Z</time></trkpt><trkpt lat="43.9035135123962" lon="12.650212164849648"><ele>93.0</ele><time>2026-04-25T08:23:18.999Z</time></trkpt><trkpt lat="43.903650323040075" lon="12.650142965141908"><ele>93.0</ele><time>2026-04-25T08:23:19.999Z</time></trkpt><trkpt lat="43.90379443972906" lon="12.650092633282798"><ele>93.0</ele><time>2026-04-25T08:23:20.999Z</time></trkpt><trkpt lat="43.9039186032233" lon="12.650017758304747"><ele>93.0</ele><time>2026-04-25T08:23:21.999Z</time></trkpt><trkpt lat="43.904029859179616" lon="12.64994328439106"><ele>93.0</ele><time>2026-04-25T08:23:22.999Z</time></trkpt><trkpt lat="43.90411495142413" lon="12.649806179048227"><ele>93.0</ele><time>2026-04-25T08:23:23.999Z</time></trkpt><trkpt lat="43.90415880095514" lon="12.649635056176756"><ele>93.0</ele><time>2026-04-25T08:23:24.999Z</time></trkpt><trkpt lat="43.90418943034163" lon="12.649455057631851"><ele>93.0</ele><time>2026-04-25T08:23:25.999Z</time></trkpt><trkpt lat="43.904226214636225" lon="12.64926846182967"><ele>93.0</ele><time>2026-04-25T08:23:26.999Z</time></trkpt><trkpt lat="43.90424401417552" lon="12.649076231618766"><ele>93.0</ele><time>2026-04-25T08:23:27.999Z</time></trkpt><trkpt lat="43.90425933029368" lon="12.64889867410828"><ele>93.0</ele><time>2026-04-25T08:23:28.999Z</time></trkpt><trkpt lat="43.904274228237504" lon="12.648720772539914"><ele>93.0</ele><time>2026-04-25T08:23:30Z</time></trkpt><trkpt lat="43.90429346693115" lon="12.64854332428141"><ele>93.2</ele><time>2026-04-25T08:23:31Z</time></trkpt><trkpt lat="43.90431898593255" lon="12.648380792649293"><ele>93.4</ele><time>2026-04-25T08:23:32Z</time></trkpt><trkpt lat="43.90434497952065" lon="12.648246430172131"><ele>93.60000000000001</ele><time>2026-04-25T08:23:33Z</time></trkpt><trkpt lat="43.90437525494059" lon="12.64813575397388"><ele>93.80000000000001</ele><time>2026-04-25T08:23:34Z</time></trkpt><trkpt lat="43.90441666796411" lon="12.648037845968643"><ele>94.0</ele><time>2026-04-25T08:23:35Z</time></trkpt><trkpt lat="43.904490451357375" lon="12.647984236210245"><ele>94.0</ele><time>2026-04-25T08:23:36Z</time></trkpt><trkpt lat="43.90455070355593" lon="12.647945011913272"><ele>94.0</ele><time>2026-04-25T08:23:37Z</time></trkpt><trkpt lat="43.90457600676902" lon="12.64785530573458"><ele>94.0</ele><time>2026-04-25T08:23:38Z</time></trkpt><trkpt lat="43.90456196761926" lon="12.647742566045206"><ele>94.0</ele><time>2026-04-25T08:23:39Z</time></trkpt><trkpt lat="43.904521243526915" lon="12.647617425055445"><ele>94.0</ele><time>2026-04-25T08:23:40Z</time></trkpt><trkpt lat="43.90453318619828" lon="12.647460698903371"><ele>94.0</ele><time>2026-04-25T08:23:41Z</time></trkpt><trkpt lat="43.90454303600906" lon="12.647284064299162"><ele>94.75</ele><time>2026-04-25T08:23:42Z</time></trkpt><trkpt lat="43.904543007886126" lon="12.647127024856937"><ele>95.5</ele><time>2026-04-25T08:23:43Z</time></trkpt><trkpt lat="43.90457360471179" lon="12.646967689679046"><ele>96.25</ele><time>2026-04-25T08:23:44Z</time></trkpt><trkpt lat="43.90461372785595" lon="12.646808879257799"><ele>97.0</ele><time>2026-04-25T08:23:45Z</time></trkpt><trkpt lat="43.90466207215211" lon="12.64664814254109"><ele>98.25</ele><time>2026-04-25T08:23:46Z</time></trkpt><trkpt lat="43.90471568473184" lon="12.64648766976483"><ele>99.5</ele><time>2026-04-25T08:23:47Z</time></trkpt><trkpt lat="43.90476471813379" lon="12.64632625217519"><ele>100.75</ele><time>2026-04-25T08:23:48Z</time></trkpt><trkpt lat="43.90480720033755" lon="12.646162666139851"><ele>102.0</ele><time>2026-04-25T08:23:49Z</time></trkpt><trkpt lat="43.9048407081882" lon="12.645990372552673"><ele>103.75</ele><time>2026-04-25T08:23:50Z</time></trkpt><trkpt lat="43.90486254447199" lon="12.645806787811958"><ele>105.5</ele><time>2026-04-25T08:23:51Z</time></trkpt><trkpt lat="43.904872044778735" lon="12.645620271472172"><ele>107.25</ele><time>2026-04-25T08:23:52Z</time></trkpt><trkpt lat="43.904868278967975" lon="12.645437849144713"><ele>109.0</ele><time>2026-04-25T08:23:53Z</time></trkpt><trkpt lat="43.904855827547735" lon="12.64525741068213"><ele>109.75</ele><time>2026-04-25T08:23:54Z</time></trkpt><trkpt lat="43.90483724584417" lon="12.645079171845744"><ele>110.5</ele><time>2026-04-25T08:23:55Z</time></trkpt><trkpt lat="43.90481965826427" lon="12.644904018917774"><ele>111.25</ele><time>2026-04-25T08:23:56Z</time></trkpt><trkpt lat="43.904807109267225" lon="12.644730635847713"><ele>112.0</ele><time>2026-04-25T08:23:57Z</time></trkpt><trkpt lat="43.90480095146166" lon="12.644568966628121"><ele>112.25</ele><time>2026-04-25T08:23:58Z</time></trkpt><trkpt lat="43.90479642631206" lon="12.64443599556163"><ele>112.5</ele><time>2026-04-25T08:23:59Z</time></trkpt><trkpt lat="43.904818049825636" lon="12.64432462236663"><ele>112.75</ele><time>2026-04-25T08:24:00Z</time></trkpt><trkpt lat="43.90482055240596" lon="12.64417308986406"><ele>113.0</ele><time>2026-04-25T08:24:02Z</time></trkpt><trkpt lat="43.90467204409386" lon="12.64408172876773"><ele>113.0</ele><time>2026-04-25T08:24:05Z</time></trkpt><trkpt lat="43.90458287708781" lon="12.64409158673901"><ele>113.00000000000001</ele><time>2026-04-25T08:24:06Z</time></trkpt><trkpt lat="43.9044964785574" lon="12.644056448005347"><ele>113.00000000000001</ele><time>2026-04-25T08:24:07Z</time></trkpt><trkpt lat="43.90440800025897" lon="12.643977258970153"><ele>113.0</ele><time>2026-04-25T08:24:08Z</time></trkpt><trkpt lat="43.90432255904102" lon="12.643849899067176"><ele>113.0</ele><time>2026-04-25T08:24:09Z</time></trkpt><trkpt lat="43.904286373250734" lon="12.64369187064894"><ele>114.5</ele><time>2026-04-25T08:24:10Z</time></trkpt><trkpt lat="43.90422178430409" lon="12.643545742024324"><ele>116.0</ele><time>2026-04-25T08:24:11Z</time></trkpt><trkpt lat="43.90416828064064" lon="12.64338500469122"><ele>117.5</ele><time>2026-04-25T08:24:12Z</time></trkpt><trkpt lat="43.90411279312018" lon="12.643218326290803"><ele>119.0</ele><time>2026-04-25T08:24:13Z</time></trkpt><trkpt lat="43.90405407451337" lon="12.64304537275926"><ele>119.0</ele><time>2026-04-25T08:24:14Z</time></trkpt><trkpt lat="43.903990373988094" lon="12.642863379999662"><ele>119.0</ele><time>2026-04-25T08:24:15Z</time></trkpt><trkpt lat="43.90392530536443" lon="12.642676154601666"><ele>119.0</ele><time>2026-04-25T08:24:16Z</time></trkpt><trkpt lat="43.90386202753355" lon="12.642500097609668"><ele>119.0</ele><time>2026-04-25T08:24:17Z</time></trkpt><trkpt lat="43.90380864250491" lon="12.64234142124654"><ele>118.6</ele><time>2026-04-25T08:24:18Z</time></trkpt><trkpt lat="43.90376333043828" lon="12.642201677313142"><ele>118.2</ele><time>2026-04-25T08:24:19Z</time></trkpt><trkpt lat="43.903716883551574" lon="12.642086696481602"><ele>117.79999999999998</ele><time>2026-04-25T08:24:20Z</time></trkpt><trkpt lat="43.90365179191741" lon="12.642000138332442"><ele>117.39999999999999</ele><time>2026-04-25T08:24:21Z</time></trkpt><trkpt lat="43.90356849912914" lon="12.641959257458966"><ele>117.0</ele><time>2026-04-25T08:24:22Z</time></trkpt><trkpt lat="43.90347515828251" lon="12.641983387171702"><ele>118.75</ele><time>2026-04-25T08:24:23Z</time></trkpt><trkpt lat="43.90339378326878" lon="12.642064060613452"><ele>120.5</ele><time>2026-04-25T08:24:24Z</time></trkpt><trkpt lat="43.90334616774681" lon="12.642198780948902"><ele>122.25</ele><time>2026-04-25T08:24:25Z</time></trkpt><trkpt lat="43.90332530353302" lon="12.642370427649583"><ele>124.0</ele><time>2026-04-25T08:24:26Z</time></trkpt><trkpt lat="43.90331916463699" lon="12.642563629286645"><ele>124.0</ele><time>2026-04-25T08:24:27Z</time></trkpt><trkpt lat="43.903299777659505" lon="12.642763737528936"><ele>124.0</ele><time>2026-04-25T08:24:28Z</time></trkpt><trkpt lat="43.903264309778336" lon="12.64295412660292"><ele>124.0</ele><time>2026-04-25T08:24:29Z</time></trkpt><trkpt lat="43.903214727721135" lon="12.643120326389319"><ele>124.0</ele><time>2026-04-25T08:24:30Z</time></trkpt><trkpt lat="43.90314553518176" lon="12.643281800271383"><ele>124.75</ele><time>2026-04-25T08:24:31Z</time></trkpt><trkpt lat="43.90306894347424" lon="12.643449919117321"><ele>125.5</ele><time>2026-04-25T08:24:32Z</time></trkpt><trkpt lat="43.9029907411948" lon="12.643622851693973"><ele>126.25</ele><time>2026-04-25T08:24:33Z</time></trkpt><trkpt lat="43.902912243326966" lon="12.643803250776463"><ele>127.0</ele><time>2026-04-25T08:24:34Z</time></trkpt><trkpt lat="43.90283111097949" lon="12.643987739528182"><ele>127.0</ele><time>2026-04-25T08:24:35Z</time></trkpt><trkpt lat="43.90274573310536" lon="12.644175042173252"><ele>127.0</ele><time>2026-04-25T08:24:36Z</time></trkpt><trkpt lat="43.9026615873361" lon="12.644358460938319"><ele>127.0</ele><time>2026-04-25T08:24:37Z</time></trkpt><trkpt lat="43.902575249698074" lon="12.644544408889589"><ele>130.33333333333334</ele><time>2026-04-25T08:24:38Z</time></trkpt><trkpt lat="43.90248772938878" lon="12.64473293788173"><ele>133.66666666666666</ele><time>2026-04-25T08:24:39Z</time></trkpt><trkpt lat="43.90240556752492" lon="12.6449274985463"><ele>137.0</ele><time>2026-04-25T08:24:40Z</time></trkpt><trkpt lat="43.90232225185355" lon="12.645129477905307"><ele>136.25</ele><time>2026-04-25T08:24:41Z</time></trkpt><trkpt lat="43.90223559154855" lon="12.645323533207408"><ele>135.5</ele><time>2026-04-25T08:24:42Z</time></trkpt><trkpt lat="43.90216189563709" lon="12.645496537953104"><ele>134.75</ele><time>2026-04-25T08:24:43Z</time></trkpt><trkpt lat="43.90208548328315" lon="12.645640303137403"><ele>134.0</ele><time>2026-04-25T08:24:44Z</time></trkpt><trkpt lat="43.902000778206826" lon="12.645740734524905"><ele>134.0</ele><time>2026-04-25T08:24:45Z</time></trkpt><trkpt lat="43.90190538163631" lon="12.645778780902498"><ele>134.0</ele><time>2026-04-25T08:24:46Z</time></trkpt><trkpt lat="43.901811154447216" lon="12.645751896156813"><ele>134.0</ele><time>2026-04-25T08:24:47Z</time></trkpt><trkpt lat="43.90173450861266" lon="12.64567060555438"><ele>134.0</ele><time>2026-04-25T08:24:48Z</time></trkpt><trkpt lat="43.901699989349346" lon="12.645533393364127"><ele>134.0</ele><time>2026-04-25T08:24:49Z</time></trkpt><trkpt lat="43.90170229319071" lon="12.645366676750442"><ele>134.75</ele><time>2026-04-25T08:24:50Z</time></trkpt><trkpt lat="43.901722101489405" lon="12.645173355009662"><ele>135.5</ele><time>2026-04-25T08:24:51Z</time></trkpt><trkpt lat="43.90174393631198" lon="12.64497161545879"><ele>136.25</ele><time>2026-04-25T08:24:52Z</time></trkpt><trkpt lat="43.90176551184813" lon="12.644787692914313"><ele>137.0</ele><time>2026-04-25T08:24:53Z</time></trkpt><trkpt lat="43.901790305440876" lon="12.6446048269717"><ele>137.5</ele><time>2026-04-25T08:24:54Z</time></trkpt><trkpt lat="43.90180408726406" lon="12.64441831211743"><ele>138.0</ele><time>2026-04-25T08:24:55Z</time></trkpt><trkpt lat="43.901826127394756" lon="12.644230933683266"><ele>138.5</ele><time>2026-04-25T08:24:56Z</time></trkpt><trkpt lat="43.90184581690586" lon="12.644042454062228"><ele>139.0</ele><time>2026-04-25T08:24:57Z</time></trkpt><trkpt lat="43.90186535140839" lon="12.643849072597446"><ele>139.0</ele><time>2026-04-25T08:24:58Z</time></trkpt><trkpt lat="43.90187466018854" lon="12.643653625502726"><ele>139.0</ele><time>2026-04-25T08:24:59Z</time></trkpt><trkpt lat="43.90186141269231" lon="12.643462119024438"><ele>139.0</ele><time>2026-04-25T08:25:00Z</time></trkpt><trkpt lat="43.901817244449184" lon="12.643292452566705"><ele>139.0</ele><time>2026-04-25T08:25:01Z</time></trkpt><trkpt lat="43.90175041539806" lon="12.643140522015152"><ele>142.5</ele><time>2026-04-25T08:25:02Z</time></trkpt><trkpt lat="43.90166920541674" lon="12.642997701299686"><ele>146.0</ele><time>2026-04-25T08:25:03Z</time></trkpt><trkpt lat="43.901576794473485" lon="12.64285750541279"><ele>149.5</ele><time>2026-04-25T08:25:04Z</time></trkpt><trkpt lat="43.90148382030387" lon="12.642712053084875"><ele>153.0</ele><time>2026-04-25T08:25:05Z</time></trkpt><trkpt lat="43.90139491230904" lon="12.642552843097022"><ele>153.0</ele><time>2026-04-25T08:25:06Z</time></trkpt><trkpt lat="43.90132562865454" lon="12.64237753479536"><ele>153.0</ele><time>2026-04-25T08:25:07Z</time></trkpt><trkpt lat="43.901266455425066" lon="12.642196961811212"><ele>153.0</ele><time>2026-04-25T08:25:08Z</time></trkpt><trkpt lat="43.90121240455104" lon="12.642015442111564"><ele>153.0</ele><time>2026-04-25T08:25:09Z</time></trkpt><trkpt lat="43.90115487989827" lon="12.641833409051905"><ele>153.25</ele><time>2026-04-25T08:25:10Z</time></trkpt><trkpt lat="43.90109711665588" lon="12.641651953976302"><ele>153.5</ele><time>2026-04-25T08:25:11Z</time></trkpt><trkpt lat="43.901029431171196" lon="12.641474554294044"><ele>153.75</ele><time>2026-04-25T08:25:12Z</time></trkpt><trkpt lat="43.90094278757364" lon="12.64131339349558"><ele>154.0</ele><time>2026-04-25T08:25:13Z</time></trkpt><trkpt lat="43.90083227677946" lon="12.6411816603311"><ele>157.5</ele><time>2026-04-25T08:25:14Z</time></trkpt><trkpt lat="43.90072250249634" lon="12.64105272844175"><ele>161.0</ele><time>2026-04-25T08:25:15Z</time></trkpt><trkpt lat="43.90063309605021" lon="12.640892181578854"><ele>164.5</ele><time>2026-04-25T08:25:16Z</time></trkpt><trkpt lat="43.90056984485844" lon="12.640707848683013"><ele>168.0</ele><time>2026-04-25T08:25:17Z</time></trkpt><trkpt lat="43.90054329010953" lon="12.640504169243012"><ele>168.0</ele><time>2026-04-25T08:25:18Z</time></trkpt><trkpt lat="43.900493486996204" lon="12.640309341222892"><ele>168.0</ele><time>2026-04-25T08:25:19Z</time></trkpt><trkpt lat="43.90045966322312" lon="12.640106430485577"><ele>168.0</ele><time>2026-04-25T08:25:20Z</time></trkpt><trkpt lat="43.90042218859243" lon="12.639907677002752"><ele>168.0</ele><time>2026-04-25T08:25:21Z</time></trkpt><trkpt lat="43.90038656183167" lon="12.639707362122703"><ele>167.75</ele><time>2026-04-25T08:25:22Z</time></trkpt><trkpt lat="43.90035378047333" lon="12.639507964394639"><ele>167.5</ele><time>2026-04-25T08:25:23Z</time></trkpt><trkpt lat="43.90032785304338" lon="12.63930269480694"><ele>167.25</ele><time>2026-04-25T08:25:23.999Z</time></trkpt><trkpt lat="43.900308848210756" lon="12.639097234017912"><ele>167.0</ele><time>2026-04-25T08:25:24.999Z</time></trkpt><trkpt lat="43.90029810712313" lon="12.638892145776312"><ele>167.0</ele><time>2026-04-25T08:25:25.999Z</time></trkpt><trkpt lat="43.90028999552529" lon="12.638688297884134"><ele>167.0</ele><time>2026-04-25T08:25:26.999Z</time></trkpt><trkpt lat="43.900273244980646" lon="12.63848375249187"><ele>167.0</ele><time>2026-04-25T08:25:27.999Z</time></trkpt><trkpt lat="43.90024301244812" lon="12.638279626012126"><ele>167.0</ele><time>2026-04-25T08:25:28.999Z</time></trkpt><trkpt lat="43.90018910028317" lon="12.638086906644673"><ele>165.75</ele><time>2026-04-25T08:25:29.999Z</time></trkpt><trkpt lat="43.90011146836498" lon="12.63790875691259"><ele>164.5</ele><time>2026-04-25T08:25:30.999Z</time></trkpt><trkpt lat="43.900026637016495" lon="12.63773928960608"><ele>163.25</ele><time>2026-04-25T08:25:31.999Z</time></trkpt><trkpt lat="43.89993597309616" lon="12.637578386008622"><ele>162.0</ele><time>2026-04-25T08:25:32.999Z</time></trkpt><trkpt lat="43.89985016010217" lon="12.63742080596844"><ele>166.0</ele><time>2026-04-25T08:25:33.999Z</time></trkpt><trkpt lat="43.89977466274962" lon="12.637275084004274"><ele>170.0</ele><time>2026-04-25T08:25:34.999Z</time></trkpt><trkpt lat="43.89969719372916" lon="12.637156098389104"><ele>174.0</ele><time>2026-04-25T08:25:36Z</time></trkpt><trkpt lat="43.89959858260907" lon="12.637085680717938"><ele>178.0</ele><time>2026-04-25T08:25:37Z</time></trkpt><trkpt lat="43.89948843905346" lon="12.637087061703022"><ele>178.0</ele><time>2026-04-25T08:25:38Z</time></trkpt><trkpt lat="43.89938529762346" lon="12.637157563965474"><ele>178.0</ele><time>2026-04-25T08:25:39Z</time></trkpt><trkpt lat="43.89927347613658" lon="12.637260927736191"><ele>178.0</ele><time>2026-04-25T08:25:40Z</time></trkpt><trkpt lat="43.89913140500845" lon="12.637324722617153"><ele>178.0</ele><time>2026-04-25T08:25:41Z</time></trkpt><trkpt lat="43.89898062257651" lon="12.637330214052202"><ele>179.4</ele><time>2026-04-25T08:25:42Z</time></trkpt><trkpt lat="43.89885527986573" lon="12.637321986259362"><ele>180.8</ele><time>2026-04-25T08:25:43Z</time></trkpt><trkpt lat="43.89874224801781" lon="12.637295422312238"><ele>182.2</ele><time>2026-04-25T08:25:44Z</time></trkpt><trkpt lat="43.89864936141723" lon="12.637235803145995"><ele>183.6</ele><time>2026-04-25T08:25:45Z</time></trkpt><trkpt lat="43.89857645384854" lon="12.63714441439648"><ele>185.0</ele><time>2026-04-25T08:25:46Z</time></trkpt><trkpt lat="43.89854879921123" lon="12.637005385251031"><ele>186.5</ele><time>2026-04-25T08:25:47Z</time></trkpt><trkpt lat="43.89849287649148" lon="12.636851247242204"><ele>188.0</ele><time>2026-04-25T08:25:48Z</time></trkpt><trkpt lat="43.89845191359017" lon="12.636678694064948"><ele>189.5</ele><time>2026-04-25T08:25:49Z</time></trkpt><trkpt lat="43.89835881403026" lon="12.636530311759103"><ele>191.0</ele><time>2026-04-25T08:25:50Z</time></trkpt><trkpt lat="43.89823383156379" lon="12.636403484365967"><ele>191.5</ele><time>2026-04-25T08:25:51Z</time></trkpt><trkpt lat="43.89811628587942" lon="12.636278599981651"><ele>192.0</ele><time>2026-04-25T08:25:52Z</time></trkpt><trkpt lat="43.898027160231834" lon="12.636142550503454"><ele>192.5</ele><time>2026-04-25T08:25:53Z</time></trkpt><trkpt lat="43.89795079891913" lon="12.63599363127552"><ele>193.0</ele><time>2026-04-25T08:25:54Z</time></trkpt><trkpt lat="43.89785279045853" lon="12.635874210494952"><ele>194.5</ele><time>2026-04-25T08:25:55Z</time></trkpt><trkpt lat="43.897725441054156" lon="12.635803005900367"><ele>196.0</ele><time>2026-04-25T08:25:56Z</time></trkpt><trkpt lat="43.897582437572034" lon="12.635780269598172"><ele>197.5</ele><time>2026-04-25T08:25:57Z</time></trkpt><trkpt lat="43.8974339536511" lon="12.635783838389603"><ele>199.0</ele><time>2026-04-25T08:25:58Z</time></trkpt><trkpt lat="43.897283067625395" lon="12.635774883239444"><ele>200.0</ele><time>2026-04-25T08:25:59Z</time></trkpt><trkpt lat="43.8971296957376" lon="12.635740165846086"><ele>201.0</ele><time>2026-04-25T08:26:00Z</time></trkpt><trkpt lat="43.89698113693803" lon="12.635670644604113"><ele>202.0</ele><time>2026-04-25T08:26:01Z</time></trkpt><trkpt lat="43.89683146556963" lon="12.63559115871966"><ele>203.0</ele><time>2026-04-25T08:26:02Z</time></trkpt><trkpt lat="43.89667987481087" lon="12.635540860784426"><ele>204.0</ele><time>2026-04-25T08:26:03Z</time></trkpt><trkpt lat="43.89652635300887" lon="12.63553613257884"><ele>205.0</ele><time>2026-04-25T08:26:04Z</time></trkpt><trkpt lat="43.89636872292774" lon="12.635575575742365"><ele>205.0</ele><time>2026-04-25T08:26:05Z</time></trkpt><trkpt lat="43.89622242988986" lon="12.635654263589684"><ele>205.0</ele><time>2026-04-25T08:26:06Z</time></trkpt><trkpt lat="43.89609685412609" lon="12.635772467165538"><ele>205.0</ele><time>2026-04-25T08:26:07Z</time></trkpt><trkpt lat="43.895987081447835" lon="12.635925372636553"><ele>205.0</ele><time>2026-04-25T08:26:08Z</time></trkpt><trkpt lat="43.895886615070516" lon="12.636090980852167"><ele>205.0</ele><time>2026-04-25T08:26:09Z</time></trkpt><trkpt lat="43.89579018864901" lon="12.6362454673341"><ele>205.0</ele><time>2026-04-25T08:26:10Z</time></trkpt><trkpt lat="43.895695886650074" lon="12.636350432988275"><ele>205.0</ele><time>2026-04-25T08:26:11Z</time></trkpt><trkpt lat="43.89558128985375" lon="12.636394838082325"><ele>205.0</ele><time>2026-04-25T08:26:12Z</time></trkpt><trkpt lat="43.89546057247112" lon="12.636375443961253"><ele>205.0</ele><time>2026-04-25T08:26:13Z</time></trkpt><trkpt lat="43.895334226841186" lon="12.636304602899807"><ele>205.0</ele><time>2026-04-25T08:26:14Z</time></trkpt><trkpt lat="43.89520457263338" lon="12.636200836612757"><ele>205.0</ele><time>2026-04-25T08:26:15Z</time></trkpt><trkpt lat="43.895086647025614" lon="12.636124452734801"><ele>209.4</ele><time>2026-04-25T08:26:16Z</time></trkpt><trkpt lat="43.89497531151008" lon="12.636091699932953"><ele>213.8</ele><time>2026-04-25T08:26:17Z</time></trkpt><trkpt lat="43.89486282659219" lon="12.63607744231375"><ele>218.2</ele><time>2026-04-25T08:26:18Z</time></trkpt><trkpt lat="43.894759026212554" lon="12.636019328492699"><ele>222.6</ele><time>2026-04-25T08:26:19Z</time></trkpt><trkpt lat="43.89469668433289" lon="12.635904407141858"><ele>227.0</ele><time>2026-04-25T08:26:20Z</time></trkpt><trkpt lat="43.89469611411402" lon="12.635740567090568"><ele>227.0</ele><time>2026-04-25T08:26:21Z</time></trkpt><trkpt lat="43.89469307718109" lon="12.63556146917272"><ele>227.0</ele><time>2026-04-25T08:26:22Z</time></trkpt><trkpt lat="43.89470057676145" lon="12.635361880851075"><ele>227.0</ele><time>2026-04-25T08:26:23Z</time></trkpt><trkpt lat="43.89472225257991" lon="12.6351614700192"><ele>227.0</ele><time>2026-04-25T08:26:24Z</time></trkpt><trkpt lat="43.8947547028448" lon="12.634987269736342"><ele>227.5</ele><time>2026-04-25T08:26:25Z</time></trkpt><trkpt lat="43.894801911979606" lon="12.634835498162946"><ele>228.0</ele><time>2026-04-25T08:26:26Z</time></trkpt><trkpt lat="43.89487090612016" lon="12.634698593695832"><ele>228.5</ele><time>2026-04-25T08:26:27Z</time></trkpt><trkpt lat="43.894964629318885" lon="12.634580325790868"><ele>229.0</ele><time>2026-04-25T08:26:28Z</time></trkpt><trkpt lat="43.895077835325964" lon="12.634458954274447"><ele>231.5</ele><time>2026-04-25T08:26:29Z</time></trkpt><trkpt lat="43.895193111421044" lon="12.634323967254838"><ele>234.0</ele><time>2026-04-25T08:26:30Z</time></trkpt><trkpt lat="43.89529876980688" lon="12.634182015572069"><ele>236.5</ele><time>2026-04-25T08:26:31Z</time></trkpt><trkpt lat="43.89538962682503" lon="12.634033718244376"><ele>239.0</ele><time>2026-04-25T08:26:32Z</time></trkpt><trkpt lat="43.89546133692127" lon="12.633880587702768"><ele>239.0</ele><time>2026-04-25T08:26:33Z</time></trkpt><trkpt lat="43.89550853822753" lon="12.633728625926432"><ele>239.0</ele><time>2026-04-25T08:26:34Z</time></trkpt><trkpt lat="43.89550615869965" lon="12.633556376940268"><ele>239.0</ele><time>2026-04-25T08:26:35Z</time></trkpt><trkpt lat="43.89549726662318" lon="12.633405085296934"><ele>239.0</ele><time>2026-04-25T08:26:36Z</time></trkpt><trkpt lat="43.89545852008506" lon="12.633268342730714"><ele>239.50000000000003</ele><time>2026-04-25T08:26:37Z</time></trkpt><trkpt lat="43.89540882825066" lon="12.633160630853036"><ele>240.0</ele><time>2026-04-25T08:26:38Z</time></trkpt><trkpt lat="43.895357404282336" lon="12.633072086545123"><ele>240.5</ele><time>2026-04-25T08:26:39Z</time></trkpt><trkpt lat="43.89529542720313" lon="12.632996177364353"><ele>241.0</ele><time>2026-04-25T08:26:40Z</time></trkpt><trkpt lat="43.89522147217309" lon="12.632933583676797"><ele>241.50000000000003</ele><time>2026-04-25T08:26:41Z</time></trkpt><trkpt lat="43.89514970414054" lon="12.632892603829834"><ele>242.0</ele><time>2026-04-25T08:26:42Z</time></trkpt><trkpt lat="43.89507727924014" lon="12.632867923084826"><ele>240.8</ele><time>2026-04-25T08:26:43Z</time></trkpt><trkpt lat="43.89500880808698" lon="12.632855880814068"><ele>239.6</ele><time>2026-04-25T08:26:44Z</time></trkpt><trkpt lat="43.894933767084495" lon="12.632862223085896"><ele>238.40000000000003</ele><time>2026-04-25T08:26:45Z</time></trkpt><trkpt lat="43.89484612212429" lon="12.632891404245175"><ele>237.20000000000002</ele><time>2026-04-25T08:26:46Z</time></trkpt><trkpt lat="43.894737322236956" lon="12.632920018255225"><ele>236.0</ele><time>2026-04-25T08:26:47Z</time></trkpt><trkpt lat="43.89462571622339" lon="12.632967901192751"><ele>236.0</ele><time>2026-04-25T08:26:48Z</time></trkpt><trkpt lat="43.89451038525944" lon="12.633032109902672"><ele>236.0</ele><time>2026-04-25T08:26:49Z</time></trkpt><trkpt lat="43.89436846765175" lon="12.633015395668469"><ele>236.0</ele><time>2026-04-25T08:26:50Z</time></trkpt><trkpt lat="43.8942132979404" lon="12.632982484510748"><ele>236.0</ele><time>2026-04-25T08:26:51Z</time></trkpt><trkpt lat="43.89405932044371" lon="12.63293623316185"><ele>234.66666666666669</ele><time>2026-04-25T08:26:52Z</time></trkpt><trkpt lat="43.89389630273882" lon="12.632898168381317"><ele>233.33333333333331</ele><time>2026-04-25T08:26:53Z</time></trkpt><trkpt lat="43.89373488363993" lon="12.632839207279282"><ele>232.0</ele><time>2026-04-25T08:26:54Z</time></trkpt><trkpt lat="43.893563450488976" lon="12.63278562447004"><ele>239.66666666666666</ele><time>2026-04-25T08:26:55Z</time></trkpt><trkpt lat="43.89339179342222" lon="12.632738729832841"><ele>247.33333333333331</ele><time>2026-04-25T08:26:56Z</time></trkpt><trkpt lat="43.89322043358071" lon="12.632690849703595"><ele>255.0</ele><time>2026-04-25T08:26:57Z</time></trkpt><trkpt lat="43.89305131798303" lon="12.632639398557325"><ele>255.0</ele><time>2026-04-25T08:26:58Z</time></trkpt><trkpt lat="43.892880160342095" lon="12.632598140107023"><ele>255.0</ele><time>2026-04-25T08:26:59Z</time></trkpt><trkpt lat="43.89270915297914" lon="12.632581278265048"><ele>255.0</ele><time>2026-04-25T08:27:00Z</time></trkpt><trkpt lat="43.89254853174345" lon="12.632589204697846"><ele>255.5</ele><time>2026-04-25T08:27:01Z</time></trkpt><trkpt lat="43.892399347239156" lon="12.632608104139416"><ele>256.0</ele><time>2026-04-25T08:27:02Z</time></trkpt><trkpt lat="43.892270446935356" lon="12.632608353475316"><ele>256.5</ele><time>2026-04-25T08:27:03Z</time></trkpt><trkpt lat="43.89215479167682" lon="12.6325771138851"><ele>257.0</ele><time>2026-04-25T08:27:04Z</time></trkpt><trkpt lat="43.89203801184171" lon="12.632496311784571"><ele>257.0</ele><time>2026-04-25T08:27:05Z</time></trkpt><trkpt lat="43.89193520934636" lon="12.632382944636044"><ele>257.0</ele><time>2026-04-25T08:27:06Z</time></trkpt><trkpt lat="43.89185975285604" lon="12.632250426679523"><ele>257.0</ele><time>2026-04-25T08:27:07Z</time></trkpt><trkpt lat="43.8918114153259" lon="12.632089080060855"><ele>257.0</ele><time>2026-04-25T08:27:08Z</time></trkpt><trkpt lat="43.891778373866444" lon="12.631907322947033"><ele>259.75</ele><time>2026-04-25T08:27:09Z</time></trkpt><trkpt lat="43.89177188027842" lon="12.631714360989656"><ele>262.5</ele><time>2026-04-25T08:27:10Z</time></trkpt><trkpt lat="43.89178337863271" lon="12.631512480472162"><ele>265.25</ele><time>2026-04-25T08:27:11Z</time></trkpt><trkpt lat="43.89177715039226" lon="12.631308736299694"><ele>268.0</ele><time>2026-04-25T08:27:12Z</time></trkpt><trkpt lat="43.89173961639122" lon="12.631099324920585"><ele>268.0</ele><time>2026-04-25T08:27:13Z</time></trkpt><trkpt lat="43.891678234311286" lon="12.630905168905391"><ele>268.0</ele><time>2026-04-25T08:27:14Z</time></trkpt><trkpt lat="43.89160066658353" lon="12.630728291673337"><ele>268.0</ele><time>2026-04-25T08:27:15Z</time></trkpt><trkpt lat="43.891493853948525" lon="12.630592256049262"><ele>268.0</ele><time>2026-04-25T08:27:16Z</time></trkpt><trkpt lat="43.891372658998705" lon="12.630499893436431"><ele>268.0</ele><time>2026-04-25T08:27:17Z</time></trkpt><trkpt lat="43.89125646181835" lon="12.630401800089519"><ele>268.0</ele><time>2026-04-25T08:27:18Z</time></trkpt><trkpt lat="43.891168916439504" lon="12.630262651454215"><ele>268.0</ele><time>2026-04-25T08:27:19Z</time></trkpt><trkpt lat="43.89111362821916" lon="12.630084269144694"><ele>268.0</ele><time>2026-04-25T08:27:20Z</time></trkpt><trkpt lat="43.891062978944596" lon="12.629881244197682"><ele>272.0</ele><time>2026-04-25T08:27:21Z</time></trkpt><trkpt lat="43.89101164250191" lon="12.629675568832944"><ele>276.0</ele><time>2026-04-25T08:27:22Z</time></trkpt><trkpt lat="43.890955978420436" lon="12.629465859406123"><ele>280.0</ele><time>2026-04-25T08:27:23Z</time></trkpt><trkpt lat="43.89089637959934" lon="12.629256787176766"><ele>280.0</ele><time>2026-04-25T08:27:24Z</time></trkpt><trkpt lat="43.89084166843049" lon="12.629065888086915"><ele>280.0</ele><time>2026-04-25T08:27:25Z</time></trkpt><trkpt lat="43.89077735751101" lon="12.628916383553658"><ele>280.0</ele><time>2026-04-25T08:27:26Z</time></trkpt><trkpt lat="43.89068566350617" lon="12.62881310505206"><ele>280.0</ele><time>2026-04-25T08:27:27Z</time></trkpt><trkpt lat="43.890564710220744" lon="12.628756840927588"><ele>280.0</ele><time>2026-04-25T08:27:28Z</time></trkpt><trkpt lat="43.89042611997027" lon="12.628761084524704"><ele>280.0</ele><time>2026-04-25T08:27:29Z</time></trkpt><trkpt lat="43.8902917250234" lon="12.628808563065084"><ele>280.0</ele><time>2026-04-25T08:27:30Z</time></trkpt><trkpt lat="43.89015830854282" lon="12.628863386136398"><ele>280.0</ele><time>2026-04-25T08:27:30.999Z</time></trkpt><trkpt lat="43.890015705747686" lon="12.628901421114962"><ele>279.0</ele><time>2026-04-25T08:27:31.999Z</time></trkpt><trkpt lat="43.88988064461991" lon="12.628939031149743"><ele>278.0</ele><time>2026-04-25T08:27:32.999Z</time></trkpt><trkpt lat="43.88974902594518" lon="12.628976241563855"><ele>277.0</ele><time>2026-04-25T08:27:33.999Z</time></trkpt><trkpt lat="43.889619813735294" lon="12.628999510288867"><ele>276.0</ele><time>2026-04-25T08:27:34.999Z</time></trkpt><trkpt lat="43.88948403159387" lon="12.62898481011875"><ele>276.0</ele><time>2026-04-25T08:27:35.999Z</time></trkpt><trkpt lat="43.889350034512695" lon="12.628929574940189"><ele>276.0</ele><time>2026-04-25T08:27:36.999Z</time></trkpt><trkpt lat="43.88922273650694" lon="12.628831362167823"><ele>276.0</ele><time>2026-04-25T08:27:37.999Z</time></trkpt><trkpt lat="43.88909267561704" lon="12.628729010711254"><ele>276.0</ele><time>2026-04-25T08:27:38.999Z</time></trkpt><trkpt lat="43.888954850425215" lon="12.628626573553245"><ele>282.6666666666667</ele><time>2026-04-25T08:27:39.999Z</time></trkpt><trkpt lat="43.88881161112587" lon="12.628525233037992"><ele>289.33333333333337</ele><time>2026-04-25T08:27:40.999Z</time></trkpt><trkpt lat="43.88866431095622" lon="12.62841562807335"><ele>296.0</ele><time>2026-04-25T08:27:42Z</time></trkpt><trkpt lat="43.888522264472805" lon="12.628315853737865"><ele>292.6666666666667</ele><time>2026-04-25T08:27:43Z</time></trkpt><trkpt lat="43.888380817578906" lon="12.628234392237196"><ele>289.3333333333333</ele><time>2026-04-25T08:27:44Z</time></trkpt><trkpt lat="43.88823168854906" lon="12.628163311719394"><ele>286.0</ele><time>2026-04-25T08:27:45Z</time></trkpt><trkpt lat="43.888079348090336" lon="12.628096281334434"><ele>286.0</ele><time>2026-04-25T08:27:46Z</time></trkpt><trkpt lat="43.8879278988013" lon="12.62802234117899"><ele>286.0</ele><time>2026-04-25T08:27:47Z</time></trkpt><trkpt lat="43.887775283464585" lon="12.627946498065201"><ele>286.0</ele><time>2026-04-25T08:27:48Z</time></trkpt><trkpt lat="43.887623599604076" lon="12.627863788704468"><ele>290.66666666666663</ele><time>2026-04-25T08:27:49Z</time></trkpt><trkpt lat="43.88746745493104" lon="12.627798871016061"><ele>295.3333333333333</ele><time>2026-04-25T08:27:50Z</time></trkpt><trkpt lat="43.88730887476354" lon="12.627767115421754"><ele>300.0</ele><time>2026-04-25T08:27:51Z</time></trkpt><trkpt lat="43.88714499073632" lon="12.627773882667535"><ele>294.3333333333333</ele><time>2026-04-25T08:27:52Z</time></trkpt><trkpt lat="43.886983409091066" lon="12.627810803121998"><ele>288.66666666666663</ele><time>2026-04-25T08:27:53Z</time></trkpt><trkpt lat="43.88682962225467" lon="12.62788325055062"><ele>283.0</ele><time>2026-04-25T08:27:54Z</time></trkpt><trkpt lat="43.886697097739976" lon="12.62796491271637"><ele>283.0</ele><time>2026-04-25T08:27:55Z</time></trkpt><trkpt lat="43.886567032400386" lon="12.627975686930675"><ele>283.0</ele><time>2026-04-25T08:27:56Z</time></trkpt><trkpt lat="43.886450388140275" lon="12.62795773867022"><ele>283.0</ele><time>2026-04-25T08:27:57Z</time></trkpt><trkpt lat="43.88635037828274" lon="12.627903585604534"><ele>283.0</ele><time>2026-04-25T08:27:58Z</time></trkpt><trkpt lat="43.88625882393115" lon="12.627805462551754"><ele>286.25</ele><time>2026-04-25T08:27:59Z</time></trkpt><trkpt lat="43.886180090902705" lon="12.627669469860535"><ele>289.5</ele><time>2026-04-25T08:28:00Z</time></trkpt><trkpt lat="43.88608243955987" lon="12.627521573916939"><ele>292.75</ele><time>2026-04-25T08:28:01Z</time></trkpt><trkpt lat="43.88598548869867" lon="12.62735197795244"><ele>296.0</ele><time>2026-04-25T08:28:02Z</time></trkpt><trkpt lat="43.88585794912696" lon="12.627200055989753"><ele>296.0</ele><time>2026-04-25T08:28:03Z</time></trkpt><trkpt lat="43.88570144289309" lon="12.627081372226467"><ele>296.0</ele><time>2026-04-25T08:28:04Z</time></trkpt><trkpt lat="43.885537579917" lon="12.626971951850958"><ele>296.0</ele><time>2026-04-25T08:28:05Z</time></trkpt><trkpt lat="43.8853491815631" lon="12.626947573837136"><ele>301.0</ele><time>2026-04-25T08:28:06Z</time></trkpt><trkpt lat="43.885177844478775" lon="12.626886693308437"><ele>306.0</ele><time>2026-04-25T08:28:07Z</time></trkpt><trkpt lat="43.88501181976124" lon="12.626833646202938"><ele>311.0</ele><time>2026-04-25T08:28:08Z</time></trkpt><trkpt lat="43.884846520428795" lon="12.626758438747922"><ele>311.0</ele><time>2026-04-25T08:28:09Z</time></trkpt><trkpt lat="43.88468092573813" lon="12.626677447065587"><ele>311.0</ele><time>2026-04-25T08:28:10Z</time></trkpt><trkpt lat="43.884511103763565" lon="12.626603994430596"><ele>311.0</ele><time>2026-04-25T08:28:11Z</time></trkpt><trkpt lat="43.88435898522585" lon="12.62655006739483"><ele>311.75</ele><time>2026-04-25T08:28:12Z</time></trkpt><trkpt lat="43.88421943221579" lon="12.626543021282655"><ele>312.5</ele><time>2026-04-25T08:28:13Z</time></trkpt><trkpt lat="43.88408970809502" lon="12.626592332969503"><ele>313.25</ele><time>2026-04-25T08:28:14Z</time></trkpt><trkpt lat="43.88399008714092" lon="12.626731158899357"><ele>314.0</ele><time>2026-04-25T08:28:15Z</time></trkpt><trkpt lat="43.88387863868831" lon="12.626845075282562"><ele>314.0</ele><time>2026-04-25T08:28:16Z</time></trkpt><trkpt lat="43.883775278107635" lon="12.626937620611677"><ele>314.0</ele><time>2026-04-25T08:28:17Z</time></trkpt><trkpt lat="43.88366563361275" lon="12.626974754044578"><ele>314.0</ele><time>2026-04-25T08:28:18Z</time></trkpt><trkpt lat="43.88355833553468" lon="12.626959888918192"><ele>314.0</ele><time>2026-04-25T08:28:19Z</time></trkpt><trkpt lat="43.88345137097409" lon="12.626916142082893"><ele>312.0</ele><time>2026-04-25T08:28:20Z</time></trkpt><trkpt lat="43.883381684435236" lon="12.626796801357145"><ele>310.0</ele><time>2026-04-25T08:28:21Z</time></trkpt><trkpt lat="43.88335822867385" lon="12.626645063928683"><ele>308.0</ele><time>2026-04-25T08:28:22Z</time></trkpt><trkpt lat="43.88336824458391" lon="12.626469459659273"><ele>306.0</ele><time>2026-04-25T08:28:23Z</time></trkpt><trkpt lat="43.883403031465946" lon="12.626278407711093"><ele>309.3333333333333</ele><time>2026-04-25T08:28:24Z</time></trkpt><trkpt lat="43.88341976482812" lon="12.626065047104353"><ele>312.66666666666663</ele><time>2026-04-25T08:28:25Z</time></trkpt><trkpt lat="43.88344810480353" lon="12.625851628533503"><ele>316.0</ele><time>2026-04-25T08:28:26Z</time></trkpt><trkpt lat="43.88346276896707" lon="12.625656594436716"><ele>316.0</ele><time>2026-04-25T08:28:27Z</time></trkpt><trkpt lat="43.88344946479684" lon="12.625478388131528"><ele>316.0</ele><time>2026-04-25T08:28:28Z</time></trkpt><trkpt lat="43.88340507929927" lon="12.62532184474919"><ele>316.0</ele><time>2026-04-25T08:28:29Z</time></trkpt><trkpt lat="43.88334511598761" lon="12.625168467739632"><ele>316.0</ele><time>2026-04-25T08:28:30Z</time></trkpt><trkpt lat="43.88328440184005" lon="12.62501550994227"><ele>319.25</ele><time>2026-04-25T08:28:31Z</time></trkpt><trkpt lat="43.883232246982764" lon="12.62485589745304"><ele>322.5</ele><time>2026-04-25T08:28:32Z</time></trkpt><trkpt lat="43.88319197934993" lon="12.624690137578853"><ele>325.75</ele><time>2026-04-25T08:28:33Z</time></trkpt><trkpt lat="43.88316048944266" lon="12.62451735389958"><ele>329.0</ele><time>2026-04-25T08:28:34Z</time></trkpt><trkpt lat="43.88314811476382" lon="12.62433887428242"><ele>331.2</ele><time>2026-04-25T08:28:35Z</time></trkpt><trkpt lat="43.883142826304066" lon="12.624171558309257"><ele>333.4</ele><time>2026-04-25T08:28:36Z</time></trkpt><trkpt lat="43.8831261024731" lon="12.624018131988166"><ele>335.6</ele><time>2026-04-25T08:28:37Z</time></trkpt><trkpt lat="43.883091258655476" lon="12.623888903391684"><ele>337.8</ele><time>2026-04-25T08:28:38Z</time></trkpt><trkpt lat="43.88303381825455" lon="12.623769116966082"><ele>340.0</ele><time>2026-04-25T08:28:39Z</time></trkpt><trkpt lat="43.88296389357532" lon="12.623662577355995"><ele>339.0</ele><time>2026-04-25T08:28:40Z</time></trkpt><trkpt lat="43.88288079397369" lon="12.623574718928705"><ele>338.0</ele><time>2026-04-25T08:28:41Z</time></trkpt><trkpt lat="43.882781778493964" lon="12.623516223167698"><ele>337.0</ele><time>2026-04-25T08:28:42Z</time></trkpt><trkpt lat="43.882674534685286" lon="12.6234858816468"><ele>336.0</ele><time>2026-04-25T08:28:43Z</time></trkpt><trkpt lat="43.88256287598271" lon="12.623467983291635"><ele>335.0</ele><time>2026-04-25T08:28:44Z</time></trkpt><trkpt lat="43.882454598012245" lon="12.623464099875877"><ele>335.0</ele><time>2026-04-25T08:28:45Z</time></trkpt><trkpt lat="43.88234563301375" lon="12.623465912409092"><ele>335.0</ele><time>2026-04-25T08:28:46Z</time></trkpt><trkpt lat="43.88224005109167" lon="12.623463074576499"><ele>335.0</ele><time>2026-04-25T08:28:47Z</time></trkpt><trkpt lat="43.882136324621854" lon="12.623459972917278"><ele>335.0</ele><time>2026-04-25T08:28:48Z</time></trkpt><trkpt lat="43.88203670075806" lon="12.623454569732434"><ele>335.0</ele><time>2026-04-25T08:28:49Z</time></trkpt><trkpt lat="43.881951533936075" lon="12.623448192910212"><ele>335.0</ele><time>2026-04-25T08:28:50Z</time></trkpt><trkpt lat="43.88187687919015" lon="12.62343935222133"><ele>335.0</ele><time>2026-04-25T08:28:51Z</time></trkpt><trkpt lat="43.88180262790531" lon="12.623424937867032"><ele>335.0</ele><time>2026-04-25T08:28:52Z</time></trkpt><trkpt lat="43.881727761053746" lon="12.62339989256044"><ele>335.0</ele><time>2026-04-25T08:28:53Z</time></trkpt><trkpt lat="43.881650441215946" lon="12.623349738280018"><ele>335.0</ele><time>2026-04-25T08:28:54Z</time></trkpt><trkpt lat="43.88157872219978" lon="12.623271244322408"><ele>335.0</ele><time>2026-04-25T08:28:55Z</time></trkpt><trkpt lat="43.88151605538325" lon="12.623174020799254"><ele>335.0</ele><time>2026-04-25T08:28:56Z</time></trkpt><trkpt lat="43.88147198449822" lon="12.623066119479814"><ele>335.0</ele><time>2026-04-25T08:28:57Z</time></trkpt><trkpt lat="43.88146448686732" lon="12.62296133220521"><ele>335.0</ele><time>2026-04-25T08:28:58Z</time></trkpt><trkpt lat="43.881512127873194" lon="12.622814317135862"><ele>335.0</ele><time>2026-04-25T08:29:00Z</time></trkpt><trkpt lat="43.8816288100508" lon="12.622800574865698"><ele>335.0</ele><time>2026-04-25T08:29:02Z</time></trkpt><trkpt lat="43.8817084421215" lon="12.622854809919204"><ele>335.0</ele><time>2026-04-25T08:29:03Z</time></trkpt><trkpt lat="43.88177978826093" lon="12.622901151880734"><ele>335.0</ele><time>2026-04-25T08:29:04Z</time></trkpt><trkpt lat="43.88184907952962" lon="12.62292708956416"><ele>335.0</ele><time>2026-04-25T08:29:05Z</time></trkpt><trkpt lat="43.881926668010905" lon="12.622925577107505"><ele>335.0</ele><time>2026-04-25T08:29:06Z</time></trkpt><trkpt lat="43.88199976339676" lon="12.62288655083084"><ele>335.0</ele><time>2026-04-25T08:29:07Z</time></trkpt><trkpt lat="43.88206447983143" lon="12.622811710350838"><ele>335.0</ele><time>2026-04-25T08:29:08Z</time></trkpt><trkpt lat="43.88207170103362" lon="12.622666728443653"><ele>338.25</ele><time>2026-04-25T08:29:09Z</time></trkpt><trkpt lat="43.882117414216346" lon="12.622508878036314"><ele>341.5</ele><time>2026-04-25T08:29:10Z</time></trkpt><trkpt lat="43.88215129439791" lon="12.622333073892168"><ele>344.75</ele><time>2026-04-25T08:29:11Z</time></trkpt><trkpt lat="43.882182440718665" lon="12.622175031190725"><ele>348.0</ele><time>2026-04-25T08:29:12Z</time></trkpt><trkpt lat="43.88221487185561" lon="12.622021183270089"><ele>349.0</ele><time>2026-04-25T08:29:13Z</time></trkpt><trkpt lat="43.88225065738725" lon="12.62186505789305"><ele>350.0</ele><time>2026-04-25T08:29:14Z</time></trkpt><trkpt lat="43.882290089061726" lon="12.621708131737272"><ele>351.0</ele><time>2026-04-25T08:29:15Z</time></trkpt><trkpt lat="43.882324801456065" lon="12.62154755217868"><ele>352.0</ele><time>2026-04-25T08:29:16Z</time></trkpt><trkpt lat="43.882372839344896" lon="12.621393264895742"><ele>352.0</ele><time>2026-04-25T08:29:17Z</time></trkpt><trkpt lat="43.88242056510111" lon="12.621240531210326"><ele>352.0</ele><time>2026-04-25T08:29:18Z</time></trkpt><trkpt lat="43.88246856127852" lon="12.621083079763299"><ele>352.0</ele><time>2026-04-25T08:29:19Z</time></trkpt><trkpt lat="43.88251601585438" lon="12.620923368816133"><ele>352.0</ele><time>2026-04-25T08:29:20Z</time></trkpt><trkpt lat="43.88256849179198" lon="12.62076148780636"><ele>356.5</ele><time>2026-04-25T08:29:21Z</time></trkpt><trkpt lat="43.882616756139186" lon="12.62059055798845"><ele>361.0</ele><time>2026-04-25T08:29:22Z</time></trkpt><trkpt lat="43.882677769638704" lon="12.620422700915459"><ele>365.5</ele><time>2026-04-25T08:29:23Z</time></trkpt><trkpt lat="43.88270044269977" lon="12.62022972091233"><ele>370.0</ele><time>2026-04-25T08:29:24Z</time></trkpt><trkpt lat="43.88272073959675" lon="12.620035146304392"><ele>370.0</ele><time>2026-04-25T08:29:25Z</time></trkpt><trkpt lat="43.88272826786311" lon="12.619835867928753"><ele>370.0</ele><time>2026-04-25T08:29:26Z</time></trkpt><trkpt lat="43.88273625688832" lon="12.619649717621279"><ele>370.0</ele><time>2026-04-25T08:29:27Z</time></trkpt><trkpt lat="43.88274748475946" lon="12.619481445703462"><ele>370.0</ele><time>2026-04-25T08:29:28Z</time></trkpt><trkpt lat="43.882775957180804" lon="12.619326543546666"><ele>369.0</ele><time>2026-04-25T08:29:29Z</time></trkpt><trkpt lat="43.882829124238434" lon="12.619183502186893"><ele>368.0</ele><time>2026-04-25T08:29:30Z</time></trkpt><trkpt lat="43.88289542397661" lon="12.619043106814843"><ele>367.0</ele><time>2026-04-25T08:29:31Z</time></trkpt><trkpt lat="43.882961084777264" lon="12.61889846516699"><ele>366.0</ele><time>2026-04-25T08:29:32Z</time></trkpt><trkpt lat="43.88301445520317" lon="12.618743441855251"><ele>364.0</ele><time>2026-04-25T08:29:33Z</time></trkpt><trkpt lat="43.88307061036012" lon="12.618594511917559"><ele>362.0</ele><time>2026-04-25T08:29:33.999Z</time></trkpt><trkpt lat="43.88307938183568" lon="12.618430476587463"><ele>360.0</ele><time>2026-04-25T08:29:34.999Z</time></trkpt><trkpt lat="43.88311072008758" lon="12.618275613552672"><ele>358.0</ele><time>2026-04-25T08:29:35.999Z</time></trkpt><trkpt lat="43.883135006718256" lon="12.618116259350462"><ele>358.0</ele><time>2026-04-25T08:29:36.999Z</time></trkpt><trkpt lat="43.883160212589765" lon="12.617951842620432"><ele>358.0</ele><time>2026-04-25T08:29:37.999Z</time></trkpt><trkpt lat="43.8831849178033" lon="12.617782024255495"><ele>358.0</ele><time>2026-04-25T08:29:38.999Z</time></trkpt><trkpt lat="43.88321181028964" lon="12.617609507512359"><ele>358.0</ele><time>2026-04-25T08:29:39.999Z</time></trkpt><trkpt lat="43.883234876355786" lon="12.617436870460056"><ele>357.5</ele><time>2026-04-25T08:29:40.999Z</time></trkpt><trkpt lat="43.8832579666979" lon="12.617262902102246"><ele>357.0</ele><time>2026-04-25T08:29:41.999Z</time></trkpt><trkpt lat="43.88327784719616" lon="12.617092078062058"><ele>356.5</ele><time>2026-04-25T08:29:42.999Z</time></trkpt><trkpt lat="43.88330383279938" lon="12.616920863000756"><ele>356.0</ele><time>2026-04-25T08:29:43.999Z</time></trkpt><trkpt lat="43.88328525789685" lon="12.616745077656084"><ele>355.75</ele><time>2026-04-25T08:29:44.999Z</time></trkpt><trkpt lat="43.88326628142937" lon="12.616572833360463"><ele>355.5</ele><time>2026-04-25T08:29:45.999Z</time></trkpt><trkpt lat="43.88323617836795" lon="12.616400271664766"><ele>355.25</ele><time>2026-04-25T08:29:46.999Z</time></trkpt><trkpt lat="43.88320370018422" lon="12.616224829115737"><ele>355.0</ele><time>2026-04-25T08:29:48Z</time></trkpt><trkpt lat="43.883165090135314" lon="12.616053287668565"><ele>355.75</ele><time>2026-04-25T08:29:49Z</time></trkpt><trkpt lat="43.88312241673346" lon="12.61587967392972"><ele>356.5</ele><time>2026-04-25T08:29:50Z</time></trkpt><trkpt lat="43.88308182050365" lon="12.615708744061548"><ele>357.25</ele><time>2026-04-25T08:29:51Z</time></trkpt><trkpt lat="43.88304693296087" lon="12.615538489695107"><ele>358.0</ele><time>2026-04-25T08:29:52Z</time></trkpt><trkpt lat="43.883011534633454" lon="12.615367261561927"><ele>359.79999999999995</ele><time>2026-04-25T08:29:53Z</time></trkpt><trkpt lat="43.882976265172715" lon="12.615195644517762"><ele>361.6</ele><time>2026-04-25T08:29:54Z</time></trkpt><trkpt lat="43.882951167086425" lon="12.615021412535786"><ele>363.4</ele><time>2026-04-25T08:29:55Z</time></trkpt><trkpt lat="43.88294437324048" lon="12.614867294891434"><ele>365.20000000000005</ele><time>2026-04-25T08:29:56Z</time></trkpt><trkpt lat="43.88296331557653" lon="12.614758894784993"><ele>367.0</ele><time>2026-04-25T08:29:57Z</time></trkpt><trkpt lat="43.88299591366601" lon="12.614676309013486"><ele>367.0</ele><time>2026-04-25T08:29:58Z</time></trkpt><trkpt lat="43.883070633346776" lon="12.61457136172422"><ele>367.0</ele><time>2026-04-25T08:30:00Z</time></trkpt><trkpt lat="43.883029488333165" lon="12.614437136352278"><ele>367.0</ele><time>2026-04-25T08:30:01Z</time></trkpt><trkpt lat="43.883054833584445" lon="12.614336730898474"><ele>367.0</ele><time>2026-04-25T08:30:02Z</time></trkpt><trkpt lat="43.88304677226513" lon="12.614212755963234"><ele>367.0</ele><time>2026-04-25T08:30:03Z</time></trkpt><trkpt lat="43.88306254803308" lon="12.614088770648848"><ele>368.20000000000005</ele><time>2026-04-25T08:30:04Z</time></trkpt><trkpt lat="43.883080699824475" lon="12.61395659969838"><ele>369.4</ele><time>2026-04-25T08:30:05Z</time></trkpt><trkpt lat="43.883097090355484" lon="12.613817858632618"><ele>370.6</ele><time>2026-04-25T08:30:06Z</time></trkpt><trkpt lat="43.88314089010461" lon="12.613678204763088"><ele>371.79999999999995</ele><time>2026-04-25T08:30:07Z</time></trkpt><trkpt lat="43.88316343489513" lon="12.613530497968702"><ele>373.0</ele><time>2026-04-25T08:30:08Z</time></trkpt><trkpt lat="43.88318587209705" lon="12.613383496115992"><ele>375.0</ele><time>2026-04-25T08:30:09Z</time></trkpt><trkpt lat="43.88320771832535" lon="12.613240366310814"><ele>377.0</ele><time>2026-04-25T08:30:10Z</time></trkpt><trkpt lat="43.88322896773991" lon="12.613101275185274"><ele>379.0</ele><time>2026-04-25T08:30:11Z</time></trkpt><trkpt lat="43.88324992585646" lon="12.61296442227205"><ele>381.0</ele><time>2026-04-25T08:30:12Z</time></trkpt><trkpt lat="43.883269891963316" lon="12.612834047149752"><ele>383.0</ele><time>2026-04-25T08:30:13Z</time></trkpt><trkpt lat="43.88328844349206" lon="12.612712908908462"><ele>385.0</ele><time>2026-04-25T08:30:14Z</time></trkpt><trkpt lat="43.883307132480404" lon="12.612590873011467"><ele>387.0</ele><time>2026-04-25T08:30:15Z</time></trkpt><trkpt lat="43.88332578239908" lon="12.612469092193901"><ele>389.0</ele><time>2026-04-25T08:30:16Z</time></trkpt><trkpt lat="43.883345232036284" lon="12.612347100403415"><ele>391.0</ele><time>2026-04-25T08:30:17Z</time></trkpt><trkpt lat="43.883368338050225" lon="12.612221784735008"><ele>393.0</ele><time>2026-04-25T08:30:18Z</time></trkpt><trkpt lat="43.883396359612426" lon="12.612094623856116"><ele>393.5</ele><time>2026-04-25T08:30:19Z</time></trkpt><trkpt lat="43.8834285893682" lon="12.611970734817044"><ele>394.0</ele><time>2026-04-25T08:30:20Z</time></trkpt><trkpt lat="43.88346510633473" lon="12.611846394557544"><ele>394.5</ele><time>2026-04-25T08:30:21Z</time></trkpt><trkpt lat="43.88350628806464" lon="12.611728920564168"><ele>395.0</ele><time>2026-04-25T08:30:22Z</time></trkpt><trkpt lat="43.88355720376115" lon="12.611637688274008"><ele>395.5</ele><time>2026-04-25T08:30:23Z</time></trkpt><trkpt lat="43.88361264234328" lon="12.611565752918933"><ele>396.0</ele><time>2026-04-25T08:30:24Z</time></trkpt><trkpt lat="43.88368263292349" lon="12.611531024130908"><ele>400.6</ele><time>2026-04-25T08:30:25Z</time></trkpt><trkpt lat="43.88376572630079" lon="12.611513472529372"><ele>405.20000000000005</ele><time>2026-04-25T08:30:26Z</time></trkpt><trkpt lat="43.88385671747292" lon="12.611519252914919"><ele>409.79999999999995</ele><time>2026-04-25T08:30:27Z</time></trkpt><trkpt lat="43.883953944597785" lon="12.611539071257587"><ele>414.4</ele><time>2026-04-25T08:30:28Z</time></trkpt><trkpt lat="43.88405119208128" lon="12.611570445184519"><ele>419.0</ele><time>2026-04-25T08:30:29Z</time></trkpt><trkpt lat="43.88415475422005" lon="12.611600789713007"><ele>421.6</ele><time>2026-04-25T08:30:30Z</time></trkpt><trkpt lat="43.88426529668402" lon="12.611605057476167"><ele>424.2</ele><time>2026-04-25T08:30:31Z</time></trkpt><trkpt lat="43.88437964721454" lon="12.611646019430848"><ele>426.80000000000007</ele><time>2026-04-25T08:30:32Z</time></trkpt><trkpt lat="43.88449205591108" lon="12.611670883934176"><ele>429.40000000000003</ele><time>2026-04-25T08:30:33Z</time></trkpt><trkpt lat="43.884589795524164" lon="12.611680130060803"><ele>432.0</ele><time>2026-04-25T08:30:34Z</time></trkpt><trkpt lat="43.88467833089594" lon="12.61171100617665"><ele>432.0</ele><time>2026-04-25T08:30:35Z</time></trkpt><trkpt lat="43.884758242853536" lon="12.611717249064895"><ele>432.0</ele><time>2026-04-25T08:30:36Z</time></trkpt><trkpt lat="43.88486117757821" lon="12.611701802191911"><ele>432.0</ele><time>2026-04-25T08:30:37Z</time></trkpt><trkpt lat="43.88495171996075" lon="12.611703857594742"><ele>432.0</ele><time>2026-04-25T08:30:38Z</time></trkpt><trkpt lat="43.885021742384815" lon="12.611708105459364"><ele>432.0</ele><time>2026-04-25T08:30:39Z</time></trkpt><trkpt lat="43.885115590887544" lon="12.611689402688974"><ele>432.0</ele><time>2026-04-25T08:30:41Z</time></trkpt><trkpt lat="43.8851863819762" lon="12.611655493619962"><ele>431.8</ele><time>2026-04-25T08:30:43Z</time></trkpt><trkpt lat="43.88526123259758" lon="12.61156974001759"><ele>431.6</ele><time>2026-04-25T08:30:45Z</time></trkpt><trkpt lat="43.88533798557641" lon="12.611471589783845"><ele>431.40000000000003</ele><time>2026-04-25T08:30:47Z</time></trkpt><trkpt lat="43.88541071866347" lon="12.611375850031278"><ele>431.20000000000005</ele><time>2026-04-25T08:30:49Z</time></trkpt><trkpt lat="43.88549708286792" lon="12.611257441476365"><ele>431.0</ele><time>2026-04-25T08:30:51Z</time></trkpt><trkpt lat="43.88558575205074" lon="12.611132195058754"><ele>430.99999999999994</ele><time>2026-04-25T08:30:53Z</time></trkpt><trkpt lat="43.885631723521335" lon="12.611067686832586"><ele>431.0</ele><time>2026-04-25T08:30:54Z</time></trkpt><trkpt lat="43.88571319213365" lon="12.610949164379562"><ele>431.0</ele><time>2026-04-25T08:30:56Z</time></trkpt><trkpt lat="43.885802759771416" lon="12.610860448698485"><ele>431.0</ele><time>2026-04-25T08:30:58Z</time></trkpt><trkpt lat="43.88585750881135" lon="12.610812736254557"><ele>430.99999999999994</ele><time>2026-04-25T08:30:59Z</time></trkpt><trkpt lat="43.88592383286954" lon="12.610788345235623"><ele>431.0</ele><time>2026-04-25T08:31:00Z</time></trkpt><trkpt lat="43.88601143449289" lon="12.610762519258927"><ele>430.20000000000005</ele><time>2026-04-25T08:31:01Z</time></trkpt><trkpt lat="43.88611375582833" lon="12.610708752289863"><ele>429.40000000000003</ele><time>2026-04-25T08:31:02Z</time></trkpt><trkpt lat="43.88621904318074" lon="12.61065174913308"><ele>428.6</ele><time>2026-04-25T08:31:03Z</time></trkpt><trkpt lat="43.886317383892965" lon="12.610604052371016"><ele>427.8</ele><time>2026-04-25T08:31:04Z</time></trkpt><trkpt lat="43.88640095584678" lon="12.610558172012732"><ele>427.0</ele><time>2026-04-25T08:31:05Z</time></trkpt><trkpt lat="43.886485184238246" lon="12.610507008226328"><ele>427.0</ele><time>2026-04-25T08:31:06Z</time></trkpt><trkpt lat="43.88657071045461" lon="12.610446898785813"><ele>427.00000000000006</ele><time>2026-04-25T08:31:07Z</time></trkpt><trkpt lat="43.88665586607603" lon="12.610381179471672"><ele>427.00000000000006</ele><time>2026-04-25T08:31:08Z</time></trkpt><trkpt lat="43.88674804133153" lon="12.61030526848211"><ele>427.0</ele><time>2026-04-25T08:31:09Z</time></trkpt><trkpt lat="43.88685007902616" lon="12.610244542743832"><ele>427.0</ele><time>2026-04-25T08:31:10Z</time></trkpt><trkpt lat="43.88694533586122" lon="12.610148454983499"><ele>429.75</ele><time>2026-04-25T08:31:11Z</time></trkpt><trkpt lat="43.88705182353772" lon="12.610065421034971"><ele>432.5</ele><time>2026-04-25T08:31:12Z</time></trkpt><trkpt lat="43.887164182279136" lon="12.609981981227069"><ele>435.25</ele><time>2026-04-25T08:31:13Z</time></trkpt><trkpt lat="43.88728028215285" lon="12.609900509510117"><ele>438.0</ele><time>2026-04-25T08:31:14Z</time></trkpt><trkpt lat="43.88738437290075" lon="12.609820923995883"><ele>438.0</ele><time>2026-04-25T08:31:15Z</time></trkpt><trkpt lat="43.88749074869072" lon="12.609743152489774"><ele>438.0</ele><time>2026-04-25T08:31:16Z</time></trkpt><trkpt lat="43.88761554033085" lon="12.609663682069012"><ele>438.0</ele><time>2026-04-25T08:31:17Z</time></trkpt><trkpt lat="43.887724614888185" lon="12.609587875185506"><ele>438.0</ele><time>2026-04-25T08:31:18Z</time></trkpt><trkpt lat="43.88783679587495" lon="12.609521945228527"><ele>441.0</ele><time>2026-04-25T08:31:19Z</time></trkpt><trkpt lat="43.887944679300816" lon="12.609450661691385"><ele>444.0</ele><time>2026-04-25T08:31:20Z</time></trkpt><trkpt lat="43.888047629831576" lon="12.60937283914588"><ele>447.0</ele><time>2026-04-25T08:31:21Z</time></trkpt><trkpt lat="43.88815373343132" lon="12.609295109359302"><ele>450.0</ele><time>2026-04-25T08:31:22Z</time></trkpt><trkpt lat="43.88826539855225" lon="12.609226029384738"><ele>450.0</ele><time>2026-04-25T08:31:23Z</time></trkpt><trkpt lat="43.88837799407148" lon="12.60917280863995"><ele>450.0</ele><time>2026-04-25T08:31:24Z</time></trkpt><trkpt lat="43.88848322742676" lon="12.609116124671688"><ele>450.0</ele><time>2026-04-25T08:31:25Z</time></trkpt><trkpt lat="43.88857530211423" lon="12.609060593671565"><ele>450.0</ele><time>2026-04-25T08:31:26Z</time></trkpt><trkpt lat="43.88864250607337" lon="12.609011658138519"><ele>450.0</ele><time>2026-04-25T08:31:27Z</time></trkpt><trkpt lat="43.88871274343971" lon="12.6089659171014"><ele>448.6</ele><time>2026-04-25T08:31:28Z</time></trkpt><trkpt lat="43.88876349752851" lon="12.608907581936837"><ele>447.2</ele><time>2026-04-25T08:31:29Z</time></trkpt><trkpt lat="43.88884453777044" lon="12.608788736947947"><ele>445.79999999999995</ele><time>2026-04-25T08:31:31Z</time></trkpt><trkpt lat="43.88889235751059" lon="12.60864554044899"><ele>444.4</ele><time>2026-04-25T08:31:33Z</time></trkpt><trkpt lat="43.88896398906097" lon="12.60850182363298"><ele>443.0</ele><time>2026-04-25T08:31:35Z</time></trkpt><trkpt lat="43.88899725553682" lon="12.608410568941798"><ele>442.99999999999994</ele><time>2026-04-25T08:31:36Z</time></trkpt><trkpt lat="43.88903465684944" lon="12.608311839818965"><ele>443.0</ele><time>2026-04-25T08:31:37Z</time></trkpt><trkpt lat="43.88907403854657" lon="12.60821631524943"><ele>443.0</ele><time>2026-04-25T08:31:38Z</time></trkpt><trkpt lat="43.8891093088729" lon="12.608133189769589"><ele>443.0</ele><time>2026-04-25T08:31:39Z</time></trkpt><trkpt lat="43.88914555499368" lon="12.608021646248666"><ele>442.99999999999994</ele><time>2026-04-25T08:31:41Z</time></trkpt><trkpt lat="43.8891864090615" lon="12.60794343763272"><ele>443.0</ele><time>2026-04-25T08:31:47.999Z</time></trkpt><trkpt lat="43.88913625473123" lon="12.608069753125209"><ele>442.99999999999994</ele><time>2026-04-25T08:32:00Z</time></trkpt><trkpt lat="43.88906915914207" lon="12.608227710779948"><ele>443.0</ele><time>2026-04-25T08:32:02Z</time></trkpt><trkpt lat="43.889030752780215" lon="12.608321308057302"><ele>443.0</ele><time>2026-04-25T08:32:03Z</time></trkpt><trkpt lat="43.88898957157596" lon="12.608421197142059"><ele>443.0</ele><time>2026-04-25T08:32:04Z</time></trkpt><trkpt lat="43.88895837121437" lon="12.608517231876979"><ele>442.99999999999994</ele><time>2026-04-25T08:32:05Z</time></trkpt><trkpt lat="43.88891129437411" lon="12.608598321148232"><ele>443.0</ele><time>2026-04-25T08:32:06Z</time></trkpt><trkpt lat="43.88888313248213" lon="12.60868364138893"><ele>442.99999999999994</ele><time>2026-04-25T08:32:07Z</time></trkpt><trkpt lat="43.888840481478965" lon="12.608759601351654"><ele>443.0</ele><time>2026-04-25T08:32:08Z</time></trkpt><trkpt lat="43.88876442585452" lon="12.608844257192322"><ele>443.0</ele><time>2026-04-25T08:32:10Z</time></trkpt><trkpt lat="43.888740643764734" lon="12.60893436506495"><ele>443.0</ele><time>2026-04-25T08:35:58.999Z</time></trkpt><trkpt lat="43.888767443564745" lon="12.608831813351454"><ele>442.99999999999994</ele><time>2026-04-25T08:36:26Z</time></trkpt><trkpt lat="43.88882543125223" lon="12.608718954455584"><ele>443.0</ele><time>2026-04-25T08:40:59Z</time></trkpt><trkpt lat="43.8888601357905" lon="12.608631473058411"><ele>442.99999999999994</ele><time>2026-04-25T08:41:00Z</time></trkpt><trkpt lat="43.88887261067137" lon="12.608537405911344"><ele>443.0</ele><time>2026-04-25T08:41:01Z</time></trkpt><trkpt lat="43.888960997945524" lon="12.608510028628581"><ele>443.0</ele><time>2026-04-25T08:41:02Z</time></trkpt><trkpt lat="43.8890162587731" lon="12.608358440361423"><ele>443.0</ele><time>2026-04-25T08:41:04Z</time></trkpt><trkpt lat="43.889049202974775" lon="12.608276556516522"><ele>442.99999999999994</ele><time>2026-04-25T08:41:05Z</time></trkpt><trkpt lat="43.88908118888945" lon="12.608199390774997"><ele>443.0</ele><time>2026-04-25T08:41:06Z</time></trkpt><trkpt lat="43.88912341805918" lon="12.608099973551012"><ele>443.0</ele><time>2026-04-25T08:41:07Z</time></trkpt><trkpt lat="43.889158254691104" lon="12.608014632380408"><ele>442.99999999999994</ele><time>2026-04-25T08:41:08Z</time></trkpt><trkpt lat="43.88919172104999" lon="12.607926368958273"><ele>442.99999999999994</ele><time>2026-04-25T08:41:09Z</time></trkpt><trkpt lat="43.88924008742413" lon="12.607769074023285"><ele>443.0</ele><time>2026-04-25T08:41:11Z</time></trkpt><trkpt lat="43.88928210053045" lon="12.607611004829208"><ele>443.0</ele><time>2026-04-25T08:41:13Z</time></trkpt><trkpt lat="43.88930492177234" lon="12.607517679282628"><ele>434.79999999999995</ele><time>2026-04-25T08:41:14Z</time></trkpt><trkpt lat="43.88932159157558" lon="12.60740398575724"><ele>426.59999999999997</ele><time>2026-04-25T08:41:15Z</time></trkpt><trkpt lat="43.88932879373307" lon="12.607293503794125"><ele>418.4</ele><time>2026-04-25T08:41:16Z</time></trkpt><trkpt lat="43.8893409055878" lon="12.607159897092265"><ele>410.20000000000005</ele><time>2026-04-25T08:41:17Z</time></trkpt><trkpt lat="43.889371003705385" lon="12.607019477872775"><ele>402.0</ele><time>2026-04-25T08:41:18Z</time></trkpt><trkpt lat="43.88939028905819" lon="12.6068886778603"><ele>402.0</ele><time>2026-04-25T08:41:19Z</time></trkpt><trkpt lat="43.88942061972542" lon="12.606746060680255"><ele>402.0</ele><time>2026-04-25T08:41:20Z</time></trkpt><trkpt lat="43.889456525379025" lon="12.606599308294502"><ele>402.0</ele><time>2026-04-25T08:41:21Z</time></trkpt><trkpt lat="43.88949752290175" lon="12.60644619473245"><ele>402.0</ele><time>2026-04-25T08:41:22Z</time></trkpt><trkpt lat="43.88953245208365" lon="12.606283768974372"><ele>403.0</ele><time>2026-04-25T08:41:23Z</time></trkpt><trkpt lat="43.88958077598629" lon="12.60613173828"><ele>404.0</ele><time>2026-04-25T08:41:24Z</time></trkpt><trkpt lat="43.889624425604865" lon="12.605997363466292"><ele>405.0</ele><time>2026-04-25T08:41:25Z</time></trkpt><trkpt lat="43.88966799751982" lon="12.605866139459389"><ele>406.0</ele><time>2026-04-25T08:41:26Z</time></trkpt><trkpt lat="43.88970343234025" lon="12.6057360994436"><ele>407.0</ele><time>2026-04-25T08:41:27Z</time></trkpt><trkpt lat="43.88973539180579" lon="12.605609482508298"><ele>406.99999999999994</ele><time>2026-04-25T08:41:28Z</time></trkpt><trkpt lat="43.88975870679158" lon="12.605484360669207"><ele>407.0</ele><time>2026-04-25T08:41:29Z</time></trkpt><trkpt lat="43.88976828552717" lon="12.605357505826397"><ele>407.0</ele><time>2026-04-25T08:41:30Z</time></trkpt><trkpt lat="43.88977186795867" lon="12.605228178009567"><ele>407.0</ele><time>2026-04-25T08:41:31Z</time></trkpt><trkpt lat="43.88976594843653" lon="12.605118100126317"><ele>406.99999999999994</ele><time>2026-04-25T08:41:32Z</time></trkpt><trkpt lat="43.88975989496381" lon="12.605020850490742"><ele>407.0</ele><time>2026-04-25T08:41:33Z</time></trkpt><trkpt lat="43.88977731121135" lon="12.604935512527215"><ele>407.0</ele><time>2026-04-25T08:41:34Z</time></trkpt><trkpt lat="43.88980496275004" lon="12.604831805915845"><ele>407.0</ele><time>2026-04-25T08:41:37Z</time></trkpt><trkpt lat="43.88987406866888" lon="12.605003431085304"><ele>407.0</ele><time>2026-04-25T08:41:40Z</time></trkpt><trkpt lat="43.8899047117885" lon="12.605109771016766"><ele>407.0</ele><time>2026-04-25T08:41:41Z</time></trkpt><trkpt lat="43.88991834016211" lon="12.605231433695755"><ele>407.0</ele><time>2026-04-25T08:41:42Z</time></trkpt><trkpt lat="43.88993588682075" lon="12.605363392942914"><ele>407.0</ele><time>2026-04-25T08:41:43Z</time></trkpt><trkpt lat="43.889954592753405" lon="12.60550709512423"><ele>407.0</ele><time>2026-04-25T08:41:44Z</time></trkpt><trkpt lat="43.88997210992835" lon="12.605657527660247"><ele>407.0</ele><time>2026-04-25T08:41:45Z</time></trkpt><trkpt lat="43.88998331515101" lon="12.605812468161378"><ele>407.0</ele><time>2026-04-25T08:41:46Z</time></trkpt><trkpt lat="43.88994156259633" lon="12.605954964740237"><ele>407.0</ele><time>2026-04-25T08:41:47Z</time></trkpt><trkpt lat="43.88991044611543" lon="12.606095131161705"><ele>406.0</ele><time>2026-04-25T08:41:48Z</time></trkpt><trkpt lat="43.88989716506403" lon="12.60624153691009"><ele>405.0</ele><time>2026-04-25T08:41:49Z</time></trkpt><trkpt lat="43.88987326903844" lon="12.60638461620282"><ele>404.0</ele><time>2026-04-25T08:41:50Z</time></trkpt><trkpt lat="43.889861852360625" lon="12.606522568914665"><ele>403.0</ele><time>2026-04-25T08:41:51Z</time></trkpt><trkpt lat="43.889859818272654" lon="12.606652594502329"><ele>402.0</ele><time>2026-04-25T08:41:52Z</time></trkpt><trkpt lat="43.88986702084628" lon="12.606774383985977"><ele>402.0</ele><time>2026-04-25T08:41:53Z</time></trkpt><trkpt lat="43.88986496210982" lon="12.606905516069897"><ele>402.0</ele><time>2026-04-25T08:41:54Z</time></trkpt><trkpt lat="43.88989043676852" lon="12.607027189145558"><ele>402.0</ele><time>2026-04-25T08:41:55Z</time></trkpt><trkpt lat="43.88992705956086" lon="12.60713046890556"><ele>402.0</ele><time>2026-04-25T08:41:56Z</time></trkpt><trkpt lat="43.88992711448109" lon="12.607228833992224"><ele>402.0</ele><time>2026-04-25T08:41:57Z</time></trkpt><trkpt lat="43.8899425239627" lon="12.607315769167625"><ele>402.0</ele><time>2026-04-25T08:41:58Z</time></trkpt><trkpt lat="43.88997808347367" lon="12.607396151436086"><ele>402.0</ele><time>2026-04-25T08:41:59Z</time></trkpt><trkpt lat="43.89006021087194" lon="12.607450019796824"><ele>402.0</ele><time>2026-04-25T08:42:00Z</time></trkpt><trkpt lat="43.89014701588722" lon="12.607432774202861"><ele>402.0</ele><time>2026-04-25T08:42:01Z</time></trkpt><trkpt lat="43.89025501876915" lon="12.60741892286247"><ele>402.0</ele><time>2026-04-25T08:42:03Z</time></trkpt><trkpt lat="43.890330751411916" lon="12.607413202316671"><ele>402.0</ele><time>2026-04-25T08:42:05Z</time></trkpt><trkpt lat="43.89035094610029" lon="12.60758268403797"><ele>397.1666666666667</ele><time>2026-04-25T08:42:07Z</time></trkpt><trkpt lat="43.89034198727513" lon="12.607683313774734"><ele>392.3333333333333</ele><time>2026-04-25T08:42:08Z</time></trkpt><trkpt lat="43.89033712067707" lon="12.607789874941847"><ele>387.5</ele><time>2026-04-25T08:42:09Z</time></trkpt><trkpt lat="43.89033522691918" lon="12.607897238619378"><ele>382.66666666666663</ele><time>2026-04-25T08:42:10Z</time></trkpt><trkpt lat="43.890341514501024" lon="12.608006245342265"><ele>377.8333333333333</ele><time>2026-04-25T08:42:11Z</time></trkpt><trkpt lat="43.89035025141498" lon="12.608115663223794"><ele>373.0</ele><time>2026-04-25T08:42:12Z</time></trkpt><trkpt lat="43.89036827990709" lon="12.608221954801946"><ele>373.0</ele><time>2026-04-25T08:42:13Z</time></trkpt><trkpt lat="43.89037635293138" lon="12.608331787746746"><ele>373.0</ele><time>2026-04-25T08:42:14Z</time></trkpt><trkpt lat="43.89040578738558" lon="12.608447474438735"><ele>373.0</ele><time>2026-04-25T08:42:15Z</time></trkpt><trkpt lat="43.89043558355053" lon="12.608565058241961"><ele>373.0</ele><time>2026-04-25T08:42:16Z</time></trkpt><trkpt lat="43.890463042483" lon="12.608675157014785"><ele>373.0</ele><time>2026-04-25T08:42:17Z</time></trkpt><trkpt lat="43.890485820052966" lon="12.608772056571249"><ele>373.0</ele><time>2026-04-25T08:42:18Z</time></trkpt><trkpt lat="43.89050569152469" lon="12.608859146829902"><ele>373.3333333333333</ele><time>2026-04-25T08:42:19Z</time></trkpt><trkpt lat="43.89054088236352" lon="12.608989435534374"><ele>373.66666666666663</ele><time>2026-04-25T08:42:21Z</time></trkpt><trkpt lat="43.89053839068472" lon="12.609081333258333"><ele>374.0</ele><time>2026-04-25T08:42:24Z</time></trkpt><trkpt lat="43.890538420954236" lon="12.609229011562606"><ele>374.3333333333333</ele><time>2026-04-25T08:42:26Z</time></trkpt><trkpt lat="43.89052344266468" lon="12.609320379640264"><ele>374.6666666666667</ele><time>2026-04-25T08:42:27Z</time></trkpt><trkpt lat="43.89049031881557" lon="12.609450623817189"><ele>375.0</ele><time>2026-04-25T08:42:29Z</time></trkpt><trkpt lat="43.8904635763935" lon="12.60957735875036"><ele>375.6</ele><time>2026-04-25T08:42:31Z</time></trkpt><trkpt lat="43.8904439500878" lon="12.60972502813616"><ele>376.2</ele><time>2026-04-25T08:42:33Z</time></trkpt><trkpt lat="43.890407056201575" lon="12.60988019046122"><ele>376.79999999999995</ele><time>2026-04-25T08:42:35Z</time></trkpt><trkpt lat="43.890367235408895" lon="12.610017668192736"><ele>377.4</ele><time>2026-04-25T08:42:37Z</time></trkpt><trkpt lat="43.89031681727307" lon="12.610150589507708"><ele>378.0</ele><time>2026-04-25T08:42:39Z</time></trkpt><trkpt lat="43.89026712622551" lon="12.610232154918645"><ele>378.0</ele><time>2026-04-25T08:42:41Z</time></trkpt><trkpt lat="43.890224749923235" lon="12.610310830357259"><ele>378.0</ele><time>2026-04-25T08:42:44Z</time></trkpt><trkpt lat="43.89024807384129" lon="12.610392961349369"><ele>378.0</ele><time>2026-04-25T08:42:45Z</time></trkpt><trkpt lat="43.89027298433548" lon="12.610475711856227"><ele>378.0</ele><time>2026-04-25T08:42:47Z</time></trkpt><trkpt lat="43.890302955031736" lon="12.610571040648175"><ele>378.0</ele><time>2026-04-25T08:42:50Z</time></trkpt><trkpt lat="43.89042664905523" lon="12.610547755108307"><ele>378.0</ele><time>2026-04-25T08:42:55Z</time></trkpt><trkpt lat="43.89045596274096" lon="12.61045097228418"><ele>378.0</ele><time>2026-04-25T08:42:58Z</time></trkpt><trkpt lat="43.89050118255636" lon="12.610349231552402"><ele>378.0</ele><time>2026-04-25T08:43:01Z</time></trkpt><trkpt lat="43.890538334687555" lon="12.610220437573842"><ele>378.0</ele><time>2026-04-25T08:43:03Z</time></trkpt><trkpt lat="43.89055132508399" lon="12.610133853663184"><ele>378.0</ele><time>2026-04-25T08:43:04Z</time></trkpt><trkpt lat="43.89056771953732" lon="12.610049142870416"><ele>378.0</ele><time>2026-04-25T08:43:05Z</time></trkpt><trkpt lat="43.89060061478425" lon="12.60989207313232"><ele>378.0</ele><time>2026-04-25T08:43:07Z</time></trkpt><trkpt lat="43.89062045169563" lon="12.60973536516358"><ele>378.0</ele><time>2026-04-25T08:43:09Z</time></trkpt><trkpt lat="43.890598642309676" lon="12.609567653416706"><ele>378.0</ele><time>2026-04-25T08:43:11Z</time></trkpt><trkpt lat="43.89058338250878" lon="12.609475948647761"><ele>378.0</ele><time>2026-04-25T08:43:12Z</time></trkpt><trkpt lat="43.89057013889866" lon="12.60938669460808"><ele>378.0</ele><time>2026-04-25T08:43:13Z</time></trkpt><trkpt lat="43.890548102797446" lon="12.609241725724699"><ele>378.0</ele><time>2026-04-25T08:43:15Z</time></trkpt><trkpt lat="43.890557842890146" lon="12.609148284238088"><ele>378.0</ele><time>2026-04-25T08:43:16Z</time></trkpt><trkpt lat="43.89056865117772" lon="12.60903848559483"><ele>377.4</ele><time>2026-04-25T08:43:17Z</time></trkpt><trkpt lat="43.89057815841607" lon="12.608925041266755"><ele>376.79999999999995</ele><time>2026-04-25T08:43:18Z</time></trkpt><trkpt lat="43.890577899622414" lon="12.608793456911373"><ele>376.2</ele><time>2026-04-25T08:43:19Z</time></trkpt><trkpt lat="43.89056123168081" lon="12.608635033657649"><ele>375.6</ele><time>2026-04-25T08:43:20Z</time></trkpt><trkpt lat="43.89054876168365" lon="12.608477621108806"><ele>375.0</ele><time>2026-04-25T08:43:21Z</time></trkpt><trkpt lat="43.890543323292036" lon="12.608327962977773"><ele>374.6</ele><time>2026-04-25T08:43:22Z</time></trkpt><trkpt lat="43.89054292786537" lon="12.608186347193152"><ele>374.2</ele><time>2026-04-25T08:43:23Z</time></trkpt><trkpt lat="43.890549963505556" lon="12.608045951320376"><ele>373.79999999999995</ele><time>2026-04-25T08:43:24Z</time></trkpt><trkpt lat="43.89060807983345" lon="12.60791693614481"><ele>373.4</ele><time>2026-04-25T08:43:25Z</time></trkpt><trkpt lat="43.89063461357733" lon="12.607780857093251"><ele>373.0</ele><time>2026-04-25T08:43:26Z</time></trkpt><trkpt lat="43.89066328556327" lon="12.607646892023235"><ele>372.79999999999995</ele><time>2026-04-25T08:43:27Z</time></trkpt><trkpt lat="43.89069476985113" lon="12.607507495528461"><ele>372.6</ele><time>2026-04-25T08:43:28Z</time></trkpt><trkpt lat="43.89072650103838" lon="12.607369510495841"><ele>372.4</ele><time>2026-04-25T08:43:29Z</time></trkpt><trkpt lat="43.890751420778805" lon="12.607246312562538"><ele>372.20000000000005</ele><time>2026-04-25T08:43:30Z</time></trkpt><trkpt lat="43.890776272323734" lon="12.607103150538858"><ele>372.0</ele><time>2026-04-25T08:43:31Z</time></trkpt><trkpt lat="43.89079695753173" lon="12.606942857257145"><ele>371.40000000000003</ele><time>2026-04-25T08:43:32Z</time></trkpt><trkpt lat="43.89082112613533" lon="12.606801601505591"><ele>370.8</ele><time>2026-04-25T08:43:33Z</time></trkpt><trkpt lat="43.89083938671841" lon="12.606659838010108"><ele>370.2</ele><time>2026-04-25T08:43:34Z</time></trkpt><trkpt lat="43.89086354348505" lon="12.606510251799715"><ele>369.6</ele><time>2026-04-25T08:43:35Z</time></trkpt><trkpt lat="43.89088742045603" lon="12.606362427666406"><ele>369.0</ele><time>2026-04-25T08:43:36Z</time></trkpt><trkpt lat="43.89087443703569" lon="12.60621031368855"><ele>368.6</ele><time>2026-04-25T08:43:37Z</time></trkpt><trkpt lat="43.890861650899716" lon="12.606038366372049"><ele>368.2</ele><time>2026-04-25T08:43:38Z</time></trkpt><trkpt lat="43.89085192206871" lon="12.605890908065811"><ele>367.8</ele><time>2026-04-25T08:43:39Z</time></trkpt><trkpt lat="43.89084473756007" lon="12.605775644704226"><ele>367.40000000000003</ele><time>2026-04-25T08:43:40Z</time></trkpt><trkpt lat="43.89084938873017" lon="12.605646189262469"><ele>367.0</ele><time>2026-04-25T08:43:41Z</time></trkpt><trkpt lat="43.89087172519678" lon="12.605544410027266"><ele>367.0</ele><time>2026-04-25T08:43:42Z</time></trkpt><trkpt lat="43.89089947215695" lon="12.605429646950121"><ele>367.0</ele><time>2026-04-25T08:43:43Z</time></trkpt><trkpt lat="43.89092748503413" lon="12.605334901838756"><ele>367.0</ele><time>2026-04-25T08:43:44Z</time></trkpt><trkpt lat="43.890983153657345" lon="12.60524172464337"><ele>367.0</ele><time>2026-04-25T08:43:46Z</time></trkpt><trkpt lat="43.89105423189397" lon="12.605213285527919"><ele>367.0</ele><time>2026-04-25T08:43:48Z</time></trkpt><trkpt lat="43.89107204822882" lon="12.605388241520197"><ele>360.0</ele><time>2026-04-25T08:43:49Z</time></trkpt><trkpt lat="43.891077098599204" lon="12.605495184882134"><ele>353.0</ele><time>2026-04-25T08:43:50Z</time></trkpt><trkpt lat="43.89106868102531" lon="12.60561673571583"><ele>346.0</ele><time>2026-04-25T08:43:51Z</time></trkpt><trkpt lat="43.89108824952352" lon="12.605748277169281"><ele>339.0</ele><time>2026-04-25T08:43:52Z</time></trkpt><trkpt lat="43.89110200873034" lon="12.605883506175548"><ele>332.0</ele><time>2026-04-25T08:43:53Z</time></trkpt><trkpt lat="43.891118360329706" lon="12.606027600790634"><ele>333.0</ele><time>2026-04-25T08:43:54Z</time></trkpt><trkpt lat="43.89113735047264" lon="12.60617301536826"><ele>334.0</ele><time>2026-04-25T08:43:55Z</time></trkpt><trkpt lat="43.891160952935685" lon="12.606319587469578"><ele>335.0</ele><time>2026-04-25T08:43:56Z</time></trkpt><trkpt lat="43.89121527393552" lon="12.606450696965217"><ele>336.0</ele><time>2026-04-25T08:43:57Z</time></trkpt><trkpt lat="43.89127453001297" lon="12.606591290779408"><ele>337.0</ele><time>2026-04-25T08:43:58Z</time></trkpt><trkpt lat="43.89131445615667" lon="12.606740718461602"><ele>337.0</ele><time>2026-04-25T08:43:59Z</time></trkpt><trkpt lat="43.89135118330792" lon="12.6069030090764"><ele>337.0</ele><time>2026-04-25T08:44:00Z</time></trkpt><trkpt lat="43.89138066879143" lon="12.607065471311689"><ele>337.0</ele><time>2026-04-25T08:44:01Z</time></trkpt><trkpt lat="43.89140551904137" lon="12.607213010451678"><ele>337.0</ele><time>2026-04-25T08:44:02Z</time></trkpt><trkpt lat="43.89143330697717" lon="12.607343425333399"><ele>336.20000000000005</ele><time>2026-04-25T08:44:03Z</time></trkpt><trkpt lat="43.89147286784844" lon="12.607448639072947"><ele>335.4</ele><time>2026-04-25T08:44:04Z</time></trkpt><trkpt lat="43.89154618328236" lon="12.607531016621461"><ele>334.6</ele><time>2026-04-25T08:44:05Z</time></trkpt><trkpt lat="43.89164100828635" lon="12.607592168889676"><ele>333.79999999999995</ele><time>2026-04-25T08:44:06Z</time></trkpt><trkpt lat="43.891746381361266" lon="12.607631188585104"><ele>333.0</ele><time>2026-04-25T08:44:07Z</time></trkpt><trkpt lat="43.8918599294986" lon="12.607662846436284"><ele>333.0</ele><time>2026-04-25T08:44:08Z</time></trkpt><trkpt lat="43.891980742663996" lon="12.607701245034612"><ele>333.0</ele><time>2026-04-25T08:44:09Z</time></trkpt><trkpt lat="43.89209950266147" lon="12.607766729284636"><ele>333.0</ele><time>2026-04-25T08:44:10Z</time></trkpt><trkpt lat="43.89220854267592" lon="12.607790236274727"><ele>333.0</ele><time>2026-04-25T08:44:11Z</time></trkpt><trkpt lat="43.892295753176626" lon="12.607812988426575"><ele>332.8333333333333</ele><time>2026-04-25T08:44:12Z</time></trkpt><trkpt lat="43.89235537577548" lon="12.607843074935985"><ele>332.6666666666667</ele><time>2026-04-25T08:44:13Z</time></trkpt><trkpt lat="43.89239580745182" lon="12.607936865002301"><ele>332.5</ele><time>2026-04-25T08:44:14Z</time></trkpt><trkpt lat="43.89242255771382" lon="12.60804616279628"><ele>332.33333333333337</ele><time>2026-04-25T08:44:15Z</time></trkpt><trkpt lat="43.89243967966719" lon="12.608149439562933"><ele>332.1666666666667</ele><time>2026-04-25T08:44:16Z</time></trkpt><trkpt lat="43.89250881022961" lon="12.608274974600679"><ele>332.0</ele><time>2026-04-25T08:44:18Z</time></trkpt><trkpt lat="43.89261303595317" lon="12.608253845506061"><ele>328.40000000000003</ele><time>2026-04-25T08:44:19Z</time></trkpt><trkpt lat="43.89269177271696" lon="12.608152757295152"><ele>324.8</ele><time>2026-04-25T08:44:20Z</time></trkpt><trkpt lat="43.89278028605069" lon="12.608068016412972"><ele>321.2</ele><time>2026-04-25T08:44:21Z</time></trkpt><trkpt lat="43.892875750611026" lon="12.60799581386003"><ele>317.6</ele><time>2026-04-25T08:44:22Z</time></trkpt><trkpt lat="43.89295209738323" lon="12.607945900042418"><ele>314.0</ele><time>2026-04-25T08:44:23Z</time></trkpt><trkpt lat="43.89301796937372" lon="12.60797314589445"><ele>314.0</ele><time>2026-04-25T08:44:24Z</time></trkpt><trkpt lat="43.89307157513373" lon="12.608023531782804"><ele>314.0</ele><time>2026-04-25T08:44:27Z</time></trkpt><trkpt lat="43.892978232094755" lon="12.60819675799346"><ele>314.0</ele><time>2026-04-25T08:44:29Z</time></trkpt><trkpt lat="43.892915659430905" lon="12.608306769338942"><ele>314.0</ele><time>2026-04-25T08:44:30Z</time></trkpt><trkpt lat="43.89285873856461" lon="12.608412314362687"><ele>314.0</ele><time>2026-04-25T08:44:31Z</time></trkpt><trkpt lat="43.892827529985304" lon="12.608543312305182"><ele>311.0</ele><time>2026-04-25T08:44:32Z</time></trkpt><trkpt lat="43.892825944170646" lon="12.608693994933196"><ele>308.0</ele><time>2026-04-25T08:44:33Z</time></trkpt><trkpt lat="43.892841624485385" lon="12.608845063968753"><ele>305.0</ele><time>2026-04-25T08:44:34Z</time></trkpt><trkpt lat="43.89286623350302" lon="12.608978173686337"><ele>302.0</ele><time>2026-04-25T08:44:35Z</time></trkpt><trkpt lat="43.89289079313516" lon="12.609091838718761"><ele>299.0</ele><time>2026-04-25T08:44:36Z</time></trkpt><trkpt lat="43.89296353761143" lon="12.609177316572655"><ele>299.0</ele><time>2026-04-25T08:44:37Z</time></trkpt><trkpt lat="43.893064753763" lon="12.609230754722436"><ele>299.0</ele><time>2026-04-25T08:44:38Z</time></trkpt><trkpt lat="43.893183770660556" lon="12.609247108333355"><ele>299.0</ele><time>2026-04-25T08:44:39Z</time></trkpt><trkpt lat="43.89330923821344" lon="12.609256415574132"><ele>299.0</ele><time>2026-04-25T08:44:40Z</time></trkpt><trkpt lat="43.89343412838121" lon="12.609275108557576"><ele>297.2</ele><time>2026-04-25T08:44:41Z</time></trkpt><trkpt lat="43.8935470012154" lon="12.609303678967931"><ele>295.4</ele><time>2026-04-25T08:44:42Z</time></trkpt><trkpt lat="43.893633047199536" lon="12.609344773716096"><ele>293.6</ele><time>2026-04-25T08:44:43Z</time></trkpt><trkpt lat="43.893715538987976" lon="12.609399345794154"><ele>291.8</ele><time>2026-04-25T08:44:44Z</time></trkpt><trkpt lat="43.893756366015936" lon="12.60953504390524"><ele>290.0</ele><time>2026-04-25T08:44:45Z</time></trkpt><trkpt lat="43.8937748485332" lon="12.609701949800574"><ele>288.0</ele><time>2026-04-25T08:44:46Z</time></trkpt><trkpt lat="43.89380586957994" lon="12.609863584650924"><ele>286.0</ele><time>2026-04-25T08:44:47Z</time></trkpt><trkpt lat="43.89386559990986" lon="12.609991922132771"><ele>284.0</ele><time>2026-04-25T08:44:48Z</time></trkpt><trkpt lat="43.893937355911454" lon="12.610076403201775"><ele>282.0</ele><time>2026-04-25T08:44:49Z</time></trkpt><trkpt lat="43.89401353867146" lon="12.610145362070005"><ele>280.0</ele><time>2026-04-25T08:44:50Z</time></trkpt><trkpt lat="43.89410652017264" lon="12.610160347499674"><ele>280.0</ele><time>2026-04-25T08:44:51Z</time></trkpt><trkpt lat="43.89420940711275" lon="12.610139360289551"><ele>280.0</ele><time>2026-04-25T08:44:52Z</time></trkpt><trkpt lat="43.894321758362956" lon="12.610088802764476"><ele>280.0</ele><time>2026-04-25T08:44:53Z</time></trkpt><trkpt lat="43.89443456075733" lon="12.610020011923115"><ele>280.0</ele><time>2026-04-25T08:44:54Z</time></trkpt><trkpt lat="43.89455131407686" lon="12.609930761738356"><ele>276.0</ele><time>2026-04-25T08:44:55Z</time></trkpt><trkpt lat="43.89467219529557" lon="12.609826750042119"><ele>272.0</ele><time>2026-04-25T08:44:56Z</time></trkpt><trkpt lat="43.89479425177923" lon="12.609718082520123"><ele>268.0</ele><time>2026-04-25T08:44:57Z</time></trkpt><trkpt lat="43.894916723996126" lon="12.60960983816572"><ele>264.0</ele><time>2026-04-25T08:44:58Z</time></trkpt><trkpt lat="43.89503572143763" lon="12.609511611032715"><ele>263.0</ele><time>2026-04-25T08:44:59Z</time></trkpt><trkpt lat="43.89515805390376" lon="12.60943183092912"><ele>262.0</ele><time>2026-04-25T08:45:00Z</time></trkpt><trkpt lat="43.89527891017974" lon="12.609373961532969"><ele>261.0</ele><time>2026-04-25T08:45:01Z</time></trkpt><trkpt lat="43.895396851806105" lon="12.609323776697696"><ele>260.0</ele><time>2026-04-25T08:45:02Z</time></trkpt><trkpt lat="43.895512224463346" lon="12.60927887795662"><ele>260.0</ele><time>2026-04-25T08:45:03Z</time></trkpt><trkpt lat="43.89561698074007" lon="12.609239573627027"><ele>260.0</ele><time>2026-04-25T08:45:04Z</time></trkpt><trkpt lat="43.89572243614575" lon="12.60920513830181"><ele>260.0</ele><time>2026-04-25T08:45:05Z</time></trkpt><trkpt lat="43.89579997152484" lon="12.609163603546788"><ele>260.0</ele><time>2026-04-25T08:45:06Z</time></trkpt><trkpt lat="43.89591137026488" lon="12.609165407854753"><ele>260.0</ele><time>2026-04-25T08:45:08Z</time></trkpt><trkpt lat="43.89594312048041" lon="12.609250296618901"><ele>260.0</ele><time>2026-04-25T08:45:11Z</time></trkpt><trkpt lat="43.89588640639214" lon="12.60929639218972"><ele>260.0</ele><time>2026-04-25T08:45:12Z</time></trkpt><trkpt lat="43.895787119716246" lon="12.6093453264768"><ele>260.0</ele><time>2026-04-25T08:45:13Z</time></trkpt><trkpt lat="43.895691257171485" lon="12.60945952814384"><ele>260.0</ele><time>2026-04-25T08:45:14Z</time></trkpt><trkpt lat="43.89559919521481" lon="12.60957925120252"><ele>260.0</ele><time>2026-04-25T08:45:15Z</time></trkpt><trkpt lat="43.89551120381766" lon="12.609705502211929"><ele>256.6</ele><time>2026-04-25T08:45:16Z</time></trkpt><trkpt lat="43.8954435144148" lon="12.609833227827115"><ele>253.2</ele><time>2026-04-25T08:45:17Z</time></trkpt><trkpt lat="43.895409731016954" lon="12.609961418622204"><ele>249.8</ele><time>2026-04-25T08:45:18Z</time></trkpt><trkpt lat="43.89541963813628" lon="12.610100444743063"><ele>246.4</ele><time>2026-04-25T08:45:19Z</time></trkpt><trkpt lat="43.895469029186025" lon="12.610235843005034"><ele>243.0</ele><time>2026-04-25T08:45:20Z</time></trkpt><trkpt lat="43.89554037185029" lon="12.610365118111698"><ele>242.5</ele><time>2026-04-25T08:45:21Z</time></trkpt><trkpt lat="43.895626790577346" lon="12.610492800435091"><ele>242.0</ele><time>2026-04-25T08:45:22Z</time></trkpt><trkpt lat="43.8957013169381" lon="12.610650547745868"><ele>241.5</ele><time>2026-04-25T08:45:23Z</time></trkpt><trkpt lat="43.895771591601964" lon="12.610781094846795"><ele>241.0</ele><time>2026-04-25T08:45:24Z</time></trkpt><trkpt lat="43.89580148397775" lon="12.610934657207059"><ele>240.99999999999997</ele><time>2026-04-25T08:45:25Z</time></trkpt><trkpt lat="43.895807329703416" lon="12.611082899741485"><ele>241.0</ele><time>2026-04-25T08:45:26Z</time></trkpt><trkpt lat="43.89582573251145" lon="12.611198937285323"><ele>241.0</ele><time>2026-04-25T08:45:27Z</time></trkpt><trkpt lat="43.895792529944785" lon="12.611319651353696"><ele>241.0</ele><time>2026-04-25T08:45:28Z</time></trkpt><trkpt lat="43.89574957526582" lon="12.611433562779874"><ele>240.99999999999997</ele><time>2026-04-25T08:45:29Z</time></trkpt><trkpt lat="43.89572635833893" lon="12.6115195553932"><ele>241.0</ele><time>2026-04-25T08:45:30Z</time></trkpt><trkpt lat="43.89577123358169" lon="12.611684928887525"><ele>239.75</ele><time>2026-04-25T08:45:32Z</time></trkpt><trkpt lat="43.895903195053016" lon="12.61170619397293"><ele>238.5</ele><time>2026-04-25T08:45:33Z</time></trkpt><trkpt lat="43.89600782232369" lon="12.611684220132762"><ele>237.25</ele><time>2026-04-25T08:45:34Z</time></trkpt><trkpt lat="43.896118826550804" lon="12.611643516126506"><ele>236.0</ele><time>2026-04-25T08:45:35Z</time></trkpt><trkpt lat="43.896235923451606" lon="12.611591810704448"><ele>231.25</ele><time>2026-04-25T08:45:36Z</time></trkpt><trkpt lat="43.89635073735947" lon="12.611540105530699"><ele>226.5</ele><time>2026-04-25T08:45:37Z</time></trkpt><trkpt lat="43.89645802823486" lon="12.611487377813612"><ele>221.75</ele><time>2026-04-25T08:45:38Z</time></trkpt><trkpt lat="43.896559565399684" lon="12.611426053122852"><ele>217.0</ele><time>2026-04-25T08:45:39Z</time></trkpt><trkpt lat="43.89665649726433" lon="12.611342604964383"><ele>217.0</ele><time>2026-04-25T08:45:40Z</time></trkpt><trkpt lat="43.89673955531351" lon="12.61123259480039"><ele>217.0</ele><time>2026-04-25T08:45:41Z</time></trkpt><trkpt lat="43.89679410965356" lon="12.611087944591288"><ele>217.0</ele><time>2026-04-25T08:45:42Z</time></trkpt><trkpt lat="43.89682462152447" lon="12.610960244179015"><ele>217.0</ele><time>2026-04-25T08:45:43Z</time></trkpt><trkpt lat="43.89684592030222" lon="12.610829262449373"><ele>217.0</ele><time>2026-04-25T08:45:44Z</time></trkpt><trkpt lat="43.89684823859303" lon="12.610694545989436"><ele>214.16666666666666</ele><time>2026-04-25T08:45:45Z</time></trkpt><trkpt lat="43.89684321077475" lon="12.610561231371532"><ele>211.33333333333331</ele><time>2026-04-25T08:45:46Z</time></trkpt><trkpt lat="43.896826014304885" lon="12.61044444646362"><ele>208.5</ele><time>2026-04-25T08:45:47Z</time></trkpt><trkpt lat="43.89680495253084" lon="12.610326735207693"><ele>205.66666666666669</ele><time>2026-04-25T08:45:48Z</time></trkpt><trkpt lat="43.896799690712996" lon="12.610236969523529"><ele>202.83333333333334</ele><time>2026-04-25T08:45:49Z</time></trkpt><trkpt lat="43.896842913997254" lon="12.610108785004206"><ele>200.0</ele><time>2026-04-25T08:45:51Z</time></trkpt><trkpt lat="43.896962664860744" lon="12.610055579465484"><ele>200.00000000000003</ele><time>2026-04-25T08:45:53Z</time></trkpt><trkpt lat="43.89709503256088" lon="12.610030387439933"><ele>200.0</ele><time>2026-04-25T08:45:55Z</time></trkpt><trkpt lat="43.897168210901505" lon="12.610009428246856"><ele>200.0</ele><time>2026-04-25T08:45:56Z</time></trkpt><trkpt lat="43.89724024558459" lon="12.609979420208571"><ele>200.0</ele><time>2026-04-25T08:45:57Z</time></trkpt><trkpt lat="43.89730606668581" lon="12.609948951282478"><ele>200.00000000000003</ele><time>2026-04-25T08:45:58Z</time></trkpt><trkpt lat="43.89737471470648" lon="12.609919966601465"><ele>200.0</ele><time>2026-04-25T08:45:59Z</time></trkpt><trkpt lat="43.8974521861159" lon="12.609887298669435"><ele>200.0</ele><time>2026-04-25T08:46:00Z</time></trkpt><trkpt lat="43.897541231214156" lon="12.609847636838573"><ele>200.0</ele><time>2026-04-25T08:46:01Z</time></trkpt><trkpt lat="43.8976370093493" lon="12.609854284392405"><ele>200.0</ele><time>2026-04-25T08:46:02Z</time></trkpt><trkpt lat="43.89773682525467" lon="12.609884887068915"><ele>200.0</ele><time>2026-04-25T08:46:03Z</time></trkpt><trkpt lat="43.89784504148323" lon="12.609917778671928"><ele>200.0</ele><time>2026-04-25T08:46:04Z</time></trkpt><trkpt lat="43.89795257449815" lon="12.609960414322792"><ele>196.4</ele><time>2026-04-25T08:46:05Z</time></trkpt><trkpt lat="43.89805574356646" lon="12.609994010441236"><ele>192.8</ele><time>2026-04-25T08:46:06Z</time></trkpt><trkpt lat="43.89815849581161" lon="12.610003832106624"><ele>189.2</ele><time>2026-04-25T08:46:07Z</time></trkpt><trkpt lat="43.89826042141802" lon="12.610010262468506"><ele>185.6</ele><time>2026-04-25T08:46:08Z</time></trkpt><trkpt lat="43.898359471673196" lon="12.609963932683137"><ele>182.0</ele><time>2026-04-25T08:46:09Z</time></trkpt><trkpt lat="43.89844301056569" lon="12.609881555853978"><ele>178.2</ele><time>2026-04-25T08:46:10Z</time></trkpt><trkpt lat="43.89850466669603" lon="12.609776182913242"><ele>174.39999999999998</ele><time>2026-04-25T08:46:11Z</time></trkpt><trkpt lat="43.898578972751174" lon="12.609688467285045"><ele>170.60000000000002</ele><time>2026-04-25T08:46:13Z</time></trkpt><trkpt lat="43.89867880403245" lon="12.609821664428184"><ele>166.8</ele><time>2026-04-25T08:46:15Z</time></trkpt><trkpt lat="43.898698375240976" lon="12.609958093216392"><ele>163.0</ele><time>2026-04-25T08:46:16Z</time></trkpt><trkpt lat="43.89870066563604" lon="12.610106851953242"><ele>163.0</ele><time>2026-04-25T08:46:17Z</time></trkpt><trkpt lat="43.89868419957456" lon="12.61026918718417"><ele>163.0</ele><time>2026-04-25T08:46:18Z</time></trkpt><trkpt lat="43.89866026313413" lon="12.610439353291289"><ele>163.0</ele><time>2026-04-25T08:46:19Z</time></trkpt><trkpt lat="43.898642075481206" lon="12.610603576901536"><ele>163.0</ele><time>2026-04-25T08:46:20Z</time></trkpt><trkpt lat="43.89862795872207" lon="12.610766082420595"><ele>162.8</ele><time>2026-04-25T08:46:21Z</time></trkpt><trkpt lat="43.898624499677375" lon="12.610918213960966"><ele>162.60000000000002</ele><time>2026-04-25T08:46:22Z</time></trkpt><trkpt lat="43.89863364607198" lon="12.611065952038755"><ele>162.39999999999998</ele><time>2026-04-25T08:46:23Z</time></trkpt><trkpt lat="43.898667822438945" lon="12.611198185205318"><ele>162.2</ele><time>2026-04-25T08:46:24Z</time></trkpt><trkpt lat="43.898723413380836" lon="12.611319537402638"><ele>162.0</ele><time>2026-04-25T08:46:25Z</time></trkpt><trkpt lat="43.89880514913634" lon="12.611427508144049"><ele>161.25</ele><time>2026-04-25T08:46:26Z</time></trkpt><trkpt lat="43.89890423296138" lon="12.611526655155352"><ele>160.5</ele><time>2026-04-25T08:46:27Z</time></trkpt><trkpt lat="43.899014705637825" lon="12.611614075693826"><ele>159.75</ele><time>2026-04-25T08:46:28Z</time></trkpt><trkpt lat="43.899135709768224" lon="12.611709292973062"><ele>159.0</ele><time>2026-04-25T08:46:29Z</time></trkpt><trkpt lat="43.89927381857784" lon="12.611753388449777"><ele>155.75</ele><time>2026-04-25T08:46:30Z</time></trkpt><trkpt lat="43.899414880018995" lon="12.611794718765283"><ele>152.5</ele><time>2026-04-25T08:46:31Z</time></trkpt><trkpt lat="43.89955701730986" lon="12.611831186924151"><ele>149.25</ele><time>2026-04-25T08:46:32Z</time></trkpt><trkpt lat="43.89969780156269" lon="12.611853752120231"><ele>146.0</ele><time>2026-04-25T08:46:33Z</time></trkpt><trkpt lat="43.89983979002523" lon="12.611855626393737"><ele>146.0</ele><time>2026-04-25T08:46:34Z</time></trkpt><trkpt lat="43.8999762199368" lon="12.611846586142624"><ele>146.0</ele><time>2026-04-25T08:46:35Z</time></trkpt><trkpt lat="43.90010632712308" lon="12.611841585085697"><ele>146.0</ele><time>2026-04-25T08:46:36Z</time></trkpt><trkpt lat="43.9002251877199" lon="12.611848528142623"><ele>146.0</ele><time>2026-04-25T08:46:37Z</time></trkpt><trkpt lat="43.900330079809194" lon="12.61189201308868"><ele>144.6</ele><time>2026-04-25T08:46:38Z</time></trkpt><trkpt lat="43.900414444827405" lon="12.611960229044291"><ele>143.2</ele><time>2026-04-25T08:46:39Z</time></trkpt><trkpt lat="43.9004760713039" lon="12.612055092586527"><ele>141.8</ele><time>2026-04-25T08:46:40Z</time></trkpt><trkpt lat="43.90052661445581" lon="12.61214914187056"><ele>140.4</ele><time>2026-04-25T08:46:41Z</time></trkpt><trkpt lat="43.90068106874584" lon="12.612152566134593"><ele>139.0</ele><time>2026-04-25T08:46:42Z</time></trkpt><trkpt lat="43.9007959525933" lon="12.612176623043522"><ele>139.0</ele><time>2026-04-25T08:46:43Z</time></trkpt><trkpt lat="43.90090951390861" lon="12.612199082839616"><ele>139.0</ele><time>2026-04-25T08:46:44Z</time></trkpt><trkpt lat="43.90100985850146" lon="12.612218928702369"><ele>139.0</ele><time>2026-04-25T08:46:45Z</time></trkpt><trkpt lat="43.90109935075352" lon="12.612236628181908"><ele>139.0</ele><time>2026-04-25T08:46:46Z</time></trkpt><trkpt lat="43.90118436069628" lon="12.612253441207969"><ele>139.0</ele><time>2026-04-25T08:46:47Z</time></trkpt><trkpt lat="43.90126275861962" lon="12.612268775836199"><ele>138.0</ele><time>2026-04-25T08:46:48Z</time></trkpt><trkpt lat="43.90133330540329" lon="12.61228220417808"><ele>137.0</ele><time>2026-04-25T08:46:49Z</time></trkpt><trkpt lat="43.90144499638722" lon="12.61230346422198"><ele>136.0</ele><time>2026-04-25T08:46:51Z</time></trkpt><trkpt lat="43.90150761965618" lon="12.612315384369342"><ele>135.0</ele><time>2026-04-25T08:46:52Z</time></trkpt><trkpt lat="43.90158047797301" lon="12.61232916525086"><ele>134.0</ele><time>2026-04-25T08:46:53Z</time></trkpt><trkpt lat="43.90167229222823" lon="12.612322567355344"><ele>133.0</ele><time>2026-04-25T08:46:54Z</time></trkpt><trkpt lat="43.901772666561584" lon="12.612349685246029"><ele>131.8</ele><time>2026-04-25T08:46:55Z</time></trkpt><trkpt lat="43.901877066797134" lon="12.612372499026813"><ele>130.60000000000002</ele><time>2026-04-25T08:46:56Z</time></trkpt><trkpt lat="43.901980210092766" lon="12.612394538440224"><ele>129.39999999999998</ele><time>2026-04-25T08:46:57Z</time></trkpt><trkpt lat="43.90209052879136" lon="12.612412438309077"><ele>128.2</ele><time>2026-04-25T08:46:58Z</time></trkpt><trkpt lat="43.90218420085154" lon="12.612426050690601"><ele>127.0</ele><time>2026-04-25T08:46:59Z</time></trkpt><trkpt lat="43.90227296476193" lon="12.612420021471594"><ele>127.0</ele><time>2026-04-25T08:47:00Z</time></trkpt><trkpt lat="43.90236078326349" lon="12.612398459286103"><ele>126.99999999999999</ele><time>2026-04-25T08:47:01Z</time></trkpt><trkpt lat="43.90243272167789" lon="12.612293066985451"><ele>126.99999999999999</ele><time>2026-04-25T08:47:02Z</time></trkpt><trkpt lat="43.90247744664196" lon="12.612151598982344"><ele>127.0</ele><time>2026-04-25T08:47:03Z</time></trkpt><trkpt lat="43.902488049780054" lon="12.611993396827879"><ele>127.0</ele><time>2026-04-25T08:47:04Z</time></trkpt><trkpt lat="43.90246376736651" lon="12.611849465236173"><ele>125.0</ele><time>2026-04-25T08:47:05Z</time></trkpt><trkpt lat="43.90240880163708" lon="12.611724130444102"><ele>122.99999999999999</ele><time>2026-04-25T08:47:06Z</time></trkpt><trkpt lat="43.90231291451903" lon="12.611636095314452"><ele>120.99999999999999</ele><time>2026-04-25T08:47:07Z</time></trkpt><trkpt lat="43.902224866197265" lon="12.611577407185916"><ele>119.0</ele><time>2026-04-25T08:47:08Z</time></trkpt><trkpt lat="43.90213899786167" lon="12.611533465404378"><ele>117.0</ele><time>2026-04-25T08:47:09Z</time></trkpt><trkpt lat="43.902054108649196" lon="12.611480193640956"><ele>117.0</ele><time>2026-04-25T08:47:10Z</time></trkpt><trkpt lat="43.90197657770096" lon="12.611405180539148"><ele>116.99999999999999</ele><time>2026-04-25T08:47:11Z</time></trkpt><trkpt lat="43.90193119946851" lon="12.611278467166628"><ele>116.99999999999999</ele><time>2026-04-25T08:47:12Z</time></trkpt><trkpt lat="43.90187587700154" lon="12.611146187433153"><ele>117.0</ele><time>2026-04-25T08:47:13Z</time></trkpt><trkpt lat="43.90181981314277" lon="12.610995784393857"><ele>117.0</ele><time>2026-04-25T08:47:14Z</time></trkpt><trkpt lat="43.90177013302321" lon="12.610851700604792"><ele>118.25</ele><time>2026-04-25T08:47:15Z</time></trkpt><trkpt lat="43.90171780322884" lon="12.610705698680968"><ele>119.5</ele><time>2026-04-25T08:47:16Z</time></trkpt><trkpt lat="43.90166433903337" lon="12.610564709605905"><ele>120.75</ele><time>2026-04-25T08:47:17Z</time></trkpt><trkpt lat="43.9016090205169" lon="12.610422158568703"><ele>122.0</ele><time>2026-04-25T08:47:18Z</time></trkpt><trkpt lat="43.901575187111675" lon="12.61025370891657"><ele>119.0</ele><time>2026-04-25T08:47:19Z</time></trkpt><trkpt lat="43.901558017588904" lon="12.610081914250836"><ele>116.0</ele><time>2026-04-25T08:47:20Z</time></trkpt><trkpt lat="43.90155336899938" lon="12.609912900201136"><ele>113.0</ele><time>2026-04-25T08:47:21Z</time></trkpt><trkpt lat="43.901561626607965" lon="12.609749863840008"><ele>110.0</ele><time>2026-04-25T08:47:22Z</time></trkpt><trkpt lat="43.901565778977165" lon="12.609588339083018"><ele>108.75</ele><time>2026-04-25T08:47:23Z</time></trkpt><trkpt lat="43.9015673250431" lon="12.609430030467154"><ele>107.5</ele><time>2026-04-25T08:47:24Z</time></trkpt><trkpt lat="43.90157328226726" lon="12.60927241398003"><ele>106.25</ele><time>2026-04-25T08:47:25Z</time></trkpt><trkpt lat="43.901579014339035" lon="12.609111178339349"><ele>105.0</ele><time>2026-04-25T08:47:26Z</time></trkpt><trkpt lat="43.90160915091818" lon="12.608944734902995"><ele>105.0</ele><time>2026-04-25T08:47:27Z</time></trkpt><trkpt lat="43.90161691722403" lon="12.608758426344746"><ele>105.0</ele><time>2026-04-25T08:47:28Z</time></trkpt><trkpt lat="43.901652599755664" lon="12.608579476954295"><ele>105.0</ele><time>2026-04-25T08:47:29Z</time></trkpt><trkpt lat="43.90170344099701" lon="12.608408860752986"><ele>105.0</ele><time>2026-04-25T08:47:30Z</time></trkpt><trkpt lat="43.90177690333315" lon="12.608258750804426"><ele>103.0</ele><time>2026-04-25T08:47:31Z</time></trkpt><trkpt lat="43.901840972059034" lon="12.608114690386705"><ele>101.0</ele><time>2026-04-25T08:47:32Z</time></trkpt><trkpt lat="43.901913587142886" lon="12.607971240679921"><ele>99.0</ele><time>2026-04-25T08:47:33Z</time></trkpt><trkpt lat="43.90199172175614" lon="12.607824259594597"><ele>97.0</ele><time>2026-04-25T08:47:34Z</time></trkpt><trkpt lat="43.902057387591604" lon="12.607671942574791"><ele>97.0</ele><time>2026-04-25T08:47:35Z</time></trkpt><trkpt lat="43.90213192737719" lon="12.607528469842933"><ele>97.0</ele><time>2026-04-25T08:47:36Z</time></trkpt><trkpt lat="43.90220396589105" lon="12.607381962204588"><ele>97.0</ele><time>2026-04-25T08:47:37Z</time></trkpt><trkpt lat="43.902280079287515" lon="12.60723982259552"><ele>97.0</ele><time>2026-04-25T08:47:38Z</time></trkpt><trkpt lat="43.90236104798561" lon="12.607091324389177"><ele>97.25</ele><time>2026-04-25T08:47:39Z</time></trkpt><trkpt lat="43.90244147246696" lon="12.606942129130573"><ele>97.5</ele><time>2026-04-25T08:47:40Z</time></trkpt><trkpt lat="43.90255040913098" lon="12.606822434337987"><ele>97.75</ele><time>2026-04-25T08:47:41Z</time></trkpt><trkpt lat="43.902666468865306" lon="12.606714699865286"><ele>98.0</ele><time>2026-04-25T08:47:42Z</time></trkpt><trkpt lat="43.90279959709514" lon="12.60661925554565"><ele>99.33333333333333</ele><time>2026-04-25T08:47:43Z</time></trkpt><trkpt lat="43.90294423667162" lon="12.606529009780287"><ele>100.66666666666666</ele><time>2026-04-25T08:47:44Z</time></trkpt><trkpt lat="43.90309663499442" lon="12.606436128536185"><ele>102.0</ele><time>2026-04-25T08:47:45Z</time></trkpt><trkpt lat="43.90325665767804" lon="12.606334489979588"><ele>102.0</ele><time>2026-04-25T08:47:46Z</time></trkpt><trkpt lat="43.90340328605494" lon="12.606228164764179"><ele>102.0</ele><time>2026-04-25T08:47:47Z</time></trkpt><trkpt lat="43.903537082222535" lon="12.606146422156648"><ele>102.0</ele><time>2026-04-25T08:47:48Z</time></trkpt><trkpt lat="43.90365640018724" lon="12.606062499601492"><ele>102.0</ele><time>2026-04-25T08:47:49Z</time></trkpt><trkpt lat="43.90375244526417" lon="12.60597855986198"><ele>103.5</ele><time>2026-04-25T08:47:50Z</time></trkpt><trkpt lat="43.90382393164314" lon="12.605877001960744"><ele>105.0</ele><time>2026-04-25T08:47:51Z</time></trkpt><trkpt lat="43.903881834469985" lon="12.605753668205917"><ele>106.5</ele><time>2026-04-25T08:47:52Z</time></trkpt><trkpt lat="43.90386543000853" lon="12.605578008380096"><ele>108.0</ele><time>2026-04-25T08:47:53Z</time></trkpt><trkpt lat="43.903828673241165" lon="12.60539161546799"><ele>110.25</ele><time>2026-04-25T08:47:54Z</time></trkpt><trkpt lat="43.90379535344363" lon="12.605193067422508"><ele>112.5</ele><time>2026-04-25T08:47:55Z</time></trkpt><trkpt lat="43.90373378964184" lon="12.605007904582296"><ele>114.75</ele><time>2026-04-25T08:47:56Z</time></trkpt><trkpt lat="43.90370368646" lon="12.60483272802403"><ele>117.0</ele><time>2026-04-25T08:47:57Z</time></trkpt><trkpt lat="43.903677140329634" lon="12.604688184432844"><ele>117.0</ele><time>2026-04-25T08:47:58Z</time></trkpt><trkpt lat="43.9036894970912" lon="12.604543103918399"><ele>116.99999999999999</ele><time>2026-04-25T08:47:59Z</time></trkpt><trkpt lat="43.90371480598337" lon="12.604431407454916"><ele>116.99999999999999</ele><time>2026-04-25T08:48:00Z</time></trkpt><trkpt lat="43.90374644816" lon="12.604313059641553"><ele>117.0</ele><time>2026-04-25T08:48:01Z</time></trkpt><trkpt lat="43.90383665981368" lon="12.604229755377196"><ele>117.0</ele><time>2026-04-25T08:48:02Z</time></trkpt><trkpt lat="43.903935141419" lon="12.604154977785381"><ele>117.0</ele><time>2026-04-25T08:48:03Z</time></trkpt><trkpt lat="43.904048296330146" lon="12.604104806537736"><ele>117.0</ele><time>2026-04-25T08:48:04Z</time></trkpt><trkpt lat="43.904176715712744" lon="12.604062289458522"><ele>117.0</ele><time>2026-04-25T08:48:05Z</time></trkpt><trkpt lat="43.90430247361227" lon="12.604005829830058"><ele>117.0</ele><time>2026-04-25T08:48:06Z</time></trkpt><trkpt lat="43.90441297888658" lon="12.603918780337365"><ele>118.75</ele><time>2026-04-25T08:48:07Z</time></trkpt><trkpt lat="43.90449847066147" lon="12.603783757273884"><ele>120.5</ele><time>2026-04-25T08:48:08Z</time></trkpt><trkpt lat="43.90455985361667" lon="12.603610831917834"><ele>122.25</ele><time>2026-04-25T08:48:09Z</time></trkpt><trkpt lat="43.904614497240075" lon="12.603418025744505"><ele>124.0</ele><time>2026-04-25T08:48:10Z</time></trkpt><trkpt lat="43.904670881497815" lon="12.603214924055465"><ele>124.25</ele><time>2026-04-25T08:48:11Z</time></trkpt><trkpt lat="43.9047279100614" lon="12.603014602921116"><ele>124.5</ele><time>2026-04-25T08:48:12Z</time></trkpt><trkpt lat="43.904783149135014" lon="12.60284656655037"><ele>124.75</ele><time>2026-04-25T08:48:13Z</time></trkpt><trkpt lat="43.904846524713356" lon="12.602709399886695"><ele>125.0</ele><time>2026-04-25T08:48:14Z</time></trkpt><trkpt lat="43.90493231559104" lon="12.602601719667033"><ele>125.0</ele><time>2026-04-25T08:48:15Z</time></trkpt><trkpt lat="43.90504280287065" lon="12.60250263446982"><ele>125.0</ele><time>2026-04-25T08:48:16Z</time></trkpt><trkpt lat="43.905164307050384" lon="12.602406457596912"><ele>125.0</ele><time>2026-04-25T08:48:17Z</time></trkpt><trkpt lat="43.90529063966368" lon="12.60231081803185"><ele>125.0</ele><time>2026-04-25T08:48:18Z</time></trkpt><trkpt lat="43.90542124157339" lon="12.602211859604461"><ele>126.0</ele><time>2026-04-25T08:48:19Z</time></trkpt><trkpt lat="43.90554379201367" lon="12.602119001744178"><ele>127.0</ele><time>2026-04-25T08:48:20Z</time></trkpt><trkpt lat="43.9056580774415" lon="12.602032406480705"><ele>128.0</ele><time>2026-04-25T08:48:21Z</time></trkpt><trkpt lat="43.90576622373071" lon="12.601949807570376"><ele>129.0</ele><time>2026-04-25T08:48:22Z</time></trkpt><trkpt lat="43.905871984283365" lon="12.601866893176645"><ele>129.6</ele><time>2026-04-25T08:48:23Z</time></trkpt><trkpt lat="43.905972305877114" lon="12.601786739710693"><ele>130.2</ele><time>2026-04-25T08:48:24Z</time></trkpt><trkpt lat="43.90606834939077" lon="12.601714609392717"><ele>130.79999999999998</ele><time>2026-04-25T08:48:25Z</time></trkpt><trkpt lat="43.90616199632315" lon="12.601653492012263"><ele>131.4</ele><time>2026-04-25T08:48:26Z</time></trkpt><trkpt lat="43.90626322508376" lon="12.601621332288579"><ele>132.0</ele><time>2026-04-25T08:48:27Z</time></trkpt><trkpt lat="43.90637544052301" lon="12.601618537154671"><ele>132.0</ele><time>2026-04-25T08:48:28Z</time></trkpt><trkpt lat="43.906500473831215" lon="12.601634255312261"><ele>132.0</ele><time>2026-04-25T08:48:29Z</time></trkpt><trkpt lat="43.90663458652783" lon="12.60165472256688"><ele>132.0</ele><time>2026-04-25T08:48:30Z</time></trkpt><trkpt lat="43.90676999042586" lon="12.60166338971508"><ele>132.0</ele><time>2026-04-25T08:48:31Z</time></trkpt><trkpt lat="43.906908805398324" lon="12.601683839180126"><ele>132.25</ele><time>2026-04-25T08:48:32Z</time></trkpt><trkpt lat="43.90704677622749" lon="12.601693604795638"><ele>132.5</ele><time>2026-04-25T08:48:33Z</time></trkpt><trkpt lat="43.90718047607715" lon="12.601683631633367"><ele>132.75</ele><time>2026-04-25T08:48:34Z</time></trkpt><trkpt lat="43.90731120680204" lon="12.601656869171514"><ele>133.0</ele><time>2026-04-25T08:48:35Z</time></trkpt><trkpt lat="43.90743740514138" lon="12.601616950796409"><ele>133.0</ele><time>2026-04-25T08:48:36Z</time></trkpt><trkpt lat="43.907563101568236" lon="12.601558304698635"><ele>133.0</ele><time>2026-04-25T08:48:37Z</time></trkpt><trkpt lat="43.907697526865384" lon="12.601507184851071"><ele>133.0</ele><time>2026-04-25T08:48:38Z</time></trkpt><trkpt lat="43.90782716709102" lon="12.60141819063564"><ele>133.0</ele><time>2026-04-25T08:48:39Z</time></trkpt><trkpt lat="43.90795779576453" lon="12.601327944524131"><ele>132.75</ele><time>2026-04-25T08:48:40Z</time></trkpt><trkpt lat="43.90809008012873" lon="12.601237135320579"><ele>132.5</ele><time>2026-04-25T08:48:41Z</time></trkpt><trkpt lat="43.908216237158314" lon="12.601151229331697"><ele>132.25</ele><time>2026-04-25T08:48:42Z</time></trkpt><trkpt lat="43.90833635991701" lon="12.601070296636525"><ele>132.0</ele><time>2026-04-25T08:48:43Z</time></trkpt><trkpt lat="43.90844975372915" lon="12.60099389750677"><ele>132.0</ele><time>2026-04-25T08:48:44Z</time></trkpt><trkpt lat="43.90856100405344" lon="12.600918942414603"><ele>132.0</ele><time>2026-04-25T08:48:45Z</time></trkpt><trkpt lat="43.908662903671775" lon="12.60082592696433"><ele>132.0</ele><time>2026-04-25T08:48:46Z</time></trkpt><trkpt lat="43.90876702464475" lon="12.600762218944492"><ele>132.0</ele><time>2026-04-25T08:48:47Z</time></trkpt><trkpt lat="43.90886659611519" lon="12.600689337098336"><ele>132.0</ele><time>2026-04-25T08:48:48Z</time></trkpt><trkpt lat="43.908965686261915" lon="12.600625182795648"><ele>132.0</ele><time>2026-04-25T08:48:49Z</time></trkpt><trkpt lat="43.909058105825" lon="12.600566692640527"><ele>132.0</ele><time>2026-04-25T08:48:50Z</time></trkpt><trkpt lat="43.909136316757014" lon="12.600511732522808"><ele>132.0</ele><time>2026-04-25T08:48:51Z</time></trkpt><trkpt lat="43.90920264177164" lon="12.600465426062051"><ele>132.0</ele><time>2026-04-25T08:48:52Z</time></trkpt><trkpt lat="43.90928012080225" lon="12.600410385081904"><ele>131.4</ele><time>2026-04-25T08:48:54Z</time></trkpt><trkpt lat="43.90934513833452" lon="12.600374214491708"><ele>130.79999999999998</ele><time>2026-04-25T08:48:58Z</time></trkpt><trkpt lat="43.909308225041904" lon="12.600240880315205"><ele>130.2</ele><time>2026-04-25T08:48:59Z</time></trkpt><trkpt lat="43.90925227241022" lon="12.60014248335454"><ele>129.6</ele><time>2026-04-25T08:49:00Z</time></trkpt><trkpt lat="43.90920195499416" lon="12.600025520636544"><ele>129.0</ele><time>2026-04-25T08:49:01Z</time></trkpt><trkpt lat="43.909164520860934" lon="12.599908562620763"><ele>129.0</ele><time>2026-04-25T08:49:02Z</time></trkpt><trkpt lat="43.90912806491537" lon="12.599772645530388"><ele>129.0</ele><time>2026-04-25T08:49:03Z</time></trkpt><trkpt lat="43.90908941164044" lon="12.59963132305554"><ele>129.0</ele><time>2026-04-25T08:49:04Z</time></trkpt><trkpt lat="43.90905054450703" lon="12.599483870075211"><ele>129.0</ele><time>2026-04-25T08:49:05Z</time></trkpt><trkpt lat="43.909026275002724" lon="12.599324608675824"><ele>129.0</ele><time>2026-04-25T08:49:06Z</time></trkpt><trkpt lat="43.90900547016005" lon="12.599172063234146"><ele>129.8</ele><time>2026-04-25T08:49:07Z</time></trkpt><trkpt lat="43.90898300468984" lon="12.599029683669718"><ele>130.60000000000002</ele><time>2026-04-25T08:49:08Z</time></trkpt><trkpt lat="43.908942024414664" lon="12.598901357351666"><ele>131.4</ele><time>2026-04-25T08:49:09Z</time></trkpt><trkpt lat="43.90886604835633" lon="12.598812873791589"><ele>132.20000000000002</ele><time>2026-04-25T08:49:10Z</time></trkpt><trkpt lat="43.908779647191615" lon="12.598767171832407"><ele>133.0</ele><time>2026-04-25T08:49:11Z</time></trkpt><trkpt lat="43.908688952592975" lon="12.598778890134431"><ele>133.0</ele><time>2026-04-25T08:49:12Z</time></trkpt><trkpt lat="43.90858624138212" lon="12.598838827590168"><ele>133.0</ele><time>2026-04-25T08:49:13Z</time></trkpt><trkpt lat="43.90847475727941" lon="12.598928319906616"><ele>133.0</ele><time>2026-04-25T08:49:14Z</time></trkpt><trkpt lat="43.90835338585506" lon="12.599016717868043"><ele>133.0</ele><time>2026-04-25T08:49:15Z</time></trkpt><trkpt lat="43.90823780352432" lon="12.59909559101499"><ele>134.4</ele><time>2026-04-25T08:49:16Z</time></trkpt><trkpt lat="43.908132435225205" lon="12.599152493448196"><ele>135.8</ele><time>2026-04-25T08:49:17Z</time></trkpt><trkpt lat="43.90802485598153" lon="12.599171154277474"><ele>137.2</ele><time>2026-04-25T08:49:18Z</time></trkpt><trkpt lat="43.90792180349584" lon="12.599129421861932"><ele>138.6</ele><time>2026-04-25T08:49:19Z</time></trkpt><trkpt lat="43.90783844013033" lon="12.59902574241313"><ele>140.0</ele><time>2026-04-25T08:49:20Z</time></trkpt><trkpt lat="43.907751482845775" lon="12.598912922127155"><ele>140.0</ele><time>2026-04-25T08:49:21Z</time></trkpt><trkpt lat="43.9076501687659" lon="12.59881772931546"><ele>140.0</ele><time>2026-04-25T08:49:22Z</time></trkpt><trkpt lat="43.90752789174711" lon="12.598752639940898"><ele>140.0</ele><time>2026-04-25T08:49:23Z</time></trkpt><trkpt lat="43.90739537232441" lon="12.598744974596254"><ele>140.0</ele><time>2026-04-25T08:49:24Z</time></trkpt><trkpt lat="43.90726469513971" lon="12.59879158082972"><ele>143.25</ele><time>2026-04-25T08:49:25Z</time></trkpt><trkpt lat="43.90714202174273" lon="12.598855405061476"><ele>146.5</ele><time>2026-04-25T08:49:26Z</time></trkpt><trkpt lat="43.90701069800005" lon="12.598882435256717"><ele>149.75</ele><time>2026-04-25T08:49:27Z</time></trkpt><trkpt lat="43.9068792519731" lon="12.598875055832863"><ele>153.0</ele><time>2026-04-25T08:49:28Z</time></trkpt><trkpt lat="43.90674309556067" lon="12.598867085959396"><ele>155.5</ele><time>2026-04-25T08:49:29Z</time></trkpt><trkpt lat="43.906606155299485" lon="12.598840977101284"><ele>158.0</ele><time>2026-04-25T08:49:30Z</time></trkpt><trkpt lat="43.906470153680274" lon="12.598795493078587"><ele>160.5</ele><time>2026-04-25T08:49:31Z</time></trkpt><trkpt lat="43.906341658399974" lon="12.598754270939683"><ele>163.0</ele><time>2026-04-25T08:49:32Z</time></trkpt><trkpt lat="43.90622617093445" lon="12.59871547847936"><ele>163.0</ele><time>2026-04-25T08:49:33Z</time></trkpt><trkpt lat="43.90612140541901" lon="12.59867730578109"><ele>163.0</ele><time>2026-04-25T08:49:34Z</time></trkpt><trkpt lat="43.90603641662699" lon="12.59863747870887"><ele>163.0</ele><time>2026-04-25T08:49:35Z</time></trkpt><trkpt lat="43.90598151586004" lon="12.598580456362253"><ele>163.0</ele><time>2026-04-25T08:49:36Z</time></trkpt><trkpt lat="43.90594975921986" lon="12.598495282482018"><ele>163.0</ele><time>2026-04-25T08:49:37Z</time></trkpt><trkpt lat="43.905946346297306" lon="12.598370366247188"><ele>163.0</ele><time>2026-04-25T08:49:38Z</time></trkpt><trkpt lat="43.905979551104195" lon="12.598250098851409"><ele>166.2</ele><time>2026-04-25T08:49:39Z</time></trkpt><trkpt lat="43.90602929386443" lon="12.59817884952811"><ele>169.4</ele><time>2026-04-25T08:49:40Z</time></trkpt><trkpt lat="43.90610145653572" lon="12.598154979873037"><ele>172.6</ele><time>2026-04-25T08:49:41Z</time></trkpt><trkpt lat="43.90619892597214" lon="12.598176542278075"><ele>175.79999999999998</ele><time>2026-04-25T08:49:42Z</time></trkpt><trkpt lat="43.90632685993611" lon="12.59818897716611"><ele>179.0</ele><time>2026-04-25T08:49:43Z</time></trkpt><trkpt lat="43.90645652711075" lon="12.598175640720159"><ele>179.0</ele><time>2026-04-25T08:49:44Z</time></trkpt><trkpt lat="43.906569650617094" lon="12.598076346959422"><ele>179.0</ele><time>2026-04-25T08:49:45Z</time></trkpt><trkpt lat="43.90669309532868" lon="12.597985819866091"><ele>179.0</ele><time>2026-04-25T08:49:46Z</time></trkpt><trkpt lat="43.906796945687404" lon="12.597901365681357"><ele>179.0</ele><time>2026-04-25T08:49:47Z</time></trkpt><trkpt lat="43.90686816353512" lon="12.597824377784505"><ele>179.16666666666666</ele><time>2026-04-25T08:49:48Z</time></trkpt><trkpt lat="43.906899085578665" lon="12.597730334503177"><ele>179.33333333333331</ele><time>2026-04-25T08:49:49Z</time></trkpt><trkpt lat="43.906906510937446" lon="12.597623184203222"><ele>179.5</ele><time>2026-04-25T08:49:50Z</time></trkpt><trkpt lat="43.906843423826274" lon="12.597533447712975"><ele>179.66666666666666</ele><time>2026-04-25T08:49:51Z</time></trkpt><trkpt lat="43.90676329258421" lon="12.597481944519126"><ele>179.83333333333334</ele><time>2026-04-25T08:49:52Z</time></trkpt><trkpt lat="43.9066690106406" lon="12.597453928248237"><ele>180.0</ele><time>2026-04-25T08:49:53Z</time></trkpt><trkpt lat="43.906583252122715" lon="12.597408723652379"><ele>181.8</ele><time>2026-04-25T08:49:54Z</time></trkpt><trkpt lat="43.90651622580085" lon="12.597315040038147"><ele>183.6</ele><time>2026-04-25T08:49:55Z</time></trkpt><trkpt lat="43.90645354079249" lon="12.59719361640198"><ele>185.39999999999998</ele><time>2026-04-25T08:49:56Z</time></trkpt><trkpt lat="43.906412578669745" lon="12.597043408447199"><ele>187.2</ele><time>2026-04-25T08:49:57Z</time></trkpt><trkpt lat="43.906351666051194" lon="12.596891954171227"><ele>189.0</ele><time>2026-04-25T08:49:58Z</time></trkpt><trkpt lat="43.90628272316716" lon="12.596740807265213"><ele>192.0</ele><time>2026-04-25T08:49:59Z</time></trkpt><trkpt lat="43.90623282072133" lon="12.596601563425715"><ele>195.0</ele><time>2026-04-25T08:50:00Z</time></trkpt><trkpt lat="43.906181019496366" lon="12.596460174528698"><ele>198.0</ele><time>2026-04-25T08:50:01Z</time></trkpt><trkpt lat="43.90613046117368" lon="12.596313935069102"><ele>201.0</ele><time>2026-04-25T08:50:02Z</time></trkpt><trkpt lat="43.90608711708889" lon="12.596160856665653"><ele>203.4</ele><time>2026-04-25T08:50:03Z</time></trkpt><trkpt lat="43.906061423080764" lon="12.596001910593733"><ele>205.8</ele><time>2026-04-25T08:50:04Z</time></trkpt><trkpt lat="43.90601220200816" lon="12.595869371822339"><ele>208.20000000000002</ele><time>2026-04-25T08:50:05Z</time></trkpt><trkpt lat="43.90596463957201" lon="12.595736844366254"><ele>210.60000000000002</ele><time>2026-04-25T08:50:06Z</time></trkpt><trkpt lat="43.90587987880365" lon="12.595635098581093"><ele>213.0</ele><time>2026-04-25T08:50:07Z</time></trkpt><trkpt lat="43.90578098739817" lon="12.595565881081722"><ele>213.0</ele><time>2026-04-25T08:50:08Z</time></trkpt><trkpt lat="43.905678856030626" lon="12.595529335935241"><ele>213.0</ele><time>2026-04-25T08:50:09Z</time></trkpt><trkpt lat="43.90557430315293" lon="12.595523527623739"><ele>213.0</ele><time>2026-04-25T08:50:10Z</time></trkpt><trkpt lat="43.90546468656026" lon="12.595561593828364"><ele>213.0</ele><time>2026-04-25T08:50:11Z</time></trkpt><trkpt lat="43.90535814695995" lon="12.59563655316363"><ele>213.0</ele><time>2026-04-25T08:50:12Z</time></trkpt><trkpt lat="43.90524940600295" lon="12.595653016373275"><ele>213.0</ele><time>2026-04-25T08:50:13Z</time></trkpt><trkpt lat="43.90514207309089" lon="12.595681440822975"><ele>213.0</ele><time>2026-04-25T08:50:14Z</time></trkpt><trkpt lat="43.90502371460451" lon="12.595666609174984"><ele>213.0</ele><time>2026-04-25T08:50:15Z</time></trkpt><trkpt lat="43.90490197163587" lon="12.595648858031653"><ele>213.0</ele><time>2026-04-25T08:50:16Z</time></trkpt><trkpt lat="43.90477837408973" lon="12.595623447920726"><ele>213.75</ele><time>2026-04-25T08:50:17Z</time></trkpt><trkpt lat="43.90465149594552" lon="12.595594398208139"><ele>214.5</ele><time>2026-04-25T08:50:18Z</time></trkpt><trkpt lat="43.9045208044306" lon="12.595562720765592"><ele>215.25</ele><time>2026-04-25T08:50:19Z</time></trkpt><trkpt lat="43.90439171247323" lon="12.595526279622236"><ele>216.0</ele><time>2026-04-25T08:50:20Z</time></trkpt><trkpt lat="43.904269456191585" lon="12.595485183053453"><ele>216.0</ele><time>2026-04-25T08:50:21Z</time></trkpt><trkpt lat="43.90416411071806" lon="12.595451639892627"><ele>216.0</ele><time>2026-04-25T08:50:22Z</time></trkpt><trkpt lat="43.90407759367108" lon="12.595424079263921"><ele>216.0</ele><time>2026-04-25T08:50:23Z</time></trkpt><trkpt lat="43.90401277182928" lon="12.59539133478396"><ele>216.0</ele><time>2026-04-25T08:50:24Z</time></trkpt><trkpt lat="43.90396491878428" lon="12.595330863076116"><ele>216.0</ele><time>2026-04-25T08:50:25Z</time></trkpt><trkpt lat="43.90392581438106" lon="12.595235741335797"><ele>216.0</ele><time>2026-04-25T08:50:26Z</time></trkpt><trkpt lat="43.903926207849736" lon="12.595115793438858"><ele>219.60000000000002</ele><time>2026-04-25T08:50:27Z</time></trkpt><trkpt lat="43.90390336786011" lon="12.594994606228834"><ele>223.20000000000002</ele><time>2026-04-25T08:50:28Z</time></trkpt><trkpt lat="43.903895310782154" lon="12.59486185004932"><ele>226.79999999999998</ele><time>2026-04-25T08:50:29Z</time></trkpt><trkpt lat="43.90389898546698" lon="12.594710574818182"><ele>230.39999999999998</ele><time>2026-04-25T08:50:30Z</time></trkpt><trkpt lat="43.90387574857281" lon="12.59455187068364"><ele>234.0</ele><time>2026-04-25T08:50:31Z</time></trkpt><trkpt lat="43.903872036225195" lon="12.594386804150522"><ele>236.6</ele><time>2026-04-25T08:50:32Z</time></trkpt><trkpt lat="43.90386913195798" lon="12.594226362476894"><ele>239.2</ele><time>2026-04-25T08:50:33Z</time></trkpt><trkpt lat="43.903865788396935" lon="12.594078407578944"><ele>241.79999999999998</ele><time>2026-04-25T08:50:34Z</time></trkpt><trkpt lat="43.90386607854232" lon="12.593931147213086"><ele>244.39999999999998</ele><time>2026-04-25T08:50:35Z</time></trkpt><trkpt lat="43.90386114254011" lon="12.59378104584245"><ele>247.0</ele><time>2026-04-25T08:50:36Z</time></trkpt><trkpt lat="43.903860944359195" lon="12.593626542565676"><ele>248.6</ele><time>2026-04-25T08:50:37Z</time></trkpt><trkpt lat="43.903863539475665" lon="12.593481544485758"><ele>250.2</ele><time>2026-04-25T08:50:38Z</time></trkpt><trkpt lat="43.90387632772205" lon="12.593338468489712"><ele>251.8</ele><time>2026-04-25T08:50:39Z</time></trkpt><trkpt lat="43.90388639166925" lon="12.593205045404764"><ele>253.4</ele><time>2026-04-25T08:50:40Z</time></trkpt><trkpt lat="43.903916903548875" lon="12.59309770495692"><ele>255.0</ele><time>2026-04-25T08:50:41Z</time></trkpt><trkpt lat="43.903932843416875" lon="12.592983771083814"><ele>255.0</ele><time>2026-04-25T08:50:42Z</time></trkpt><trkpt lat="43.90399702391433" lon="12.592841580587505"><ele>255.0</ele><time>2026-04-25T08:50:43Z</time></trkpt><trkpt lat="43.90406080909962" lon="12.592709357363281"><ele>255.0</ele><time>2026-04-25T08:50:44Z</time></trkpt><trkpt lat="43.90413020333142" lon="12.592578153283071"><ele>255.0</ele><time>2026-04-25T08:50:45Z</time></trkpt><trkpt lat="43.904225468002366" lon="12.592478442825392"><ele>259.5</ele><time>2026-04-25T08:50:46Z</time></trkpt><trkpt lat="43.90431590370501" lon="12.592365802638058"><ele>264.0</ele><time>2026-04-25T08:50:47Z</time></trkpt><trkpt lat="43.904408224483035" lon="12.592259142734479"><ele>268.5</ele><time>2026-04-25T08:50:48Z</time></trkpt><trkpt lat="43.90449087417131" lon="12.592164736963435"><ele>273.0</ele><time>2026-04-25T08:50:49Z</time></trkpt><trkpt lat="43.90457600897423" lon="12.592065927056824"><ele>273.4</ele><time>2026-04-25T08:50:50Z</time></trkpt><trkpt lat="43.90466211983907" lon="12.591964627637912"><ele>273.8</ele><time>2026-04-25T08:50:51Z</time></trkpt><trkpt lat="43.90473434187589" lon="12.591846930503976"><ele>274.2</ele><time>2026-04-25T08:50:52Z</time></trkpt><trkpt lat="43.90480860919851" lon="12.591744984254634"><ele>274.6</ele><time>2026-04-25T08:50:53Z</time></trkpt><trkpt lat="43.904869718318416" lon="12.591638318424927"><ele>275.0</ele><time>2026-04-25T08:50:54Z</time></trkpt><trkpt lat="43.90491265172903" lon="12.59151976128634"><ele>275.0</ele><time>2026-04-25T08:50:55Z</time></trkpt><trkpt lat="43.90493143302106" lon="12.591395808010942"><ele>275.0</ele><time>2026-04-25T08:50:56Z</time></trkpt><trkpt lat="43.90494569833802" lon="12.591280495283558"><ele>275.0</ele><time>2026-04-25T08:50:57Z</time></trkpt><trkpt lat="43.904964295962294" lon="12.591169654831825"><ele>275.0</ele><time>2026-04-25T08:50:58Z</time></trkpt><trkpt lat="43.90494645555393" lon="12.591044356447803"><ele>275.0</ele><time>2026-04-25T08:50:59Z</time></trkpt><trkpt lat="43.90488217167604" lon="12.590939105859547"><ele>275.0</ele><time>2026-04-25T08:51:00Z</time></trkpt><trkpt lat="43.90482637143618" lon="12.590849076788032"><ele>276.33333333333337</ele><time>2026-04-25T08:51:01Z</time></trkpt><trkpt lat="43.90477273667706" lon="12.590761407094272"><ele>277.6666666666667</ele><time>2026-04-25T08:51:02Z</time></trkpt><trkpt lat="43.904732061476025" lon="12.590675627500167"><ele>279.0</ele><time>2026-04-25T08:51:03Z</time></trkpt><trkpt lat="43.90469346320101" lon="12.59058559896685"><ele>280.3333333333333</ele><time>2026-04-25T08:51:04Z</time></trkpt><trkpt lat="43.90467069575434" lon="12.590481634921977"><ele>281.66666666666663</ele><time>2026-04-25T08:51:05Z</time></trkpt><trkpt lat="43.90464589064902" lon="12.590374392155933"><ele>283.0</ele><time>2026-04-25T08:51:06Z</time></trkpt><trkpt lat="43.9046286388092" lon="12.59025907289211"><ele>284.16666666666663</ele><time>2026-04-25T08:51:07Z</time></trkpt><trkpt lat="43.904606887231324" lon="12.590142522820035"><ele>285.3333333333333</ele><time>2026-04-25T08:51:08Z</time></trkpt><trkpt lat="43.90461091402912" lon="12.590022159036607"><ele>286.5</ele><time>2026-04-25T08:51:09Z</time></trkpt><trkpt lat="43.904614741766146" lon="12.589903910180677"><ele>287.6666666666667</ele><time>2026-04-25T08:51:10Z</time></trkpt><trkpt lat="43.9046279516" lon="12.589783450973117"><ele>288.83333333333337</ele><time>2026-04-25T08:51:11Z</time></trkpt><trkpt lat="43.904635200612034" lon="12.58966017977222"><ele>290.0</ele><time>2026-04-25T08:51:12Z</time></trkpt><trkpt lat="43.90466387280634" lon="12.5895406194316"><ele>292.0</ele><time>2026-04-25T08:51:13Z</time></trkpt><trkpt lat="43.90467920782385" lon="12.589408590241401"><ele>294.0</ele><time>2026-04-25T08:51:14Z</time></trkpt><trkpt lat="43.904680180747484" lon="12.589268392140019"><ele>296.0</ele><time>2026-04-25T08:51:15Z</time></trkpt><trkpt lat="43.90466918913719" lon="12.589121500157328"><ele>298.0</ele><time>2026-04-25T08:51:16Z</time></trkpt><trkpt lat="43.90465587608316" lon="12.58897387158405"><ele>300.0</ele><time>2026-04-25T08:51:17Z</time></trkpt><trkpt lat="43.90464241049577" lon="12.588822088235148"><ele>302.0</ele><time>2026-04-25T08:51:18Z</time></trkpt><trkpt lat="43.90462322630902" lon="12.588672195939768"><ele>304.0</ele><time>2026-04-25T08:51:19Z</time></trkpt><trkpt lat="43.90460511003201" lon="12.588525555224502"><ele>306.0</ele><time>2026-04-25T08:51:20Z</time></trkpt><trkpt lat="43.904584479488285" lon="12.5883813397812"><ele>308.0</ele><time>2026-04-25T08:51:21Z</time></trkpt><trkpt lat="43.90456440542713" lon="12.588235138896891"><ele>310.0</ele><time>2026-04-25T08:51:22Z</time></trkpt><trkpt lat="43.90454523782523" lon="12.588091331104641"><ele>310.0</ele><time>2026-04-25T08:51:23Z</time></trkpt><trkpt lat="43.904550001950454" lon="12.587949324600286"><ele>310.0</ele><time>2026-04-25T08:51:24Z</time></trkpt><trkpt lat="43.90454649734736" lon="12.587822116659222"><ele>310.0</ele><time>2026-04-25T08:51:25Z</time></trkpt><trkpt lat="43.90454926646656" lon="12.587734319917285"><ele>310.0</ele><time>2026-04-25T08:51:26Z</time></trkpt><trkpt lat="43.90458633140934" lon="12.58761242012789"><ele>310.0</ele><time>2026-04-25T08:51:28Z</time></trkpt><trkpt lat="43.9047078869803" lon="12.587538719653125"><ele>310.6</ele><time>2026-04-25T08:51:30Z</time></trkpt><trkpt lat="43.904787787727074" lon="12.587511219749391"><ele>311.2</ele><time>2026-04-25T08:51:31Z</time></trkpt><trkpt lat="43.904880628746916" lon="12.58750336498021"><ele>311.8</ele><time>2026-04-25T08:51:32Z</time></trkpt><trkpt lat="43.904979780169704" lon="12.58743254947001"><ele>312.4</ele><time>2026-04-25T08:51:33Z</time></trkpt><trkpt lat="43.905082091698276" lon="12.587371423976528"><ele>313.0</ele><time>2026-04-25T08:51:34Z</time></trkpt><trkpt lat="43.90518440265877" lon="12.587323254335995"><ele>313.5</ele><time>2026-04-25T08:51:35Z</time></trkpt><trkpt lat="43.90527495385132" lon="12.587274821841932"><ele>314.0</ele><time>2026-04-25T08:51:36Z</time></trkpt><trkpt lat="43.905344463027134" lon="12.587224680268257"><ele>314.5</ele><time>2026-04-25T08:51:37Z</time></trkpt><trkpt lat="43.90540419013046" lon="12.587171026462093"><ele>315.0</ele><time>2026-04-25T08:51:38Z</time></trkpt><trkpt lat="43.90545757405249" lon="12.58712278183142"><ele>315.5</ele><time>2026-04-25T08:51:39Z</time></trkpt><trkpt lat="43.90544797672191" lon="12.586975966694443"><ele>316.0</ele><time>2026-04-25T08:51:40Z</time></trkpt><trkpt lat="43.90544555433745" lon="12.586871031697742"><ele>314.66666666666663</ele><time>2026-04-25T08:51:41Z</time></trkpt><trkpt lat="43.90543272909798" lon="12.58676596338666"><ele>313.3333333333333</ele><time>2026-04-25T08:51:42Z</time></trkpt><trkpt lat="43.90541484069236" lon="12.586656525800008"><ele>312.0</ele><time>2026-04-25T08:51:43Z</time></trkpt><trkpt lat="43.90540923030469" lon="12.586541161102147"><ele>310.6666666666667</ele><time>2026-04-25T08:51:44Z</time></trkpt><trkpt lat="43.905400919348175" lon="12.58642524609664"><ele>309.33333333333337</ele><time>2026-04-25T08:51:45Z</time></trkpt><trkpt lat="43.90539315538628" lon="12.586311153715616"><ele>308.0</ele><time>2026-04-25T08:51:46Z</time></trkpt><trkpt lat="43.90538873123012" lon="12.586192988592364"><ele>307.5</ele><time>2026-04-25T08:51:47Z</time></trkpt><trkpt lat="43.90538976331592" lon="12.58607504907347"><ele>307.0</ele><time>2026-04-25T08:51:48Z</time></trkpt><trkpt lat="43.90538664792369" lon="12.585957577137666"><ele>306.5</ele><time>2026-04-25T08:51:49Z</time></trkpt><trkpt lat="43.905379943611756" lon="12.585839243425047"><ele>306.0</ele><time>2026-04-25T08:51:50Z</time></trkpt><trkpt lat="43.90538272084767" lon="12.585712016021695"><ele>305.5</ele><time>2026-04-25T08:51:51Z</time></trkpt><trkpt lat="43.905382349970225" lon="12.585580417371306"><ele>305.0</ele><time>2026-04-25T08:51:52Z</time></trkpt><trkpt lat="43.90537683843183" lon="12.585448828584493"><ele>305.0</ele><time>2026-04-25T08:51:53Z</time></trkpt><trkpt lat="43.90536803284088" lon="12.585346108426611"><ele>305.0</ele><time>2026-04-25T08:51:54Z</time></trkpt><trkpt lat="43.90530755556583" lon="12.585227427785018"><ele>305.0</ele><time>2026-04-25T08:51:56Z</time></trkpt><trkpt lat="43.905188180009546" lon="12.585265819561448"><ele>305.0</ele><time>2026-04-25T08:51:58Z</time></trkpt><trkpt lat="43.90512925348983" lon="12.58538190996206"><ele>305.0</ele><time>2026-04-25T08:51:59Z</time></trkpt><trkpt lat="43.905064934653296" lon="12.585468492500388"><ele>309.5</ele><time>2026-04-25T08:52:00Z</time></trkpt><trkpt lat="43.90497651942114" lon="12.585533710926166"><ele>314.0</ele><time>2026-04-25T08:52:01Z</time></trkpt><trkpt lat="43.904865000989204" lon="12.585560350504258"><ele>318.5</ele><time>2026-04-25T08:52:02Z</time></trkpt><trkpt lat="43.90473211330169" lon="12.585604743321129"><ele>323.0</ele><time>2026-04-25T08:52:03Z</time></trkpt><trkpt lat="43.904588528184334" lon="12.58562378927683"><ele>323.0</ele><time>2026-04-25T08:52:04Z</time></trkpt><trkpt lat="43.904436662038314" lon="12.585678232920555"><ele>323.0</ele><time>2026-04-25T08:52:05Z</time></trkpt><trkpt lat="43.90430445532031" lon="12.585752367123947"><ele>323.0</ele><time>2026-04-25T08:52:06Z</time></trkpt><trkpt lat="43.904176348983576" lon="12.585825866595043"><ele>323.0</ele><time>2026-04-25T08:52:07Z</time></trkpt><trkpt lat="43.904053117702276" lon="12.585865441935924"><ele>327.5</ele><time>2026-04-25T08:52:08Z</time></trkpt><trkpt lat="43.903923617222276" lon="12.58587989228925"><ele>332.0</ele><time>2026-04-25T08:52:09Z</time></trkpt><trkpt lat="43.90379180059862" lon="12.58586793261276"><ele>336.5</ele><time>2026-04-25T08:52:10Z</time></trkpt><trkpt lat="43.90366663078227" lon="12.585832628247436"><ele>341.0</ele><time>2026-04-25T08:52:11Z</time></trkpt><trkpt lat="43.90353858927044" lon="12.585802064055692"><ele>341.0</ele><time>2026-04-25T08:52:12Z</time></trkpt><trkpt lat="43.90341453145684" lon="12.58578431713695"><ele>341.0</ele><time>2026-04-25T08:52:13Z</time></trkpt><trkpt lat="43.90329636299351" lon="12.58579743628453"><ele>341.0</ele><time>2026-04-25T08:52:14Z</time></trkpt><trkpt lat="43.90317956469257" lon="12.585828785244503"><ele>341.0</ele><time>2026-04-25T08:52:15Z</time></trkpt><trkpt lat="43.9030765216175" lon="12.585836451634341"><ele>343.0</ele><time>2026-04-25T08:52:16Z</time></trkpt><trkpt lat="43.902991495920006" lon="12.585815054393137"><ele>345.0</ele><time>2026-04-25T08:52:17Z</time></trkpt><trkpt lat="43.90290936230335" lon="12.585768765341365"><ele>347.0</ele><time>2026-04-25T08:52:18Z</time></trkpt><trkpt lat="43.902849533732926" lon="12.585684221896233"><ele>349.0</ele><time>2026-04-25T08:52:19Z</time></trkpt><trkpt lat="43.902805285915804" lon="12.585565330504386"><ele>351.0</ele><time>2026-04-25T08:52:20Z</time></trkpt><trkpt lat="43.90278891646311" lon="12.585449446884043"><ele>353.0</ele><time>2026-04-25T08:52:21Z</time></trkpt><trkpt lat="43.90278469588797" lon="12.585352410077435"><ele>356.5</ele><time>2026-04-25T08:52:22Z</time></trkpt><trkpt lat="43.90279939346208" lon="12.585246835645785"><ele>360.0</ele><time>2026-04-25T08:52:23Z</time></trkpt><trkpt lat="43.90283249023841" lon="12.585133969613198"><ele>363.5</ele><time>2026-04-25T08:52:24Z</time></trkpt><trkpt lat="43.90289921961674" lon="12.58505091860889"><ele>367.0</ele><time>2026-04-25T08:52:25Z</time></trkpt><trkpt lat="43.902968754644036" lon="12.584987763991831"><ele>370.5</ele><time>2026-04-25T08:52:26Z</time></trkpt><trkpt lat="43.90304284000655" lon="12.584928900657243"><ele>374.0</ele><time>2026-04-25T08:52:27Z</time></trkpt><trkpt lat="43.90311643687862" lon="12.58486622446877"><ele>374.0</ele><time>2026-04-25T08:52:28Z</time></trkpt><trkpt lat="43.903189392055666" lon="12.58481262628257"><ele>374.0</ele><time>2026-04-25T08:52:29Z</time></trkpt><trkpt lat="43.903247201270354" lon="12.58477201186966"><ele>374.0</ele><time>2026-04-25T08:52:30Z</time></trkpt><trkpt lat="43.90333074004841" lon="12.584760402428815"><ele>374.0</ele><time>2026-04-25T08:52:32Z</time></trkpt><trkpt lat="43.90337892391522" lon="12.584886182992781"><ele>374.0</ele><time>2026-04-25T08:52:34Z</time></trkpt><trkpt lat="43.903411688382" lon="12.58498247155779"><ele>374.0</ele><time>2026-04-25T08:52:35Z</time></trkpt><trkpt lat="43.90343264930829" lon="12.585073329412413"><ele>373.2</ele><time>2026-04-25T08:52:36Z</time></trkpt><trkpt lat="43.903508762129476" lon="12.585095046230302"><ele>372.4</ele><time>2026-04-25T08:52:37Z</time></trkpt><trkpt lat="43.90360418110352" lon="12.585077715853739"><ele>371.6</ele><time>2026-04-25T08:52:38Z</time></trkpt><trkpt lat="43.903695577410176" lon="12.585047041749206"><ele>370.8</ele><time>2026-04-25T08:52:39Z</time></trkpt><trkpt lat="43.90377816589067" lon="12.584998517496214"><ele>370.0</ele><time>2026-04-25T08:52:40Z</time></trkpt><trkpt lat="43.90385825984404" lon="12.584920380627555"><ele>370.0</ele><time>2026-04-25T08:52:41Z</time></trkpt><trkpt lat="43.903923900429156" lon="12.584819527303178"><ele>370.0</ele><time>2026-04-25T08:52:42Z</time></trkpt><trkpt lat="43.90398191856953" lon="12.584708379642416"><ele>370.0</ele><time>2026-04-25T08:52:43Z</time></trkpt><trkpt lat="43.90403017636364" lon="12.584589428261895"><ele>370.0</ele><time>2026-04-25T08:52:44Z</time></trkpt><trkpt lat="43.90408298238806" lon="12.584485460157287"><ele>370.0</ele><time>2026-04-25T08:52:45Z</time></trkpt><trkpt lat="43.90413367243493" lon="12.584393438089391"><ele>366.6</ele><time>2026-04-25T08:52:46Z</time></trkpt><trkpt lat="43.90418546252214" lon="12.584285901420271"><ele>363.2</ele><time>2026-04-25T08:52:47Z</time></trkpt><trkpt lat="43.904242302239446" lon="12.58416562266437"><ele>359.79999999999995</ele><time>2026-04-25T08:52:48Z</time></trkpt><trkpt lat="43.904303602273245" lon="12.584078399667607"><ele>356.4</ele><time>2026-04-25T08:52:49Z</time></trkpt><trkpt lat="43.904358561566696" lon="12.583983722279093"><ele>353.0</ele><time>2026-04-25T08:52:50Z</time></trkpt><trkpt lat="43.90440701070598" lon="12.583884162817835"><ele>353.0</ele><time>2026-04-25T08:52:51Z</time></trkpt><trkpt lat="43.904445800197855" lon="12.583783386835467"><ele>353.0</ele><time>2026-04-25T08:52:52Z</time></trkpt><trkpt lat="43.904489193709985" lon="12.58368054503612"><ele>353.0</ele><time>2026-04-25T08:52:53Z</time></trkpt><trkpt lat="43.90452065632338" lon="12.58357000200287"><ele>353.0</ele><time>2026-04-25T08:52:54Z</time></trkpt><trkpt lat="43.904552237829584" lon="12.583464157534912"><ele>353.0</ele><time>2026-04-25T08:52:55Z</time></trkpt><trkpt lat="43.90458520741147" lon="12.58335784648389"><ele>353.0</ele><time>2026-04-25T08:52:56Z</time></trkpt><trkpt lat="43.904615395386074" lon="12.583249562310877"><ele>355.4285714285714</ele><time>2026-04-25T08:52:57Z</time></trkpt><trkpt lat="43.90462701426672" lon="12.58313733769289"><ele>357.8571428571429</ele><time>2026-04-25T08:52:58Z</time></trkpt><trkpt lat="43.904646493301854" lon="12.583033167942208"><ele>360.2857142857143</ele><time>2026-04-25T08:52:59Z</time></trkpt><trkpt lat="43.904660957699" lon="12.582933822580621"><ele>362.71428571428567</ele><time>2026-04-25T08:53:00Z</time></trkpt><trkpt lat="43.904654051764815" lon="12.582835312410326"><ele>365.1428571428571</ele><time>2026-04-25T08:53:01Z</time></trkpt><trkpt lat="43.90462845612607" lon="12.582748634502543"><ele>367.57142857142856</ele><time>2026-04-25T08:53:02Z</time></trkpt><trkpt lat="43.9045866482107" lon="12.582670375679843"><ele>370.0</ele><time>2026-04-25T08:53:03Z</time></trkpt><trkpt lat="43.90453953380887" lon="12.582595444276446"><ele>371.5</ele><time>2026-04-25T08:53:04Z</time></trkpt><trkpt lat="43.904489478233415" lon="12.582523345078593"><ele>373.0</ele><time>2026-04-25T08:53:05Z</time></trkpt><trkpt lat="43.90441564222522" lon="12.582403393032049"><ele>374.5</ele><time>2026-04-25T08:53:07Z</time></trkpt><trkpt lat="43.90437703503029" lon="12.582330276633215"><ele>376.0</ele><time>2026-04-25T08:53:09Z</time></trkpt><trkpt lat="43.90442378471643" lon="12.582227593633517"><ele>377.5</ele><time>2026-04-25T08:53:11Z</time></trkpt><trkpt lat="43.904480284598804" lon="12.582177835699705"><ele>379.0</ele><time>2026-04-25T08:53:12Z</time></trkpt><trkpt lat="43.90454010067361" lon="12.582117331756852"><ele>379.0</ele><time>2026-04-25T08:53:13Z</time></trkpt><trkpt lat="43.90459840310128" lon="12.582065873176314"><ele>379.0</ele><time>2026-04-25T08:53:14Z</time></trkpt><trkpt lat="43.90465997653835" lon="12.5820106173162"><ele>379.0</ele><time>2026-04-25T08:53:15Z</time></trkpt><trkpt lat="43.90471812213992" lon="12.581939698759788"><ele>379.0</ele><time>2026-04-25T08:53:16Z</time></trkpt><trkpt lat="43.90474945164072" lon="12.58183804386621"><ele>379.0</ele><time>2026-04-25T08:53:17Z</time></trkpt><trkpt lat="43.904793093061066" lon="12.581751968829092"><ele>379.0</ele><time>2026-04-25T08:53:18Z</time></trkpt><trkpt lat="43.90482106877618" lon="12.581654800659992"><ele>380.0</ele><time>2026-04-25T08:53:19Z</time></trkpt><trkpt lat="43.904849958993225" lon="12.581553884860938"><ele>381.0</ele><time>2026-04-25T08:53:20Z</time></trkpt><trkpt lat="43.90488158448945" lon="12.581434584895172"><ele>382.0</ele><time>2026-04-25T08:53:21Z</time></trkpt><trkpt lat="43.90491067958885" lon="12.581315817672925"><ele>383.0</ele><time>2026-04-25T08:53:22Z</time></trkpt><trkpt lat="43.904941081315215" lon="12.581186072929498"><ele>384.0</ele><time>2026-04-25T08:53:23Z</time></trkpt><trkpt lat="43.90496677492549" lon="12.581051303825088"><ele>384.0</ele><time>2026-04-25T08:53:24Z</time></trkpt><trkpt lat="43.90496632990019" lon="12.580907852721625"><ele>384.0</ele><time>2026-04-25T08:53:25Z</time></trkpt><trkpt lat="43.904976363075114" lon="12.580772940698756"><ele>384.0</ele><time>2026-04-25T08:53:26Z</time></trkpt><trkpt lat="43.904973819963" lon="12.580629010626623"><ele>384.0</ele><time>2026-04-25T08:53:27Z</time></trkpt><trkpt lat="43.90495739242662" lon="12.580503966372587"><ele>384.0</ele><time>2026-04-25T08:53:28Z</time></trkpt><trkpt lat="43.904917560256735" lon="12.580399019203659"><ele>383.5</ele><time>2026-04-25T08:53:29Z</time></trkpt><trkpt lat="43.9048649274633" lon="12.580319898853396"><ele>383.0</ele><time>2026-04-25T08:53:30Z</time></trkpt><trkpt lat="43.90480130679313" lon="12.580256896497373"><ele>382.5</ele><time>2026-04-25T08:53:31Z</time></trkpt><trkpt lat="43.90473306717401" lon="12.580177073288501"><ele>382.0</ele><time>2026-04-25T08:53:32Z</time></trkpt><trkpt lat="43.90466734712882" lon="12.58009054188325"><ele>381.5</ele><time>2026-04-25T08:53:33Z</time></trkpt><trkpt lat="43.90459545744049" lon="12.580009863003328"><ele>381.0</ele><time>2026-04-25T08:53:34Z</time></trkpt><trkpt lat="43.904523226185184" lon="12.579926573352292"><ele>381.0</ele><time>2026-04-25T08:53:35Z</time></trkpt><trkpt lat="43.90444994806532" lon="12.57983675580224"><ele>381.0</ele><time>2026-04-25T08:53:36Z</time></trkpt><trkpt lat="43.90437730076028" lon="12.579746074894876"><ele>381.0</ele><time>2026-04-25T08:53:37Z</time></trkpt><trkpt lat="43.90430166829705" lon="12.57965630634454"><ele>381.0</ele><time>2026-04-25T08:53:38Z</time></trkpt><trkpt lat="43.90422347614285" lon="12.579568770693676"><ele>381.0</ele><time>2026-04-25T08:53:39Z</time></trkpt><trkpt lat="43.90414483345973" lon="12.579483044206132"><ele>383.6</ele><time>2026-04-25T08:53:40Z</time></trkpt><trkpt lat="43.90406827649206" lon="12.579402216187386"><ele>386.20000000000005</ele><time>2026-04-25T08:53:41Z</time></trkpt><trkpt lat="43.90401955049476" lon="12.579306989705515"><ele>388.79999999999995</ele><time>2026-04-25T08:53:42Z</time></trkpt><trkpt lat="43.9039646525159" lon="12.579236665772068"><ele>391.4</ele><time>2026-04-25T08:53:43Z</time></trkpt><trkpt lat="43.903890500405474" lon="12.579094130835196"><ele>394.0</ele><time>2026-04-25T08:53:45Z</time></trkpt><trkpt lat="43.903843843469225" lon="12.579015826006259"><ele>394.0</ele><time>2026-04-25T08:53:46Z</time></trkpt><trkpt lat="43.903797841669316" lon="12.57893893868293"><ele>394.0</ele><time>2026-04-25T08:53:47Z</time></trkpt><trkpt lat="43.90376272966138" lon="12.578862114440133"><ele>394.0</ele><time>2026-04-25T08:53:48Z</time></trkpt><trkpt lat="43.9037326924238" lon="12.578772610086709"><ele>394.0</ele><time>2026-04-25T08:53:49Z</time></trkpt><trkpt lat="43.90369434516994" lon="12.578683559101318"><ele>394.0</ele><time>2026-04-25T08:53:50Z</time></trkpt><trkpt lat="43.903656757937604" lon="12.578588513130788"><ele>394.0</ele><time>2026-04-25T08:53:51Z</time></trkpt><trkpt lat="43.90362370880488" lon="12.578493642417111"><ele>394.0</ele><time>2026-04-25T08:53:52Z</time></trkpt><trkpt lat="43.903595060840765" lon="12.578401672127598"><ele>396.4</ele><time>2026-04-25T08:53:53Z</time></trkpt><trkpt lat="43.90356409858546" lon="12.578312150029666"><ele>398.79999999999995</ele><time>2026-04-25T08:53:54Z</time></trkpt><trkpt lat="43.90356478137822" lon="12.578157412301463"><ele>401.20000000000005</ele><time>2026-04-25T08:53:56Z</time></trkpt><trkpt lat="43.90353650550261" lon="12.578028195158282"><ele>403.6</ele><time>2026-04-25T08:53:58Z</time></trkpt><trkpt lat="43.903543168671334" lon="12.577858485564585"><ele>406.0</ele><time>2026-04-25T08:54:00Z</time></trkpt><trkpt lat="43.90359048486748" lon="12.577739922493718"><ele>406.0</ele><time>2026-04-25T08:54:02Z</time></trkpt><trkpt lat="43.9036822392392" lon="12.577727917843694"><ele>406.0</ele><time>2026-04-25T08:54:04Z</time></trkpt><trkpt lat="43.90376498820245" lon="12.577818068895388"><ele>406.0</ele><time>2026-04-25T08:54:06Z</time></trkpt><trkpt lat="43.90379329604077" lon="12.577929097736243"><ele>406.0</ele><time>2026-04-25T08:54:08Z</time></trkpt><trkpt lat="43.903820194302284" lon="12.57807677526258"><ele>406.0</ele><time>2026-04-25T08:54:10Z</time></trkpt><trkpt lat="43.90386070939779" lon="12.578234505631869"><ele>406.0</ele><time>2026-04-25T08:54:12Z</time></trkpt><trkpt lat="43.90390475630106" lon="12.578369636195342"><ele>406.0</ele><time>2026-04-25T08:54:14Z</time></trkpt><trkpt lat="43.90395041347856" lon="12.578488270271132"><ele>406.0</ele><time>2026-04-25T08:54:16Z</time></trkpt><trkpt lat="43.903999882181004" lon="12.578595815509306"><ele>406.0</ele><time>2026-04-25T08:54:18Z</time></trkpt><trkpt lat="43.90405454537324" lon="12.578701596229958"><ele>406.0</ele><time>2026-04-25T08:54:20Z</time></trkpt><trkpt lat="43.9041250537801" lon="12.578805827819748"><ele>404.00000000000006</ele><time>2026-04-25T08:54:22Z</time></trkpt><trkpt lat="43.9041896386811" lon="12.578937529282708"><ele>402.0</ele><time>2026-04-25T08:54:24Z</time></trkpt><trkpt lat="43.904271235384435" lon="12.579059955584508"><ele>400.0</ele><time>2026-04-25T08:54:26Z</time></trkpt><trkpt lat="43.90431418908744" lon="12.579124402633624"><ele>398.0</ele><time>2026-04-25T08:54:27Z</time></trkpt><trkpt lat="43.90435780213952" lon="12.57918781397382"><ele>396.00000000000006</ele><time>2026-04-25T08:54:28Z</time></trkpt><trkpt lat="43.90440198190971" lon="12.57925197306108"><ele>394.0</ele><time>2026-04-25T08:54:29Z</time></trkpt><trkpt lat="43.90449404407395" lon="12.57936435754893"><ele>392.4</ele><time>2026-04-25T08:54:31Z</time></trkpt><trkpt lat="43.904538254107585" lon="12.579426965606231"><ele>390.79999999999995</ele><time>2026-04-25T08:54:32Z</time></trkpt><trkpt lat="43.904616803934616" lon="12.579550026023709"><ele>389.20000000000005</ele><time>2026-04-25T08:54:34Z</time></trkpt><trkpt lat="43.90469186291213" lon="12.579666422027389"><ele>387.6</ele><time>2026-04-25T08:54:36Z</time></trkpt><trkpt lat="43.90475952438646" lon="12.57977402249623"><ele>386.0</ele><time>2026-04-25T08:54:38Z</time></trkpt><trkpt lat="43.90479848082884" lon="12.579890727849124"><ele>385.16666666666663</ele><time>2026-04-25T08:54:40Z</time></trkpt><trkpt lat="43.904825774928284" lon="12.580010467502376"><ele>384.3333333333333</ele><time>2026-04-25T08:54:42Z</time></trkpt><trkpt lat="43.90484395331054" lon="12.580120802470775"><ele>383.5</ele><time>2026-04-25T08:54:44Z</time></trkpt><trkpt lat="43.904850194871294" lon="12.580221787103932"><ele>382.66666666666663</ele><time>2026-04-25T08:54:46Z</time></trkpt><trkpt lat="43.90475499565924" lon="12.580218360741636"><ele>381.8333333333333</ele><time>2026-04-25T08:54:50Z</time></trkpt><trkpt lat="43.90471501682672" lon="12.580142694106831"><ele>381.0</ele><time>2026-04-25T08:54:51Z</time></trkpt><trkpt lat="43.90465399253815" lon="12.580082004532054"><ele>381.0</ele><time>2026-04-25T08:54:52Z</time></trkpt><trkpt lat="43.90458922377239" lon="12.580004110118049"><ele>381.0</ele><time>2026-04-25T08:54:53Z</time></trkpt><trkpt lat="43.904524694021745" lon="12.57992928575444"><ele>381.0</ele><time>2026-04-25T08:54:54Z</time></trkpt><trkpt lat="43.90446856183196" lon="12.579833113616859"><ele>381.0</ele><time>2026-04-25T08:54:55Z</time></trkpt><trkpt lat="43.904385928936165" lon="12.579761427052036"><ele>381.0</ele><time>2026-04-25T08:54:56Z</time></trkpt><trkpt lat="43.904311224474725" lon="12.57966905336037"><ele>381.0</ele><time>2026-04-25T08:54:57Z</time></trkpt><trkpt lat="43.90423257732257" lon="12.57957478559544"><ele>381.0</ele><time>2026-04-25T08:54:58Z</time></trkpt><trkpt lat="43.90414967259597" lon="12.579478376645389"><ele>381.0</ele><time>2026-04-25T08:54:59Z</time></trkpt><trkpt lat="43.90406508878115" lon="12.579384759826546"><ele>381.0</ele><time>2026-04-25T08:55:00Z</time></trkpt><trkpt lat="43.90397447522844" lon="12.579290339405611"><ele>381.0</ele><time>2026-04-25T08:55:01Z</time></trkpt><trkpt lat="43.903894232197615" lon="12.57919242827589"><ele>383.6</ele><time>2026-04-25T08:55:02Z</time></trkpt><trkpt lat="43.9038232888425" lon="12.579103088534197"><ele>386.20000000000005</ele><time>2026-04-25T08:55:03Z</time></trkpt><trkpt lat="43.90375455282271" lon="12.579003506892278"><ele>388.79999999999995</ele><time>2026-04-25T08:55:04Z</time></trkpt><trkpt lat="43.90367995031932" lon="12.57890168717159"><ele>391.4</ele><time>2026-04-25T08:55:05Z</time></trkpt><trkpt lat="43.90361058490327" lon="12.578779113556363"><ele>394.0</ele><time>2026-04-25T08:55:06Z</time></trkpt><trkpt lat="43.90354071994162" lon="12.57864741778285"><ele>393.5</ele><time>2026-04-25T08:55:07Z</time></trkpt><trkpt lat="43.90346201525848" lon="12.578514434671488"><ele>393.0</ele><time>2026-04-25T08:55:08Z</time></trkpt><trkpt lat="43.903382169360505" lon="12.578402615009908"><ele>392.5</ele><time>2026-04-25T08:55:09Z</time></trkpt><trkpt lat="43.90330212441819" lon="12.578300782960989"><ele>392.0</ele><time>2026-04-25T08:55:10Z</time></trkpt><trkpt lat="43.90322791853417" lon="12.57818665532102"><ele>392.0</ele><time>2026-04-25T08:55:11Z</time></trkpt><trkpt lat="43.903175427028216" lon="12.578063907779262"><ele>392.0</ele><time>2026-04-25T08:55:12Z</time></trkpt><trkpt lat="43.90314197089936" lon="12.577928284563923"><ele>392.0</ele><time>2026-04-25T08:55:13Z</time></trkpt><trkpt lat="43.90311652430684" lon="12.57778055270582"><ele>392.0</ele><time>2026-04-25T08:55:14Z</time></trkpt><trkpt lat="43.90307662562362" lon="12.577634081456813"><ele>392.0</ele><time>2026-04-25T08:55:15Z</time></trkpt><trkpt lat="43.90303392017111" lon="12.577483864105188"><ele>394.25</ele><time>2026-04-25T08:55:16Z</time></trkpt><trkpt lat="43.90298518645375" lon="12.577327476432185"><ele>396.5</ele><time>2026-04-25T08:55:17Z</time></trkpt><trkpt lat="43.90293160441678" lon="12.577165445595465"><ele>398.75</ele><time>2026-04-25T08:55:18Z</time></trkpt><trkpt lat="43.90286475187054" lon="12.577008522083457"><ele>401.0</ele><time>2026-04-25T08:55:19Z</time></trkpt><trkpt lat="43.902793026144295" lon="12.57688464699738"><ele>401.20000000000005</ele><time>2026-04-25T08:55:20Z</time></trkpt><trkpt lat="43.90270205648585" lon="12.576800730179285"><ele>401.40000000000003</ele><time>2026-04-25T08:55:21Z</time></trkpt><trkpt lat="43.90260563665414" lon="12.576751829437232"><ele>401.6</ele><time>2026-04-25T08:55:22Z</time></trkpt><trkpt lat="43.902507109298845" lon="12.576715803208701"><ele>401.8</ele><time>2026-04-25T08:55:23Z</time></trkpt><trkpt lat="43.90239723139197" lon="12.57671589356489"><ele>402.0</ele><time>2026-04-25T08:55:24Z</time></trkpt><trkpt lat="43.90228227524838" lon="12.576752298936158"><ele>399.25</ele><time>2026-04-25T08:55:25Z</time></trkpt><trkpt lat="43.90215707018269" lon="12.576800256227386"><ele>396.5</ele><time>2026-04-25T08:55:26Z</time></trkpt><trkpt lat="43.902033652067345" lon="12.576882568521881"><ele>393.75</ele><time>2026-04-25T08:55:27Z</time></trkpt><trkpt lat="43.90190293376786" lon="12.576971564144579"><ele>391.0</ele><time>2026-04-25T08:55:28Z</time></trkpt><trkpt lat="43.90176356222775" lon="12.577067005644386"><ele>384.33333333333337</ele><time>2026-04-25T08:55:29Z</time></trkpt><trkpt lat="43.90161325131487" lon="12.577145754573321"><ele>377.6666666666667</ele><time>2026-04-25T08:55:30Z</time></trkpt><trkpt lat="43.901472991201764" lon="12.577212385145788"><ele>371.0</ele><time>2026-04-25T08:55:31Z</time></trkpt><trkpt lat="43.90133694220513" lon="12.57727490382868"><ele>371.0</ele><time>2026-04-25T08:55:32Z</time></trkpt><trkpt lat="43.90121386564364" lon="12.57733605504334"><ele>371.0</ele><time>2026-04-25T08:55:33Z</time></trkpt><trkpt lat="43.90111642620138" lon="12.577396683137076"><ele>371.0</ele><time>2026-04-25T08:55:34Z</time></trkpt><trkpt lat="43.90102520741054" lon="12.577451659615104"><ele>371.0</ele><time>2026-04-25T08:55:35Z</time></trkpt><trkpt lat="43.90093678043559" lon="12.577491488205546"><ele>371.0</ele><time>2026-04-25T08:55:36Z</time></trkpt><trkpt lat="43.9008501429149" lon="12.577512519546287"><ele>371.1666666666667</ele><time>2026-04-25T08:55:37Z</time></trkpt><trkpt lat="43.900765756270886" lon="12.577491011304303"><ele>371.33333333333337</ele><time>2026-04-25T08:55:38Z</time></trkpt><trkpt lat="43.90070461189571" lon="12.577427667484162"><ele>371.5</ele><time>2026-04-25T08:55:39Z</time></trkpt><trkpt lat="43.90067243980599" lon="12.577317926661554"><ele>371.6666666666667</ele><time>2026-04-25T08:55:40Z</time></trkpt><trkpt lat="43.90066303386554" lon="12.577197810986961"><ele>371.8333333333333</ele><time>2026-04-25T08:55:41Z</time></trkpt><trkpt lat="43.90067544227601" lon="12.57706327747645"><ele>372.0</ele><time>2026-04-25T08:55:42Z</time></trkpt><trkpt lat="43.900705504644954" lon="12.576918312738234"><ele>372.0</ele><time>2026-04-25T08:55:43Z</time></trkpt><trkpt lat="43.9007705359931" lon="12.576786819083054"><ele>372.0</ele><time>2026-04-25T08:55:44Z</time></trkpt><trkpt lat="43.90084099832123" lon="12.576663052472039"><ele>372.0</ele><time>2026-04-25T08:55:45Z</time></trkpt><trkpt lat="43.90092345978353" lon="12.57653876671972"><ele>372.0</ele><time>2026-04-25T08:55:46Z</time></trkpt><trkpt lat="43.90101290386485" lon="12.576411430181107"><ele>374.0</ele><time>2026-04-25T08:55:47Z</time></trkpt><trkpt lat="43.901102122307776" lon="12.576310099507166"><ele>376.0</ele><time>2026-04-25T08:55:48Z</time></trkpt><trkpt lat="43.90119516350666" lon="12.576229369856902"><ele>378.0</ele><time>2026-04-25T08:55:49Z</time></trkpt><trkpt lat="43.901261977621125" lon="12.57612413573249"><ele>380.0</ele><time>2026-04-25T08:55:50Z</time></trkpt><trkpt lat="43.90132193880304" lon="12.576003663684013"><ele>382.0</ele><time>2026-04-25T08:55:51Z</time></trkpt><trkpt lat="43.90135399712443" lon="12.575856572881099"><ele>382.0</ele><time>2026-04-25T08:55:52Z</time></trkpt><trkpt lat="43.90138276178939" lon="12.575702829222337"><ele>382.0</ele><time>2026-04-25T08:55:53Z</time></trkpt><trkpt lat="43.90142906404818" lon="12.575546383054167"><ele>382.0</ele><time>2026-04-25T08:55:54Z</time></trkpt><trkpt lat="43.901497691916425" lon="12.575391421037919"><ele>382.0</ele><time>2026-04-25T08:55:55Z</time></trkpt><trkpt lat="43.90155805879572" lon="12.575239670830449"><ele>381.25</ele><time>2026-04-25T08:55:56Z</time></trkpt><trkpt lat="43.90160936454985" lon="12.575089516436716"><ele>380.5</ele><time>2026-04-25T08:55:57Z</time></trkpt><trkpt lat="43.90164451197446" lon="12.574936042277454"><ele>379.75</ele><time>2026-04-25T08:55:58Z</time></trkpt><trkpt lat="43.90163961669917" lon="12.574772136221346"><ele>379.0</ele><time>2026-04-25T08:55:59Z</time></trkpt><trkpt lat="43.90159771229275" lon="12.574610706442948"><ele>381.25</ele><time>2026-04-25T08:56:00Z</time></trkpt><trkpt lat="43.90152902422262" lon="12.574465367618972"><ele>383.5</ele><time>2026-04-25T08:56:01Z</time></trkpt><trkpt lat="43.90143466186768" lon="12.574334106939835"><ele>385.75</ele><time>2026-04-25T08:56:02Z</time></trkpt><trkpt lat="43.9013269957491" lon="12.574217271612097"><ele>388.0</ele><time>2026-04-25T08:56:03Z</time></trkpt><trkpt lat="43.90122144398811" lon="12.574096643209693"><ele>388.0</ele><time>2026-04-25T08:56:04Z</time></trkpt><trkpt lat="43.90111762568616" lon="12.573963669151262"><ele>388.0</ele><time>2026-04-25T08:56:05Z</time></trkpt><trkpt lat="43.901020649185405" lon="12.57383421188736"><ele>388.0</ele><time>2026-04-25T08:56:06Z</time></trkpt><trkpt lat="43.9009292468472" lon="12.573721602047202"><ele>388.0</ele><time>2026-04-25T08:56:07Z</time></trkpt><trkpt lat="43.900840840763905" lon="12.573612066199741"><ele>384.5</ele><time>2026-04-25T08:56:08Z</time></trkpt><trkpt lat="43.900753630909385" lon="12.573490963977596"><ele>381.0</ele><time>2026-04-25T08:56:09Z</time></trkpt><trkpt lat="43.90066952827188" lon="12.573356046480631"><ele>377.5</ele><time>2026-04-25T08:56:10Z</time></trkpt><trkpt lat="43.900594756329824" lon="12.573208053060577"><ele>374.0</ele><time>2026-04-25T08:56:11Z</time></trkpt><trkpt lat="43.900537315794374" lon="12.573059350726542"><ele>374.0</ele><time>2026-04-25T08:56:12Z</time></trkpt><trkpt lat="43.90050123252147" lon="12.572913075066078"><ele>374.0</ele><time>2026-04-25T08:56:13Z</time></trkpt><trkpt lat="43.900489725973095" lon="12.572775436867195"><ele>374.0</ele><time>2026-04-25T08:56:14Z</time></trkpt><trkpt lat="43.9005054594226" lon="12.572650183667456"><ele>374.0</ele><time>2026-04-25T08:56:15Z</time></trkpt><trkpt lat="43.90053928679076" lon="12.572526089723423"><ele>374.0</ele><time>2026-04-25T08:56:16Z</time></trkpt><trkpt lat="43.90060054079313" lon="12.572408525685718"><ele>374.6</ele><time>2026-04-25T08:56:17Z</time></trkpt><trkpt lat="43.90066104223476" lon="12.572288939631527"><ele>375.2</ele><time>2026-04-25T08:56:18Z</time></trkpt><trkpt lat="43.900729174192996" lon="12.572175309575101"><ele>375.8</ele><time>2026-04-25T08:56:19Z</time></trkpt><trkpt lat="43.90080456861499" lon="12.57206864106627"><ele>376.40000000000003</ele><time>2026-04-25T08:56:20Z</time></trkpt><trkpt lat="43.900869548619475" lon="12.57194827757327"><ele>377.0</ele><time>2026-04-25T08:56:21Z</time></trkpt><trkpt lat="43.90095661641938" lon="12.571870173203946"><ele>378.1666666666667</ele><time>2026-04-25T08:56:22Z</time></trkpt><trkpt lat="43.901031153291505" lon="12.57178513884978"><ele>379.33333333333337</ele><time>2026-04-25T08:56:23Z</time></trkpt><trkpt lat="43.90109867279876" lon="12.571711470334932"><ele>380.5</ele><time>2026-04-25T08:56:24Z</time></trkpt><trkpt lat="43.90116416865733" lon="12.571636355521607"><ele>381.6666666666667</ele><time>2026-04-25T08:56:25Z</time></trkpt><trkpt lat="43.901223459557386" lon="12.571555002878979"><ele>382.8333333333333</ele><time>2026-04-25T08:56:26Z</time></trkpt><trkpt lat="43.901270259115044" lon="12.57147222137374"><ele>384.0</ele><time>2026-04-25T08:56:27Z</time></trkpt><trkpt lat="43.90129508984673" lon="12.571369794271831"><ele>384.0</ele><time>2026-04-25T08:56:28Z</time></trkpt><trkpt lat="43.9013218912505" lon="12.57126997738431"><ele>384.0</ele><time>2026-04-25T08:56:29Z</time></trkpt><trkpt lat="43.901332137446325" lon="12.571153523833514"><ele>384.0</ele><time>2026-04-25T08:56:30Z</time></trkpt><trkpt lat="43.90132608740963" lon="12.571031741182573"><ele>384.0</ele><time>2026-04-25T08:56:31Z</time></trkpt><trkpt lat="43.90130698279773" lon="12.570903011518396"><ele>384.0</ele><time>2026-04-25T08:56:32Z</time></trkpt><trkpt lat="43.90128165330706" lon="12.570770696277078"><ele>384.0</ele><time>2026-04-25T08:56:33Z</time></trkpt><trkpt lat="43.9012592913726" lon="12.570633049407089"><ele>383.4</ele><time>2026-04-25T08:56:34Z</time></trkpt><trkpt lat="43.90123821144933" lon="12.570491038409301"><ele>382.79999999999995</ele><time>2026-04-25T08:56:35Z</time></trkpt><trkpt lat="43.90121776852862" lon="12.570341904121852"><ele>382.20000000000005</ele><time>2026-04-25T08:56:36Z</time></trkpt><trkpt lat="43.90119782432022" lon="12.570194788532278"><ele>381.6</ele><time>2026-04-25T08:56:37Z</time></trkpt><trkpt lat="43.90117938056908" lon="12.570049757733509"><ele>381.0</ele><time>2026-04-25T08:56:38Z</time></trkpt><trkpt lat="43.90116184441599" lon="12.56990315631438"><ele>380.8</ele><time>2026-04-25T08:56:39Z</time></trkpt><trkpt lat="43.90114562447947" lon="12.569755253697357"><ele>380.6</ele><time>2026-04-25T08:56:40Z</time></trkpt><trkpt lat="43.90113022327109" lon="12.569611060069377"><ele>380.4</ele><time>2026-04-25T08:56:41Z</time></trkpt><trkpt lat="43.901124581600065" lon="12.569466450010525"><ele>380.2</ele><time>2026-04-25T08:56:42Z</time></trkpt><trkpt lat="43.901134961179125" lon="12.569327770908092"><ele>380.0</ele><time>2026-04-25T08:56:43Z</time></trkpt><trkpt lat="43.9011638438317" lon="12.569207278217224"><ele>378.4</ele><time>2026-04-25T08:56:44Z</time></trkpt><trkpt lat="43.90122115147526" lon="12.569100616526113"><ele>376.8</ele><time>2026-04-25T08:56:45Z</time></trkpt><trkpt lat="43.90130908308564" lon="12.569049594091407"><ele>375.20000000000005</ele><time>2026-04-25T08:56:46Z</time></trkpt><trkpt lat="43.9014022214566" lon="12.568978020604082"><ele>373.6</ele><time>2026-04-25T08:56:47Z</time></trkpt><trkpt lat="43.90148978090413" lon="12.568883486800658"><ele>372.0</ele><time>2026-04-25T08:56:48Z</time></trkpt><trkpt lat="43.90157246893188" lon="12.568800582787278"><ele>370.0</ele><time>2026-04-25T08:56:49Z</time></trkpt><trkpt lat="43.90162878605799" lon="12.56868539706147"><ele>368.0</ele><time>2026-04-25T08:56:50Z</time></trkpt><trkpt lat="43.90164053866724" lon="12.568551579104914"><ele>366.0</ele><time>2026-04-25T08:56:51Z</time></trkpt><trkpt lat="43.9016186149435" lon="12.568419669730616"><ele>364.0</ele><time>2026-04-25T08:56:52Z</time></trkpt><trkpt lat="43.9015782079131" lon="12.568281324801292"><ele>362.0</ele><time>2026-04-25T08:56:53Z</time></trkpt><trkpt lat="43.90153484365459" lon="12.568147075844717"><ele>362.0</ele><time>2026-04-25T08:56:54Z</time></trkpt><trkpt lat="43.90149689141519" lon="12.5679947923391"><ele>362.0</ele><time>2026-04-25T08:56:55Z</time></trkpt><trkpt lat="43.90145020646958" lon="12.567837777391949"><ele>362.0</ele><time>2026-04-25T08:56:56Z</time></trkpt><trkpt lat="43.90140749008929" lon="12.56767978960091"><ele>362.0</ele><time>2026-04-25T08:56:57Z</time></trkpt><trkpt lat="43.9013704814839" lon="12.56751798386955"><ele>361.0</ele><time>2026-04-25T08:56:58Z</time></trkpt><trkpt lat="43.90133401577289" lon="12.567356797272849"><ele>360.0</ele><time>2026-04-25T08:56:59Z</time></trkpt><trkpt lat="43.901297045074564" lon="12.56719525385612"><ele>359.0</ele><time>2026-04-25T08:57:00Z</time></trkpt><trkpt lat="43.90125619036102" lon="12.567041774582943"><ele>358.0</ele><time>2026-04-25T08:57:01Z</time></trkpt><trkpt lat="43.90119807308942" lon="12.56690387022462"><ele>358.0</ele><time>2026-04-25T08:57:02Z</time></trkpt><trkpt lat="43.90111967261967" lon="12.566790055182818"><ele>358.0</ele><time>2026-04-25T08:57:03Z</time></trkpt><trkpt lat="43.90102147105508" lon="12.566699319687501"><ele>358.0</ele><time>2026-04-25T08:57:04Z</time></trkpt><trkpt lat="43.90090972704375" lon="12.566625225726154"><ele>358.0</ele><time>2026-04-25T08:57:05Z</time></trkpt><trkpt lat="43.90078811652309" lon="12.56655978391284"><ele>359.5</ele><time>2026-04-25T08:57:06Z</time></trkpt><trkpt lat="43.90066283147216" lon="12.56650740927221"><ele>361.0</ele><time>2026-04-25T08:57:07Z</time></trkpt><trkpt lat="43.900532649848834" lon="12.566464945854296"><ele>362.5</ele><time>2026-04-25T08:57:08Z</time></trkpt><trkpt lat="43.90040860972667" lon="12.566432005747764"><ele>364.0</ele><time>2026-04-25T08:57:09Z</time></trkpt><trkpt lat="43.900295356494766" lon="12.566410585338579"><ele>364.0</ele><time>2026-04-25T08:57:10Z</time></trkpt><trkpt lat="43.900199277556155" lon="12.566397623390873"><ele>364.0</ele><time>2026-04-25T08:57:11Z</time></trkpt><trkpt lat="43.900114150448445" lon="12.566367876757425"><ele>364.0</ele><time>2026-04-25T08:57:12Z</time></trkpt><trkpt lat="43.90004385177769" lon="12.566298012259988"><ele>364.0</ele><time>2026-04-25T08:57:13Z</time></trkpt><trkpt lat="43.90001036660077" lon="12.566215459611927"><ele>364.0</ele><time>2026-04-25T08:57:14Z</time></trkpt><trkpt lat="43.900002494085925" lon="12.566117372498892"><ele>364.0</ele><time>2026-04-25T08:57:15Z</time></trkpt><trkpt lat="43.90002307378562" lon="12.566000368405545"><ele>362.79999999999995</ele><time>2026-04-25T08:57:16Z</time></trkpt><trkpt lat="43.90007036458839" lon="12.565877485362225"><ele>361.59999999999997</ele><time>2026-04-25T08:57:17Z</time></trkpt><trkpt lat="43.90011144932752" lon="12.565744516908937"><ele>360.4</ele><time>2026-04-25T08:57:18Z</time></trkpt><trkpt lat="43.900150581696" lon="12.565598698769797"><ele>359.2</ele><time>2026-04-25T08:57:19Z</time></trkpt><trkpt lat="43.900206000362644" lon="12.565460540888074"><ele>358.0</ele><time>2026-04-25T08:57:20Z</time></trkpt><trkpt lat="43.90025025647054" lon="12.565307261609163"><ele>362.75</ele><time>2026-04-25T08:57:21Z</time></trkpt><trkpt lat="43.900268739253754" lon="12.565139894146796"><ele>367.5</ele><time>2026-04-25T08:57:22Z</time></trkpt><trkpt lat="43.90026391250945" lon="12.56497076219061"><ele>372.25</ele><time>2026-04-25T08:57:23Z</time></trkpt><trkpt lat="43.90024594861987" lon="12.564809002106175"><ele>377.0</ele><time>2026-04-25T08:57:24Z</time></trkpt><trkpt lat="43.90021596599608" lon="12.564649949045796"><ele>377.6</ele><time>2026-04-25T08:57:25Z</time></trkpt><trkpt lat="43.900182719883034" lon="12.564490518926904"><ele>378.20000000000005</ele><time>2026-04-25T08:57:26Z</time></trkpt><trkpt lat="43.90015599575467" lon="12.564334225960222"><ele>378.8</ele><time>2026-04-25T08:57:27Z</time></trkpt><trkpt lat="43.90012929020719" lon="12.56419212818758"><ele>379.4</ele><time>2026-04-25T08:57:28Z</time></trkpt><trkpt lat="43.90009485495032" lon="12.564056710882772"><ele>380.0</ele><time>2026-04-25T08:57:29Z</time></trkpt><trkpt lat="43.90006257659947" lon="12.563921847007455"><ele>379.25</ele><time>2026-04-25T08:57:30Z</time></trkpt><trkpt lat="43.900052077868146" lon="12.563772843787197"><ele>378.5</ele><time>2026-04-25T08:57:31Z</time></trkpt><trkpt lat="43.90006414147382" lon="12.563608260147264"><ele>377.75</ele><time>2026-04-25T08:57:32Z</time></trkpt><trkpt lat="43.90008338935717" lon="12.563436643331595"><ele>377.0</ele><time>2026-04-25T08:57:33Z</time></trkpt><trkpt lat="43.900106307768986" lon="12.563258382420916"><ele>377.0</ele><time>2026-04-25T08:57:34Z</time></trkpt><trkpt lat="43.90013225303791" lon="12.563070827117375"><ele>377.0</ele><time>2026-04-25T08:57:35Z</time></trkpt><trkpt lat="43.90016140945629" lon="12.562878459610442"><ele>377.0</ele><time>2026-04-25T08:57:36Z</time></trkpt><trkpt lat="43.90019275731176" lon="12.562682445610058"><ele>377.0</ele><time>2026-04-25T08:57:37Z</time></trkpt><trkpt lat="43.90020259118388" lon="12.562478927389046"><ele>373.75</ele><time>2026-04-25T08:57:38Z</time></trkpt><trkpt lat="43.90019929283598" lon="12.562285975894348"><ele>370.5</ele><time>2026-04-25T08:57:39Z</time></trkpt><trkpt lat="43.90019670508589" lon="12.562104367313493"><ele>367.25</ele><time>2026-04-25T08:57:40Z</time></trkpt><trkpt lat="43.900196842755435" lon="12.561945406006258"><ele>364.0</ele><time>2026-04-25T08:57:41Z</time></trkpt><trkpt lat="43.90019481487279" lon="12.561803508955098"><ele>361.2</ele><time>2026-04-25T08:57:42Z</time></trkpt><trkpt lat="43.90019377431539" lon="12.561675430107332"><ele>358.4</ele><time>2026-04-25T08:57:43Z</time></trkpt><trkpt lat="43.90017386965473" lon="12.561543061753873"><ele>355.6</ele><time>2026-04-25T08:57:44Z</time></trkpt><trkpt lat="43.900127940059114" lon="12.561429394813048"><ele>352.8</ele><time>2026-04-25T08:57:45Z</time></trkpt><trkpt lat="43.90005117836686" lon="12.561344520173073"><ele>350.0</ele><time>2026-04-25T08:57:46Z</time></trkpt><trkpt lat="43.89995216155686" lon="12.561314492689405"><ele>346.8</ele><time>2026-04-25T08:57:47Z</time></trkpt><trkpt lat="43.89983796236959" lon="12.561319602715862"><ele>343.6</ele><time>2026-04-25T08:57:48Z</time></trkpt><trkpt lat="43.89971852373928" lon="12.561352627661286"><ele>340.4</ele><time>2026-04-25T08:57:49Z</time></trkpt><trkpt lat="43.899612817813214" lon="12.56139135414374"><ele>337.2</ele><time>2026-04-25T08:57:50Z</time></trkpt><trkpt lat="43.89953025168348" lon="12.561427704552699"><ele>334.0</ele><time>2026-04-25T08:57:51Z</time></trkpt><trkpt lat="43.899462757798126" lon="12.561449577344595"><ele>334.0</ele><time>2026-04-25T08:57:52Z</time></trkpt><trkpt lat="43.89937077325081" lon="12.561336594035824"><ele>334.0</ele><time>2026-04-25T08:57:54Z</time></trkpt><trkpt lat="43.89936894807144" lon="12.561233332771046"><ele>334.0</ele><time>2026-04-25T08:57:55Z</time></trkpt><trkpt lat="43.899388227681115" lon="12.561138358989938"><ele>334.0</ele><time>2026-04-25T08:57:56Z</time></trkpt><trkpt lat="43.8993754209957" lon="12.560985567063025"><ele>334.0</ele><time>2026-04-25T08:57:58Z</time></trkpt><trkpt lat="43.89933694890092" lon="12.560900569913997"><ele>332.0</ele><time>2026-04-25T08:58:01Z</time></trkpt><trkpt lat="43.8992710875606" lon="12.560870604077532"><ele>330.0</ele><time>2026-04-25T09:02:39Z</time></trkpt><trkpt lat="43.89918905190447" lon="12.560879688964393"><ele>328.0</ele><time>2026-04-25T09:02:41Z</time></trkpt><trkpt lat="43.89909335699761" lon="12.56089099915714"><ele>326.0</ele><time>2026-04-25T09:02:43Z</time></trkpt><trkpt lat="43.89899284207795" lon="12.560906498425899"><ele>324.0</ele><time>2026-04-25T09:02:45Z</time></trkpt><trkpt lat="43.89888248967418" lon="12.560898151917957"><ele>322.5</ele><time>2026-04-25T09:02:47Z</time></trkpt><trkpt lat="43.89878313296877" lon="12.560821974840426"><ele>321.0</ele><time>2026-04-25T09:02:49Z</time></trkpt><trkpt lat="43.89876365366608" lon="12.560724804298024"><ele>319.5</ele><time>2026-04-25T09:02:50Z</time></trkpt><trkpt lat="43.89878117984445" lon="12.560590993418993"><ele>318.0</ele><time>2026-04-25T09:02:51Z</time></trkpt><trkpt lat="43.89884921332648" lon="12.560554881601483"><ele>316.5</ele><time>2026-04-25T09:02:52Z</time></trkpt><trkpt lat="43.89891333612917" lon="12.560522253136218"><ele>315.0</ele><time>2026-04-25T09:02:53Z</time></trkpt><trkpt lat="43.898981946871906" lon="12.56049123978105"><ele>315.0</ele><time>2026-04-25T09:02:54Z</time></trkpt><trkpt lat="43.89905332779199" lon="12.560445749041302"><ele>315.0</ele><time>2026-04-25T09:02:55Z</time></trkpt><trkpt lat="43.89912240020509" lon="12.560410310350003"><ele>315.0</ele><time>2026-04-25T09:02:56Z</time></trkpt><trkpt lat="43.89918612724363" lon="12.560378774813266"><ele>315.0</ele><time>2026-04-25T09:02:57Z</time></trkpt><trkpt lat="43.89924569217639" lon="12.560345642158914"><ele>315.0</ele><time>2026-04-25T09:02:58Z</time></trkpt><trkpt lat="43.89933925649985" lon="12.56027241119219"><ele>315.0</ele><time>2026-04-25T09:03:00Z</time></trkpt><trkpt lat="43.89934605900131" lon="12.560100189278794"><ele>314.1666666666667</ele><time>2026-04-25T09:03:03Z</time></trkpt><trkpt lat="43.89930133497695" lon="12.560037658519024"><ele>313.3333333333333</ele><time>2026-04-25T09:03:04Z</time></trkpt><trkpt lat="43.89924949906708" lon="12.559972953563479"><ele>312.5</ele><time>2026-04-25T09:03:05Z</time></trkpt><trkpt lat="43.8992003891701" lon="12.559893469214323"><ele>311.66666666666663</ele><time>2026-04-25T09:03:06Z</time></trkpt><trkpt lat="43.8991438986736" lon="12.559799955941214"><ele>310.8333333333333</ele><time>2026-04-25T09:03:07Z</time></trkpt><trkpt lat="43.899087699920884" lon="12.559697419148721"><ele>310.0</ele><time>2026-04-25T09:03:08Z</time></trkpt><trkpt lat="43.89902572545632" lon="12.559589668933729"><ele>307.4</ele><time>2026-04-25T09:03:09Z</time></trkpt><trkpt lat="43.898960197884065" lon="12.559474993123157"><ele>304.8</ele><time>2026-04-25T09:03:10Z</time></trkpt><trkpt lat="43.898899154159125" lon="12.559363985125371"><ele>302.2</ele><time>2026-04-25T09:03:11Z</time></trkpt><trkpt lat="43.89883358678894" lon="12.559250748150337"><ele>299.6</ele><time>2026-04-25T09:03:12Z</time></trkpt><trkpt lat="43.898770397981515" lon="12.55913220276534"><ele>297.0</ele><time>2026-04-25T09:03:13Z</time></trkpt><trkpt lat="43.89870471664249" lon="12.559018281740986"><ele>297.0</ele><time>2026-04-25T09:03:14Z</time></trkpt><trkpt lat="43.898634556528776" lon="12.558912010886385"><ele>297.0</ele><time>2026-04-25T09:03:15Z</time></trkpt><trkpt lat="43.898549267436756" lon="12.558819774624956"><ele>297.0</ele><time>2026-04-25T09:03:16Z</time></trkpt><trkpt lat="43.89844721024026" lon="12.558748771889023"><ele>297.0</ele><time>2026-04-25T09:03:17Z</time></trkpt><trkpt lat="43.89834047612875" lon="12.558690118700877"><ele>297.0</ele><time>2026-04-25T09:03:18Z</time></trkpt><trkpt lat="43.898238983066044" lon="12.558642542684336"><ele>297.2</ele><time>2026-04-25T09:03:19Z</time></trkpt><trkpt lat="43.898138879848005" lon="12.558593201816455"><ele>297.4</ele><time>2026-04-25T09:03:20Z</time></trkpt><trkpt lat="43.89804015609914" lon="12.558549881117576"><ele>297.6</ele><time>2026-04-25T09:03:21Z</time></trkpt><trkpt lat="43.89794633475702" lon="12.558491637206547"><ele>297.8</ele><time>2026-04-25T09:03:22Z</time></trkpt><trkpt lat="43.89787079027331" lon="12.558396941710686"><ele>298.0</ele><time>2026-04-25T09:03:23Z</time></trkpt><trkpt lat="43.89781152278179" lon="12.558272488618258"><ele>298.0</ele><time>2026-04-25T09:03:24Z</time></trkpt><trkpt lat="43.89775795049088" lon="12.558131206324381"><ele>298.0</ele><time>2026-04-25T09:03:25Z</time></trkpt><trkpt lat="43.8976984972997" lon="12.557983972444228"><ele>298.0</ele><time>2026-04-25T09:03:26Z</time></trkpt><trkpt lat="43.897630928299385" lon="12.557832392256033"><ele>298.0</ele><time>2026-04-25T09:03:27Z</time></trkpt><trkpt lat="43.89755820677732" lon="12.557680141242406"><ele>294.75</ele><time>2026-04-25T09:03:28Z</time></trkpt><trkpt lat="43.89748200281633" lon="12.557547029942645"><ele>291.5</ele><time>2026-04-25T09:03:29Z</time></trkpt><trkpt lat="43.897394253002886" lon="12.557441892254493"><ele>288.25</ele><time>2026-04-25T09:03:30Z</time></trkpt><trkpt lat="43.89729308412756" lon="12.557372028964815"><ele>285.0</ele><time>2026-04-25T09:03:31Z</time></trkpt><trkpt lat="43.89716830074633" lon="12.557344285974818"><ele>285.0</ele><time>2026-04-25T09:03:32Z</time></trkpt><trkpt lat="43.89703000206694" lon="12.557344644448804"><ele>285.0</ele><time>2026-04-25T09:03:33Z</time></trkpt><trkpt lat="43.89688430028861" lon="12.557355500609948"><ele>285.0</ele><time>2026-04-25T09:03:34Z</time></trkpt><trkpt lat="43.89673511426441" lon="12.55735587715072"><ele>285.0</ele><time>2026-04-25T09:03:35Z</time></trkpt><trkpt lat="43.89659177670866" lon="12.55732947332881"><ele>282.25</ele><time>2026-04-25T09:03:36Z</time></trkpt><trkpt lat="43.89646119757006" lon="12.55725530098662"><ele>279.5</ele><time>2026-04-25T09:03:37Z</time></trkpt><trkpt lat="43.89634425845396" lon="12.557134932556876"><ele>276.75</ele><time>2026-04-25T09:03:38Z</time></trkpt><trkpt lat="43.89624061543959" lon="12.556990816396683"><ele>274.0</ele><time>2026-04-25T09:03:39Z</time></trkpt><trkpt lat="43.896144965050965" lon="12.55683368433243"><ele>275.0</ele><time>2026-04-25T09:03:40Z</time></trkpt><trkpt lat="43.89605876765565" lon="12.556669259090002"><ele>276.0</ele><time>2026-04-25T09:03:41Z</time></trkpt><trkpt lat="43.895972717553434" lon="12.556510112421078"><ele>277.0</ele><time>2026-04-25T09:03:42Z</time></trkpt><trkpt lat="43.8958907800514" lon="12.556361965346072"><ele>278.0</ele><time>2026-04-25T09:03:43Z</time></trkpt><trkpt lat="43.895805054409" lon="12.556222283678823"><ele>279.75</ele><time>2026-04-25T09:03:44Z</time></trkpt><trkpt lat="43.89569380244082" lon="12.556124504173416"><ele>281.5</ele><time>2026-04-25T09:03:45Z</time></trkpt><trkpt lat="43.89555340634463" lon="12.556043747914815"><ele>283.25</ele><time>2026-04-25T09:03:46Z</time></trkpt><trkpt lat="43.8953986662058" lon="12.555972326281424"><ele>285.0</ele><time>2026-04-25T09:03:47Z</time></trkpt><trkpt lat="43.895250806248704" lon="12.555931121064724"><ele>285.0</ele><time>2026-04-25T09:03:48Z</time></trkpt><trkpt lat="43.8951187055027" lon="12.555943184861889"><ele>285.0</ele><time>2026-04-25T09:03:49Z</time></trkpt><trkpt lat="43.89498731878931" lon="12.556012020282013"><ele>285.0</ele><time>2026-04-25T09:03:50Z</time></trkpt><trkpt lat="43.89486024045882" lon="12.556085930150951"><ele>285.0</ele><time>2026-04-25T09:03:51Z</time></trkpt><trkpt lat="43.8947263623039" lon="12.556154772669405"><ele>284.5</ele><time>2026-04-25T09:03:52Z</time></trkpt><trkpt lat="43.89458489120618" lon="12.556198764872267"><ele>284.0</ele><time>2026-04-25T09:03:53Z</time></trkpt><trkpt lat="43.89444978898207" lon="12.556265506888002"><ele>283.5</ele><time>2026-04-25T09:03:54Z</time></trkpt><trkpt lat="43.894326664475614" lon="12.556356050977813"><ele>283.0</ele><time>2026-04-25T09:03:55Z</time></trkpt><trkpt lat="43.894205371983126" lon="12.556436989571578"><ele>286.25</ele><time>2026-04-25T09:03:56Z</time></trkpt><trkpt lat="43.89412560664542" lon="12.556594567772756"><ele>289.5</ele><time>2026-04-25T09:03:57Z</time></trkpt><trkpt lat="43.89405508041183" lon="12.55675989045062"><ele>292.75</ele><time>2026-04-25T09:03:58Z</time></trkpt><trkpt lat="43.893991706215026" lon="12.556937447667485"><ele>296.0</ele><time>2026-04-25T09:03:59Z</time></trkpt><trkpt lat="43.89390540364178" lon="12.557107864571307"><ele>296.33333333333337</ele><time>2026-04-25T09:04:00Z</time></trkpt><trkpt lat="43.89382945830012" lon="12.557296104192218"><ele>296.6666666666667</ele><time>2026-04-25T09:04:01Z</time></trkpt><trkpt lat="43.893761667379636" lon="12.557499387674648"><ele>297.0</ele><time>2026-04-25T09:04:02Z</time></trkpt><trkpt lat="43.8936800842096" lon="12.557695485401032"><ele>297.0</ele><time>2026-04-25T09:04:03Z</time></trkpt><trkpt lat="43.893596724862704" lon="12.557895800447156"><ele>297.0</ele><time>2026-04-25T09:04:04Z</time></trkpt><trkpt lat="43.89351945876803" lon="12.558091650623746"><ele>297.0</ele><time>2026-04-25T09:04:05Z</time></trkpt><trkpt lat="43.89343901372484" lon="12.558292796798233"><ele>297.75</ele><time>2026-04-25T09:04:06Z</time></trkpt><trkpt lat="43.89336410284847" lon="12.558484648616929"><ele>298.5</ele><time>2026-04-25T09:04:07Z</time></trkpt><trkpt lat="43.89329508013744" lon="12.558651919289945"><ele>299.25</ele><time>2026-04-25T09:04:08Z</time></trkpt><trkpt lat="43.89323048122701" lon="12.558796253502567"><ele>300.0</ele><time>2026-04-25T09:04:09Z</time></trkpt><trkpt lat="43.89317035413893" lon="12.558921299750521"><ele>301.25</ele><time>2026-04-25T09:04:10Z</time></trkpt><trkpt lat="43.893123920398935" lon="12.559040668201105"><ele>302.5</ele><time>2026-04-25T09:04:11Z</time></trkpt><trkpt lat="43.89310218139524" lon="12.55918045001253"><ele>303.75</ele><time>2026-04-25T09:04:12Z</time></trkpt><trkpt lat="43.8930888524315" lon="12.559348177401"><ele>305.0</ele><time>2026-04-25T09:04:13Z</time></trkpt><trkpt lat="43.893058410504025" lon="12.559525263424206"><ele>302.75</ele><time>2026-04-25T09:04:14Z</time></trkpt><trkpt lat="43.89303910695401" lon="12.559711841367262"><ele>300.5</ele><time>2026-04-25T09:04:15Z</time></trkpt><trkpt lat="43.89300884834854" lon="12.559898076472214"><ele>298.25</ele><time>2026-04-25T09:04:16Z</time></trkpt><trkpt lat="43.892964317283436" lon="12.56008732077992"><ele>296.0</ele><time>2026-04-25T09:04:17Z</time></trkpt><trkpt lat="43.89291039412723" lon="12.560276444729393"><ele>292.33333333333337</ele><time>2026-04-25T09:04:18Z</time></trkpt><trkpt lat="43.8928482656305" lon="12.560467746909563"><ele>288.6666666666667</ele><time>2026-04-25T09:04:19Z</time></trkpt><trkpt lat="43.89278117468805" lon="12.560659572565186"><ele>285.0</ele><time>2026-04-25T09:04:20Z</time></trkpt><trkpt lat="43.892709106374866" lon="12.560849056879986"><ele>285.0</ele><time>2026-04-25T09:04:21Z</time></trkpt><trkpt lat="43.89265030210317" lon="12.561039151395981"><ele>285.0</ele><time>2026-04-25T09:04:22Z</time></trkpt><trkpt lat="43.892561123825274" lon="12.561181048936966"><ele>285.0</ele><time>2026-04-25T09:04:23Z</time></trkpt><trkpt lat="43.89248024012131" lon="12.561313406109726"><ele>285.0</ele><time>2026-04-25T09:04:24Z</time></trkpt><trkpt lat="43.892396430202275" lon="12.561437908720528"><ele>286.5</ele><time>2026-04-25T09:04:25Z</time></trkpt><trkpt lat="43.89228561838983" lon="12.561508556034712"><ele>288.0</ele><time>2026-04-25T09:04:26Z</time></trkpt><trkpt lat="43.89216744142723" lon="12.561538533598227"><ele>289.5</ele><time>2026-04-25T09:04:27Z</time></trkpt><trkpt lat="43.892044408237176" lon="12.561530591291275"><ele>291.0</ele><time>2026-04-25T09:04:28Z</time></trkpt><trkpt lat="43.891915108017194" lon="12.5614969736328"><ele>291.0</ele><time>2026-04-25T09:04:29Z</time></trkpt><trkpt lat="43.89178557308547" lon="12.56143792284015"><ele>291.0</ele><time>2026-04-25T09:04:30Z</time></trkpt><trkpt lat="43.89165127186035" lon="12.561383031493472"><ele>291.0</ele><time>2026-04-25T09:04:31Z</time></trkpt><trkpt lat="43.89151092576693" lon="12.561334408615052"><ele>291.0</ele><time>2026-04-25T09:04:32Z</time></trkpt><trkpt lat="43.89136583254343" lon="12.561281061665628"><ele>291.5</ele><time>2026-04-25T09:04:33Z</time></trkpt><trkpt lat="43.891228054913775" lon="12.561217809198196"><ele>292.0</ele><time>2026-04-25T09:04:34Z</time></trkpt><trkpt lat="43.891095999668835" lon="12.56115963601253"><ele>292.5</ele><time>2026-04-25T09:04:35Z</time></trkpt><trkpt lat="43.89098493481213" lon="12.56113269000381"><ele>293.0</ele><time>2026-04-25T09:04:36Z</time></trkpt><trkpt lat="43.89087345590366" lon="12.561148819162321"><ele>290.5</ele><time>2026-04-25T09:04:37Z</time></trkpt><trkpt lat="43.89076403834199" lon="12.561218131941828"><ele>288.0</ele><time>2026-04-25T09:04:38Z</time></trkpt><trkpt lat="43.89066967064778" lon="12.561313896266235"><ele>285.5</ele><time>2026-04-25T09:04:39Z</time></trkpt><trkpt lat="43.89056038290575" lon="12.56140775334581"><ele>283.0</ele><time>2026-04-25T09:04:40Z</time></trkpt><trkpt lat="43.89043418983007" lon="12.561443821491201"><ele>283.0</ele><time>2026-04-25T09:04:41Z</time></trkpt><trkpt lat="43.89031158622523" lon="12.56148860511562"><ele>283.0</ele><time>2026-04-25T09:04:42Z</time></trkpt><trkpt lat="43.890183319681306" lon="12.56147495739775"><ele>283.0</ele><time>2026-04-25T09:04:43Z</time></trkpt><trkpt lat="43.890048395610314" lon="12.561451361361767"><ele>283.0</ele><time>2026-04-25T09:04:44Z</time></trkpt><trkpt lat="43.889909662711005" lon="12.561428962397184"><ele>282.75</ele><time>2026-04-25T09:04:45Z</time></trkpt><trkpt lat="43.889768586565424" lon="12.561401305921922"><ele>282.5</ele><time>2026-04-25T09:04:46Z</time></trkpt><trkpt lat="43.88962524057534" lon="12.561381156077829"><ele>282.25</ele><time>2026-04-25T09:04:47Z</time></trkpt><trkpt lat="43.88949159079014" lon="12.5613622052284"><ele>282.0</ele><time>2026-04-25T09:04:48Z</time></trkpt><trkpt lat="43.889360641738804" lon="12.561359261997945"><ele>280.75</ele><time>2026-04-25T09:04:49Z</time></trkpt><trkpt lat="43.889227472609555" lon="12.561384284658445"><ele>279.5</ele><time>2026-04-25T09:04:50Z</time></trkpt><trkpt lat="43.889107823335465" lon="12.561432557580034"><ele>278.25</ele><time>2026-04-25T09:04:51Z</time></trkpt><trkpt lat="43.88897719020897" lon="12.561500308663648"><ele>277.0</ele><time>2026-04-25T09:04:52Z</time></trkpt><trkpt lat="43.88884097500582" lon="12.561569166297842"><ele>277.0</ele><time>2026-04-25T09:04:53Z</time></trkpt><trkpt lat="43.88869762200946" lon="12.561638947137803"><ele>277.0</ele><time>2026-04-25T09:04:54Z</time></trkpt><trkpt lat="43.888554549523086" lon="12.561694249368141"><ele>277.0</ele><time>2026-04-25T09:04:55Z</time></trkpt><trkpt lat="43.888419177024346" lon="12.561749145387752"><ele>277.0</ele><time>2026-04-25T09:04:56Z</time></trkpt><trkpt lat="43.88828797759797" lon="12.561797724205077"><ele>276.25</ele><time>2026-04-25T09:04:57Z</time></trkpt><trkpt lat="43.8881594052339" lon="12.56183663229926"><ele>275.5</ele><time>2026-04-25T09:04:58Z</time></trkpt><trkpt lat="43.88803766788157" lon="12.561863621126738"><ele>274.75</ele><time>2026-04-25T09:04:59Z</time></trkpt><trkpt lat="43.88792318861354" lon="12.56188836867045"><ele>274.0</ele><time>2026-04-25T09:05:00Z</time></trkpt><trkpt lat="43.88781331249478" lon="12.561902974990828"><ele>274.0</ele><time>2026-04-25T09:05:01Z</time></trkpt><trkpt lat="43.8877075671412" lon="12.561894188491104"><ele>274.0</ele><time>2026-04-25T09:05:02Z</time></trkpt><trkpt lat="43.887607861785966" lon="12.561855885895529"><ele>274.0</ele><time>2026-04-25T09:05:03Z</time></trkpt><trkpt lat="43.88751222616454" lon="12.561784548818038"><ele>274.0</ele><time>2026-04-25T09:05:04Z</time></trkpt><trkpt lat="43.88740683742664" lon="12.5617216085253"><ele>274.0</ele><time>2026-04-25T09:05:05Z</time></trkpt><trkpt lat="43.88728594005487" lon="12.561694820459648"><ele>271.75</ele><time>2026-04-25T09:05:06Z</time></trkpt><trkpt lat="43.88715924649435" lon="12.561689451768686"><ele>269.5</ele><time>2026-04-25T09:05:07Z</time></trkpt><trkpt lat="43.8870352330574" lon="12.561708912894913"><ele>267.25</ele><time>2026-04-25T09:05:08Z</time></trkpt><trkpt lat="43.88693108260105" lon="12.561751080126411"><ele>265.0</ele><time>2026-04-25T09:05:09Z</time></trkpt><trkpt lat="43.88684230970439" lon="12.561827085005298"><ele>265.0</ele><time>2026-04-25T09:05:10Z</time></trkpt><trkpt lat="43.886767893503716" lon="12.561939858772636"><ele>265.0</ele><time>2026-04-25T09:05:11Z</time></trkpt><trkpt lat="43.88671398005996" lon="12.562068994252822"><ele>265.0</ele><time>2026-04-25T09:05:12Z</time></trkpt><trkpt lat="43.886674899306556" lon="12.562205568190079"><ele>265.0</ele><time>2026-04-25T09:05:13Z</time></trkpt><trkpt lat="43.886679620615205" lon="12.562346436460645"><ele>265.0</ele><time>2026-04-25T09:05:14Z</time></trkpt><trkpt lat="43.88674596323123" lon="12.562473868818245"><ele>264.5</ele><time>2026-04-25T09:05:15Z</time></trkpt><trkpt lat="43.88679582778219" lon="12.562624660454224"><ele>264.0</ele><time>2026-04-25T09:05:16Z</time></trkpt><trkpt lat="43.88687085404449" lon="12.562770365651767"><ele>263.5</ele><time>2026-04-25T09:05:17Z</time></trkpt><trkpt lat="43.88690511508859" lon="12.562937317529203"><ele>263.0</ele><time>2026-04-25T09:05:18Z</time></trkpt><trkpt lat="43.88693002864669" lon="12.563097864966764"><ele>259.25</ele><time>2026-04-25T09:05:19Z</time></trkpt><trkpt lat="43.88695433668128" lon="12.563260099123376"><ele>255.5</ele><time>2026-04-25T09:05:20Z</time></trkpt><trkpt lat="43.88693935522626" lon="12.56343295876877"><ele>251.75</ele><time>2026-04-25T09:05:21Z</time></trkpt><trkpt lat="43.88687218597468" lon="12.563577086852797"><ele>248.0</ele><time>2026-04-25T09:05:22Z</time></trkpt><trkpt lat="43.88681471064479" lon="12.563736898945168"><ele>244.0</ele><time>2026-04-25T09:05:23Z</time></trkpt><trkpt lat="43.886728467133985" lon="12.563877867768085"><ele>240.0</ele><time>2026-04-25T09:05:24Z</time></trkpt><trkpt lat="43.886645141748666" lon="12.564030636992948"><ele>236.0</ele><time>2026-04-25T09:05:25Z</time></trkpt><trkpt lat="43.886543346846906" lon="12.564155718770353"><ele>232.0</ele><time>2026-04-25T09:05:26Z</time></trkpt><trkpt lat="43.88648422755226" lon="12.564312866103052"><ele>232.0</ele><time>2026-04-25T09:05:27Z</time></trkpt><trkpt lat="43.8864415064875" lon="12.56446565658987"><ele>232.0</ele><time>2026-04-25T09:05:28Z</time></trkpt><trkpt lat="43.8864272923392" lon="12.564643832805233"><ele>232.0</ele><time>2026-04-25T09:05:29Z</time></trkpt><trkpt lat="43.88642635880748" lon="12.564836858776"><ele>232.0</ele><time>2026-04-25T09:05:30Z</time></trkpt><trkpt lat="43.8864201808241" lon="12.565047047042624"><ele>230.0</ele><time>2026-04-25T09:05:31Z</time></trkpt><trkpt lat="43.8864134624295" lon="12.56524575476102"><ele>228.0</ele><time>2026-04-25T09:05:32Z</time></trkpt><trkpt lat="43.88641730350143" lon="12.565436928538313"><ele>226.0</ele><time>2026-04-25T09:05:33Z</time></trkpt><trkpt lat="43.886414396258765" lon="12.56560492400931"><ele>224.0</ele><time>2026-04-25T09:05:34Z</time></trkpt><trkpt lat="43.886390349662136" lon="12.565759235484911"><ele>220.5</ele><time>2026-04-25T09:05:35Z</time></trkpt><trkpt lat="43.88633463074189" lon="12.56590618302497"><ele>217.0</ele><time>2026-04-25T09:05:36Z</time></trkpt><trkpt lat="43.88625170537601" lon="12.56601527532888"><ele>213.5</ele><time>2026-04-25T09:05:37Z</time></trkpt><trkpt lat="43.88614329692565" lon="12.566096306484456"><ele>210.0</ele><time>2026-04-25T09:05:38Z</time></trkpt><trkpt lat="43.886037817169665" lon="12.566158214607272"><ele>209.6</ele><time>2026-04-25T09:05:39Z</time></trkpt><trkpt lat="43.885939327254746" lon="12.566219414210217"><ele>209.2</ele><time>2026-04-25T09:05:40Z</time></trkpt><trkpt lat="43.88585552923431" lon="12.566260797507427"><ele>208.8</ele><time>2026-04-25T09:05:41Z</time></trkpt><trkpt lat="43.88577220958673" lon="12.566270871613398"><ele>208.4</ele><time>2026-04-25T09:05:42Z</time></trkpt><trkpt lat="43.88568333772833" lon="12.566232049001302"><ele>208.0</ele><time>2026-04-25T09:05:43Z</time></trkpt><trkpt lat="43.88559490984485" lon="12.56614581045313"><ele>208.0</ele><time>2026-04-25T09:05:44Z</time></trkpt><trkpt lat="43.88550611594278" lon="12.566037857835235"><ele>208.0</ele><time>2026-04-25T09:05:45Z</time></trkpt><trkpt lat="43.885406144420934" lon="12.565931488711891"><ele>208.0</ele><time>2026-04-25T09:05:46Z</time></trkpt><trkpt lat="43.88530380597393" lon="12.565812591821606"><ele>208.0</ele><time>2026-04-25T09:05:47Z</time></trkpt><trkpt lat="43.88520300694239" lon="12.565680600193765"><ele>208.0</ele><time>2026-04-25T09:05:48Z</time></trkpt><trkpt lat="43.885102365572685" lon="12.565540228584913"><ele>208.0</ele><time>2026-04-25T09:05:49Z</time></trkpt><trkpt lat="43.88500064049656" lon="12.565397255557562"><ele>208.0</ele><time>2026-04-25T09:05:50Z</time></trkpt><trkpt lat="43.884894745332325" lon="12.56525149332718"><ele>208.0</ele><time>2026-04-25T09:05:51Z</time></trkpt><trkpt lat="43.88478339374391" lon="12.565105572511719"><ele>203.33333333333331</ele><time>2026-04-25T09:05:52Z</time></trkpt><trkpt lat="43.884670763600774" lon="12.564957521039707"><ele>198.66666666666669</ele><time>2026-04-25T09:05:53Z</time></trkpt><trkpt lat="43.88456227096171" lon="12.564805810866506"><ele>194.0</ele><time>2026-04-25T09:05:54Z</time></trkpt><trkpt lat="43.8844540040541" lon="12.56465353845943"><ele>194.0</ele><time>2026-04-25T09:05:55Z</time></trkpt><trkpt lat="43.88434831946172" lon="12.564497328375522"><ele>194.0</ele><time>2026-04-25T09:05:56Z</time></trkpt><trkpt lat="43.88424223286112" lon="12.564334230115124"><ele>194.0</ele><time>2026-04-25T09:05:57Z</time></trkpt><trkpt lat="43.88413960143156" lon="12.56416062170064"><ele>191.33333333333334</ele><time>2026-04-25T09:05:58Z</time></trkpt><trkpt lat="43.88403482817233" lon="12.563982316484145"><ele>188.66666666666669</ele><time>2026-04-25T09:05:59Z</time></trkpt><trkpt lat="43.883923029214955" lon="12.563804904643666"><ele>186.0</ele><time>2026-04-25T09:06:00Z</time></trkpt><trkpt lat="43.883806197316645" lon="12.563634135321463"><ele>186.0</ele><time>2026-04-25T09:06:01Z</time></trkpt><trkpt lat="43.88368391939395" lon="12.563488474490937"><ele>186.0</ele><time>2026-04-25T09:06:02Z</time></trkpt><trkpt lat="43.88355382699274" lon="12.563372796070166"><ele>186.0</ele><time>2026-04-25T09:06:03Z</time></trkpt><trkpt lat="43.88341886227642" lon="12.563283422074246"><ele>184.75</ele><time>2026-04-25T09:06:04Z</time></trkpt><trkpt lat="43.883292343468185" lon="12.563180364151501"><ele>183.5</ele><time>2026-04-25T09:06:05Z</time></trkpt><trkpt lat="43.88319269405028" lon="12.563065177193712"><ele>182.25</ele><time>2026-04-25T09:06:06Z</time></trkpt><trkpt lat="43.88312388750413" lon="12.562955996307686"><ele>181.0</ele><time>2026-04-25T09:06:07Z</time></trkpt><trkpt lat="43.88306604664042" lon="12.562821343216683"><ele>181.0</ele><time>2026-04-25T09:06:08Z</time></trkpt><trkpt lat="43.883038799058006" lon="12.562683595689496"><ele>181.0</ele><time>2026-04-25T09:06:09Z</time></trkpt><trkpt lat="43.88304110146117" lon="12.562531575124577"><ele>181.0</ele><time>2026-04-25T09:06:10Z</time></trkpt><trkpt lat="43.88306459589841" lon="12.562371563482845"><ele>181.0</ele><time>2026-04-25T09:06:11Z</time></trkpt><trkpt lat="43.88309549755088" lon="12.562203488017834"><ele>180.25</ele><time>2026-04-25T09:06:12Z</time></trkpt><trkpt lat="43.88312542289187" lon="12.562019701544656"><ele>179.5</ele><time>2026-04-25T09:06:13Z</time></trkpt><trkpt lat="43.88314509224776" lon="12.561822273111687"><ele>178.75</ele><time>2026-04-25T09:06:14Z</time></trkpt><trkpt lat="43.88316399631754" lon="12.56161912817491"><ele>178.0</ele><time>2026-04-25T09:06:15Z</time></trkpt><trkpt lat="43.88317689906502" lon="12.561413210192674"><ele>178.0</ele><time>2026-04-25T09:06:16Z</time></trkpt><trkpt lat="43.883176761896046" lon="12.561213086501173"><ele>178.0</ele><time>2026-04-25T09:06:17Z</time></trkpt><trkpt lat="43.88315633169201" lon="12.561022746577844"><ele>178.0</ele><time>2026-04-25T09:06:18Z</time></trkpt><trkpt lat="43.88310831664915" lon="12.560820257548595"><ele>178.0</ele><time>2026-04-25T09:06:19Z</time></trkpt><trkpt lat="43.88305124832363" lon="12.560614362310353"><ele>177.0</ele><time>2026-04-25T09:06:20Z</time></trkpt><trkpt lat="43.88298952833037" lon="12.560401486144116"><ele>176.0</ele><time>2026-04-25T09:06:21Z</time></trkpt><trkpt lat="43.88294149024556" lon="12.56016604157391"><ele>175.0</ele><time>2026-04-25T09:06:22Z</time></trkpt><trkpt lat="43.88288145906488" lon="12.559944712728324"><ele>173.66666666666669</ele><time>2026-04-25T09:06:23Z</time></trkpt><trkpt lat="43.882820821998344" lon="12.559731195411173"><ele>172.33333333333334</ele><time>2026-04-25T09:06:24Z</time></trkpt><trkpt lat="43.882758257971275" lon="12.559528611782389"><ele>171.0</ele><time>2026-04-25T09:06:25Z</time></trkpt><trkpt lat="43.882706289167956" lon="12.559351018270082"><ele>170.75</ele><time>2026-04-25T09:06:26Z</time></trkpt><trkpt lat="43.882665504775176" lon="12.55919646438794"><ele>170.5</ele><time>2026-04-25T09:06:27Z</time></trkpt><trkpt lat="43.88264913725534" lon="12.55904248537795"><ele>170.25</ele><time>2026-04-25T09:06:28Z</time></trkpt><trkpt lat="43.88265160696465" lon="12.558878909504733"><ele>170.0</ele><time>2026-04-25T09:06:29Z</time></trkpt><trkpt lat="43.88266264698919" lon="12.558707187565346"><ele>171.0</ele><time>2026-04-25T09:06:30Z</time></trkpt><trkpt lat="43.8826737220104" lon="12.558533551775795"><ele>172.0</ele><time>2026-04-25T09:06:31Z</time></trkpt><trkpt lat="43.88268894473995" lon="12.558349960896997"><ele>173.0</ele><time>2026-04-25T09:06:32Z</time></trkpt><trkpt lat="43.88270543415031" lon="12.558165926549346"><ele>174.0</ele><time>2026-04-25T09:06:33Z</time></trkpt><trkpt lat="43.882719551553464" lon="12.557978330671297"><ele>175.0</ele><time>2026-04-25T09:06:34Z</time></trkpt><trkpt lat="43.88273077464567" lon="12.557791772280224"><ele>176.0</ele><time>2026-04-25T09:06:35Z</time></trkpt><trkpt lat="43.88274563691539" lon="12.557614045104403"><ele>177.0</ele><time>2026-04-25T09:06:36Z</time></trkpt><trkpt lat="43.88276377568523" lon="12.557437627341677"><ele>178.0</ele><time>2026-04-25T09:06:37Z</time></trkpt><trkpt lat="43.882778405819124" lon="12.55726299805576"><ele>178.0</ele><time>2026-04-25T09:06:38Z</time></trkpt><trkpt lat="43.882792237610545" lon="12.55708817127686"><ele>178.0</ele><time>2026-04-25T09:06:39Z</time></trkpt><trkpt lat="43.88280145637025" lon="12.556926423840908"><ele>178.0</ele><time>2026-04-25T09:06:40Z</time></trkpt><trkpt lat="43.882791982626614" lon="12.556782606073037"><ele>178.0</ele><time>2026-04-25T09:06:41Z</time></trkpt><trkpt lat="43.88275518411228" lon="12.556644496266296"><ele>178.5</ele><time>2026-04-25T09:06:42Z</time></trkpt><trkpt lat="43.88269537410072" lon="12.556519624252932"><ele>179.0</ele><time>2026-04-25T09:06:43Z</time></trkpt><trkpt lat="43.88260979812748" lon="12.55641587097219"><ele>179.5</ele><time>2026-04-25T09:06:44Z</time></trkpt><trkpt lat="43.882512858879764" lon="12.556320499286473"><ele>180.0</ele><time>2026-04-25T09:06:45Z</time></trkpt><trkpt lat="43.88241650017027" lon="12.556216839967686"><ele>178.0</ele><time>2026-04-25T09:06:46Z</time></trkpt><trkpt lat="43.88230954163646" lon="12.556109292648651"><ele>176.0</ele><time>2026-04-25T09:06:47Z</time></trkpt><trkpt lat="43.88220200429329" lon="12.555996700412733"><ele>174.0</ele><time>2026-04-25T09:06:48Z</time></trkpt><trkpt lat="43.882098533694105" lon="12.555895436314003"><ele>172.0</ele><time>2026-04-25T09:06:49Z</time></trkpt><trkpt lat="43.88200537719081" lon="12.555795533840246"><ele>172.0</ele><time>2026-04-25T09:06:50Z</time></trkpt><trkpt lat="43.881911689528216" lon="12.55569607141332"><ele>172.0</ele><time>2026-04-25T09:06:51Z</time></trkpt><trkpt lat="43.88182895247949" lon="12.555596618505952"><ele>172.0</ele><time>2026-04-25T09:06:52Z</time></trkpt><trkpt lat="43.88174418606338" lon="12.555503588511229"><ele>172.0</ele><time>2026-04-25T09:06:53Z</time></trkpt><trkpt lat="43.88166297404263" lon="12.55541072988274"><ele>172.0</ele><time>2026-04-25T09:06:54Z</time></trkpt><trkpt lat="43.881567043916526" lon="12.555327966046619"><ele>172.39999999999998</ele><time>2026-04-25T09:06:55Z</time></trkpt><trkpt lat="43.88148139740197" lon="12.55523770019727"><ele>172.79999999999998</ele><time>2026-04-25T09:06:56Z</time></trkpt><trkpt lat="43.881393025317834" lon="12.555140713615522"><ele>173.2</ele><time>2026-04-25T09:06:57Z</time></trkpt><trkpt lat="43.88129959346142" lon="12.555050294539477"><ele>173.6</ele><time>2026-04-25T09:06:58Z</time></trkpt><trkpt lat="43.88119817194898" lon="12.554976805273007"><ele>174.0</ele><time>2026-04-25T09:06:59Z</time></trkpt><trkpt lat="43.881084974153275" lon="12.554924391973966"><ele>174.0</ele><time>2026-04-25T09:07:00Z</time></trkpt><trkpt lat="43.88096385968704" lon="12.554897019209404"><ele>174.0</ele><time>2026-04-25T09:07:01Z</time></trkpt><trkpt lat="43.88084894073364" lon="12.554849520502918"><ele>174.0</ele><time>2026-04-25T09:07:02Z</time></trkpt><trkpt lat="43.88074089507496" lon="12.55482937125983"><ele>174.0</ele><time>2026-04-25T09:07:03Z</time></trkpt><trkpt lat="43.88065090971159" lon="12.554763399014414"><ele>175.6</ele><time>2026-04-25T09:07:04Z</time></trkpt><trkpt lat="43.88057019704246" lon="12.554668312053211"><ele>177.2</ele><time>2026-04-25T09:07:05Z</time></trkpt><trkpt lat="43.88050582434412" lon="12.5545544095689"><ele>178.79999999999998</ele><time>2026-04-25T09:07:06Z</time></trkpt><trkpt lat="43.88046080662365" lon="12.554425633716892"><ele>180.39999999999998</ele><time>2026-04-25T09:07:07Z</time></trkpt><trkpt lat="43.88044354814287" lon="12.554291447953238"><ele>182.0</ele><time>2026-04-25T09:07:08Z</time></trkpt><trkpt lat="43.88047438675288" lon="12.554153802008173"><ele>183.5</ele><time>2026-04-25T09:07:09Z</time></trkpt><trkpt lat="43.88053691118554" lon="12.55402568990394"><ele>185.0</ele><time>2026-04-25T09:07:10Z</time></trkpt><trkpt lat="43.880616668661645" lon="12.553893071514603"><ele>186.5</ele><time>2026-04-25T09:07:11Z</time></trkpt><trkpt lat="43.88069107801135" lon="12.553765862313577"><ele>188.0</ele><time>2026-04-25T09:07:12Z</time></trkpt><trkpt lat="43.880753214190705" lon="12.55364400602773"><ele>189.8</ele><time>2026-04-25T09:07:13Z</time></trkpt><trkpt lat="43.88079462955855" lon="12.553511997689807"><ele>191.60000000000002</ele><time>2026-04-25T09:07:14Z</time></trkpt><trkpt lat="43.88080372102115" lon="12.553377974814861"><ele>193.39999999999998</ele><time>2026-04-25T09:07:15Z</time></trkpt><trkpt lat="43.88078286997371" lon="12.553249828591087"><ele>195.2</ele><time>2026-04-25T09:07:16Z</time></trkpt><trkpt lat="43.88073572915967" lon="12.553128443997053"><ele>197.0</ele><time>2026-04-25T09:07:17Z</time></trkpt><trkpt lat="43.8806602125081" lon="12.553021137718778"><ele>197.0</ele><time>2026-04-25T09:07:18Z</time></trkpt><trkpt lat="43.88057264316223" lon="12.552905729753938"><ele>197.0</ele><time>2026-04-25T09:07:19Z</time></trkpt><trkpt lat="43.880489619312804" lon="12.552775818576826"><ele>197.0</ele><time>2026-04-25T09:07:20Z</time></trkpt><trkpt lat="43.88040517937005" lon="12.55264428297393"><ele>197.0</ele><time>2026-04-25T09:07:21Z</time></trkpt><trkpt lat="43.88031420529353" lon="12.552508399713373"><ele>196.5</ele><time>2026-04-25T09:07:22Z</time></trkpt><trkpt lat="43.88021950726233" lon="12.552369487996575"><ele>196.0</ele><time>2026-04-25T09:07:23Z</time></trkpt><trkpt lat="43.880129325103425" lon="12.552238877489987"><ele>195.5</ele><time>2026-04-25T09:07:24Z</time></trkpt><trkpt lat="43.88004682214437" lon="12.552113976018134"><ele>195.0</ele><time>2026-04-25T09:07:25Z</time></trkpt><trkpt lat="43.879969268587175" lon="12.5520024122043"><ele>197.0</ele><time>2026-04-25T09:07:26Z</time></trkpt><trkpt lat="43.87990747603757" lon="12.551894783862409"><ele>199.0</ele><time>2026-04-25T09:07:27Z</time></trkpt><trkpt lat="43.87981717996212" lon="12.551848236690743"><ele>201.0</ele><time>2026-04-25T09:07:28Z</time></trkpt><trkpt lat="43.87972984808998" lon="12.551807817945608"><ele>203.0</ele><time>2026-04-25T09:07:29Z</time></trkpt><trkpt lat="43.87963239970492" lon="12.551822425896978"><ele>205.0</ele><time>2026-04-25T09:07:30Z</time></trkpt><trkpt lat="43.87952639345729" lon="12.551860364388418"><ele>205.0</ele><time>2026-04-25T09:07:31Z</time></trkpt><trkpt lat="43.87942362961164" lon="12.551899001902544"><ele>205.0</ele><time>2026-04-25T09:07:32Z</time></trkpt><trkpt lat="43.87930833626104" lon="12.551925276869056"><ele>205.0</ele><time>2026-04-25T09:07:33Z</time></trkpt><trkpt lat="43.87919295803629" lon="12.551958493031172"><ele>205.0</ele><time>2026-04-25T09:07:34Z</time></trkpt><trkpt lat="43.879078494385254" lon="12.551985473424546"><ele>207.25</ele><time>2026-04-25T09:07:35Z</time></trkpt><trkpt lat="43.878957721005946" lon="12.551999797311595"><ele>209.5</ele><time>2026-04-25T09:07:36Z</time></trkpt><trkpt lat="43.878836064412994" lon="12.552003324024712"><ele>211.75</ele><time>2026-04-25T09:07:37Z</time></trkpt><trkpt lat="43.87870796716334" lon="12.551995236812758"><ele>214.0</ele><time>2026-04-25T09:07:38Z</time></trkpt><trkpt lat="43.87857364202999" lon="12.551971892846069"><ele>214.0</ele><time>2026-04-25T09:07:39Z</time></trkpt><trkpt lat="43.87843682636965" lon="12.551945405345394"><ele>214.0</ele><time>2026-04-25T09:07:40Z</time></trkpt><trkpt lat="43.87830125707433" lon="12.55191990146523"><ele>214.0</ele><time>2026-04-25T09:07:41Z</time></trkpt><trkpt lat="43.87818522381431" lon="12.551897913353015"><ele>214.0</ele><time>2026-04-25T09:07:42Z</time></trkpt><trkpt lat="43.878075735395655" lon="12.551871329704165"><ele>216.25</ele><time>2026-04-25T09:07:43Z</time></trkpt><trkpt lat="43.87796696971866" lon="12.551853239791491"><ele>218.5</ele><time>2026-04-25T09:07:44Z</time></trkpt><trkpt lat="43.87785887748339" lon="12.551862518579169"><ele>220.75</ele><time>2026-04-25T09:07:45Z</time></trkpt><trkpt lat="43.877741833604524" lon="12.551899343120338"><ele>223.0</ele><time>2026-04-25T09:07:46Z</time></trkpt><trkpt lat="43.8776146840083" lon="12.551939893795915"><ele>225.0</ele><time>2026-04-25T09:07:47Z</time></trkpt><trkpt lat="43.87748053155626" lon="12.551975770951087"><ele>227.0</ele><time>2026-04-25T09:07:48Z</time></trkpt><trkpt lat="43.87733409162602" lon="12.5520149292007"><ele>229.0</ele><time>2026-04-25T09:07:49Z</time></trkpt><trkpt lat="43.877180894983155" lon="12.552052305794312"><ele>231.0</ele><time>2026-04-25T09:07:50Z</time></trkpt><trkpt lat="43.87702302601376" lon="12.552088334182862"><ele>232.0</ele><time>2026-04-25T09:07:51Z</time></trkpt><trkpt lat="43.87686118954718" lon="12.552119574022845"><ele>233.0</ele><time>2026-04-25T09:07:52Z</time></trkpt><trkpt lat="43.876700060207106" lon="12.552114147126364"><ele>234.0</ele><time>2026-04-25T09:07:53Z</time></trkpt><trkpt lat="43.87654304214149" lon="12.552111081801058"><ele>236.0</ele><time>2026-04-25T09:07:54Z</time></trkpt><trkpt lat="43.87639471015195" lon="12.552098737802794"><ele>238.0</ele><time>2026-04-25T09:07:55Z</time></trkpt><trkpt lat="43.876248544607414" lon="12.552110035299453"><ele>240.0</ele><time>2026-04-25T09:07:56Z</time></trkpt><trkpt lat="43.876108163685736" lon="12.552110199479088"><ele>242.0</ele><time>2026-04-25T09:07:57Z</time></trkpt><trkpt lat="43.87596635921304" lon="12.552088702721747"><ele>244.5</ele><time>2026-04-25T09:07:58Z</time></trkpt><trkpt lat="43.87582367171618" lon="12.55209097372722"><ele>247.0</ele><time>2026-04-25T09:07:59Z</time></trkpt><trkpt lat="43.87567816395986" lon="12.552108542497566"><ele>249.5</ele><time>2026-04-25T09:08:00Z</time></trkpt><trkpt lat="43.87553842641324" lon="12.552137847829176"><ele>252.0</ele><time>2026-04-25T09:08:01Z</time></trkpt><trkpt lat="43.87539461009909" lon="12.552172439772079"><ele>252.0</ele><time>2026-04-25T09:08:02Z</time></trkpt><trkpt lat="43.875259306827886" lon="12.552231774353292"><ele>252.0</ele><time>2026-04-25T09:08:03Z</time></trkpt><trkpt lat="43.87512031419697" lon="12.552244129993323"><ele>252.0</ele><time>2026-04-25T09:08:04Z</time></trkpt><trkpt lat="43.87499195231321" lon="12.55226120790845"><ele>252.0</ele><time>2026-04-25T09:08:05Z</time></trkpt><trkpt lat="43.874863601918506" lon="12.552262213665625"><ele>255.0</ele><time>2026-04-25T09:08:06Z</time></trkpt><trkpt lat="43.87472852005779" lon="12.552245013411493"><ele>258.0</ele><time>2026-04-25T09:08:07Z</time></trkpt><trkpt lat="43.874590680621914" lon="12.552212676820561"><ele>261.0</ele><time>2026-04-25T09:08:08Z</time></trkpt><trkpt lat="43.8744512112011" lon="12.55217207066478"><ele>264.0</ele><time>2026-04-25T09:08:09Z</time></trkpt><trkpt lat="43.87432145604636" lon="12.552124111743105"><ele>264.75</ele><time>2026-04-25T09:08:10Z</time></trkpt><trkpt lat="43.874201577970396" lon="12.552093039657832"><ele>265.5</ele><time>2026-04-25T09:08:11Z</time></trkpt><trkpt lat="43.87408873656535" lon="12.552031671685766"><ele>266.25</ele><time>2026-04-25T09:08:12Z</time></trkpt><trkpt lat="43.873979344756414" lon="12.551954981715323"><ele>267.0</ele><time>2026-04-25T09:08:13Z</time></trkpt><trkpt lat="43.873885244624226" lon="12.551837484210779"><ele>269.6666666666667</ele><time>2026-04-25T09:08:14Z</time></trkpt><trkpt lat="43.87376156867269" lon="12.551727713476216"><ele>272.33333333333337</ele><time>2026-04-25T09:08:15Z</time></trkpt><trkpt lat="43.87364215334643" lon="12.55158948000689"><ele>275.0</ele><time>2026-04-25T09:08:16Z</time></trkpt><trkpt lat="43.87351567017392" lon="12.551445303497182"><ele>276.33333333333337</ele><time>2026-04-25T09:08:17Z</time></trkpt><trkpt lat="43.873376577261055" lon="12.551299164930132"><ele>277.6666666666667</ele><time>2026-04-25T09:08:18Z</time></trkpt><trkpt lat="43.87325260162732" lon="12.551173907591574"><ele>279.0</ele><time>2026-04-25T09:08:19Z</time></trkpt><trkpt lat="43.87312758828054" lon="12.551050677177798"><ele>279.75</ele><time>2026-04-25T09:08:20Z</time></trkpt><trkpt lat="43.873004896140365" lon="12.550928906200019"><ele>280.5</ele><time>2026-04-25T09:08:21Z</time></trkpt><trkpt lat="43.87289856692206" lon="12.550799458931284"><ele>281.25</ele><time>2026-04-25T09:08:22Z</time></trkpt><trkpt lat="43.8728041303962" lon="12.550634530748054"><ele>282.0</ele><time>2026-04-25T09:08:23Z</time></trkpt><trkpt lat="43.87271105756201" lon="12.55045028296423"><ele>282.25</ele><time>2026-04-25T09:08:24Z</time></trkpt><trkpt lat="43.87262030362078" lon="12.550264626797256"><ele>282.5</ele><time>2026-04-25T09:08:25Z</time></trkpt><trkpt lat="43.87254077005215" lon="12.550086346104484"><ele>282.75</ele><time>2026-04-25T09:08:26Z</time></trkpt><trkpt lat="43.872477569428746" lon="12.54992614280924"><ele>283.0</ele><time>2026-04-25T09:08:27Z</time></trkpt><trkpt lat="43.8724398037327" lon="12.549760339442003"><ele>287.0</ele><time>2026-04-25T09:08:28Z</time></trkpt><trkpt lat="43.872429466359534" lon="12.549577422124186"><ele>291.0</ele><time>2026-04-25T09:08:29Z</time></trkpt><trkpt lat="43.87242776213523" lon="12.549385243271505"><ele>295.0</ele><time>2026-04-25T09:08:30Z</time></trkpt><trkpt lat="43.872432540130276" lon="12.549200374447127"><ele>299.0</ele><time>2026-04-25T09:08:31Z</time></trkpt><trkpt lat="43.872449291041235" lon="12.549033485642429"><ele>298.0</ele><time>2026-04-25T09:08:32Z</time></trkpt><trkpt lat="43.87247345234854" lon="12.548899926661214"><ele>297.0</ele><time>2026-04-25T09:08:33Z</time></trkpt><trkpt lat="43.87250239647033" lon="12.548779876186636"><ele>296.0</ele><time>2026-04-25T09:08:34Z</time></trkpt><trkpt lat="43.87253951721887" lon="12.548667408985818"><ele>295.0</ele><time>2026-04-25T09:08:35Z</time></trkpt><trkpt lat="43.87258806724941" lon="12.54856442224052"><ele>294.0</ele><time>2026-04-25T09:08:36Z</time></trkpt><trkpt lat="43.87264491628453" lon="12.548452733620492"><ele>294.0</ele><time>2026-04-25T09:08:37Z</time></trkpt><trkpt lat="43.872714404320384" lon="12.548334343796924"><ele>294.0</ele><time>2026-04-25T09:08:38Z</time></trkpt><trkpt lat="43.87279859440386" lon="12.548215371733237"><ele>294.0</ele><time>2026-04-25T09:08:39Z</time></trkpt><trkpt lat="43.87288324416826" lon="12.548081031721502"><ele>294.0</ele><time>2026-04-25T09:08:40Z</time></trkpt><trkpt lat="43.87296373822334" lon="12.547929372788758"><ele>295.0</ele><time>2026-04-25T09:08:41Z</time></trkpt><trkpt lat="43.873021607363235" lon="12.54777694705639"><ele>296.0</ele><time>2026-04-25T09:08:42Z</time></trkpt><trkpt lat="43.87305058498539" lon="12.547617174770764"><ele>297.0</ele><time>2026-04-25T09:08:43Z</time></trkpt><trkpt lat="43.87306784939378" lon="12.547443058512984"><ele>298.0</ele><time>2026-04-25T09:08:44Z</time></trkpt><trkpt lat="43.87307920513388" lon="12.547270222896984"><ele>298.0</ele><time>2026-04-25T09:08:45Z</time></trkpt><trkpt lat="43.873088945949284" lon="12.54711284250254"><ele>298.0</ele><time>2026-04-25T09:08:46Z</time></trkpt><trkpt lat="43.87310256947857" lon="12.546960926769298"><ele>298.0</ele><time>2026-04-25T09:08:47Z</time></trkpt><trkpt lat="43.87311718564307" lon="12.546806430784308"><ele>298.0</ele><time>2026-04-25T09:08:48Z</time></trkpt><trkpt lat="43.87310423833496" lon="12.546653513245193"><ele>298.0</ele><time>2026-04-25T09:08:49Z</time></trkpt><trkpt lat="43.87306524406024" lon="12.54650767637913"><ele>299.66666666666663</ele><time>2026-04-25T09:08:50Z</time></trkpt><trkpt lat="43.87303924769843" lon="12.54636719728967"><ele>301.3333333333333</ele><time>2026-04-25T09:08:51Z</time></trkpt><trkpt lat="43.87302549599651" lon="12.54623402732527"><ele>303.0</ele><time>2026-04-25T09:08:52Z</time></trkpt><trkpt lat="43.87302280740978" lon="12.546113664083146"><ele>304.6666666666667</ele><time>2026-04-25T09:08:53Z</time></trkpt><trkpt lat="43.87302448557303" lon="12.54600373266489"><ele>306.33333333333337</ele><time>2026-04-25T09:08:54Z</time></trkpt><trkpt lat="43.87302152888137" lon="12.545914377570044"><ele>308.0</ele><time>2026-04-25T09:08:55Z</time></trkpt><trkpt lat="43.87301424860549" lon="12.545813878921196"><ele>309.75</ele><time>2026-04-25T09:08:57Z</time></trkpt><trkpt lat="43.8728484480913" lon="12.545734277106098"><ele>311.5</ele><time>2026-04-25T09:09:04Z</time></trkpt><trkpt lat="43.872778629987266" lon="12.545763906608556"><ele>313.25</ele><time>2026-04-25T09:09:08Z</time></trkpt><trkpt lat="43.87290740894124" lon="12.545709255128175"><ele>315.0</ele><time>2026-04-25T09:09:21Z</time></trkpt><trkpt lat="43.872830525197315" lon="12.545739157683354"><ele>315.0</ele><time>2026-04-25T09:09:45Z</time></trkpt><trkpt lat="43.87276856700644" lon="12.545760495125542"><ele>315.0</ele><time>2026-04-25T09:09:46Z</time></trkpt><trkpt lat="43.87270245573992" lon="12.54577781083515"><ele>315.0</ele><time>2026-04-25T09:09:47Z</time></trkpt><trkpt lat="43.87263823979337" lon="12.545805081729341"><ele>315.0</ele><time>2026-04-25T09:09:48Z</time></trkpt><trkpt lat="43.87256544413935" lon="12.545834428134457"><ele>315.0</ele><time>2026-04-25T09:09:49Z</time></trkpt><trkpt lat="43.87250184021095" lon="12.545863889809885"><ele>315.0</ele><time>2026-04-25T09:09:50Z</time></trkpt><trkpt lat="43.87240500555038" lon="12.54584637533878"><ele>315.0</ele><time>2026-04-25T09:09:52Z</time></trkpt><trkpt lat="43.87232871043978" lon="12.545835105284656"><ele>317.8</ele><time>2026-04-25T09:09:55Z</time></trkpt><trkpt lat="43.8722714861072" lon="12.545771877421739"><ele>320.6</ele><time>2026-04-25T09:09:57Z</time></trkpt><trkpt lat="43.87223908491703" lon="12.545676028382276"><ele>323.4</ele><time>2026-04-25T09:10:00Z</time></trkpt><trkpt lat="43.872189065920125" lon="12.545563618171391"><ele>326.2</ele><time>2026-04-25T09:10:02Z</time></trkpt><trkpt lat="43.872128069467955" lon="12.545405904097816"><ele>329.0</ele><time>2026-04-25T09:10:04Z</time></trkpt><trkpt lat="43.872042558532186" lon="12.545343220556019"><ele>329.0</ele><time>2026-04-25T09:10:06Z</time></trkpt><trkpt lat="43.87194379842996" lon="12.545314929552601"><ele>329.0</ele><time>2026-04-25T09:10:08Z</time></trkpt><trkpt lat="43.87184690996764" lon="12.5453322505878"><ele>329.0</ele><time>2026-04-25T09:10:10Z</time></trkpt><trkpt lat="43.87177561709606" lon="12.545377811315767"><ele>329.0</ele><time>2026-04-25T09:10:12Z</time></trkpt><trkpt lat="43.87169033813272" lon="12.545463154934039"><ele>329.0</ele><time>2026-04-25T09:10:14Z</time></trkpt><trkpt lat="43.87160752862248" lon="12.545539836231342"><ele>331.6</ele><time>2026-04-25T09:10:16Z</time></trkpt><trkpt lat="43.87152450672325" lon="12.545614655560104"><ele>334.2</ele><time>2026-04-25T09:10:18Z</time></trkpt><trkpt lat="43.87143459142988" lon="12.545663036228692"><ele>336.8</ele><time>2026-04-25T09:10:20Z</time></trkpt><trkpt lat="43.871496639830326" lon="12.545622853809622"><ele>339.40000000000003</ele><time>2026-04-25T09:10:34Z</time></trkpt><trkpt lat="43.87157742603712" lon="12.545572325486969"><ele>342.0</ele><time>2026-04-25T09:10:36Z</time></trkpt><trkpt lat="43.871662714104744" lon="12.545499024816388"><ele>342.0</ele><time>2026-04-25T09:10:38Z</time></trkpt><trkpt lat="43.871747451569995" lon="12.545410270557104"><ele>342.0</ele><time>2026-04-25T09:10:40Z</time></trkpt><trkpt lat="43.87184149255684" lon="12.545343022111776"><ele>342.0</ele><time>2026-04-25T09:10:42Z</time></trkpt><trkpt lat="43.87193333920478" lon="12.545309219987065"><ele>342.0</ele><time>2026-04-25T09:10:44Z</time></trkpt><trkpt lat="43.8720270195427" lon="12.545336250835788"><ele>342.0</ele><time>2026-04-25T09:10:46Z</time></trkpt><trkpt lat="43.87209972915414" lon="12.545379709254862"><ele>340.0</ele><time>2026-04-25T09:10:48Z</time></trkpt><trkpt lat="43.87216469246671" lon="12.545448331552805"><ele>338.0</ele><time>2026-04-25T09:10:50Z</time></trkpt><trkpt lat="43.87224456870026" lon="12.545488900068055"><ele>336.0</ele><time>2026-04-25T09:10:52Z</time></trkpt><trkpt lat="43.87222871049706" lon="12.545596754200519"><ele>334.0</ele><time>2026-04-25T09:10:53Z</time></trkpt><trkpt lat="43.872252271352174" lon="12.545697547870937"><ele>332.0</ele><time>2026-04-25T09:10:55Z</time></trkpt><trkpt lat="43.8722854011978" lon="12.54578020341606"><ele>330.0</ele><time>2026-04-25T09:11:05Z</time></trkpt><trkpt lat="43.87230875187842" lon="12.545864430358078"><ele>330.0</ele><time>2026-04-25T09:11:07Z</time></trkpt><trkpt lat="43.87237929097771" lon="12.545866442220365"><ele>330.0</ele><time>2026-04-25T09:11:09Z</time></trkpt><trkpt lat="43.87245897141913" lon="12.545868889334404"><ele>330.0</ele><time>2026-04-25T09:11:11Z</time></trkpt><trkpt lat="43.872558316945764" lon="12.545889157619563"><ele>330.0</ele><time>2026-04-25T09:11:13Z</time></trkpt><trkpt lat="43.87264583079144" lon="12.545863161866231"><ele>330.0</ele><time>2026-04-25T09:11:15Z</time></trkpt><trkpt lat="43.87273627582055" lon="12.54582780312659"><ele>330.0</ele><time>2026-04-25T09:11:17Z</time></trkpt><trkpt lat="43.872814622743725" lon="12.545775687225262"><ele>327.5</ele><time>2026-04-25T09:11:19Z</time></trkpt><trkpt lat="43.87288118250598" lon="12.545755072148864"><ele>325.0</ele><time>2026-04-25T09:11:21Z</time></trkpt><trkpt lat="43.872945689840925" lon="12.545721376407872"><ele>322.5</ele><time>2026-04-25T09:11:26Z</time></trkpt><trkpt lat="43.87299055664007" lon="12.545586612439967"><ele>320.0</ele><time>2026-04-25T09:11:28Z</time></trkpt><trkpt lat="43.87297794256539" lon="12.545479657765748"><ele>317.5</ele><time>2026-04-25T09:11:29Z</time></trkpt><trkpt lat="43.87294287123603" lon="12.545357352110504"><ele>315.0</ele><time>2026-04-25T09:11:30Z</time></trkpt><trkpt lat="43.87292623864928" lon="12.545226236583328"><ele>314.0</ele><time>2026-04-25T09:11:31Z</time></trkpt><trkpt lat="43.872903035638615" lon="12.54509955046888"><ele>313.0</ele><time>2026-04-25T09:11:32Z</time></trkpt><trkpt lat="43.872868557225566" lon="12.544966971999438"><ele>312.0</ele><time>2026-04-25T09:11:33Z</time></trkpt><trkpt lat="43.87283187419733" lon="12.544828023847437"><ele>311.0</ele><time>2026-04-25T09:11:34Z</time></trkpt><trkpt lat="43.87280355572146" lon="12.544682292368966"><ele>310.0</ele><time>2026-04-25T09:11:35Z</time></trkpt><trkpt lat="43.872773404125866" lon="12.54453056984358"><ele>309.2</ele><time>2026-04-25T09:11:36Z</time></trkpt><trkpt lat="43.87275006219222" lon="12.544379180659819"><ele>308.4</ele><time>2026-04-25T09:11:37Z</time></trkpt><trkpt lat="43.87272471907976" lon="12.544240225112013"><ele>307.6</ele><time>2026-04-25T09:11:38Z</time></trkpt><trkpt lat="43.87271046331626" lon="12.54409722997593"><ele>306.8</ele><time>2026-04-25T09:11:39Z</time></trkpt><trkpt lat="43.87268625366149" lon="12.543961464549605"><ele>306.0</ele><time>2026-04-25T09:11:40Z</time></trkpt><trkpt lat="43.87267085253035" lon="12.543843669221173"><ele>306.0</ele><time>2026-04-25T09:11:41Z</time></trkpt><trkpt lat="43.87265162818465" lon="12.54373127675084"><ele>306.0</ele><time>2026-04-25T09:11:42Z</time></trkpt><trkpt lat="43.87262511199175" lon="12.543617656247102"><ele>306.0</ele><time>2026-04-25T09:11:43Z</time></trkpt><trkpt lat="43.87260075111937" lon="12.543497928721878"><ele>306.0</ele><time>2026-04-25T09:11:44Z</time></trkpt><trkpt lat="43.87256155565533" lon="12.543376584726891"><ele>306.0</ele><time>2026-04-25T09:11:45Z</time></trkpt><trkpt lat="43.87251863639094" lon="12.543245316188692"><ele>306.6</ele><time>2026-04-25T09:11:46Z</time></trkpt><trkpt lat="43.87247145750534" lon="12.543117626878871"><ele>307.20000000000005</ele><time>2026-04-25T09:11:47Z</time></trkpt><trkpt lat="43.872408883280805" lon="12.542996376859206"><ele>307.79999999999995</ele><time>2026-04-25T09:11:48Z</time></trkpt><trkpt lat="43.87234405980551" lon="12.542872523153578"><ele>308.4</ele><time>2026-04-25T09:11:49Z</time></trkpt><trkpt lat="43.87227349422332" lon="12.542750362859469"><ele>309.0</ele><time>2026-04-25T09:11:50Z</time></trkpt><trkpt lat="43.87219629344091" lon="12.542632805386074"><ele>309.0</ele><time>2026-04-25T09:11:51Z</time></trkpt><trkpt lat="43.872115568096866" lon="12.542509669402408"><ele>309.0</ele><time>2026-04-25T09:11:52Z</time></trkpt><trkpt lat="43.87203604723566" lon="12.542403055274496"><ele>309.0</ele><time>2026-04-25T09:11:53Z</time></trkpt><trkpt lat="43.87194889951567" lon="12.542333758816744"><ele>309.0</ele><time>2026-04-25T09:11:54Z</time></trkpt><trkpt lat="43.87185530747761" lon="12.54227471258451"><ele>309.0</ele><time>2026-04-25T09:11:55Z</time></trkpt><trkpt lat="43.871742526652696" lon="12.542308327482267"><ele>312.2</ele><time>2026-04-25T09:11:56Z</time></trkpt><trkpt lat="43.87163878021539" lon="12.54234092625404"><ele>315.4</ele><time>2026-04-25T09:11:57Z</time></trkpt><trkpt lat="43.87152383458495" lon="12.54235291032639"><ele>318.6</ele><time>2026-04-25T09:11:58Z</time></trkpt><trkpt lat="43.87141552674681" lon="12.542375662266588"><ele>321.8</ele><time>2026-04-25T09:11:59Z</time></trkpt><trkpt lat="43.87133728516986" lon="12.542375820220531"><ele>325.0</ele><time>2026-04-25T09:12:00Z</time></trkpt><trkpt lat="43.87127362868405" lon="12.542354619915416"><ele>325.0</ele><time>2026-04-25T09:12:01Z</time></trkpt><trkpt lat="43.87118560188025" lon="12.542254928759991"><ele>325.0</ele><time>2026-04-25T09:12:03Z</time></trkpt><trkpt lat="43.87118977944184" lon="12.542153622251574"><ele>325.0</ele><time>2026-04-25T09:12:04Z</time></trkpt><trkpt lat="43.871228758517034" lon="12.54204153087136"><ele>325.0</ele><time>2026-04-25T09:12:05Z</time></trkpt><trkpt lat="43.871274583934344" lon="12.54193737035761"><ele>325.0</ele><time>2026-04-25T09:12:06Z</time></trkpt><trkpt lat="43.87130992996085" lon="12.541811807074788"><ele>325.5</ele><time>2026-04-25T09:12:07Z</time></trkpt><trkpt lat="43.87133275787898" lon="12.541702265704263"><ele>326.0</ele><time>2026-04-25T09:12:08Z</time></trkpt><trkpt lat="43.87132066894643" lon="12.54161314735557"><ele>326.5</ele><time>2026-04-25T09:12:09Z</time></trkpt><trkpt lat="43.87128929777361" lon="12.541531583662563"><ele>327.0</ele><time>2026-04-25T09:12:10Z</time></trkpt><trkpt lat="43.871163887668715" lon="12.541471590837693"><ele>327.5</ele><time>2026-04-25T09:12:12Z</time></trkpt><trkpt lat="43.871076042118524" lon="12.541494592055054"><ele>328.0</ele><time>2026-04-25T09:12:13Z</time></trkpt><trkpt lat="43.87100439358919" lon="12.541594220722091"><ele>331.16666666666663</ele><time>2026-04-25T09:12:14Z</time></trkpt><trkpt lat="43.870921283377434" lon="12.541681458993882"><ele>334.3333333333333</ele><time>2026-04-25T09:12:15Z</time></trkpt><trkpt lat="43.87084297385228" lon="12.54175523081614"><ele>337.5</ele><time>2026-04-25T09:12:16Z</time></trkpt><trkpt lat="43.87076262003293" lon="12.541792592413367"><ele>340.6666666666667</ele><time>2026-04-25T09:12:17Z</time></trkpt><trkpt lat="43.87069542728664" lon="12.541787960070172"><ele>343.83333333333337</ele><time>2026-04-25T09:12:18Z</time></trkpt><trkpt lat="43.870639023414554" lon="12.541745084866013"><ele>347.0</ele><time>2026-04-25T09:12:19Z</time></trkpt><trkpt lat="43.87059101518565" lon="12.541667014413175"><ele>347.0</ele><time>2026-04-25T09:12:20Z</time></trkpt><trkpt lat="43.870573136374475" lon="12.541547861107263"><ele>347.0</ele><time>2026-04-25T09:12:21Z</time></trkpt><trkpt lat="43.87057530545064" lon="12.541403092234324"><ele>347.0</ele><time>2026-04-25T09:12:22Z</time></trkpt><trkpt lat="43.87058482604707" lon="12.541249843492347"><ele>347.0</ele><time>2026-04-25T09:12:23Z</time></trkpt><trkpt lat="43.870598448292846" lon="12.541081787434436"><ele>347.0</ele><time>2026-04-25T09:12:24Z</time></trkpt><trkpt lat="43.87061667033923" lon="12.54090231305795"><ele>348.5</ele><time>2026-04-25T09:12:25Z</time></trkpt><trkpt lat="43.87062857305882" lon="12.540723472555182"><ele>350.0</ele><time>2026-04-25T09:12:26Z</time></trkpt><trkpt lat="43.870628775236476" lon="12.540546547511031"><ele>351.5</ele><time>2026-04-25T09:12:27Z</time></trkpt><trkpt lat="43.87062088815297" lon="12.540366189198224"><ele>353.0</ele><time>2026-04-25T09:12:28Z</time></trkpt><trkpt lat="43.87061371639608" lon="12.54018132234157"><ele>354.0</ele><time>2026-04-25T09:12:29Z</time></trkpt><trkpt lat="43.870607973298966" lon="12.539988295299924"><ele>355.0</ele><time>2026-04-25T09:12:30Z</time></trkpt><trkpt lat="43.8705990767275" lon="12.53979810857374"><ele>356.0</ele><time>2026-04-25T09:12:31Z</time></trkpt><trkpt lat="43.870586231946476" lon="12.53961633316348"><ele>357.0</ele><time>2026-04-25T09:12:32Z</time></trkpt><trkpt lat="43.87058359983305" lon="12.539459818535365"><ele>357.40000000000003</ele><time>2026-04-25T09:12:33Z</time></trkpt><trkpt lat="43.87059432628888" lon="12.539309652463393"><ele>357.8</ele><time>2026-04-25T09:12:34Z</time></trkpt><trkpt lat="43.87063274826276" lon="12.53916142490003"><ele>358.2</ele><time>2026-04-25T09:12:35Z</time></trkpt><trkpt lat="43.87069578235961" lon="12.539051731757331"><ele>358.6</ele><time>2026-04-25T09:12:36Z</time></trkpt><trkpt lat="43.87076551174263" lon="12.538975201607913"><ele>359.0</ele><time>2026-04-25T09:12:37Z</time></trkpt><trkpt lat="43.87085188899284" lon="12.538918197938468"><ele>358.5</ele><time>2026-04-25T09:12:38Z</time></trkpt><trkpt lat="43.87095555384381" lon="12.53889045097528"><ele>358.0</ele><time>2026-04-25T09:12:39Z</time></trkpt><trkpt lat="43.87106407548098" lon="12.538871683793106"><ele>357.5</ele><time>2026-04-25T09:12:40Z</time></trkpt><trkpt lat="43.87117976259139" lon="12.538865069635484"><ele>357.0</ele><time>2026-04-25T09:12:41Z</time></trkpt><trkpt lat="43.87129925024844" lon="12.538869578409003"><ele>357.0</ele><time>2026-04-25T09:12:42Z</time></trkpt><trkpt lat="43.87142456066007" lon="12.538868801720467"><ele>357.0</ele><time>2026-04-25T09:12:43Z</time></trkpt><trkpt lat="43.871553512628125" lon="12.538867796849523"><ele>357.0</ele><time>2026-04-25T09:12:44Z</time></trkpt><trkpt lat="43.871681869173734" lon="12.53886423150055"><ele>357.0</ele><time>2026-04-25T09:12:45Z</time></trkpt><trkpt lat="43.871809783707846" lon="12.538851399230797"><ele>355.5</ele><time>2026-04-25T09:12:46Z</time></trkpt><trkpt lat="43.871930623189726" lon="12.53882777973157"><ele>354.0</ele><time>2026-04-25T09:12:47Z</time></trkpt><trkpt lat="43.87205628671269" lon="12.538797738642215"><ele>352.5</ele><time>2026-04-25T09:12:48Z</time></trkpt><trkpt lat="43.87218319207395" lon="12.538759580616137"><ele>351.0</ele><time>2026-04-25T09:12:49Z</time></trkpt><trkpt lat="43.872314375286386" lon="12.538716585510215"><ele>351.0</ele><time>2026-04-25T09:12:50Z</time></trkpt><trkpt lat="43.87244568340199" lon="12.538670764432911"><ele>351.0</ele><time>2026-04-25T09:12:51Z</time></trkpt><trkpt lat="43.87257888510713" lon="12.538621952962705"><ele>351.0</ele><time>2026-04-25T09:12:52Z</time></trkpt><trkpt lat="43.872713220465975" lon="12.538565559506676"><ele>351.0</ele><time>2026-04-25T09:12:53Z</time></trkpt><trkpt lat="43.87284910945425" lon="12.538511813566164"><ele>351.0</ele><time>2026-04-25T09:12:54Z</time></trkpt><trkpt lat="43.87298941364679" lon="12.53846846849464"><ele>351.0</ele><time>2026-04-25T09:12:55Z</time></trkpt><trkpt lat="43.8731307462321" lon="12.53843890765322"><ele>351.0</ele><time>2026-04-25T09:12:56Z</time></trkpt><trkpt lat="43.87327431558977" lon="12.53841373296236"><ele>351.0</ele><time>2026-04-25T09:12:57Z</time></trkpt><trkpt lat="43.873417706921884" lon="12.53838445672952"><ele>346.6666666666667</ele><time>2026-04-25T09:12:58Z</time></trkpt><trkpt lat="43.873567187055414" lon="12.538357917772949"><ele>342.33333333333337</ele><time>2026-04-25T09:12:59Z</time></trkpt><trkpt lat="43.87372003958904" lon="12.538326732433976"><ele>338.0</ele><time>2026-04-25T09:13:00Z</time></trkpt><trkpt lat="43.8738733688033" lon="12.538296584792876"><ele>338.0</ele><time>2026-04-25T09:13:01Z</time></trkpt><trkpt lat="43.87403089584439" lon="12.538267343067732"><ele>338.0</ele><time>2026-04-25T09:13:02Z</time></trkpt><trkpt lat="43.87419104088401" lon="12.538257983156237"><ele>338.0</ele><time>2026-04-25T09:13:03Z</time></trkpt><trkpt lat="43.87435075155536" lon="12.53822777939064"><ele>336.0</ele><time>2026-04-25T09:13:04Z</time></trkpt><trkpt lat="43.874507841793296" lon="12.538173329987401"><ele>334.0</ele><time>2026-04-25T09:13:05Z</time></trkpt><trkpt lat="43.87466575086342" lon="12.538141213800163"><ele>332.0</ele><time>2026-04-25T09:13:06Z</time></trkpt><trkpt lat="43.874824222837155" lon="12.538110302660515"><ele>332.0</ele><time>2026-04-25T09:13:07Z</time></trkpt><trkpt lat="43.87498583325621" lon="12.538086645173232"><ele>332.0</ele><time>2026-04-25T09:13:08Z</time></trkpt><trkpt lat="43.87514453048279" lon="12.538063205124233"><ele>332.0</ele><time>2026-04-25T09:13:09Z</time></trkpt><trkpt lat="43.87529681813606" lon="12.538041980266032"><ele>330.0</ele><time>2026-04-25T09:13:10Z</time></trkpt><trkpt lat="43.87543835576419" lon="12.53802299316039"><ele>328.0</ele><time>2026-04-25T09:13:11Z</time></trkpt><trkpt lat="43.87557338481531" lon="12.53800291615994"><ele>326.0</ele><time>2026-04-25T09:13:12Z</time></trkpt><trkpt lat="43.875708092547725" lon="12.537982400187069"><ele>324.0</ele><time>2026-04-25T09:13:13Z</time></trkpt><trkpt lat="43.87584111716617" lon="12.53796410296851"><ele>322.25</ele><time>2026-04-25T09:13:14Z</time></trkpt><trkpt lat="43.87597555027964" lon="12.537945905719658"><ele>320.5</ele><time>2026-04-25T09:13:15Z</time></trkpt><trkpt lat="43.87611125276419" lon="12.537931897927646"><ele>318.75</ele><time>2026-04-25T09:13:16Z</time></trkpt><trkpt lat="43.876245994874395" lon="12.537918759995533"><ele>317.0</ele><time>2026-04-25T09:13:17Z</time></trkpt><trkpt lat="43.87637792627107" lon="12.537900968591325"><ele>317.0</ele><time>2026-04-25T09:13:18Z</time></trkpt><trkpt lat="43.87650714653405" lon="12.537888201883689"><ele>317.0</ele><time>2026-04-25T09:13:19Z</time></trkpt><trkpt lat="43.876635106596666" lon="12.537879544883959"><ele>317.0</ele><time>2026-04-25T09:13:20Z</time></trkpt><trkpt lat="43.876763787381755" lon="12.537868993541524"><ele>317.0</ele><time>2026-04-25T09:13:21Z</time></trkpt><trkpt lat="43.87689400666878" lon="12.537858446391192"><ele>315.25</ele><time>2026-04-25T09:13:22Z</time></trkpt><trkpt lat="43.877025273784945" lon="12.537847605735587"><ele>313.5</ele><time>2026-04-25T09:13:23Z</time></trkpt><trkpt lat="43.877159797897924" lon="12.53783640624877"><ele>311.75</ele><time>2026-04-25T09:13:24Z</time></trkpt><trkpt lat="43.877292221570265" lon="12.537824418873779"><ele>310.0</ele><time>2026-04-25T09:13:25Z</time></trkpt><trkpt lat="43.877425104100105" lon="12.537808272757093"><ele>310.0</ele><time>2026-04-25T09:13:26Z</time></trkpt><trkpt lat="43.87755822475658" lon="12.537786654915019"><ele>310.0</ele><time>2026-04-25T09:13:27Z</time></trkpt><trkpt lat="43.87769265720871" lon="12.537777740734146"><ele>310.0</ele><time>2026-04-25T09:13:28Z</time></trkpt><trkpt lat="43.87782250031778" lon="12.537730388540837"><ele>310.0</ele><time>2026-04-25T09:13:29Z</time></trkpt><trkpt lat="43.87795571616058" lon="12.537710420917529"><ele>309.75</ele><time>2026-04-25T09:13:30Z</time></trkpt><trkpt lat="43.878087898389424" lon="12.537689373605442"><ele>309.5</ele><time>2026-04-25T09:13:31Z</time></trkpt><trkpt lat="43.87822339880422" lon="12.537668436324184"><ele>309.25</ele><time>2026-04-25T09:13:32Z</time></trkpt><trkpt lat="43.87836146242454" lon="12.53766348447454"><ele>309.0</ele><time>2026-04-25T09:13:33Z</time></trkpt><trkpt lat="43.87849893104803" lon="12.537618092390382"><ele>307.75</ele><time>2026-04-25T09:13:34Z</time></trkpt><trkpt lat="43.878639039904115" lon="12.537562342700767"><ele>306.5</ele><time>2026-04-25T09:13:35Z</time></trkpt><trkpt lat="43.878784113217456" lon="12.537510654796552"><ele>305.25</ele><time>2026-04-25T09:13:36Z</time></trkpt><trkpt lat="43.87892894891898" lon="12.537463241007877"><ele>304.0</ele><time>2026-04-25T09:13:37Z</time></trkpt><trkpt lat="43.87907866102316" lon="12.537425240852095"><ele>304.0</ele><time>2026-04-25T09:13:38Z</time></trkpt><trkpt lat="43.87923020471021" lon="12.537394826258192"><ele>304.0</ele><time>2026-04-25T09:13:39Z</time></trkpt><trkpt lat="43.879383706587824" lon="12.537373160647688"><ele>304.0</ele><time>2026-04-25T09:13:40Z</time></trkpt><trkpt lat="43.87953376539469" lon="12.5373479830479"><ele>303.0</ele><time>2026-04-25T09:13:41Z</time></trkpt><trkpt lat="43.87968522769992" lon="12.537321450700802"><ele>302.0</ele><time>2026-04-25T09:13:42Z</time></trkpt><trkpt lat="43.879835686572875" lon="12.537294747140757"><ele>301.0</ele><time>2026-04-25T09:13:43Z</time></trkpt><trkpt lat="43.87998612244799" lon="12.537266595390808"><ele>299.66666666666663</ele><time>2026-04-25T09:13:44Z</time></trkpt><trkpt lat="43.88013812155166" lon="12.537242357624843"><ele>298.3333333333333</ele><time>2026-04-25T09:13:45Z</time></trkpt><trkpt lat="43.880289063731304" lon="12.537216237043982"><ele>297.0</ele><time>2026-04-25T09:13:46Z</time></trkpt><trkpt lat="43.88044136248635" lon="12.537192955408841"><ele>297.0</ele><time>2026-04-25T09:13:47Z</time></trkpt><trkpt lat="43.88059263818564" lon="12.537165578379595"><ele>297.0</ele><time>2026-04-25T09:13:48Z</time></trkpt><trkpt lat="43.88074417586202" lon="12.537141349605797"><ele>297.0</ele><time>2026-04-25T09:13:49Z</time></trkpt><trkpt lat="43.88089040133909" lon="12.53711931430646"><ele>296.3333333333333</ele><time>2026-04-25T09:13:50Z</time></trkpt><trkpt lat="43.881039801269495" lon="12.537099127985101"><ele>295.66666666666663</ele><time>2026-04-25T09:13:51Z</time></trkpt><trkpt lat="43.88118936394753" lon="12.537071935641602"><ele>295.0</ele><time>2026-04-25T09:13:52Z</time></trkpt><trkpt lat="43.88133980856615" lon="12.537039571618374"><ele>294.75</ele><time>2026-04-25T09:13:53Z</time></trkpt><trkpt lat="43.88148943898747" lon="12.537000598707207"><ele>294.5</ele><time>2026-04-25T09:13:54Z</time></trkpt><trkpt lat="43.88163691790222" lon="12.537007896146557"><ele>294.25</ele><time>2026-04-25T09:13:55Z</time></trkpt><trkpt lat="43.88178152403659" lon="12.537028481512694"><ele>294.0</ele><time>2026-04-25T09:13:56Z</time></trkpt><trkpt lat="43.881932148717254" lon="12.537064871639156"><ele>293.6666666666667</ele><time>2026-04-25T09:13:57Z</time></trkpt><trkpt lat="43.882084226130765" lon="12.537108447736061"><ele>293.33333333333337</ele><time>2026-04-25T09:13:58Z</time></trkpt><trkpt lat="43.88223680363727" lon="12.5371500545115"><ele>293.0</ele><time>2026-04-25T09:13:59Z</time></trkpt><trkpt lat="43.88239081301689" lon="12.537189908911923"><ele>293.0</ele><time>2026-04-25T09:14:00Z</time></trkpt><trkpt lat="43.88254121978677" lon="12.537227842486322"><ele>293.0</ele><time>2026-04-25T09:14:01Z</time></trkpt><trkpt lat="43.882686269681926" lon="12.537277715342503"><ele>293.0</ele><time>2026-04-25T09:14:02Z</time></trkpt><trkpt lat="43.882808916765114" lon="12.537373808717138"><ele>293.0</ele><time>2026-04-25T09:14:03Z</time></trkpt><trkpt lat="43.88292886190916" lon="12.53746580836327"><ele>292.0</ele><time>2026-04-25T09:14:04Z</time></trkpt><trkpt lat="43.88304486880947" lon="12.537566288444788"><ele>291.0</ele><time>2026-04-25T09:14:05Z</time></trkpt><trkpt lat="43.88315660951571" lon="12.53768155262819"><ele>290.0</ele><time>2026-04-25T09:14:06Z</time></trkpt><trkpt lat="43.88326214269633" lon="12.537809167719573"><ele>289.0</ele><time>2026-04-25T09:14:07Z</time></trkpt><trkpt lat="43.88336459143052" lon="12.537947677253557"><ele>288.75</ele><time>2026-04-25T09:14:08Z</time></trkpt><trkpt lat="43.883449958954735" lon="12.538098666964657"><ele>288.5</ele><time>2026-04-25T09:14:09Z</time></trkpt><trkpt lat="43.88352312378455" lon="12.538261601237254"><ele>288.25</ele><time>2026-04-25T09:14:10Z</time></trkpt><trkpt lat="43.88359119183524" lon="12.538430399467812"><ele>288.0</ele><time>2026-04-25T09:14:11Z</time></trkpt><trkpt lat="43.883672148942885" lon="12.538580152513118"><ele>288.0</ele><time>2026-04-25T09:14:12Z</time></trkpt><trkpt lat="43.883776978589275" lon="12.53870029251612"><ele>288.0</ele><time>2026-04-25T09:14:13Z</time></trkpt><trkpt lat="43.883878827936016" lon="12.538821968638599"><ele>288.0</ele><time>2026-04-25T09:14:14Z</time></trkpt><trkpt lat="43.88397535775922" lon="12.538938700613356"><ele>288.0</ele><time>2026-04-25T09:14:15Z</time></trkpt><trkpt lat="43.88406948621981" lon="12.539032058671442"><ele>288.0</ele><time>2026-04-25T09:14:16Z</time></trkpt><trkpt lat="43.884160938617406" lon="12.53909039340893"><ele>288.0</ele><time>2026-04-25T09:14:17Z</time></trkpt><trkpt lat="43.88425101699951" lon="12.539127491804647"><ele>288.0</ele><time>2026-04-25T09:14:18Z</time></trkpt><trkpt lat="43.884332172522555" lon="12.539122825728457"><ele>288.0</ele><time>2026-04-25T09:14:19Z</time></trkpt><trkpt lat="43.88441345650477" lon="12.539069931504184"><ele>288.0</ele><time>2026-04-25T09:14:20Z</time></trkpt><trkpt lat="43.88447749794903" lon="12.538976333563513"><ele>286.4</ele><time>2026-04-25T09:14:21Z</time></trkpt><trkpt lat="43.88452256484917" lon="12.538852269844284"><ele>284.8</ele><time>2026-04-25T09:14:22Z</time></trkpt><trkpt lat="43.88455216445194" lon="12.538707759833445"><ele>283.2</ele><time>2026-04-25T09:14:23Z</time></trkpt><trkpt lat="43.88458185767951" lon="12.538554405377237"><ele>281.6</ele><time>2026-04-25T09:14:24Z</time></trkpt><trkpt lat="43.8846035982082" lon="12.538400501023263"><ele>280.0</ele><time>2026-04-25T09:14:25Z</time></trkpt><trkpt lat="43.8846247757549" lon="12.538253758606832"><ele>277.8</ele><time>2026-04-25T09:14:26Z</time></trkpt><trkpt lat="43.884646136537825" lon="12.53810683726395"><ele>275.6</ele><time>2026-04-25T09:14:27Z</time></trkpt><trkpt lat="43.884654681916246" lon="12.537969002440086"><ele>273.4</ele><time>2026-04-25T09:14:28Z</time></trkpt><trkpt lat="43.884641351698214" lon="12.537831881134197"><ele>271.2</ele><time>2026-04-25T09:14:29Z</time></trkpt><trkpt lat="43.88460261166073" lon="12.537701701452843"><ele>269.0</ele><time>2026-04-25T09:14:30Z</time></trkpt><trkpt lat="43.88454600225053" lon="12.537577104608232"><ele>267.75</ele><time>2026-04-25T09:14:31Z</time></trkpt><trkpt lat="43.88447096556133" lon="12.537460076280684"><ele>266.5</ele><time>2026-04-25T09:14:32Z</time></trkpt><trkpt lat="43.8843848330222" lon="12.537348596099225"><ele>265.25</ele><time>2026-04-25T09:14:33Z</time></trkpt><trkpt lat="43.88430119031631" lon="12.537230954327965"><ele>264.0</ele><time>2026-04-25T09:14:34Z</time></trkpt><trkpt lat="43.88421775541307" lon="12.537116469737647"><ele>264.59999999999997</ele><time>2026-04-25T09:14:35Z</time></trkpt><trkpt lat="43.88414238144038" lon="12.536993459147155"><ele>265.2</ele><time>2026-04-25T09:14:36Z</time></trkpt><trkpt lat="43.88405943149135" lon="12.53689221907473"><ele>265.79999999999995</ele><time>2026-04-25T09:14:37Z</time></trkpt><trkpt lat="43.883991328115805" lon="12.536786341523417"><ele>266.4</ele><time>2026-04-25T09:14:38Z</time></trkpt><trkpt lat="43.883923508014895" lon="12.536681152996959"><ele>267.0</ele><time>2026-04-25T09:14:39Z</time></trkpt><trkpt lat="43.88386626466656" lon="12.536577431480666"><ele>267.0</ele><time>2026-04-25T09:14:40Z</time></trkpt><trkpt lat="43.88383498736057" lon="12.536463566482869"><ele>267.0</ele><time>2026-04-25T09:14:41Z</time></trkpt><trkpt lat="43.883837211054356" lon="12.536335965322317"><ele>267.0</ele><time>2026-04-25T09:14:42Z</time></trkpt><trkpt lat="43.88386668383774" lon="12.53621593786527"><ele>267.0</ele><time>2026-04-25T09:14:43Z</time></trkpt><trkpt lat="43.883919418597024" lon="12.53611241969058"><ele>267.0</ele><time>2026-04-25T09:14:44Z</time></trkpt><trkpt lat="43.883983081637034" lon="12.53604458198935"><ele>267.0</ele><time>2026-04-25T09:14:45Z</time></trkpt><trkpt lat="43.88411090366871" lon="12.536051133466417"><ele>264.6</ele><time>2026-04-25T09:14:47Z</time></trkpt><trkpt lat="43.884196881350654" lon="12.536080215167035"><ele>262.2</ele><time>2026-04-25T09:14:48Z</time></trkpt><trkpt lat="43.884303798429244" lon="12.536110968051782"><ele>259.8</ele><time>2026-04-25T09:14:49Z</time></trkpt><trkpt lat="43.884397076183014" lon="12.536154026881926"><ele>257.4</ele><time>2026-04-25T09:14:50Z</time></trkpt><trkpt lat="43.88448522684003" lon="12.536183083626392"><ele>255.0</ele><time>2026-04-25T09:14:51Z</time></trkpt><trkpt lat="43.88457874391278" lon="12.536170147956316"><ele>252.2</ele><time>2026-04-25T09:14:52Z</time></trkpt><trkpt lat="43.884673226327834" lon="12.536136378636984"><ele>249.4</ele><time>2026-04-25T09:14:53Z</time></trkpt><trkpt lat="43.884766609014235" lon="12.536090878184107"><ele>246.60000000000002</ele><time>2026-04-25T09:14:54Z</time></trkpt><trkpt lat="43.884870861884345" lon="12.53605605925966"><ele>243.8</ele><time>2026-04-25T09:14:55Z</time></trkpt><trkpt lat="43.884977464037306" lon="12.536054638093399"><ele>241.0</ele><time>2026-04-25T09:14:56Z</time></trkpt><trkpt lat="43.88508545022406" lon="12.53607907531312"><ele>239.4</ele><time>2026-04-25T09:14:57Z</time></trkpt><trkpt lat="43.88518412162982" lon="12.536133989337477"><ele>237.8</ele><time>2026-04-25T09:14:58Z</time></trkpt><trkpt lat="43.88528215579559" lon="12.536195006439717"><ele>236.20000000000002</ele><time>2026-04-25T09:14:59Z</time></trkpt><trkpt lat="43.885377957056605" lon="12.536249698287955"><ele>234.60000000000002</ele><time>2026-04-25T09:15:00Z</time></trkpt><trkpt lat="43.88546975584286" lon="12.536302864355733"><ele>233.0</ele><time>2026-04-25T09:15:01Z</time></trkpt><trkpt lat="43.88555329298093" lon="12.536343692132379"><ele>233.0</ele><time>2026-04-25T09:15:02Z</time></trkpt><trkpt lat="43.885627050625445" lon="12.536369281679669"><ele>233.0</ele><time>2026-04-25T09:15:03Z</time></trkpt><trkpt lat="43.88569897284127" lon="12.536377945184377"><ele>233.0</ele><time>2026-04-25T09:15:04Z</time></trkpt><trkpt lat="43.88576418923715" lon="12.536352247355707"><ele>233.0</ele><time>2026-04-25T09:15:05Z</time></trkpt><trkpt lat="43.885811309815274" lon="12.536287096331328"><ele>233.0</ele><time>2026-04-25T09:15:06Z</time></trkpt><trkpt lat="43.88583933627541" lon="12.536188090248995"><ele>233.0</ele><time>2026-04-25T09:15:07Z</time></trkpt><trkpt lat="43.88583961927096" lon="12.536086360531954"><ele>233.0</ele><time>2026-04-25T09:15:08Z</time></trkpt><trkpt lat="43.88582052463596" lon="12.53598474011031"><ele>231.50000000000003</ele><time>2026-04-25T09:15:09Z</time></trkpt><trkpt lat="43.885784151725524" lon="12.535889421967823"><ele>230.0</ele><time>2026-04-25T09:15:10Z</time></trkpt><trkpt lat="43.885746716117914" lon="12.535794344748476"><ele>228.5</ele><time>2026-04-25T09:15:11Z</time></trkpt><trkpt lat="43.885708740230896" lon="12.535696731073894"><ele>227.0</ele><time>2026-04-25T09:15:12Z</time></trkpt><trkpt lat="43.885670749748215" lon="12.535596619514351"><ele>225.50000000000003</ele><time>2026-04-25T09:15:13Z</time></trkpt><trkpt lat="43.88562835752557" lon="12.535497567085017"><ele>224.0</ele><time>2026-04-25T09:15:14Z</time></trkpt><trkpt lat="43.88558702085869" lon="12.535401912625442"><ele>222.0</ele><time>2026-04-25T09:15:15Z</time></trkpt><trkpt lat="43.88553880956735" lon="12.535299771876447"><ele>219.99999999999997</ele><time>2026-04-25T09:15:16Z</time></trkpt><trkpt lat="43.88548526342028" lon="12.535194745662277"><ele>217.99999999999997</ele><time>2026-04-25T09:15:17Z</time></trkpt><trkpt lat="43.8854329116298" lon="12.53508598692736"><ele>216.0</ele><time>2026-04-25T09:15:18Z</time></trkpt><trkpt lat="43.88537544191499" lon="12.534973698721785"><ele>214.0</ele><time>2026-04-25T09:15:19Z</time></trkpt><trkpt lat="43.885314755892615" lon="12.53486678484565"><ele>213.99999999999997</ele><time>2026-04-25T09:15:20Z</time></trkpt><trkpt lat="43.88525607990506" lon="12.534759975711902"><ele>214.0</ele><time>2026-04-25T09:15:21Z</time></trkpt><trkpt lat="43.88519482425469" lon="12.534657293448772"><ele>214.0</ele><time>2026-04-25T09:15:22Z</time></trkpt><trkpt lat="43.88514614539104" lon="12.534555516627684"><ele>214.0</ele><time>2026-04-25T09:15:23Z</time></trkpt><trkpt lat="43.88509821506613" lon="12.5344604147257"><ele>213.99999999999997</ele><time>2026-04-25T09:15:24Z</time></trkpt><trkpt lat="43.88505229947683" lon="12.534370815648806"><ele>214.0</ele><time>2026-04-25T09:15:25Z</time></trkpt><trkpt lat="43.88500653770581" lon="12.534283183290661"><ele>214.2857142857143</ele><time>2026-04-25T09:15:26Z</time></trkpt><trkpt lat="43.88496299599892" lon="12.53419918467927"><ele>214.57142857142858</ele><time>2026-04-25T09:15:27Z</time></trkpt><trkpt lat="43.884922541108175" lon="12.534115434147058"><ele>214.85714285714286</ele><time>2026-04-25T09:15:28Z</time></trkpt><trkpt lat="43.8848866992393" lon="12.534034927937881"><ele>215.14285714285717</ele><time>2026-04-25T09:15:29Z</time></trkpt><trkpt lat="43.88485122842495" lon="12.533960836975755"><ele>215.42857142857142</ele><time>2026-04-25T09:15:30Z</time></trkpt><trkpt lat="43.88481778346066" lon="12.533880579118973"><ele>215.71428571428572</ele><time>2026-04-25T09:15:31Z</time></trkpt><trkpt lat="43.884777773626915" lon="12.533808808621917"><ele>216.0</ele><time>2026-04-25T09:15:32Z</time></trkpt><trkpt lat="43.88472868853813" lon="12.533731945490782"><ele>214.83333333333334</ele><time>2026-04-25T09:15:33Z</time></trkpt><trkpt lat="43.8846735550192" lon="12.533650481018435"><ele>213.66666666666669</ele><time>2026-04-25T09:15:34Z</time></trkpt><trkpt lat="43.88461713195466" lon="12.533566335436406"><ele>212.5</ele><time>2026-04-25T09:15:35Z</time></trkpt><trkpt lat="43.88455490883261" lon="12.533480374960503"><ele>211.33333333333334</ele><time>2026-04-25T09:15:36Z</time></trkpt><trkpt lat="43.88448913490841" lon="12.533390028259872"><ele>210.16666666666669</ele><time>2026-04-25T09:15:37Z</time></trkpt><trkpt lat="43.88442091157121" lon="12.533294990485851"><ele>209.0</ele><time>2026-04-25T09:15:38Z</time></trkpt><trkpt lat="43.884351315714355" lon="12.53319020013843"><ele>209.0</ele><time>2026-04-25T09:15:39Z</time></trkpt><trkpt lat="43.88428677613009" lon="12.533080366847424"><ele>209.0</ele><time>2026-04-25T09:15:40Z</time></trkpt><trkpt lat="43.88422072223481" lon="12.532975245482216"><ele>209.0</ele><time>2026-04-25T09:15:41Z</time></trkpt><trkpt lat="43.88416461437301" lon="12.532870839446359"><ele>209.0</ele><time>2026-04-25T09:15:42Z</time></trkpt><trkpt lat="43.884108675567084" lon="12.53277058622648"><ele>209.0</ele><time>2026-04-25T09:15:43Z</time></trkpt><trkpt lat="43.88405739161572" lon="12.532673407217267"><ele>209.6</ele><time>2026-04-25T09:15:44Z</time></trkpt><trkpt lat="43.88401642479047" lon="12.532560180847899"><ele>210.2</ele><time>2026-04-25T09:15:45Z</time></trkpt><trkpt lat="43.88398069981481" lon="12.532443295070177"><ele>210.79999999999998</ele><time>2026-04-25T09:15:46Z</time></trkpt><trkpt lat="43.883937550138086" lon="12.532331058582889"><ele>211.39999999999998</ele><time>2026-04-25T09:15:47Z</time></trkpt><trkpt lat="43.88390064362709" lon="12.532216315643165"><ele>212.0</ele><time>2026-04-25T09:15:48Z</time></trkpt><trkpt lat="43.88386263372516" lon="12.532100332466849"><ele>211.6</ele><time>2026-04-25T09:15:49Z</time></trkpt><trkpt lat="43.88382818608174" lon="12.531987265085522"><ele>211.2</ele><time>2026-04-25T09:15:50Z</time></trkpt><trkpt lat="43.883797178886454" lon="12.531887797208103"><ele>210.8</ele><time>2026-04-25T09:15:51Z</time></trkpt><trkpt lat="43.88376889250045" lon="12.531797056986214"><ele>210.4</ele><time>2026-04-25T09:15:52Z</time></trkpt><trkpt lat="43.8837272176891" lon="12.531647884358849"><ele>210.0</ele><time>2026-04-25T09:15:54Z</time></trkpt><trkpt lat="43.88369315918054" lon="12.531501553568313"><ele>210.0</ele><time>2026-04-25T09:15:56Z</time></trkpt><trkpt lat="43.88370003608795" lon="12.53136117983021"><ele>210.0</ele><time>2026-04-25T09:15:58Z</time></trkpt><trkpt lat="43.88368933886715" lon="12.531241727452903"><ele>210.0</ele><time>2026-04-25T09:16:00Z</time></trkpt><trkpt lat="43.88364531079754" lon="12.53111930602139"><ele>210.0</ele><time>2026-04-25T09:16:02Z</time></trkpt><trkpt lat="43.88360030064454" lon="12.531049366427066"><ele>210.0</ele><time>2026-04-25T09:16:03Z</time></trkpt><trkpt lat="43.88354828187109" lon="12.530975428668818"><ele>210.0</ele><time>2026-04-25T09:16:04Z</time></trkpt><trkpt lat="43.88349136325073" lon="12.530904338020477"><ele>210.0</ele><time>2026-04-25T09:16:05Z</time></trkpt><trkpt lat="43.883438402983955" lon="12.530841432455766"><ele>210.0</ele><time>2026-04-25T09:16:06Z</time></trkpt><trkpt lat="43.88338381973898" lon="12.530772866079243"><ele>210.0</ele><time>2026-04-25T09:16:07Z</time></trkpt><trkpt lat="43.883330369992514" lon="12.530708317281842"><ele>210.0</ele><time>2026-04-25T09:16:08Z</time></trkpt><trkpt lat="43.88328404061277" lon="12.530641858037061"><ele>210.0</ele><time>2026-04-25T09:16:09Z</time></trkpt><trkpt lat="43.88324137039065" lon="12.530490535422322"><ele>210.0</ele><time>2026-04-25T09:16:11Z</time></trkpt><trkpt lat="43.88327885631234" lon="12.530334609876274"><ele>210.16666666666666</ele><time>2026-04-25T09:16:13Z</time></trkpt><trkpt lat="43.88331971809597" lon="12.53026105113623"><ele>210.33333333333331</ele><time>2026-04-25T09:16:14Z</time></trkpt><trkpt lat="43.88335943744143" lon="12.530173454065766"><ele>210.5</ele><time>2026-04-25T09:16:15Z</time></trkpt><trkpt lat="43.883400717615444" lon="12.530081095085306"><ele>210.66666666666666</ele><time>2026-04-25T09:16:16Z</time></trkpt><trkpt lat="43.88344409251174" lon="12.529980743353885"><ele>210.83333333333331</ele><time>2026-04-25T09:16:17Z</time></trkpt><trkpt lat="43.88348608506618" lon="12.529871536760988"><ele>211.0</ele><time>2026-04-25T09:16:18Z</time></trkpt><trkpt lat="43.883546490895455" lon="12.529770078957396"><ele>210.60000000000002</ele><time>2026-04-25T09:16:19Z</time></trkpt><trkpt lat="43.883592778148866" lon="12.529656484035792"><ele>210.2</ele><time>2026-04-25T09:16:20Z</time></trkpt><trkpt lat="43.88362032977231" lon="12.529525890292131"><ele>209.8</ele><time>2026-04-25T09:16:21Z</time></trkpt><trkpt lat="43.88362458487325" lon="12.529392469208945"><ele>209.39999999999998</ele><time>2026-04-25T09:16:22Z</time></trkpt><trkpt lat="43.88362142690242" lon="12.52926337594208"><ele>209.0</ele><time>2026-04-25T09:16:23Z</time></trkpt><trkpt lat="43.88362723668294" lon="12.529158187754462"><ele>208.79999999999998</ele><time>2026-04-25T09:16:24Z</time></trkpt><trkpt lat="43.883693357049744" lon="12.52902907097471"><ele>208.6</ele><time>2026-04-25T09:16:26Z</time></trkpt><trkpt lat="43.88376413227727" lon="12.528908936863733"><ele>208.4</ele><time>2026-04-25T09:16:28Z</time></trkpt><trkpt lat="43.883841837503496" lon="12.528778747657912"><ele>208.2</ele><time>2026-04-25T09:16:30Z</time></trkpt><trkpt lat="43.8838828109252" lon="12.528709802384627"><ele>208.0</ele><time>2026-04-25T09:16:31Z</time></trkpt><trkpt lat="43.88392504278777" lon="12.528638739566121"><ele>208.28571428571428</ele><time>2026-04-25T09:16:32Z</time></trkpt><trkpt lat="43.883967798892485" lon="12.528566794612452"><ele>208.57142857142858</ele><time>2026-04-25T09:16:33Z</time></trkpt><trkpt lat="43.884012270775315" lon="12.528491962543706"><ele>208.85714285714286</ele><time>2026-04-25T09:16:34Z</time></trkpt><trkpt lat="43.88405605633623" lon="12.528418285326111"><ele>209.14285714285714</ele><time>2026-04-25T09:16:35Z</time></trkpt><trkpt lat="43.88408922688907" lon="12.528327966342017"><ele>209.42857142857144</ele><time>2026-04-25T09:16:36Z</time></trkpt><trkpt lat="43.88413676548176" lon="12.528252037664577"><ele>209.71428571428572</ele><time>2026-04-25T09:16:37Z</time></trkpt><trkpt lat="43.88418285141861" lon="12.52817833261147"><ele>210.0</ele><time>2026-04-25T09:16:38Z</time></trkpt><trkpt lat="43.8842315305822" lon="12.528103090512102"><ele>210.0</ele><time>2026-04-25T09:16:39Z</time></trkpt><trkpt lat="43.88427622342601" lon="12.528021355481096"><ele>210.0</ele><time>2026-04-25T09:16:40Z</time></trkpt><trkpt lat="43.884324072409505" lon="12.527935392477035"><ele>210.0</ele><time>2026-04-25T09:16:41Z</time></trkpt><trkpt lat="43.88437085971283" lon="12.527844846426515"><ele>210.0</ele><time>2026-04-25T09:16:42Z</time></trkpt><trkpt lat="43.88441534649892" lon="12.527747053106406"><ele>210.0</ele><time>2026-04-25T09:16:43Z</time></trkpt><trkpt lat="43.884461641373335" lon="12.527647653633405"><ele>210.0</ele><time>2026-04-25T09:16:44Z</time></trkpt><trkpt lat="43.88450842578997" lon="12.527546748215608"><ele>210.0</ele><time>2026-04-25T09:16:45Z</time></trkpt><trkpt lat="43.88455371064682" lon="12.527447708953845"><ele>210.0</ele><time>2026-04-25T09:16:46Z</time></trkpt><trkpt lat="43.88459900824535" lon="12.527350476319153"><ele>210.0</ele><time>2026-04-25T09:16:47Z</time></trkpt><trkpt lat="43.88464008190447" lon="12.52725915506974"><ele>210.0</ele><time>2026-04-25T09:16:48Z</time></trkpt><trkpt lat="43.884672963385874" lon="12.527176720829955"><ele>210.0</ele><time>2026-04-25T09:16:49Z</time></trkpt><trkpt lat="43.88470847567413" lon="12.527103233884425"><ele>210.0</ele><time>2026-04-25T09:16:50Z</time></trkpt><trkpt lat="43.884787391494164" lon="12.526992627753389"><ele>210.4</ele><time>2026-04-25T09:16:52Z</time></trkpt><trkpt lat="43.88490178196012" lon="12.52691050268681"><ele>210.8</ele><time>2026-04-25T09:16:54Z</time></trkpt><trkpt lat="43.884954794877494" lon="12.526853752875379"><ele>211.2</ele><time>2026-04-25T09:16:55Z</time></trkpt><trkpt lat="43.88499283790094" lon="12.526692440872031"><ele>211.6</ele><time>2026-04-25T09:16:57Z</time></trkpt><trkpt lat="43.884975184742046" lon="12.52658608687298"><ele>212.0</ele><time>2026-04-25T09:16:58Z</time></trkpt><trkpt lat="43.88493853463424" lon="12.526460296545231"><ele>212.0</ele><time>2026-04-25T09:16:59Z</time></trkpt><trkpt lat="43.884887075414234" lon="12.526325934046996"><ele>212.0</ele><time>2026-04-25T09:17:00Z</time></trkpt><trkpt lat="43.88483877588414" lon="12.52618083861219"><ele>212.0</ele><time>2026-04-25T09:17:01Z</time></trkpt><trkpt lat="43.884785375342986" lon="12.526025933878264"><ele>212.0</ele><time>2026-04-25T09:17:02Z</time></trkpt><trkpt lat="43.8847285462889" lon="12.525882312359952"><ele>214.25</ele><time>2026-04-25T09:17:03Z</time></trkpt><trkpt lat="43.884662775323655" lon="12.525735217990718"><ele>216.5</ele><time>2026-04-25T09:17:04Z</time></trkpt><trkpt lat="43.88459187939594" lon="12.525573456139842"><ele>218.75</ele><time>2026-04-25T09:17:05Z</time></trkpt><trkpt lat="43.884521705654585" lon="12.525390982778989"><ele>221.0</ele><time>2026-04-25T09:17:06Z</time></trkpt><trkpt lat="43.8844537685666" lon="12.525201523336836"><ele>224.33333333333334</ele><time>2026-04-25T09:17:07Z</time></trkpt><trkpt lat="43.8843941381934" lon="12.524993634558696"><ele>227.66666666666669</ele><time>2026-04-25T09:17:08Z</time></trkpt><trkpt lat="43.8843421234429" lon="12.524778035489339"><ele>231.0</ele><time>2026-04-25T09:17:09Z</time></trkpt><trkpt lat="43.88429195976772" lon="12.524561933688142"><ele>230.60000000000002</ele><time>2026-04-25T09:17:10Z</time></trkpt><trkpt lat="43.884249105212476" lon="12.524377280749853"><ele>230.20000000000002</ele><time>2026-04-25T09:17:11Z</time></trkpt><trkpt lat="43.88421706026078" lon="12.52423124424444"><ele>229.79999999999998</ele><time>2026-04-25T09:17:12Z</time></trkpt><trkpt lat="43.88420071433723" lon="12.5241149911609"><ele>229.39999999999998</ele><time>2026-04-25T09:17:13Z</time></trkpt><trkpt lat="43.88419796229312" lon="12.52401804428465"><ele>229.0</ele><time>2026-04-25T09:17:14Z</time></trkpt><trkpt lat="43.88419787688059" lon="12.523864519922304"><ele>228.99999999999997</ele><time>2026-04-25T09:17:16Z</time></trkpt><trkpt lat="43.884189523460385" lon="12.523756486924347"><ele>229.0</ele><time>2026-04-25T09:17:19Z</time></trkpt><trkpt lat="43.8841214463909" lon="12.523686662130274"><ele>229.0</ele><time>2026-04-25T09:17:20Z</time></trkpt><trkpt lat="43.88405028384558" lon="12.523630281173388"><ele>229.0</ele><time>2026-04-25T09:17:21Z</time></trkpt><trkpt lat="43.88396869925504" lon="12.52356688488882"><ele>228.99999999999997</ele><time>2026-04-25T09:17:22Z</time></trkpt><trkpt lat="43.88388575117217" lon="12.523496750930896"><ele>229.0</ele><time>2026-04-25T09:17:23Z</time></trkpt><trkpt lat="43.883801570537756" lon="12.523420895698884"><ele>229.2</ele><time>2026-04-25T09:17:24Z</time></trkpt><trkpt lat="43.88370776802288" lon="12.523341424436605"><ele>229.39999999999998</ele><time>2026-04-25T09:17:25Z</time></trkpt><trkpt lat="43.883614393835735" lon="12.523266441077983"><ele>229.6</ele><time>2026-04-25T09:17:26Z</time></trkpt><trkpt lat="43.88352989633164" lon="12.523193023267643"><ele>229.8</ele><time>2026-04-25T09:17:27Z</time></trkpt><trkpt lat="43.883458394221876" lon="12.523130839025912"><ele>230.0</ele><time>2026-04-25T09:17:28Z</time></trkpt><trkpt lat="43.883403259579964" lon="12.523087035505789"><ele>231.4</ele><time>2026-04-25T09:17:29Z</time></trkpt><trkpt lat="43.88339837828626" lon="12.52287580994814"><ele>232.8</ele><time>2026-04-25T09:17:30Z</time></trkpt><trkpt lat="43.883437002325756" lon="12.522744567896682"><ele>234.2</ele><time>2026-04-25T09:17:31Z</time></trkpt><trkpt lat="43.883479705227025" lon="12.522626647138651"><ele>235.6</ele><time>2026-04-25T09:17:32Z</time></trkpt><trkpt lat="43.88355174550446" lon="12.522533851919016"><ele>237.0</ele><time>2026-04-25T09:17:33Z</time></trkpt><trkpt lat="43.88362897774636" lon="12.52243328275017"><ele>237.0</ele><time>2026-04-25T09:17:34Z</time></trkpt><trkpt lat="43.88371188170615" lon="12.522322959450934"><ele>237.0</ele><time>2026-04-25T09:17:35Z</time></trkpt><trkpt lat="43.883788764973445" lon="12.522190515318579"><ele>237.0</ele><time>2026-04-25T09:17:36Z</time></trkpt><trkpt lat="43.88388127409501" lon="12.522070623934138"><ele>237.0</ele><time>2026-04-25T09:17:37Z</time></trkpt><trkpt lat="43.8839699803388" lon="12.521950567986499"><ele>238.5</ele><time>2026-04-25T09:17:38Z</time></trkpt><trkpt lat="43.884058845927626" lon="12.52182661179398"><ele>240.0</ele><time>2026-04-25T09:17:39Z</time></trkpt><trkpt lat="43.88414939939248" lon="12.521699598418355"><ele>241.5</ele><time>2026-04-25T09:17:40Z</time></trkpt><trkpt lat="43.88424285739693" lon="12.521563143418529"><ele>243.0</ele><time>2026-04-25T09:17:41Z</time></trkpt><trkpt lat="43.88436099486785" lon="12.521460470305238"><ele>245.75</ele><time>2026-04-25T09:17:42Z</time></trkpt><trkpt lat="43.8844355862922" lon="12.521291271390307"><ele>248.5</ele><time>2026-04-25T09:17:43Z</time></trkpt><trkpt lat="43.88453677734423" lon="12.52115170468598"><ele>251.25</ele><time>2026-04-25T09:17:44Z</time></trkpt><trkpt lat="43.884646008769515" lon="12.521009683396212"><ele>254.0</ele><time>2026-04-25T09:17:45Z</time></trkpt><trkpt lat="43.88475631813518" lon="12.520868537352305"><ele>254.0</ele><time>2026-04-25T09:17:46Z</time></trkpt><trkpt lat="43.884897912856964" lon="12.520779823989733"><ele>254.0</ele><time>2026-04-25T09:17:47Z</time></trkpt><trkpt lat="43.88503453837309" lon="12.520697446568969"><ele>254.0</ele><time>2026-04-25T09:17:48Z</time></trkpt><trkpt lat="43.88519208712129" lon="12.520622446457892"><ele>255.33333333333334</ele><time>2026-04-25T09:17:49Z</time></trkpt><trkpt lat="43.88535311769332" lon="12.520546387341161"><ele>256.6666666666667</ele><time>2026-04-25T09:17:50Z</time></trkpt><trkpt lat="43.88551934099796" lon="12.520467875573011"><ele>258.0</ele><time>2026-04-25T09:17:51Z</time></trkpt><trkpt lat="43.885687748423166" lon="12.520388401382693"><ele>258.0</ele><time>2026-04-25T09:17:52Z</time></trkpt><trkpt lat="43.88584632460769" lon="12.520315769141313"><ele>258.0</ele><time>2026-04-25T09:17:53Z</time></trkpt><trkpt lat="43.88597897783109" lon="12.520255010341922"><ele>258.0</ele><time>2026-04-25T09:17:54Z</time></trkpt><trkpt lat="43.88607991264198" lon="12.520214130507636"><ele>258.0</ele><time>2026-04-25T09:17:55Z</time></trkpt><trkpt lat="43.88616337828007" lon="12.520205419336992"><ele>260.6</ele><time>2026-04-25T09:17:56Z</time></trkpt><trkpt lat="43.886236545705145" lon="12.520242906588772"><ele>263.20000000000005</ele><time>2026-04-25T09:17:57Z</time></trkpt><trkpt lat="43.88628706526852" lon="12.520349877203694"><ele>265.8</ele><time>2026-04-25T09:17:58Z</time></trkpt><trkpt lat="43.886270950524455" lon="12.520491448826856"><ele>268.40000000000003</ele><time>2026-04-25T09:17:59Z</time></trkpt><trkpt lat="43.88622583567138" lon="12.520631419685028"><ele>271.0</ele><time>2026-04-25T09:18:00Z</time></trkpt><trkpt lat="43.88618915504682" lon="12.520805632752275"><ele>273.66666666666663</ele><time>2026-04-25T09:18:01Z</time></trkpt><trkpt lat="43.88612829792569" lon="12.520987966149695"><ele>276.3333333333333</ele><time>2026-04-25T09:18:02Z</time></trkpt><trkpt lat="43.88606758179241" lon="12.521201983796544"><ele>279.0</ele><time>2026-04-25T09:18:03Z</time></trkpt><trkpt lat="43.88601749828433" lon="12.521411756704396"><ele>280.5</ele><time>2026-04-25T09:18:04Z</time></trkpt><trkpt lat="43.885983226374115" lon="12.521585421762683"><ele>282.0</ele><time>2026-04-25T09:18:05Z</time></trkpt><trkpt lat="43.88599261555189" lon="12.521734955327197"><ele>283.5</ele><time>2026-04-25T09:18:06Z</time></trkpt><trkpt lat="43.88602595293921" lon="12.521880307633884"><ele>285.0</ele><time>2026-04-25T09:18:07Z</time></trkpt><trkpt lat="43.88612058986709" lon="12.522003747145616"><ele>284.25</ele><time>2026-04-25T09:18:08Z</time></trkpt><trkpt lat="43.88625698768486" lon="12.522066632612201"><ele>283.5</ele><time>2026-04-25T09:18:09Z</time></trkpt><trkpt lat="43.8863777702521" lon="12.52217554014521"><ele>282.75</ele><time>2026-04-25T09:18:10Z</time></trkpt><trkpt lat="43.88651428254473" lon="12.522279133315022"><ele>282.0</ele><time>2026-04-25T09:18:11Z</time></trkpt><trkpt lat="43.88666007661051" lon="12.522364192545375"><ele>282.0</ele><time>2026-04-25T09:18:12Z</time></trkpt><trkpt lat="43.886794694209755" lon="12.522460447869504"><ele>282.0</ele><time>2026-04-25T09:18:13Z</time></trkpt><trkpt lat="43.88692898204039" lon="12.522511436534643"><ele>282.0</ele><time>2026-04-25T09:18:14Z</time></trkpt><trkpt lat="43.8870674219194" lon="12.52250101324104"><ele>282.0</ele><time>2026-04-25T09:18:15Z</time></trkpt><trkpt lat="43.88719810333703" lon="12.522435864591284"><ele>282.0</ele><time>2026-04-25T09:18:16Z</time></trkpt><trkpt lat="43.88729941896999" lon="12.522322983498407"><ele>282.0</ele><time>2026-04-25T09:18:17Z</time></trkpt><trkpt lat="43.88736834403118" lon="12.522188786977297"><ele>282.0</ele><time>2026-04-25T09:18:18Z</time></trkpt><trkpt lat="43.88742473407952" lon="12.522008973716654"><ele>282.0</ele><time>2026-04-25T09:18:19Z</time></trkpt><trkpt lat="43.88746584428422" lon="12.521800622549065"><ele>285.3333333333333</ele><time>2026-04-25T09:18:20Z</time></trkpt><trkpt lat="43.887510900650405" lon="12.521599654771602"><ele>288.66666666666663</ele><time>2026-04-25T09:18:21Z</time></trkpt><trkpt lat="43.88756688199873" lon="12.521405637682461"><ele>292.0</ele><time>2026-04-25T09:18:22Z</time></trkpt><trkpt lat="43.88767170686173" lon="12.521258510267383"><ele>295.0</ele><time>2026-04-25T09:18:23Z</time></trkpt><trkpt lat="43.887783960709946" lon="12.521173235522213"><ele>298.0</ele><time>2026-04-25T09:18:24Z</time></trkpt><trkpt lat="43.88791392855144" lon="12.521119298333174"><ele>301.0</ele><time>2026-04-25T09:18:25Z</time></trkpt><trkpt lat="43.88805840625439" lon="12.521075666591155"><ele>304.0</ele><time>2026-04-25T09:18:26Z</time></trkpt><trkpt lat="43.88820356138282" lon="12.521031908169835"><ele>304.0</ele><time>2026-04-25T09:18:27Z</time></trkpt><trkpt lat="43.888353443324334" lon="12.520983810625282"><ele>304.0</ele><time>2026-04-25T09:18:28Z</time></trkpt><trkpt lat="43.888505571657625" lon="12.520931935131404"><ele>304.0</ele><time>2026-04-25T09:18:29Z</time></trkpt><trkpt lat="43.88866167379838" lon="12.520877179562367"><ele>306.75</ele><time>2026-04-25T09:18:30Z</time></trkpt><trkpt lat="43.888815260402936" lon="12.52082480698944"><ele>309.5</ele><time>2026-04-25T09:18:31Z</time></trkpt><trkpt lat="43.88896050690086" lon="12.520781837594216"><ele>312.25</ele><time>2026-04-25T09:18:32Z</time></trkpt><trkpt lat="43.88908556458063" lon="12.520756028367002"><ele>315.0</ele><time>2026-04-25T09:18:33Z</time></trkpt><trkpt lat="43.889194575113926" lon="12.520759465129139"><ele>318.75</ele><time>2026-04-25T09:18:34Z</time></trkpt><trkpt lat="43.88930736894862" lon="12.520797530021877"><ele>322.5</ele><time>2026-04-25T09:18:35Z</time></trkpt><trkpt lat="43.88940816044519" lon="12.520901779775121"><ele>326.25</ele><time>2026-04-25T09:18:36Z</time></trkpt><trkpt lat="43.88950911872085" lon="12.52101350341421"><ele>330.0</ele><time>2026-04-25T09:18:37Z</time></trkpt><trkpt lat="43.889592349567216" lon="12.521159296043555"><ele>329.75</ele><time>2026-04-25T09:18:38Z</time></trkpt><trkpt lat="43.88965627169316" lon="12.521328826670302"><ele>329.5</ele><time>2026-04-25T09:18:39Z</time></trkpt><trkpt lat="43.889701950497304" lon="12.521515447411995"><ele>329.25</ele><time>2026-04-25T09:18:40Z</time></trkpt><trkpt lat="43.889711587433084" lon="12.521716714175723"><ele>329.0</ele><time>2026-04-25T09:18:41Z</time></trkpt><trkpt lat="43.88972840375658" lon="12.521908205132815"><ele>329.0</ele><time>2026-04-25T09:18:42Z</time></trkpt><trkpt lat="43.88975253840706" lon="12.522052974112627"><ele>329.0</ele><time>2026-04-25T09:18:43Z</time></trkpt><trkpt lat="43.889816964131946" lon="12.522177175969802"><ele>329.0</ele><time>2026-04-25T09:18:44Z</time></trkpt><trkpt lat="43.889944823012044" lon="12.522232187174481"><ele>329.0</ele><time>2026-04-25T09:18:45Z</time></trkpt><trkpt lat="43.89006946285859" lon="12.522287647673169"><ele>330.5</ele><time>2026-04-25T09:18:46Z</time></trkpt><trkpt lat="43.89021027816234" lon="12.522335914421644"><ele>332.0</ele><time>2026-04-25T09:18:47Z</time></trkpt><trkpt lat="43.89035601414321" lon="12.522378640126004"><ele>333.5</ele><time>2026-04-25T09:18:48Z</time></trkpt><trkpt lat="43.89050568619017" lon="12.52242583317161"><ele>335.0</ele><time>2026-04-25T09:18:49Z</time></trkpt><trkpt lat="43.89065234095736" lon="12.52248176759028"><ele>335.0</ele><time>2026-04-25T09:18:50Z</time></trkpt><trkpt lat="43.890782379835" lon="12.522529663241912"><ele>335.0</ele><time>2026-04-25T09:18:51Z</time></trkpt><trkpt lat="43.89089206340856" lon="12.522559032866635"><ele>335.0</ele><time>2026-04-25T09:18:52Z</time></trkpt><trkpt lat="43.890977438015575" lon="12.522551650796752"><ele>335.0</ele><time>2026-04-25T09:18:53Z</time></trkpt><trkpt lat="43.891054130651696" lon="12.522522403221028"><ele>335.0</ele><time>2026-04-25T09:18:54Z</time></trkpt><trkpt lat="43.89110782705044" lon="12.522429387813443"><ele>336.4</ele><time>2026-04-25T09:18:55Z</time></trkpt><trkpt lat="43.89110476766884" lon="12.52230654563323"><ele>337.8</ele><time>2026-04-25T09:18:56Z</time></trkpt><trkpt lat="43.891078741644215" lon="12.52219436448947"><ele>339.20000000000005</ele><time>2026-04-25T09:18:57Z</time></trkpt><trkpt lat="43.89101447785906" lon="12.522103008403294"><ele>340.6</ele><time>2026-04-25T09:18:58Z</time></trkpt><trkpt lat="43.89090854579688" lon="12.522039842271555"><ele>342.0</ele><time>2026-04-25T09:18:59Z</time></trkpt><trkpt lat="43.890785513282125" lon="12.52199281295631"><ele>343.5</ele><time>2026-04-25T09:19:00Z</time></trkpt><trkpt lat="43.89065945439531" lon="12.521943721778026"><ele>345.0</ele><time>2026-04-25T09:19:01Z</time></trkpt><trkpt lat="43.89056580721357" lon="12.521863142572222"><ele>346.5</ele><time>2026-04-25T09:19:02Z</time></trkpt><trkpt lat="43.89051270628289" lon="12.521742954698409"><ele>348.0</ele><time>2026-04-25T09:19:03Z</time></trkpt><trkpt lat="43.89048493303366" lon="12.52159114786172"><ele>348.0</ele><time>2026-04-25T09:19:04Z</time></trkpt><trkpt lat="43.890505936936336" lon="12.521418848449368"><ele>348.0</ele><time>2026-04-25T09:19:05Z</time></trkpt><trkpt lat="43.89051689467517" lon="12.521242610751546"><ele>348.0</ele><time>2026-04-25T09:19:06Z</time></trkpt><trkpt lat="43.89055359675515" lon="12.52109145573513"><ele>348.0</ele><time>2026-04-25T09:19:07Z</time></trkpt><trkpt lat="43.890614475847336" lon="12.520948150690666"><ele>348.75</ele><time>2026-04-25T09:19:08Z</time></trkpt><trkpt lat="43.8906766309194" lon="12.520804385998737"><ele>349.5</ele><time>2026-04-25T09:19:09Z</time></trkpt><trkpt lat="43.890745806078435" lon="12.520663765284372"><ele>350.25</ele><time>2026-04-25T09:19:10Z</time></trkpt><trkpt lat="43.89081361476672" lon="12.520515122523198"><ele>351.0</ele><time>2026-04-25T09:19:11Z</time></trkpt><trkpt lat="43.890885891654946" lon="12.52036063162836"><ele>353.5</ele><time>2026-04-25T09:19:12Z</time></trkpt><trkpt lat="43.89097042797259" lon="12.520212601250735"><ele>356.0</ele><time>2026-04-25T09:19:13Z</time></trkpt><trkpt lat="43.891046234977416" lon="12.520069624879062"><ele>358.5</ele><time>2026-04-25T09:19:14Z</time></trkpt><trkpt lat="43.8911172671127" lon="12.519925260501799"><ele>361.0</ele><time>2026-04-25T09:19:15Z</time></trkpt><trkpt lat="43.891193179648" lon="12.519781772179014"><ele>361.0</ele><time>2026-04-25T09:19:16Z</time></trkpt><trkpt lat="43.891266692485694" lon="12.519632474673944"><ele>361.0</ele><time>2026-04-25T09:19:17Z</time></trkpt><trkpt lat="43.89134357920013" lon="12.519480188660372"><ele>361.0</ele><time>2026-04-25T09:19:18Z</time></trkpt><trkpt lat="43.89142380653794" lon="12.519329904587586"><ele>361.0</ele><time>2026-04-25T09:19:19Z</time></trkpt><trkpt lat="43.89149849990857" lon="12.519186989687526"><ele>360.75</ele><time>2026-04-25T09:19:20Z</time></trkpt><trkpt lat="43.89156716816759" lon="12.519044795478939"><ele>360.5</ele><time>2026-04-25T09:19:21Z</time></trkpt><trkpt lat="43.891632456303014" lon="12.518889805011321"><ele>360.25</ele><time>2026-04-25T09:19:22Z</time></trkpt><trkpt lat="43.89168254049467" lon="12.51872265032048"><ele>360.0</ele><time>2026-04-25T09:19:23Z</time></trkpt><trkpt lat="43.89171850035852" lon="12.518542830477951"><ele>360.0</ele><time>2026-04-25T09:19:24Z</time></trkpt><trkpt lat="43.89173666738802" lon="12.51835051041203"><ele>360.0</ele><time>2026-04-25T09:19:25Z</time></trkpt><trkpt lat="43.89174435428024" lon="12.518156676665333"><ele>360.0</ele><time>2026-04-25T09:19:26Z</time></trkpt><trkpt lat="43.89174194019608" lon="12.517959921843719"><ele>360.0</ele><time>2026-04-25T09:19:27Z</time></trkpt><trkpt lat="43.89173748477898" lon="12.517761553122053"><ele>359.75</ele><time>2026-04-25T09:19:28Z</time></trkpt><trkpt lat="43.89172613044502" lon="12.51756553333877"><ele>359.5</ele><time>2026-04-25T09:19:29Z</time></trkpt><trkpt lat="43.89170627250457" lon="12.517367464470926"><ele>359.25</ele><time>2026-04-25T09:19:30Z</time></trkpt><trkpt lat="43.891678128270414" lon="12.517168127050583"><ele>359.0</ele><time>2026-04-25T09:19:31Z</time></trkpt><trkpt lat="43.891644275750245" lon="12.516967618158398"><ele>361.0</ele><time>2026-04-25T09:19:32Z</time></trkpt><trkpt lat="43.89160073327791" lon="12.516771716012801"><ele>363.0</ele><time>2026-04-25T09:19:33Z</time></trkpt><trkpt lat="43.89155654441473" lon="12.516575685766444"><ele>365.0</ele><time>2026-04-25T09:19:34Z</time></trkpt><trkpt lat="43.89151210076956" lon="12.516381687920857"><ele>367.0</ele><time>2026-04-25T09:19:35Z</time></trkpt><trkpt lat="43.89147243985409" lon="12.51618465339169"><ele>369.75</ele><time>2026-04-25T09:19:36Z</time></trkpt><trkpt lat="43.891436584192924" lon="12.515993708057307"><ele>372.5</ele><time>2026-04-25T09:19:37Z</time></trkpt><trkpt lat="43.89139273336565" lon="12.515803690116526"><ele>375.25</ele><time>2026-04-25T09:19:38Z</time></trkpt><trkpt lat="43.891351299864915" lon="12.515610183948114"><ele>378.0</ele><time>2026-04-25T09:19:39Z</time></trkpt><trkpt lat="43.89131116301814" lon="12.515418512861284"><ele>379.75</ele><time>2026-04-25T09:19:40Z</time></trkpt><trkpt lat="43.89127828540371" lon="12.515231438175338"><ele>381.5</ele><time>2026-04-25T09:19:41Z</time></trkpt><trkpt lat="43.89123931838051" lon="12.515051730117474"><ele>383.25</ele><time>2026-04-25T09:19:42Z</time></trkpt><trkpt lat="43.891200225569094" lon="12.514888711368553"><ele>385.0</ele><time>2026-04-25T09:19:43Z</time></trkpt><trkpt lat="43.891174692864276" lon="12.514742658585421"><ele>385.0</ele><time>2026-04-25T09:19:44Z</time></trkpt><trkpt lat="43.891169931128594" lon="12.514611919211006"><ele>385.0</ele><time>2026-04-25T09:19:45Z</time></trkpt><trkpt lat="43.8912034609426" lon="12.514512695683251"><ele>385.0</ele><time>2026-04-25T09:19:46Z</time></trkpt><trkpt lat="43.89133537190391" lon="12.514480362919299"><ele>385.0</ele><time>2026-04-25T09:19:48Z</time></trkpt><trkpt lat="43.891405173617784" lon="12.51456120350653"><ele>385.0</ele><time>2026-04-25T09:19:49Z</time></trkpt><trkpt lat="43.89141871553679" lon="12.514687368239256"><ele>385.00000000000006</ele><time>2026-04-25T09:19:50Z</time></trkpt><trkpt lat="43.89142197764202" lon="12.514808806016417"><ele>385.0</ele><time>2026-04-25T09:19:51Z</time></trkpt><trkpt lat="43.89143578919284" lon="12.514943464693108"><ele>385.0</ele><time>2026-04-25T09:19:52Z</time></trkpt><trkpt lat="43.891470145117914" lon="12.515055029332487"><ele>385.0</ele><time>2026-04-25T09:19:53Z</time></trkpt><trkpt lat="43.8915280083195" lon="12.515134836000785"><ele>385.00000000000006</ele><time>2026-04-25T09:19:54Z</time></trkpt><trkpt lat="43.891607264086126" lon="12.515172552220141"><ele>385.0</ele><time>2026-04-25T09:19:55Z</time></trkpt><trkpt lat="43.89167575253315" lon="12.515149492397173"><ele>385.00000000000006</ele><time>2026-04-25T09:19:56Z</time></trkpt><trkpt lat="43.891737220724735" lon="12.515087989298939"><ele>385.0</ele><time>2026-04-25T09:19:57Z</time></trkpt><trkpt lat="43.891775695374655" lon="12.514984364406743"><ele>385.0</ele><time>2026-04-25T09:19:58Z</time></trkpt><trkpt lat="43.891770407768036" lon="12.514864262264865"><ele>385.0</ele><time>2026-04-25T09:19:59Z</time></trkpt><trkpt lat="43.89173133618997" lon="12.514740055928321"><ele>385.00000000000006</ele><time>2026-04-25T09:20:00Z</time></trkpt><trkpt lat="43.8916807234672" lon="12.514614514163274"><ele>385.0</ele><time>2026-04-25T09:20:01Z</time></trkpt><trkpt lat="43.89163148204247" lon="12.514475637105766"><ele>388.0</ele><time>2026-04-25T09:20:02Z</time></trkpt><trkpt lat="43.891587928668194" lon="12.514322399462179"><ele>391.0</ele><time>2026-04-25T09:20:03Z</time></trkpt><trkpt lat="43.89154013290189" lon="12.514159202296465"><ele>394.0</ele><time>2026-04-25T09:20:04Z</time></trkpt><trkpt lat="43.89148633314263" lon="12.513995526961077"><ele>397.0</ele><time>2026-04-25T09:20:05Z</time></trkpt><trkpt lat="43.891433294107124" lon="12.513820947641182"><ele>404.0</ele><time>2026-04-25T09:20:06Z</time></trkpt><trkpt lat="43.89137843741742" lon="12.513651519110509"><ele>411.0</ele><time>2026-04-25T09:20:07Z</time></trkpt><trkpt lat="43.89132332570056" lon="12.513482649556401"><ele>418.0</ele><time>2026-04-25T09:20:08Z</time></trkpt><trkpt lat="43.89126731398095" lon="12.513308983909894"><ele>425.0</ele><time>2026-04-25T09:20:09Z</time></trkpt><trkpt lat="43.89120970076586" lon="12.513133321975001"><ele>425.0</ele><time>2026-04-25T09:20:10Z</time></trkpt><trkpt lat="43.89115523743346" lon="12.512955043660805"><ele>425.0</ele><time>2026-04-25T09:20:11Z</time></trkpt><trkpt lat="43.89109957377651" lon="12.512774608925081"><ele>425.0</ele><time>2026-04-25T09:20:12Z</time></trkpt><trkpt lat="43.89104592398966" lon="12.512592315097576"><ele>425.0</ele><time>2026-04-25T09:20:13Z</time></trkpt><trkpt lat="43.890991555996656" lon="12.512411755813254"><ele>423.25</ele><time>2026-04-25T09:20:14Z</time></trkpt><trkpt lat="43.89094004155457" lon="12.512229009589452"><ele>421.5</ele><time>2026-04-25T09:20:15Z</time></trkpt><trkpt lat="43.890883971814" lon="12.512049242081021"><ele>419.75</ele><time>2026-04-25T09:20:16Z</time></trkpt><trkpt lat="43.89082925620152" lon="12.511867059862807"><ele>418.0</ele><time>2026-04-25T09:20:17Z</time></trkpt><trkpt lat="43.890779015266915" lon="12.511682605548534"><ele>418.0</ele><time>2026-04-25T09:20:18Z</time></trkpt><trkpt lat="43.89074058542073" lon="12.5114902610743"><ele>418.0</ele><time>2026-04-25T09:20:19Z</time></trkpt><trkpt lat="43.89071531171038" lon="12.51129629444877"><ele>418.0</ele><time>2026-04-25T09:20:20Z</time></trkpt><trkpt lat="43.890701141097956" lon="12.511102499734747"><ele>418.0</ele><time>2026-04-25T09:20:21Z</time></trkpt><trkpt lat="43.89068334728711" lon="12.510918410976988"><ele>419.5</ele><time>2026-04-25T09:20:22Z</time></trkpt><trkpt lat="43.890660575256554" lon="12.510741886490946"><ele>421.0</ele><time>2026-04-25T09:20:23Z</time></trkpt><trkpt lat="43.89064089222863" lon="12.510564222584078"><ele>422.5</ele><time>2026-04-25T09:20:24Z</time></trkpt><trkpt lat="43.89062634708161" lon="12.510379537473067"><ele>424.0</ele><time>2026-04-25T09:20:25Z</time></trkpt><trkpt lat="43.89060567219695" lon="12.510208000961796"><ele>425.1666666666667</ele><time>2026-04-25T09:20:26Z</time></trkpt><trkpt lat="43.89059225255784" lon="12.510055869229356"><ele>426.33333333333337</ele><time>2026-04-25T09:20:27Z</time></trkpt><trkpt lat="43.89061112600476" lon="12.509925658111982"><ele>427.5</ele><time>2026-04-25T09:20:28Z</time></trkpt><trkpt lat="43.89066202466698" lon="12.509847939464178"><ele>428.66666666666663</ele><time>2026-04-25T09:20:29Z</time></trkpt><trkpt lat="43.89074540986661" lon="12.509850755337638"><ele>429.8333333333333</ele><time>2026-04-25T09:20:30Z</time></trkpt><trkpt lat="43.89081881257683" lon="12.509893280160366"><ele>431.0</ele><time>2026-04-25T09:20:31Z</time></trkpt><trkpt lat="43.8908632944745" lon="12.509995014579996"><ele>431.0</ele><time>2026-04-25T09:20:32Z</time></trkpt><trkpt lat="43.89088940594993" lon="12.510128024308965"><ele>431.0</ele><time>2026-04-25T09:20:33Z</time></trkpt><trkpt lat="43.89092145817758" lon="12.510278509487755"><ele>431.0</ele><time>2026-04-25T09:20:34Z</time></trkpt><trkpt lat="43.89096640367723" lon="12.510429400528405"><ele>431.0</ele><time>2026-04-25T09:20:35Z</time></trkpt><trkpt lat="43.890997937852546" lon="12.510580031015387"><ele>431.0</ele><time>2026-04-25T09:20:36Z</time></trkpt><trkpt lat="43.891030783203576" lon="12.510732716634738"><ele>434.6</ele><time>2026-04-25T09:20:37Z</time></trkpt><trkpt lat="43.891059880024535" lon="12.510882613223103"><ele>438.20000000000005</ele><time>2026-04-25T09:20:38Z</time></trkpt><trkpt lat="43.89108902750588" lon="12.511035682599724"><ele>441.79999999999995</ele><time>2026-04-25T09:20:39Z</time></trkpt><trkpt lat="43.891123899876185" lon="12.511173797993715"><ele>445.4</ele><time>2026-04-25T09:20:40Z</time></trkpt><trkpt lat="43.89116219754379" lon="12.511282193178532"><ele>449.0</ele><time>2026-04-25T09:20:41Z</time></trkpt><trkpt lat="43.891221156357915" lon="12.511354967213835"><ele>449.0</ele><time>2026-04-25T09:20:42Z</time></trkpt><trkpt lat="43.891293388758385" lon="12.511390940719348"><ele>449.0</ele><time>2026-04-25T09:20:43Z</time></trkpt><trkpt lat="43.89138239594644" lon="12.511350771252886"><ele>449.0</ele><time>2026-04-25T09:20:44Z</time></trkpt><trkpt lat="43.89144189709808" lon="12.511231585340918"><ele>449.0</ele><time>2026-04-25T09:20:45Z</time></trkpt><trkpt lat="43.891470838579345" lon="12.511106870076402"><ele>449.0</ele><time>2026-04-25T09:20:46Z</time></trkpt><trkpt lat="43.89145686674381" lon="12.510966362798804"><ele>449.0</ele><time>2026-04-25T09:20:47Z</time></trkpt><trkpt lat="43.89141705816818" lon="12.510835682359378"><ele>449.0</ele><time>2026-04-25T09:20:48Z</time></trkpt><trkpt lat="43.891377454708305" lon="12.510705053588449"><ele>449.0</ele><time>2026-04-25T09:20:49Z</time></trkpt><trkpt lat="43.89135073339294" lon="12.510561032701101"><ele>449.0</ele><time>2026-04-25T09:20:50Z</time></trkpt><trkpt lat="43.891327753280045" lon="12.510424796617176"><ele>449.0</ele><time>2026-04-25T09:20:51Z</time></trkpt><trkpt lat="43.891306820372684" lon="12.510295318475128"><ele>450.2</ele><time>2026-04-25T09:20:52Z</time></trkpt><trkpt lat="43.8912899110488" lon="12.510168270649569"><ele>451.4</ele><time>2026-04-25T09:20:53Z</time></trkpt><trkpt lat="43.891273754954675" lon="12.51004607629393"><ele>452.6</ele><time>2026-04-25T09:20:54Z</time></trkpt><trkpt lat="43.89126622509992" lon="12.509925597767282"><ele>453.8</ele><time>2026-04-25T09:20:55Z</time></trkpt><trkpt lat="43.89125899278993" lon="12.509799371192969"><ele>455.0</ele><time>2026-04-25T09:20:56Z</time></trkpt><trkpt lat="43.891267395844025" lon="12.509668190894114"><ele>455.0</ele><time>2026-04-25T09:20:57Z</time></trkpt><trkpt lat="43.891290072637034" lon="12.50953498933432"><ele>455.0</ele><time>2026-04-25T09:20:58Z</time></trkpt><trkpt lat="43.89131746788049" lon="12.509401927435711"><ele>455.0</ele><time>2026-04-25T09:20:59Z</time></trkpt><trkpt lat="43.8913480535156" lon="12.509268117020005"><ele>455.0</ele><time>2026-04-25T09:21:00Z</time></trkpt><trkpt lat="43.891379368882035" lon="12.509155131627528"><ele>455.0</ele><time>2026-04-25T09:21:01Z</time></trkpt><trkpt lat="43.89141464603536" lon="12.509061353285878"><ele>454.99999999999994</ele><time>2026-04-25T09:21:02Z</time></trkpt><trkpt lat="43.891447185983964" lon="12.508976580208518"><ele>455.0</ele><time>2026-04-25T09:21:03Z</time></trkpt><trkpt lat="43.89152000355629" lon="12.508842988884226"><ele>455.0</ele><time>2026-04-25T09:21:05Z</time></trkpt><trkpt lat="43.89162651113769" lon="12.50876856141771"><ele>455.0</ele><time>2026-04-25T09:21:07Z</time></trkpt><trkpt lat="43.89168011731476" lon="12.50872169709382"><ele>454.99999999999994</ele><time>2026-04-25T09:21:08Z</time></trkpt><trkpt lat="43.89173006486046" lon="12.508667643411696"><ele>455.0</ele><time>2026-04-25T09:21:09Z</time></trkpt><trkpt lat="43.89178379163539" lon="12.508608597435035"><ele>455.16666666666663</ele><time>2026-04-25T09:21:10Z</time></trkpt><trkpt lat="43.8918401448835" lon="12.508560762047846"><ele>455.3333333333333</ele><time>2026-04-25T09:21:11Z</time></trkpt><trkpt lat="43.89196399936688" lon="12.508532500636132"><ele>455.5</ele><time>2026-04-25T09:21:13Z</time></trkpt><trkpt lat="43.89201848766952" lon="12.508577809912957"><ele>455.66666666666663</ele><time>2026-04-25T09:21:14Z</time></trkpt><trkpt lat="43.8920351845054" lon="12.50866399979405"><ele>455.8333333333333</ele><time>2026-04-25T09:21:15Z</time></trkpt><trkpt lat="43.89200155791" lon="12.508798510431914"><ele>456.0</ele><time>2026-04-25T09:21:17Z</time></trkpt><trkpt lat="43.89198429029224" lon="12.50889007978838"><ele>456.8</ele><time>2026-04-25T09:21:18Z</time></trkpt><trkpt lat="43.891954483632574" lon="12.508970469979486"><ele>457.6</ele><time>2026-04-25T09:21:19Z</time></trkpt><trkpt lat="43.89189340540073" lon="12.509109403313753"><ele>458.4</ele><time>2026-04-25T09:21:21Z</time></trkpt><trkpt lat="43.89184641814264" lon="12.509249905625179"><ele>459.2</ele><time>2026-04-25T09:21:23Z</time></trkpt><trkpt lat="43.891799948747" lon="12.509408668520885"><ele>460.0</ele><time>2026-04-25T09:21:25Z</time></trkpt><trkpt lat="43.89178360257944" lon="12.509502175467599"><ele>459.83333333333337</ele><time>2026-04-25T09:21:26Z</time></trkpt><trkpt lat="43.89176759517988" lon="12.509633578311956"><ele>459.6666666666667</ele><time>2026-04-25T09:21:28Z</time></trkpt><trkpt lat="43.89178728066006" lon="12.509754213045587"><ele>459.5</ele><time>2026-04-25T09:21:30Z</time></trkpt><trkpt lat="43.891797576728585" lon="12.509858145827936"><ele>459.33333333333337</ele><time>2026-04-25T09:21:32Z</time></trkpt><trkpt lat="43.891808343367956" lon="12.50996329598135"><ele>459.1666666666667</ele><time>2026-04-25T09:21:34Z</time></trkpt><trkpt lat="43.89182046610624" lon="12.51008168912414"><ele>459.0</ele><time>2026-04-25T09:21:36Z</time></trkpt><trkpt lat="43.8918712220499" lon="12.510220998802083"><ele>459.0</ele><time>2026-04-25T09:21:38Z</time></trkpt><trkpt lat="43.891900117196585" lon="12.510341262040692"><ele>459.0</ele><time>2026-04-25T09:21:40Z</time></trkpt><trkpt lat="43.891891438585816" lon="12.510466635216561"><ele>459.0</ele><time>2026-04-25T09:21:42Z</time></trkpt><trkpt lat="43.89198860714143" lon="12.510492476633358"><ele>459.0</ele><time>2026-04-25T09:21:43Z</time></trkpt><trkpt lat="43.892037698107316" lon="12.510595602157382"><ele>459.0</ele><time>2026-04-25T09:21:45Z</time></trkpt><trkpt lat="43.892025519965806" lon="12.51070463181534"><ele>457.2</ele><time>2026-04-25T09:21:47Z</time></trkpt><trkpt lat="43.892011727901135" lon="12.510835996732448"><ele>455.4</ele><time>2026-04-25T09:21:49Z</time></trkpt><trkpt lat="43.89199264722294" lon="12.51098719156947"><ele>453.6</ele><time>2026-04-25T09:21:51Z</time></trkpt><trkpt lat="43.8919747822576" lon="12.511128753133276"><ele>451.8</ele><time>2026-04-25T09:21:53Z</time></trkpt><trkpt lat="43.89195419288724" lon="12.511281702027054"><ele>450.0</ele><time>2026-04-25T09:21:55Z</time></trkpt><trkpt lat="43.891946979097725" lon="12.511447195599649"><ele>450.2</ele><time>2026-04-25T09:21:57Z</time></trkpt><trkpt lat="43.8919068543477" lon="12.511598261870276"><ele>450.4</ele><time>2026-04-25T09:21:59Z</time></trkpt><trkpt lat="43.891897052931355" lon="12.511723364678371"><ele>450.6</ele><time>2026-04-25T09:22:01Z</time></trkpt><trkpt lat="43.89183493261636" lon="12.511746223751"><ele>450.8</ele><time>2026-04-25T09:22:05Z</time></trkpt><trkpt lat="43.89174428706172" lon="12.511825844640844"><ele>451.0</ele><time>2026-04-25T09:22:08Z</time></trkpt><trkpt lat="43.89172041910433" lon="12.511929281703734"><ele>451.00000000000006</ele><time>2026-04-25T09:22:10Z</time></trkpt><trkpt lat="43.8916952367749" lon="12.512027093573538"><ele>451.0</ele><time>2026-04-25T09:22:12Z</time></trkpt><trkpt lat="43.891674112033584" lon="12.512113610468791"><ele>451.0</ele><time>2026-04-25T09:22:14Z</time></trkpt><trkpt lat="43.89165722339672" lon="12.512208762140997"><ele>451.0</ele><time>2026-04-25T09:22:17Z</time></trkpt><trkpt lat="43.891666916594346" lon="12.512300272050242"><ele>451.00000000000006</ele><time>2026-04-25T09:22:20Z</time></trkpt><trkpt lat="43.89172013154168" lon="12.512398685630579"><ele>451.0</ele><time>2026-04-25T09:22:22Z</time></trkpt><trkpt lat="43.89177850885563" lon="12.512494968718443"><ele>447.6</ele><time>2026-04-25T09:22:24Z</time></trkpt><trkpt lat="43.8918147263525" lon="12.512611031731142"><ele>444.20000000000005</ele><time>2026-04-25T09:22:26Z</time></trkpt><trkpt lat="43.891903839598" lon="12.51263773203035"><ele>440.79999999999995</ele><time>2026-04-25T09:22:28Z</time></trkpt><trkpt lat="43.89198472360713" lon="12.5127043815872"><ele>437.4</ele><time>2026-04-25T09:22:30Z</time></trkpt><trkpt lat="43.89203975876973" lon="12.512749731327235"><ele>434.0</ele><time>2026-04-25T09:22:33Z</time></trkpt><trkpt lat="43.89211949541431" lon="12.512629245142408"><ele>434.0</ele><time>2026-04-25T09:22:38Z</time></trkpt><trkpt lat="43.89215603232493" lon="12.512505136693635"><ele>434.0</ele><time>2026-04-25T09:22:40Z</time></trkpt><trkpt lat="43.892187430752955" lon="12.512364323154012"><ele>434.0</ele><time>2026-04-25T09:22:42Z</time></trkpt><trkpt lat="43.892206730296465" lon="12.512223496539736"><ele>434.0</ele><time>2026-04-25T09:22:44Z</time></trkpt><trkpt lat="43.89220096233403" lon="12.51208055796275"><ele>434.0</ele><time>2026-04-25T09:22:46Z</time></trkpt><trkpt lat="43.892174159137014" lon="12.51193359123782"><ele>435.6</ele><time>2026-04-25T09:22:48Z</time></trkpt><trkpt lat="43.89218082108827" lon="12.511756404109047"><ele>437.2</ele><time>2026-04-25T09:22:50Z</time></trkpt><trkpt lat="43.892191103513596" lon="12.511660449232076"><ele>438.80000000000007</ele><time>2026-04-25T09:22:51Z</time></trkpt><trkpt lat="43.89221474808529" lon="12.511489753739106"><ele>440.40000000000003</ele><time>2026-04-25T09:22:53Z</time></trkpt><trkpt lat="43.89223136544466" lon="12.511390930755356"><ele>442.0</ele><time>2026-04-25T09:22:54Z</time></trkpt><trkpt lat="43.89224430998494" lon="12.511280926478204"><ele>443.33333333333337</ele><time>2026-04-25T09:22:55Z</time></trkpt><trkpt lat="43.89224372458078" lon="12.511188145419705"><ele>444.6666666666667</ele><time>2026-04-25T09:22:56Z</time></trkpt><trkpt lat="43.89226405302908" lon="12.511083734172642"><ele>446.0</ele><time>2026-04-25T09:22:57Z</time></trkpt><trkpt lat="43.89228001133756" lon="12.510969768140095"><ele>447.33333333333337</ele><time>2026-04-25T09:22:58Z</time></trkpt><trkpt lat="43.89229282140355" lon="12.510857374599142"><ele>448.6666666666667</ele><time>2026-04-25T09:22:59Z</time></trkpt><trkpt lat="43.89230522575089" lon="12.51075221649282"><ele>450.0</ele><time>2026-04-25T09:23:00Z</time></trkpt><trkpt lat="43.89231626182502" lon="12.510643433766568"><ele>450.0</ele><time>2026-04-25T09:23:01Z</time></trkpt><trkpt lat="43.892329473683986" lon="12.510533186435595"><ele>450.0</ele><time>2026-04-25T09:23:02Z</time></trkpt><trkpt lat="43.89235028870037" lon="12.510428571842786"><ele>450.0</ele><time>2026-04-25T09:23:03Z</time></trkpt><trkpt lat="43.89235416713792" lon="12.510325543239142"><ele>450.0</ele><time>2026-04-25T09:23:04Z</time></trkpt><trkpt lat="43.892357359460846" lon="12.510158501918978"><ele>450.0</ele><time>2026-04-25T09:23:06Z</time></trkpt><trkpt lat="43.892371450305106" lon="12.50999379878597"><ele>451.8</ele><time>2026-04-25T09:23:08Z</time></trkpt><trkpt lat="43.89240030724468" lon="12.509859402873369"><ele>453.6</ele><time>2026-04-25T09:23:10Z</time></trkpt><trkpt lat="43.89241568548378" lon="12.50976933119089"><ele>455.4</ele><time>2026-04-25T09:23:12Z</time></trkpt><trkpt lat="43.89244079847239" lon="12.509673091065736"><ele>457.2</ele><time>2026-04-25T09:23:14Z</time></trkpt><trkpt lat="43.89247919199131" lon="12.509541692240637"><ele>459.0</ele><time>2026-04-25T09:23:16Z</time></trkpt><trkpt lat="43.89251773590973" lon="12.509381163169294"><ele>459.2</ele><time>2026-04-25T09:23:18Z</time></trkpt><trkpt lat="43.89254815958649" lon="12.509296156381309"><ele>459.4</ele><time>2026-04-25T09:23:19Z</time></trkpt><trkpt lat="43.89257328109826" lon="12.50913015014592"><ele>459.6</ele><time>2026-04-25T09:23:21Z</time></trkpt><trkpt lat="43.892540577744924" lon="12.508979637237344"><ele>459.8</ele><time>2026-04-25T09:23:23Z</time></trkpt><trkpt lat="43.89248799135078" lon="12.508863239013383"><ele>460.0</ele><time>2026-04-25T09:23:25Z</time></trkpt><trkpt lat="43.89241403273707" lon="12.508783820923698"><ele>460.00000000000006</ele><time>2026-04-25T09:23:27Z</time></trkpt><trkpt lat="43.89235247584419" lon="12.508744497732911"><ele>460.0</ele><time>2026-04-25T09:23:28Z</time></trkpt><trkpt lat="43.89228533445133" lon="12.508707243294442"><ele>460.0</ele><time>2026-04-25T09:23:29Z</time></trkpt><trkpt lat="43.89217895084119" lon="12.508661796839679"><ele>460.0</ele><time>2026-04-25T09:23:31Z</time></trkpt><trkpt lat="43.8921158603624" lon="12.50864851304945"><ele>460.00000000000006</ele><time>2026-04-25T09:23:33Z</time></trkpt><trkpt lat="43.89203018401605" lon="12.508650645735827"><ele>460.0</ele><time>2026-04-25T09:23:38Z</time></trkpt><trkpt lat="43.89199319954886" lon="12.508794907206456"><ele>460.0</ele><time>2026-04-25T09:23:40Z</time></trkpt><trkpt lat="43.89195100985201" lon="12.508940862884259"><ele>460.0</ele><time>2026-04-25T09:23:42Z</time></trkpt><trkpt lat="43.89192128904884" lon="12.50902419566325"><ele>460.0</ele><time>2026-04-25T09:23:44Z</time></trkpt><trkpt lat="43.89205135321431" lon="12.50915924174804"><ele>460.0</ele><time>2026-04-25T09:23:47Z</time></trkpt><trkpt lat="43.89211391362261" lon="12.509201343254494"><ele>460.0</ele><time>2026-04-25T09:23:49Z</time></trkpt><trkpt lat="43.892153286549465" lon="12.509035945327765"><ele>460.0</ele><time>2026-04-25T09:23:52Z</time></trkpt><trkpt lat="43.89209130801051" lon="12.508992970501689"><ele>460.0</ele><time>2026-04-25T09:23:54Z</time></trkpt><trkpt lat="43.8920256293024" lon="12.508956870782136"><ele>460.0</ele><time>2026-04-25T09:23:56Z</time></trkpt><trkpt lat="43.89196634527599" lon="12.508924285888556"><ele>460.0</ele><time>2026-04-25T09:23:59Z</time></trkpt><trkpt lat="43.89187120727456" lon="12.509152554053333"><ele>460.0</ele><time>2026-04-25T09:24:01Z</time></trkpt><trkpt lat="43.891863698111806" lon="12.50924574669731"><ele>460.00000000000006</ele><time>2026-04-25T09:24:02Z</time></trkpt><trkpt lat="43.89181736438661" lon="12.50934733172722"><ele>460.0</ele><time>2026-04-25T09:24:04Z</time></trkpt><trkpt lat="43.8917907340565" lon="12.509450057998832"><ele>460.0</ele><time>2026-04-25T09:24:06Z</time></trkpt><trkpt lat="43.891777817784835" lon="12.509549662238477"><ele>460.0</ele><time>2026-04-25T09:24:08Z</time></trkpt><trkpt lat="43.89178925600346" lon="12.509455766880556"><ele>460.00000000000006</ele><time>2026-04-25T09:32:17Z</time></trkpt><trkpt lat="43.89182259823613" lon="12.509323261812357"><ele>460.0</ele><time>2026-04-25T09:32:19Z</time></trkpt><trkpt lat="43.891864730502895" lon="12.509188500283884"><ele>460.00000000000006</ele><time>2026-04-25T09:32:21Z</time></trkpt><trkpt lat="43.89190493130806" lon="12.509053694726862"><ele>460.0</ele><time>2026-04-25T09:32:23Z</time></trkpt><trkpt lat="43.89193946595662" lon="12.508975047146752"><ele>460.0</ele><time>2026-04-25T09:32:24Z</time></trkpt><trkpt lat="43.89196785184331" lon="12.50889244902087"><ele>460.0</ele><time>2026-04-25T09:32:25Z</time></trkpt><trkpt lat="43.89199513491148" lon="12.508813059868052"><ele>460.00000000000006</ele><time>2026-04-25T09:32:26Z</time></trkpt><trkpt lat="43.8920451333649" lon="12.508665666667227"><ele>460.0</ele><time>2026-04-25T09:32:28Z</time></trkpt><trkpt lat="43.89189507177116" lon="12.508885111465473"><ele>460.0</ele><time>2026-04-25T09:32:30Z</time></trkpt><trkpt lat="43.89183001365848" lon="12.508849353134156"><ele>460.0</ele><time>2026-04-25T09:32:31Z</time></trkpt><trkpt lat="43.89188800469882" lon="12.508435130904047"><ele>460.0</ele><time>2026-04-25T09:32:32Z</time></trkpt><trkpt lat="43.891789148620674" lon="12.508552547373426"><ele>459.0</ele><time>2026-04-25T09:32:33Z</time></trkpt><trkpt lat="43.89172749275527" lon="12.508628126002254"><ele>458.0</ele><time>2026-04-25T09:32:34Z</time></trkpt><trkpt lat="43.89167613766277" lon="12.508709220065642"><ele>457.0</ele><time>2026-04-25T09:32:35Z</time></trkpt><trkpt lat="43.89161484713581" lon="12.508741226173155"><ele>456.0</ele><time>2026-04-25T09:32:36Z</time></trkpt><trkpt lat="43.89155501910724" lon="12.508775823834595"><ele>455.0</ele><time>2026-04-25T09:32:39Z</time></trkpt><trkpt lat="43.891636711949815" lon="12.50856945057328"><ele>455.2</ele><time>2026-04-25T09:32:44Z</time></trkpt><trkpt lat="43.89170845686701" lon="12.508471514967715"><ele>455.4</ele><time>2026-04-25T09:32:45Z</time></trkpt><trkpt lat="43.89176810725169" lon="12.50837233623713"><ele>455.6</ele><time>2026-04-25T09:32:46Z</time></trkpt><trkpt lat="43.891829231171755" lon="12.508258314715517"><ele>455.8</ele><time>2026-04-25T09:32:47Z</time></trkpt><trkpt lat="43.89188409623667" lon="12.508124678467864"><ele>456.0</ele><time>2026-04-25T09:32:48Z</time></trkpt><trkpt lat="43.89192424862707" lon="12.507982434091664"><ele>453.25</ele><time>2026-04-25T09:32:49Z</time></trkpt><trkpt lat="43.891949619694344" lon="12.507828032645985"><ele>450.5</ele><time>2026-04-25T09:32:50Z</time></trkpt><trkpt lat="43.89195733576501" lon="12.507659507148066"><ele>447.75</ele><time>2026-04-25T09:32:51Z</time></trkpt><trkpt lat="43.89194524188462" lon="12.507479963147016"><ele>445.0</ele><time>2026-04-25T09:32:52Z</time></trkpt><trkpt lat="43.89192531895261" lon="12.507297593793941"><ele>445.0</ele><time>2026-04-25T09:32:53Z</time></trkpt><trkpt lat="43.89190699961383" lon="12.5071178439628"><ele>445.0</ele><time>2026-04-25T09:32:54Z</time></trkpt><trkpt lat="43.89189539864542" lon="12.506931123441753"><ele>445.0</ele><time>2026-04-25T09:32:55Z</time></trkpt><trkpt lat="43.89188280951318" lon="12.506743403724581"><ele>445.0</ele><time>2026-04-25T09:32:56Z</time></trkpt><trkpt lat="43.891869673282045" lon="12.506559767115405"><ele>440.5</ele><time>2026-04-25T09:32:57Z</time></trkpt><trkpt lat="43.89185336637834" lon="12.506369339936077"><ele>436.0</ele><time>2026-04-25T09:32:58Z</time></trkpt><trkpt lat="43.89183344525376" lon="12.506173402367335"><ele>431.5</ele><time>2026-04-25T09:32:59Z</time></trkpt><trkpt lat="43.89181475075621" lon="12.505972217870976"><ele>427.0</ele><time>2026-04-25T09:33:00Z</time></trkpt><trkpt lat="43.89179167275126" lon="12.505768908087566"><ele>428.0</ele><time>2026-04-25T09:33:01Z</time></trkpt><trkpt lat="43.891765285961725" lon="12.505586568015838"><ele>429.0</ele><time>2026-04-25T09:33:02Z</time></trkpt><trkpt lat="43.89171417701192" lon="12.50543373195242"><ele>430.0</ele><time>2026-04-25T09:33:03Z</time></trkpt><trkpt lat="43.89162569609904" lon="12.505303442059182"><ele>431.0</ele><time>2026-04-25T09:33:04Z</time></trkpt><trkpt lat="43.89151196310555" lon="12.505164469625338"><ele>431.0</ele><time>2026-04-25T09:33:05Z</time></trkpt><trkpt lat="43.89139174602061" lon="12.505016391217259"><ele>431.0</ele><time>2026-04-25T09:33:06Z</time></trkpt><trkpt lat="43.89129412255656" lon="12.504853471033435"><ele>431.0</ele><time>2026-04-25T09:33:07Z</time></trkpt><trkpt lat="43.89123271626288" lon="12.50468379724592"><ele>430.3333333333333</ele><time>2026-04-25T09:33:08Z</time></trkpt><trkpt lat="43.891193993012116" lon="12.504486215404427"><ele>429.66666666666663</ele><time>2026-04-25T09:33:09Z</time></trkpt><trkpt lat="43.89116349210751" lon="12.504278213513945"><ele>429.0</ele><time>2026-04-25T09:33:10Z</time></trkpt><trkpt lat="43.89113360820208" lon="12.504067349837623"><ele>429.0</ele><time>2026-04-25T09:33:11Z</time></trkpt><trkpt lat="43.89109894155034" lon="12.50384974982747"><ele>429.0</ele><time>2026-04-25T09:33:12Z</time></trkpt><trkpt lat="43.89106667133042" lon="12.50362744657276"><ele>429.0</ele><time>2026-04-25T09:33:13Z</time></trkpt><trkpt lat="43.891030528352246" lon="12.503397870429342"><ele>430.0</ele><time>2026-04-25T09:33:14Z</time></trkpt><trkpt lat="43.890999748635565" lon="12.503164027701658"><ele>431.0</ele><time>2026-04-25T09:33:15Z</time></trkpt><trkpt lat="43.89097513688887" lon="12.502932112456392"><ele>432.0</ele><time>2026-04-25T09:33:16Z</time></trkpt><trkpt lat="43.8909658364254" lon="12.502711099858884"><ele>435.25</ele><time>2026-04-25T09:33:17Z</time></trkpt><trkpt lat="43.8909669679566" lon="12.502513185384531"><ele>438.5</ele><time>2026-04-25T09:33:18Z</time></trkpt><trkpt lat="43.89094134312087" lon="12.502333394918045"><ele>441.75</ele><time>2026-04-25T09:33:19Z</time></trkpt><trkpt lat="43.890886166133434" lon="12.502167621310004"><ele>445.0</ele><time>2026-04-25T09:33:20Z</time></trkpt><trkpt lat="43.89083725622364" lon="12.501998451057704"><ele>446.5</ele><time>2026-04-25T09:33:21Z</time></trkpt><trkpt lat="43.89083932000948" lon="12.50182526941734"><ele>448.0</ele><time>2026-04-25T09:33:22Z</time></trkpt><trkpt lat="43.89086857942725" lon="12.501673552639678"><ele>449.5</ele><time>2026-04-25T09:33:23Z</time></trkpt><trkpt lat="43.89093069177614" lon="12.501541874758873"><ele>451.0</ele><time>2026-04-25T09:33:24Z</time></trkpt><trkpt lat="43.89103994712505" lon="12.501442954384181"><ele>451.25</ele><time>2026-04-25T09:33:25Z</time></trkpt><trkpt lat="43.89116147175269" lon="12.501346990179485"><ele>451.5</ele><time>2026-04-25T09:33:26Z</time></trkpt><trkpt lat="43.89125399854515" lon="12.501203181242541"><ele>451.75</ele><time>2026-04-25T09:33:27Z</time></trkpt><trkpt lat="43.891331902553596" lon="12.50106105926236"><ele>452.0</ele><time>2026-04-25T09:33:28Z</time></trkpt><trkpt lat="43.89138787419683" lon="12.50091859500783"><ele>452.0</ele><time>2026-04-25T09:33:29Z</time></trkpt><trkpt lat="43.89142925137769" lon="12.500785841664227"><ele>452.00000000000006</ele><time>2026-04-25T09:33:30Z</time></trkpt><trkpt lat="43.8914547442806" lon="12.500651659072734"><ele>452.00000000000006</ele><time>2026-04-25T09:33:31Z</time></trkpt><trkpt lat="43.89147584756236" lon="12.50049809666495"><ele>452.0</ele><time>2026-04-25T09:33:32Z</time></trkpt><trkpt lat="43.89148772470193" lon="12.50033550836944"><ele>452.0</ele><time>2026-04-25T09:33:33Z</time></trkpt><trkpt lat="43.89148877318176" lon="12.500163036671031"><ele>452.0</ele><time>2026-04-25T09:33:34Z</time></trkpt><trkpt lat="43.8914807315258" lon="12.49997993747462"><ele>452.0</ele><time>2026-04-25T09:33:35Z</time></trkpt><trkpt lat="43.89146419587244" lon="12.499791881831399"><ele>452.0</ele><time>2026-04-25T09:33:36Z</time></trkpt><trkpt lat="43.89144234679604" lon="12.499598580920182"><ele>452.0</ele><time>2026-04-25T09:33:37Z</time></trkpt><trkpt lat="43.891425881489766" lon="12.499405795164433"><ele>453.0</ele><time>2026-04-25T09:33:38Z</time></trkpt><trkpt lat="43.89141371423583" lon="12.499211096513104"><ele>454.0</ele><time>2026-04-25T09:33:39Z</time></trkpt><trkpt lat="43.89140241713817" lon="12.499010359826704"><ele>455.0</ele><time>2026-04-25T09:33:40Z</time></trkpt><trkpt lat="43.89138524441796" lon="12.498804846945953"><ele>456.0</ele><time>2026-04-25T09:33:41Z</time></trkpt><trkpt lat="43.89136766196302" lon="12.498591235923424"><ele>458.33333333333337</ele><time>2026-04-25T09:33:42Z</time></trkpt><trkpt lat="43.89134871259712" lon="12.498374195136773"><ele>460.6666666666667</ele><time>2026-04-25T09:33:43Z</time></trkpt><trkpt lat="43.89133872624048" lon="12.49814956012968"><ele>463.0</ele><time>2026-04-25T09:33:44Z</time></trkpt><trkpt lat="43.891326146769416" lon="12.497928695202098"><ele>464.33333333333337</ele><time>2026-04-25T09:33:45Z</time></trkpt><trkpt lat="43.891308035391106" lon="12.497706998484109"><ele>465.66666666666663</ele><time>2026-04-25T09:33:46Z</time></trkpt><trkpt lat="43.89129149263464" lon="12.497489218219949"><ele>467.0</ele><time>2026-04-25T09:33:47Z</time></trkpt><trkpt lat="43.891282856713104" lon="12.497298027872024"><ele>467.0</ele><time>2026-04-25T09:33:48Z</time></trkpt><trkpt lat="43.89126921931349" lon="12.497122125334803"><ele>467.0</ele><time>2026-04-25T09:33:49Z</time></trkpt><trkpt lat="43.89122909736431" lon="12.496954942674197"><ele>467.0</ele><time>2026-04-25T09:33:50Z</time></trkpt><trkpt lat="43.89117443466608" lon="12.49680619626316"><ele>467.0</ele><time>2026-04-25T09:33:51Z</time></trkpt><trkpt lat="43.891105618777615" lon="12.496659178442437"><ele>467.40000000000003</ele><time>2026-04-25T09:33:52Z</time></trkpt><trkpt lat="43.89104390950303" lon="12.496514760515936"><ele>467.80000000000007</ele><time>2026-04-25T09:33:53Z</time></trkpt><trkpt lat="43.89101379966156" lon="12.496370749585651"><ele>468.2</ele><time>2026-04-25T09:33:54Z</time></trkpt><trkpt lat="43.89101041750441" lon="12.496234994858298"><ele>468.6</ele><time>2026-04-25T09:33:55Z</time></trkpt><trkpt lat="43.89102565138435" lon="12.496104109005792"><ele>469.0</ele><time>2026-04-25T09:33:56Z</time></trkpt><trkpt lat="43.89109304020902" lon="12.496002459317467"><ele>470.75</ele><time>2026-04-25T09:33:57Z</time></trkpt><trkpt lat="43.89114877389398" lon="12.495870219295815"><ele>472.5</ele><time>2026-04-25T09:33:58Z</time></trkpt><trkpt lat="43.89122122604132" lon="12.495761764172673"><ele>474.25</ele><time>2026-04-25T09:33:59Z</time></trkpt><trkpt lat="43.89129240931261" lon="12.495622518441012"><ele>476.0</ele><time>2026-04-25T09:34:00Z</time></trkpt><trkpt lat="43.89138158897599" lon="12.495475201184634"><ele>478.75</ele><time>2026-04-25T09:34:01Z</time></trkpt><trkpt lat="43.891476800870464" lon="12.495342798975019"><ele>481.5</ele><time>2026-04-25T09:34:02Z</time></trkpt><trkpt lat="43.891560512850404" lon="12.495228618249"><ele>484.25</ele><time>2026-04-25T09:34:03Z</time></trkpt><trkpt lat="43.891615408001435" lon="12.495080341225929"><ele>487.0</ele><time>2026-04-25T09:34:04Z</time></trkpt><trkpt lat="43.891637695850456" lon="12.494926032894748"><ele>487.0</ele><time>2026-04-25T09:34:05Z</time></trkpt><trkpt lat="43.89160719868384" lon="12.494768578829834"><ele>487.0</ele><time>2026-04-25T09:34:06Z</time></trkpt><trkpt lat="43.89154325362958" lon="12.494577923893464"><ele>487.0</ele><time>2026-04-25T09:34:07Z</time></trkpt><trkpt lat="43.89147905526545" lon="12.494383100097567"><ele>487.0</ele><time>2026-04-25T09:34:08Z</time></trkpt><trkpt lat="43.89144862062982" lon="12.494194137355622"><ele>488.20000000000005</ele><time>2026-04-25T09:34:09Z</time></trkpt><trkpt lat="43.89146324680534" lon="12.494040194629981"><ele>489.40000000000003</ele><time>2026-04-25T09:34:10Z</time></trkpt><trkpt lat="43.891479531683345" lon="12.49391063604775"><ele>490.59999999999997</ele><time>2026-04-25T09:34:11Z</time></trkpt><trkpt lat="43.89150425366579" lon="12.49378664972003"><ele>491.79999999999995</ele><time>2026-04-25T09:34:12Z</time></trkpt><trkpt lat="43.89148675299819" lon="12.493685798980446"><ele>493.0</ele><time>2026-04-25T09:34:13Z</time></trkpt><trkpt lat="43.89159877507814" lon="12.493604886940002"><ele>493.5</ele><time>2026-04-25T09:34:14Z</time></trkpt><trkpt lat="43.89168637957111" lon="12.493535298011157"><ele>494.0</ele><time>2026-04-25T09:34:15Z</time></trkpt><trkpt lat="43.89179003670992" lon="12.493457292923585"><ele>494.5</ele><time>2026-04-25T09:34:16Z</time></trkpt><trkpt lat="43.89190371103495" lon="12.493360518262168"><ele>495.0</ele><time>2026-04-25T09:34:17Z</time></trkpt><trkpt lat="43.8920295753499" lon="12.493293615439505"><ele>495.0</ele><time>2026-04-25T09:34:18Z</time></trkpt><trkpt lat="43.89214460073878" lon="12.49325744548932"><ele>495.0</ele><time>2026-04-25T09:34:19Z</time></trkpt><trkpt lat="43.89227820127565" lon="12.493225128333647"><ele>495.0</ele><time>2026-04-25T09:34:20Z</time></trkpt><trkpt lat="43.892403919322284" lon="12.493201726317587"><ele>495.0</ele><time>2026-04-25T09:34:21Z</time></trkpt><trkpt lat="43.89252641290397" lon="12.493151216709418"><ele>493.5</ele><time>2026-04-25T09:34:22Z</time></trkpt><trkpt lat="43.8926501150002" lon="12.493071224198294"><ele>492.0</ele><time>2026-04-25T09:34:23Z</time></trkpt><trkpt lat="43.8927677118923" lon="12.492960820176972"><ele>490.5</ele><time>2026-04-25T09:34:24Z</time></trkpt><trkpt lat="43.89289857264426" lon="12.492879647430808"><ele>489.0</ele><time>2026-04-25T09:34:25Z</time></trkpt><trkpt lat="43.89302464794985" lon="12.492777634283538"><ele>489.0</ele><time>2026-04-25T09:34:26Z</time></trkpt><trkpt lat="43.89315830363257" lon="12.492660170651025"><ele>489.0</ele><time>2026-04-25T09:34:27Z</time></trkpt><trkpt lat="43.893272032088824" lon="12.492517195252088"><ele>489.0</ele><time>2026-04-25T09:34:28Z</time></trkpt><trkpt lat="43.893397275436605" lon="12.492391676054442"><ele>485.25</ele><time>2026-04-25T09:34:29Z</time></trkpt><trkpt lat="43.893501647549805" lon="12.492245767909075"><ele>481.5</ele><time>2026-04-25T09:34:30Z</time></trkpt><trkpt lat="43.89361034363364" lon="12.492113220680015"><ele>477.75</ele><time>2026-04-25T09:34:31Z</time></trkpt><trkpt lat="43.89370950882961" lon="12.491966805135272"><ele>474.0</ele><time>2026-04-25T09:34:32Z</time></trkpt><trkpt lat="43.893802948048226" lon="12.491825675340783"><ele>474.0</ele><time>2026-04-25T09:34:33Z</time></trkpt><trkpt lat="43.89387500898729" lon="12.491690804934146"><ele>474.0</ele><time>2026-04-25T09:34:34Z</time></trkpt><trkpt lat="43.89394587624488" lon="12.49156292582712"><ele>474.0</ele><time>2026-04-25T09:34:35Z</time></trkpt><trkpt lat="43.89398741088899" lon="12.491416426641884"><ele>474.0</ele><time>2026-04-25T09:34:36Z</time></trkpt><trkpt lat="43.89399483835272" lon="12.491245269530218"><ele>474.0</ele><time>2026-04-25T09:34:37Z</time></trkpt><trkpt lat="43.893982029145256" lon="12.491074362336523"><ele>474.0</ele><time>2026-04-25T09:34:38Z</time></trkpt><trkpt lat="43.893967351760175" lon="12.49091210088161"><ele>474.0</ele><time>2026-04-25T09:34:39Z</time></trkpt><trkpt lat="43.893978897586905" lon="12.490770758773026"><ele>474.0</ele><time>2026-04-25T09:34:40Z</time></trkpt><trkpt lat="43.894001451206336" lon="12.490671706379649"><ele>474.0</ele><time>2026-04-25T09:34:41Z</time></trkpt><trkpt lat="43.89410278653212" lon="12.490624723989834"><ele>474.0</ele><time>2026-04-25T09:34:43Z</time></trkpt><trkpt lat="43.89417030510717" lon="12.490654183669388"><ele>474.0</ele><time>2026-04-25T09:34:44Z</time></trkpt><trkpt lat="43.89423970024679" lon="12.490742262691318"><ele>474.0</ele><time>2026-04-25T09:34:45Z</time></trkpt><trkpt lat="43.8943042805296" lon="12.490868983554236"><ele>474.0</ele><time>2026-04-25T09:34:46Z</time></trkpt><trkpt lat="43.894385509626176" lon="12.491012720705262"><ele>474.0</ele><time>2026-04-25T09:34:47Z</time></trkpt><trkpt lat="43.894460351577195" lon="12.491153595812563"><ele>470.2</ele><time>2026-04-25T09:34:48Z</time></trkpt><trkpt lat="43.89451815865525" lon="12.49127520636679"><ele>466.4</ele><time>2026-04-25T09:34:49Z</time></trkpt><trkpt lat="43.89456676838598" lon="12.491399000977285"><ele>462.6</ele><time>2026-04-25T09:34:50Z</time></trkpt><trkpt lat="43.89458007532738" lon="12.491541275826588"><ele>458.8</ele><time>2026-04-25T09:34:51Z</time></trkpt><trkpt lat="43.894579735277645" lon="12.491710581537244"><ele>455.0</ele><time>2026-04-25T09:34:52Z</time></trkpt><trkpt lat="43.89457621372171" lon="12.491907579456305"><ele>454.25</ele><time>2026-04-25T09:34:53Z</time></trkpt><trkpt lat="43.89456629722065" lon="12.492106645316323"><ele>453.5</ele><time>2026-04-25T09:34:54Z</time></trkpt><trkpt lat="43.894563451073715" lon="12.492303414920624"><ele>452.75</ele><time>2026-04-25T09:34:55Z</time></trkpt><trkpt lat="43.89458003592555" lon="12.49249100978739"><ele>452.0</ele><time>2026-04-25T09:34:56Z</time></trkpt><trkpt lat="43.8946506359479" lon="12.492645851883989"><ele>452.0</ele><time>2026-04-25T09:34:57Z</time></trkpt><trkpt lat="43.89471558899036" lon="12.492798300300333"><ele>452.0</ele><time>2026-04-25T09:34:58Z</time></trkpt><trkpt lat="43.89480222517133" lon="12.492946734747182"><ele>452.0</ele><time>2026-04-25T09:34:59Z</time></trkpt><trkpt lat="43.89486918007693" lon="12.493116206587926"><ele>452.0</ele><time>2026-04-25T09:35:00Z</time></trkpt><trkpt lat="43.894927496071894" lon="12.493262175012445"><ele>452.0</ele><time>2026-04-25T09:35:01Z</time></trkpt><trkpt lat="43.894938892688764" lon="12.493419879650345"><ele>452.0</ele><time>2026-04-25T09:35:02Z</time></trkpt><trkpt lat="43.894940078553965" lon="12.493602642065506"><ele>452.0</ele><time>2026-04-25T09:35:03Z</time></trkpt><trkpt lat="43.894945635028535" lon="12.49380009476042"><ele>452.0</ele><time>2026-04-25T09:35:04Z</time></trkpt><trkpt lat="43.89495386573515" lon="12.493957432780977"><ele>452.75</ele><time>2026-04-25T09:35:05Z</time></trkpt><trkpt lat="43.8950109889092" lon="12.494098869173387"><ele>453.5</ele><time>2026-04-25T09:35:06Z</time></trkpt><trkpt lat="43.89510867063816" lon="12.4942291051518"><ele>454.25</ele><time>2026-04-25T09:35:07Z</time></trkpt><trkpt lat="43.895232534359494" lon="12.494329201226256"><ele>455.0</ele><time>2026-04-25T09:35:08Z</time></trkpt><trkpt lat="43.89534214346065" lon="12.494461755223693"><ele>450.25</ele><time>2026-04-25T09:35:09Z</time></trkpt><trkpt lat="43.89543480815956" lon="12.494605848908623"><ele>445.5</ele><time>2026-04-25T09:35:10Z</time></trkpt><trkpt lat="43.89551557973943" lon="12.494764434661318"><ele>440.75</ele><time>2026-04-25T09:35:11Z</time></trkpt><trkpt lat="43.89560531043474" lon="12.494919123651034"><ele>436.0</ele><time>2026-04-25T09:35:12Z</time></trkpt><trkpt lat="43.89569657716596" lon="12.495056563132028"><ele>436.0</ele><time>2026-04-25T09:35:13Z</time></trkpt><trkpt lat="43.89579433194755" lon="12.495191591616043"><ele>436.0</ele><time>2026-04-25T09:35:14Z</time></trkpt><trkpt lat="43.89590097564085" lon="12.495322470274726"><ele>436.0</ele><time>2026-04-25T09:35:15Z</time></trkpt><trkpt lat="43.89602089178119" lon="12.495436371985543"><ele>436.0</ele><time>2026-04-25T09:35:16Z</time></trkpt><trkpt lat="43.8961599596024" lon="12.495501913363"><ele>433.33333333333337</ele><time>2026-04-25T09:35:17Z</time></trkpt><trkpt lat="43.89630601066789" lon="12.4955933173849"><ele>430.66666666666663</ele><time>2026-04-25T09:35:18Z</time></trkpt><trkpt lat="43.896463855136375" lon="12.495665970092185"><ele>428.0</ele><time>2026-04-25T09:35:19Z</time></trkpt><trkpt lat="43.896628172951395" lon="12.4957391318325"><ele>426.66666666666663</ele><time>2026-04-25T09:35:20Z</time></trkpt><trkpt lat="43.896794070057005" lon="12.495812996814037"><ele>425.33333333333337</ele><time>2026-04-25T09:35:21Z</time></trkpt><trkpt lat="43.896957145679174" lon="12.495885605524373"><ele>424.0</ele><time>2026-04-25T09:35:22Z</time></trkpt><trkpt lat="43.89711310149904" lon="12.495955445559177"><ele>424.0</ele><time>2026-04-25T09:35:23Z</time></trkpt><trkpt lat="43.897254511774406" lon="12.49602145321734"><ele>424.0</ele><time>2026-04-25T09:35:24Z</time></trkpt><trkpt lat="43.89739115781862" lon="12.496089051818496"><ele>424.0</ele><time>2026-04-25T09:35:25Z</time></trkpt><trkpt lat="43.89752077666407" lon="12.496168165196284"><ele>424.0</ele><time>2026-04-25T09:35:26Z</time></trkpt><trkpt lat="43.897636598707855" lon="12.49626738105341"><ele>424.0</ele><time>2026-04-25T09:35:27Z</time></trkpt><trkpt lat="43.89774962094298" lon="12.496384033456458"><ele>424.0</ele><time>2026-04-25T09:35:28Z</time></trkpt><trkpt lat="43.89785872073193" lon="12.496506150734827"><ele>424.0</ele><time>2026-04-25T09:35:29Z</time></trkpt><trkpt lat="43.897971942565455" lon="12.49661706356479"><ele>424.0</ele><time>2026-04-25T09:35:30Z</time></trkpt><trkpt lat="43.89804297117164" lon="12.49678810237043"><ele>424.0</ele><time>2026-04-25T09:35:31Z</time></trkpt><trkpt lat="43.89810873472986" lon="12.496961079966939"><ele>424.0</ele><time>2026-04-25T09:35:32Z</time></trkpt><trkpt lat="43.89816534688501" lon="12.497143412451628"><ele>424.0</ele><time>2026-04-25T09:35:33Z</time></trkpt><trkpt lat="43.898210849908104" lon="12.49731646870537"><ele>424.0</ele><time>2026-04-25T09:35:34Z</time></trkpt><trkpt lat="43.898277724039694" lon="12.497458204337223"><ele>421.5</ele><time>2026-04-25T09:35:35Z</time></trkpt><trkpt lat="43.898345968167334" lon="12.497601766323873"><ele>419.0</ele><time>2026-04-25T09:35:36Z</time></trkpt><trkpt lat="43.898436149206056" lon="12.49772467423686"><ele>416.5</ele><time>2026-04-25T09:35:37Z</time></trkpt><trkpt lat="43.898545286003255" lon="12.497831404954283"><ele>414.0</ele><time>2026-04-25T09:35:38Z</time></trkpt><trkpt lat="43.89865598924308" lon="12.497953276780681"><ele>411.0</ele><time>2026-04-25T09:35:39Z</time></trkpt><trkpt lat="43.89875232468537" lon="12.498110869075955"><ele>408.0</ele><time>2026-04-25T09:35:40Z</time></trkpt><trkpt lat="43.898846922082534" lon="12.49824846529457"><ele>405.0</ele><time>2026-04-25T09:35:41Z</time></trkpt><trkpt lat="43.89893552643596" lon="12.498359399772378"><ele>402.0</ele><time>2026-04-25T09:35:42Z</time></trkpt><trkpt lat="43.899018345902405" lon="12.49843252709364"><ele>402.0</ele><time>2026-04-25T09:35:43Z</time></trkpt><trkpt lat="43.89912775006597" lon="12.49845717336256"><ele>402.0</ele><time>2026-04-25T09:35:44Z</time></trkpt><trkpt lat="43.899241405371086" lon="12.498411075999897"><ele>402.0</ele><time>2026-04-25T09:35:45Z</time></trkpt><trkpt lat="43.899362003326246" lon="12.498369550312633"><ele>402.0</ele><time>2026-04-25T09:35:46Z</time></trkpt><trkpt lat="43.899476067025155" lon="12.498280928363227"><ele>400.5</ele><time>2026-04-25T09:35:47Z</time></trkpt><trkpt lat="43.89961458376335" lon="12.498251490186027"><ele>399.0</ele><time>2026-04-25T09:35:48Z</time></trkpt><trkpt lat="43.89974498325684" lon="12.498200827999227"><ele>397.5</ele><time>2026-04-25T09:35:49Z</time></trkpt><trkpt lat="43.89985958886156" lon="12.498213256253168"><ele>396.0</ele><time>2026-04-25T09:35:50Z</time></trkpt><trkpt lat="43.899961236725304" lon="12.498246652352986"><ele>396.0</ele><time>2026-04-25T09:35:51Z</time></trkpt><trkpt lat="43.90005191989967" lon="12.498330540686583"><ele>396.0</ele><time>2026-04-25T09:35:52Z</time></trkpt><trkpt lat="43.900150061907226" lon="12.498434680292325"><ele>396.0</ele><time>2026-04-25T09:35:53Z</time></trkpt><trkpt lat="43.900248230450096" lon="12.498560579100516"><ele>396.0</ele><time>2026-04-25T09:35:54Z</time></trkpt><trkpt lat="43.900352009629266" lon="12.498697345352051"><ele>392.66666666666663</ele><time>2026-04-25T09:35:55Z</time></trkpt><trkpt lat="43.90046256923918" lon="12.49883974015091"><ele>389.3333333333333</ele><time>2026-04-25T09:35:56Z</time></trkpt><trkpt lat="43.90058993362318" lon="12.49896925559358"><ele>386.0</ele><time>2026-04-25T09:35:57Z</time></trkpt><trkpt lat="43.9007289128098" lon="12.49909084427161"><ele>386.0</ele><time>2026-04-25T09:35:58Z</time></trkpt><trkpt lat="43.90086746938508" lon="12.499200439790036"><ele>386.0</ele><time>2026-04-25T09:35:59Z</time></trkpt><trkpt lat="43.901002085627134" lon="12.499312347955925"><ele>386.0</ele><time>2026-04-25T09:36:00Z</time></trkpt><trkpt lat="43.90114022606793" lon="12.499427187497023"><ele>384.0</ele><time>2026-04-25T09:36:01Z</time></trkpt><trkpt lat="43.90128001030217" lon="12.499542089762409"><ele>382.0</ele><time>2026-04-25T09:36:02Z</time></trkpt><trkpt lat="43.90142407257439" lon="12.499654740823557"><ele>380.0</ele><time>2026-04-25T09:36:03Z</time></trkpt><trkpt lat="43.901572801535224" lon="12.499761239929178"><ele>380.33333333333337</ele><time>2026-04-25T09:36:04Z</time></trkpt><trkpt lat="43.90172323825442" lon="12.499851933740924"><ele>380.6666666666667</ele><time>2026-04-25T09:36:05Z</time></trkpt><trkpt lat="43.90187997524231" lon="12.49993031128876"><ele>381.0</ele><time>2026-04-25T09:36:06Z</time></trkpt><trkpt lat="43.9020381708781" lon="12.500007674076135"><ele>381.0</ele><time>2026-04-25T09:36:07Z</time></trkpt><trkpt lat="43.902193285252615" lon="12.500084807122853"><ele>381.0</ele><time>2026-04-25T09:36:08Z</time></trkpt><trkpt lat="43.90234836375514" lon="12.500170983891222"><ele>381.0</ele><time>2026-04-25T09:36:09Z</time></trkpt><trkpt lat="43.902503746252066" lon="12.500259860681718"><ele>380.0</ele><time>2026-04-25T09:36:10Z</time></trkpt><trkpt lat="43.90265820535888" lon="12.500339389701955"><ele>379.0</ele><time>2026-04-25T09:36:11Z</time></trkpt><trkpt lat="43.90282276760068" lon="12.500378965015893"><ele>378.0</ele><time>2026-04-25T09:36:12Z</time></trkpt><trkpt lat="43.90299098808159" lon="12.5003659893449"><ele>378.0</ele><time>2026-04-25T09:36:13Z</time></trkpt><trkpt lat="43.903161517972585" lon="12.500359252254324"><ele>378.0</ele><time>2026-04-25T09:36:14Z</time></trkpt><trkpt lat="43.90333378857923" lon="12.500349503824868"><ele>378.0</ele><time>2026-04-25T09:36:15Z</time></trkpt><trkpt lat="43.903509307927486" lon="12.500342301255188"><ele>378.3333333333333</ele><time>2026-04-25T09:36:16Z</time></trkpt><trkpt lat="43.90368652070848" lon="12.500356688936039"><ele>378.66666666666663</ele><time>2026-04-25T09:36:17Z</time></trkpt><trkpt lat="43.90386355825829" lon="12.500350206017202"><ele>379.0</ele><time>2026-04-25T09:36:18Z</time></trkpt><trkpt lat="43.904037320503605" lon="12.50034105916435"><ele>379.0</ele><time>2026-04-25T09:36:19Z</time></trkpt><trkpt lat="43.90420598135492" lon="12.500323950649985"><ele>379.0</ele><time>2026-04-25T09:36:20Z</time></trkpt><trkpt lat="43.9043683191096" lon="12.500295675959432"><ele>379.0</ele><time>2026-04-25T09:36:21Z</time></trkpt><trkpt lat="43.90452502157919" lon="12.500258769723308"><ele>379.75</ele><time>2026-04-25T09:36:22Z</time></trkpt><trkpt lat="43.90467651819534" lon="12.500220134589949"><ele>380.5</ele><time>2026-04-25T09:36:23Z</time></trkpt><trkpt lat="43.9048226943744" lon="12.500180041973998"><ele>381.25</ele><time>2026-04-25T09:36:24Z</time></trkpt><trkpt lat="43.90496569794535" lon="12.500142536459876"><ele>382.0</ele><time>2026-04-25T09:36:25Z</time></trkpt><trkpt lat="43.90510815280341" lon="12.500108083628376"><ele>382.25</ele><time>2026-04-25T09:36:26Z</time></trkpt><trkpt lat="43.90524487921039" lon="12.500084261891253"><ele>382.5</ele><time>2026-04-25T09:36:27Z</time></trkpt><trkpt lat="43.90537276473785" lon="12.500081381669919"><ele>382.75</ele><time>2026-04-25T09:36:28Z</time></trkpt><trkpt lat="43.9054974239274" lon="12.500088795205343"><ele>383.0</ele><time>2026-04-25T09:36:29Z</time></trkpt><trkpt lat="43.90560500331454" lon="12.50012553083773"><ele>383.0</ele><time>2026-04-25T09:36:30Z</time></trkpt><trkpt lat="43.90571171187059" lon="12.500162673883764"><ele>383.0</ele><time>2026-04-25T09:36:31Z</time></trkpt><trkpt lat="43.90579821329903" lon="12.500215169726435"><ele>383.0</ele><time>2026-04-25T09:36:32Z</time></trkpt><trkpt lat="43.9058780870573" lon="12.500280588664205"><ele>383.0</ele><time>2026-04-25T09:36:33Z</time></trkpt><trkpt lat="43.905952981345436" lon="12.500381648727304"><ele>383.0</ele><time>2026-04-25T09:36:34Z</time></trkpt><trkpt lat="43.90602088757188" lon="12.500507996478847"><ele>380.25</ele><time>2026-04-25T09:36:35Z</time></trkpt><trkpt lat="43.90609545742083" lon="12.500650109824534"><ele>377.5</ele><time>2026-04-25T09:36:36Z</time></trkpt><trkpt lat="43.906175218239326" lon="12.500802115117649"><ele>374.75</ele><time>2026-04-25T09:36:37Z</time></trkpt><trkpt lat="43.90625415977666" lon="12.500955952126029"><ele>372.0</ele><time>2026-04-25T09:36:38Z</time></trkpt><trkpt lat="43.90632609290946" lon="12.50109760082757"><ele>372.0</ele><time>2026-04-25T09:36:39Z</time></trkpt><trkpt lat="43.90639336623704" lon="12.501230073948852"><ele>372.0</ele><time>2026-04-25T09:36:40Z</time></trkpt><trkpt lat="43.90645610276532" lon="12.5013536131568"><ele>372.0</ele><time>2026-04-25T09:36:41Z</time></trkpt><trkpt lat="43.906512072919874" lon="12.501450906638953"><ele>372.0</ele><time>2026-04-25T09:36:42Z</time></trkpt><trkpt lat="43.90655329771054" lon="12.501538477954963"><ele>372.0</ele><time>2026-04-25T09:36:43Z</time></trkpt><trkpt lat="43.90657912137475" lon="12.5016266214319"><ele>371.8</ele><time>2026-04-25T09:36:44Z</time></trkpt><trkpt lat="43.90658302485786" lon="12.501726755615564"><ele>371.6</ele><time>2026-04-25T09:36:45Z</time></trkpt><trkpt lat="43.90656184110517" lon="12.5018294454827"><ele>371.40000000000003</ele><time>2026-04-25T09:36:46Z</time></trkpt><trkpt lat="43.906500797871225" lon="12.50193174085123"><ele>371.20000000000005</ele><time>2026-04-25T09:36:47Z</time></trkpt><trkpt lat="43.906451785336564" lon="12.502066807386079"><ele>371.0</ele><time>2026-04-25T09:36:48Z</time></trkpt><trkpt lat="43.90638753178917" lon="12.502209865929357"><ele>370.5</ele><time>2026-04-25T09:36:49Z</time></trkpt><trkpt lat="43.90633658014544" lon="12.502361030923772"><ele>370.0</ele><time>2026-04-25T09:36:50Z</time></trkpt><trkpt lat="43.90630637974536" lon="12.502519884242917"><ele>369.5</ele><time>2026-04-25T09:36:51Z</time></trkpt><trkpt lat="43.906291756208724" lon="12.502676908809509"><ele>369.0</ele><time>2026-04-25T09:36:52Z</time></trkpt><trkpt lat="43.90627696987692" lon="12.502831954370778"><ele>368.75</ele><time>2026-04-25T09:36:53Z</time></trkpt><trkpt lat="43.90626777042713" lon="12.502992456591794"><ele>368.5</ele><time>2026-04-25T09:36:54Z</time></trkpt><trkpt lat="43.90626544707456" lon="12.503157415176673"><ele>368.25</ele><time>2026-04-25T09:36:55Z</time></trkpt><trkpt lat="43.90625567345709" lon="12.503325306681534"><ele>368.0</ele><time>2026-04-25T09:36:56Z</time></trkpt><trkpt lat="43.90623825789833" lon="12.503497105580653"><ele>368.0</ele><time>2026-04-25T09:36:57Z</time></trkpt><trkpt lat="43.90621653936721" lon="12.503673114198541"><ele>368.0</ele><time>2026-04-25T09:36:58Z</time></trkpt><trkpt lat="43.90619287644433" lon="12.503848876849547"><ele>368.0</ele><time>2026-04-25T09:36:59Z</time></trkpt><trkpt lat="43.90616529356734" lon="12.504025694380834"><ele>368.0</ele><time>2026-04-25T09:37:00Z</time></trkpt><trkpt lat="43.90613336683484" lon="12.504202206058588"><ele>369.5</ele><time>2026-04-25T09:37:01Z</time></trkpt><trkpt lat="43.90609354251957" lon="12.504378150199683"><ele>371.0</ele><time>2026-04-25T09:37:02Z</time></trkpt><trkpt lat="43.90603860905009" lon="12.504548766046176"><ele>372.5</ele><time>2026-04-25T09:37:03Z</time></trkpt><trkpt lat="43.90596980527299" lon="12.504710364576802"><ele>374.0</ele><time>2026-04-25T09:37:04Z</time></trkpt><trkpt lat="43.905889256671365" lon="12.504863437532196"><ele>371.75</ele><time>2026-04-25T09:37:05Z</time></trkpt><trkpt lat="43.90581358832477" lon="12.50500163148604"><ele>369.5</ele><time>2026-04-25T09:37:06Z</time></trkpt><trkpt lat="43.90574134107975" lon="12.50512744579399"><ele>367.25</ele><time>2026-04-25T09:37:07Z</time></trkpt><trkpt lat="43.90568502950604" lon="12.50526530146807"><ele>365.0</ele><time>2026-04-25T09:37:08Z</time></trkpt><trkpt lat="43.90564612823908" lon="12.505414767106295"><ele>365.0</ele><time>2026-04-25T09:37:09Z</time></trkpt><trkpt lat="43.90560725290163" lon="12.505563361383379"><ele>365.0</ele><time>2026-04-25T09:37:10Z</time></trkpt><trkpt lat="43.90556849878784" lon="12.505709797451795"><ele>365.0</ele><time>2026-04-25T09:37:11Z</time></trkpt><trkpt lat="43.90553271228721" lon="12.50583489743292"><ele>365.0</ele><time>2026-04-25T09:37:12Z</time></trkpt><trkpt lat="43.905488138863404" lon="12.505962676651885"><ele>365.0</ele><time>2026-04-25T09:37:13Z</time></trkpt><trkpt lat="43.90544971889082" lon="12.50610253473847"><ele>365.0</ele><time>2026-04-25T09:37:14Z</time></trkpt><trkpt lat="43.90541545021212" lon="12.506221130508736"><ele>365.0</ele><time>2026-04-25T09:37:15Z</time></trkpt><trkpt lat="43.90539209211836" lon="12.506338849682614"><ele>365.0</ele><time>2026-04-25T09:37:16Z</time></trkpt><trkpt lat="43.905381974725785" lon="12.506461987384895"><ele>365.0</ele><time>2026-04-25T09:37:17Z</time></trkpt><trkpt lat="43.90538406791204" lon="12.506571805107976"><ele>365.0</ele><time>2026-04-25T09:37:18Z</time></trkpt><trkpt lat="43.90540169325647" lon="12.506661278701944"><ele>365.0</ele><time>2026-04-25T09:37:19Z</time></trkpt><trkpt lat="43.90544558940238" lon="12.506793032776654"><ele>364.8</ele><time>2026-04-25T09:37:21Z</time></trkpt><trkpt lat="43.90558013056906" lon="12.506827769002793"><ele>364.6</ele><time>2026-04-25T09:37:23Z</time></trkpt><trkpt lat="43.90566166505334" lon="12.50683892813308"><ele>364.4</ele><time>2026-04-25T09:37:24Z</time></trkpt><trkpt lat="43.90573893037013" lon="12.5068799559837"><ele>364.2</ele><time>2026-04-25T09:37:25Z</time></trkpt><trkpt lat="43.90581670219504" lon="12.506975360394469"><ele>364.0</ele><time>2026-04-25T09:37:26Z</time></trkpt><trkpt lat="43.90591628918695" lon="12.507082728674368"><ele>364.0</ele><time>2026-04-25T09:37:27Z</time></trkpt><trkpt lat="43.90600780240522" lon="12.507177746397035"><ele>364.0</ele><time>2026-04-25T09:37:28Z</time></trkpt><trkpt lat="43.90609591261974" lon="12.507247481968351"><ele>364.0</ele><time>2026-04-25T09:37:29Z</time></trkpt><trkpt lat="43.90616802704968" lon="12.507329253893325"><ele>364.0</ele><time>2026-04-25T09:37:30Z</time></trkpt><trkpt lat="43.906251781363935" lon="12.507415764257235"><ele>364.0</ele><time>2026-04-25T09:37:31Z</time></trkpt><trkpt lat="43.90634196425682" lon="12.507482694476764"><ele>364.0</ele><time>2026-04-25T09:37:32Z</time></trkpt><trkpt lat="43.90643123080881" lon="12.507560466786568"><ele>364.0</ele><time>2026-04-25T09:37:33Z</time></trkpt><trkpt lat="43.90654334496789" lon="12.507568994619014"><ele>364.0</ele><time>2026-04-25T09:37:34Z</time></trkpt><trkpt lat="43.90665322816198" lon="12.507585237508074"><ele>364.0</ele><time>2026-04-25T09:37:35Z</time></trkpt><trkpt lat="43.90676190252823" lon="12.507628996791516"><ele>364.0</ele><time>2026-04-25T09:37:36Z</time></trkpt><trkpt lat="43.906874423353294" lon="12.507656996492187"><ele>364.4</ele><time>2026-04-25T09:37:37Z</time></trkpt><trkpt lat="43.90698232915259" lon="12.507691183222983"><ele>364.79999999999995</ele><time>2026-04-25T09:37:38Z</time></trkpt><trkpt lat="43.90708059598455" lon="12.507734931733228"><ele>365.20000000000005</ele><time>2026-04-25T09:37:39Z</time></trkpt><trkpt lat="43.90717832746975" lon="12.507775251469733"><ele>365.6</ele><time>2026-04-25T09:37:40Z</time></trkpt><trkpt lat="43.90726349340045" lon="12.50785201646878"><ele>366.0</ele><time>2026-04-25T09:37:41Z</time></trkpt><trkpt lat="43.907335552275505" lon="12.507945192643165"><ele>366.0</ele><time>2026-04-25T09:37:42Z</time></trkpt><trkpt lat="43.907411788163536" lon="12.508032296119271"><ele>366.0</ele><time>2026-04-25T09:37:43Z</time></trkpt><trkpt lat="43.907493571054246" lon="12.50812415969971"><ele>366.0</ele><time>2026-04-25T09:37:44Z</time></trkpt><trkpt lat="43.9075796640144" lon="12.508220182538109"><ele>366.0</ele><time>2026-04-25T09:37:45Z</time></trkpt><trkpt lat="43.90766984735333" lon="12.508319926065345"><ele>366.0</ele><time>2026-04-25T09:37:46Z</time></trkpt><trkpt lat="43.90776683588683" lon="12.508424012673993"><ele>364.75</ele><time>2026-04-25T09:37:47Z</time></trkpt><trkpt lat="43.907866623493284" lon="12.50853897532285"><ele>363.5</ele><time>2026-04-25T09:37:48Z</time></trkpt><trkpt lat="43.907969848230884" lon="12.508654864952089"><ele>362.25</ele><time>2026-04-25T09:37:49Z</time></trkpt><trkpt lat="43.90808049760976" lon="12.50877164365173"><ele>361.0</ele><time>2026-04-25T09:37:50Z</time></trkpt><trkpt lat="43.90818867886563" lon="12.508894007124603"><ele>361.0</ele><time>2026-04-25T09:37:51Z</time></trkpt><trkpt lat="43.90829002275483" lon="12.509010065656028"><ele>361.0</ele><time>2026-04-25T09:37:52Z</time></trkpt><trkpt lat="43.908382106656624" lon="12.50911611061211"><ele>361.0</ele><time>2026-04-25T09:37:53Z</time></trkpt><trkpt lat="43.90846127074655" lon="12.509213933297039"><ele>361.0</ele><time>2026-04-25T09:37:54Z</time></trkpt><trkpt lat="43.90851116416002" lon="12.509284109984764"><ele>361.0</ele><time>2026-04-25T09:37:55Z</time></trkpt><trkpt lat="43.908560482636595" lon="12.509339948799616"><ele>361.0</ele><time>2026-04-25T09:37:56Z</time></trkpt><trkpt lat="43.90861229522746" lon="12.509407701511101"><ele>361.0</ele><time>2026-04-25T09:37:57Z</time></trkpt><trkpt lat="43.9086580292068" lon="12.50950232420162"><ele>361.0</ele><time>2026-04-25T09:37:58Z</time></trkpt><trkpt lat="43.90869489605624" lon="12.509619498627018"><ele>361.0</ele><time>2026-04-25T09:37:59Z</time></trkpt><trkpt lat="43.90873187952095" lon="12.509748497025463"><ele>361.0</ele><time>2026-04-25T09:38:00Z</time></trkpt><trkpt lat="43.9087751578768" lon="12.509875457551878"><ele>361.0</ele><time>2026-04-25T09:38:01Z</time></trkpt><trkpt lat="43.908820158790576" lon="12.510008361793242"><ele>361.0</ele><time>2026-04-25T09:38:02Z</time></trkpt><trkpt lat="43.90885602050842" lon="12.5101492863765"><ele>361.0</ele><time>2026-04-25T09:38:03Z</time></trkpt><trkpt lat="43.9088949298796" lon="12.510284450343919"><ele>361.0</ele><time>2026-04-25T09:38:04Z</time></trkpt><trkpt lat="43.9089321687604" lon="12.510417795236258"><ele>361.0</ele><time>2026-04-25T09:38:05Z</time></trkpt><trkpt lat="43.90896536954841" lon="12.51055053910709"><ele>361.0</ele><time>2026-04-25T09:38:06Z</time></trkpt><trkpt lat="43.90898005364054" lon="12.510675042804683"><ele>361.0</ele><time>2026-04-25T09:38:07Z</time></trkpt><trkpt lat="43.90897245839515" lon="12.5107923819375"><ele>361.0</ele><time>2026-04-25T09:38:08Z</time></trkpt><trkpt lat="43.90894203155068" lon="12.510909840236579"><ele>361.0</ele><time>2026-04-25T09:38:09Z</time></trkpt><trkpt lat="43.90889397072168" lon="12.511026173283058"><ele>361.0</ele><time>2026-04-25T09:38:10Z</time></trkpt><trkpt lat="43.908838783079766" lon="12.511139900611512"><ele>361.0</ele><time>2026-04-25T09:38:11Z</time></trkpt><trkpt lat="43.90879324926709" lon="12.511262550534099"><ele>360.8333333333333</ele><time>2026-04-25T09:38:12Z</time></trkpt><trkpt lat="43.90876361285957" lon="12.511387123427252"><ele>360.66666666666663</ele><time>2026-04-25T09:38:13Z</time></trkpt><trkpt lat="43.90873807614598" lon="12.511504972272022"><ele>360.5</ele><time>2026-04-25T09:38:14Z</time></trkpt><trkpt lat="43.908711517776474" lon="12.51161579160774"><ele>360.3333333333333</ele><time>2026-04-25T09:38:15Z</time></trkpt><trkpt lat="43.90868207949146" lon="12.511714800738316"><ele>360.1666666666667</ele><time>2026-04-25T09:38:16Z</time></trkpt><trkpt lat="43.908660480815755" lon="12.511809943464172"><ele>360.0</ele><time>2026-04-25T09:38:17Z</time></trkpt><trkpt lat="43.9086736951654" lon="12.511926322333752"><ele>360.0</ele><time>2026-04-25T09:38:18Z</time></trkpt><trkpt lat="43.90871589379228" lon="12.512035588577447"><ele>360.0</ele><time>2026-04-25T09:38:19Z</time></trkpt><trkpt lat="43.90875253802219" lon="12.512147812929888"><ele>360.0</ele><time>2026-04-25T09:38:20Z</time></trkpt><trkpt lat="43.90879470009814" lon="12.512263316726163"><ele>360.0</ele><time>2026-04-25T09:38:21Z</time></trkpt><trkpt lat="43.90884987080273" lon="12.51237778373071"><ele>360.0</ele><time>2026-04-25T09:38:22Z</time></trkpt><trkpt lat="43.90891550477702" lon="12.512476518739101"><ele>358.4</ele><time>2026-04-25T09:38:23Z</time></trkpt><trkpt lat="43.90898772905321" lon="12.512568225135478"><ele>356.8</ele><time>2026-04-25T09:38:24Z</time></trkpt><trkpt lat="43.90905673063444" lon="12.512675973781507"><ele>355.20000000000005</ele><time>2026-04-25T09:38:25Z</time></trkpt><trkpt lat="43.909143780489714" lon="12.512761050569182"><ele>353.6</ele><time>2026-04-25T09:38:26Z</time></trkpt><trkpt lat="43.9092365126274" lon="12.512845561848703"><ele>352.0</ele><time>2026-04-25T09:38:27Z</time></trkpt><trkpt lat="43.909336695705385" lon="12.512924828378369"><ele>348.5</ele><time>2026-04-25T09:38:28Z</time></trkpt><trkpt lat="43.90945212768734" lon="12.512980900220475"><ele>345.0</ele><time>2026-04-25T09:38:29Z</time></trkpt><trkpt lat="43.909567319382646" lon="12.513064441706451"><ele>341.5</ele><time>2026-04-25T09:38:30Z</time></trkpt><trkpt lat="43.90968485109921" lon="12.513148788046704"><ele>338.0</ele><time>2026-04-25T09:38:31Z</time></trkpt><trkpt lat="43.909792851447925" lon="12.513256028802243"><ele>338.0</ele><time>2026-04-25T09:38:32Z</time></trkpt><trkpt lat="43.909891143150105" lon="12.513362661034389"><ele>338.0</ele><time>2026-04-25T09:38:33Z</time></trkpt><trkpt lat="43.909963129336894" lon="12.513498368141162"><ele>338.0</ele><time>2026-04-25T09:38:34Z</time></trkpt><trkpt lat="43.910040724634236" lon="12.513624783053066"><ele>338.0</ele><time>2026-04-25T09:38:35Z</time></trkpt><trkpt lat="43.91010632425499" lon="12.513775598356354"><ele>335.75</ele><time>2026-04-25T09:38:36Z</time></trkpt><trkpt lat="43.91017473567332" lon="12.513926966075985"><ele>333.5</ele><time>2026-04-25T09:38:37Z</time></trkpt><trkpt lat="43.91024354714095" lon="12.514076163876396"><ele>331.25</ele><time>2026-04-25T09:38:38Z</time></trkpt><trkpt lat="43.910313824624005" lon="12.514230527917515"><ele>329.0</ele><time>2026-04-25T09:38:39Z</time></trkpt><trkpt lat="43.910368089959334" lon="12.51439414977226"><ele>330.75</ele><time>2026-04-25T09:38:40Z</time></trkpt><trkpt lat="43.91039526212262" lon="12.514572764228955"><ele>332.5</ele><time>2026-04-25T09:38:41Z</time></trkpt><trkpt lat="43.91041063098413" lon="12.514754730418234"><ele>334.25</ele><time>2026-04-25T09:38:42Z</time></trkpt><trkpt lat="43.910420999932406" lon="12.514935294254968"><ele>336.0</ele><time>2026-04-25T09:38:43Z</time></trkpt><trkpt lat="43.91042665861588" lon="12.515111602956635"><ele>336.0</ele><time>2026-04-25T09:38:44Z</time></trkpt><trkpt lat="43.91043000352413" lon="12.515284363954366"><ele>336.0</ele><time>2026-04-25T09:38:45Z</time></trkpt><trkpt lat="43.910438125680486" lon="12.51545349836864"><ele>336.0</ele><time>2026-04-25T09:38:46Z</time></trkpt><trkpt lat="43.91044681140999" lon="12.515616910759631"><ele>336.0</ele><time>2026-04-25T09:38:47Z</time></trkpt><trkpt lat="43.91046580754478" lon="12.515774397395514"><ele>338.0</ele><time>2026-04-25T09:38:48Z</time></trkpt><trkpt lat="43.91050120158244" lon="12.515922180712145"><ele>340.0</ele><time>2026-04-25T09:38:49Z</time></trkpt><trkpt lat="43.91056169836402" lon="12.51605488763701"><ele>342.0</ele><time>2026-04-25T09:38:50Z</time></trkpt><trkpt lat="43.91064112186003" lon="12.516165150827819"><ele>344.0</ele><time>2026-04-25T09:38:51Z</time></trkpt><trkpt lat="43.910726599214605" lon="12.516266398608579"><ele>344.0</ele><time>2026-04-25T09:38:52Z</time></trkpt><trkpt lat="43.91081554552615" lon="12.51636515654442"><ele>344.0</ele><time>2026-04-25T09:38:53Z</time></trkpt><trkpt lat="43.91090698681451" lon="12.516463620997309"><ele>344.0</ele><time>2026-04-25T09:38:54Z</time></trkpt><trkpt lat="43.911010454019625" lon="12.516541626751895"><ele>344.0</ele><time>2026-04-25T09:38:55Z</time></trkpt><trkpt lat="43.91112672622913" lon="12.516582666700364"><ele>344.4</ele><time>2026-04-25T09:38:56Z</time></trkpt><trkpt lat="43.911228807121645" lon="12.516636263319134"><ele>344.79999999999995</ele><time>2026-04-25T09:38:57Z</time></trkpt><trkpt lat="43.91130154732922" lon="12.516710739924047"><ele>345.20000000000005</ele><time>2026-04-25T09:38:58Z</time></trkpt><trkpt lat="43.91135563036678" lon="12.516821860407497"><ele>345.6</ele><time>2026-04-25T09:38:59Z</time></trkpt><trkpt lat="43.911393266224984" lon="12.516961305419677"><ele>346.0</ele><time>2026-04-25T09:39:00Z</time></trkpt><trkpt lat="43.91140297429444" lon="12.517114577837706"><ele>347.20000000000005</ele><time>2026-04-25T09:39:01Z</time></trkpt><trkpt lat="43.911423424265536" lon="12.517267433676187"><ele>348.40000000000003</ele><time>2026-04-25T09:39:02Z</time></trkpt><trkpt lat="43.911456757899046" lon="12.517403662418232"><ele>349.6</ele><time>2026-04-25T09:39:03Z</time></trkpt><trkpt lat="43.91150023482787" lon="12.517522396277716"><ele>350.8</ele><time>2026-04-25T09:39:04Z</time></trkpt><trkpt lat="43.911549550636956" lon="12.517631229191306"><ele>352.0</ele><time>2026-04-25T09:39:05Z</time></trkpt><trkpt lat="43.91159469596934" lon="12.51772181701868"><ele>352.0</ele><time>2026-04-25T09:39:06Z</time></trkpt><trkpt lat="43.91163493276244" lon="12.517793607463858"><ele>352.0</ele><time>2026-04-25T09:39:07Z</time></trkpt><trkpt lat="43.91173052258816" lon="12.517896607905913"><ele>352.0</ele><time>2026-04-25T09:39:09Z</time></trkpt><trkpt lat="43.911796772912766" lon="12.517948403629475"><ele>352.0</ele><time>2026-04-25T09:39:10Z</time></trkpt><trkpt lat="43.91187637472355" lon="12.517997084646641"><ele>352.0</ele><time>2026-04-25T09:39:11Z</time></trkpt><trkpt lat="43.9119606444587" lon="12.518044539631985"><ele>352.0</ele><time>2026-04-25T09:39:12Z</time></trkpt><trkpt lat="43.91204709528003" lon="12.518116746860974"><ele>350.25</ele><time>2026-04-25T09:39:13Z</time></trkpt><trkpt lat="43.91215240864038" lon="12.518164883639537"><ele>348.5</ele><time>2026-04-25T09:39:14Z</time></trkpt><trkpt lat="43.91227362097819" lon="12.518199819571961"><ele>346.75</ele><time>2026-04-25T09:39:15Z</time></trkpt><trkpt lat="43.912398245962976" lon="12.518191061383577"><ele>345.0</ele><time>2026-04-25T09:39:16Z</time></trkpt><trkpt lat="43.91251075661785" lon="12.518199188275574"><ele>344.6</ele><time>2026-04-25T09:39:17Z</time></trkpt><trkpt lat="43.91262747270461" lon="12.518202324761281"><ele>344.2</ele><time>2026-04-25T09:39:18Z</time></trkpt><trkpt lat="43.912743022839805" lon="12.51820237558073"><ele>343.79999999999995</ele><time>2026-04-25T09:39:19Z</time></trkpt><trkpt lat="43.91284750702431" lon="12.518202334184165"><ele>343.4</ele><time>2026-04-25T09:39:20Z</time></trkpt><trkpt lat="43.912944968259374" lon="12.51820007147184"><ele>343.0</ele><time>2026-04-25T09:39:21Z</time></trkpt><trkpt lat="43.913046991442364" lon="12.518204123858434"><ele>343.0</ele><time>2026-04-25T09:39:22Z</time></trkpt><trkpt lat="43.91315673312809" lon="12.518170304760792"><ele>343.0</ele><time>2026-04-25T09:39:23Z</time></trkpt><trkpt lat="43.91327209555486" lon="12.518130473108597"><ele>343.0</ele><time>2026-04-25T09:39:24Z</time></trkpt><trkpt lat="43.91338849414735" lon="12.518078762060712"><ele>343.0</ele><time>2026-04-25T09:39:25Z</time></trkpt><trkpt lat="43.9134990698985" lon="12.518017057181611"><ele>340.25</ele><time>2026-04-25T09:39:26Z</time></trkpt><trkpt lat="43.91360346839366" lon="12.517945631032303"><ele>337.5</ele><time>2026-04-25T09:39:27Z</time></trkpt><trkpt lat="43.913704518752695" lon="12.517862253333147"><ele>334.75</ele><time>2026-04-25T09:39:28Z</time></trkpt><trkpt lat="43.913805023143766" lon="12.517768825447142"><ele>332.0</ele><time>2026-04-25T09:39:29Z</time></trkpt><trkpt lat="43.91390055465086" lon="12.517670699603373"><ele>332.0</ele><time>2026-04-25T09:39:30Z</time></trkpt><trkpt lat="43.91399488410908" lon="12.517570794264824"><ele>332.0</ele><time>2026-04-25T09:39:31Z</time></trkpt><trkpt lat="43.91408556842941" lon="12.517474102457099"><ele>332.0</ele><time>2026-04-25T09:39:32Z</time></trkpt><trkpt lat="43.91418508091584" lon="12.517391615396368"><ele>332.0</ele><time>2026-04-25T09:39:33Z</time></trkpt><trkpt lat="43.914290845500624" lon="12.5173321074414"><ele>331.20000000000005</ele><time>2026-04-25T09:39:34Z</time></trkpt><trkpt lat="43.91439803998981" lon="12.517277007092723"><ele>330.4</ele><time>2026-04-25T09:39:35Z</time></trkpt><trkpt lat="43.91449884798121" lon="12.517217116656282"><ele>329.6</ele><time>2026-04-25T09:39:36Z</time></trkpt><trkpt lat="43.914592787710184" lon="12.517157310111667"><ele>328.79999999999995</ele><time>2026-04-25T09:39:37Z</time></trkpt><trkpt lat="43.91467608910907" lon="12.517108312183552"><ele>328.0</ele><time>2026-04-25T09:39:38Z</time></trkpt><trkpt lat="43.91476296335235" lon="12.51708331819171"><ele>328.0</ele><time>2026-04-25T09:39:39Z</time></trkpt><trkpt lat="43.91484776343396" lon="12.5170872114246"><ele>328.0</ele><time>2026-04-25T09:39:40Z</time></trkpt><trkpt lat="43.914935828711656" lon="12.517123724136248"><ele>328.0</ele><time>2026-04-25T09:39:41Z</time></trkpt><trkpt lat="43.91501398711946" lon="12.517193138286"><ele>328.0</ele><time>2026-04-25T09:39:42Z</time></trkpt><trkpt lat="43.915085076611064" lon="12.517284897822986"><ele>328.0</ele><time>2026-04-25T09:39:43Z</time></trkpt><trkpt lat="43.91512686365024" lon="12.5174135127832"><ele>326.4</ele><time>2026-04-25T09:39:44Z</time></trkpt><trkpt lat="43.915190405123035" lon="12.517522405314532"><ele>324.79999999999995</ele><time>2026-04-25T09:39:45Z</time></trkpt><trkpt lat="43.91528551412429" lon="12.517577656051639"><ele>323.2</ele><time>2026-04-25T09:39:46Z</time></trkpt><trkpt lat="43.91537400321045" lon="12.517658555678274"><ele>321.6</ele><time>2026-04-25T09:39:47Z</time></trkpt><trkpt lat="43.915472559171604" lon="12.517725817692234"><ele>320.0</ele><time>2026-04-25T09:39:48Z</time></trkpt><trkpt lat="43.91557842341147" lon="12.517795515836651"><ele>320.0</ele><time>2026-04-25T09:39:49Z</time></trkpt><trkpt lat="43.91568774793812" lon="12.517862974883824"><ele>320.0</ele><time>2026-04-25T09:39:50Z</time></trkpt><trkpt lat="43.915808060351324" lon="12.517912475738203"><ele>320.0</ele><time>2026-04-25T09:39:51Z</time></trkpt><trkpt lat="43.91592389959365" lon="12.517979000637869"><ele>320.0</ele><time>2026-04-25T09:39:52Z</time></trkpt><trkpt lat="43.91603320073203" lon="12.518059673277891"><ele>319.25</ele><time>2026-04-25T09:39:53Z</time></trkpt><trkpt lat="43.91614045418015" lon="12.518119654692347"><ele>318.5</ele><time>2026-04-25T09:39:54Z</time></trkpt><trkpt lat="43.91621989755883" lon="12.518231378676223"><ele>317.75</ele><time>2026-04-25T09:39:55Z</time></trkpt><trkpt lat="43.916290357052674" lon="12.518353407545144"><ele>317.0</ele><time>2026-04-25T09:39:56Z</time></trkpt><trkpt lat="43.91635025365619" lon="12.518503145568998"><ele>317.0</ele><time>2026-04-25T09:39:57Z</time></trkpt><trkpt lat="43.91642260497376" lon="12.51865303278738"><ele>317.0</ele><time>2026-04-25T09:39:58Z</time></trkpt><trkpt lat="43.916512272612785" lon="12.518795593179828"><ele>317.0</ele><time>2026-04-25T09:39:59Z</time></trkpt><trkpt lat="43.916586547524034" lon="12.518954394742654"><ele>317.0</ele><time>2026-04-25T09:40:00Z</time></trkpt><trkpt lat="43.916658913181855" lon="12.519109804828368"><ele>319.5</ele><time>2026-04-25T09:40:01Z</time></trkpt><trkpt lat="43.916719641603706" lon="12.519269075414673"><ele>322.0</ele><time>2026-04-25T09:40:02Z</time></trkpt><trkpt lat="43.91676095683738" lon="12.519434991356936"><ele>324.5</ele><time>2026-04-25T09:40:03Z</time></trkpt><trkpt lat="43.91679064985786" lon="12.519600871468553"><ele>327.0</ele><time>2026-04-25T09:40:04Z</time></trkpt><trkpt lat="43.91682455112999" lon="12.519761340928824"><ele>332.25</ele><time>2026-04-25T09:40:05Z</time></trkpt><trkpt lat="43.91686299038391" lon="12.519914275932289"><ele>337.5</ele><time>2026-04-25T09:40:06Z</time></trkpt><trkpt lat="43.91690242481811" lon="12.520068467380044"><ele>342.75</ele><time>2026-04-25T09:40:07Z</time></trkpt><trkpt lat="43.91694801474123" lon="12.520224431646218"><ele>348.0</ele><time>2026-04-25T09:40:08Z</time></trkpt><trkpt lat="43.916996290490566" lon="12.52037645278953"><ele>348.0</ele><time>2026-04-25T09:40:09Z</time></trkpt><trkpt lat="43.917047006150774" lon="12.520477980927044"><ele>348.0</ele><time>2026-04-25T09:40:10Z</time></trkpt><trkpt lat="43.917161193238336" lon="12.520522576706211"><ele>348.0</ele><time>2026-04-25T09:40:12Z</time></trkpt><trkpt lat="43.91724061552647" lon="12.520495328082486"><ele>348.0</ele><time>2026-04-25T09:40:13Z</time></trkpt><trkpt lat="43.917317948117905" lon="12.520398885202614"><ele>348.0</ele><time>2026-04-25T09:40:14Z</time></trkpt><trkpt lat="43.91739192637787" lon="12.520299101160292"><ele>348.0</ele><time>2026-04-25T09:40:15Z</time></trkpt><trkpt lat="43.91749616048904" lon="12.520223156266352"><ele>348.0</ele><time>2026-04-25T09:40:16Z</time></trkpt><trkpt lat="43.9175988290528" lon="12.520154011293945"><ele>348.0</ele><time>2026-04-25T09:40:17Z</time></trkpt><trkpt lat="43.91769160155405" lon="12.520092137851323"><ele>348.0</ele><time>2026-04-25T09:40:18Z</time></trkpt><trkpt lat="43.91776696181784" lon="12.520042710795888"><ele>348.0</ele><time>2026-04-25T09:40:19Z</time></trkpt><trkpt lat="43.91784114139905" lon="12.520003118587704"><ele>349.59999999999997</ele><time>2026-04-25T09:40:20Z</time></trkpt><trkpt lat="43.9179226391267" lon="12.51998217517274"><ele>351.2</ele><time>2026-04-25T09:40:21Z</time></trkpt><trkpt lat="43.918008869381346" lon="12.519996621626529"><ele>352.8</ele><time>2026-04-25T09:40:22Z</time></trkpt><trkpt lat="43.91809693029644" lon="12.520043609730438"><ele>354.4</ele><time>2026-04-25T09:40:23Z</time></trkpt><trkpt lat="43.91816115803599" lon="12.520141169286703"><ele>356.0</ele><time>2026-04-25T09:40:24Z</time></trkpt><trkpt lat="43.91821875793679" lon="12.520248868690524"><ele>356.0</ele><time>2026-04-25T09:40:25Z</time></trkpt><trkpt lat="43.918275719655846" lon="12.520340738956213"><ele>356.0</ele><time>2026-04-25T09:40:26Z</time></trkpt><trkpt lat="43.918319407378085" lon="12.520435646390188"><ele>356.0</ele><time>2026-04-25T09:40:28Z</time></trkpt><trkpt lat="43.91839615213342" lon="12.520527457695984"><ele>356.0</ele><time>2026-04-25T09:40:31Z</time></trkpt><trkpt lat="43.918437949653786" lon="12.520602414189014"><ele>356.0</ele><time>2026-04-25T09:40:32Z</time></trkpt><trkpt lat="43.918501136706105" lon="12.520643425911707"><ele>356.0</ele><time>2026-04-25T09:40:33Z</time></trkpt><trkpt lat="43.91855957769436" lon="12.520705839336138"><ele>358.0</ele><time>2026-04-25T09:40:34Z</time></trkpt><trkpt lat="43.91861825456581" lon="12.520776977765037"><ele>360.0</ele><time>2026-04-25T09:40:35Z</time></trkpt><trkpt lat="43.91866722767035" lon="12.520832333296092"><ele>362.0</ele><time>2026-04-25T09:40:36Z</time></trkpt><trkpt lat="43.91872057402933" lon="12.520898678522359"><ele>364.0</ele><time>2026-04-25T09:40:37Z</time></trkpt><trkpt lat="43.91877531593628" lon="12.520977316484808"><ele>366.0</ele><time>2026-04-25T09:40:38Z</time></trkpt><trkpt lat="43.918834086010904" lon="12.521058376566101"><ele>368.0</ele><time>2026-04-25T09:40:39Z</time></trkpt><trkpt lat="43.9188957287087" lon="12.521143791920942"><ele>370.0</ele><time>2026-04-25T09:40:40Z</time></trkpt><trkpt lat="43.9189605245412" lon="12.52123316902003"><ele>372.0</ele><time>2026-04-25T09:40:41Z</time></trkpt><trkpt lat="43.91902506787842" lon="12.521330751045324"><ele>374.0</ele><time>2026-04-25T09:40:42Z</time></trkpt><trkpt lat="43.91908822506586" lon="12.521444138639513"><ele>376.0</ele><time>2026-04-25T09:40:43Z</time></trkpt><trkpt lat="43.919166966526944" lon="12.521533471003341"><ele>378.0</ele><time>2026-04-25T09:40:44Z</time></trkpt><trkpt lat="43.919249804423195" lon="12.521603224692178"><ele>381.0</ele><time>2026-04-25T09:40:45Z</time></trkpt><trkpt lat="43.91933142930175" lon="12.521657624176173"><ele>384.0</ele><time>2026-04-25T09:40:46Z</time></trkpt><trkpt lat="43.919427951806725" lon="12.521666838811361"><ele>387.0</ele><time>2026-04-25T09:40:47Z</time></trkpt><trkpt lat="43.919524603691656" lon="12.521673003025803"><ele>390.0</ele><time>2026-04-25T09:40:48Z</time></trkpt><trkpt lat="43.919623340701534" lon="12.52165225039043"><ele>393.0</ele><time>2026-04-25T09:40:49Z</time></trkpt><trkpt lat="43.91972488192294" lon="12.521586115868368"><ele>393.0</ele><time>2026-04-25T09:40:50Z</time></trkpt><trkpt lat="43.91981516366108" lon="12.521523494743793"><ele>393.0</ele><time>2026-04-25T09:40:51Z</time></trkpt><trkpt lat="43.919913781924016" lon="12.521474572969208"><ele>393.0</ele><time>2026-04-25T09:40:52Z</time></trkpt><trkpt lat="43.92001879230543" lon="12.521425651212075"><ele>393.0</ele><time>2026-04-25T09:40:53Z</time></trkpt><trkpt lat="43.92013240878582" lon="12.521366693642443"><ele>393.0</ele><time>2026-04-25T09:40:54Z</time></trkpt><trkpt lat="43.920248126336716" lon="12.521323381529449"><ele>392.75</ele><time>2026-04-25T09:40:55Z</time></trkpt><trkpt lat="43.92036514978131" lon="12.52127242007002"><ele>392.5</ele><time>2026-04-25T09:40:56Z</time></trkpt><trkpt lat="43.92047906218505" lon="12.52121066026197"><ele>392.25</ele><time>2026-04-25T09:40:57Z</time></trkpt><trkpt lat="43.920592532150984" lon="12.521143201106819"><ele>392.0</ele><time>2026-04-25T09:40:58Z</time></trkpt><trkpt lat="43.920707147947816" lon="12.521072540065886"><ele>392.0</ele><time>2026-04-25T09:40:59Z</time></trkpt><trkpt lat="43.92082415113593" lon="12.521009999301697"><ele>392.0</ele><time>2026-04-25T09:41:00Z</time></trkpt><trkpt lat="43.92093794462866" lon="12.520952088280568"><ele>392.0</ele><time>2026-04-25T09:41:01Z</time></trkpt><trkpt lat="43.92105051149663" lon="12.520891188904145"><ele>392.0</ele><time>2026-04-25T09:41:02Z</time></trkpt><trkpt lat="43.92116005862323" lon="12.520831446302088"><ele>394.40000000000003</ele><time>2026-04-25T09:41:03Z</time></trkpt><trkpt lat="43.92126585259411" lon="12.520776875813514"><ele>396.8</ele><time>2026-04-25T09:41:04Z</time></trkpt><trkpt lat="43.921372977796636" lon="12.52073865375955"><ele>399.2</ele><time>2026-04-25T09:41:05Z</time></trkpt><trkpt lat="43.92148089705135" lon="12.520715550421048"><ele>401.6</ele><time>2026-04-25T09:41:06Z</time></trkpt><trkpt lat="43.92158740806632" lon="12.52069319802802"><ele>404.0</ele><time>2026-04-25T09:41:07Z</time></trkpt><trkpt lat="43.921690377326605" lon="12.520666305232371"><ele>402.2</ele><time>2026-04-25T09:41:08Z</time></trkpt><trkpt lat="43.921791795750394" lon="12.520634330180354"><ele>400.4</ele><time>2026-04-25T09:41:09Z</time></trkpt><trkpt lat="43.921883575144186" lon="12.520618320400493"><ele>398.6</ele><time>2026-04-25T09:41:10Z</time></trkpt><trkpt lat="43.922001818873845" lon="12.520644413919438"><ele>396.8</ele><time>2026-04-25T09:41:12Z</time></trkpt><trkpt lat="43.92207724264906" lon="12.520758294269356"><ele>395.0</ele><time>2026-04-25T09:41:14Z</time></trkpt><trkpt lat="43.92209467781731" lon="12.520866017133038"><ele>395.0</ele><time>2026-04-25T09:41:15Z</time></trkpt><trkpt lat="43.92208629246567" lon="12.520981615656941"><ele>395.0</ele><time>2026-04-25T09:41:16Z</time></trkpt><trkpt lat="43.92209027392767" lon="12.521105030046352"><ele>395.0</ele><time>2026-04-25T09:41:17Z</time></trkpt><trkpt lat="43.92210353612879" lon="12.521232565049434"><ele>395.0</ele><time>2026-04-25T09:41:18Z</time></trkpt><trkpt lat="43.9221391289893" lon="12.521353267051483"><ele>395.0</ele><time>2026-04-25T09:41:19Z</time></trkpt><trkpt lat="43.922218989482815" lon="12.521435209418938"><ele>393.6</ele><time>2026-04-25T09:41:20Z</time></trkpt><trkpt lat="43.92229847759447" lon="12.521502893616455"><ele>392.2</ele><time>2026-04-25T09:41:21Z</time></trkpt><trkpt lat="43.92238835246598" lon="12.521564668450562"><ele>390.79999999999995</ele><time>2026-04-25T09:41:22Z</time></trkpt><trkpt lat="43.92247747562459" lon="12.521629981985628"><ele>389.4</ele><time>2026-04-25T09:41:23Z</time></trkpt><trkpt lat="43.92258391516344" lon="12.521692335412197"><ele>388.0</ele><time>2026-04-25T09:41:24Z</time></trkpt><trkpt lat="43.922696053838926" lon="12.521756079244701"><ele>388.0</ele><time>2026-04-25T09:41:25Z</time></trkpt><trkpt lat="43.922793350089606" lon="12.521806609604184"><ele>388.0</ele><time>2026-04-25T09:41:26Z</time></trkpt><trkpt lat="43.922886870944374" lon="12.52185242662855"><ele>388.0</ele><time>2026-04-25T09:41:27Z</time></trkpt><trkpt lat="43.922972413952344" lon="12.521903450601132"><ele>388.0</ele><time>2026-04-25T09:41:28Z</time></trkpt><trkpt lat="43.92305673067499" lon="12.52197045445844"><ele>388.0</ele><time>2026-04-25T09:41:29Z</time></trkpt><trkpt lat="43.92313714808257" lon="12.522059906958898"><ele>389.59999999999997</ele><time>2026-04-25T09:41:30Z</time></trkpt><trkpt lat="43.923215509154886" lon="12.522159467906604"><ele>391.2</ele><time>2026-04-25T09:41:31Z</time></trkpt><trkpt lat="43.923286612480894" lon="12.522259318827956"><ele>392.8</ele><time>2026-04-25T09:41:32Z</time></trkpt><trkpt lat="43.92335448327303" lon="12.522354642544563"><ele>394.4</ele><time>2026-04-25T09:41:33Z</time></trkpt><trkpt lat="43.92341533872321" lon="12.522442984077859"><ele>396.0</ele><time>2026-04-25T09:41:34Z</time></trkpt><trkpt lat="43.923467271312326" lon="12.522519049200332"><ele>392.20000000000005</ele><time>2026-04-25T09:41:35Z</time></trkpt><trkpt lat="43.923511340671226" lon="12.522592437788788"><ele>388.40000000000003</ele><time>2026-04-25T09:41:36Z</time></trkpt><trkpt lat="43.92355896930041" lon="12.522661847726354"><ele>384.6</ele><time>2026-04-25T09:41:37Z</time></trkpt><trkpt lat="43.923607135489426" lon="12.522767470283476"><ele>380.8</ele><time>2026-04-25T09:41:39Z</time></trkpt><trkpt lat="43.923644755819" lon="12.522967013474162"><ele>377.0</ele><time>2026-04-25T09:41:41Z</time></trkpt><trkpt lat="43.92367729755228" lon="12.523119686788235"><ele>377.0</ele><time>2026-04-25T09:41:42Z</time></trkpt><trkpt lat="43.92371307175715" lon="12.52330383715385"><ele>377.0</ele><time>2026-04-25T09:41:43Z</time></trkpt><trkpt lat="43.923778260524806" lon="12.523490680248836"><ele>377.0</ele><time>2026-04-25T09:41:44Z</time></trkpt><trkpt lat="43.92383508201467" lon="12.523674589973192"><ele>377.0</ele><time>2026-04-25T09:41:45Z</time></trkpt><trkpt lat="43.923876014560975" lon="12.523873817964782"><ele>377.75</ele><time>2026-04-25T09:41:46Z</time></trkpt><trkpt lat="43.92388949406566" lon="12.524060692414297"><ele>378.5</ele><time>2026-04-25T09:41:47Z</time></trkpt><trkpt lat="43.92387130289343" lon="12.52424307837346"><ele>379.25</ele><time>2026-04-25T09:41:48Z</time></trkpt><trkpt lat="43.92382821099081" lon="12.524422103401958"><ele>380.0</ele><time>2026-04-25T09:41:49Z</time></trkpt><trkpt lat="43.92375829022688" lon="12.524581771211922"><ele>377.0</ele><time>2026-04-25T09:41:50Z</time></trkpt><trkpt lat="43.92363908446244" lon="12.524690998372648"><ele>374.0</ele><time>2026-04-25T09:41:51Z</time></trkpt><trkpt lat="43.923521172156626" lon="12.52483282878356"><ele>371.0</ele><time>2026-04-25T09:41:52Z</time></trkpt><trkpt lat="43.92337808048603" lon="12.524953439880118"><ele>378.6666666666667</ele><time>2026-04-25T09:41:53Z</time></trkpt><trkpt lat="43.92323574735947" lon="12.52504398380699"><ele>386.33333333333337</ele><time>2026-04-25T09:41:54Z</time></trkpt><trkpt lat="43.92308621405821" lon="12.525096503230559"><ele>394.0</ele><time>2026-04-25T09:41:55Z</time></trkpt><trkpt lat="43.92294313344997" lon="12.525117654640779"><ele>394.0</ele><time>2026-04-25T09:41:56Z</time></trkpt><trkpt lat="43.92282314925229" lon="12.525158733035399"><ele>394.0</ele><time>2026-04-25T09:41:57Z</time></trkpt><trkpt lat="43.92272925544058" lon="12.525264871506444"><ele>394.0</ele><time>2026-04-25T09:41:58Z</time></trkpt><trkpt lat="43.922649431062425" lon="12.525425136024019"><ele>394.0</ele><time>2026-04-25T09:41:59Z</time></trkpt><trkpt lat="43.9225864179969" lon="12.525608735438901"><ele>393.0</ele><time>2026-04-25T09:42:00Z</time></trkpt><trkpt lat="43.92253610402182" lon="12.525793223081065"><ele>392.0</ele><time>2026-04-25T09:42:01Z</time></trkpt><trkpt lat="43.92249080787008" lon="12.525968141027986"><ele>391.0</ele><time>2026-04-25T09:42:02Z</time></trkpt><trkpt lat="43.92243169617518" lon="12.526129481098957"><ele>390.0</ele><time>2026-04-25T09:42:03Z</time></trkpt><trkpt lat="43.9224054237761" lon="12.526298787509049"><ele>390.0</ele><time>2026-04-25T09:42:04Z</time></trkpt><trkpt lat="43.92238771164531" lon="12.526466745230811"><ele>390.0</ele><time>2026-04-25T09:42:05Z</time></trkpt><trkpt lat="43.9223546612052" lon="12.526623070257891"><ele>390.0</ele><time>2026-04-25T09:42:06Z</time></trkpt><trkpt lat="43.92229294266084" lon="12.526756512786136"><ele>390.0</ele><time>2026-04-25T09:42:07Z</time></trkpt><trkpt lat="43.922216083450834" lon="12.526879242498298"><ele>390.0</ele><time>2026-04-25T09:42:08Z</time></trkpt><trkpt lat="43.922131358575996" lon="12.527003110431169"><ele>390.0</ele><time>2026-04-25T09:42:09Z</time></trkpt><trkpt lat="43.92202424888803" lon="12.527083017653396"><ele>390.0</ele><time>2026-04-25T09:42:10Z</time></trkpt><trkpt lat="43.92190631446379" lon="12.527124396233862"><ele>390.0</ele><time>2026-04-25T09:42:11Z</time></trkpt><trkpt lat="43.921785301919435" lon="12.527147972283343"><ele>390.4</ele><time>2026-04-25T09:42:12Z</time></trkpt><trkpt lat="43.9216738191475" lon="12.527196166244389"><ele>390.8</ele><time>2026-04-25T09:42:13Z</time></trkpt><trkpt lat="43.92157175997055" lon="12.527270472432297"><ele>391.20000000000005</ele><time>2026-04-25T09:42:14Z</time></trkpt><trkpt lat="43.921484141924985" lon="12.527365650981437"><ele>391.6</ele><time>2026-04-25T09:42:15Z</time></trkpt><trkpt lat="43.921415376248106" lon="12.527475592360828"><ele>392.0</ele><time>2026-04-25T09:42:16Z</time></trkpt><trkpt lat="43.921363334660825" lon="12.527591324702847"><ele>392.0</ele><time>2026-04-25T09:42:17Z</time></trkpt><trkpt lat="43.92130975655371" lon="12.52773414287001"><ele>392.0</ele><time>2026-04-25T09:42:18Z</time></trkpt><trkpt lat="43.921256641173684" lon="12.527907981061285"><ele>392.0</ele><time>2026-04-25T09:42:19Z</time></trkpt><trkpt lat="43.921214520792375" lon="12.528092246791953"><ele>392.0</ele><time>2026-04-25T09:42:20Z</time></trkpt><trkpt lat="43.92117380256954" lon="12.528283639664856"><ele>389.0</ele><time>2026-04-25T09:42:21Z</time></trkpt><trkpt lat="43.921129389021445" lon="12.528470886915017"><ele>386.0</ele><time>2026-04-25T09:42:22Z</time></trkpt><trkpt lat="43.921085184635956" lon="12.52865218007841"><ele>383.0</ele><time>2026-04-25T09:42:23Z</time></trkpt><trkpt lat="43.92105292746544" lon="12.528823957497229"><ele>380.0</ele><time>2026-04-25T09:42:24Z</time></trkpt><trkpt lat="43.92103578194441" lon="12.528985256111383"><ele>379.25</ele><time>2026-04-25T09:42:25Z</time></trkpt><trkpt lat="43.921045230655864" lon="12.529148968050691"><ele>378.5</ele><time>2026-04-25T09:42:26Z</time></trkpt><trkpt lat="43.92105113379689" lon="12.529322904693416"><ele>377.75</ele><time>2026-04-25T09:42:27Z</time></trkpt><trkpt lat="43.921094705207935" lon="12.529495402252294"><ele>377.0</ele><time>2026-04-25T09:42:28Z</time></trkpt><trkpt lat="43.92114098402585" lon="12.529667514941188"><ele>377.0</ele><time>2026-04-25T09:42:29Z</time></trkpt><trkpt lat="43.92119026478502" lon="12.529841908993092"><ele>377.0</ele><time>2026-04-25T09:42:30Z</time></trkpt><trkpt lat="43.92125278025588" lon="12.53000031661238"><ele>377.0</ele><time>2026-04-25T09:42:31Z</time></trkpt><trkpt lat="43.92129877310015" lon="12.53015328089716"><ele>377.0</ele><time>2026-04-25T09:42:32Z</time></trkpt><trkpt lat="43.921352516101834" lon="12.530300593280378"><ele>379.0</ele><time>2026-04-25T09:42:33Z</time></trkpt><trkpt lat="43.92142072915229" lon="12.530440169407765"><ele>381.0</ele><time>2026-04-25T09:42:34Z</time></trkpt><trkpt lat="43.92149718232233" lon="12.530575213135998"><ele>383.0</ele><time>2026-04-25T09:42:35Z</time></trkpt><trkpt lat="43.92157572806409" lon="12.530711929729165"><ele>385.0</ele><time>2026-04-25T09:42:36Z</time></trkpt><trkpt lat="43.921646930543886" lon="12.530845435839451"><ele>385.0</ele><time>2026-04-25T09:42:37Z</time></trkpt><trkpt lat="43.92170621655143" lon="12.530994417456753"><ele>385.0</ele><time>2026-04-25T09:42:38Z</time></trkpt><trkpt lat="43.921743547900945" lon="12.531169222815194"><ele>385.0</ele><time>2026-04-25T09:42:39Z</time></trkpt><trkpt lat="43.92175336349882" lon="12.531356388802841"><ele>385.0</ele><time>2026-04-25T09:42:40Z</time></trkpt><trkpt lat="43.92174330497042" lon="12.531545929568631"><ele>384.0</ele><time>2026-04-25T09:42:41Z</time></trkpt><trkpt lat="43.92171907140261" lon="12.531728408545908"><ele>383.0</ele><time>2026-04-25T09:42:42Z</time></trkpt><trkpt lat="43.9216587317699" lon="12.531902756331924"><ele>382.0</ele><time>2026-04-25T09:42:43Z</time></trkpt><trkpt lat="43.921593652356066" lon="12.532073458827826"><ele>381.0</ele><time>2026-04-25T09:42:44Z</time></trkpt><trkpt lat="43.921514753420155" lon="12.532240152907184"><ele>378.5</ele><time>2026-04-25T09:42:45Z</time></trkpt><trkpt lat="43.921429781238075" lon="12.532398186701045"><ele>376.0</ele><time>2026-04-25T09:42:46Z</time></trkpt><trkpt lat="43.92134038164116" lon="12.532552457554148"><ele>373.5</ele><time>2026-04-25T09:42:47Z</time></trkpt><trkpt lat="43.92126786024484" lon="12.53271870438759"><ele>371.0</ele><time>2026-04-25T09:42:48Z</time></trkpt><trkpt lat="43.92119468813602" lon="12.532876077632817"><ele>368.0</ele><time>2026-04-25T09:42:49Z</time></trkpt><trkpt lat="43.92113864227674" lon="12.533044109519892"><ele>365.0</ele><time>2026-04-25T09:42:50Z</time></trkpt><trkpt lat="43.921096289093086" lon="12.533216095434659"><ele>362.0</ele><time>2026-04-25T09:42:51Z</time></trkpt><trkpt lat="43.92106695356115" lon="12.533389613866508"><ele>359.0</ele><time>2026-04-25T09:42:52Z</time></trkpt><trkpt lat="43.92104613901239" lon="12.533563040499402"><ele>358.25</ele><time>2026-04-25T09:42:53Z</time></trkpt><trkpt lat="43.921030672323774" lon="12.533737054360982"><ele>357.5</ele><time>2026-04-25T09:42:54Z</time></trkpt><trkpt lat="43.92100826928588" lon="12.533907628947514"><ele>356.75</ele><time>2026-04-25T09:42:55Z</time></trkpt><trkpt lat="43.920955795147584" lon="12.534051897641955"><ele>356.0</ele><time>2026-04-25T09:42:56Z</time></trkpt><trkpt lat="43.92089692288117" lon="12.534178163781334"><ele>361.25</ele><time>2026-04-25T09:42:57Z</time></trkpt><trkpt lat="43.920816216230854" lon="12.534282457289022"><ele>366.5</ele><time>2026-04-25T09:42:58Z</time></trkpt><trkpt lat="43.92071656781882" lon="12.534371327030888"><ele>371.75</ele><time>2026-04-25T09:42:59Z</time></trkpt><trkpt lat="43.92060677255746" lon="12.534449859720162"><ele>377.0</ele><time>2026-04-25T09:43:00Z</time></trkpt><trkpt lat="43.92048799297773" lon="12.534527933993138"><ele>378.5</ele><time>2026-04-25T09:43:01Z</time></trkpt><trkpt lat="43.92036402737471" lon="12.534608256081233"><ele>380.0</ele><time>2026-04-25T09:43:02Z</time></trkpt><trkpt lat="43.92023695917325" lon="12.534690588462398"><ele>381.5</ele><time>2026-04-25T09:43:03Z</time></trkpt><trkpt lat="43.920111627034395" lon="12.534771795981989"><ele>383.0</ele><time>2026-04-25T09:43:04Z</time></trkpt><trkpt lat="43.9200325764733" lon="12.534953292209439"><ele>383.0</ele><time>2026-04-25T09:43:05Z</time></trkpt><trkpt lat="43.91995319817354" lon="12.535106687610279"><ele>383.0</ele><time>2026-04-25T09:43:06Z</time></trkpt><trkpt lat="43.9198662066095" lon="12.535237713829432"><ele>383.0</ele><time>2026-04-25T09:43:07Z</time></trkpt><trkpt lat="43.91977263743361" lon="12.535347657166046"><ele>383.0</ele><time>2026-04-25T09:43:08Z</time></trkpt><trkpt lat="43.919658326233275" lon="12.535436342951018"><ele>378.0</ele><time>2026-04-25T09:43:09Z</time></trkpt><trkpt lat="43.91953756827668" lon="12.53551552454181"><ele>373.0</ele><time>2026-04-25T09:43:10Z</time></trkpt><trkpt lat="43.91942114457784" lon="12.535610705216413"><ele>368.0</ele><time>2026-04-25T09:43:11Z</time></trkpt><trkpt lat="43.91932149357963" lon="12.535726328925154"><ele>363.0</ele><time>2026-04-25T09:43:12Z</time></trkpt><trkpt lat="43.91924891618852" lon="12.535857706817259"><ele>367.25</ele><time>2026-04-25T09:43:13Z</time></trkpt><trkpt lat="43.919192607956646" lon="12.536012419912913"><ele>371.5</ele><time>2026-04-25T09:43:14Z</time></trkpt><trkpt lat="43.91915124096103" lon="12.53618600553669"><ele>375.75</ele><time>2026-04-25T09:43:15Z</time></trkpt><trkpt lat="43.91911639162939" lon="12.536376682490324"><ele>380.0</ele><time>2026-04-25T09:43:16Z</time></trkpt><trkpt lat="43.91908729536437" lon="12.536571049197553"><ele>380.0</ele><time>2026-04-25T09:43:17Z</time></trkpt><trkpt lat="43.91905154180957" lon="12.536757476422384"><ele>380.0</ele><time>2026-04-25T09:43:18Z</time></trkpt><trkpt lat="43.91900419036102" lon="12.536946400659314"><ele>380.0</ele><time>2026-04-25T09:43:19Z</time></trkpt><trkpt lat="43.91892868358654" lon="12.53711585996474"><ele>380.0</ele><time>2026-04-25T09:43:20Z</time></trkpt><trkpt lat="43.91887419377473" lon="12.537280044094784"><ele>378.0</ele><time>2026-04-25T09:43:21Z</time></trkpt><trkpt lat="43.91882267392072" lon="12.537433502312393"><ele>376.0</ele><time>2026-04-25T09:43:22Z</time></trkpt><trkpt lat="43.918773861152346" lon="12.537578897144908"><ele>374.0</ele><time>2026-04-25T09:43:23Z</time></trkpt><trkpt lat="43.918721738458295" lon="12.537728427894866"><ele>372.0</ele><time>2026-04-25T09:43:24Z</time></trkpt><trkpt lat="43.91867532438882" lon="12.537861180579482"><ele>370.8333333333333</ele><time>2026-04-25T09:43:25Z</time></trkpt><trkpt lat="43.918635597487544" lon="12.537976862421004"><ele>369.6666666666667</ele><time>2026-04-25T09:43:26Z</time></trkpt><trkpt lat="43.918597373238285" lon="12.538089851267308"><ele>368.5</ele><time>2026-04-25T09:43:27Z</time></trkpt><trkpt lat="43.91856559089278" lon="12.538196248806912"><ele>367.33333333333337</ele><time>2026-04-25T09:43:28Z</time></trkpt><trkpt lat="43.918554333799875" lon="12.538287034289132"><ele>366.1666666666667</ele><time>2026-04-25T09:43:29Z</time></trkpt><trkpt lat="43.91851333551205" lon="12.538374735595294"><ele>365.0</ele><time>2026-04-25T09:43:32Z</time></trkpt><trkpt lat="43.91847449519067" lon="12.538539648062262"><ele>365.0</ele><time>2026-04-25T09:43:34Z</time></trkpt><trkpt lat="43.918497411454915" lon="12.538648874639298"><ele>365.0</ele><time>2026-04-25T09:43:35Z</time></trkpt><trkpt lat="43.918512803989536" lon="12.538773560991364"><ele>365.0</ele><time>2026-04-25T09:43:36Z</time></trkpt><trkpt lat="43.918538981698546" lon="12.538914343058469"><ele>365.0</ele><time>2026-04-25T09:43:37Z</time></trkpt><trkpt lat="43.91855668824434" lon="12.53907014632254"><ele>365.0</ele><time>2026-04-25T09:43:38Z</time></trkpt><trkpt lat="43.91855183648271" lon="12.539217993889277"><ele>365.0</ele><time>2026-04-25T09:43:39Z</time></trkpt><trkpt lat="43.91854291178962" lon="12.53935806826193"><ele>365.0</ele><time>2026-04-25T09:43:40Z</time></trkpt><trkpt lat="43.91853018759372" lon="12.539505225287373"><ele>365.0</ele><time>2026-04-25T09:43:41Z</time></trkpt><trkpt lat="43.9185173665662" lon="12.539648024973891"><ele>365.0</ele><time>2026-04-25T09:43:42Z</time></trkpt><trkpt lat="43.91850450935109" lon="12.539791227742976"><ele>365.0</ele><time>2026-04-25T09:43:43Z</time></trkpt><trkpt lat="43.91849228627574" lon="12.539927369229146"><ele>366.2</ele><time>2026-04-25T09:43:44Z</time></trkpt><trkpt lat="43.918482304004236" lon="12.54004915554386"><ele>367.4</ele><time>2026-04-25T09:43:45Z</time></trkpt><trkpt lat="43.91847344781155" lon="12.54015253888345"><ele>368.6</ele><time>2026-04-25T09:43:46Z</time></trkpt><trkpt lat="43.91846391877876" lon="12.540307900992003"><ele>369.8</ele><time>2026-04-25T09:43:48Z</time></trkpt><trkpt lat="43.91841732901747" lon="12.540413732135685"><ele>371.0</ele><time>2026-04-25T09:43:50Z</time></trkpt><trkpt lat="43.91844660776145" lon="12.540625699551272"><ele>371.20000000000005</ele><time>2026-04-25T09:43:52Z</time></trkpt><trkpt lat="43.91850537538937" lon="12.540744206858635"><ele>371.40000000000003</ele><time>2026-04-25T09:43:53Z</time></trkpt><trkpt lat="43.91857906893798" lon="12.540841710916377"><ele>371.6</ele><time>2026-04-25T09:43:54Z</time></trkpt><trkpt lat="43.9186497317448" lon="12.54093522506858"><ele>371.8</ele><time>2026-04-25T09:43:55Z</time></trkpt><trkpt lat="43.91872318613296" lon="12.54103247709421"><ele>372.0</ele><time>2026-04-25T09:43:56Z</time></trkpt><trkpt lat="43.91880149187708" lon="12.541137181133596"><ele>371.6</ele><time>2026-04-25T09:43:57Z</time></trkpt><trkpt lat="43.91887265943056" lon="12.541234184001691"><ele>371.20000000000005</ele><time>2026-04-25T09:43:58Z</time></trkpt><trkpt lat="43.91893993711622" lon="12.541322744412915"><ele>370.8</ele><time>2026-04-25T09:43:59Z</time></trkpt><trkpt lat="43.91900740835641" lon="12.541409509383227"><ele>370.4</ele><time>2026-04-25T09:44:00Z</time></trkpt><trkpt lat="43.91907245387347" lon="12.541495539822108"><ele>370.0</ele><time>2026-04-25T09:44:01Z</time></trkpt><trkpt lat="43.919131458665184" lon="12.541581138129756"><ele>370.0</ele><time>2026-04-25T09:44:02Z</time></trkpt><trkpt lat="43.91918059409297" lon="12.541675488035192"><ele>370.0</ele><time>2026-04-25T09:44:03Z</time></trkpt><trkpt lat="43.91921878847403" lon="12.541784439783468"><ele>370.0</ele><time>2026-04-25T09:44:04Z</time></trkpt><trkpt lat="43.91924291498241" lon="12.541907677321605"><ele>370.0</ele><time>2026-04-25T09:44:05Z</time></trkpt><trkpt lat="43.91927060792398" lon="12.542030047554311"><ele>370.0</ele><time>2026-04-25T09:44:06Z</time></trkpt><trkpt lat="43.91930560339389" lon="12.542161104860476"><ele>370.2</ele><time>2026-04-25T09:44:07Z</time></trkpt><trkpt lat="43.91933865160171" lon="12.542287114430685"><ele>370.4</ele><time>2026-04-25T09:44:08Z</time></trkpt><trkpt lat="43.919370757544776" lon="12.542417490310227"><ele>370.6</ele><time>2026-04-25T09:44:09Z</time></trkpt><trkpt lat="43.91940227119262" lon="12.542545460975413"><ele>370.8</ele><time>2026-04-25T09:44:10Z</time></trkpt><trkpt lat="43.91942971711297" lon="12.54267093696144"><ele>371.0</ele><time>2026-04-25T09:44:11Z</time></trkpt><trkpt lat="43.9194576708707" lon="12.542801655556298"><ele>371.8</ele><time>2026-04-25T09:44:12Z</time></trkpt><trkpt lat="43.919477313162076" lon="12.542929620230066"><ele>372.6</ele><time>2026-04-25T09:44:13Z</time></trkpt><trkpt lat="43.919495358941504" lon="12.54306686500066"><ele>373.4</ele><time>2026-04-25T09:44:14Z</time></trkpt><trkpt lat="43.91950982617093" lon="12.54320637407467"><ele>374.2</ele><time>2026-04-25T09:44:15Z</time></trkpt><trkpt lat="43.91952233627789" lon="12.54333311437292"><ele>375.0</ele><time>2026-04-25T09:44:16Z</time></trkpt><trkpt lat="43.91953177061282" lon="12.54342869456795"><ele>375.0</ele><time>2026-04-25T09:44:17Z</time></trkpt><trkpt lat="43.91954620909615" lon="12.543603615704049"><ele>375.0</ele><time>2026-04-25T09:44:19Z</time></trkpt><trkpt lat="43.919557142578476" lon="12.543700540431015"><ele>375.0</ele><time>2026-04-25T09:44:20Z</time></trkpt><trkpt lat="43.919569686160465" lon="12.54381173852547"><ele>375.0</ele><time>2026-04-25T09:44:21Z</time></trkpt><trkpt lat="43.9195817245576" lon="12.543918881317941"><ele>375.0</ele><time>2026-04-25T09:44:22Z</time></trkpt><trkpt lat="43.919592002648585" lon="12.54401883676985"><ele>375.0</ele><time>2026-04-25T09:44:23Z</time></trkpt><trkpt lat="43.91960221133845" lon="12.544118117315405"><ele>373.6666666666667</ele><time>2026-04-25T09:44:24Z</time></trkpt><trkpt lat="43.919611306248115" lon="12.544206566882298"><ele>372.3333333333333</ele><time>2026-04-25T09:44:25Z</time></trkpt><trkpt lat="43.919608759112954" lon="12.544342497109689"><ele>371.0</ele><time>2026-04-25T09:44:27Z</time></trkpt><trkpt lat="43.919597959753986" lon="12.544505821813773"><ele>369.66666666666663</ele><time>2026-04-25T09:44:29Z</time></trkpt><trkpt lat="43.919592463177224" lon="12.544609403894322"><ele>368.3333333333333</ele><time>2026-04-25T09:44:30Z</time></trkpt><trkpt lat="43.91958673184638" lon="12.544723552421196"><ele>367.0</ele><time>2026-04-25T09:44:31Z</time></trkpt><trkpt lat="43.9195871888202" lon="12.544839472411832"><ele>366.0</ele><time>2026-04-25T09:44:32Z</time></trkpt><trkpt lat="43.919611524500766" lon="12.544924516911182"><ele>365.0</ele><time>2026-04-25T09:44:33Z</time></trkpt><trkpt lat="43.91960607425956" lon="12.545070221995575"><ele>364.0</ele><time>2026-04-25T09:44:35Z</time></trkpt><trkpt lat="43.91972480197922" lon="12.545102801821487"><ele>363.0</ele><time>2026-04-25T09:44:37Z</time></trkpt><trkpt lat="43.91979591497288" lon="12.544926214693678"><ele>362.0</ele><time>2026-04-25T09:44:39Z</time></trkpt><trkpt lat="43.91987304660697" lon="12.544837617663893"><ele>362.0</ele><time>2026-04-25T09:44:40Z</time></trkpt><trkpt lat="43.91994423076006" lon="12.544752793968337"><ele>362.0</ele><time>2026-04-25T09:44:41Z</time></trkpt><trkpt lat="43.920035487692466" lon="12.544653225661083"><ele>362.0</ele><time>2026-04-25T09:44:42Z</time></trkpt><trkpt lat="43.920134962577094" lon="12.544543651514106"><ele>362.0</ele><time>2026-04-25T09:44:43Z</time></trkpt><trkpt lat="43.92023071314344" lon="12.544433927650696"><ele>359.5</ele><time>2026-04-25T09:44:44Z</time></trkpt><trkpt lat="43.92033761532389" lon="12.544319178866788"><ele>357.0</ele><time>2026-04-25T09:44:45Z</time></trkpt><trkpt lat="43.920445177918836" lon="12.544200793943052"><ele>354.5</ele><time>2026-04-25T09:44:46Z</time></trkpt><trkpt lat="43.920545695262135" lon="12.544094901561738"><ele>352.0</ele><time>2026-04-25T09:44:47Z</time></trkpt><trkpt lat="43.920635176744256" lon="12.54397911207172"><ele>352.0</ele><time>2026-04-25T09:44:48Z</time></trkpt><trkpt lat="43.92071007304293" lon="12.543837671379196"><ele>352.0</ele><time>2026-04-25T09:44:49Z</time></trkpt><trkpt lat="43.92076738605436" lon="12.543670372755544"><ele>352.0</ele><time>2026-04-25T09:44:50Z</time></trkpt><trkpt lat="43.92081623237911" lon="12.543497069922942"><ele>352.0</ele><time>2026-04-25T09:44:51Z</time></trkpt><trkpt lat="43.920875279260606" lon="12.543348398534953"><ele>350.75</ele><time>2026-04-25T09:44:52Z</time></trkpt><trkpt lat="43.92095592389422" lon="12.543233171352615"><ele>349.5</ele><time>2026-04-25T09:44:53Z</time></trkpt><trkpt lat="43.9210583457423" lon="12.543166749110027"><ele>348.25</ele><time>2026-04-25T09:44:54Z</time></trkpt><trkpt lat="43.921182431110616" lon="12.543136024600486"><ele>347.0</ele><time>2026-04-25T09:44:55Z</time></trkpt><trkpt lat="43.92131189979567" lon="12.543116461036792"><ele>347.0</ele><time>2026-04-25T09:44:56Z</time></trkpt><trkpt lat="43.921449826228404" lon="12.543117113988783"><ele>347.0</ele><time>2026-04-25T09:44:57Z</time></trkpt><trkpt lat="43.92159392270677" lon="12.543126829792497"><ele>347.0</ele><time>2026-04-25T09:44:58Z</time></trkpt><trkpt lat="43.92173693821081" lon="12.543132002440052"><ele>347.0</ele><time>2026-04-25T09:44:59Z</time></trkpt><trkpt lat="43.92187902905449" lon="12.54313994171486"><ele>343.0</ele><time>2026-04-25T09:45:00Z</time></trkpt><trkpt lat="43.92201974097359" lon="12.543136133054716"><ele>339.0</ele><time>2026-04-25T09:45:01Z</time></trkpt><trkpt lat="43.92215897499078" lon="12.543125058285314"><ele>335.0</ele><time>2026-04-25T09:45:02Z</time></trkpt><trkpt lat="43.922290957767835" lon="12.543083363270496"><ele>331.0</ele><time>2026-04-25T09:45:03Z</time></trkpt><trkpt lat="43.9224035479898" lon="12.542997310916546"><ele>333.75</ele><time>2026-04-25T09:45:04Z</time></trkpt><trkpt lat="43.92250475879999" lon="12.542860727040772"><ele>336.5</ele><time>2026-04-25T09:45:05Z</time></trkpt><trkpt lat="43.92259674461344" lon="12.542707800818295"><ele>339.25</ele><time>2026-04-25T09:45:06Z</time></trkpt><trkpt lat="43.92269320675953" lon="12.542537819915065"><ele>342.0</ele><time>2026-04-25T09:45:07Z</time></trkpt><trkpt lat="43.922793939660316" lon="12.542362287234601"><ele>336.75</ele><time>2026-04-25T09:45:08Z</time></trkpt><trkpt lat="43.92288415714065" lon="12.542216888166664"><ele>331.5</ele><time>2026-04-25T09:45:09Z</time></trkpt><trkpt lat="43.92295422247468" lon="12.54208527532707"><ele>326.25</ele><time>2026-04-25T09:45:10Z</time></trkpt><trkpt lat="43.92299408541807" lon="12.541928341068127"><ele>321.0</ele><time>2026-04-25T09:45:11Z</time></trkpt><trkpt lat="43.92299251058765" lon="12.541740897232364"><ele>321.0</ele><time>2026-04-25T09:45:12Z</time></trkpt><trkpt lat="43.92295720523152" lon="12.54154982162699"><ele>321.0</ele><time>2026-04-25T09:45:13Z</time></trkpt><trkpt lat="43.9228837888213" lon="12.541371023728694"><ele>321.0</ele><time>2026-04-25T09:45:14Z</time></trkpt><trkpt lat="43.922778453401364" lon="12.541222089096516"><ele>321.0</ele><time>2026-04-25T09:45:15Z</time></trkpt><trkpt lat="43.92266893978667" lon="12.541111982127777"><ele>321.20000000000005</ele><time>2026-04-25T09:45:16Z</time></trkpt><trkpt lat="43.92258062155078" lon="12.54102734110413"><ele>321.40000000000003</ele><time>2026-04-25T09:45:17Z</time></trkpt><trkpt lat="43.92251307874633" lon="12.54092254277514"><ele>321.6</ele><time>2026-04-25T09:45:18Z</time></trkpt><trkpt lat="43.92248832658895" lon="12.54079824157319"><ele>321.8</ele><time>2026-04-25T09:45:19Z</time></trkpt><trkpt lat="43.92251114982355" lon="12.540658034049462"><ele>322.0</ele><time>2026-04-25T09:45:20Z</time></trkpt><trkpt lat="43.922575266582285" lon="12.540550676266777"><ele>320.20000000000005</ele><time>2026-04-25T09:45:21Z</time></trkpt><trkpt lat="43.922666876429695" lon="12.540505138411364"><ele>318.40000000000003</ele><time>2026-04-25T09:45:22Z</time></trkpt><trkpt lat="43.922765557443014" lon="12.54051574896003"><ele>316.6</ele><time>2026-04-25T09:45:23Z</time></trkpt><trkpt lat="43.92286295386887" lon="12.540606386808326"><ele>314.8</ele><time>2026-04-25T09:45:24Z</time></trkpt><trkpt lat="43.92298588802771" lon="12.540679204375557"><ele>313.0</ele><time>2026-04-25T09:45:25Z</time></trkpt><trkpt lat="43.923111282685205" lon="12.540788783473964"><ele>313.0</ele><time>2026-04-25T09:45:26Z</time></trkpt><trkpt lat="43.923236936617684" lon="12.540905929767264"><ele>313.0</ele><time>2026-04-25T09:45:27Z</time></trkpt><trkpt lat="43.923340521270795" lon="12.541060171619607"><ele>313.0</ele><time>2026-04-25T09:45:28Z</time></trkpt><trkpt lat="43.92345641944153" lon="12.5412135092608"><ele>306.3333333333333</ele><time>2026-04-25T09:45:29Z</time></trkpt><trkpt lat="43.92357435315593" lon="12.541373093278995"><ele>299.6666666666667</ele><time>2026-04-25T09:45:30Z</time></trkpt><trkpt lat="43.923693505990855" lon="12.541535644364314"><ele>293.0</ele><time>2026-04-25T09:45:31Z</time></trkpt><trkpt lat="43.92381718777614" lon="12.541704373865475"><ele>293.0</ele><time>2026-04-25T09:45:32Z</time></trkpt><trkpt lat="43.92394450878416" lon="12.5418786411669"><ele>293.0</ele><time>2026-04-25T09:45:33Z</time></trkpt><trkpt lat="43.92408596078424" lon="12.542042059803526"><ele>293.0</ele><time>2026-04-25T09:45:34Z</time></trkpt><trkpt lat="43.92421802256236" lon="12.542224870492785"><ele>288.6666666666667</ele><time>2026-04-25T09:45:35Z</time></trkpt><trkpt lat="43.92435617709354" lon="12.542409515589755"><ele>284.3333333333333</ele><time>2026-04-25T09:45:36Z</time></trkpt><trkpt lat="43.924496922360134" lon="12.542594803251879"><ele>280.0</ele><time>2026-04-25T09:45:37Z</time></trkpt><trkpt lat="43.924638800143626" lon="12.54277651625234"><ele>280.3333333333333</ele><time>2026-04-25T09:45:38Z</time></trkpt><trkpt lat="43.92477779374866" lon="12.542953311963444"><ele>280.6666666666667</ele><time>2026-04-25T09:45:39Z</time></trkpt><trkpt lat="43.924919959361105" lon="12.543118876291983"><ele>281.0</ele><time>2026-04-25T09:45:40Z</time></trkpt><trkpt lat="43.925069874302295" lon="12.543261038669106"><ele>281.0</ele><time>2026-04-25T09:45:41Z</time></trkpt><trkpt lat="43.92521681123301" lon="12.543371628806966"><ele>281.0</ele><time>2026-04-25T09:45:42Z</time></trkpt><trkpt lat="43.92537158493951" lon="12.543444850605106"><ele>281.0</ele><time>2026-04-25T09:45:43Z</time></trkpt><trkpt lat="43.92553516686606" lon="12.543485020508124"><ele>281.0</ele><time>2026-04-25T09:45:44Z</time></trkpt><trkpt lat="43.92570316520379" lon="12.543489794534771"><ele>281.0</ele><time>2026-04-25T09:45:45Z</time></trkpt><trkpt lat="43.925874559486765" lon="12.543469369421675"><ele>281.0</ele><time>2026-04-25T09:45:46Z</time></trkpt><trkpt lat="43.926047716459756" lon="12.543440447735037"><ele>280.33333333333337</ele><time>2026-04-25T09:45:47Z</time></trkpt><trkpt lat="43.9262242630183" lon="12.543434640326183"><ele>279.6666666666667</ele><time>2026-04-25T09:45:48Z</time></trkpt><trkpt lat="43.926390186804014" lon="12.543398355223884"><ele>279.0</ele><time>2026-04-25T09:45:49Z</time></trkpt><trkpt lat="43.92654916997092" lon="12.543346475124945"><ele>279.0</ele><time>2026-04-25T09:45:50Z</time></trkpt><trkpt lat="43.92669344558247" lon="12.543276996312972"><ele>279.0</ele><time>2026-04-25T09:45:51Z</time></trkpt><trkpt lat="43.92682286060739" lon="12.543155094814313"><ele>279.0</ele><time>2026-04-25T09:45:52Z</time></trkpt><trkpt lat="43.92695371499203" lon="12.543023070072618"><ele>276.6666666666667</ele><time>2026-04-25T09:45:53Z</time></trkpt><trkpt lat="43.9270757624687" lon="12.542868156269122"><ele>274.33333333333337</ele><time>2026-04-25T09:45:54Z</time></trkpt><trkpt lat="43.92721578825598" lon="12.542727613980688"><ele>272.0</ele><time>2026-04-25T09:45:55Z</time></trkpt><trkpt lat="43.92735378178849" lon="12.542581591413958"><ele>272.0</ele><time>2026-04-25T09:45:56Z</time></trkpt><trkpt lat="43.92750279423849" lon="12.542444967995666"><ele>272.0</ele><time>2026-04-25T09:45:57Z</time></trkpt><trkpt lat="43.92765833595789" lon="12.542345334762533"><ele>272.0</ele><time>2026-04-25T09:45:58Z</time></trkpt><trkpt lat="43.92782489578313" lon="12.542287320112512"><ele>267.33333333333337</ele><time>2026-04-25T09:45:59Z</time></trkpt><trkpt lat="43.92799644994159" lon="12.542243353863375"><ele>262.6666666666667</ele><time>2026-04-25T09:46:00Z</time></trkpt><trkpt lat="43.92816389057819" lon="12.542189359640421"><ele>258.0</ele><time>2026-04-25T09:46:01Z</time></trkpt><trkpt lat="43.92833488891875" lon="12.542146099125418"><ele>255.0</ele><time>2026-04-25T09:46:02Z</time></trkpt><trkpt lat="43.92849643399534" lon="12.542086833822042"><ele>252.0</ele><time>2026-04-25T09:46:03Z</time></trkpt><trkpt lat="43.92864981452237" lon="12.541989156729494"><ele>249.0</ele><time>2026-04-25T09:46:04Z</time></trkpt><trkpt lat="43.928789190955534" lon="12.54185301019071"><ele>249.0</ele><time>2026-04-25T09:46:05Z</time></trkpt><trkpt lat="43.92892058100285" lon="12.541702530965068"><ele>249.0</ele><time>2026-04-25T09:46:06Z</time></trkpt><trkpt lat="43.92905567026336" lon="12.541571505617695"><ele>249.0</ele><time>2026-04-25T09:46:07Z</time></trkpt><trkpt lat="43.929199932320415" lon="12.541477358103615"><ele>249.75</ele><time>2026-04-25T09:46:08Z</time></trkpt><trkpt lat="43.9293483207381" lon="12.541415231812628"><ele>250.5</ele><time>2026-04-25T09:46:09Z</time></trkpt><trkpt lat="43.92949774068946" lon="12.541381594836707"><ele>251.25</ele><time>2026-04-25T09:46:10Z</time></trkpt><trkpt lat="43.92963782054938" lon="12.541353025735312"><ele>252.0</ele><time>2026-04-25T09:46:11Z</time></trkpt><trkpt lat="43.929767798457284" lon="12.541308854002557"><ele>252.0</ele><time>2026-04-25T09:46:12Z</time></trkpt><trkpt lat="43.92988817520711" lon="12.541254519891124"><ele>252.0</ele><time>2026-04-25T09:46:13Z</time></trkpt><trkpt lat="43.93001152948746" lon="12.541208318249254"><ele>252.0</ele><time>2026-04-25T09:46:14Z</time></trkpt><trkpt lat="43.930140882600135" lon="12.54117917701435"><ele>252.0</ele><time>2026-04-25T09:46:15Z</time></trkpt><trkpt lat="43.93027752847361" lon="12.541164371663632"><ele>249.75</ele><time>2026-04-25T09:46:16Z</time></trkpt><trkpt lat="43.9304150053406" lon="12.541214355724973"><ele>247.5</ele><time>2026-04-25T09:46:17Z</time></trkpt><trkpt lat="43.930545326901836" lon="12.541280295000359"><ele>245.25</ele><time>2026-04-25T09:46:18Z</time></trkpt><trkpt lat="43.93066592906163" lon="12.541378101881921"><ele>243.0</ele><time>2026-04-25T09:46:19Z</time></trkpt><trkpt lat="43.93076815886907" lon="12.541499962199586"><ele>243.0</ele><time>2026-04-25T09:46:20Z</time></trkpt><trkpt lat="43.9308637265562" lon="12.541628100492945"><ele>243.0</ele><time>2026-04-25T09:46:21Z</time></trkpt><trkpt lat="43.93095688753567" lon="12.54175107028213"><ele>243.0</ele><time>2026-04-25T09:46:22Z</time></trkpt><trkpt lat="43.931056390905916" lon="12.541850400294775"><ele>243.0</ele><time>2026-04-25T09:46:23Z</time></trkpt><trkpt lat="43.93114504169467" lon="12.541937253447504"><ele>241.75</ele><time>2026-04-25T09:46:24Z</time></trkpt><trkpt lat="43.93124702669586" lon="12.541994608762641"><ele>240.5</ele><time>2026-04-25T09:46:25Z</time></trkpt><trkpt lat="43.9313584673311" lon="12.542029694498181"><ele>239.25</ele><time>2026-04-25T09:46:26Z</time></trkpt><trkpt lat="43.93147416974964" lon="12.54196806747043"><ele>238.0</ele><time>2026-04-25T09:46:27Z</time></trkpt><trkpt lat="43.93158496613775" lon="12.541905582964757"><ele>238.0</ele><time>2026-04-25T09:46:28Z</time></trkpt><trkpt lat="43.93170144146381" lon="12.541835928649988"><ele>238.0</ele><time>2026-04-25T09:46:29Z</time></trkpt><trkpt lat="43.93182079154634" lon="12.541765027719622"><ele>238.0</ele><time>2026-04-25T09:46:30Z</time></trkpt><trkpt lat="43.93194398716686" lon="12.541695724037165"><ele>238.0</ele><time>2026-04-25T09:46:31Z</time></trkpt><trkpt lat="43.932072179431486" lon="12.541643533595598"><ele>239.0</ele><time>2026-04-25T09:46:32Z</time></trkpt><trkpt lat="43.932201167919445" lon="12.541609994169995"><ele>240.0</ele><time>2026-04-25T09:46:33Z</time></trkpt><trkpt lat="43.93232968789423" lon="12.541619600619827"><ele>241.0</ele><time>2026-04-25T09:46:34Z</time></trkpt><trkpt lat="43.93245848789269" lon="12.541633499289798"><ele>242.0</ele><time>2026-04-25T09:46:35Z</time></trkpt><trkpt lat="43.932588663044356" lon="12.541649506388056"><ele>242.5</ele><time>2026-04-25T09:46:36Z</time></trkpt><trkpt lat="43.93270944956876" lon="12.541702362287765"><ele>243.0</ele><time>2026-04-25T09:46:37Z</time></trkpt><trkpt lat="43.9328259604306" lon="12.541748259212943"><ele>243.5</ele><time>2026-04-25T09:46:38Z</time></trkpt><trkpt lat="43.93292863581065" lon="12.541779496905002"><ele>244.0</ele><time>2026-04-25T09:46:39Z</time></trkpt><trkpt lat="43.933027521663604" lon="12.541806156230793"><ele>244.0</ele><time>2026-04-25T09:46:40Z</time></trkpt><trkpt lat="43.93312835843966" lon="12.54182891464155"><ele>243.99999999999997</ele><time>2026-04-25T09:46:41Z</time></trkpt><trkpt lat="43.93322883701439" lon="12.541844681460578"><ele>243.99999999999997</ele><time>2026-04-25T09:46:42Z</time></trkpt><trkpt lat="43.9333366349252" lon="12.541857760750135"><ele>244.0</ele><time>2026-04-25T09:46:43Z</time></trkpt><trkpt lat="43.933450108877466" lon="12.541879161454291"><ele>244.0</ele><time>2026-04-25T09:46:44Z</time></trkpt><trkpt lat="43.93356236115135" lon="12.541904409745527"><ele>242.25</ele><time>2026-04-25T09:46:45Z</time></trkpt><trkpt lat="43.93367968749731" lon="12.541926499931073"><ele>240.5</ele><time>2026-04-25T09:46:46Z</time></trkpt><trkpt lat="43.93379355232116" lon="12.541947353933521"><ele>238.75</ele><time>2026-04-25T09:46:47Z</time></trkpt><trkpt lat="43.93390692059291" lon="12.54196623886158"><ele>237.0</ele><time>2026-04-25T09:46:48Z</time></trkpt><trkpt lat="43.934017583557086" lon="12.54199110531167"><ele>237.0</ele><time>2026-04-25T09:46:49Z</time></trkpt><trkpt lat="43.93413000227496" lon="12.542010813042575"><ele>237.0</ele><time>2026-04-25T09:46:50Z</time></trkpt><trkpt lat="43.93424573136276" lon="12.54202925964571"><ele>237.0</ele><time>2026-04-25T09:46:51Z</time></trkpt><trkpt lat="43.93436410722606" lon="12.542042804399347"><ele>237.0</ele><time>2026-04-25T09:46:52Z</time></trkpt><trkpt lat="43.9344847387828" lon="12.542051736902318"><ele>235.25</ele><time>2026-04-25T09:46:53Z</time></trkpt><trkpt lat="43.93460730345026" lon="12.5420631899789"><ele>233.5</ele><time>2026-04-25T09:46:54Z</time></trkpt><trkpt lat="43.934726692817804" lon="12.542062876837013"><ele>231.75</ele><time>2026-04-25T09:46:55Z</time></trkpt><trkpt lat="43.93484568615749" lon="12.542059758100697"><ele>230.0</ele><time>2026-04-25T09:46:56Z</time></trkpt><trkpt lat="43.93495926661497" lon="12.542056344348797"><ele>229.2</ele><time>2026-04-25T09:46:57Z</time></trkpt><trkpt lat="43.93506420735715" lon="12.542058589325745"><ele>228.4</ele><time>2026-04-25T09:46:58Z</time></trkpt><trkpt lat="43.93517088680604" lon="12.542065835418288"><ele>227.60000000000002</ele><time>2026-04-25T09:46:59Z</time></trkpt><trkpt lat="43.935276502091725" lon="12.542083951933435"><ele>226.8</ele><time>2026-04-25T09:47:00Z</time></trkpt><trkpt lat="43.93538309990436" lon="12.542113310425695"><ele>226.0</ele><time>2026-04-25T09:47:01Z</time></trkpt><trkpt lat="43.935490598277525" lon="12.542153109355182"><ele>226.0</ele><time>2026-04-25T09:47:02Z</time></trkpt><trkpt lat="43.935598306226126" lon="12.54219834217891"><ele>226.0</ele><time>2026-04-25T09:47:03Z</time></trkpt><trkpt lat="43.93570940054097" lon="12.542246879991046"><ele>226.0</ele><time>2026-04-25T09:47:04Z</time></trkpt><trkpt lat="43.93582222015874" lon="12.542298251910667"><ele>226.0</ele><time>2026-04-25T09:47:05Z</time></trkpt><trkpt lat="43.935932989921746" lon="12.542345072817598"><ele>225.4</ele><time>2026-04-25T09:47:06Z</time></trkpt><trkpt lat="43.936044055200895" lon="12.54239514839752"><ele>224.8</ele><time>2026-04-25T09:47:07Z</time></trkpt><trkpt lat="43.936148723475625" lon="12.542444084600074"><ele>224.20000000000002</ele><time>2026-04-25T09:47:08Z</time></trkpt><trkpt lat="43.936248015436206" lon="12.542490932973502"><ele>223.60000000000002</ele><time>2026-04-25T09:47:09Z</time></trkpt><trkpt lat="43.936338584924826" lon="12.542537638653629"><ele>223.0</ele><time>2026-04-25T09:47:10Z</time></trkpt><trkpt lat="43.93643157058535" lon="12.542584847838324"><ele>223.0</ele><time>2026-04-25T09:47:11Z</time></trkpt><trkpt lat="43.93653179977557" lon="12.542629039899"><ele>223.0</ele><time>2026-04-25T09:47:12Z</time></trkpt><trkpt lat="43.936637668611375" lon="12.542678603529302"><ele>223.0</ele><time>2026-04-25T09:47:13Z</time></trkpt><trkpt lat="43.936752822142765" lon="12.542730466148392"><ele>223.0</ele><time>2026-04-25T09:47:14Z</time></trkpt><trkpt lat="43.93687264244109" lon="12.542787802620541"><ele>221.5</ele><time>2026-04-25T09:47:15Z</time></trkpt><trkpt lat="43.93699436066605" lon="12.542848112845954"><ele>220.0</ele><time>2026-04-25T09:47:16Z</time></trkpt><trkpt lat="43.9371100547942" lon="12.542906512035987"><ele>218.5</ele><time>2026-04-25T09:47:17Z</time></trkpt><trkpt lat="43.93722185851726" lon="12.542962293125461"><ele>217.0</ele><time>2026-04-25T09:47:18Z</time></trkpt><trkpt lat="43.93733074172526" lon="12.543023309930676"><ele>216.66666666666666</ele><time>2026-04-25T09:47:19Z</time></trkpt><trkpt lat="43.937432997326496" lon="12.543087496610362"><ele>216.33333333333331</ele><time>2026-04-25T09:47:20Z</time></trkpt><trkpt lat="43.9375191077994" lon="12.543147864828079"><ele>216.0</ele><time>2026-04-25T09:47:21Z</time></trkpt><trkpt lat="43.93758835283996" lon="12.543206990144489"><ele>215.66666666666669</ele><time>2026-04-25T09:47:22Z</time></trkpt><trkpt lat="43.93763668192845" lon="12.543274185398886"><ele>215.33333333333334</ele><time>2026-04-25T09:47:23Z</time></trkpt><trkpt lat="43.937669657189666" lon="12.543355211790189"><ele>215.0</ele><time>2026-04-25T09:47:24Z</time></trkpt><trkpt lat="43.93775576042966" lon="12.543449278303349"><ele>214.5</ele><time>2026-04-25T09:47:26Z</time></trkpt><trkpt lat="43.937867951455786" lon="12.543488004288621"><ele>214.0</ele><time>2026-04-25T09:47:27Z</time></trkpt><trkpt lat="43.937999434730266" lon="12.543550188814958"><ele>213.5</ele><time>2026-04-25T09:47:28.001Z</time></trkpt><trkpt lat="43.938118331545" lon="12.543649831872889"><ele>213.0</ele><time>2026-04-25T09:47:29Z</time></trkpt><trkpt lat="43.9382426594348" lon="12.543774618052394"><ele>212.25</ele><time>2026-04-25T09:47:30Z</time></trkpt><trkpt lat="43.93835817712366" lon="12.54390547124582"><ele>211.5</ele><time>2026-04-25T09:47:31Z</time></trkpt><trkpt lat="43.93846451699084" lon="12.544028453036697"><ele>210.75</ele><time>2026-04-25T09:47:32Z</time></trkpt><trkpt lat="43.9385619298324" lon="12.544165957040786"><ele>210.0</ele><time>2026-04-25T09:47:33Z</time></trkpt><trkpt lat="43.93866357533571" lon="12.54431430387117"><ele>210.0</ele><time>2026-04-25T09:47:34Z</time></trkpt><trkpt lat="43.93875306557145" lon="12.544481969623874"><ele>210.0</ele><time>2026-04-25T09:47:35Z</time></trkpt><trkpt lat="43.93883691373703" lon="12.544663860172383"><ele>210.0</ele><time>2026-04-25T09:47:36Z</time></trkpt><trkpt lat="43.93891742540384" lon="12.544855724717275"><ele>209.33333333333331</ele><time>2026-04-25T09:47:37Z</time></trkpt><trkpt lat="43.938993617524304" lon="12.545046773703856"><ele>208.66666666666666</ele><time>2026-04-25T09:47:38Z</time></trkpt><trkpt lat="43.93907348616211" lon="12.545235018059348"><ele>208.0</ele><time>2026-04-25T09:47:39Z</time></trkpt><trkpt lat="43.93915672910976" lon="12.545415580631067"><ele>206.66666666666666</ele><time>2026-04-25T09:47:40Z</time></trkpt><trkpt lat="43.93924021257525" lon="12.545588236391378"><ele>205.33333333333331</ele><time>2026-04-25T09:47:41Z</time></trkpt><trkpt lat="43.93932590172047" lon="12.545756886753193"><ele>204.0</ele><time>2026-04-25T09:47:42Z</time></trkpt><trkpt lat="43.93942081261957" lon="12.54592059654096"><ele>204.0</ele><time>2026-04-25T09:47:43Z</time></trkpt><trkpt lat="43.93951842824689" lon="12.54608424306097"><ele>204.0</ele><time>2026-04-25T09:47:44Z</time></trkpt><trkpt lat="43.939617695126245" lon="12.546249400034187"><ele>204.0</ele><time>2026-04-25T09:47:45Z</time></trkpt><trkpt lat="43.93972396258019" lon="12.54641618929785"><ele>204.0</ele><time>2026-04-25T09:47:46Z</time></trkpt><trkpt lat="43.93983380299167" lon="12.546576070100564"><ele>204.0</ele><time>2026-04-25T09:47:47Z</time></trkpt><trkpt lat="43.93994487736255" lon="12.546728032733869"><ele>204.0</ele><time>2026-04-25T09:47:48Z</time></trkpt><trkpt lat="43.940057971412465" lon="12.546878906955692"><ele>201.66666666666669</ele><time>2026-04-25T09:47:49Z</time></trkpt><trkpt lat="43.94017190276857" lon="12.547022930742092"><ele>199.33333333333334</ele><time>2026-04-25T09:47:50Z</time></trkpt><trkpt lat="43.940282622764684" lon="12.547162213871593"><ele>197.0</ele><time>2026-04-25T09:47:51Z</time></trkpt><trkpt lat="43.9403953444246" lon="12.547298363252063"><ele>197.0</ele><time>2026-04-25T09:47:52Z</time></trkpt><trkpt lat="43.94050987348731" lon="12.547430813263029"><ele>197.0</ele><time>2026-04-25T09:47:53Z</time></trkpt><trkpt lat="43.94062915362081" lon="12.547556884761113"><ele>197.0</ele><time>2026-04-25T09:47:54Z</time></trkpt><trkpt lat="43.94074707664052" lon="12.547677266414137"><ele>197.0</ele><time>2026-04-25T09:47:55Z</time></trkpt><trkpt lat="43.9408480715796" lon="12.547781710082914"><ele>193.5</ele><time>2026-04-25T09:47:56Z</time></trkpt><trkpt lat="43.940938766696895" lon="12.54789609045227"><ele>190.0</ele><time>2026-04-25T09:47:57Z</time></trkpt><trkpt lat="43.940998578972554" lon="12.548029765190751"><ele>186.5</ele><time>2026-04-25T09:47:58Z</time></trkpt><trkpt lat="43.941028041530586" lon="12.548177790313998"><ele>183.0</ele><time>2026-04-25T09:47:59Z</time></trkpt><trkpt lat="43.941019589007844" lon="12.548336129430238"><ele>183.0</ele><time>2026-04-25T09:48:00Z</time></trkpt><trkpt lat="43.94096625705727" lon="12.54848690940813"><ele>183.0</ele><time>2026-04-25T09:48:01Z</time></trkpt><trkpt lat="43.94087618222864" lon="12.548618694615763"><ele>183.0</ele><time>2026-04-25T09:48:02Z</time></trkpt><trkpt lat="43.94076022782738" lon="12.548726303245942"><ele>183.0</ele><time>2026-04-25T09:48:03Z</time></trkpt><trkpt lat="43.940639255704255" lon="12.548830712096887"><ele>184.0</ele><time>2026-04-25T09:48:04Z</time></trkpt><trkpt lat="43.940555291758486" lon="12.548962597783213"><ele>185.0</ele><time>2026-04-25T09:48:05Z</time></trkpt><trkpt lat="43.94051602342109" lon="12.549120922991941"><ele>186.0</ele><time>2026-04-25T09:48:06Z</time></trkpt><trkpt lat="43.940519298093974" lon="12.54928249170041"><ele>187.0</ele><time>2026-04-25T09:48:07Z</time></trkpt><trkpt lat="43.94057774947537" lon="12.54943372873192"><ele>187.0</ele><time>2026-04-25T09:48:08Z</time></trkpt><trkpt lat="43.94068168811154" lon="12.549537410569906"><ele>187.0</ele><time>2026-04-25T09:48:09Z</time></trkpt><trkpt lat="43.94082010881978" lon="12.549600690589285"><ele>187.0</ele><time>2026-04-25T09:48:10Z</time></trkpt><trkpt lat="43.94097751838286" lon="12.549635905990968"><ele>187.0</ele><time>2026-04-25T09:48:11Z</time></trkpt><trkpt lat="43.94114457208283" lon="12.549656286175816"><ele>182.66666666666669</ele><time>2026-04-25T09:48:12Z</time></trkpt><trkpt lat="43.94130817062758" lon="12.549672420370852"><ele>178.33333333333334</ele><time>2026-04-25T09:48:13Z</time></trkpt><trkpt lat="43.94147651048867" lon="12.549691097596114"><ele>174.0</ele><time>2026-04-25T09:48:14Z</time></trkpt><trkpt lat="43.94163695448869" lon="12.54970991517285"><ele>172.0</ele><time>2026-04-25T09:48:15Z</time></trkpt><trkpt lat="43.94178414780842" lon="12.549723745542229"><ele>170.0</ele><time>2026-04-25T09:48:16Z</time></trkpt><trkpt lat="43.94192399489832" lon="12.54974712089294"><ele>168.0</ele><time>2026-04-25T09:48:17Z</time></trkpt><trkpt lat="43.9420582824537" lon="12.549799333770633"><ele>166.0</ele><time>2026-04-25T09:48:18Z</time></trkpt><trkpt lat="43.94218188929569" lon="12.549900084762207"><ele>166.0</ele><time>2026-04-25T09:48:19Z</time></trkpt><trkpt lat="43.94229836215333" lon="12.550040169497947"><ele>166.0</ele><time>2026-04-25T09:48:20Z</time></trkpt><trkpt lat="43.94240584504031" lon="12.55020360805123"><ele>166.0</ele><time>2026-04-25T09:48:21Z</time></trkpt><trkpt lat="43.94250571726696" lon="12.550380264001422"><ele>163.5</ele><time>2026-04-25T09:48:22Z</time></trkpt><trkpt lat="43.94259161510392" lon="12.550554413485004"><ele>161.0</ele><time>2026-04-25T09:48:23Z</time></trkpt><trkpt lat="43.9426608323791" lon="12.55072801723365"><ele>158.5</ele><time>2026-04-25T09:48:24Z</time></trkpt><trkpt lat="43.94271535396907" lon="12.550908885187372"><ele>156.0</ele><time>2026-04-25T09:48:25Z</time></trkpt><trkpt lat="43.94276217201727" lon="12.551092100989234"><ele>156.25</ele><time>2026-04-25T09:48:26Z</time></trkpt><trkpt lat="43.94280980917056" lon="12.551266497633826"><ele>156.5</ele><time>2026-04-25T09:48:27Z</time></trkpt><trkpt lat="43.94285995885408" lon="12.551436952436315"><ele>156.75</ele><time>2026-04-25T09:48:28Z</time></trkpt><trkpt lat="43.94291209197017" lon="12.551608777456279"><ele>157.0</ele><time>2026-04-25T09:48:29Z</time></trkpt><trkpt lat="43.94296757132342" lon="12.551781430583906"><ele>157.0</ele><time>2026-04-25T09:48:30Z</time></trkpt><trkpt lat="43.94302936475534" lon="12.551950832993455"><ele>157.0</ele><time>2026-04-25T09:48:31Z</time></trkpt><trkpt lat="43.94309683618626" lon="12.552119994813197"><ele>157.0</ele><time>2026-04-25T09:48:32Z</time></trkpt><trkpt lat="43.94316621827888" lon="12.552284328452224"><ele>157.0</ele><time>2026-04-25T09:48:33Z</time></trkpt><trkpt lat="43.94323792274979" lon="12.552449140789356"><ele>156.75</ele><time>2026-04-25T09:48:34Z</time></trkpt><trkpt lat="43.94330848692434" lon="12.55261626841989"><ele>156.5</ele><time>2026-04-25T09:48:35Z</time></trkpt><trkpt lat="43.9433809703176" lon="12.552789441808558"><ele>156.25</ele><time>2026-04-25T09:48:36Z</time></trkpt><trkpt lat="43.943457163874804" lon="12.552964913493328"><ele>156.0</ele><time>2026-04-25T09:48:37Z</time></trkpt><trkpt lat="43.94353616621626" lon="12.553138413716598"><ele>154.5</ele><time>2026-04-25T09:48:38Z</time></trkpt><trkpt lat="43.9436170215431" lon="12.553315966537568"><ele>153.0</ele><time>2026-04-25T09:48:39Z</time></trkpt><trkpt lat="43.94368795577831" lon="12.55349500174507"><ele>151.5</ele><time>2026-04-25T09:48:40Z</time></trkpt><trkpt lat="43.943757040859225" lon="12.553668167762464"><ele>150.0</ele><time>2026-04-25T09:48:41Z</time></trkpt><trkpt lat="43.94382390854102" lon="12.553827432062988"><ele>150.0</ele><time>2026-04-25T09:48:42Z</time></trkpt><trkpt lat="43.94388662095612" lon="12.553977114422977"><ele>150.0</ele><time>2026-04-25T09:48:43Z</time></trkpt><trkpt lat="43.94394780280472" lon="12.554132173854448"><ele>150.0</ele><time>2026-04-25T09:48:44Z</time></trkpt><trkpt lat="43.94400630606816" lon="12.55430390308842"><ele>150.0</ele><time>2026-04-25T09:48:45Z</time></trkpt><trkpt lat="43.9440658822007" lon="12.55448286335371"><ele>150.66666666666666</ele><time>2026-04-25T09:48:46Z</time></trkpt><trkpt lat="43.94412091018619" lon="12.554677534989914"><ele>151.33333333333331</ele><time>2026-04-25T09:48:47Z</time></trkpt><trkpt lat="43.944167946789726" lon="12.554882197306952"><ele>152.0</ele><time>2026-04-25T09:48:48Z</time></trkpt><trkpt lat="43.94421623341379" lon="12.55509180663872"><ele>150.33333333333331</ele><time>2026-04-25T09:48:49Z</time></trkpt><trkpt lat="43.944264779568584" lon="12.555307753009878"><ele>148.66666666666666</ele><time>2026-04-25T09:48:50Z</time></trkpt><trkpt lat="43.944310755964764" lon="12.55552323537123"><ele>147.0</ele><time>2026-04-25T09:48:51Z</time></trkpt><trkpt lat="43.94436063934012" lon="12.555730680733246"><ele>147.0</ele><time>2026-04-25T09:48:52Z</time></trkpt><trkpt lat="43.9444203953046" lon="12.555928560268374"><ele>147.0</ele><time>2026-04-25T09:48:53Z</time></trkpt><trkpt lat="43.94449413880887" lon="12.55611279766278"><ele>147.0</ele><time>2026-04-25T09:48:54Z</time></trkpt><trkpt lat="43.94458831030652" lon="12.556279295881215"><ele>150.0</ele><time>2026-04-25T09:48:55Z</time></trkpt><trkpt lat="43.94469217643678" lon="12.556426233695023"><ele>153.0</ele><time>2026-04-25T09:48:56Z</time></trkpt><trkpt lat="43.94480887439346" lon="12.556565965561825"><ele>156.0</ele><time>2026-04-25T09:48:57Z</time></trkpt><trkpt lat="43.94490917787706" lon="12.5567183763845"><ele>156.0</ele><time>2026-04-25T09:48:58Z</time></trkpt><trkpt lat="43.944997170372645" lon="12.556902424291016"><ele>156.0</ele><time>2026-04-25T09:48:59Z</time></trkpt><trkpt lat="43.94508833119569" lon="12.55708566149047"><ele>156.0</ele><time>2026-04-25T09:49:00Z</time></trkpt><trkpt lat="43.94518503371199" lon="12.557269919194251"><ele>153.66666666666666</ele><time>2026-04-25T09:49:01Z</time></trkpt><trkpt lat="43.94527806584813" lon="12.5574598841045"><ele>151.33333333333331</ele><time>2026-04-25T09:49:02Z</time></trkpt><trkpt lat="43.94536839699729" lon="12.557645324541218"><ele>149.0</ele><time>2026-04-25T09:49:03Z</time></trkpt><trkpt lat="43.94545803941167" lon="12.557821413154965"><ele>150.33333333333331</ele><time>2026-04-25T09:49:04Z</time></trkpt><trkpt lat="43.945548011273885" lon="12.557988712305548"><ele>151.66666666666666</ele><time>2026-04-25T09:49:05Z</time></trkpt><trkpt lat="43.94564402577546" lon="12.558154621314134"><ele>153.0</ele><time>2026-04-25T09:49:06Z</time></trkpt><trkpt lat="43.94574367266366" lon="12.558316901601428"><ele>153.0</ele><time>2026-04-25T09:49:07Z</time></trkpt><trkpt lat="43.945848323694804" lon="12.55847127461565"><ele>153.0</ele><time>2026-04-25T09:49:08Z</time></trkpt><trkpt lat="43.94595895955382" lon="12.558621233571865"><ele>153.0</ele><time>2026-04-25T09:49:09Z</time></trkpt><trkpt lat="43.94607351865786" lon="12.558771041472342"><ele>151.0</ele><time>2026-04-25T09:49:10Z</time></trkpt><trkpt lat="43.94618808758299" lon="12.55892391082879"><ele>149.0</ele><time>2026-04-25T09:49:11Z</time></trkpt><trkpt lat="43.94629938464126" lon="12.559079490870625"><ele>147.0</ele><time>2026-04-25T09:49:12Z</time></trkpt><trkpt lat="43.94641316443105" lon="12.559233882407145"><ele>147.0</ele><time>2026-04-25T09:49:13Z</time></trkpt><trkpt lat="43.946529411716114" lon="12.559385573483352"><ele>147.0</ele><time>2026-04-25T09:49:14Z</time></trkpt><trkpt lat="43.94664399318952" lon="12.559537276834037"><ele>147.0</ele><time>2026-04-25T09:49:15Z</time></trkpt><trkpt lat="43.94675652325547" lon="12.559694733819848"><ele>141.33333333333334</ele><time>2026-04-25T09:49:16Z</time></trkpt><trkpt lat="43.946871340372624" lon="12.559851528285487"><ele>135.66666666666669</ele><time>2026-04-25T09:49:17Z</time></trkpt><trkpt lat="43.94698806376361" lon="12.560011590152383"><ele>130.0</ele><time>2026-04-25T09:49:18Z</time></trkpt><trkpt lat="43.9471002018885" lon="12.560178018373241"><ele>130.0</ele><time>2026-04-25T09:49:19Z</time></trkpt><trkpt lat="43.947213189566014" lon="12.560350416162947"><ele>130.0</ele><time>2026-04-25T09:49:20Z</time></trkpt><trkpt lat="43.94732970648736" lon="12.560531250210639"><ele>130.0</ele><time>2026-04-25T09:49:21Z</time></trkpt><trkpt lat="43.94744577302144" lon="12.560710288106584"><ele>128.33333333333334</ele><time>2026-04-25T09:49:22Z</time></trkpt><trkpt lat="43.94755979708872" lon="12.560890622754243"><ele>126.66666666666666</ele><time>2026-04-25T09:49:23Z</time></trkpt><trkpt lat="43.947674745401734" lon="12.561075204420009"><ele>125.0</ele><time>2026-04-25T09:49:24Z</time></trkpt><trkpt lat="43.94778974191581" lon="12.561261506759797"><ele>125.0</ele><time>2026-04-25T09:49:25Z</time></trkpt><trkpt lat="43.94790909517581" lon="12.56144968402071"><ele>125.0</ele><time>2026-04-25T09:49:26Z</time></trkpt><trkpt lat="43.94803151283628" lon="12.561638059708546"><ele>125.0</ele><time>2026-04-25T09:49:27Z</time></trkpt><trkpt lat="43.948151964826955" lon="12.56182489548991"><ele>125.0</ele><time>2026-04-25T09:49:28Z</time></trkpt><trkpt lat="43.94826966624765" lon="12.562009868559745"><ele>125.0</ele><time>2026-04-25T09:49:29Z</time></trkpt><trkpt lat="43.94837556417723" lon="12.562179331527107"><ele>125.0</ele><time>2026-04-25T09:49:30Z</time></trkpt><trkpt lat="43.94847987889713" lon="12.562341210136095"><ele>124.25</ele><time>2026-04-25T09:49:31Z</time></trkpt><trkpt lat="43.94858459581714" lon="12.56249655055881"><ele>123.5</ele><time>2026-04-25T09:49:32Z</time></trkpt><trkpt lat="43.94868980579263" lon="12.562636377916633"><ele>122.75</ele><time>2026-04-25T09:49:33Z</time></trkpt><trkpt lat="43.94879688163078" lon="12.562753809260737"><ele>122.0</ele><time>2026-04-25T09:49:34.001Z</time></trkpt><trkpt lat="43.94889667178511" lon="12.562870422034019"><ele>122.0</ele><time>2026-04-25T09:49:35Z</time></trkpt><trkpt lat="43.949003715752376" lon="12.562957981835792"><ele>122.0</ele><time>2026-04-25T09:49:36Z</time></trkpt><trkpt lat="43.94911058554365" lon="12.563037689985691"><ele>122.0</ele><time>2026-04-25T09:49:37Z</time></trkpt><trkpt lat="43.949217911125444" lon="12.563113121065994"><ele>122.0</ele><time>2026-04-25T09:49:38Z</time></trkpt><trkpt lat="43.94932024571583" lon="12.563184559883066"><ele>121.25</ele><time>2026-04-25T09:49:39Z</time></trkpt><trkpt lat="43.94942714923425" lon="12.563264418191586"><ele>120.5</ele><time>2026-04-25T09:49:40Z</time></trkpt><trkpt lat="43.94954506719663" lon="12.563355202471492"><ele>119.75</ele><time>2026-04-25T09:49:41Z</time></trkpt><trkpt lat="43.949670875566454" lon="12.563455612889136"><ele>119.0</ele><time>2026-04-25T09:49:42Z</time></trkpt><trkpt lat="43.94980157222555" lon="12.563566965927771"><ele>119.0</ele><time>2026-04-25T09:49:43Z</time></trkpt><trkpt lat="43.94994611691107" lon="12.563671359880273"><ele>119.0</ele><time>2026-04-25T09:49:44Z</time></trkpt><trkpt lat="43.95008142787072" lon="12.56381077818772"><ele>119.0</ele><time>2026-04-25T09:49:45Z</time></trkpt><trkpt lat="43.95022295854262" lon="12.563955028314293"><ele>118.0</ele><time>2026-04-25T09:49:46Z</time></trkpt><trkpt lat="43.95036491114183" lon="12.564102069054266"><ele>117.0</ele><time>2026-04-25T09:49:47Z</time></trkpt><trkpt lat="43.950506000117954" lon="12.56424837945183"><ele>116.0</ele><time>2026-04-25T09:49:48Z</time></trkpt><trkpt lat="43.950639896094536" lon="12.564393458943417"><ele>116.0</ele><time>2026-04-25T09:49:49Z</time></trkpt><trkpt lat="43.95077426282891" lon="12.564537028764978"><ele>116.0</ele><time>2026-04-25T09:49:50Z</time></trkpt><trkpt lat="43.95090954370153" lon="12.564680914751692"><ele>116.0</ele><time>2026-04-25T09:49:51Z</time></trkpt><trkpt lat="43.95105185642823" lon="12.564815149483485"><ele>116.0</ele><time>2026-04-25T09:49:52Z</time></trkpt><trkpt lat="43.95120770569655" lon="12.564927168888198"><ele>116.0</ele><time>2026-04-25T09:49:53Z</time></trkpt><trkpt lat="43.9513735291189" lon="12.56502380994303"><ele>116.0</ele><time>2026-04-25T09:49:54Z</time></trkpt><trkpt lat="43.951542788131974" lon="12.565118457529184"><ele>116.66666666666666</ele><time>2026-04-25T09:49:55Z</time></trkpt><trkpt lat="43.95171370135997" lon="12.565216793844762"><ele>117.33333333333334</ele><time>2026-04-25T09:49:56Z</time></trkpt><trkpt lat="43.95187016033369" lon="12.565321358858903"><ele>118.0</ele><time>2026-04-25T09:49:57Z</time></trkpt><trkpt lat="43.9519946483353" lon="12.565463954357753"><ele>118.0</ele><time>2026-04-25T09:49:58Z</time></trkpt><trkpt lat="43.95212132742272" lon="12.565587391790437"><ele>118.0</ele><time>2026-04-25T09:49:59Z</time></trkpt><trkpt lat="43.95223012660595" lon="12.56575374355609"><ele>118.0</ele><time>2026-04-25T09:50:00Z</time></trkpt><trkpt lat="43.95233459278467" lon="12.565936024163264"><ele>118.0</ele><time>2026-04-25T09:50:01Z</time></trkpt><trkpt lat="43.95243821351827" lon="12.56612444977856"><ele>118.0</ele><time>2026-04-25T09:50:02Z</time></trkpt><trkpt lat="43.952544969756815" lon="12.566321495884896"><ele>118.0</ele><time>2026-04-25T09:50:03Z</time></trkpt><trkpt lat="43.95264291417995" lon="12.566534857715533"><ele>118.0</ele><time>2026-04-25T09:50:04Z</time></trkpt><trkpt lat="43.9527341051389" lon="12.566754376236462"><ele>118.0</ele><time>2026-04-25T09:50:05Z</time></trkpt><trkpt lat="43.952824301822055" lon="12.56697504830036"><ele>118.0</ele><time>2026-04-25T09:50:06Z</time></trkpt><trkpt lat="43.95291521543352" lon="12.567195121418395"><ele>118.0</ele><time>2026-04-25T09:50:07Z</time></trkpt><trkpt lat="43.95300778304865" lon="12.567416475143325"><ele>118.0</ele><time>2026-04-25T09:50:08Z</time></trkpt><trkpt lat="43.953105633589445" lon="12.567631036606194"><ele>118.0</ele><time>2026-04-25T09:50:09Z</time></trkpt><trkpt lat="43.95320439233515" lon="12.567846758099558"><ele>117.33333333333334</ele><time>2026-04-25T09:50:10Z</time></trkpt><trkpt lat="43.95330050214776" lon="12.568063558744802"><ele>116.66666666666666</ele><time>2026-04-25T09:50:11Z</time></trkpt><trkpt lat="43.953398929018704" lon="12.56828186392199"><ele>116.0</ele><time>2026-04-25T09:50:12Z</time></trkpt><trkpt lat="43.953493251156495" lon="12.568498430196424"><ele>118.0</ele><time>2026-04-25T09:50:13Z</time></trkpt><trkpt lat="43.95358799647281" lon="12.568710490532819"><ele>120.0</ele><time>2026-04-25T09:50:14Z</time></trkpt><trkpt lat="43.95368284891515" lon="12.568918750149713"><ele>122.0</ele><time>2026-04-25T09:50:15Z</time></trkpt><trkpt lat="43.95378468490954" lon="12.569118578747016"><ele>122.0</ele><time>2026-04-25T09:50:16Z</time></trkpt><trkpt lat="43.95390332874056" lon="12.569297729756075"><ele>122.0</ele><time>2026-04-25T09:50:17Z</time></trkpt><trkpt lat="43.95404685814009" lon="12.569448005660178"><ele>122.0</ele><time>2026-04-25T09:50:18Z</time></trkpt><trkpt lat="43.954210805817006" lon="12.56956546398645"><ele>120.33333333333333</ele><time>2026-04-25T09:50:19Z</time></trkpt><trkpt lat="43.95439249920477" lon="12.569659011911238"><ele>118.66666666666666</ele><time>2026-04-25T09:50:20Z</time></trkpt><trkpt lat="43.95457018376924" lon="12.569766492041806"><ele>117.0</ele><time>2026-04-25T09:50:21Z</time></trkpt><trkpt lat="43.954758915203406" lon="12.569864116438879"><ele>117.0</ele><time>2026-04-25T09:50:22Z</time></trkpt><trkpt lat="43.954954327435125" lon="12.569964184693822"><ele>117.0</ele><time>2026-04-25T09:50:23Z</time></trkpt><trkpt lat="43.95516712767749" lon="12.570075340905142"><ele>117.0</ele><time>2026-04-25T09:50:24Z</time></trkpt><trkpt lat="43.955381677079835" lon="12.57018590025436"><ele>117.0</ele><time>2026-04-25T09:50:25Z</time></trkpt><trkpt lat="43.95559627532312" lon="12.570290646428061"><ele>117.0</ele><time>2026-04-25T09:50:26Z</time></trkpt><trkpt lat="43.95581399067497" lon="12.57039108107385"><ele>115.66666666666666</ele><time>2026-04-25T09:50:27Z</time></trkpt><trkpt lat="43.95602782026123" lon="12.570485758298691"><ele>114.33333333333333</ele><time>2026-04-25T09:50:28Z</time></trkpt><trkpt lat="43.95622793933301" lon="12.57056597096647"><ele>113.0</ele><time>2026-04-25T09:50:29Z</time></trkpt><trkpt lat="43.95641770741862" lon="12.570653873265385"><ele>113.0</ele><time>2026-04-25T09:50:30Z</time></trkpt><trkpt lat="43.95659851586948" lon="12.570766906784904"><ele>113.0</ele><time>2026-04-25T09:50:31Z</time></trkpt><trkpt lat="43.95677898481714" lon="12.570900957156066"><ele>113.0</ele><time>2026-04-25T09:50:32Z</time></trkpt><trkpt lat="43.95695264955083" lon="12.571048421973371"><ele>110.33333333333333</ele><time>2026-04-25T09:50:33Z</time></trkpt><trkpt lat="43.95712872301048" lon="12.571213396993958"><ele>107.66666666666666</ele><time>2026-04-25T09:50:34Z</time></trkpt><trkpt lat="43.95730749974606" lon="12.571384005881162"><ele>105.0</ele><time>2026-04-25T09:50:35Z</time></trkpt><trkpt lat="43.957489639436155" lon="12.571555713891478"><ele>105.0</ele><time>2026-04-25T09:50:36Z</time></trkpt><trkpt lat="43.95766125738457" lon="12.571702014152814"><ele>105.0</ele><time>2026-04-25T09:50:37Z</time></trkpt><trkpt lat="43.9578174425842" lon="12.571814642198074"><ele>105.0</ele><time>2026-04-25T09:50:38Z</time></trkpt><trkpt lat="43.95796445810141" lon="12.57190147041249"><ele>105.0</ele><time>2026-04-25T09:50:39Z</time></trkpt><trkpt lat="43.958101120047125" lon="12.57196356053764"><ele>105.0</ele><time>2026-04-25T09:50:40Z</time></trkpt><trkpt lat="43.95822413372974" lon="12.572013040539835"><ele>105.0</ele><time>2026-04-25T09:50:41Z</time></trkpt><trkpt lat="43.958342198792955" lon="12.57205368733852"><ele>105.0</ele><time>2026-04-25T09:50:42Z</time></trkpt><trkpt lat="43.95847084563416" lon="12.572094743189274"><ele>101.33333333333333</ele><time>2026-04-25T09:50:43Z</time></trkpt><trkpt lat="43.958623396737956" lon="12.572137082781417"><ele>97.66666666666666</ele><time>2026-04-25T09:50:44Z</time></trkpt><trkpt lat="43.95878740719365" lon="12.572156189476914"><ele>94.0</ele><time>2026-04-25T09:50:45Z</time></trkpt><trkpt lat="43.958962373711095" lon="12.572211982298386"><ele>94.0</ele><time>2026-04-25T09:50:46Z</time></trkpt><trkpt lat="43.95915959734072" lon="12.572220453750544"><ele>94.0</ele><time>2026-04-25T09:50:47Z</time></trkpt><trkpt lat="43.95936484428839" lon="12.57219810070406"><ele>94.0</ele><time>2026-04-25T09:50:48Z</time></trkpt><trkpt lat="43.95956406759939" lon="12.572158809276287"><ele>94.66666666666666</ele><time>2026-04-25T09:50:49Z</time></trkpt><trkpt lat="43.95974823864067" lon="12.572142005667368"><ele>95.33333333333333</ele><time>2026-04-25T09:50:50Z</time></trkpt><trkpt lat="43.95992732571591" lon="12.57213510816446"><ele>96.0</ele><time>2026-04-25T09:50:51Z</time></trkpt><trkpt lat="43.96010935908253" lon="12.57221529248773"><ele>97.66666666666666</ele><time>2026-04-25T09:50:52Z</time></trkpt><trkpt lat="43.96028545636566" lon="12.572305497419636"><ele>99.33333333333333</ele><time>2026-04-25T09:50:53Z</time></trkpt><trkpt lat="43.96046863999371" lon="12.572424498727797"><ele>101.0</ele><time>2026-04-25T09:50:54Z</time></trkpt><trkpt lat="43.960668877148976" lon="12.572561155448444"><ele>101.0</ele><time>2026-04-25T09:50:55Z</time></trkpt><trkpt lat="43.96087228122054" lon="12.572701440601607"><ele>101.0</ele><time>2026-04-25T09:50:56Z</time></trkpt><trkpt lat="43.96105635339713" lon="12.572832128684913"><ele>101.0</ele><time>2026-04-25T09:50:57Z</time></trkpt><trkpt lat="43.96123051045569" lon="12.572972270779985"><ele>101.0</ele><time>2026-04-25T09:50:58Z</time></trkpt><trkpt lat="43.961396957654436" lon="12.57313927353282"><ele>101.0</ele><time>2026-04-25T09:50:59Z</time></trkpt><trkpt lat="43.96156266641336" lon="12.573317735175474"><ele>101.0</ele><time>2026-04-25T09:51:00Z</time></trkpt><trkpt lat="43.96173797666891" lon="12.573508799062255"><ele>101.33333333333333</ele><time>2026-04-25T09:51:01Z</time></trkpt><trkpt lat="43.961909078694575" lon="12.573688743181714"><ele>101.66666666666666</ele><time>2026-04-25T09:51:02Z</time></trkpt><trkpt lat="43.96208145778209" lon="12.573844040449591"><ele>102.0</ele><time>2026-04-25T09:51:03Z</time></trkpt><trkpt lat="43.96225535176485" lon="12.57395634610655"><ele>102.0</ele><time>2026-04-25T09:51:04Z</time></trkpt><trkpt lat="43.96243038358217" lon="12.574014276032083"><ele>102.0</ele><time>2026-04-25T09:51:05Z</time></trkpt><trkpt lat="43.962617135670506" lon="12.574006965555514"><ele>102.0</ele><time>2026-04-25T09:51:06Z</time></trkpt><trkpt lat="43.96281608818676" lon="12.573990261710724"><ele>101.33333333333334</ele><time>2026-04-25T09:51:07Z</time></trkpt><trkpt lat="43.963021959858956" lon="12.573992443078286"><ele>100.66666666666667</ele><time>2026-04-25T09:51:08Z</time></trkpt><trkpt lat="43.963223639428755" lon="12.574010090543306"><ele>100.0</ele><time>2026-04-25T09:51:09Z</time></trkpt><trkpt lat="43.96341217713698" lon="12.574076505152235"><ele>98.66666666666667</ele><time>2026-04-25T09:51:10Z</time></trkpt><trkpt lat="43.963600406607114" lon="12.57417580874192"><ele>97.33333333333334</ele><time>2026-04-25T09:51:11Z</time></trkpt><trkpt lat="43.96379453526784" lon="12.574288789640455"><ele>96.0</ele><time>2026-04-25T09:51:12Z</time></trkpt><trkpt lat="43.96398268912881" lon="12.574399229322466"><ele>96.0</ele><time>2026-04-25T09:51:13Z</time></trkpt><trkpt lat="43.964162522737915" lon="12.574504785353193"><ele>96.0</ele><time>2026-04-25T09:51:14Z</time></trkpt><trkpt lat="43.96433819577535" lon="12.574605786059363"><ele>96.0</ele><time>2026-04-25T09:51:15Z</time></trkpt><trkpt lat="43.9644976356364" lon="12.574694583666357"><ele>95.25</ele><time>2026-04-25T09:51:16Z</time></trkpt><trkpt lat="43.9646484637922" lon="12.574776300570331"><ele>94.5</ele><time>2026-04-25T09:51:17Z</time></trkpt><trkpt lat="43.964782129115456" lon="12.574842737125282"><ele>93.75</ele><time>2026-04-25T09:51:18Z</time></trkpt><trkpt lat="43.96489562653161" lon="12.574883688602538"><ele>93.0</ele><time>2026-04-25T09:51:19Z</time></trkpt><trkpt lat="43.96498402495219" lon="12.574905641496866"><ele>92.2</ele><time>2026-04-25T09:51:20Z</time></trkpt><trkpt lat="43.96505824214778" lon="12.574959031881253"><ele>91.4</ele><time>2026-04-25T09:51:21Z</time></trkpt><trkpt lat="43.96514911597998" lon="12.57512837262345"><ele>90.60000000000001</ele><time>2026-04-25T09:51:23Z</time></trkpt><trkpt lat="43.965215094772994" lon="12.575185870863956"><ele>89.80000000000001</ele><time>2026-04-25T09:51:24Z</time></trkpt><trkpt lat="43.965291578753785" lon="12.575245830296671"><ele>89.0</ele><time>2026-04-25T09:51:25Z</time></trkpt><trkpt lat="43.9653727710741" lon="12.575304627105801"><ele>88.80000000000001</ele><time>2026-04-25T09:51:26Z</time></trkpt><trkpt lat="43.96546068119308" lon="12.575364255713188"><ele>88.60000000000001</ele><time>2026-04-25T09:51:27Z</time></trkpt><trkpt lat="43.965557310608204" lon="12.575426109539396"><ele>88.4</ele><time>2026-04-25T09:51:28Z</time></trkpt><trkpt lat="43.965657215811106" lon="12.575484551934515"><ele>88.2</ele><time>2026-04-25T09:51:29Z</time></trkpt><trkpt lat="43.96576609895409" lon="12.575544214037489"><ele>88.0</ele><time>2026-04-25T09:51:30Z</time></trkpt><trkpt lat="43.965877446415" lon="12.575590251442655"><ele>88.0</ele><time>2026-04-25T09:51:31Z</time></trkpt><trkpt lat="43.965982765372694" lon="12.575638306029415"><ele>88.0</ele><time>2026-04-25T09:51:32Z</time></trkpt><trkpt lat="43.966091684766454" lon="12.575695556413393"><ele>88.0</ele><time>2026-04-25T09:51:33Z</time></trkpt><trkpt lat="43.966209860485115" lon="12.57575775005948"><ele>88.0</ele><time>2026-04-25T09:51:34Z</time></trkpt><trkpt lat="43.966331094662294" lon="12.575839308930203"><ele>88.0</ele><time>2026-04-25T09:51:35Z</time></trkpt><trkpt lat="43.966466963766244" lon="12.575904581566022"><ele>88.0</ele><time>2026-04-25T09:51:36Z</time></trkpt><trkpt lat="43.966615772053885" lon="12.575968094144878"><ele>88.0</ele><time>2026-04-25T09:51:37Z</time></trkpt><trkpt lat="43.96676606328496" lon="12.576031757982042"><ele>88.25</ele><time>2026-04-25T09:51:38Z</time></trkpt><trkpt lat="43.96690841389591" lon="12.576094003201476"><ele>88.5</ele><time>2026-04-25T09:51:39Z</time></trkpt><trkpt lat="43.967046429466194" lon="12.576154120772243"><ele>88.75</ele><time>2026-04-25T09:51:40Z</time></trkpt><trkpt lat="43.96718351231559" lon="12.57621202640461"><ele>89.0</ele><time>2026-04-25T09:51:41Z</time></trkpt><trkpt lat="43.967322431115825" lon="12.576258819435417"><ele>89.0</ele><time>2026-04-25T09:51:42Z</time></trkpt><trkpt lat="43.96746063438143" lon="12.576299533243372"><ele>89.0</ele><time>2026-04-25T09:51:43Z</time></trkpt><trkpt lat="43.96759616638779" lon="12.576359806801273"><ele>89.0</ele><time>2026-04-25T09:51:44Z</time></trkpt><trkpt lat="43.96773651508371" lon="12.5764336596939"><ele>89.0</ele><time>2026-04-25T09:51:45Z</time></trkpt><trkpt lat="43.967880099164134" lon="12.576514522535836"><ele>87.66666666666667</ele><time>2026-04-25T09:51:46Z</time></trkpt><trkpt lat="43.96802949028993" lon="12.576595222257849"><ele>86.33333333333333</ele><time>2026-04-25T09:51:47Z</time></trkpt><trkpt lat="43.968175248556896" lon="12.57667990910084"><ele>85.0</ele><time>2026-04-25T09:51:48Z</time></trkpt><trkpt lat="43.96831529280816" lon="12.57675053854452"><ele>84.75</ele><time>2026-04-25T09:51:49Z</time></trkpt><trkpt lat="43.968446126836824" lon="12.576823422890117"><ele>84.5</ele><time>2026-04-25T09:51:50Z</time></trkpt><trkpt lat="43.96856853915743" lon="12.576893668040197"><ele>84.25</ele><time>2026-04-25T09:51:51Z</time></trkpt><trkpt lat="43.96868527747744" lon="12.576971216227392"><ele>84.0</ele><time>2026-04-25T09:51:52Z</time></trkpt><trkpt lat="43.96879626533678" lon="12.577077268969141"><ele>84.0</ele><time>2026-04-25T09:51:53Z</time></trkpt><trkpt lat="43.968896716625835" lon="12.577209960771652"><ele>84.0</ele><time>2026-04-25T09:51:54Z</time></trkpt><trkpt lat="43.968984966298954" lon="12.577354074697595"><ele>84.0</ele><time>2026-04-25T09:51:55Z</time></trkpt><trkpt lat="43.96905503595101" lon="12.577505683351392"><ele>84.0</ele><time>2026-04-25T09:51:56Z</time></trkpt><trkpt lat="43.96911839385915" lon="12.577664775940887"><ele>84.0</ele><time>2026-04-25T09:51:57Z</time></trkpt><trkpt lat="43.96918013102381" lon="12.57782529699228"><ele>84.0</ele><time>2026-04-25T09:51:58Z</time></trkpt><trkpt lat="43.9692497299666" lon="12.577980528415146"><ele>84.0</ele><time>2026-04-25T09:51:59Z</time></trkpt><trkpt lat="43.96931971549969" lon="12.578136673421824"><ele>84.0</ele><time>2026-04-25T09:52:00Z</time></trkpt><trkpt lat="43.96938216097324" lon="12.578283751999294"><ele>83.83333333333333</ele><time>2026-04-25T09:52:01Z</time></trkpt><trkpt lat="43.96942964468432" lon="12.578408197101732"><ele>83.66666666666667</ele><time>2026-04-25T09:52:02Z</time></trkpt><trkpt lat="43.96946940047045" lon="12.578520789191929"><ele>83.5</ele><time>2026-04-25T09:52:03Z</time></trkpt><trkpt lat="43.969495891526996" lon="12.578624911582196"><ele>83.33333333333334</ele><time>2026-04-25T09:52:04Z</time></trkpt><trkpt lat="43.96952766772555" lon="12.578726233942216"><ele>83.16666666666667</ele><time>2026-04-25T09:52:05Z</time></trkpt><trkpt lat="43.969572388822066" lon="12.57883988784248"><ele>83.0</ele><time>2026-04-25T09:52:06Z</time></trkpt><trkpt lat="43.969633544922246" lon="12.578968103348076"><ele>83.0</ele><time>2026-04-25T09:52:07Z</time></trkpt><trkpt lat="43.96970555525966" lon="12.579108057197955"><ele>83.0</ele><time>2026-04-25T09:52:08Z</time></trkpt><trkpt lat="43.96978526256397" lon="12.57925652572605"><ele>83.0</ele><time>2026-04-25T09:52:09Z</time></trkpt><trkpt lat="43.9698625255976" lon="12.579402660940932"><ele>83.0</ele><time>2026-04-25T09:52:10Z</time></trkpt><trkpt lat="43.96994283526927" lon="12.579559020276449"><ele>82.5</ele><time>2026-04-25T09:52:11Z</time></trkpt><trkpt lat="43.97000747521677" lon="12.57973717641217"><ele>82.0</ele><time>2026-04-25T09:52:12Z</time></trkpt><trkpt lat="43.970082019908276" lon="12.579914472796528"><ele>81.5</ele><time>2026-04-25T09:52:13Z</time></trkpt><trkpt lat="43.97016321622864" lon="12.58009107225489"><ele>81.0</ele><time>2026-04-25T09:52:14Z</time></trkpt><trkpt lat="43.970220782847555" lon="12.58027859040164"><ele>83.66666666666667</ele><time>2026-04-25T09:52:15Z</time></trkpt><trkpt lat="43.97025766836246" lon="12.580473510381228"><ele>86.33333333333334</ele><time>2026-04-25T09:52:16Z</time></trkpt><trkpt lat="43.9702627457275" lon="12.580690249918216"><ele>89.0</ele><time>2026-04-25T09:52:17Z</time></trkpt><trkpt lat="43.970250391258226" lon="12.5809130963165"><ele>89.0</ele><time>2026-04-25T09:52:18Z</time></trkpt><trkpt lat="43.97024324611793" lon="12.581141161143494"><ele>89.0</ele><time>2026-04-25T09:52:19Z</time></trkpt><trkpt lat="43.97025774917922" lon="12.581395874882322"><ele>89.0</ele><time>2026-04-25T09:52:20Z</time></trkpt><trkpt lat="43.97028047665906" lon="12.581671560161926"><ele>89.33333333333334</ele><time>2026-04-25T09:52:21Z</time></trkpt><trkpt lat="43.97028774061955" lon="12.581930531694358"><ele>89.66666666666667</ele><time>2026-04-25T09:52:22Z</time></trkpt><trkpt lat="43.970312781151705" lon="12.582171125754707"><ele>90.0</ele><time>2026-04-25T09:52:23Z</time></trkpt><trkpt lat="43.97035072445951" lon="12.582391206817706"><ele>90.0</ele><time>2026-04-25T09:52:24Z</time></trkpt><trkpt lat="43.970344457362586" lon="12.582622624269064"><ele>90.0</ele><time>2026-04-25T09:52:25Z</time></trkpt><trkpt lat="43.97034797719664" lon="12.58285640324479"><ele>90.0</ele><time>2026-04-25T09:52:26Z</time></trkpt><trkpt lat="43.970322818685" lon="12.58308805658205"><ele>90.0</ele><time>2026-04-25T09:52:27Z</time></trkpt><trkpt lat="43.97026681514548" lon="12.583310022666007"><ele>90.0</ele><time>2026-04-25T09:52:28Z</time></trkpt><trkpt lat="43.97023821806969" lon="12.583539454370674"><ele>90.0</ele><time>2026-04-25T09:52:29Z</time></trkpt><trkpt lat="43.97020280115995" lon="12.583766913736852"><ele>90.0</ele><time>2026-04-25T09:52:30Z</time></trkpt><trkpt lat="43.970203988938955" lon="12.583996170361594"><ele>90.0</ele><time>2026-04-25T09:52:31Z</time></trkpt><trkpt lat="43.97020854295614" lon="12.584194595919625"><ele>90.0</ele><time>2026-04-25T09:52:32Z</time></trkpt><trkpt lat="43.97021771739189" lon="12.5843899732986"><ele>90.0</ele><time>2026-04-25T09:52:33Z</time></trkpt><trkpt lat="43.97022572264861" lon="12.584582594619429"><ele>89.5</ele><time>2026-04-25T09:52:34Z</time></trkpt><trkpt lat="43.970235474063166" lon="12.584773461890308"><ele>89.0</ele><time>2026-04-25T09:52:35Z</time></trkpt><trkpt lat="43.970245707223334" lon="12.584966961509917"><ele>88.5</ele><time>2026-04-25T09:52:36Z</time></trkpt><trkpt lat="43.970257767123954" lon="12.585158703761381"><ele>88.0</ele><time>2026-04-25T09:52:37Z</time></trkpt><trkpt lat="43.97028675209523" lon="12.585340484541787"><ele>87.25</ele><time>2026-04-25T09:52:38Z</time></trkpt><trkpt lat="43.97030163353062" lon="12.585523525809883"><ele>86.5</ele><time>2026-04-25T09:52:39Z</time></trkpt><trkpt lat="43.97031754259719" lon="12.585701023583598"><ele>85.75</ele><time>2026-04-25T09:52:40Z</time></trkpt><trkpt lat="43.970342799566296" lon="12.585875329175902"><ele>85.0</ele><time>2026-04-25T09:52:41Z</time></trkpt><trkpt lat="43.97036208578739" lon="12.586050700475134"><ele>84.0</ele><time>2026-04-25T09:52:42Z</time></trkpt><trkpt lat="43.970409494523714" lon="12.586213377534108"><ele>83.0</ele><time>2026-04-25T09:52:43Z</time></trkpt><trkpt lat="43.9704668919378" lon="12.586370263557873"><ele>82.0</ele><time>2026-04-25T09:52:44Z</time></trkpt><trkpt lat="43.970533421029" lon="12.586522533617618"><ele>81.0</ele><time>2026-04-25T09:52:45Z</time></trkpt><trkpt lat="43.97060617234794" lon="12.586670860517476"><ele>81.0</ele><time>2026-04-25T09:52:46Z</time></trkpt><trkpt lat="43.97067990791969" lon="12.586815186744824"><ele>81.0</ele><time>2026-04-25T09:52:47Z</time></trkpt><trkpt lat="43.97075463411609" lon="12.586966780066577"><ele>81.0</ele><time>2026-04-25T09:52:48Z</time></trkpt><trkpt lat="43.97082982688302" lon="12.587119319896493"><ele>81.0</ele><time>2026-04-25T09:52:49Z</time></trkpt><trkpt lat="43.97090660919391" lon="12.587275084349137"><ele>77.0</ele><time>2026-04-25T09:52:50Z</time></trkpt><trkpt lat="43.97098194155791" lon="12.587427907371199"><ele>73.0</ele><time>2026-04-25T09:52:51Z</time></trkpt><trkpt lat="43.97106768608949" lon="12.587568488286765"><ele>69.0</ele><time>2026-04-25T09:52:52Z</time></trkpt><trkpt lat="43.9711410122122" lon="12.587719888776759"><ele>65.0</ele><time>2026-04-25T09:52:53Z</time></trkpt><trkpt lat="43.971212957665074" lon="12.58787142834682"><ele>64.75</ele><time>2026-04-25T09:52:54Z</time></trkpt><trkpt lat="43.97128350715885" lon="12.588018950474412"><ele>64.5</ele><time>2026-04-25T09:52:55Z</time></trkpt><trkpt lat="43.97135113028306" lon="12.588160934002877"><ele>64.25</ele><time>2026-04-25T09:52:56Z</time></trkpt><trkpt lat="43.97142201915716" lon="12.58829474800211"><ele>64.0</ele><time>2026-04-25T09:52:57Z</time></trkpt><trkpt lat="43.97148812022759" lon="12.588433561028538"><ele>64.0</ele><time>2026-04-25T09:52:58Z</time></trkpt><trkpt lat="43.97155207858073" lon="12.588575417821417"><ele>64.0</ele><time>2026-04-25T09:52:59Z</time></trkpt><trkpt lat="43.97161757145279" lon="12.58871415823088"><ele>64.0</ele><time>2026-04-25T09:53:00Z</time></trkpt><trkpt lat="43.97168503436301" lon="12.588847704381996"><ele>64.0</ele><time>2026-04-25T09:53:01Z</time></trkpt><trkpt lat="43.971748618490054" lon="12.58897091175445"><ele>62.800000000000004</ele><time>2026-04-25T09:53:02Z</time></trkpt><trkpt lat="43.971815233416116" lon="12.589089981834586"><ele>61.60000000000001</ele><time>2026-04-25T09:53:03Z</time></trkpt><trkpt lat="43.971859794305296" lon="12.589218381497826"><ele>60.4</ele><time>2026-04-25T09:53:04Z</time></trkpt><trkpt lat="43.971916482124556" lon="12.58930798912453"><ele>59.2</ele><time>2026-04-25T09:53:05Z</time></trkpt><trkpt lat="43.97193902741677" lon="12.589427580066687"><ele>58.0</ele><time>2026-04-25T09:53:06Z</time></trkpt><trkpt lat="43.971940215226866" lon="12.589542482547625"><ele>58.0</ele><time>2026-04-25T09:53:07Z</time></trkpt><trkpt lat="43.97190818354084" lon="12.589656216534625"><ele>58.0</ele><time>2026-04-25T09:53:08Z</time></trkpt><trkpt lat="43.971848846194405" lon="12.58977180945749"><ele>58.0</ele><time>2026-04-25T09:53:09Z</time></trkpt><trkpt lat="43.97178254926433" lon="12.589897035584688"><ele>58.0</ele><time>2026-04-25T09:53:10Z</time></trkpt><trkpt lat="43.97171452761341" lon="12.590042090843738"><ele>58.0</ele><time>2026-04-25T09:53:11Z</time></trkpt><trkpt lat="43.97163300159915" lon="12.590195420745536"><ele>57.0</ele><time>2026-04-25T09:53:12Z</time></trkpt><trkpt lat="43.971549937684486" lon="12.590347237848755"><ele>56.0</ele><time>2026-04-25T09:53:13Z</time></trkpt><trkpt lat="43.971472395183106" lon="12.59049683510647"><ele>55.0</ele><time>2026-04-25T09:53:14Z</time></trkpt><trkpt lat="43.971392512902156" lon="12.590645244953533"><ele>54.0</ele><time>2026-04-25T09:53:15Z</time></trkpt><trkpt lat="43.97131302853719" lon="12.59079027871084"><ele>54.0</ele><time>2026-04-25T09:53:16Z</time></trkpt><trkpt lat="43.971226967887304" lon="12.590941157577051"><ele>54.0</ele><time>2026-04-25T09:53:17Z</time></trkpt><trkpt lat="43.97112790715294" lon="12.59109461817859"><ele>54.0</ele><time>2026-04-25T09:53:18Z</time></trkpt><trkpt lat="43.97101259488275" lon="12.591234788313315"><ele>54.0</ele><time>2026-04-25T09:53:19Z</time></trkpt><trkpt lat="43.97090755761359" lon="12.5914096506123"><ele>49.666666666666664</ele><time>2026-04-25T09:53:20Z</time></trkpt><trkpt lat="43.97079433659971" lon="12.591576713548529"><ele>45.33333333333333</ele><time>2026-04-25T09:53:21Z</time></trkpt><trkpt lat="43.97068338315141" lon="12.591752657398233"><ele>41.0</ele><time>2026-04-25T09:53:22Z</time></trkpt><trkpt lat="43.97057456766367" lon="12.591924433249204"><ele>39.33333333333333</ele><time>2026-04-25T09:53:23Z</time></trkpt><trkpt lat="43.970463115771764" lon="12.592093144351766"><ele>37.666666666666664</ele><time>2026-04-25T09:53:24Z</time></trkpt><trkpt lat="43.97034604670503" lon="12.59225768667645"><ele>36.0</ele><time>2026-04-25T09:53:25Z</time></trkpt><trkpt lat="43.970225599269" lon="12.592409226475977"><ele>36.0</ele><time>2026-04-25T09:53:26Z</time></trkpt><trkpt lat="43.97010750211161" lon="12.592548442756573"><ele>36.0</ele><time>2026-04-25T09:53:27Z</time></trkpt><trkpt lat="43.96999774573657" lon="12.59268187953513"><ele>36.0</ele><time>2026-04-25T09:53:28Z</time></trkpt><trkpt lat="43.969894686978414" lon="12.592803266968788"><ele>36.0</ele><time>2026-04-25T09:53:29Z</time></trkpt><trkpt lat="43.969798253249614" lon="12.592914524731901"><ele>36.0</ele><time>2026-04-25T09:53:30Z</time></trkpt><trkpt lat="43.96970931817271" lon="12.593022232056619"><ele>36.0</ele><time>2026-04-25T09:53:31Z</time></trkpt><trkpt lat="43.96962530537742" lon="12.5931253154865"><ele>36.0</ele><time>2026-04-25T09:53:32Z</time></trkpt><trkpt lat="43.9695404178928" lon="12.593224086680669"><ele>36.0</ele><time>2026-04-25T09:53:33Z</time></trkpt><trkpt lat="43.96945594724934" lon="12.593321501054497"><ele>36.0</ele><time>2026-04-25T09:53:34Z</time></trkpt><trkpt lat="43.96937016243245" lon="12.593422585174535"><ele>36.0</ele><time>2026-04-25T09:53:35.001Z</time></trkpt><trkpt lat="43.969283761162515" lon="12.593527237114024"><ele>36.0</ele><time>2026-04-25T09:53:36.001Z</time></trkpt><trkpt lat="43.969199218736" lon="12.593634409246645"><ele>36.0</ele><time>2026-04-25T09:53:37.001Z</time></trkpt><trkpt lat="43.96911301790277" lon="12.593740749277998"><ele>36.25</ele><time>2026-04-25T09:53:38.001Z</time></trkpt><trkpt lat="43.96904165202803" lon="12.593873956884918"><ele>36.5</ele><time>2026-04-25T09:53:39.001Z</time></trkpt><trkpt lat="43.96896515232939" lon="12.593999832945043"><ele>36.75</ele><time>2026-04-25T09:53:40.001Z</time></trkpt><trkpt lat="43.968896676431434" lon="12.594133937740501"><ele>37.0</ele><time>2026-04-25T09:53:41.001Z</time></trkpt><trkpt lat="43.968830792581194" lon="12.59426205741044"><ele>37.0</ele><time>2026-04-25T09:53:42.001Z</time></trkpt><trkpt lat="43.96877364805773" lon="12.59436759311802"><ele>37.0</ele><time>2026-04-25T09:53:43.001Z</time></trkpt><trkpt lat="43.9687248974434" lon="12.594455221978224"><ele>37.0</ele><time>2026-04-25T09:53:44.001Z</time></trkpt><trkpt lat="43.968676250067666" lon="12.594528029106597"><ele>37.0</ele><time>2026-04-25T09:53:45.001Z</time></trkpt><trkpt lat="43.96862153961005" lon="12.59457505069299"><ele>37.0</ele><time>2026-04-25T09:53:46.001Z</time></trkpt><trkpt lat="43.96852185257014" lon="12.594658723210394"><ele>37.0</ele><time>2026-04-25T09:53:48Z</time></trkpt><trkpt lat="43.96849392708214" lon="12.594744202051233"><ele>37.0</ele><time>2026-04-25T09:53:49Z</time></trkpt><trkpt lat="43.96849656442448" lon="12.594862755383252"><ele>37.0</ele><time>2026-04-25T09:53:50Z</time></trkpt><trkpt lat="43.96851345016116" lon="12.595017826254175"><ele>37.0</ele><time>2026-04-25T09:53:51Z</time></trkpt><trkpt lat="43.96851322571588" lon="12.595211421020668"><ele>37.0</ele><time>2026-04-25T09:53:52Z</time></trkpt><trkpt lat="43.96854026083522" lon="12.595425141011441"><ele>37.333333333333336</ele><time>2026-04-25T09:53:53Z</time></trkpt><trkpt lat="43.968591065828235" lon="12.595649541116813"><ele>37.666666666666664</ele><time>2026-04-25T09:53:54Z</time></trkpt><trkpt lat="43.968653250163484" lon="12.595890368318582"><ele>38.0</ele><time>2026-04-25T09:53:55Z</time></trkpt><trkpt lat="43.96873029696493" lon="12.596169451484286"><ele>39.0</ele><time>2026-04-25T09:53:56Z</time></trkpt><trkpt lat="43.9688121813439" lon="12.596471360493345"><ele>40.0</ele><time>2026-04-25T09:53:57Z</time></trkpt><trkpt lat="43.96888516648273" lon="12.59674154195503"><ele>41.0</ele><time>2026-04-25T09:53:58Z</time></trkpt><trkpt lat="43.96890694752798" lon="12.596985256788756"><ele>42.75</ele><time>2026-04-25T09:53:59Z</time></trkpt><trkpt lat="43.968932101244164" lon="12.597197439875135"><ele>44.5</ele><time>2026-04-25T09:54:00Z</time></trkpt><trkpt lat="43.968936249042784" lon="12.597374719856603"><ele>46.25</ele><time>2026-04-25T09:54:01Z</time></trkpt><trkpt lat="43.968926899194294" lon="12.59754189325288"><ele>48.0</ele><time>2026-04-25T09:54:02Z</time></trkpt><trkpt lat="43.96883158975581" lon="12.59769488732142"><ele>50.0</ele><time>2026-04-25T09:54:03Z</time></trkpt><trkpt lat="43.96873234807346" lon="12.597887292000507"><ele>52.0</ele><time>2026-04-25T09:54:04Z</time></trkpt><trkpt lat="43.96863065706032" lon="12.598107325161939"><ele>54.0</ele><time>2026-04-25T09:54:05Z</time></trkpt><trkpt lat="43.96852146809529" lon="12.598304139749967"><ele>54.0</ele><time>2026-04-25T09:54:06Z</time></trkpt><trkpt lat="43.96841031629038" lon="12.598481898033318"><ele>54.0</ele><time>2026-04-25T09:54:07Z</time></trkpt><trkpt lat="43.96831236668494" lon="12.598668341103696"><ele>54.0</ele><time>2026-04-25T09:54:08Z</time></trkpt><trkpt lat="43.968179816343344" lon="12.598820467386926"><ele>59.0</ele><time>2026-04-25T09:54:09Z</time></trkpt><trkpt lat="43.968037896898764" lon="12.598964093009858"><ele>64.0</ele><time>2026-04-25T09:54:10Z</time></trkpt><trkpt lat="43.96790649183837" lon="12.59910634277238"><ele>69.0</ele><time>2026-04-25T09:54:11Z</time></trkpt><trkpt lat="43.96777777837085" lon="12.59924372234821"><ele>69.0</ele><time>2026-04-25T09:54:12Z</time></trkpt><trkpt lat="43.967657677370916" lon="12.599366902421094"><ele>69.0</ele><time>2026-04-25T09:54:13Z</time></trkpt><trkpt lat="43.96755236898474" lon="12.59947570147814"><ele>69.0</ele><time>2026-04-25T09:54:14Z</time></trkpt><trkpt lat="43.96745179951733" lon="12.599576584637472"><ele>69.0</ele><time>2026-04-25T09:54:15Z</time></trkpt><trkpt lat="43.96735811807593" lon="12.59966760554368"><ele>71.6</ele><time>2026-04-25T09:54:16Z</time></trkpt><trkpt lat="43.96728467666822" lon="12.599761375328242"><ele>74.2</ele><time>2026-04-25T09:54:17Z</time></trkpt><trkpt lat="43.96724475060222" lon="12.599870039097757"><ele>76.8</ele><time>2026-04-25T09:54:18Z</time></trkpt><trkpt lat="43.96722105652154" lon="12.599988429217017"><ele>79.39999999999999</ele><time>2026-04-25T09:54:19Z</time></trkpt><trkpt lat="43.967278977667085" lon="12.600131523679506"><ele>82.0</ele><time>2026-04-25T09:54:20Z</time></trkpt><trkpt lat="43.96734722037121" lon="12.600275281218623"><ele>83.0</ele><time>2026-04-25T09:54:21Z</time></trkpt><trkpt lat="43.96743194618518" lon="12.600420243213874"><ele>84.0</ele><time>2026-04-25T09:54:22Z</time></trkpt><trkpt lat="43.96750879129723" lon="12.600581141194656"><ele>85.0</ele><time>2026-04-25T09:54:23Z</time></trkpt><trkpt lat="43.967575901453216" lon="12.600729031672754"><ele>86.0</ele><time>2026-04-25T09:54:24Z</time></trkpt><trkpt lat="43.96761107813699" lon="12.600882860225358"><ele>86.0</ele><time>2026-04-25T09:54:25Z</time></trkpt><trkpt lat="43.96766257225642" lon="12.601013680940843"><ele>86.0</ele><time>2026-04-25T09:54:26Z</time></trkpt><trkpt lat="43.9677107419693" lon="12.601136254332031"><ele>86.0</ele><time>2026-04-25T09:54:27Z</time></trkpt><trkpt lat="43.96775127973971" lon="12.601245146961542"><ele>86.0</ele><time>2026-04-25T09:54:28Z</time></trkpt><trkpt lat="43.967778643413595" lon="12.601341880125391"><ele>86.0</ele><time>2026-04-25T09:54:29Z</time></trkpt><trkpt lat="43.967795186357996" lon="12.601457306002919"><ele>86.19999999999999</ele><time>2026-04-25T09:54:31Z</time></trkpt><trkpt lat="43.96781509399953" lon="12.601555131440348"><ele>86.39999999999999</ele><time>2026-04-25T09:54:35Z</time></trkpt><trkpt lat="43.96796843205757" lon="12.601555473519758"><ele>86.6</ele><time>2026-04-25T09:54:36Z</time></trkpt><trkpt lat="43.968047503968776" lon="12.60156877996721"><ele>86.8</ele><time>2026-04-25T09:54:37Z</time></trkpt><trkpt lat="43.9681210563832" lon="12.601619572577489"><ele>87.0</ele><time>2026-04-25T09:54:38Z</time></trkpt><trkpt lat="43.96818935452471" lon="12.601645812463303"><ele>87.0</ele><time>2026-04-25T09:54:39Z</time></trkpt><trkpt lat="43.96829037919157" lon="12.60168462574151"><ele>87.0</ele><time>2026-04-25T09:54:41Z</time></trkpt><trkpt lat="43.968366663474825" lon="12.601721293373537"><ele>87.0</ele><time>2026-04-25T09:54:46Z</time></trkpt><trkpt lat="43.968452164126866" lon="12.601753718853594"><ele>87.0</ele><time>2026-04-25T09:54:52Z</time></trkpt><trkpt lat="43.968478182058384" lon="12.601863388563327"><ele>87.0</ele><time>2026-04-25T09:54:54Z</time></trkpt><trkpt lat="43.96850390225875" lon="12.601993241423008"><ele>86.5</ele><time>2026-04-25T09:54:56Z</time></trkpt><trkpt lat="43.96854836323922" lon="12.602055508850441"><ele>86.0</ele><time>2026-04-25T09:54:57Z</time></trkpt><trkpt lat="43.968637404807126" lon="12.602039612162285"><ele>85.5</ele><time>2026-04-25T09:54:58Z</time></trkpt><trkpt lat="43.96869141840573" lon="12.601953639166792"><ele>85.0</ele><time>2026-04-25T09:54:59Z</time></trkpt><trkpt lat="43.96876044401458" lon="12.60191044681594"><ele>84.5</ele><time>2026-04-25T09:55:00Z</time></trkpt><trkpt lat="43.96883776707097" lon="12.601906518713939"><ele>84.0</ele><time>2026-04-25T09:55:01Z</time></trkpt><trkpt lat="43.96890137240279" lon="12.601922061832662"><ele>84.0</ele><time>2026-04-25T09:55:02Z</time></trkpt><trkpt lat="43.96896465767448" lon="12.601952864260129"><ele>84.0</ele><time>2026-04-25T09:55:03Z</time></trkpt><trkpt lat="43.96902429534216" lon="12.601996427597404"><ele>84.0</ele><time>2026-04-25T09:55:04Z</time></trkpt><trkpt lat="43.96913886831234" lon="12.602080300761958"><ele>84.0</ele><time>2026-04-25T09:55:06Z</time></trkpt><trkpt lat="43.96920702091112" lon="12.602129488649387"><ele>84.0</ele><time>2026-04-25T09:55:07Z</time></trkpt><trkpt lat="43.96928778786132" lon="12.602173844438257"><ele>84.0</ele><time>2026-04-25T09:55:08Z</time></trkpt><trkpt lat="43.969369471859125" lon="12.602208415335538"><ele>83.83333333333333</ele><time>2026-04-25T09:55:09Z</time></trkpt><trkpt lat="43.96943361546335" lon="12.602292994261484"><ele>83.66666666666667</ele><time>2026-04-25T09:55:10Z</time></trkpt><trkpt lat="43.96952129801788" lon="12.602336586940568"><ele>83.5</ele><time>2026-04-25T09:55:11Z</time></trkpt><trkpt lat="43.969607091631666" lon="12.60237901174381"><ele>83.33333333333334</ele><time>2026-04-25T09:55:12Z</time></trkpt><trkpt lat="43.969675137513484" lon="12.602412450370794"><ele>83.16666666666667</ele><time>2026-04-25T09:55:13Z</time></trkpt><trkpt lat="43.96976793688305" lon="12.602465289059007"><ele>83.0</ele><time>2026-04-25T09:55:15Z</time></trkpt><trkpt lat="43.969779502613655" lon="12.602562377689837"><ele>83.0</ele><time>2026-04-25T09:55:16Z</time></trkpt><trkpt lat="43.96974420682808" lon="12.602702521134024"><ele>83.0</ele><time>2026-04-25T09:55:17Z</time></trkpt><trkpt lat="43.96971579545824" lon="12.60286645130546"><ele>83.0</ele><time>2026-04-25T09:55:18Z</time></trkpt><trkpt lat="43.96968852852026" lon="12.603027903341413"><ele>83.0</ele><time>2026-04-25T09:55:19Z</time></trkpt><trkpt lat="43.969661075960396" lon="12.603192937892793"><ele>81.75</ele><time>2026-04-25T09:55:20Z</time></trkpt><trkpt lat="43.96963966422263" lon="12.60337874911611"><ele>80.5</ele><time>2026-04-25T09:55:21Z</time></trkpt><trkpt lat="43.96960528180641" lon="12.60356996277222"><ele>79.25</ele><time>2026-04-25T09:55:22Z</time></trkpt><trkpt lat="43.96956669541343" lon="12.603775425765868"><ele>78.0</ele><time>2026-04-25T09:55:23Z</time></trkpt><trkpt lat="43.96952451348386" lon="12.603990716269495"><ele>77.0</ele><time>2026-04-25T09:55:24Z</time></trkpt><trkpt lat="43.969482591000016" lon="12.604204762813627"><ele>76.0</ele><time>2026-04-25T09:55:25Z</time></trkpt><trkpt lat="43.96944406067005" lon="12.604416647949606"><ele>75.0</ele><time>2026-04-25T09:55:26Z</time></trkpt><trkpt lat="43.96940309878898" lon="12.604626544367294"><ele>72.75</ele><time>2026-04-25T09:55:27Z</time></trkpt><trkpt lat="43.9693644486105" lon="12.604832676079402"><ele>70.5</ele><time>2026-04-25T09:55:28Z</time></trkpt><trkpt lat="43.96932966135425" lon="12.605028914842844"><ele>68.25</ele><time>2026-04-25T09:55:29Z</time></trkpt><trkpt lat="43.96930263140548" lon="12.605225622215155"><ele>66.0</ele><time>2026-04-25T09:55:30Z</time></trkpt><trkpt lat="43.96929925209771" lon="12.605423184375775"><ele>63.0</ele><time>2026-04-25T09:55:31Z</time></trkpt><trkpt lat="43.96932297988489" lon="12.605620967963652"><ele>60.0</ele><time>2026-04-25T09:55:32Z</time></trkpt><trkpt lat="43.969364941226274" lon="12.605822100087686"><ele>57.0</ele><time>2026-04-25T09:55:33Z</time></trkpt><trkpt lat="43.96942314912039" lon="12.606031158188207"><ele>54.33333333333333</ele><time>2026-04-25T09:55:34Z</time></trkpt><trkpt lat="43.96946675495845" lon="12.606245880376814"><ele>51.666666666666664</ele><time>2026-04-25T09:55:35.001Z</time></trkpt><trkpt lat="43.96952123013287" lon="12.606457972629505"><ele>49.0</ele><time>2026-04-25T09:55:36.001Z</time></trkpt><trkpt lat="43.96957688907154" lon="12.606669588488252"><ele>49.0</ele><time>2026-04-25T09:55:37.001Z</time></trkpt><trkpt lat="43.96964627866268" lon="12.606877128650323"><ele>49.0</ele><time>2026-04-25T09:55:38.001Z</time></trkpt><trkpt lat="43.969699246481824" lon="12.6070988282133"><ele>49.0</ele><time>2026-04-25T09:55:39.001Z</time></trkpt><trkpt lat="43.96975547911414" lon="12.607325000239891"><ele>46.666666666666664</ele><time>2026-04-25T09:55:40.001Z</time></trkpt><trkpt lat="43.9697909116657" lon="12.607569731813989"><ele>44.33333333333333</ele><time>2026-04-25T09:55:41.001Z</time></trkpt><trkpt lat="43.96983557622978" lon="12.607815431262821"><ele>42.0</ele><time>2026-04-25T09:55:42.001Z</time></trkpt><trkpt lat="43.969870485646624" lon="12.608055711069998"><ele>38.666666666666664</ele><time>2026-04-25T09:55:43.001Z</time></trkpt><trkpt lat="43.96990182656152" lon="12.608296434103266"><ele>35.33333333333333</ele><time>2026-04-25T09:55:44.001Z</time></trkpt><trkpt lat="43.969948905038436" lon="12.608531292303375"><ele>32.0</ele><time>2026-04-25T09:55:45.001Z</time></trkpt><trkpt lat="43.96997766075551" lon="12.608766932807095"><ele>30.666666666666664</ele><time>2026-04-25T09:55:46.001Z</time></trkpt><trkpt lat="43.970004690592944" lon="12.609001478597396"><ele>29.333333333333336</ele><time>2026-04-25T09:55:47.001Z</time></trkpt><trkpt lat="43.97003333373115" lon="12.609230995782516"><ele>28.0</ele><time>2026-04-25T09:55:48.001Z</time></trkpt><trkpt lat="43.970062968905566" lon="12.6094529780424"><ele>28.75</ele><time>2026-04-25T09:55:49.001Z</time></trkpt><trkpt lat="43.9700922209664" lon="12.60966050523985"><ele>29.5</ele><time>2026-04-25T09:55:50.001Z</time></trkpt><trkpt lat="43.970124276052054" lon="12.609844993154587"><ele>30.25</ele><time>2026-04-25T09:55:51.001Z</time></trkpt><trkpt lat="43.97017808293661" lon="12.610007386910912"><ele>31.0</ele><time>2026-04-25T09:55:52.001Z</time></trkpt><trkpt lat="43.97026196757527" lon="12.610134858345825"><ele>31.0</ele><time>2026-04-25T09:55:53Z</time></trkpt><trkpt lat="43.97037119221512" lon="12.610232771870217"><ele>31.0</ele><time>2026-04-25T09:55:54Z</time></trkpt><trkpt lat="43.97047711493795" lon="12.610334140868357"><ele>31.0</ele><time>2026-04-25T09:55:55Z</time></trkpt><trkpt lat="43.97054075143225" lon="12.610472950238409"><ele>31.0</ele><time>2026-04-25T09:55:56Z</time></trkpt><trkpt lat="43.97058618855055" lon="12.610653538744769"><ele>31.25</ele><time>2026-04-25T09:55:57Z</time></trkpt><trkpt lat="43.970614606698255" lon="12.610841384926033"><ele>31.5</ele><time>2026-04-25T09:55:58Z</time></trkpt><trkpt lat="43.970609301874326" lon="12.611044451106778"><ele>31.75</ele><time>2026-04-25T09:55:59Z</time></trkpt><trkpt lat="43.97061061554549" lon="12.61125970725289"><ele>32.0</ele><time>2026-04-25T09:56:00Z</time></trkpt><trkpt lat="43.97061120305688" lon="12.611492521273254"><ele>32.0</ele><time>2026-04-25T09:56:01Z</time></trkpt><trkpt lat="43.97058244003566" lon="12.61173665592122"><ele>32.0</ele><time>2026-04-25T09:56:02Z</time></trkpt><trkpt lat="43.97055353186916" lon="12.611998602829843"><ele>32.0</ele><time>2026-04-25T09:56:03Z</time></trkpt><trkpt lat="43.970526003353974" lon="12.612263255193783"><ele>31.666666666666664</ele><time>2026-04-25T09:56:04Z</time></trkpt><trkpt lat="43.97048371296826" lon="12.612522088093566"><ele>31.333333333333336</ele><time>2026-04-25T09:56:05Z</time></trkpt><trkpt lat="43.970454885779965" lon="12.61278929605239"><ele>31.0</ele><time>2026-04-25T09:56:06Z</time></trkpt><trkpt lat="43.97042764087832" lon="12.613058469694206"><ele>32.0</ele><time>2026-04-25T09:56:07Z</time></trkpt><trkpt lat="43.970400212400634" lon="12.613329747259481"><ele>33.0</ele><time>2026-04-25T09:56:08Z</time></trkpt><trkpt lat="43.97037205132954" lon="12.613608270448307"><ele>34.0</ele><time>2026-04-25T09:56:09Z</time></trkpt><trkpt lat="43.97034438461793" lon="12.613886191003736"><ele>35.66666666666667</ele><time>2026-04-25T09:56:10Z</time></trkpt><trkpt lat="43.970318015734634" lon="12.614150780397807"><ele>37.333333333333336</ele><time>2026-04-25T09:56:11Z</time></trkpt><trkpt lat="43.97029135388703" lon="12.614418309441247"><ele>39.0</ele><time>2026-04-25T09:56:12Z</time></trkpt><trkpt lat="43.97026456518165" lon="12.61468749805417"><ele>39.333333333333336</ele><time>2026-04-25T09:56:13Z</time></trkpt><trkpt lat="43.97023782357977" lon="12.61495683701035"><ele>39.66666666666667</ele><time>2026-04-25T09:56:14Z</time></trkpt><trkpt lat="43.97021144250477" lon="12.615221379574509"><ele>40.0</ele><time>2026-04-25T09:56:15Z</time></trkpt><trkpt lat="43.97018497976605" lon="12.615479267767352"><ele>42.0</ele><time>2026-04-25T09:56:16Z</time></trkpt><trkpt lat="43.97015939403011" lon="12.615728609286283"><ele>44.0</ele><time>2026-04-25T09:56:17Z</time></trkpt><trkpt lat="43.970133978132374" lon="12.615967099750765"><ele>46.0</ele><time>2026-04-25T09:56:18Z</time></trkpt><trkpt lat="43.970109708974014" lon="12.616200539944758"><ele>48.333333333333336</ele><time>2026-04-25T09:56:19Z</time></trkpt><trkpt lat="43.97008529982704" lon="12.616435326662367"><ele>50.66666666666667</ele><time>2026-04-25T09:56:20Z</time></trkpt><trkpt lat="43.97006125490915" lon="12.616666609925124"><ele>53.0</ele><time>2026-04-25T09:56:21Z</time></trkpt><trkpt lat="43.9700396835696" lon="12.616874160122848"><ele>54.2</ele><time>2026-04-25T09:56:22Z</time></trkpt><trkpt lat="43.97002039689654" lon="12.617058828724593"><ele>55.4</ele><time>2026-04-25T09:56:23Z</time></trkpt><trkpt lat="43.97000364761849" lon="12.617219201950522"><ele>56.60000000000001</ele><time>2026-04-25T09:56:24Z</time></trkpt><trkpt lat="43.96998819888602" lon="12.617372968743908"><ele>57.800000000000004</ele><time>2026-04-25T09:56:25Z</time></trkpt><trkpt lat="43.969977076874635" lon="12.61748430804122"><ele>59.0</ele><time>2026-04-25T09:56:26Z</time></trkpt><trkpt lat="43.96997012963602" lon="12.617572521069402"><ele>59.00000000000001</ele><time>2026-04-25T09:56:27Z</time></trkpt><trkpt lat="43.96994346150629" lon="12.617653811739888"><ele>59.0</ele><time>2026-04-25T09:56:28Z</time></trkpt><trkpt lat="43.96991553145847" lon="12.617732523341015"><ele>59.0</ele><time>2026-04-25T09:56:29Z</time></trkpt><trkpt lat="43.969953987990564" lon="12.617869876279629"><ele>59.0</ele><time>2026-04-25T09:56:31Z</time></trkpt><trkpt lat="43.970017381602666" lon="12.617906656793345"><ele>59.00000000000001</ele><time>2026-04-25T09:56:32Z</time></trkpt><trkpt lat="43.970106315666854" lon="12.617921694723124"><ele>59.0</ele><time>2026-04-25T09:56:33Z</time></trkpt><trkpt lat="43.97019971618539" lon="12.617932065904988"><ele>59.75</ele><time>2026-04-25T09:56:34Z</time></trkpt><trkpt lat="43.9703015936615" lon="12.617976805461668"><ele>60.5</ele><time>2026-04-25T09:56:35Z</time></trkpt><trkpt lat="43.97042626649819" lon="12.61800557237123"><ele>61.25</ele><time>2026-04-25T09:56:36Z</time></trkpt><trkpt lat="43.97055669256059" lon="12.61803146149865"><ele>62.0</ele><time>2026-04-25T09:56:37Z</time></trkpt><trkpt lat="43.97067676731754" lon="12.618034557354543"><ele>62.0</ele><time>2026-04-25T09:56:38Z</time></trkpt><trkpt lat="43.970801850057654" lon="12.618067430092507"><ele>62.0</ele><time>2026-04-25T09:56:39Z</time></trkpt><trkpt lat="43.9709357924141" lon="12.618100928257261"><ele>62.0</ele><time>2026-04-25T09:56:40Z</time></trkpt><trkpt lat="43.971077029995875" lon="12.618132894509577"><ele>62.0</ele><time>2026-04-25T09:56:41Z</time></trkpt><trkpt lat="43.97122525802489" lon="12.618162257721265"><ele>61.333333333333336</ele><time>2026-04-25T09:56:42Z</time></trkpt><trkpt lat="43.9713796300456" lon="12.618196763647928"><ele>60.66666666666667</ele><time>2026-04-25T09:56:43Z</time></trkpt><trkpt lat="43.971528919618756" lon="12.618227433838337"><ele>60.0</ele><time>2026-04-25T09:56:44Z</time></trkpt><trkpt lat="43.97168814126072" lon="12.61825951594491"><ele>61.0</ele><time>2026-04-25T09:56:45Z</time></trkpt><trkpt lat="43.971856035109454" lon="12.618294880075746"><ele>62.0</ele><time>2026-04-25T09:56:46Z</time></trkpt><trkpt lat="43.97202665585399" lon="12.618332488848433"><ele>63.0</ele><time>2026-04-25T09:56:47Z</time></trkpt><trkpt lat="43.972199081236546" lon="12.618372282876626"><ele>63.0</ele><time>2026-04-25T09:56:48Z</time></trkpt><trkpt lat="43.97236339866427" lon="12.618411883952254"><ele>63.0</ele><time>2026-04-25T09:56:49Z</time></trkpt><trkpt lat="43.972517040826325" lon="12.618445588064704"><ele>63.0</ele><time>2026-04-25T09:56:50Z</time></trkpt><trkpt lat="43.97266978881991" lon="12.618481818694784"><ele>62.0</ele><time>2026-04-25T09:56:51Z</time></trkpt><trkpt lat="43.97282040719223" lon="12.618524687186907"><ele>61.0</ele><time>2026-04-25T09:56:52Z</time></trkpt><trkpt lat="43.9729727162166" lon="12.618577924812332"><ele>60.0</ele><time>2026-04-25T09:56:53Z</time></trkpt><trkpt lat="43.973123429535605" lon="12.618644780276105"><ele>60.33333333333333</ele><time>2026-04-25T09:56:54Z</time></trkpt><trkpt lat="43.97328152582303" lon="12.618714293015257"><ele>60.666666666666664</ele><time>2026-04-25T09:56:55Z</time></trkpt><trkpt lat="43.97344298452226" lon="12.618788209853829"><ele>61.0</ele><time>2026-04-25T09:56:56Z</time></trkpt><trkpt lat="43.97361161431676" lon="12.618863856084491"><ele>61.0</ele><time>2026-04-25T09:56:57Z</time></trkpt><trkpt lat="43.973782718633856" lon="12.618940371322356"><ele>61.0</ele><time>2026-04-25T09:56:58Z</time></trkpt><trkpt lat="43.97396035182779" lon="12.61901970725528"><ele>61.0</ele><time>2026-04-25T09:56:59Z</time></trkpt><trkpt lat="43.97413115162626" lon="12.619096176112578"><ele>62.0</ele><time>2026-04-25T09:57:00Z</time></trkpt><trkpt lat="43.97429524007744" lon="12.61917194740653"><ele>63.0</ele><time>2026-04-25T09:57:01Z</time></trkpt><trkpt lat="43.97444768105702" lon="12.619239068996055"><ele>64.0</ele><time>2026-04-25T09:57:02Z</time></trkpt><trkpt lat="43.974590820373" lon="12.619302409220372"><ele>64.0</ele><time>2026-04-25T09:57:03Z</time></trkpt><trkpt lat="43.97470936773086" lon="12.619375043762973"><ele>64.0</ele><time>2026-04-25T09:57:04Z</time></trkpt><trkpt lat="43.97482785859808" lon="12.61939113285747"><ele>64.0</ele><time>2026-04-25T09:57:05Z</time></trkpt><trkpt lat="43.974934839454384" lon="12.619431529944109"><ele>64.0</ele><time>2026-04-25T09:57:06Z</time></trkpt><trkpt lat="43.97504174064804" lon="12.619406445134906"><ele>65.2</ele><time>2026-04-25T09:57:07Z</time></trkpt><trkpt lat="43.97514602282085" lon="12.619393602292135"><ele>66.4</ele><time>2026-04-25T09:57:08Z</time></trkpt><trkpt lat="43.97524472327156" lon="12.61937675194449"><ele>67.6</ele><time>2026-04-25T09:57:09Z</time></trkpt><trkpt lat="43.97534443264365" lon="12.619355180392674"><ele>68.8</ele><time>2026-04-25T09:57:10Z</time></trkpt><trkpt lat="43.97544698928064" lon="12.619355850666604"><ele>70.0</ele><time>2026-04-25T09:57:11Z</time></trkpt><trkpt lat="43.97554588971951" lon="12.619377225361555"><ele>70.0</ele><time>2026-04-25T09:57:12Z</time></trkpt><trkpt lat="43.975648572758615" lon="12.61939852789343"><ele>70.0</ele><time>2026-04-25T09:57:13Z</time></trkpt><trkpt lat="43.975750379467456" lon="12.619426439771152"><ele>70.0</ele><time>2026-04-25T09:57:14Z</time></trkpt><trkpt lat="43.975843099039174" lon="12.619460074235176"><ele>70.0</ele><time>2026-04-25T09:57:15Z</time></trkpt><trkpt lat="43.97593714308064" lon="12.619486837406725"><ele>70.0</ele><time>2026-04-25T09:57:16Z</time></trkpt><trkpt lat="43.976031900379546" lon="12.61953463456265"><ele>68.4</ele><time>2026-04-25T09:57:17Z</time></trkpt><trkpt lat="43.976132099696784" lon="12.619558108679255"><ele>66.8</ele><time>2026-04-25T09:57:18Z</time></trkpt><trkpt lat="43.97623238245708" lon="12.619581025216538"><ele>65.2</ele><time>2026-04-25T09:57:19Z</time></trkpt><trkpt lat="43.97632613437729" lon="12.619600236524459"><ele>63.6</ele><time>2026-04-25T09:57:20Z</time></trkpt><trkpt lat="43.976414211876865" lon="12.61961702809129"><ele>62.0</ele><time>2026-04-25T09:57:21Z</time></trkpt><trkpt lat="43.97649452829511" lon="12.619634205652847"><ele>62.00000000000001</ele><time>2026-04-25T09:57:22Z</time></trkpt><trkpt lat="43.976569434171665" lon="12.619650900182906"><ele>62.0</ele><time>2026-04-25T09:57:23Z</time></trkpt><trkpt lat="43.976641017799544" lon="12.619676396264666"><ele>62.0</ele><time>2026-04-25T09:57:24Z</time></trkpt><trkpt lat="43.97671740227657" lon="12.619711288521415"><ele>62.0</ele><time>2026-04-25T09:57:25Z</time></trkpt><trkpt lat="43.976800932047254" lon="12.6197542783871"><ele>62.00000000000001</ele><time>2026-04-25T09:57:26Z</time></trkpt><trkpt lat="43.97688772005738" lon="12.619806350277774"><ele>62.0</ele><time>2026-04-25T09:57:27Z</time></trkpt><trkpt lat="43.97698792312649" lon="12.619839122254453"><ele>62.8</ele><time>2026-04-25T09:57:28Z</time></trkpt><trkpt lat="43.977085231235414" lon="12.619902357709128"><ele>63.6</ele><time>2026-04-25T09:57:29Z</time></trkpt><trkpt lat="43.97718849839525" lon="12.619965317666194"><ele>64.39999999999999</ele><time>2026-04-25T09:57:30Z</time></trkpt><trkpt lat="43.97727984361401" lon="12.620022131485085"><ele>65.2</ele><time>2026-04-25T09:57:31.001Z</time></trkpt><trkpt lat="43.977364489175216" lon="12.620067601941917"><ele>66.0</ele><time>2026-04-25T09:57:32.001Z</time></trkpt><trkpt lat="43.977449676815425" lon="12.620109720374984"><ele>65.2</ele><time>2026-04-25T09:57:33.001Z</time></trkpt><trkpt lat="43.977533322993104" lon="12.620151743522383"><ele>64.39999999999999</ele><time>2026-04-25T09:57:34.001Z</time></trkpt><trkpt lat="43.97761884022371" lon="12.620183597070103"><ele>63.6</ele><time>2026-04-25T09:57:35.001Z</time></trkpt><trkpt lat="43.97770610218802" lon="12.620217925897474"><ele>62.8</ele><time>2026-04-25T09:57:36.001Z</time></trkpt><trkpt lat="43.97779925373085" lon="12.620255161249156"><ele>62.0</ele><time>2026-04-25T09:57:37.001Z</time></trkpt><trkpt lat="43.977896164539935" lon="12.620298262290207"><ele>61.50000000000001</ele><time>2026-04-25T09:57:38.001Z</time></trkpt><trkpt lat="43.97798644927628" lon="12.620341758332922"><ele>61.0</ele><time>2026-04-25T09:57:39.001Z</time></trkpt><trkpt lat="43.978062565553834" lon="12.620388522063836"><ele>60.5</ele><time>2026-04-25T09:57:40.001Z</time></trkpt><trkpt lat="43.978135028512" lon="12.620436272875601"><ele>60.0</ele><time>2026-04-25T09:57:41.001Z</time></trkpt><trkpt lat="43.97819154184597" lon="12.620490817049065"><ele>59.50000000000001</ele><time>2026-04-25T09:57:42.001Z</time></trkpt><trkpt lat="43.978249011799896" lon="12.620620633544096"><ele>59.0</ele><time>2026-04-25T09:57:44.001Z</time></trkpt><trkpt lat="43.97829399281736" lon="12.6207039525235"><ele>59.00000000000001</ele><time>2026-04-25T09:57:45.001Z</time></trkpt><trkpt lat="43.978323630442304" lon="12.620797374031307"><ele>59.0</ele><time>2026-04-25T09:57:46.001Z</time></trkpt><trkpt lat="43.97836394568973" lon="12.620893439008173"><ele>59.0</ele><time>2026-04-25T09:57:47.001Z</time></trkpt><trkpt lat="43.978423455266345" lon="12.620977402550794"><ele>59.0</ele><time>2026-04-25T09:57:48.001Z</time></trkpt><trkpt lat="43.97849864352583" lon="12.621057807455408"><ele>59.00000000000001</ele><time>2026-04-25T09:57:49.001Z</time></trkpt><trkpt lat="43.97858496678703" lon="12.621155631048588"><ele>59.0</ele><time>2026-04-25T09:57:50.001Z</time></trkpt><trkpt lat="43.97868493152941" lon="12.621262986161955"><ele>58.25</ele><time>2026-04-25T09:57:51.001Z</time></trkpt><trkpt lat="43.978794780379324" lon="12.621380318024672"><ele>57.5</ele><time>2026-04-25T09:57:52.001Z</time></trkpt><trkpt lat="43.978907427239065" lon="12.62150569606437"><ele>56.75</ele><time>2026-04-25T09:57:53.001Z</time></trkpt><trkpt lat="43.97901454966101" lon="12.621620026792376"><ele>56.0</ele><time>2026-04-25T09:57:54.001Z</time></trkpt><trkpt lat="43.979112040937665" lon="12.62172910712427"><ele>55.4</ele><time>2026-04-25T09:57:55.001Z</time></trkpt><trkpt lat="43.97920161189328" lon="12.62182961003303"><ele>54.8</ele><time>2026-04-25T09:57:56.001Z</time></trkpt><trkpt lat="43.97927894234466" lon="12.621932112366252"><ele>54.199999999999996</ele><time>2026-04-25T09:57:57.001Z</time></trkpt><trkpt lat="43.9793685594025" lon="12.622020122015146"><ele>53.599999999999994</ele><time>2026-04-25T09:57:58.001Z</time></trkpt><trkpt lat="43.97946284028742" lon="12.622102085642464"><ele>53.0</ele><time>2026-04-25T09:57:59Z</time></trkpt><trkpt lat="43.97956694967697" lon="12.62216755604343"><ele>51.599999999999994</ele><time>2026-04-25T09:58:00Z</time></trkpt><trkpt lat="43.97966850105508" lon="12.62222290722791"><ele>50.199999999999996</ele><time>2026-04-25T09:58:01Z</time></trkpt><trkpt lat="43.979763326916235" lon="12.622301786503538"><ele>48.8</ele><time>2026-04-25T09:58:02Z</time></trkpt><trkpt lat="43.97984966684765" lon="12.622354653832287"><ele>47.4</ele><time>2026-04-25T09:58:03Z</time></trkpt><trkpt lat="43.979907978775266" lon="12.622406308108426"><ele>46.0</ele><time>2026-04-25T09:58:04Z</time></trkpt><trkpt lat="43.97995490820389" lon="12.622483751234586"><ele>46.0</ele><time>2026-04-25T09:58:05Z</time></trkpt><trkpt lat="43.97995567797639" lon="12.622581416126224"><ele>46.0</ele><time>2026-04-25T09:58:06Z</time></trkpt><trkpt lat="43.97993141306116" lon="12.622702353576432"><ele>46.0</ele><time>2026-04-25T09:58:07Z</time></trkpt><trkpt lat="43.9798918158249" lon="12.622852874262623"><ele>46.0</ele><time>2026-04-25T09:58:08Z</time></trkpt><trkpt lat="43.97984197476972" lon="12.623001054759493"><ele>46.0</ele><time>2026-04-25T09:58:09Z</time></trkpt><trkpt lat="43.9797885161808" lon="12.623140441138355"><ele>44.0</ele><time>2026-04-25T09:58:10Z</time></trkpt><trkpt lat="43.97972780394407" lon="12.623290166344695"><ele>42.0</ele><time>2026-04-25T09:58:11Z</time></trkpt><trkpt lat="43.979661309475745" lon="12.62344901844961"><ele>40.0</ele><time>2026-04-25T09:58:12Z</time></trkpt><trkpt lat="43.979593590655405" lon="12.623607819689106"><ele>38.0</ele><time>2026-04-25T09:58:13Z</time></trkpt><trkpt lat="43.979535276138265" lon="12.623774796199731"><ele>36.5</ele><time>2026-04-25T09:58:14Z</time></trkpt><trkpt lat="43.97946324425929" lon="12.623929471310761"><ele>35.0</ele><time>2026-04-25T09:58:15Z</time></trkpt><trkpt lat="43.97938975376093" lon="12.624084193661584"><ele>33.5</ele><time>2026-04-25T09:58:16Z</time></trkpt><trkpt lat="43.97931922095851" lon="12.62424218868176"><ele>32.0</ele><time>2026-04-25T09:58:17Z</time></trkpt><trkpt lat="43.97925579654838" lon="12.624400574514075"><ele>31.75</ele><time>2026-04-25T09:58:18Z</time></trkpt><trkpt lat="43.97919685042122" lon="12.624554626424722"><ele>31.5</ele><time>2026-04-25T09:58:19Z</time></trkpt><trkpt lat="43.97919528712699" lon="12.624742184944113"><ele>31.25</ele><time>2026-04-25T09:58:20Z</time></trkpt><trkpt lat="43.97915724165298" lon="12.624933428988133"><ele>31.0</ele><time>2026-04-25T09:58:21Z</time></trkpt><trkpt lat="43.97912442872256" lon="12.625136509192766"><ele>29.333333333333336</ele><time>2026-04-25T09:58:22Z</time></trkpt><trkpt lat="43.97909054944598" lon="12.625344485083346"><ele>27.666666666666664</ele><time>2026-04-25T09:58:23Z</time></trkpt><trkpt lat="43.979080687648484" lon="12.625562933221987"><ele>26.0</ele><time>2026-04-25T09:58:24Z</time></trkpt><trkpt lat="43.979055666452766" lon="12.625776375463857"><ele>26.0</ele><time>2026-04-25T09:58:25Z</time></trkpt><trkpt lat="43.97902832897005" lon="12.62599578623846"><ele>26.0</ele><time>2026-04-25T09:58:26Z</time></trkpt><trkpt lat="43.9789969939631" lon="12.626215895919204"><ele>26.0</ele><time>2026-04-25T09:58:27Z</time></trkpt><trkpt lat="43.97895334906298" lon="12.626421596409443"><ele>25.0</ele><time>2026-04-25T09:58:28Z</time></trkpt><trkpt lat="43.97889863674898" lon="12.626605274645224"><ele>24.0</ele><time>2026-04-25T09:58:29Z</time></trkpt><trkpt lat="43.97884750333432" lon="12.626788511186822"><ele>23.0</ele><time>2026-04-25T09:58:30Z</time></trkpt><trkpt lat="43.97879400095983" lon="12.626973381392782"><ele>22.0</ele><time>2026-04-25T09:58:31Z</time></trkpt><trkpt lat="43.97873807951368" lon="12.627162668815487"><ele>21.5</ele><time>2026-04-25T09:58:32Z</time></trkpt><trkpt lat="43.978681174276446" lon="12.627350880624114"><ele>21.0</ele><time>2026-04-25T09:58:33Z</time></trkpt><trkpt lat="43.97862734646979" lon="12.627540983287874"><ele>20.5</ele><time>2026-04-25T09:58:34Z</time></trkpt><trkpt lat="43.97857650263322" lon="12.627731163925205"><ele>20.0</ele><time>2026-04-25T09:58:35Z</time></trkpt><trkpt lat="43.97852823869708" lon="12.627917450465288"><ele>19.75</ele><time>2026-04-25T09:58:36Z</time></trkpt><trkpt lat="43.97848408862283" lon="12.628088820285996"><ele>19.5</ele><time>2026-04-25T09:58:37Z</time></trkpt><trkpt lat="43.97843175990507" lon="12.628244006359733"><ele>19.25</ele><time>2026-04-25T09:58:38Z</time></trkpt><trkpt lat="43.97840334738911" lon="12.62839155297503"><ele>19.0</ele><time>2026-04-25T09:58:39Z</time></trkpt><trkpt lat="43.97836983073859" lon="12.62851808155173"><ele>19.5</ele><time>2026-04-25T09:58:40Z</time></trkpt><trkpt lat="43.9783150340517" lon="12.628628208380825"><ele>20.0</ele><time>2026-04-25T09:58:41Z</time></trkpt><trkpt lat="43.97824827912788" lon="12.62874978289979"><ele>20.5</ele><time>2026-04-25T09:58:42Z</time></trkpt><trkpt lat="43.978153159956896" lon="12.62885156039767"><ele>21.0</ele><time>2026-04-25T09:58:43Z</time></trkpt><trkpt lat="43.97805380773761" lon="12.628960548831715"><ele>21.0</ele><time>2026-04-25T09:58:44Z</time></trkpt><trkpt lat="43.9779610284093" lon="12.62907255628878"><ele>21.0</ele><time>2026-04-25T09:58:45Z</time></trkpt><trkpt lat="43.97786962500122" lon="12.629178033599926"><ele>21.0</ele><time>2026-04-25T09:58:46Z</time></trkpt><trkpt lat="43.97773680759741" lon="12.629305246308032"><ele>21.0</ele><time>2026-04-25T09:58:47Z</time></trkpt><trkpt lat="43.977598468426" lon="12.629470656878766"><ele>21.666666666666668</ele><time>2026-04-25T09:58:48Z</time></trkpt><trkpt lat="43.977475957286885" lon="12.629653494117088"><ele>22.333333333333336</ele><time>2026-04-25T09:58:49Z</time></trkpt><trkpt lat="43.977356913359955" lon="12.62979543519312"><ele>23.0</ele><time>2026-04-25T09:58:50Z</time></trkpt><trkpt lat="43.977283506763385" lon="12.629972391523154"><ele>23.0</ele><time>2026-04-25T09:58:51Z</time></trkpt><trkpt lat="43.97720983900196" lon="12.630114235144047"><ele>23.0</ele><time>2026-04-25T09:58:52Z</time></trkpt><trkpt lat="43.977153596755706" lon="12.63024279008207"><ele>23.0</ele><time>2026-04-25T09:58:53Z</time></trkpt><trkpt lat="43.97711944726225" lon="12.630369993401473"><ele>23.0</ele><time>2026-04-25T09:58:54Z</time></trkpt><trkpt lat="43.9770834312411" lon="12.630475626591787"><ele>23.0</ele><time>2026-04-25T09:58:55Z</time></trkpt><trkpt lat="43.97708912837001" lon="12.630582786514706"><ele>22.75</ele><time>2026-04-25T09:58:56Z</time></trkpt><trkpt lat="43.977167933338514" lon="12.6306700088449"><ele>22.5</ele><time>2026-04-25T09:58:57Z</time></trkpt><trkpt lat="43.97725641981463" lon="12.630777699484401"><ele>22.25</ele><time>2026-04-25T09:58:58Z</time></trkpt><trkpt lat="43.977350087431496" lon="12.630921262512958"><ele>22.0</ele><time>2026-04-25T09:58:59Z</time></trkpt><trkpt lat="43.97745825406965" lon="12.631074284464969"><ele>22.0</ele><time>2026-04-25T09:59:00Z</time></trkpt><trkpt lat="43.977560081812996" lon="12.63122001577898"><ele>22.0</ele><time>2026-04-25T09:59:01Z</time></trkpt><trkpt lat="43.97765096967812" lon="12.631350055962589"><ele>22.0</ele><time>2026-04-25T09:59:02Z</time></trkpt><trkpt lat="43.977744450963655" lon="12.63148289819669"><ele>22.0</ele><time>2026-04-25T09:59:03Z</time></trkpt><trkpt lat="43.9778396022512" lon="12.63161895125632"><ele>22.0</ele><time>2026-04-25T09:59:04Z</time></trkpt><trkpt lat="43.97793050882569" lon="12.631753904390223"><ele>22.0</ele><time>2026-04-25T09:59:05Z</time></trkpt><trkpt lat="43.978015276542415" lon="12.631890336468588"><ele>22.0</ele><time>2026-04-25T09:59:06Z</time></trkpt><trkpt lat="43.97809178427796" lon="12.632016027697983"><ele>22.0</ele><time>2026-04-25T09:59:07Z</time></trkpt><trkpt lat="43.97817450365968" lon="12.63213541174311"><ele>22.25</ele><time>2026-04-25T09:59:08Z</time></trkpt><trkpt lat="43.97826798316774" lon="12.632256371354334"><ele>22.5</ele><time>2026-04-25T09:59:09Z</time></trkpt><trkpt lat="43.97836887959831" lon="12.632376661538975"><ele>22.75</ele><time>2026-04-25T09:59:10Z</time></trkpt><trkpt lat="43.97847680245692" lon="12.632498572247437"><ele>23.0</ele><time>2026-04-25T09:59:11Z</time></trkpt><trkpt lat="43.978600040150376" lon="12.632595451026255"><ele>23.0</ele><time>2026-04-25T09:59:12Z</time></trkpt><trkpt lat="43.97869823315191" lon="12.632708085533384"><ele>23.0</ele><time>2026-04-25T09:59:13Z</time></trkpt><trkpt lat="43.978801269682585" lon="12.632799394706527"><ele>23.0</ele><time>2026-04-25T09:59:14Z</time></trkpt><trkpt lat="43.97889584043543" lon="12.632904931646264"><ele>23.0</ele><time>2026-04-25T09:59:15Z</time></trkpt><trkpt lat="43.97899233275098" lon="12.63302130777909"><ele>23.0</ele><time>2026-04-25T09:59:16Z</time></trkpt><trkpt lat="43.979086325171416" lon="12.633149840621"><ele>23.0</ele><time>2026-04-25T09:59:17Z</time></trkpt><trkpt lat="43.979174339817845" lon="12.633293892065682"><ele>23.0</ele><time>2026-04-25T09:59:18Z</time></trkpt><trkpt lat="43.97925383389533" lon="12.63344279717388"><ele>23.0</ele><time>2026-04-25T09:59:19Z</time></trkpt><trkpt lat="43.9793223525239" lon="12.633578780256395"><ele>23.0</ele><time>2026-04-25T09:59:20Z</time></trkpt><trkpt lat="43.97938334646008" lon="12.633707812563081"><ele>23.0</ele><time>2026-04-25T09:59:21Z</time></trkpt><trkpt lat="43.97946849887601" lon="12.633795327684844"><ele>23.0</ele><time>2026-04-25T09:59:22Z</time></trkpt><trkpt lat="43.97952155857229" lon="12.633895415060016"><ele>23.0</ele><time>2026-04-25T09:59:23Z</time></trkpt><trkpt lat="43.979532293470115" lon="12.634078317339068"><ele>23.0</ele><time>2026-04-25T09:59:25Z</time></trkpt><trkpt lat="43.979459617991154" lon="12.634217586535735"><ele>23.0</ele><time>2026-04-25T09:59:26Z</time></trkpt><trkpt lat="43.97939388002978" lon="12.634432703546633"><ele>23.0</ele><time>2026-04-25T09:59:27Z</time></trkpt><trkpt lat="43.979336365410916" lon="12.634698045616659"><ele>23.0</ele><time>2026-04-25T09:59:28Z</time></trkpt><trkpt lat="43.97928145580257" lon="12.634980502300925"><ele>23.0</ele><time>2026-04-25T09:59:29Z</time></trkpt><trkpt lat="43.97922234931771" lon="12.635289328638363"><ele>23.0</ele><time>2026-04-25T09:59:30Z</time></trkpt><trkpt lat="43.97918127669374" lon="12.63558378123115"><ele>23.0</ele><time>2026-04-25T09:59:31Z</time></trkpt><trkpt lat="43.97913140136321" lon="12.6358803569286"><ele>23.333333333333336</ele><time>2026-04-25T09:59:32Z</time></trkpt><trkpt lat="43.979067564332794" lon="12.636177189390281"><ele>23.666666666666668</ele><time>2026-04-25T09:59:33Z</time></trkpt><trkpt lat="43.97902505813314" lon="12.636482000794086"><ele>24.0</ele><time>2026-04-25T09:59:34Z</time></trkpt><trkpt lat="43.97898514478317" lon="12.636779852599417"><ele>24.0</ele><time>2026-04-25T09:59:35Z</time></trkpt><trkpt lat="43.97896327242959" lon="12.637059245880007"><ele>24.0</ele><time>2026-04-25T09:59:36Z</time></trkpt><trkpt lat="43.97893137996578" lon="12.637309929672988"><ele>24.0</ele><time>2026-04-25T09:59:37Z</time></trkpt><trkpt lat="43.97890038332596" lon="12.63752920137986"><ele>24.0</ele><time>2026-04-25T09:59:38Z</time></trkpt><trkpt lat="43.97887215049745" lon="12.63773781146474"><ele>24.0</ele><time>2026-04-25T09:59:39Z</time></trkpt><trkpt lat="43.97883960071888" lon="12.637936795325"><ele>24.0</ele><time>2026-04-25T09:59:40Z</time></trkpt><trkpt lat="43.9787702107649" lon="12.638126901868448"><ele>23.666666666666668</ele><time>2026-04-25T09:59:41Z</time></trkpt><trkpt lat="43.97868727101876" lon="12.638321715946157"><ele>23.333333333333336</ele><time>2026-04-25T09:59:42Z</time></trkpt><trkpt lat="43.978598219396815" lon="12.638527508988867"><ele>23.0</ele><time>2026-04-25T09:59:43Z</time></trkpt><trkpt lat="43.97852694038801" lon="12.638729974143729"><ele>22.599999999999998</ele><time>2026-04-25T09:59:44Z</time></trkpt><trkpt lat="43.97845956040611" lon="12.638872970718554"><ele>22.2</ele><time>2026-04-25T09:59:45Z</time></trkpt><trkpt lat="43.97840796764719" lon="12.638975666163914"><ele>21.8</ele><time>2026-04-25T09:59:46Z</time></trkpt><trkpt lat="43.97831299732282" lon="12.639099844392746"><ele>21.4</ele><time>2026-04-25T09:59:48Z</time></trkpt><trkpt lat="43.97826580137177" lon="12.639172529131127"><ele>21.0</ele><time>2026-04-25T09:59:49Z</time></trkpt><trkpt lat="43.97823036050398" lon="12.639253742965241"><ele>21.0</ele><time>2026-04-25T09:59:50Z</time></trkpt><trkpt lat="43.97826138736914" lon="12.639367990822215"><ele>21.0</ele><time>2026-04-25T09:59:51.001Z</time></trkpt><trkpt lat="43.978365060867574" lon="12.639411937431277"><ele>21.0</ele><time>2026-04-25T09:59:52.001Z</time></trkpt><trkpt lat="43.97847112751151" lon="12.639481594354764"><ele>21.0</ele><time>2026-04-25T09:59:53.001Z</time></trkpt><trkpt lat="43.97858627533301" lon="12.63960986030106"><ele>21.5</ele><time>2026-04-25T09:59:54.001Z</time></trkpt><trkpt lat="43.97869421331181" lon="12.63974599751307"><ele>22.0</ele><time>2026-04-25T09:59:55.001Z</time></trkpt><trkpt lat="43.97877765635415" lon="12.639886586891146"><ele>22.5</ele><time>2026-04-25T09:59:56.001Z</time></trkpt><trkpt lat="43.97886692594426" lon="12.640016136585054"><ele>23.0</ele><time>2026-04-25T09:59:57.001Z</time></trkpt><trkpt lat="43.97894802014739" lon="12.640152576324175"><ele>23.0</ele><time>2026-04-25T09:59:58.001Z</time></trkpt><trkpt lat="43.979026456277005" lon="12.640287563703914"><ele>23.0</ele><time>2026-04-25T09:59:59.001Z</time></trkpt><trkpt lat="43.97910773809481" lon="12.640387578633133"><ele>23.0</ele><time>2026-04-25T10:00:00.001Z</time></trkpt><trkpt lat="43.97917054682535" lon="12.640492728646805"><ele>23.0</ele><time>2026-04-25T10:00:01.001Z</time></trkpt><trkpt lat="43.979231589634885" lon="12.640585514026727"><ele>23.0</ele><time>2026-04-25T10:00:02.001Z</time></trkpt><trkpt lat="43.97929948525306" lon="12.640659492341463"><ele>22.599999999999998</ele><time>2026-04-25T10:00:03.001Z</time></trkpt><trkpt lat="43.97936368573671" lon="12.640731479469038"><ele>22.2</ele><time>2026-04-25T10:00:04.001Z</time></trkpt><trkpt lat="43.97942066086633" lon="12.640825097216947"><ele>21.8</ele><time>2026-04-25T10:00:05Z</time></trkpt><trkpt lat="43.97950783850589" lon="12.640903622652383"><ele>21.4</ele><time>2026-04-25T10:00:06Z</time></trkpt><trkpt lat="43.97960558239058" lon="12.640958662314619"><ele>21.0</ele><time>2026-04-25T10:00:07Z</time></trkpt><trkpt lat="43.979704865809836" lon="12.640949343586923"><ele>21.0</ele><time>2026-04-25T10:00:08Z</time></trkpt><trkpt lat="43.979795123689286" lon="12.640965252851327"><ele>21.0</ele><time>2026-04-25T10:00:09Z</time></trkpt><trkpt lat="43.97988786326011" lon="12.641025950152647"><ele>21.0</ele><time>2026-04-25T10:00:10Z</time></trkpt><trkpt lat="43.979974217054064" lon="12.641147840188669"><ele>21.0</ele><time>2026-04-25T10:00:11Z</time></trkpt><trkpt lat="43.98005157994959" lon="12.641333431690454"><ele>20.0</ele><time>2026-04-25T10:00:12Z</time></trkpt><trkpt lat="43.980163700449886" lon="12.6415122325909"><ele>19.0</ele><time>2026-04-25T10:00:13Z</time></trkpt><trkpt lat="43.98028433203613" lon="12.641680599088193"><ele>18.0</ele><time>2026-04-25T10:00:14Z</time></trkpt><trkpt lat="43.98041723272989" lon="12.641849670708538"><ele>18.0</ele><time>2026-04-25T10:00:15Z</time></trkpt><trkpt lat="43.98054442981664" lon="12.642038193323522"><ele>18.0</ele><time>2026-04-25T10:00:16Z</time></trkpt><trkpt lat="43.98067265931146" lon="12.642217995621014"><ele>18.0</ele><time>2026-04-25T10:00:17Z</time></trkpt><trkpt lat="43.98081441884039" lon="12.642374079641153"><ele>18.0</ele><time>2026-04-25T10:00:18Z</time></trkpt><trkpt lat="43.98097499045921" lon="12.642505410839407"><ele>18.0</ele><time>2026-04-25T10:00:19Z</time></trkpt><trkpt lat="43.98113386018112" lon="12.642652403729725"><ele>18.0</ele><time>2026-04-25T10:00:20Z</time></trkpt><trkpt lat="43.9813014494259" lon="12.642793228065177"><ele>18.0</ele><time>2026-04-25T10:00:21Z</time></trkpt><trkpt lat="43.98146874409976" lon="12.642933804870353"><ele>18.0</ele><time>2026-04-25T10:00:22Z</time></trkpt><trkpt lat="43.98163125011152" lon="12.643070357779955"><ele>18.0</ele><time>2026-04-25T10:00:23Z</time></trkpt><trkpt lat="43.981792697009055" lon="12.643205853285227"><ele>18.0</ele><time>2026-04-25T10:00:24Z</time></trkpt><trkpt lat="43.981951262103244" lon="12.643338066029632"><ele>18.0</ele><time>2026-04-25T10:00:25Z</time></trkpt><trkpt lat="43.98208700941438" lon="12.64345020617627"><ele>18.0</ele><time>2026-04-25T10:00:26Z</time></trkpt><trkpt lat="43.98220477864387" lon="12.643546735491107"><ele>18.0</ele><time>2026-04-25T10:00:27Z</time></trkpt><trkpt lat="43.982327228109824" lon="12.643624308357149"><ele>18.0</ele><time>2026-04-25T10:00:28Z</time></trkpt><trkpt lat="43.982458784606536" lon="12.64365980898365"><ele>18.0</ele><time>2026-04-25T10:00:29Z</time></trkpt><trkpt lat="43.98259137900511" lon="12.643620317602418"><ele>18.0</ele><time>2026-04-25T10:00:30Z</time></trkpt><trkpt lat="43.98272737745908" lon="12.643603390597972"><ele>18.25</ele><time>2026-04-25T10:00:31Z</time></trkpt><trkpt lat="43.98286476008964" lon="12.64356822154265"><ele>18.5</ele><time>2026-04-25T10:00:32Z</time></trkpt><trkpt lat="43.98299919018293" lon="12.64352652632937"><ele>18.75</ele><time>2026-04-25T10:00:33Z</time></trkpt><trkpt lat="43.98310137811856" lon="12.643508912611237"><ele>19.0</ele><time>2026-04-25T10:00:34Z</time></trkpt><trkpt lat="43.983201604862124" lon="12.643498001067531"><ele>19.0</ele><time>2026-04-25T10:00:35Z</time></trkpt><trkpt lat="43.983301747230435" lon="12.643549660137323"><ele>19.0</ele><time>2026-04-25T10:00:36Z</time></trkpt><trkpt lat="43.9834196723288" lon="12.64364072909532"><ele>19.0</ele><time>2026-04-25T10:00:37Z</time></trkpt><trkpt lat="43.98355000758751" lon="12.643749319032594"><ele>19.0</ele><time>2026-04-25T10:00:38Z</time></trkpt><trkpt lat="43.98369242734012" lon="12.643863765634828"><ele>19.666666666666664</ele><time>2026-04-25T10:00:39Z</time></trkpt><trkpt lat="43.98382399171153" lon="12.643998567848698"><ele>20.333333333333332</ele><time>2026-04-25T10:00:40Z</time></trkpt><trkpt lat="43.98396129978196" lon="12.64410444487823"><ele>21.0</ele><time>2026-04-25T10:00:41Z</time></trkpt><trkpt lat="43.98410480251104" lon="12.644215239535102"><ele>20.666666666666668</ele><time>2026-04-25T10:00:42Z</time></trkpt><trkpt lat="43.9842493007658" lon="12.64432592865815"><ele>20.333333333333336</ele><time>2026-04-25T10:00:43Z</time></trkpt><trkpt lat="43.984392321178746" lon="12.644433314358276"><ele>20.0</ele><time>2026-04-25T10:00:44Z</time></trkpt><trkpt lat="43.98451147182435" lon="12.644517965960587"><ele>20.8</ele><time>2026-04-25T10:00:45Z</time></trkpt><trkpt lat="43.98461116500015" lon="12.644559579661115"><ele>21.6</ele><time>2026-04-25T10:00:46Z</time></trkpt><trkpt lat="43.9846817297377" lon="12.644627457914602"><ele>22.4</ele><time>2026-04-25T10:00:47Z</time></trkpt><trkpt lat="43.98473011421025" lon="12.644716978327628"><ele>23.2</ele><time>2026-04-25T10:00:48Z</time></trkpt><trkpt lat="43.98475202129327" lon="12.644837419793424"><ele>24.0</ele><time>2026-04-25T10:00:49Z</time></trkpt><trkpt lat="43.98472879288228" lon="12.644969472844302"><ele>24.0</ele><time>2026-04-25T10:00:50Z</time></trkpt><trkpt lat="43.984675145427275" lon="12.64513598208135"><ele>24.0</ele><time>2026-04-25T10:00:51Z</time></trkpt><trkpt lat="43.98460285056747" lon="12.645320816620877"><ele>24.0</ele><time>2026-04-25T10:00:52Z</time></trkpt><trkpt lat="43.98451349713288" lon="12.64549020135219"><ele>24.0</ele><time>2026-04-25T10:00:53Z</time></trkpt><trkpt lat="43.984419925203056" lon="12.64560976373843"><ele>25.166666666666668</ele><time>2026-04-25T10:00:54Z</time></trkpt><trkpt lat="43.98434350590364" lon="12.645701946890428"><ele>26.333333333333336</ele><time>2026-04-25T10:00:55Z</time></trkpt><trkpt lat="43.984295217613756" lon="12.645802812465044"><ele>27.5</ele><time>2026-04-25T10:00:56Z</time></trkpt><trkpt lat="43.984244604398135" lon="12.64592036961967"><ele>28.666666666666668</ele><time>2026-04-25T10:00:57Z</time></trkpt><trkpt lat="43.9841964835846" lon="12.646026611236856"><ele>29.833333333333336</ele><time>2026-04-25T10:00:58Z</time></trkpt><trkpt lat="43.98418485767133" lon="12.646125641201793"><ele>31.0</ele><time>2026-04-25T10:00:59Z</time></trkpt><trkpt lat="43.984213557950156" lon="12.646210757800192"><ele>32.0</ele><time>2026-04-25T10:01:00Z</time></trkpt><trkpt lat="43.98427377714227" lon="12.64627366092389"><ele>33.0</ele><time>2026-04-25T10:01:01Z</time></trkpt><trkpt lat="43.98435960216533" lon="12.64630268078616"><ele>34.0</ele><time>2026-04-25T10:01:02Z</time></trkpt><trkpt lat="43.984467008953956" lon="12.646344783487178"><ele>35.0</ele><time>2026-04-25T10:01:03Z</time></trkpt><trkpt lat="43.984578492288705" lon="12.646446018765326"><ele>36.0</ele><time>2026-04-25T10:01:04Z</time></trkpt><trkpt lat="43.984689109009565" lon="12.646580297200815"><ele>36.0</ele><time>2026-04-25T10:01:05Z</time></trkpt><trkpt lat="43.98480158149105" lon="12.646711429620245"><ele>36.0</ele><time>2026-04-25T10:01:06Z</time></trkpt><trkpt lat="43.98491231884237" lon="12.646836437960056"><ele>36.0</ele><time>2026-04-25T10:01:07Z</time></trkpt><trkpt lat="43.985023857612134" lon="12.64696926541308"><ele>36.0</ele><time>2026-04-25T10:01:08Z</time></trkpt><trkpt lat="43.985122994881806" lon="12.647089972684164"><ele>36.8</ele><time>2026-04-25T10:01:09Z</time></trkpt><trkpt lat="43.98520863721934" lon="12.647195351251604"><ele>37.6</ele><time>2026-04-25T10:01:10Z</time></trkpt><trkpt lat="43.9852785612754" lon="12.647287213316767"><ele>38.4</ele><time>2026-04-25T10:01:11Z</time></trkpt><trkpt lat="43.985329530954886" lon="12.64738979808582"><ele>39.2</ele><time>2026-04-25T10:01:12Z</time></trkpt><trkpt lat="43.98536849895957" lon="12.647499205177219"><ele>40.0</ele><time>2026-04-25T10:01:13Z</time></trkpt><trkpt lat="43.985403671508145" lon="12.64761353880768"><ele>40.0</ele><time>2026-04-25T10:01:14Z</time></trkpt><trkpt lat="43.98545504464987" lon="12.647717361666698"><ele>40.0</ele><time>2026-04-25T10:01:15Z</time></trkpt><trkpt lat="43.98553728319171" lon="12.647784701269766"><ele>40.0</ele><time>2026-04-25T10:01:16Z</time></trkpt><trkpt lat="43.98563631247958" lon="12.647822281010553"><ele>40.0</ele><time>2026-04-25T10:01:17Z</time></trkpt><trkpt lat="43.98572728345391" lon="12.647876102853868"><ele>40.0</ele><time>2026-04-25T10:01:18Z</time></trkpt><trkpt lat="43.98579958894451" lon="12.64794223861113"><ele>40.8</ele><time>2026-04-25T10:01:19Z</time></trkpt><trkpt lat="43.98586562657666" lon="12.648002518606186"><ele>41.6</ele><time>2026-04-25T10:01:20Z</time></trkpt><trkpt lat="43.98594203188687" lon="12.648080814828438"><ele>42.400000000000006</ele><time>2026-04-25T10:01:21Z</time></trkpt><trkpt lat="43.98602871354481" lon="12.648176354414204"><ele>43.2</ele><time>2026-04-25T10:01:22Z</time></trkpt><trkpt lat="43.98613167450137" lon="12.648284793670717"><ele>44.0</ele><time>2026-04-25T10:01:23Z</time></trkpt><trkpt lat="43.98624127745152" lon="12.648410358665704"><ele>44.0</ele><time>2026-04-25T10:01:24Z</time></trkpt><trkpt lat="43.986352245951686" lon="12.64854265504487"><ele>44.0</ele><time>2026-04-25T10:01:25Z</time></trkpt><trkpt lat="43.98643875256884" lon="12.648653925845421"><ele>44.0</ele><time>2026-04-25T10:01:26Z</time></trkpt><trkpt lat="43.98650094324334" lon="12.648759344989546"><ele>44.0</ele><time>2026-04-25T10:01:27Z</time></trkpt><trkpt lat="43.986541444189555" lon="12.648866987887557"><ele>44.400000000000006</ele><time>2026-04-25T10:01:28Z</time></trkpt><trkpt lat="43.986555006689095" lon="12.6489737901041"><ele>44.8</ele><time>2026-04-25T10:01:29Z</time></trkpt><trkpt lat="43.98655409311566" lon="12.649079348871217"><ele>45.2</ele><time>2026-04-25T10:01:30Z</time></trkpt><trkpt lat="43.98657037404302" lon="12.649177298302202"><ele>45.599999999999994</ele><time>2026-04-25T10:01:31Z</time></trkpt><trkpt lat="43.98666536909111" lon="12.649284545347722"><ele>46.0</ele><time>2026-04-25T10:01:33Z</time></trkpt><trkpt lat="43.986787362362065" lon="12.649261718024059"><ele>46.833333333333336</ele><time>2026-04-25T10:01:35Z</time></trkpt><trkpt lat="43.98684547198435" lon="12.649200205203375"><ele>47.66666666666667</ele><time>2026-04-25T10:01:36Z</time></trkpt><trkpt lat="43.986894572094066" lon="12.649121884482822"><ele>48.5</ele><time>2026-04-25T10:01:37Z</time></trkpt><trkpt lat="43.986951072470276" lon="12.6490433538148"><ele>49.333333333333336</ele><time>2026-04-25T10:01:38Z</time></trkpt><trkpt lat="43.98700334608344" lon="12.64895364589963"><ele>50.166666666666664</ele><time>2026-04-25T10:01:39Z</time></trkpt><trkpt lat="43.9871008216094" lon="12.64894471601652"><ele>51.0</ele><time>2026-04-25T10:01:40Z</time></trkpt><trkpt lat="43.98717092033004" lon="12.648923223915723"><ele>51.0</ele><time>2026-04-25T10:01:41Z</time></trkpt><trkpt lat="43.98723712772257" lon="12.648927479142207"><ele>51.0</ele><time>2026-04-25T10:01:42Z</time></trkpt><trkpt lat="43.987312465753455" lon="12.64896934716922"><ele>51.0</ele><time>2026-04-25T10:01:43Z</time></trkpt><trkpt lat="43.987380041797266" lon="12.649054424042532"><ele>51.0</ele><time>2026-04-25T10:01:44Z</time></trkpt><trkpt lat="43.987422726428804" lon="12.649199008172234"><ele>51.0</ele><time>2026-04-25T10:01:45Z</time></trkpt><trkpt lat="43.98749426017625" lon="12.649325409911482"><ele>51.333333333333336</ele><time>2026-04-25T10:01:46Z</time></trkpt><trkpt lat="43.98753713870181" lon="12.649435086917983"><ele>51.66666666666667</ele><time>2026-04-25T10:01:47.001Z</time></trkpt><trkpt lat="43.987582573995375" lon="12.649528952838017"><ele>52.0</ele><time>2026-04-25T10:01:48.001Z</time></trkpt><trkpt lat="43.987619019836735" lon="12.649613925110817"><ele>52.333333333333336</ele><time>2026-04-25T10:01:49.001Z</time></trkpt><trkpt lat="43.98766126406499" lon="12.649707741586566"><ele>52.66666666666667</ele><time>2026-04-25T10:01:50.001Z</time></trkpt><trkpt lat="43.987706027698785" lon="12.649816284383897"><ele>53.0</ele><time>2026-04-25T10:01:51.001Z</time></trkpt><trkpt lat="43.98775161861707" lon="12.649930563846336"><ele>53.0</ele><time>2026-04-25T10:01:52.001Z</time></trkpt><trkpt lat="43.98779906238458" lon="12.650037209499864"><ele>53.0</ele><time>2026-04-25T10:01:53.001Z</time></trkpt><trkpt lat="43.98785145585257" lon="12.65014683083078"><ele>53.0</ele><time>2026-04-25T10:01:54.001Z</time></trkpt><trkpt lat="43.987897436136244" lon="12.650260213944584"><ele>53.0</ele><time>2026-04-25T10:01:55.001Z</time></trkpt><trkpt lat="43.98794281175504" lon="12.650386339169676"><ele>53.0</ele><time>2026-04-25T10:01:56.001Z</time></trkpt><trkpt lat="43.98799145704448" lon="12.650518148348564"><ele>54.25</ele><time>2026-04-25T10:01:57.001Z</time></trkpt><trkpt lat="43.98803867227293" lon="12.650652238700708"><ele>55.5</ele><time>2026-04-25T10:01:58.001Z</time></trkpt><trkpt lat="43.988089242823094" lon="12.650794274868785"><ele>56.75</ele><time>2026-04-25T10:01:59.001Z</time></trkpt><trkpt lat="43.988138099278274" lon="12.6509430359316"><ele>58.0</ele><time>2026-04-25T10:02:00.001Z</time></trkpt><trkpt lat="43.988189297001895" lon="12.651092141284192"><ele>58.2</ele><time>2026-04-25T10:02:01.001Z</time></trkpt><trkpt lat="43.98824034538538" lon="12.65122861057864"><ele>58.4</ele><time>2026-04-25T10:02:02.001Z</time></trkpt><trkpt lat="43.988292361788716" lon="12.65135808577971"><ele>58.60000000000001</ele><time>2026-04-25T10:02:03.001Z</time></trkpt><trkpt lat="43.988342111723696" lon="12.651483156826346"><ele>58.800000000000004</ele><time>2026-04-25T10:02:04.001Z</time></trkpt><trkpt lat="43.98839252373187" lon="12.651594195473452"><ele>59.0</ele><time>2026-04-25T10:02:05.001Z</time></trkpt><trkpt lat="43.98843283032654" lon="12.651704950085962"><ele>58.0</ele><time>2026-04-25T10:02:06.001Z</time></trkpt><trkpt lat="43.988476818112886" lon="12.651812977213746"><ele>57.00000000000001</ele><time>2026-04-25T10:02:07.001Z</time></trkpt><trkpt lat="43.98852025174326" lon="12.651924434501241"><ele>56.00000000000001</ele><time>2026-04-25T10:02:08.001Z</time></trkpt><trkpt lat="43.988560006373724" lon="12.652014928474058"><ele>55.0</ele><time>2026-04-25T10:02:09.001Z</time></trkpt><trkpt lat="43.988592836970064" lon="12.652138078280647"><ele>54.0</ele><time>2026-04-25T10:02:11Z</time></trkpt><trkpt lat="43.9885378883757" lon="12.652265825918654"><ele>53.400000000000006</ele><time>2026-04-25T10:02:13Z</time></trkpt><trkpt lat="43.98846724553491" lon="12.652323692346407"><ele>52.800000000000004</ele><time>2026-04-25T10:02:14Z</time></trkpt><trkpt lat="43.98839396689561" lon="12.65240283852189"><ele>52.2</ele><time>2026-04-25T10:02:15Z</time></trkpt><trkpt lat="43.98832378468433" lon="12.652492238080175"><ele>51.599999999999994</ele><time>2026-04-25T10:02:16Z</time></trkpt><trkpt lat="43.98824869565074" lon="12.652578040012376"><ele>51.0</ele><time>2026-04-25T10:02:17Z</time></trkpt><trkpt lat="43.988176555932824" lon="12.652676678354569"><ele>52.199999999999996</ele><time>2026-04-25T10:02:18Z</time></trkpt><trkpt lat="43.988111675983184" lon="12.65278551871192"><ele>53.4</ele><time>2026-04-25T10:02:19Z</time></trkpt><trkpt lat="43.988056134958704" lon="12.652913006852087"><ele>54.6</ele><time>2026-04-25T10:02:20Z</time></trkpt><trkpt lat="43.988017547629866" lon="12.653050742860305"><ele>55.8</ele><time>2026-04-25T10:02:21Z</time></trkpt><trkpt lat="43.98800002964437" lon="12.653182487049353"><ele>57.0</ele><time>2026-04-25T10:02:22Z</time></trkpt><trkpt lat="43.98800411381509" lon="12.653312966515792"><ele>57.0</ele><time>2026-04-25T10:02:23Z</time></trkpt><trkpt lat="43.98803016186941" lon="12.653435921896598"><ele>57.0</ele><time>2026-04-25T10:02:24Z</time></trkpt><trkpt lat="43.988069288194595" lon="12.653560119620046"><ele>57.0</ele><time>2026-04-25T10:02:25Z</time></trkpt><trkpt lat="43.98808056374892" lon="12.653707502500119"><ele>57.0</ele><time>2026-04-25T10:02:26Z</time></trkpt><trkpt lat="43.98806462171857" lon="12.6538445422098"><ele>57.0</ele><time>2026-04-25T10:02:27Z</time></trkpt><trkpt lat="43.988035273464085" lon="12.653982804908988"><ele>57.0</ele><time>2026-04-25T10:02:28Z</time></trkpt><trkpt lat="43.987998754341" lon="12.654117184439201"><ele>57.0</ele><time>2026-04-25T10:02:29Z</time></trkpt><trkpt lat="43.98793605230499" lon="12.654254249132808"><ele>57.0</ele><time>2026-04-25T10:02:30Z</time></trkpt><trkpt lat="43.987899684443754" lon="12.654420868114507"><ele>57.0</ele><time>2026-04-25T10:02:31Z</time></trkpt><trkpt lat="43.9878509349325" lon="12.654585315849074"><ele>56.0</ele><time>2026-04-25T10:02:32Z</time></trkpt><trkpt lat="43.98778228779049" lon="12.654750982399873"><ele>55.0</ele><time>2026-04-25T10:02:33Z</time></trkpt><trkpt lat="43.98771556475387" lon="12.65495924480328"><ele>54.0</ele><time>2026-04-25T10:02:34Z</time></trkpt><trkpt lat="43.98763345359776" lon="12.655199199156623"><ele>55.0</ele><time>2026-04-25T10:02:35Z</time></trkpt><trkpt lat="43.987553470908516" lon="12.655452183421644"><ele>56.0</ele><time>2026-04-25T10:02:36Z</time></trkpt><trkpt lat="43.98746637014773" lon="12.655678478748035"><ele>57.0</ele><time>2026-04-25T10:02:37Z</time></trkpt><trkpt lat="43.987381528515236" lon="12.655905642036888"><ele>57.0</ele><time>2026-04-25T10:02:38Z</time></trkpt><trkpt lat="43.9873039355716" lon="12.656116574678972"><ele>57.0</ele><time>2026-04-25T10:02:39Z</time></trkpt><trkpt lat="43.987229970608" lon="12.656314206622358"><ele>57.0</ele><time>2026-04-25T10:02:40Z</time></trkpt><trkpt lat="43.98714948138142" lon="12.65651040187258"><ele>56.66666666666667</ele><time>2026-04-25T10:02:41Z</time></trkpt><trkpt lat="43.987060966835706" lon="12.656702769891613"><ele>56.333333333333336</ele><time>2026-04-25T10:02:42Z</time></trkpt><trkpt lat="43.986964108179414" lon="12.656887559712038"><ele>56.0</ele><time>2026-04-25T10:02:43Z</time></trkpt><trkpt lat="43.986862697587235" lon="12.657065108652391"><ele>57.0</ele><time>2026-04-25T10:02:44Z</time></trkpt><trkpt lat="43.986769302607144" lon="12.65724312486374"><ele>58.0</ele><time>2026-04-25T10:02:45Z</time></trkpt><trkpt lat="43.98668102459854" lon="12.657422884080166"><ele>59.0</ele><time>2026-04-25T10:02:46Z</time></trkpt><trkpt lat="43.986593475540815" lon="12.657603641003245"><ele>59.0</ele><time>2026-04-25T10:02:47Z</time></trkpt><trkpt lat="43.98650680378018" lon="12.657781999326515"><ele>59.0</ele><time>2026-04-25T10:02:48Z</time></trkpt><trkpt lat="43.986417998067076" lon="12.657961391092716"><ele>59.0</ele><time>2026-04-25T10:02:49Z</time></trkpt><trkpt lat="43.986330348551625" lon="12.658142301516117"><ele>58.0</ele><time>2026-04-25T10:02:50Z</time></trkpt><trkpt lat="43.98623462866546" lon="12.658326107520246"><ele>57.0</ele><time>2026-04-25T10:02:51Z</time></trkpt><trkpt lat="43.98613773035809" lon="12.658511535052346"><ele>56.0</ele><time>2026-04-25T10:02:52Z</time></trkpt><trkpt lat="43.986038660459016" lon="12.658700356503383"><ele>55.0</ele><time>2026-04-25T10:02:53Z</time></trkpt><trkpt lat="43.98593794445843" lon="12.658886688075185"><ele>54.0</ele><time>2026-04-25T10:02:54Z</time></trkpt><trkpt lat="43.98583639611734" lon="12.659070544652199"><ele>53.0</ele><time>2026-04-25T10:02:55Z</time></trkpt><trkpt lat="43.985736029356346" lon="12.659249865785894"><ele>53.5</ele><time>2026-04-25T10:02:56Z</time></trkpt><trkpt lat="43.98564198754834" lon="12.659421060055283"><ele>54.0</ele><time>2026-04-25T10:02:57Z</time></trkpt><trkpt lat="43.985551856537974" lon="12.65959034375506"><ele>54.5</ele><time>2026-04-25T10:02:58Z</time></trkpt><trkpt lat="43.98547037646211" lon="12.659738946915846"><ele>55.0</ele><time>2026-04-25T10:02:59Z</time></trkpt><trkpt lat="43.98539711721831" lon="12.659877801568253"><ele>55.0</ele><time>2026-04-25T10:03:00Z</time></trkpt><trkpt lat="43.9853303055866" lon="12.660031612116171"><ele>55.0</ele><time>2026-04-25T10:03:01Z</time></trkpt><trkpt lat="43.98530292949601" lon="12.660169635573805"><ele>55.0</ele><time>2026-04-25T10:03:02Z</time></trkpt><trkpt lat="43.98527490239993" lon="12.660314103327716"><ele>55.0</ele><time>2026-04-25T10:03:03Z</time></trkpt><trkpt lat="43.98525791209941" lon="12.660416462488827"><ele>55.0</ele><time>2026-04-25T10:03:04Z</time></trkpt><trkpt lat="43.985213976757365" lon="12.660559742819153"><ele>56.0</ele><time>2026-04-25T10:03:06Z</time></trkpt><trkpt lat="43.985187466734885" lon="12.660644122975954"><ele>57.0</ele><time>2026-04-25T10:03:08Z</time></trkpt><trkpt lat="43.985021599931805" lon="12.660703656847048"><ele>58.0</ele><time>2026-04-25T10:03:10Z</time></trkpt><trkpt lat="43.984923350396514" lon="12.660729846107591"><ele>59.0</ele><time>2026-04-25T10:03:11Z</time></trkpt><trkpt lat="43.98481110855883" lon="12.660772494751178"><ele>59.0</ele><time>2026-04-25T10:03:12Z</time></trkpt><trkpt lat="43.984690155475306" lon="12.660843992030598"><ele>59.0</ele><time>2026-04-25T10:03:13Z</time></trkpt><trkpt lat="43.98456831119347" lon="12.660926814213342"><ele>59.0</ele><time>2026-04-25T10:03:14Z</time></trkpt><trkpt lat="43.98445862714846" lon="12.661006682380599"><ele>59.0</ele><time>2026-04-25T10:03:15Z</time></trkpt><trkpt lat="43.9843696082059" lon="12.661072942176741"><ele>58.800000000000004</ele><time>2026-04-25T10:03:16Z</time></trkpt><trkpt lat="43.984306762808025" lon="12.661126553849591"><ele>58.60000000000001</ele><time>2026-04-25T10:03:17Z</time></trkpt><trkpt lat="43.984328334811735" lon="12.661329201403673"><ele>58.4</ele><time>2026-04-25T10:03:20Z</time></trkpt><trkpt lat="43.98439363677575" lon="12.661438449598139"><ele>58.2</ele><time>2026-04-25T10:03:21Z</time></trkpt><trkpt lat="43.98443960366148" lon="12.661593348499267"><ele>58.0</ele><time>2026-04-25T10:03:22Z</time></trkpt><trkpt lat="43.98444409968914" lon="12.661774470681168"><ele>57.33333333333333</ele><time>2026-04-25T10:03:23Z</time></trkpt><trkpt lat="43.98446194009282" lon="12.66196462141075"><ele>56.66666666666667</ele><time>2026-04-25T10:03:24Z</time></trkpt><trkpt lat="43.984461902606405" lon="12.662178150215802"><ele>56.0</ele><time>2026-04-25T10:03:25Z</time></trkpt><trkpt lat="43.9844550521595" lon="12.662401114760188"><ele>56.0</ele><time>2026-04-25T10:03:26Z</time></trkpt><trkpt lat="43.98444655071278" lon="12.662616971778304"><ele>56.0</ele><time>2026-04-25T10:03:27Z</time></trkpt><trkpt lat="43.98444555163686" lon="12.662838205115678"><ele>56.0</ele><time>2026-04-25T10:03:28Z</time></trkpt><trkpt lat="43.98442612728055" lon="12.663060144361902"><ele>54.66666666666667</ele><time>2026-04-25T10:03:29Z</time></trkpt><trkpt lat="43.98445235838173" lon="12.663284227049347"><ele>53.33333333333333</ele><time>2026-04-25T10:03:30Z</time></trkpt><trkpt lat="43.984465328319665" lon="12.663511087424688"><ele>52.0</ele><time>2026-04-25T10:03:31Z</time></trkpt><trkpt lat="43.98448472057524" lon="12.66374094332043"><ele>51.33333333333333</ele><time>2026-04-25T10:03:32Z</time></trkpt><trkpt lat="43.98450952444607" lon="12.663974243973827"><ele>50.66666666666667</ele><time>2026-04-25T10:03:33Z</time></trkpt><trkpt lat="43.984531333350105" lon="12.664205791796181"><ele>50.0</ele><time>2026-04-25T10:03:34Z</time></trkpt><trkpt lat="43.984547994195694" lon="12.66440391738915"><ele>50.25</ele><time>2026-04-25T10:03:35Z</time></trkpt><trkpt lat="43.98457290400059" lon="12.664587252270813"><ele>50.5</ele><time>2026-04-25T10:03:36Z</time></trkpt><trkpt lat="43.98461103220242" lon="12.664785910876528"><ele>50.75</ele><time>2026-04-25T10:03:37Z</time></trkpt><trkpt lat="43.984648941316905" lon="12.664999357468009"><ele>51.0</ele><time>2026-04-25T10:03:38Z</time></trkpt><trkpt lat="43.984688829488555" lon="12.665222596304075"><ele>50.66666666666667</ele><time>2026-04-25T10:03:39Z</time></trkpt><trkpt lat="43.98472814773923" lon="12.66544764335845"><ele>50.333333333333336</ele><time>2026-04-25T10:03:40Z</time></trkpt><trkpt lat="43.984762815270074" lon="12.665653637498497"><ele>50.0</ele><time>2026-04-25T10:03:41Z</time></trkpt><trkpt lat="43.98479501885667" lon="12.665846904601393"><ele>50.0</ele><time>2026-04-25T10:03:42Z</time></trkpt><trkpt lat="43.984832260419246" lon="12.666027009058535"><ele>50.0</ele><time>2026-04-25T10:03:43Z</time></trkpt><trkpt lat="43.98486823474292" lon="12.666195954368565"><ele>50.0</ele><time>2026-04-25T10:03:44Z</time></trkpt><trkpt lat="43.98490555874637" lon="12.66636161345791"><ele>50.0</ele><time>2026-04-25T10:03:45Z</time></trkpt><trkpt lat="43.9849381816922" lon="12.666516243030674"><ele>48.8</ele><time>2026-04-25T10:03:46.001Z</time></trkpt><trkpt lat="43.98496993312151" lon="12.666665494796275"><ele>47.6</ele><time>2026-04-25T10:03:47.001Z</time></trkpt><trkpt lat="43.98500443422993" lon="12.666795966209355"><ele>46.400000000000006</ele><time>2026-04-25T10:03:48.001Z</time></trkpt><trkpt lat="43.985055617299174" lon="12.666914019424539"><ele>45.2</ele><time>2026-04-25T10:03:49.001Z</time></trkpt><trkpt lat="43.985128801295716" lon="12.667015193697935"><ele>44.0</ele><time>2026-04-25T10:03:50.001Z</time></trkpt><trkpt lat="43.98522270968094" lon="12.667084518717495"><ele>41.400000000000006</ele><time>2026-04-25T10:03:51.001Z</time></trkpt><trkpt lat="43.98531934313295" lon="12.66710255310437"><ele>38.800000000000004</ele><time>2026-04-25T10:03:52.001Z</time></trkpt><trkpt lat="43.98541762861493" lon="12.667095061356612"><ele>36.2</ele><time>2026-04-25T10:03:53.001Z</time></trkpt><trkpt lat="43.98551303872114" lon="12.66705279323171"><ele>33.6</ele><time>2026-04-25T10:03:54.001Z</time></trkpt><trkpt lat="43.98559201858445" lon="12.666977157259293"><ele>31.0</ele><time>2026-04-25T10:03:55.001Z</time></trkpt><trkpt lat="43.98565279016618" lon="12.666868746910803"><ele>31.0</ele><time>2026-04-25T10:03:56.001Z</time></trkpt><trkpt lat="43.9857154366236" lon="12.66673917033949"><ele>31.0</ele><time>2026-04-25T10:03:57.001Z</time></trkpt><trkpt lat="43.98577429723068" lon="12.66659305127497"><ele>31.0</ele><time>2026-04-25T10:03:58.001Z</time></trkpt><trkpt lat="43.985830322174714" lon="12.666453654437001"><ele>31.0</ele><time>2026-04-25T10:03:59.001Z</time></trkpt><trkpt lat="43.98588336687696" lon="12.66633700530574"><ele>31.0</ele><time>2026-04-25T10:04:00.001Z</time></trkpt><trkpt lat="43.985933661276704" lon="12.666229557717902"><ele>29.666666666666668</ele><time>2026-04-25T10:04:01.001Z</time></trkpt><trkpt lat="43.98598902467167" lon="12.666147801800705"><ele>28.333333333333336</ele><time>2026-04-25T10:04:02.001Z</time></trkpt><trkpt lat="43.986056847348905" lon="12.666102729163319"><ele>27.0</ele><time>2026-04-25T10:04:03.001Z</time></trkpt><trkpt lat="43.98612874453957" lon="12.666102713907359"><ele>25.666666666666668</ele><time>2026-04-25T10:04:04.001Z</time></trkpt><trkpt lat="43.98620316009717" lon="12.666144883724034"><ele>24.333333333333336</ele><time>2026-04-25T10:04:05.001Z</time></trkpt><trkpt lat="43.98626721894446" lon="12.666227615123711"><ele>23.0</ele><time>2026-04-25T10:04:06.001Z</time></trkpt><trkpt lat="43.986302359407034" lon="12.666339879085784"><ele>23.0</ele><time>2026-04-25T10:04:07.001Z</time></trkpt><trkpt lat="43.98631127533653" lon="12.666486987763696"><ele>23.0</ele><time>2026-04-25T10:04:08.001Z</time></trkpt><trkpt lat="43.98631016123135" lon="12.666656701555155"><ele>23.0</ele><time>2026-04-25T10:04:09.001Z</time></trkpt><trkpt lat="43.986313715297555" lon="12.66681840168267"><ele>23.0</ele><time>2026-04-25T10:04:10.001Z</time></trkpt><trkpt lat="43.986319737978704" lon="12.666985341719464"><ele>23.25</ele><time>2026-04-25T10:04:11.001Z</time></trkpt><trkpt lat="43.98632920871239" lon="12.667153119223897"><ele>23.5</ele><time>2026-04-25T10:04:12.001Z</time></trkpt><trkpt lat="43.98634025396803" lon="12.66731313993844"><ele>23.75</ele><time>2026-04-25T10:04:13.001Z</time></trkpt><trkpt lat="43.98635640390348" lon="12.667466248272126"><ele>24.0</ele><time>2026-04-25T10:04:14.001Z</time></trkpt><trkpt lat="43.98638230721332" lon="12.667618232821725"><ele>24.0</ele><time>2026-04-25T10:04:15.001Z</time></trkpt><trkpt lat="43.98641366526988" lon="12.667766712324024"><ele>24.0</ele><time>2026-04-25T10:04:16.001Z</time></trkpt><trkpt lat="43.98645628627751" lon="12.667910226146457"><ele>24.0</ele><time>2026-04-25T10:04:17Z</time></trkpt><trkpt lat="43.98651907064981" lon="12.668047930396018"><ele>24.0</ele><time>2026-04-25T10:04:18Z</time></trkpt><trkpt lat="43.98659955326958" lon="12.668167327895631"><ele>22.8</ele><time>2026-04-25T10:04:19Z</time></trkpt><trkpt lat="43.986685629399865" lon="12.668277596347144"><ele>21.599999999999998</ele><time>2026-04-25T10:04:20Z</time></trkpt><trkpt lat="43.98677062016314" lon="12.668388943142388"><ele>20.4</ele><time>2026-04-25T10:04:21Z</time></trkpt><trkpt lat="43.98684772093613" lon="12.66849601078179"><ele>19.2</ele><time>2026-04-25T10:04:22Z</time></trkpt><trkpt lat="43.98692343942563" lon="12.66859863144914"><ele>18.0</ele><time>2026-04-25T10:04:23Z</time></trkpt><trkpt lat="43.98699865395045" lon="12.668698294052085"><ele>17.833333333333332</ele><time>2026-04-25T10:04:24Z</time></trkpt><trkpt lat="43.98706584992021" lon="12.668789998727153"><ele>17.666666666666668</ele><time>2026-04-25T10:04:25Z</time></trkpt><trkpt lat="43.98712645763816" lon="12.668878773285583"><ele>17.5</ele><time>2026-04-25T10:04:26Z</time></trkpt><trkpt lat="43.987187839981566" lon="12.668966921944968"><ele>17.333333333333336</ele><time>2026-04-25T10:04:27Z</time></trkpt><trkpt lat="43.987249231411454" lon="12.669054889861153"><ele>17.166666666666668</ele><time>2026-04-25T10:04:28Z</time></trkpt><trkpt lat="43.98730309178552" lon="12.669155070786907"><ele>17.0</ele><time>2026-04-25T10:04:29Z</time></trkpt><trkpt lat="43.98737447786571" lon="12.669240448091816"><ele>17.0</ele><time>2026-04-25T10:04:30Z</time></trkpt><trkpt lat="43.98745134773267" lon="12.669320989741134"><ele>17.0</ele><time>2026-04-25T10:04:31Z</time></trkpt><trkpt lat="43.98752533662963" lon="12.669395204041278"><ele>17.0</ele><time>2026-04-25T10:04:32Z</time></trkpt><trkpt lat="43.98759993009929" lon="12.66947006152089"><ele>17.0</ele><time>2026-04-25T10:04:33Z</time></trkpt><trkpt lat="43.98767881176962" lon="12.669534928816805"><ele>17.0</ele><time>2026-04-25T10:04:34Z</time></trkpt><trkpt lat="43.98775222091669" lon="12.669613224432709"><ele>15.8</ele><time>2026-04-25T10:04:35Z</time></trkpt><trkpt lat="43.98782620295888" lon="12.669687374289495"><ele>14.6</ele><time>2026-04-25T10:04:36Z</time></trkpt><trkpt lat="43.98789850124085" lon="12.669758752643936"><ele>13.4</ele><time>2026-04-25T10:04:37Z</time></trkpt><trkpt lat="43.98797756333724" lon="12.669832626916996"><ele>12.200000000000001</ele><time>2026-04-25T10:04:38Z</time></trkpt><trkpt lat="43.988068527203424" lon="12.669916759410693"><ele>11.0</ele><time>2026-04-25T10:04:39Z</time></trkpt><trkpt lat="43.988158849184465" lon="12.670004242408353"><ele>11.0</ele><time>2026-04-25T10:04:40Z</time></trkpt><trkpt lat="43.98824297650714" lon="12.670086746878123"><ele>11.0</ele><time>2026-04-25T10:04:41Z</time></trkpt><trkpt lat="43.988325188747794" lon="12.67016605892731"><ele>11.0</ele><time>2026-04-25T10:04:42Z</time></trkpt><trkpt lat="43.98840249912508" lon="12.67024206526659"><ele>11.0</ele><time>2026-04-25T10:04:43Z</time></trkpt><trkpt lat="43.988472405104226" lon="12.67031541135434"><ele>11.0</ele><time>2026-04-25T10:04:44Z</time></trkpt><trkpt lat="43.98853758528707" lon="12.670386311501927"><ele>10.428571428571429</ele><time>2026-04-25T10:04:45Z</time></trkpt><trkpt lat="43.98859770157981" lon="12.670448536258752"><ele>9.857142857142858</ele><time>2026-04-25T10:04:46Z</time></trkpt><trkpt lat="43.98865096226441" lon="12.670506148496068"><ele>9.285714285714285</ele><time>2026-04-25T10:04:47Z</time></trkpt><trkpt lat="43.988704455434245" lon="12.670564597448921"><ele>8.714285714285715</ele><time>2026-04-25T10:04:48Z</time></trkpt><trkpt lat="43.988754606210094" lon="12.670625655807015"><ele>8.142857142857142</ele><time>2026-04-25T10:04:49Z</time></trkpt><trkpt lat="43.9888152768235" lon="12.6706898070986"><ele>7.571428571428571</ele><time>2026-04-25T10:04:50Z</time></trkpt><trkpt lat="43.98888551046203" lon="12.670754850380833"><ele>7.0</ele><time>2026-04-25T10:04:51Z</time></trkpt><trkpt lat="43.98895614098677" lon="12.67082171897142"><ele>7.000000000000001</ele><time>2026-04-25T10:04:52Z</time></trkpt><trkpt lat="43.98902638779837" lon="12.67088808253504"><ele>7.0</ele><time>2026-04-25T10:04:53Z</time></trkpt><trkpt lat="43.98909275969533" lon="12.670957332519334"><ele>7.0</ele><time>2026-04-25T10:04:54Z</time></trkpt><trkpt lat="43.98916239157413" lon="12.671019219915644"><ele>7.0</ele><time>2026-04-25T10:04:55Z</time></trkpt><trkpt lat="43.98922996783731" lon="12.67107962990456"><ele>7.000000000000001</ele><time>2026-04-25T10:04:56Z</time></trkpt><trkpt lat="43.9892932743263" lon="12.671132775075915"><ele>7.0</ele><time>2026-04-25T10:04:57Z</time></trkpt><trkpt lat="43.989337157546416" lon="12.67119808686875"><ele>6.500000000000001</ele><time>2026-04-25T10:04:58Z</time></trkpt><trkpt lat="43.98938961186021" lon="12.671283485472642"><ele>6.0</ele><time>2026-04-25T10:05:00Z</time></trkpt><trkpt lat="43.989340772990005" lon="12.671395230186375"><ele>5.5</ele><time>2026-04-25T10:05:01Z</time></trkpt><trkpt lat="43.98929791141855" lon="12.671464086508164"><ele>5.0</ele><time>2026-04-25T10:05:02Z</time></trkpt><trkpt lat="43.989255102466636" lon="12.671540451632273"><ele>4.5</ele><time>2026-04-25T10:05:03Z</time></trkpt><trkpt lat="43.98921395184041" lon="12.671618548348503"><ele>4.0</ele><time>2026-04-25T10:05:04Z</time></trkpt><trkpt lat="43.989168772821806" lon="12.67169553426533"><ele>4.0</ele><time>2026-04-25T10:05:05Z</time></trkpt><trkpt lat="43.98912342240326" lon="12.67177102757514"><ele>3.9999999999999996</ele><time>2026-04-25T10:05:06Z</time></trkpt><trkpt lat="43.98907540078593" lon="12.671853386172888"><ele>4.0</ele><time>2026-04-25T10:05:07Z</time></trkpt><trkpt lat="43.98902920965129" lon="12.671933799288121"><ele>4.0</ele><time>2026-04-25T10:05:08Z</time></trkpt><trkpt lat="43.988984143542545" lon="12.672011217894338"><ele>3.9999999999999996</ele><time>2026-04-25T10:05:09Z</time></trkpt><trkpt lat="43.98893835529228" lon="12.672083697747993"><ele>4.0</ele><time>2026-04-25T10:05:10Z</time></trkpt><trkpt lat="43.98889681509756" lon="12.672149859309314"><ele>4.0</ele><time>2026-04-25T10:05:11Z</time></trkpt><trkpt lat="43.988841527211626" lon="12.672242294475234"><ele>4.0</ele><time>2026-04-25T10:05:13Z</time></trkpt><trkpt lat="43.98878121727419" lon="12.672329192407842"><ele>4.0</ele><time>2026-04-25T10:05:15Z</time></trkpt><trkpt lat="43.98873934449023" lon="12.67240578949964"><ele>4.0</ele><time>2026-04-25T10:05:25Z</time></trkpt><trkpt lat="43.988664896362" lon="12.672535625986301"><ele>4.0</ele><time>2026-04-25T10:05:30Z</time></trkpt><trkpt lat="43.988612572078864" lon="12.672645206113671"><ele>4.0</ele><time>2026-04-25T10:05:31Z</time></trkpt><trkpt lat="43.98853763928848" lon="12.672772959356587"><ele>4.0</ele><time>2026-04-25T10:05:32Z</time></trkpt><trkpt lat="43.988440655605466" lon="12.6729169144326"><ele>4.0</ele><time>2026-04-25T10:05:33Z</time></trkpt><trkpt lat="43.98834008142892" lon="12.673074546686635"><ele>4.0</ele><time>2026-04-25T10:05:34Z</time></trkpt><trkpt lat="43.98824465726986" lon="12.673233378974496"><ele>4.0</ele><time>2026-04-25T10:05:35Z</time></trkpt><trkpt lat="43.98814733072613" lon="12.67339923274442"><ele>4.0</ele><time>2026-04-25T10:05:36Z</time></trkpt><trkpt lat="43.9880586519219" lon="12.673552932475816"><ele>4.0</ele><time>2026-04-25T10:05:37Z</time></trkpt><trkpt lat="43.98797663569068" lon="12.673692506604935"><ele>4.0</ele><time>2026-04-25T10:05:38Z</time></trkpt><trkpt lat="43.987898038000836" lon="12.673826727544379"><ele>4.0</ele><time>2026-04-25T10:05:39Z</time></trkpt><trkpt lat="43.98782013629459" lon="12.673957276786087"><ele>3.5</ele><time>2026-04-25T10:05:40Z</time></trkpt><trkpt lat="43.98774141493254" lon="12.67408578180042"><ele>3.0</ele><time>2026-04-25T10:05:41Z</time></trkpt><trkpt lat="43.98766237953747" lon="12.674214359549904"><ele>2.5</ele><time>2026-04-25T10:05:42Z</time></trkpt><trkpt lat="43.98758580577398" lon="12.674344557287561"><ele>2.0</ele><time>2026-04-25T10:05:43Z</time></trkpt><trkpt lat="43.98750630358165" lon="12.67447800270215"><ele>2.0</ele><time>2026-04-25T10:05:44Z</time></trkpt><trkpt lat="43.98742780500519" lon="12.674616462319"><ele>2.0</ele><time>2026-04-25T10:05:45Z</time></trkpt><trkpt lat="43.98734764677695" lon="12.674752204356004"><ele>2.0</ele><time>2026-04-25T10:05:46.001Z</time></trkpt><trkpt lat="43.98727225122512" lon="12.67488975418842"><ele>2.0</ele><time>2026-04-25T10:05:47.001Z</time></trkpt><trkpt lat="43.98719080670142" lon="12.675032136608406"><ele>2.0</ele><time>2026-04-25T10:05:48.001Z</time></trkpt><trkpt lat="43.98710651024933" lon="12.67517181657277"><ele>2.0</ele><time>2026-04-25T10:05:49.001Z</time></trkpt><trkpt lat="43.98701960145975" lon="12.675313651792466"><ele>2.0</ele><time>2026-04-25T10:05:50.001Z</time></trkpt><trkpt lat="43.98694264420112" lon="12.675450350345352"><ele>2.0</ele><time>2026-04-25T10:05:51.001Z</time></trkpt><trkpt lat="43.98686135067501" lon="12.675579698273555"><ele>2.0</ele><time>2026-04-25T10:05:52.001Z</time></trkpt><trkpt lat="43.986782365884324" lon="12.675704969523636"><ele>2.0</ele><time>2026-04-25T10:05:53.001Z</time></trkpt><trkpt lat="43.98671419002651" lon="12.67581637614027"><ele>2.0</ele><time>2026-04-25T10:05:54.001Z</time></trkpt><trkpt lat="43.98664029362407" lon="12.675938026221967"><ele>2.0</ele><time>2026-04-25T10:05:55.001Z</time></trkpt><trkpt lat="43.98656480832728" lon="12.67607114922048"><ele>2.5</ele><time>2026-04-25T10:05:56.001Z</time></trkpt><trkpt lat="43.98649248615756" lon="12.676199757643362"><ele>3.0</ele><time>2026-04-25T10:05:57.001Z</time></trkpt><trkpt lat="43.98641459577599" lon="12.676330830818275"><ele>3.5</ele><time>2026-04-25T10:05:58.001Z</time></trkpt><trkpt lat="43.98634378043415" lon="12.676449268803442"><ele>4.0</ele><time>2026-04-25T10:05:59.001Z</time></trkpt><trkpt lat="43.98627941084767" lon="12.67655805788705"><ele>4.0</ele><time>2026-04-25T10:06:00.001Z</time></trkpt><trkpt lat="43.98621790211956" lon="12.676668194760646"><ele>4.0</ele><time>2026-04-25T10:06:01.001Z</time></trkpt><trkpt lat="43.98616917442342" lon="12.676762324710506"><ele>4.0</ele><time>2026-04-25T10:06:02.001Z</time></trkpt><trkpt lat="43.986094339159074" lon="12.67685066448605"><ele>4.0</ele><time>2026-04-25T10:06:04.001Z</time></trkpt><trkpt lat="43.98602577460331" lon="12.676927607058134"><ele>4.0</ele><time>2026-04-25T10:06:06.001Z</time></trkpt><trkpt lat="43.98595061109539" lon="12.676884330479565"><ele>3.9999999999999996</ele><time>2026-04-25T10:06:07.001Z</time></trkpt><trkpt lat="43.98585228151779" lon="12.676774029421004"><ele>4.0</ele><time>2026-04-25T10:06:09.001Z</time></trkpt><trkpt lat="43.98579864372053" lon="12.67671574813249"><ele>4.0</ele><time>2026-04-25T10:06:10.001Z</time></trkpt><trkpt lat="43.98574405475769" lon="12.676657444713191"><ele>4.0</ele><time>2026-04-25T10:06:11.001Z</time></trkpt><trkpt lat="43.985652666152916" lon="12.676575960015214"><ele>3.9999999999999996</ele><time>2026-04-25T10:06:13.001Z</time></trkpt><trkpt lat="43.98560786364593" lon="12.67649413302152"><ele>4.0</ele><time>2026-04-25T10:06:15.001Z</time></trkpt><trkpt lat="43.98551887762574" lon="12.676713881362637"><ele>4.0</ele><time>2026-04-25T10:10:28.001Z</time></trkpt><trkpt lat="43.985527869986484" lon="12.676581749897464"><ele>4.0</ele><time>2026-04-25T10:11:41Z</time></trkpt><trkpt lat="43.985552149789804" lon="12.676500583957754"><ele>4.0</ele><time>2026-04-25T10:12:09.001Z</time></trkpt></trkseg></trk></gpx>